<?xml version="1.0" encoding="UTF-8"?>
<gpx
  version="1.0"
  creator="GPSBabel - http://www.gpsbabel.org"
  xmlns:xsi="http://www.w3.org/2001/XMLSchema-instance"
  xmlns="http://www.topografix.com/GPX/1/0"
  xsi:schemaLocation="http://www.topografix.com/GPX/1/0 http://www.topografix.com/GPX/1/0/gpx.xsd">
<time>2011-06-17T09:31:46Z</time>
<bounds minlat="32.718643188" minlon="35.036712646" maxlat="32.751613617" maxlon="35.077220917"/>
<trk>
  <name>Holux2011/06/17_06:19</name>
<trkseg>
<trkpt lat="32.751350403" lon="35.048034668">
  <ele>364.486816</ele>
  <time>2011-06-17T03:19:34Z</time>
  <speed>0.490000</speed>
</trkpt>
<trkpt lat="32.751361847" lon="35.048007965">
  <ele>366.197754</ele>
  <time>2011-06-17T03:19:40Z</time>
  <speed>1.690000</speed>
</trkpt>
<trkpt lat="32.751377106" lon="35.048042297">
  <ele>365.322754</ele>
  <time>2011-06-17T03:19:42Z</time>
  <speed>2.130000</speed>
</trkpt>
<trkpt lat="32.751403809" lon="35.048069000">
  <ele>364.986816</ele>
  <time>2011-06-17T03:19:43Z</time>
  <speed>2.720000</speed>
</trkpt>
<trkpt lat="32.751430511" lon="35.048091888">
  <ele>364.729004</ele>
  <time>2011-06-17T03:19:44Z</time>
  <speed>3.270000</speed>
</trkpt>
<trkpt lat="32.751480103" lon="35.048145294">
  <ele>364.018066</ele>
  <time>2011-06-17T03:19:46Z</time>
  <speed>3.490000</speed>
</trkpt>
<trkpt lat="32.751502991" lon="35.048171997">
  <ele>363.643066</ele>
  <time>2011-06-17T03:19:47Z</time>
  <speed>3.790000</speed>
</trkpt>
<trkpt lat="32.751529694" lon="35.048206329">
  <ele>363.166504</ele>
  <time>2011-06-17T03:19:48Z</time>
  <speed>4.410000</speed>
</trkpt>
<trkpt lat="32.751564026" lon="35.048244476">
  <ele>363.057129</ele>
  <time>2011-06-17T03:19:49Z</time>
  <speed>4.900000</speed>
</trkpt>
<trkpt lat="32.751594543" lon="35.048278809">
  <ele>362.611816</ele>
  <time>2011-06-17T03:19:50Z</time>
  <speed>4.710000</speed>
</trkpt>
<trkpt lat="32.751613617" lon="35.048320770">
  <ele>362.439941</ele>
  <time>2011-06-17T03:19:51Z</time>
  <speed>4.440000</speed>
</trkpt>
<trkpt lat="32.751613617" lon="35.048366547">
  <ele>362.275879</ele>
  <time>2011-06-17T03:19:52Z</time>
  <speed>3.610000</speed>
</trkpt>
<trkpt lat="32.751598358" lon="35.048400879">
  <ele>362.041504</ele>
  <time>2011-06-17T03:19:53Z</time>
  <speed>3.680000</speed>
</trkpt>
<trkpt lat="32.751571655" lon="35.048442841">
  <ele>362.104004</ele>
  <time>2011-06-17T03:19:54Z</time>
  <speed>3.620000</speed>
</trkpt>
<trkpt lat="32.751556396" lon="35.048477173">
  <ele>362.119629</ele>
  <time>2011-06-17T03:19:55Z</time>
  <speed>3.680000</speed>
</trkpt>
<trkpt lat="32.751529694" lon="35.048515320">
  <ele>362.072754</ele>
  <time>2011-06-17T03:19:56Z</time>
  <speed>4.000000</speed>
</trkpt>
<trkpt lat="32.751506805" lon="35.048553467">
  <ele>362.729004</ele>
  <time>2011-06-17T03:19:57Z</time>
  <speed>3.720000</speed>
</trkpt>
<trkpt lat="32.751491547" lon="35.048591614">
  <ele>362.463379</ele>
  <time>2011-06-17T03:19:58Z</time>
  <speed>3.900000</speed>
</trkpt>
<trkpt lat="32.751472473" lon="35.048637390">
  <ele>364.018066</ele>
  <time>2011-06-17T03:19:59Z</time>
  <speed>3.590000</speed>
</trkpt>
<trkpt lat="32.751457214" lon="35.048671722">
  <ele>364.463379</ele>
  <time>2011-06-17T03:20:00Z</time>
  <speed>3.310000</speed>
</trkpt>
<trkpt lat="32.751441956" lon="35.048702240">
  <ele>364.447754</ele>
  <time>2011-06-17T03:20:01Z</time>
  <speed>3.260000</speed>
</trkpt>
<trkpt lat="32.751430511" lon="35.048736572">
  <ele>364.838379</ele>
  <time>2011-06-17T03:20:02Z</time>
  <speed>3.260000</speed>
</trkpt>
<trkpt lat="32.751415253" lon="35.048774719">
  <ele>365.299316</ele>
  <time>2011-06-17T03:20:03Z</time>
  <speed>3.290000</speed>
</trkpt>
<trkpt lat="32.751399994" lon="35.048805237">
  <ele>365.479004</ele>
  <time>2011-06-17T03:20:04Z</time>
  <speed>3.370000</speed>
</trkpt>
<trkpt lat="32.751388550" lon="35.048839569">
  <ele>365.377441</ele>
  <time>2011-06-17T03:20:05Z</time>
  <speed>3.440000</speed>
</trkpt>
<trkpt lat="32.751377106" lon="35.048881531">
  <ele>365.682129</ele>
  <time>2011-06-17T03:20:06Z</time>
  <speed>3.330000</speed>
</trkpt>
<trkpt lat="32.751365662" lon="35.048915863">
  <ele>365.877441</ele>
  <time>2011-06-17T03:20:07Z</time>
  <speed>3.360000</speed>
</trkpt>
<trkpt lat="32.751354218" lon="35.048950195">
  <ele>365.604004</ele>
  <time>2011-06-17T03:20:08Z</time>
  <speed>3.570000</speed>
</trkpt>
<trkpt lat="32.751338959" lon="35.048984528">
  <ele>365.932129</ele>
  <time>2011-06-17T03:20:09Z</time>
  <speed>3.470000</speed>
</trkpt>
<trkpt lat="32.751331329" lon="35.049018860">
  <ele>366.213379</ele>
  <time>2011-06-17T03:20:10Z</time>
  <speed>3.610000</speed>
</trkpt>
<trkpt lat="32.751316071" lon="35.049053192">
  <ele>366.400879</ele>
  <time>2011-06-17T03:20:11Z</time>
  <speed>3.530000</speed>
</trkpt>
<trkpt lat="32.751300812" lon="35.049083710">
  <ele>366.010254</ele>
  <time>2011-06-17T03:20:12Z</time>
  <speed>3.350000</speed>
</trkpt>
<trkpt lat="32.751285553" lon="35.049114227">
  <ele>366.041504</ele>
  <time>2011-06-17T03:20:13Z</time>
  <speed>3.600000</speed>
</trkpt>
<trkpt lat="32.751270294" lon="35.049152374">
  <ele>366.330566</ele>
  <time>2011-06-17T03:20:14Z</time>
  <speed>3.640000</speed>
</trkpt>
<trkpt lat="32.751251221" lon="35.049182892">
  <ele>366.400879</ele>
  <time>2011-06-17T03:20:15Z</time>
  <speed>3.450000</speed>
</trkpt>
<trkpt lat="32.751239777" lon="35.049217224">
  <ele>366.799316</ele>
  <time>2011-06-17T03:20:16Z</time>
  <speed>3.410000</speed>
</trkpt>
<trkpt lat="32.751232147" lon="35.049247742">
  <ele>367.400879</ele>
  <time>2011-06-17T03:20:17Z</time>
  <speed>3.360000</speed>
</trkpt>
<trkpt lat="32.751220703" lon="35.049282074">
  <ele>367.822754</ele>
  <time>2011-06-17T03:20:18Z</time>
  <speed>3.600000</speed>
</trkpt>
<trkpt lat="32.751213074" lon="35.049316406">
  <ele>368.354004</ele>
  <time>2011-06-17T03:20:19Z</time>
  <speed>3.520000</speed>
</trkpt>
<trkpt lat="32.751201630" lon="35.049354553">
  <ele>368.604004</ele>
  <time>2011-06-17T03:20:20Z</time>
  <speed>3.440000</speed>
</trkpt>
<trkpt lat="32.751190186" lon="35.049388885">
  <ele>368.939941</ele>
  <time>2011-06-17T03:20:21Z</time>
  <speed>3.470000</speed>
</trkpt>
<trkpt lat="32.751182556" lon="35.049427032">
  <ele>369.564941</ele>
  <time>2011-06-17T03:20:22Z</time>
  <speed>3.730000</speed>
</trkpt>
<trkpt lat="32.751167297" lon="35.049465179">
  <ele>369.611816</ele>
  <time>2011-06-17T03:20:23Z</time>
  <speed>3.420000</speed>
</trkpt>
<trkpt lat="32.751159668" lon="35.049499512">
  <ele>369.658691</ele>
  <time>2011-06-17T03:20:24Z</time>
  <speed>3.460000</speed>
</trkpt>
<trkpt lat="32.751144409" lon="35.049533844">
  <ele>369.424316</ele>
  <time>2011-06-17T03:20:25Z</time>
  <speed>3.670000</speed>
</trkpt>
<trkpt lat="32.751140594" lon="35.049571991">
  <ele>369.752441</ele>
  <time>2011-06-17T03:20:26Z</time>
  <speed>3.640000</speed>
</trkpt>
<trkpt lat="32.751129150" lon="35.049610138">
  <ele>369.799316</ele>
  <time>2011-06-17T03:20:27Z</time>
  <speed>3.600000</speed>
</trkpt>
<trkpt lat="32.751113892" lon="35.049648285">
  <ele>369.018066</ele>
  <time>2011-06-17T03:20:28Z</time>
  <speed>3.620000</speed>
</trkpt>
<trkpt lat="32.751110077" lon="35.049682617">
  <ele>369.244629</ele>
  <time>2011-06-17T03:20:29Z</time>
  <speed>3.660000</speed>
</trkpt>
<trkpt lat="32.751098633" lon="35.049724579">
  <ele>369.455566</ele>
  <time>2011-06-17T03:20:30Z</time>
  <speed>3.750000</speed>
</trkpt>
<trkpt lat="32.751091003" lon="35.049766541">
  <ele>369.752441</ele>
  <time>2011-06-17T03:20:31Z</time>
  <speed>3.730000</speed>
</trkpt>
<trkpt lat="32.751079559" lon="35.049800873">
  <ele>369.643066</ele>
  <time>2011-06-17T03:20:32Z</time>
  <speed>3.800000</speed>
</trkpt>
<trkpt lat="32.751068115" lon="35.049842834">
  <ele>369.939941</ele>
  <time>2011-06-17T03:20:33Z</time>
  <speed>3.660000</speed>
</trkpt>
<trkpt lat="32.751052856" lon="35.049880981">
  <ele>369.525879</ele>
  <time>2011-06-17T03:20:34Z</time>
  <speed>3.770000</speed>
</trkpt>
<trkpt lat="32.751037598" lon="35.049919128">
  <ele>369.416504</ele>
  <time>2011-06-17T03:20:35Z</time>
  <speed>3.860000</speed>
</trkpt>
<trkpt lat="32.751026154" lon="35.049953461">
  <ele>369.783691</ele>
  <time>2011-06-17T03:20:36Z</time>
  <speed>3.530000</speed>
</trkpt>
<trkpt lat="32.751007080" lon="35.049987793">
  <ele>369.393066</ele>
  <time>2011-06-17T03:20:37Z</time>
  <speed>3.940000</speed>
</trkpt>
<trkpt lat="32.750991821" lon="35.050022125">
  <ele>369.525879</ele>
  <time>2011-06-17T03:20:38Z</time>
  <speed>3.660000</speed>
</trkpt>
<trkpt lat="32.750980377" lon="35.050056458">
  <ele>369.564941</ele>
  <time>2011-06-17T03:20:39Z</time>
  <speed>3.770000</speed>
</trkpt>
<trkpt lat="32.750968933" lon="35.050094604">
  <ele>369.627441</ele>
  <time>2011-06-17T03:20:40Z</time>
  <speed>3.680000</speed>
</trkpt>
<trkpt lat="32.750961304" lon="35.050132751">
  <ele>369.814941</ele>
  <time>2011-06-17T03:20:41Z</time>
  <speed>3.620000</speed>
</trkpt>
<trkpt lat="32.750949860" lon="35.050170898">
  <ele>369.432129</ele>
  <time>2011-06-17T03:20:42Z</time>
  <speed>3.920000</speed>
</trkpt>
<trkpt lat="32.750938416" lon="35.050205231">
  <ele>370.002441</ele>
  <time>2011-06-17T03:20:43Z</time>
  <speed>3.680000</speed>
</trkpt>
<trkpt lat="32.750923157" lon="35.050243378">
  <ele>369.900879</ele>
  <time>2011-06-17T03:20:44Z</time>
  <speed>3.710000</speed>
</trkpt>
<trkpt lat="32.750907898" lon="35.050281525">
  <ele>369.924316</ele>
  <time>2011-06-17T03:20:45Z</time>
  <speed>3.710000</speed>
</trkpt>
<trkpt lat="32.750896454" lon="35.050319672">
  <ele>369.830566</ele>
  <time>2011-06-17T03:20:46Z</time>
  <speed>3.730000</speed>
</trkpt>
<trkpt lat="32.750888824" lon="35.050361633">
  <ele>370.049316</ele>
  <time>2011-06-17T03:20:47Z</time>
  <speed>3.800000</speed>
</trkpt>
<trkpt lat="32.750881195" lon="35.050399780">
  <ele>370.369629</ele>
  <time>2011-06-17T03:20:48Z</time>
  <speed>3.520000</speed>
</trkpt>
<trkpt lat="32.750865936" lon="35.050434113">
  <ele>370.447754</ele>
  <time>2011-06-17T03:20:49Z</time>
  <speed>3.640000</speed>
</trkpt>
<trkpt lat="32.750854492" lon="35.050468445">
  <ele>370.213379</ele>
  <time>2011-06-17T03:20:50Z</time>
  <speed>3.940000</speed>
</trkpt>
<trkpt lat="32.750843048" lon="35.050506592">
  <ele>369.854004</ele>
  <time>2011-06-17T03:20:51Z</time>
  <speed>3.830000</speed>
</trkpt>
<trkpt lat="32.750831604" lon="35.050552368">
  <ele>369.564941</ele>
  <time>2011-06-17T03:20:52Z</time>
  <speed>3.920000</speed>
</trkpt>
<trkpt lat="32.750820160" lon="35.050586700">
  <ele>369.900879</ele>
  <time>2011-06-17T03:20:53Z</time>
  <speed>3.880000</speed>
</trkpt>
<trkpt lat="32.750812531" lon="35.050628662">
  <ele>370.182129</ele>
  <time>2011-06-17T03:20:54Z</time>
  <speed>3.840000</speed>
</trkpt>
<trkpt lat="32.750804901" lon="35.050662994">
  <ele>370.354004</ele>
  <time>2011-06-17T03:20:55Z</time>
  <speed>3.710000</speed>
</trkpt>
<trkpt lat="32.750793457" lon="35.050701141">
  <ele>370.439941</ele>
  <time>2011-06-17T03:20:56Z</time>
  <speed>3.880000</speed>
</trkpt>
<trkpt lat="32.750789642" lon="35.050739288">
  <ele>370.783691</ele>
  <time>2011-06-17T03:20:57Z</time>
  <speed>3.740000</speed>
</trkpt>
<trkpt lat="32.750770569" lon="35.050777435">
  <ele>370.830566</ele>
  <time>2011-06-17T03:20:58Z</time>
  <speed>3.950000</speed>
</trkpt>
<trkpt lat="32.750755310" lon="35.050819397">
  <ele>371.166504</ele>
  <time>2011-06-17T03:20:59Z</time>
  <speed>3.670000</speed>
</trkpt>
<trkpt lat="32.750743866" lon="35.050857544">
  <ele>370.689941</ele>
  <time>2011-06-17T03:21:00Z</time>
  <speed>3.540000</speed>
</trkpt>
<trkpt lat="32.750728607" lon="35.050891876">
  <ele>370.822754</ele>
  <time>2011-06-17T03:21:01Z</time>
  <speed>3.740000</speed>
</trkpt>
<trkpt lat="32.750713348" lon="35.050930023">
  <ele>370.916504</ele>
  <time>2011-06-17T03:21:02Z</time>
  <speed>3.810000</speed>
</trkpt>
<trkpt lat="32.750701904" lon="35.050968170">
  <ele>371.377441</ele>
  <time>2011-06-17T03:21:03Z</time>
  <speed>3.900000</speed>
</trkpt>
<trkpt lat="32.750690460" lon="35.051006317">
  <ele>371.697754</ele>
  <time>2011-06-17T03:21:04Z</time>
  <speed>3.970000</speed>
</trkpt>
<trkpt lat="32.750675201" lon="35.051040649">
  <ele>371.674316</ele>
  <time>2011-06-17T03:21:05Z</time>
  <speed>3.740000</speed>
</trkpt>
<trkpt lat="32.750659943" lon="35.051082611">
  <ele>371.947754</ele>
  <time>2011-06-17T03:21:06Z</time>
  <speed>4.120000</speed>
</trkpt>
<trkpt lat="32.750652313" lon="35.051120758">
  <ele>372.955566</ele>
  <time>2011-06-17T03:21:07Z</time>
  <speed>3.920000</speed>
</trkpt>
<trkpt lat="32.750640869" lon="35.051155090">
  <ele>372.736816</ele>
  <time>2011-06-17T03:21:08Z</time>
  <speed>3.880000</speed>
</trkpt>
<trkpt lat="32.750633240" lon="35.051193237">
  <ele>372.885254</ele>
  <time>2011-06-17T03:21:09Z</time>
  <speed>3.980000</speed>
</trkpt>
<trkpt lat="32.750625610" lon="35.051235199">
  <ele>373.494629</ele>
  <time>2011-06-17T03:21:10Z</time>
  <speed>3.860000</speed>
</trkpt>
<trkpt lat="32.750610352" lon="35.051273346">
  <ele>373.994629</ele>
  <time>2011-06-17T03:21:11Z</time>
  <speed>3.870000</speed>
</trkpt>
<trkpt lat="32.750595093" lon="35.051307678">
  <ele>373.502441</ele>
  <time>2011-06-17T03:21:12Z</time>
  <speed>3.900000</speed>
</trkpt>
<trkpt lat="32.750583649" lon="35.051349640">
  <ele>373.799316</ele>
  <time>2011-06-17T03:21:13Z</time>
  <speed>3.840000</speed>
</trkpt>
<trkpt lat="32.750568390" lon="35.051387787">
  <ele>373.994629</ele>
  <time>2011-06-17T03:21:14Z</time>
  <speed>3.830000</speed>
</trkpt>
<trkpt lat="32.750553131" lon="35.051425934">
  <ele>374.018066</ele>
  <time>2011-06-17T03:21:15Z</time>
  <speed>3.300000</speed>
</trkpt>
<trkpt lat="32.750549316" lon="35.051460266">
  <ele>374.275879</ele>
  <time>2011-06-17T03:21:16Z</time>
  <speed>3.470000</speed>
</trkpt>
<trkpt lat="32.750541687" lon="35.051494598">
  <ele>374.838379</ele>
  <time>2011-06-17T03:21:17Z</time>
  <speed>3.550000</speed>
</trkpt>
<trkpt lat="32.750530243" lon="35.051532745">
  <ele>374.752441</ele>
  <time>2011-06-17T03:21:18Z</time>
  <speed>3.750000</speed>
</trkpt>
<trkpt lat="32.750522614" lon="35.051570892">
  <ele>375.057129</ele>
  <time>2011-06-17T03:21:19Z</time>
  <speed>3.870000</speed>
</trkpt>
<trkpt lat="32.750511169" lon="35.051605225">
  <ele>374.838379</ele>
  <time>2011-06-17T03:21:20Z</time>
  <speed>3.720000</speed>
</trkpt>
<trkpt lat="32.750499725" lon="35.051647186">
  <ele>375.080566</ele>
  <time>2011-06-17T03:21:21Z</time>
  <speed>3.790000</speed>
</trkpt>
<trkpt lat="32.750488281" lon="35.051685333">
  <ele>374.752441</ele>
  <time>2011-06-17T03:21:22Z</time>
  <speed>3.820000</speed>
</trkpt>
<trkpt lat="32.750469208" lon="35.051719666">
  <ele>374.557129</ele>
  <time>2011-06-17T03:21:23Z</time>
  <speed>3.750000</speed>
</trkpt>
<trkpt lat="32.750453949" lon="35.051757813">
  <ele>374.486816</ele>
  <time>2011-06-17T03:21:24Z</time>
  <speed>3.730000</speed>
</trkpt>
<trkpt lat="32.750442505" lon="35.051799774">
  <ele>374.658691</ele>
  <time>2011-06-17T03:21:25Z</time>
  <speed>3.730000</speed>
</trkpt>
<trkpt lat="32.750438690" lon="35.051837921">
  <ele>374.486816</ele>
  <time>2011-06-17T03:21:26Z</time>
  <speed>3.640000</speed>
</trkpt>
<trkpt lat="32.750423431" lon="35.051876068">
  <ele>374.244629</ele>
  <time>2011-06-17T03:21:27Z</time>
  <speed>3.930000</speed>
</trkpt>
<trkpt lat="32.750411987" lon="35.051918030">
  <ele>374.596191</ele>
  <time>2011-06-17T03:21:28Z</time>
  <speed>3.710000</speed>
</trkpt>
<trkpt lat="32.750400543" lon="35.051956177">
  <ele>375.096191</ele>
  <time>2011-06-17T03:21:29Z</time>
  <speed>3.590000</speed>
</trkpt>
<trkpt lat="32.750392914" lon="35.051994324">
  <ele>375.432129</ele>
  <time>2011-06-17T03:21:30Z</time>
  <speed>3.810000</speed>
</trkpt>
<trkpt lat="32.750373840" lon="35.052032471">
  <ele>375.189941</ele>
  <time>2011-06-17T03:21:31Z</time>
  <speed>3.950000</speed>
</trkpt>
<trkpt lat="32.750362396" lon="35.052070618">
  <ele>375.768066</ele>
  <time>2011-06-17T03:21:32Z</time>
  <speed>3.600000</speed>
</trkpt>
<trkpt lat="32.750350952" lon="35.052104950">
  <ele>375.752441</ele>
  <time>2011-06-17T03:21:33Z</time>
  <speed>3.770000</speed>
</trkpt>
<trkpt lat="32.750331879" lon="35.052139282">
  <ele>375.361816</ele>
  <time>2011-06-17T03:21:34Z</time>
  <speed>3.920000</speed>
</trkpt>
<trkpt lat="32.750320435" lon="35.052181244">
  <ele>375.525879</ele>
  <time>2011-06-17T03:21:35Z</time>
  <speed>3.900000</speed>
</trkpt>
<trkpt lat="32.750305176" lon="35.052219391">
  <ele>376.096191</ele>
  <time>2011-06-17T03:21:36Z</time>
  <speed>3.750000</speed>
</trkpt>
<trkpt lat="32.750293732" lon="35.052257538">
  <ele>376.189941</ele>
  <time>2011-06-17T03:21:37Z</time>
  <speed>3.990000</speed>
</trkpt>
<trkpt lat="32.750278473" lon="35.052295685">
  <ele>376.354004</ele>
  <time>2011-06-17T03:21:38Z</time>
  <speed>3.880000</speed>
</trkpt>
<trkpt lat="32.750267029" lon="35.052330017">
  <ele>378.119629</ele>
  <time>2011-06-17T03:21:39Z</time>
  <speed>3.930000</speed>
</trkpt>
<trkpt lat="32.750255585" lon="35.052371979">
  <ele>378.291504</ele>
  <time>2011-06-17T03:21:40Z</time>
  <speed>4.020000</speed>
</trkpt>
<trkpt lat="32.750240326" lon="35.052410126">
  <ele>378.260254</ele>
  <time>2011-06-17T03:21:41Z</time>
  <speed>3.820000</speed>
</trkpt>
<trkpt lat="32.750228882" lon="35.052448273">
  <ele>378.010254</ele>
  <time>2011-06-17T03:21:42Z</time>
  <speed>3.810000</speed>
</trkpt>
<trkpt lat="32.750213623" lon="35.052490234">
  <ele>378.221191</ele>
  <time>2011-06-17T03:21:43Z</time>
  <speed>4.060000</speed>
</trkpt>
<trkpt lat="32.750198364" lon="35.052532196">
  <ele>377.971191</ele>
  <time>2011-06-17T03:21:44Z</time>
  <speed>3.880000</speed>
</trkpt>
<trkpt lat="32.750183105" lon="35.052566528">
  <ele>378.299316</ele>
  <time>2011-06-17T03:21:45Z</time>
  <speed>3.920000</speed>
</trkpt>
<trkpt lat="32.750171661" lon="35.052604675">
  <ele>378.104004</ele>
  <time>2011-06-17T03:21:46Z</time>
  <speed>4.030000</speed>
</trkpt>
<trkpt lat="32.750152588" lon="35.052635193">
  <ele>378.213379</ele>
  <time>2011-06-17T03:21:47Z</time>
  <speed>4.010000</speed>
</trkpt>
<trkpt lat="32.750141144" lon="35.052673340">
  <ele>378.439941</ele>
  <time>2011-06-17T03:21:48Z</time>
  <speed>3.880000</speed>
</trkpt>
<trkpt lat="32.750129700" lon="35.052715302">
  <ele>378.635254</ele>
  <time>2011-06-17T03:21:49Z</time>
  <speed>3.970000</speed>
</trkpt>
<trkpt lat="32.750106812" lon="35.052745819">
  <ele>378.939941</ele>
  <time>2011-06-17T03:21:50Z</time>
  <speed>4.040000</speed>
</trkpt>
<trkpt lat="32.750091553" lon="35.052787781">
  <ele>378.791504</ele>
  <time>2011-06-17T03:21:51Z</time>
  <speed>4.120000</speed>
</trkpt>
<trkpt lat="32.750068665" lon="35.052825928">
  <ele>378.174316</ele>
  <time>2011-06-17T03:21:52Z</time>
  <speed>3.920000</speed>
</trkpt>
<trkpt lat="32.750049591" lon="35.052860260">
  <ele>378.143066</ele>
  <time>2011-06-17T03:21:53Z</time>
  <speed>4.130000</speed>
</trkpt>
<trkpt lat="32.750034332" lon="35.052898407">
  <ele>378.033691</ele>
  <time>2011-06-17T03:21:54Z</time>
  <speed>4.120000</speed>
</trkpt>
<trkpt lat="32.750015259" lon="35.052936554">
  <ele>378.057129</ele>
  <time>2011-06-17T03:21:55Z</time>
  <speed>3.990000</speed>
</trkpt>
<trkpt lat="32.749992371" lon="35.052974701">
  <ele>378.174316</ele>
  <time>2011-06-17T03:21:56Z</time>
  <speed>4.120000</speed>
</trkpt>
<trkpt lat="32.749973297" lon="35.053012848">
  <ele>378.010254</ele>
  <time>2011-06-17T03:21:57Z</time>
  <speed>4.170000</speed>
</trkpt>
<trkpt lat="32.749946594" lon="35.053047180">
  <ele>377.814941</ele>
  <time>2011-06-17T03:21:58Z</time>
  <speed>4.000000</speed>
</trkpt>
<trkpt lat="32.749931335" lon="35.053085327">
  <ele>378.041504</ele>
  <time>2011-06-17T03:21:59Z</time>
  <speed>4.000000</speed>
</trkpt>
<trkpt lat="32.749916077" lon="35.053119659">
  <ele>377.939941</ele>
  <time>2011-06-17T03:22:00Z</time>
  <speed>4.180000</speed>
</trkpt>
<trkpt lat="32.749889374" lon="35.053153992">
  <ele>377.658691</ele>
  <time>2011-06-17T03:22:01Z</time>
  <speed>4.020000</speed>
</trkpt>
<trkpt lat="32.749874115" lon="35.053188324">
  <ele>377.549316</ele>
  <time>2011-06-17T03:22:02Z</time>
  <speed>3.890000</speed>
</trkpt>
<trkpt lat="32.749855042" lon="35.053222656">
  <ele>377.416504</ele>
  <time>2011-06-17T03:22:03Z</time>
  <speed>4.180000</speed>
</trkpt>
<trkpt lat="32.749832153" lon="35.053264618">
  <ele>377.393066</ele>
  <time>2011-06-17T03:22:04Z</time>
  <speed>4.210000</speed>
</trkpt>
<trkpt lat="32.749813080" lon="35.053298950">
  <ele>377.221191</ele>
  <time>2011-06-17T03:22:05Z</time>
  <speed>4.210000</speed>
</trkpt>
<trkpt lat="32.749786377" lon="35.053337097">
  <ele>377.041504</ele>
  <time>2011-06-17T03:22:06Z</time>
  <speed>4.160000</speed>
</trkpt>
<trkpt lat="32.749759674" lon="35.053371429">
  <ele>377.533691</ele>
  <time>2011-06-17T03:22:07Z</time>
  <speed>4.310000</speed>
</trkpt>
<trkpt lat="32.749732971" lon="35.053409576">
  <ele>377.533691</ele>
  <time>2011-06-17T03:22:08Z</time>
  <speed>4.320000</speed>
</trkpt>
<trkpt lat="32.749706268" lon="35.053440094">
  <ele>377.697754</ele>
  <time>2011-06-17T03:22:09Z</time>
  <speed>4.230000</speed>
</trkpt>
<trkpt lat="32.749683380" lon="35.053478241">
  <ele>377.557129</ele>
  <time>2011-06-17T03:22:10Z</time>
  <speed>4.450000</speed>
</trkpt>
<trkpt lat="32.749656677" lon="35.053516388">
  <ele>377.799316</ele>
  <time>2011-06-17T03:22:11Z</time>
  <speed>4.440000</speed>
</trkpt>
<trkpt lat="32.749633789" lon="35.053554535">
  <ele>378.111816</ele>
  <time>2011-06-17T03:22:12Z</time>
  <speed>4.340000</speed>
</trkpt>
<trkpt lat="32.749610901" lon="35.053592682">
  <ele>378.166504</ele>
  <time>2011-06-17T03:22:13Z</time>
  <speed>4.370000</speed>
</trkpt>
<trkpt lat="32.749584198" lon="35.053627014">
  <ele>378.205566</ele>
  <time>2011-06-17T03:22:14Z</time>
  <speed>4.490000</speed>
</trkpt>
<trkpt lat="32.749561310" lon="35.053668976">
  <ele>378.283691</ele>
  <time>2011-06-17T03:22:15Z</time>
  <speed>4.470000</speed>
</trkpt>
<trkpt lat="32.749538422" lon="35.053703308">
  <ele>378.314941</ele>
  <time>2011-06-17T03:22:16Z</time>
  <speed>4.550000</speed>
</trkpt>
<trkpt lat="32.749507904" lon="35.053741455">
  <ele>378.455566</ele>
  <time>2011-06-17T03:22:17Z</time>
  <speed>4.560000</speed>
</trkpt>
<trkpt lat="32.749485016" lon="35.053779602">
  <ele>378.689941</ele>
  <time>2011-06-17T03:22:18Z</time>
  <speed>4.500000</speed>
</trkpt>
<trkpt lat="32.749454498" lon="35.053813934">
  <ele>379.143066</ele>
  <time>2011-06-17T03:22:19Z</time>
  <speed>4.660000</speed>
</trkpt>
<trkpt lat="32.749423981" lon="35.053844452">
  <ele>378.822754</ele>
  <time>2011-06-17T03:22:20Z</time>
  <speed>4.510000</speed>
</trkpt>
<trkpt lat="32.749389648" lon="35.053882599">
  <ele>378.385254</ele>
  <time>2011-06-17T03:22:21Z</time>
  <speed>4.630000</speed>
</trkpt>
<trkpt lat="32.749355316" lon="35.053913116">
  <ele>378.510254</ele>
  <time>2011-06-17T03:22:22Z</time>
  <speed>4.470000</speed>
</trkpt>
<trkpt lat="32.749328613" lon="35.053951263">
  <ele>378.439941</ele>
  <time>2011-06-17T03:22:23Z</time>
  <speed>4.600000</speed>
</trkpt>
<trkpt lat="32.749301910" lon="35.053989410">
  <ele>378.674316</ele>
  <time>2011-06-17T03:22:24Z</time>
  <speed>4.630000</speed>
</trkpt>
<trkpt lat="32.749279022" lon="35.054023743">
  <ele>378.080566</ele>
  <time>2011-06-17T03:22:25Z</time>
  <speed>4.590000</speed>
</trkpt>
<trkpt lat="32.749259949" lon="35.054061890">
  <ele>378.729004</ele>
  <time>2011-06-17T03:22:26Z</time>
  <speed>4.420000</speed>
</trkpt>
<trkpt lat="32.749233246" lon="35.054100037">
  <ele>379.018066</ele>
  <time>2011-06-17T03:22:27Z</time>
  <speed>4.320000</speed>
</trkpt>
<trkpt lat="32.749214172" lon="35.054138184">
  <ele>378.939941</ele>
  <time>2011-06-17T03:22:28Z</time>
  <speed>4.220000</speed>
</trkpt>
<trkpt lat="32.749195099" lon="35.054172516">
  <ele>378.932129</ele>
  <time>2011-06-17T03:22:29Z</time>
  <speed>4.140000</speed>
</trkpt>
<trkpt lat="32.749172211" lon="35.054206848">
  <ele>378.822754</ele>
  <time>2011-06-17T03:22:30Z</time>
  <speed>4.320000</speed>
</trkpt>
<trkpt lat="32.749153137" lon="35.054244995">
  <ele>379.096191</ele>
  <time>2011-06-17T03:22:31Z</time>
  <speed>4.110000</speed>
</trkpt>
<trkpt lat="32.749126434" lon="35.054279327">
  <ele>379.377441</ele>
  <time>2011-06-17T03:22:32Z</time>
  <speed>4.110000</speed>
</trkpt>
<trkpt lat="32.749103546" lon="35.054309845">
  <ele>379.244629</ele>
  <time>2011-06-17T03:22:33Z</time>
  <speed>4.080000</speed>
</trkpt>
<trkpt lat="32.749080658" lon="35.054340363">
  <ele>379.119629</ele>
  <time>2011-06-17T03:22:34Z</time>
  <speed>4.140000</speed>
</trkpt>
<trkpt lat="32.749057770" lon="35.054378510">
  <ele>379.557129</ele>
  <time>2011-06-17T03:22:35Z</time>
  <speed>4.270000</speed>
</trkpt>
<trkpt lat="32.749034882" lon="35.054412842">
  <ele>379.869629</ele>
  <time>2011-06-17T03:22:36Z</time>
  <speed>4.330000</speed>
</trkpt>
<trkpt lat="32.749000549" lon="35.054439545">
  <ele>379.885254</ele>
  <time>2011-06-17T03:22:37Z</time>
  <speed>4.250000</speed>
</trkpt>
<trkpt lat="32.748973846" lon="35.054470062">
  <ele>380.283691</ele>
  <time>2011-06-17T03:22:38Z</time>
  <speed>4.400000</speed>
</trkpt>
<trkpt lat="32.748943329" lon="35.054500580">
  <ele>379.939941</ele>
  <time>2011-06-17T03:22:39Z</time>
  <speed>4.510000</speed>
</trkpt>
<trkpt lat="32.748916626" lon="35.054531097">
  <ele>380.057129</ele>
  <time>2011-06-17T03:22:40Z</time>
  <speed>4.510000</speed>
</trkpt>
<trkpt lat="32.748886108" lon="35.054561615">
  <ele>379.893066</ele>
  <time>2011-06-17T03:22:41Z</time>
  <speed>4.290000</speed>
</trkpt>
<trkpt lat="32.748855591" lon="35.054584503">
  <ele>380.127441</ele>
  <time>2011-06-17T03:22:42Z</time>
  <speed>4.120000</speed>
</trkpt>
<trkpt lat="32.748821259" lon="35.054615021">
  <ele>379.174316</ele>
  <time>2011-06-17T03:22:43Z</time>
  <speed>4.110000</speed>
</trkpt>
<trkpt lat="32.748794556" lon="35.054641724">
  <ele>379.736816</ele>
  <time>2011-06-17T03:22:44Z</time>
  <speed>4.330000</speed>
</trkpt>
<trkpt lat="32.748760223" lon="35.054672241">
  <ele>379.908691</ele>
  <time>2011-06-17T03:22:45Z</time>
  <speed>4.420000</speed>
</trkpt>
<trkpt lat="32.748729706" lon="35.054698944">
  <ele>380.135254</ele>
  <time>2011-06-17T03:22:46Z</time>
  <speed>4.150000</speed>
</trkpt>
<trkpt lat="32.748699188" lon="35.054729462">
  <ele>380.424316</ele>
  <time>2011-06-17T03:22:47Z</time>
  <speed>4.240000</speed>
</trkpt>
<trkpt lat="32.748668671" lon="35.054759979">
  <ele>380.689941</ele>
  <time>2011-06-17T03:22:48Z</time>
  <speed>4.210000</speed>
</trkpt>
<trkpt lat="32.748634338" lon="35.054786682">
  <ele>380.604004</ele>
  <time>2011-06-17T03:22:49Z</time>
  <speed>4.310000</speed>
</trkpt>
<trkpt lat="32.748600006" lon="35.054817200">
  <ele>379.885254</ele>
  <time>2011-06-17T03:22:50Z</time>
  <speed>4.410000</speed>
</trkpt>
<trkpt lat="32.748569489" lon="35.054851532">
  <ele>380.119629</ele>
  <time>2011-06-17T03:22:51Z</time>
  <speed>4.330000</speed>
</trkpt>
<trkpt lat="32.748538971" lon="35.054882050">
  <ele>379.971191</ele>
  <time>2011-06-17T03:22:52Z</time>
  <speed>4.330000</speed>
</trkpt>
<trkpt lat="32.748512268" lon="35.054904938">
  <ele>379.666504</ele>
  <time>2011-06-17T03:22:53Z</time>
  <speed>4.170000</speed>
</trkpt>
<trkpt lat="32.748481750" lon="35.054939270">
  <ele>378.768066</ele>
  <time>2011-06-17T03:22:54Z</time>
  <speed>4.450000</speed>
</trkpt>
<trkpt lat="32.748455048" lon="35.054965973">
  <ele>379.174316</ele>
  <time>2011-06-17T03:22:55Z</time>
  <speed>4.060000</speed>
</trkpt>
<trkpt lat="32.748424530" lon="35.054985046">
  <ele>379.947754</ele>
  <time>2011-06-17T03:22:56Z</time>
  <speed>3.880000</speed>
</trkpt>
<trkpt lat="32.748401642" lon="35.055007935">
  <ele>379.830566</ele>
  <time>2011-06-17T03:22:57Z</time>
  <speed>3.940000</speed>
</trkpt>
<trkpt lat="32.748371124" lon="35.055027008">
  <ele>379.979004</ele>
  <time>2011-06-17T03:22:58Z</time>
  <speed>3.800000</speed>
</trkpt>
<trkpt lat="32.748340607" lon="35.055046082">
  <ele>379.924316</ele>
  <time>2011-06-17T03:22:59Z</time>
  <speed>3.880000</speed>
</trkpt>
<trkpt lat="32.748310089" lon="35.055068970">
  <ele>378.580566</ele>
  <time>2011-06-17T03:23:00Z</time>
  <speed>4.230000</speed>
</trkpt>
<trkpt lat="32.748275757" lon="35.055088043">
  <ele>378.369629</ele>
  <time>2011-06-17T03:23:01Z</time>
  <speed>3.760000</speed>
</trkpt>
<trkpt lat="32.748245239" lon="35.055110931">
  <ele>378.518066</ele>
  <time>2011-06-17T03:23:02Z</time>
  <speed>4.210000</speed>
</trkpt>
<trkpt lat="32.748207092" lon="35.055133820">
  <ele>378.939941</ele>
  <time>2011-06-17T03:23:03Z</time>
  <speed>4.240000</speed>
</trkpt>
<trkpt lat="32.748180389" lon="35.055156708">
  <ele>378.893066</ele>
  <time>2011-06-17T03:23:04Z</time>
  <speed>4.080000</speed>
</trkpt>
<trkpt lat="32.748146057" lon="35.055183411">
  <ele>379.463379</ele>
  <time>2011-06-17T03:23:05Z</time>
  <speed>4.330000</speed>
</trkpt>
<trkpt lat="32.748115540" lon="35.055210114">
  <ele>379.893066</ele>
  <time>2011-06-17T03:23:06Z</time>
  <speed>4.570000</speed>
</trkpt>
<trkpt lat="32.748081207" lon="35.055244446">
  <ele>380.518066</ele>
  <time>2011-06-17T03:23:07Z</time>
  <speed>4.430000</speed>
</trkpt>
<trkpt lat="32.748054504" lon="35.055274963">
  <ele>380.807129</ele>
  <time>2011-06-17T03:23:08Z</time>
  <speed>4.800000</speed>
</trkpt>
<trkpt lat="32.748020172" lon="35.055309296">
  <ele>380.518066</ele>
  <time>2011-06-17T03:23:09Z</time>
  <speed>5.090000</speed>
</trkpt>
<trkpt lat="32.747989655" lon="35.055339813">
  <ele>380.674316</ele>
  <time>2011-06-17T03:23:10Z</time>
  <speed>5.060000</speed>
</trkpt>
<trkpt lat="32.747955322" lon="35.055374146">
  <ele>380.557129</ele>
  <time>2011-06-17T03:23:11Z</time>
  <speed>4.910000</speed>
</trkpt>
<trkpt lat="32.747913361" lon="35.055404663">
  <ele>380.908691</ele>
  <time>2011-06-17T03:23:12Z</time>
  <speed>5.050000</speed>
</trkpt>
<trkpt lat="32.747879028" lon="35.055438995">
  <ele>382.205566</ele>
  <time>2011-06-17T03:23:13Z</time>
  <speed>5.020000</speed>
</trkpt>
<trkpt lat="32.747837067" lon="35.055469513">
  <ele>382.736816</ele>
  <time>2011-06-17T03:23:14Z</time>
  <speed>5.040000</speed>
</trkpt>
<trkpt lat="32.747802734" lon="35.055500031">
  <ele>382.721191</ele>
  <time>2011-06-17T03:23:15Z</time>
  <speed>5.080000</speed>
</trkpt>
<trkpt lat="32.747764587" lon="35.055530548">
  <ele>382.611816</ele>
  <time>2011-06-17T03:23:16Z</time>
  <speed>5.320000</speed>
</trkpt>
<trkpt lat="32.747730255" lon="35.055564880">
  <ele>383.002441</ele>
  <time>2011-06-17T03:23:17Z</time>
  <speed>5.220000</speed>
</trkpt>
<trkpt lat="32.747692108" lon="35.055603027">
  <ele>382.838379</ele>
  <time>2011-06-17T03:23:18Z</time>
  <speed>5.680000</speed>
</trkpt>
<trkpt lat="32.747650146" lon="35.055641174">
  <ele>382.971191</ele>
  <time>2011-06-17T03:23:19Z</time>
  <speed>5.850000</speed>
</trkpt>
<trkpt lat="32.747600555" lon="35.055679321">
  <ele>381.564941</ele>
  <time>2011-06-17T03:23:20Z</time>
  <speed>6.250000</speed>
</trkpt>
<trkpt lat="32.747547150" lon="35.055706024">
  <ele>380.541504</ele>
  <time>2011-06-17T03:23:21Z</time>
  <speed>6.130000</speed>
</trkpt>
<trkpt lat="32.747497559" lon="35.055732727">
  <ele>380.861816</ele>
  <time>2011-06-17T03:23:22Z</time>
  <speed>6.130000</speed>
</trkpt>
<trkpt lat="32.747440338" lon="35.055759430">
  <ele>380.744629</ele>
  <time>2011-06-17T03:23:23Z</time>
  <speed>6.510000</speed>
</trkpt>
<trkpt lat="32.747383118" lon="35.055778503">
  <ele>380.166504</ele>
  <time>2011-06-17T03:23:24Z</time>
  <speed>7.000000</speed>
</trkpt>
<trkpt lat="32.747318268" lon="35.055801392">
  <ele>379.330566</ele>
  <time>2011-06-17T03:23:25Z</time>
  <speed>6.650000</speed>
</trkpt>
<trkpt lat="32.747261047" lon="35.055820465">
  <ele>378.893066</ele>
  <time>2011-06-17T03:23:26Z</time>
  <speed>6.390000</speed>
</trkpt>
<trkpt lat="32.747207642" lon="35.055847168">
  <ele>378.807129</ele>
  <time>2011-06-17T03:23:27Z</time>
  <speed>6.420000</speed>
</trkpt>
<trkpt lat="32.747150421" lon="35.055870056">
  <ele>378.338379</ele>
  <time>2011-06-17T03:23:28Z</time>
  <speed>6.730000</speed>
</trkpt>
<trkpt lat="32.747097015" lon="35.055892944">
  <ele>377.971191</ele>
  <time>2011-06-17T03:23:29Z</time>
  <speed>6.240000</speed>
</trkpt>
<trkpt lat="32.747039795" lon="35.055915833">
  <ele>377.775879</ele>
  <time>2011-06-17T03:23:30Z</time>
  <speed>6.020000</speed>
</trkpt>
<trkpt lat="32.746990204" lon="35.055938721">
  <ele>377.166504</ele>
  <time>2011-06-17T03:23:31Z</time>
  <speed>5.970000</speed>
</trkpt>
<trkpt lat="32.746936798" lon="35.055965424">
  <ele>376.814941</ele>
  <time>2011-06-17T03:23:32Z</time>
  <speed>6.030000</speed>
</trkpt>
<trkpt lat="32.746891022" lon="35.055988312">
  <ele>376.525879</ele>
  <time>2011-06-17T03:23:33Z</time>
  <speed>5.870000</speed>
</trkpt>
<trkpt lat="32.746837616" lon="35.056011200">
  <ele>376.908691</ele>
  <time>2011-06-17T03:23:34Z</time>
  <speed>5.650000</speed>
</trkpt>
<trkpt lat="32.746791840" lon="35.056034088">
  <ele>376.455566</ele>
  <time>2011-06-17T03:23:35Z</time>
  <speed>5.810000</speed>
</trkpt>
<trkpt lat="32.746734619" lon="35.056060791">
  <ele>376.236816</ele>
  <time>2011-06-17T03:23:36Z</time>
  <speed>6.170000</speed>
</trkpt>
<trkpt lat="32.746688843" lon="35.056076050">
  <ele>375.455566</ele>
  <time>2011-06-17T03:23:37Z</time>
  <speed>5.820000</speed>
</trkpt>
<trkpt lat="32.746635437" lon="35.056083679">
  <ele>374.994629</ele>
  <time>2011-06-17T03:23:38Z</time>
  <speed>5.610000</speed>
</trkpt>
<trkpt lat="32.746589661" lon="35.056091309">
  <ele>374.588379</ele>
  <time>2011-06-17T03:23:39Z</time>
  <speed>5.440000</speed>
</trkpt>
<trkpt lat="32.746536255" lon="35.056091309">
  <ele>374.010254</ele>
  <time>2011-06-17T03:23:40Z</time>
  <speed>5.590000</speed>
</trkpt>
<trkpt lat="32.746490479" lon="35.056098938">
  <ele>373.924316</ele>
  <time>2011-06-17T03:23:41Z</time>
  <speed>5.580000</speed>
</trkpt>
<trkpt lat="32.746444702" lon="35.056095123">
  <ele>373.400879</ele>
  <time>2011-06-17T03:23:42Z</time>
  <speed>5.410000</speed>
</trkpt>
<trkpt lat="32.746402740" lon="35.056098938">
  <ele>373.354004</ele>
  <time>2011-06-17T03:23:43Z</time>
  <speed>5.500000</speed>
</trkpt>
<trkpt lat="32.746360779" lon="35.056098938">
  <ele>373.252441</ele>
  <time>2011-06-17T03:23:44Z</time>
  <speed>5.360000</speed>
</trkpt>
<trkpt lat="32.746311188" lon="35.056095123">
  <ele>372.455566</ele>
  <time>2011-06-17T03:23:45Z</time>
  <speed>5.500000</speed>
</trkpt>
<trkpt lat="32.746261597" lon="35.056091309">
  <ele>372.080566</ele>
  <time>2011-06-17T03:23:46Z</time>
  <speed>5.320000</speed>
</trkpt>
<trkpt lat="32.746215820" lon="35.056087494">
  <ele>371.689941</ele>
  <time>2011-06-17T03:23:47Z</time>
  <speed>5.270000</speed>
</trkpt>
<trkpt lat="32.746170044" lon="35.056076050">
  <ele>370.955566</ele>
  <time>2011-06-17T03:23:48Z</time>
  <speed>5.130000</speed>
</trkpt>
<trkpt lat="32.746128082" lon="35.056068420">
  <ele>370.541504</ele>
  <time>2011-06-17T03:23:49Z</time>
  <speed>5.170000</speed>
</trkpt>
<trkpt lat="32.746082306" lon="35.056049347">
  <ele>371.564941</ele>
  <time>2011-06-17T03:23:50Z</time>
  <speed>5.200000</speed>
</trkpt>
<trkpt lat="32.746028900" lon="35.056049347">
  <ele>372.283691</ele>
  <time>2011-06-17T03:23:51Z</time>
  <speed>5.310000</speed>
</trkpt>
<trkpt lat="32.745983124" lon="35.056053162">
  <ele>372.650879</ele>
  <time>2011-06-17T03:23:52Z</time>
  <speed>5.300000</speed>
</trkpt>
<trkpt lat="32.745941162" lon="35.056060791">
  <ele>373.150879</ele>
  <time>2011-06-17T03:23:53Z</time>
  <speed>4.850000</speed>
</trkpt>
<trkpt lat="32.745899200" lon="35.056079865">
  <ele>373.111816</ele>
  <time>2011-06-17T03:23:54Z</time>
  <speed>4.870000</speed>
</trkpt>
<trkpt lat="32.745853424" lon="35.056098938">
  <ele>373.838379</ele>
  <time>2011-06-17T03:23:55Z</time>
  <speed>4.440000</speed>
</trkpt>
<trkpt lat="32.745811462" lon="35.056121826">
  <ele>373.807129</ele>
  <time>2011-06-17T03:23:56Z</time>
  <speed>4.410000</speed>
</trkpt>
<trkpt lat="32.745773315" lon="35.056144714">
  <ele>373.893066</ele>
  <time>2011-06-17T03:23:57Z</time>
  <speed>5.070000</speed>
</trkpt>
<trkpt lat="32.745735168" lon="35.056175232">
  <ele>373.846191</ele>
  <time>2011-06-17T03:23:58Z</time>
  <speed>4.780000</speed>
</trkpt>
<trkpt lat="32.745700836" lon="35.056198120">
  <ele>374.182129</ele>
  <time>2011-06-17T03:23:59Z</time>
  <speed>4.710000</speed>
</trkpt>
<trkpt lat="32.745662689" lon="35.056228638">
  <ele>374.127441</ele>
  <time>2011-06-17T03:24:00Z</time>
  <speed>4.740000</speed>
</trkpt>
<trkpt lat="32.745616913" lon="35.056259155">
  <ele>374.697754</ele>
  <time>2011-06-17T03:24:01Z</time>
  <speed>4.870000</speed>
</trkpt>
<trkpt lat="32.745571136" lon="35.056293488">
  <ele>375.775879</ele>
  <time>2011-06-17T03:24:02Z</time>
  <speed>4.870000</speed>
</trkpt>
<trkpt lat="32.745532990" lon="35.056327820">
  <ele>376.611816</ele>
  <time>2011-06-17T03:24:03Z</time>
  <speed>4.890000</speed>
</trkpt>
<trkpt lat="32.745510101" lon="35.056350708">
  <ele>375.822754</ele>
  <time>2011-06-17T03:24:04Z</time>
  <speed>4.420000</speed>
</trkpt>
<trkpt lat="32.745487213" lon="35.056377411">
  <ele>375.377441</ele>
  <time>2011-06-17T03:24:05Z</time>
  <speed>4.740000</speed>
</trkpt>
<trkpt lat="32.745452881" lon="35.056419373">
  <ele>375.541504</ele>
  <time>2011-06-17T03:24:06Z</time>
  <speed>5.030000</speed>
</trkpt>
<trkpt lat="32.745414734" lon="35.056449890">
  <ele>375.752441</ele>
  <time>2011-06-17T03:24:07Z</time>
  <speed>4.950000</speed>
</trkpt>
<trkpt lat="32.745372772" lon="35.056480408">
  <ele>376.385254</ele>
  <time>2011-06-17T03:24:08Z</time>
  <speed>5.600000</speed>
</trkpt>
<trkpt lat="32.745330811" lon="35.056507111">
  <ele>376.486816</ele>
  <time>2011-06-17T03:24:09Z</time>
  <speed>5.410000</speed>
</trkpt>
<trkpt lat="32.745285034" lon="35.056537628">
  <ele>376.041504</ele>
  <time>2011-06-17T03:24:10Z</time>
  <speed>6.590000</speed>
</trkpt>
<trkpt lat="32.745235443" lon="35.056575775">
  <ele>375.963379</ele>
  <time>2011-06-17T03:24:11Z</time>
  <speed>6.270000</speed>
</trkpt>
<trkpt lat="32.745185852" lon="35.056613922">
  <ele>376.189941</ele>
  <time>2011-06-17T03:24:12Z</time>
  <speed>6.500000</speed>
</trkpt>
<trkpt lat="32.745136261" lon="35.056655884">
  <ele>376.908691</ele>
  <time>2011-06-17T03:24:13Z</time>
  <speed>6.580000</speed>
</trkpt>
<trkpt lat="32.745086670" lon="35.056701660">
  <ele>376.900879</ele>
  <time>2011-06-17T03:24:14Z</time>
  <speed>6.680000</speed>
</trkpt>
<trkpt lat="32.745040894" lon="35.056747437">
  <ele>376.424316</ele>
  <time>2011-06-17T03:24:15Z</time>
  <speed>6.890000</speed>
</trkpt>
<trkpt lat="32.744987488" lon="35.056793213">
  <ele>376.416504</ele>
  <time>2011-06-17T03:24:16Z</time>
  <speed>7.170000</speed>
</trkpt>
<trkpt lat="32.744934082" lon="35.056842804">
  <ele>376.447754</ele>
  <time>2011-06-17T03:24:17Z</time>
  <speed>7.430000</speed>
</trkpt>
<trkpt lat="32.744876862" lon="35.056896210">
  <ele>376.619629</ele>
  <time>2011-06-17T03:24:18Z</time>
  <speed>7.480000</speed>
</trkpt>
<trkpt lat="32.744823456" lon="35.056957245">
  <ele>377.010254</ele>
  <time>2011-06-17T03:24:19Z</time>
  <speed>7.590000</speed>
</trkpt>
<trkpt lat="32.744777679" lon="35.057010651">
  <ele>377.002441</ele>
  <time>2011-06-17T03:24:20Z</time>
  <speed>7.700000</speed>
</trkpt>
<trkpt lat="32.744724274" lon="35.057060242">
  <ele>376.846191</ele>
  <time>2011-06-17T03:24:21Z</time>
  <speed>7.510000</speed>
</trkpt>
<trkpt lat="32.744667053" lon="35.057117462">
  <ele>377.596191</ele>
  <time>2011-06-17T03:24:22Z</time>
  <speed>7.520000</speed>
</trkpt>
<trkpt lat="32.744625092" lon="35.057174683">
  <ele>376.846191</ele>
  <time>2011-06-17T03:24:23Z</time>
  <speed>7.700000</speed>
</trkpt>
<trkpt lat="32.744571686" lon="35.057228088">
  <ele>377.111816</ele>
  <time>2011-06-17T03:24:24Z</time>
  <speed>7.490000</speed>
</trkpt>
<trkpt lat="32.744525909" lon="35.057281494">
  <ele>376.814941</ele>
  <time>2011-06-17T03:24:25Z</time>
  <speed>6.820000</speed>
</trkpt>
<trkpt lat="32.744480133" lon="35.057334900">
  <ele>376.439941</ele>
  <time>2011-06-17T03:24:26Z</time>
  <speed>6.810000</speed>
</trkpt>
<trkpt lat="32.744434357" lon="35.057373047">
  <ele>376.346191</ele>
  <time>2011-06-17T03:24:27Z</time>
  <speed>5.940000</speed>
</trkpt>
<trkpt lat="32.744403839" lon="35.057392120">
  <ele>376.307129</ele>
  <time>2011-06-17T03:24:28Z</time>
  <speed>5.760000</speed>
</trkpt>
<trkpt lat="32.744358063" lon="35.057430267">
  <ele>375.486816</ele>
  <time>2011-06-17T03:24:29Z</time>
  <speed>5.600000</speed>
</trkpt>
<trkpt lat="32.744316101" lon="35.057472229">
  <ele>375.080566</ele>
  <time>2011-06-17T03:24:30Z</time>
  <speed>5.660000</speed>
</trkpt>
<trkpt lat="32.744274139" lon="35.057521820">
  <ele>374.760254</ele>
  <time>2011-06-17T03:24:31Z</time>
  <speed>5.590000</speed>
</trkpt>
<trkpt lat="32.744251251" lon="35.057567596">
  <ele>375.244629</ele>
  <time>2011-06-17T03:24:32Z</time>
  <speed>5.710000</speed>
</trkpt>
<trkpt lat="32.744209290" lon="35.057624817">
  <ele>376.182129</ele>
  <time>2011-06-17T03:24:33Z</time>
  <speed>5.550000</speed>
</trkpt>
<trkpt lat="32.744178772" lon="35.057662964">
  <ele>376.760254</ele>
  <time>2011-06-17T03:24:34Z</time>
  <speed>5.680000</speed>
</trkpt>
<trkpt lat="32.744155884" lon="35.057704926">
  <ele>375.955566</ele>
  <time>2011-06-17T03:24:35Z</time>
  <speed>5.500000</speed>
</trkpt>
<trkpt lat="32.744132996" lon="35.057750702">
  <ele>376.205566</ele>
  <time>2011-06-17T03:24:36Z</time>
  <speed>5.340000</speed>
</trkpt>
<trkpt lat="32.744106293" lon="35.057804108">
  <ele>376.533691</ele>
  <time>2011-06-17T03:24:37Z</time>
  <speed>5.690000</speed>
</trkpt>
<trkpt lat="32.744075775" lon="35.057838440">
  <ele>376.252441</ele>
  <time>2011-06-17T03:24:38Z</time>
  <speed>5.570000</speed>
</trkpt>
<trkpt lat="32.744045258" lon="35.057868958">
  <ele>376.830566</ele>
  <time>2011-06-17T03:24:39Z</time>
  <speed>5.480000</speed>
</trkpt>
<trkpt lat="32.744007111" lon="35.057903290">
  <ele>377.572754</ele>
  <time>2011-06-17T03:24:40Z</time>
  <speed>5.560000</speed>
</trkpt>
<trkpt lat="32.743953705" lon="35.057937622">
  <ele>376.885254</ele>
  <time>2011-06-17T03:24:41Z</time>
  <speed>6.060000</speed>
</trkpt>
<trkpt lat="32.743907928" lon="35.057975769">
  <ele>376.760254</ele>
  <time>2011-06-17T03:24:42Z</time>
  <speed>6.700000</speed>
</trkpt>
<trkpt lat="32.743846893" lon="35.058002472">
  <ele>376.549316</ele>
  <time>2011-06-17T03:24:43Z</time>
  <speed>6.740000</speed>
</trkpt>
<trkpt lat="32.743793488" lon="35.058032990">
  <ele>376.666504</ele>
  <time>2011-06-17T03:24:44Z</time>
  <speed>6.950000</speed>
</trkpt>
<trkpt lat="32.743740082" lon="35.058074951">
  <ele>376.713379</ele>
  <time>2011-06-17T03:24:45Z</time>
  <speed>6.920000</speed>
</trkpt>
<trkpt lat="32.743698120" lon="35.058120728">
  <ele>376.385254</ele>
  <time>2011-06-17T03:24:46Z</time>
  <speed>7.010000</speed>
</trkpt>
<trkpt lat="32.743656158" lon="35.058177948">
  <ele>376.299316</ele>
  <time>2011-06-17T03:24:47Z</time>
  <speed>6.980000</speed>
</trkpt>
<trkpt lat="32.743618011" lon="35.058227539">
  <ele>376.057129</ele>
  <time>2011-06-17T03:24:48Z</time>
  <speed>5.750000</speed>
</trkpt>
<trkpt lat="32.743583679" lon="35.058269501">
  <ele>375.697754</ele>
  <time>2011-06-17T03:24:49Z</time>
  <speed>5.490000</speed>
</trkpt>
<trkpt lat="32.743541718" lon="35.058307648">
  <ele>375.760254</ele>
  <time>2011-06-17T03:24:50Z</time>
  <speed>5.980000</speed>
</trkpt>
<trkpt lat="32.743499756" lon="35.058349609">
  <ele>375.400879</ele>
  <time>2011-06-17T03:24:51Z</time>
  <speed>6.440000</speed>
</trkpt>
<trkpt lat="32.743453979" lon="35.058395386">
  <ele>374.947754</ele>
  <time>2011-06-17T03:24:52Z</time>
  <speed>6.450000</speed>
</trkpt>
<trkpt lat="32.743412018" lon="35.058444977">
  <ele>374.838379</ele>
  <time>2011-06-17T03:24:53Z</time>
  <speed>6.670000</speed>
</trkpt>
<trkpt lat="32.743370056" lon="35.058494568">
  <ele>374.822754</ele>
  <time>2011-06-17T03:24:54Z</time>
  <speed>6.760000</speed>
</trkpt>
<trkpt lat="32.743324280" lon="35.058544159">
  <ele>374.775879</ele>
  <time>2011-06-17T03:24:55Z</time>
  <speed>6.560000</speed>
</trkpt>
<trkpt lat="32.743278503" lon="35.058593750">
  <ele>374.479004</ele>
  <time>2011-06-17T03:24:56Z</time>
  <speed>7.390000</speed>
</trkpt>
<trkpt lat="32.743228912" lon="35.058639526">
  <ele>373.174316</ele>
  <time>2011-06-17T03:24:57Z</time>
  <speed>7.250000</speed>
</trkpt>
<trkpt lat="32.743183136" lon="35.058677673">
  <ele>372.768066</ele>
  <time>2011-06-17T03:24:58Z</time>
  <speed>7.100000</speed>
</trkpt>
<trkpt lat="32.743129730" lon="35.058723450">
  <ele>372.713379</ele>
  <time>2011-06-17T03:24:59Z</time>
  <speed>7.170000</speed>
</trkpt>
<trkpt lat="32.743080139" lon="35.058773041">
  <ele>372.885254</ele>
  <time>2011-06-17T03:25:00Z</time>
  <speed>7.080000</speed>
</trkpt>
<trkpt lat="32.743026733" lon="35.058815002">
  <ele>372.447754</ele>
  <time>2011-06-17T03:25:01Z</time>
  <speed>7.510000</speed>
</trkpt>
<trkpt lat="32.742973328" lon="35.058856964">
  <ele>373.604004</ele>
  <time>2011-06-17T03:25:02Z</time>
  <speed>7.390000</speed>
</trkpt>
<trkpt lat="32.742919922" lon="35.058883667">
  <ele>372.955566</ele>
  <time>2011-06-17T03:25:03Z</time>
  <speed>6.550000</speed>
</trkpt>
<trkpt lat="32.742866516" lon="35.058917999">
  <ele>372.674316</ele>
  <time>2011-06-17T03:25:04Z</time>
  <speed>6.330000</speed>
</trkpt>
<trkpt lat="32.742816925" lon="35.058956146">
  <ele>372.182129</ele>
  <time>2011-06-17T03:25:05Z</time>
  <speed>6.400000</speed>
</trkpt>
<trkpt lat="32.742774963" lon="35.058990479">
  <ele>371.986816</ele>
  <time>2011-06-17T03:25:06Z</time>
  <speed>6.200000</speed>
</trkpt>
<trkpt lat="32.742725372" lon="35.059040070">
  <ele>370.846191</ele>
  <time>2011-06-17T03:25:07Z</time>
  <speed>7.010000</speed>
</trkpt>
<trkpt lat="32.742675781" lon="35.059093475">
  <ele>370.713379</ele>
  <time>2011-06-17T03:25:08Z</time>
  <speed>7.540000</speed>
</trkpt>
<trkpt lat="32.742618561" lon="35.059150696">
  <ele>371.252441</ele>
  <time>2011-06-17T03:25:09Z</time>
  <speed>7.690000</speed>
</trkpt>
<trkpt lat="32.742561340" lon="35.059200287">
  <ele>371.314941</ele>
  <time>2011-06-17T03:25:10Z</time>
  <speed>7.490000</speed>
</trkpt>
<trkpt lat="32.742511749" lon="35.059246063">
  <ele>371.135254</ele>
  <time>2011-06-17T03:25:11Z</time>
  <speed>6.970000</speed>
</trkpt>
<trkpt lat="32.742458344" lon="35.059288025">
  <ele>370.854004</ele>
  <time>2011-06-17T03:25:12Z</time>
  <speed>7.090000</speed>
</trkpt>
<trkpt lat="32.742408752" lon="35.059333801">
  <ele>370.299316</ele>
  <time>2011-06-17T03:25:13Z</time>
  <speed>6.840000</speed>
</trkpt>
<trkpt lat="32.742362976" lon="35.059379578">
  <ele>369.760254</ele>
  <time>2011-06-17T03:25:14Z</time>
  <speed>6.690000</speed>
</trkpt>
<trkpt lat="32.742321014" lon="35.059432983">
  <ele>369.518066</ele>
  <time>2011-06-17T03:25:15Z</time>
  <speed>6.670000</speed>
</trkpt>
<trkpt lat="32.742279053" lon="35.059486389">
  <ele>369.143066</ele>
  <time>2011-06-17T03:25:16Z</time>
  <speed>7.120000</speed>
</trkpt>
<trkpt lat="32.742233276" lon="35.059535980">
  <ele>367.580566</ele>
  <time>2011-06-17T03:25:17Z</time>
  <speed>7.030000</speed>
</trkpt>
<trkpt lat="32.742187500" lon="35.059585571">
  <ele>367.486816</ele>
  <time>2011-06-17T03:25:18Z</time>
  <speed>7.290000</speed>
</trkpt>
<trkpt lat="32.742141724" lon="35.059638977">
  <ele>367.064941</ele>
  <time>2011-06-17T03:25:19Z</time>
  <speed>7.210000</speed>
</trkpt>
<trkpt lat="32.742092133" lon="35.059692383">
  <ele>366.814941</ele>
  <time>2011-06-17T03:25:20Z</time>
  <speed>7.420000</speed>
</trkpt>
<trkpt lat="32.742038727" lon="35.059741974">
  <ele>367.111816</ele>
  <time>2011-06-17T03:25:21Z</time>
  <speed>8.140000</speed>
</trkpt>
<trkpt lat="32.741977692" lon="35.059761047">
  <ele>367.322754</ele>
  <time>2011-06-17T03:25:22Z</time>
  <speed>7.510000</speed>
</trkpt>
<trkpt lat="32.741909027" lon="35.059761047">
  <ele>367.018066</ele>
  <time>2011-06-17T03:25:23Z</time>
  <speed>7.390000</speed>
</trkpt>
<trkpt lat="32.741844177" lon="35.059757233">
  <ele>366.869629</ele>
  <time>2011-06-17T03:25:24Z</time>
  <speed>7.360000</speed>
</trkpt>
<trkpt lat="32.741779327" lon="35.059753418">
  <ele>366.689941</ele>
  <time>2011-06-17T03:25:25Z</time>
  <speed>7.210000</speed>
</trkpt>
<trkpt lat="32.741714478" lon="35.059745789">
  <ele>366.682129</ele>
  <time>2011-06-17T03:25:26Z</time>
  <speed>6.980000</speed>
</trkpt>
<trkpt lat="32.741653442" lon="35.059741974">
  <ele>366.713379</ele>
  <time>2011-06-17T03:25:27Z</time>
  <speed>6.630000</speed>
</trkpt>
<trkpt lat="32.741600037" lon="35.059726715">
  <ele>366.174316</ele>
  <time>2011-06-17T03:25:28Z</time>
  <speed>6.680000</speed>
</trkpt>
<trkpt lat="32.741546631" lon="35.059700012">
  <ele>365.541504</ele>
  <time>2011-06-17T03:25:29Z</time>
  <speed>6.790000</speed>
</trkpt>
<trkpt lat="32.741493225" lon="35.059669495">
  <ele>364.939941</ele>
  <time>2011-06-17T03:25:30Z</time>
  <speed>6.770000</speed>
</trkpt>
<trkpt lat="32.741439819" lon="35.059623718">
  <ele>364.869629</ele>
  <time>2011-06-17T03:25:31Z</time>
  <speed>6.770000</speed>
</trkpt>
<trkpt lat="32.741386414" lon="35.059574127">
  <ele>364.611816</ele>
  <time>2011-06-17T03:25:32Z</time>
  <speed>7.190000</speed>
</trkpt>
<trkpt lat="32.741336823" lon="35.059520721">
  <ele>364.330566</ele>
  <time>2011-06-17T03:25:33Z</time>
  <speed>7.150000</speed>
</trkpt>
<trkpt lat="32.741298676" lon="35.059463501">
  <ele>363.893066</ele>
  <time>2011-06-17T03:25:34Z</time>
  <speed>6.930000</speed>
</trkpt>
<trkpt lat="32.741260529" lon="35.059406281">
  <ele>363.518066</ele>
  <time>2011-06-17T03:25:35Z</time>
  <speed>7.020000</speed>
</trkpt>
<trkpt lat="32.741218567" lon="35.059341431">
  <ele>363.791504</ele>
  <time>2011-06-17T03:25:36Z</time>
  <speed>6.980000</speed>
</trkpt>
<trkpt lat="32.741176605" lon="35.059280396">
  <ele>363.455566</ele>
  <time>2011-06-17T03:25:37Z</time>
  <speed>6.820000</speed>
</trkpt>
<trkpt lat="32.741138458" lon="35.059223175">
  <ele>364.111816</ele>
  <time>2011-06-17T03:25:38Z</time>
  <speed>6.430000</speed>
</trkpt>
<trkpt lat="32.741096497" lon="35.059181213">
  <ele>364.072754</ele>
  <time>2011-06-17T03:25:39Z</time>
  <speed>6.060000</speed>
</trkpt>
<trkpt lat="32.741050720" lon="35.059143066">
  <ele>363.791504</ele>
  <time>2011-06-17T03:25:40Z</time>
  <speed>5.870000</speed>
</trkpt>
<trkpt lat="32.741001129" lon="35.059112549">
  <ele>363.572754</ele>
  <time>2011-06-17T03:25:41Z</time>
  <speed>6.280000</speed>
</trkpt>
<trkpt lat="32.740943909" lon="35.059097290">
  <ele>363.182129</ele>
  <time>2011-06-17T03:25:42Z</time>
  <speed>6.180000</speed>
</trkpt>
<trkpt lat="32.740890503" lon="35.059097290">
  <ele>362.791504</ele>
  <time>2011-06-17T03:25:43Z</time>
  <speed>5.770000</speed>
</trkpt>
<trkpt lat="32.740840912" lon="35.059093475">
  <ele>362.963379</ele>
  <time>2011-06-17T03:25:44Z</time>
  <speed>5.560000</speed>
</trkpt>
<trkpt lat="32.740791321" lon="35.059082031">
  <ele>363.385254</ele>
  <time>2011-06-17T03:25:45Z</time>
  <speed>5.650000</speed>
</trkpt>
<trkpt lat="32.740737915" lon="35.059062958">
  <ele>363.908691</ele>
  <time>2011-06-17T03:25:46Z</time>
  <speed>5.750000</speed>
</trkpt>
<trkpt lat="32.740684509" lon="35.059036255">
  <ele>364.924316</ele>
  <time>2011-06-17T03:25:47Z</time>
  <speed>6.120000</speed>
</trkpt>
<trkpt lat="32.740634918" lon="35.058994293">
  <ele>364.682129</ele>
  <time>2011-06-17T03:25:48Z</time>
  <speed>6.480000</speed>
</trkpt>
<trkpt lat="32.740585327" lon="35.058952332">
  <ele>364.377441</ele>
  <time>2011-06-17T03:25:49Z</time>
  <speed>6.590000</speed>
</trkpt>
<trkpt lat="32.740535736" lon="35.058906555">
  <ele>364.471191</ele>
  <time>2011-06-17T03:25:50Z</time>
  <speed>6.680000</speed>
</trkpt>
<trkpt lat="32.740493774" lon="35.058860779">
  <ele>363.533691</ele>
  <time>2011-06-17T03:25:51Z</time>
  <speed>6.590000</speed>
</trkpt>
<trkpt lat="32.740451813" lon="35.058811188">
  <ele>362.783691</ele>
  <time>2011-06-17T03:25:52Z</time>
  <speed>7.100000</speed>
</trkpt>
<trkpt lat="32.740394592" lon="35.058773041">
  <ele>362.197754</ele>
  <time>2011-06-17T03:25:53Z</time>
  <speed>7.170000</speed>
</trkpt>
<trkpt lat="32.740337372" lon="35.058773041">
  <ele>361.713379</ele>
  <time>2011-06-17T03:25:54Z</time>
  <speed>5.940000</speed>
</trkpt>
<trkpt lat="32.740283966" lon="35.058795929">
  <ele>361.189941</ele>
  <time>2011-06-17T03:25:55Z</time>
  <speed>5.970000</speed>
</trkpt>
<trkpt lat="32.740242004" lon="35.058837891">
  <ele>360.799316</ele>
  <time>2011-06-17T03:25:56Z</time>
  <speed>6.070000</speed>
</trkpt>
<trkpt lat="32.740215302" lon="35.058891296">
  <ele>360.439941</ele>
  <time>2011-06-17T03:25:57Z</time>
  <speed>5.230000</speed>
</trkpt>
<trkpt lat="32.740177155" lon="35.058956146">
  <ele>360.330566</ele>
  <time>2011-06-17T03:25:58Z</time>
  <speed>5.760000</speed>
</trkpt>
<trkpt lat="32.740146637" lon="35.059028625">
  <ele>360.291504</ele>
  <time>2011-06-17T03:25:59Z</time>
  <speed>6.380000</speed>
</trkpt>
<trkpt lat="32.740154266" lon="35.059108734">
  <ele>359.260254</ele>
  <time>2011-06-17T03:26:00Z</time>
  <speed>6.580000</speed>
</trkpt>
<trkpt lat="32.740139008" lon="35.059173584">
  <ele>359.127441</ele>
  <time>2011-06-17T03:26:01Z</time>
  <speed>6.150000</speed>
</trkpt>
<trkpt lat="32.740108490" lon="35.059238434">
  <ele>359.361816</ele>
  <time>2011-06-17T03:26:02Z</time>
  <speed>6.120000</speed>
</trkpt>
<trkpt lat="32.740077972" lon="35.059307098">
  <ele>359.182129</ele>
  <time>2011-06-17T03:26:03Z</time>
  <speed>6.120000</speed>
</trkpt>
<trkpt lat="32.740051270" lon="35.059364319">
  <ele>359.018066</ele>
  <time>2011-06-17T03:26:04Z</time>
  <speed>6.230000</speed>
</trkpt>
<trkpt lat="32.740001678" lon="35.059410095">
  <ele>359.424316</ele>
  <time>2011-06-17T03:26:05Z</time>
  <speed>6.140000</speed>
</trkpt>
<trkpt lat="32.739963531" lon="35.059467316">
  <ele>359.557129</ele>
  <time>2011-06-17T03:26:06Z</time>
  <speed>6.480000</speed>
</trkpt>
<trkpt lat="32.739925385" lon="35.059513092">
  <ele>360.838379</ele>
  <time>2011-06-17T03:26:07Z</time>
  <speed>6.850000</speed>
</trkpt>
<trkpt lat="32.739871979" lon="35.059555054">
  <ele>361.885254</ele>
  <time>2011-06-17T03:26:08Z</time>
  <speed>6.460000</speed>
</trkpt>
<trkpt lat="32.739826202" lon="35.059577942">
  <ele>361.080566</ele>
  <time>2011-06-17T03:26:09Z</time>
  <speed>6.080000</speed>
</trkpt>
<trkpt lat="32.739776611" lon="35.059604645">
  <ele>361.893066</ele>
  <time>2011-06-17T03:26:10Z</time>
  <speed>6.450000</speed>
</trkpt>
<trkpt lat="32.739723206" lon="35.059638977">
  <ele>362.291504</ele>
  <time>2011-06-17T03:26:11Z</time>
  <speed>6.290000</speed>
</trkpt>
<trkpt lat="32.739688873" lon="35.059650421">
  <ele>363.244629</ele>
  <time>2011-06-17T03:26:12Z</time>
  <speed>5.940000</speed>
</trkpt>
<trkpt lat="32.739643097" lon="35.059650421">
  <ele>362.025879</ele>
  <time>2011-06-17T03:26:13Z</time>
  <speed>5.830000</speed>
</trkpt>
<trkpt lat="32.739582062" lon="35.059654236">
  <ele>361.557129</ele>
  <time>2011-06-17T03:26:14Z</time>
  <speed>6.620000</speed>
</trkpt>
<trkpt lat="32.739528656" lon="35.059658051">
  <ele>361.158691</ele>
  <time>2011-06-17T03:26:15Z</time>
  <speed>6.540000</speed>
</trkpt>
<trkpt lat="32.739467621" lon="35.059654236">
  <ele>360.900879</ele>
  <time>2011-06-17T03:26:16Z</time>
  <speed>6.740000</speed>
</trkpt>
<trkpt lat="32.739406586" lon="35.059642792">
  <ele>361.057129</ele>
  <time>2011-06-17T03:26:17Z</time>
  <speed>6.510000</speed>
</trkpt>
<trkpt lat="32.739349365" lon="35.059616089">
  <ele>360.650879</ele>
  <time>2011-06-17T03:26:18Z</time>
  <speed>6.380000</speed>
</trkpt>
<trkpt lat="32.739292145" lon="35.059581757">
  <ele>360.744629</ele>
  <time>2011-06-17T03:26:19Z</time>
  <speed>6.720000</speed>
</trkpt>
<trkpt lat="32.739234924" lon="35.059551239">
  <ele>360.807129</ele>
  <time>2011-06-17T03:26:20Z</time>
  <speed>6.450000</speed>
</trkpt>
<trkpt lat="32.739185333" lon="35.059513092">
  <ele>360.549316</ele>
  <time>2011-06-17T03:26:21Z</time>
  <speed>6.450000</speed>
</trkpt>
<trkpt lat="32.739124298" lon="35.059474945">
  <ele>361.643066</ele>
  <time>2011-06-17T03:26:22Z</time>
  <speed>6.470000</speed>
</trkpt>
<trkpt lat="32.739067078" lon="35.059432983">
  <ele>362.424316</ele>
  <time>2011-06-17T03:26:23Z</time>
  <speed>6.500000</speed>
</trkpt>
<trkpt lat="32.739017487" lon="35.059398651">
  <ele>362.314941</ele>
  <time>2011-06-17T03:26:24Z</time>
  <speed>6.470000</speed>
</trkpt>
<trkpt lat="32.738964081" lon="35.059364319">
  <ele>362.541504</ele>
  <time>2011-06-17T03:26:25Z</time>
  <speed>6.500000</speed>
</trkpt>
<trkpt lat="32.738906860" lon="35.059341431">
  <ele>363.018066</ele>
  <time>2011-06-17T03:26:26Z</time>
  <speed>6.140000</speed>
</trkpt>
<trkpt lat="32.738857269" lon="35.059310913">
  <ele>363.627441</ele>
  <time>2011-06-17T03:26:27Z</time>
  <speed>5.920000</speed>
</trkpt>
<trkpt lat="32.738800049" lon="35.059284210">
  <ele>364.596191</ele>
  <time>2011-06-17T03:26:28Z</time>
  <speed>5.850000</speed>
</trkpt>
<trkpt lat="32.738746643" lon="35.059280396">
  <ele>365.596191</ele>
  <time>2011-06-17T03:26:29Z</time>
  <speed>5.740000</speed>
</trkpt>
<trkpt lat="32.738693237" lon="35.059291840">
  <ele>366.080566</ele>
  <time>2011-06-17T03:26:30Z</time>
  <speed>5.810000</speed>
</trkpt>
<trkpt lat="32.738643646" lon="35.059291840">
  <ele>366.182129</ele>
  <time>2011-06-17T03:26:31Z</time>
  <speed>5.780000</speed>
</trkpt>
<trkpt lat="32.738594055" lon="35.059284210">
  <ele>365.885254</ele>
  <time>2011-06-17T03:26:32Z</time>
  <speed>5.640000</speed>
</trkpt>
<trkpt lat="32.738540649" lon="35.059272766">
  <ele>365.955566</ele>
  <time>2011-06-17T03:26:33Z</time>
  <speed>5.800000</speed>
</trkpt>
<trkpt lat="32.738494873" lon="35.059257507">
  <ele>365.275879</ele>
  <time>2011-06-17T03:26:34Z</time>
  <speed>5.470000</speed>
</trkpt>
<trkpt lat="32.738449097" lon="35.059238434">
  <ele>364.986816</ele>
  <time>2011-06-17T03:26:35Z</time>
  <speed>5.400000</speed>
</trkpt>
<trkpt lat="32.738388062" lon="35.059234619">
  <ele>364.869629</ele>
  <time>2011-06-17T03:26:36Z</time>
  <speed>5.500000</speed>
</trkpt>
<trkpt lat="32.738346100" lon="35.059249878">
  <ele>364.197754</ele>
  <time>2011-06-17T03:26:37Z</time>
  <speed>4.670000</speed>
</trkpt>
<trkpt lat="32.738311768" lon="35.059272766">
  <ele>363.893066</ele>
  <time>2011-06-17T03:26:38Z</time>
  <speed>4.810000</speed>
</trkpt>
<trkpt lat="32.738277435" lon="35.059318542">
  <ele>363.768066</ele>
  <time>2011-06-17T03:26:39Z</time>
  <speed>4.880000</speed>
</trkpt>
<trkpt lat="32.738239288" lon="35.059360504">
  <ele>363.705566</ele>
  <time>2011-06-17T03:26:40Z</time>
  <speed>5.540000</speed>
</trkpt>
<trkpt lat="32.738208771" lon="35.059406281">
  <ele>363.416504</ele>
  <time>2011-06-17T03:26:41Z</time>
  <speed>5.530000</speed>
</trkpt>
<trkpt lat="32.738170624" lon="35.059444427">
  <ele>363.182129</ele>
  <time>2011-06-17T03:26:42Z</time>
  <speed>5.560000</speed>
</trkpt>
<trkpt lat="32.738124847" lon="35.059497833">
  <ele>362.619629</ele>
  <time>2011-06-17T03:26:43Z</time>
  <speed>5.520000</speed>
</trkpt>
<trkpt lat="32.738075256" lon="35.059539795">
  <ele>362.807129</ele>
  <time>2011-06-17T03:26:44Z</time>
  <speed>5.140000</speed>
</trkpt>
<trkpt lat="32.738040924" lon="35.059577942">
  <ele>362.525879</ele>
  <time>2011-06-17T03:26:45Z</time>
  <speed>4.880000</speed>
</trkpt>
<trkpt lat="32.738002777" lon="35.059612274">
  <ele>362.924316</ele>
  <time>2011-06-17T03:26:46Z</time>
  <speed>4.830000</speed>
</trkpt>
<trkpt lat="32.737964630" lon="35.059650421">
  <ele>362.814941</ele>
  <time>2011-06-17T03:26:47Z</time>
  <speed>4.720000</speed>
</trkpt>
<trkpt lat="32.737915039" lon="35.059696198">
  <ele>362.432129</ele>
  <time>2011-06-17T03:26:48Z</time>
  <speed>5.170000</speed>
</trkpt>
<trkpt lat="32.737865448" lon="35.059738159">
  <ele>362.361816</ele>
  <time>2011-06-17T03:26:49Z</time>
  <speed>5.340000</speed>
</trkpt>
<trkpt lat="32.737819672" lon="35.059764862">
  <ele>361.377441</ele>
  <time>2011-06-17T03:26:50Z</time>
  <speed>5.140000</speed>
</trkpt>
<trkpt lat="32.737770081" lon="35.059803009">
  <ele>360.979004</ele>
  <time>2011-06-17T03:26:51Z</time>
  <speed>4.770000</speed>
</trkpt>
<trkpt lat="32.737739563" lon="35.059844971">
  <ele>360.189941</ele>
  <time>2011-06-17T03:26:52Z</time>
  <speed>5.220000</speed>
</trkpt>
<trkpt lat="32.737701416" lon="35.059890747">
  <ele>359.705566</ele>
  <time>2011-06-17T03:26:53Z</time>
  <speed>5.310000</speed>
</trkpt>
<trkpt lat="32.737663269" lon="35.059940338">
  <ele>359.010254</ele>
  <time>2011-06-17T03:26:54Z</time>
  <speed>5.550000</speed>
</trkpt>
<trkpt lat="32.737628937" lon="35.059982300">
  <ele>358.619629</ele>
  <time>2011-06-17T03:26:55Z</time>
  <speed>5.400000</speed>
</trkpt>
<trkpt lat="32.737598419" lon="35.060016632">
  <ele>358.330566</ele>
  <time>2011-06-17T03:26:56Z</time>
  <speed>4.850000</speed>
</trkpt>
<trkpt lat="32.737552643" lon="35.060062408">
  <ele>358.682129</ele>
  <time>2011-06-17T03:26:57Z</time>
  <speed>5.390000</speed>
</trkpt>
<trkpt lat="32.737514496" lon="35.060092926">
  <ele>359.385254</ele>
  <time>2011-06-17T03:26:58Z</time>
  <speed>4.930000</speed>
</trkpt>
<trkpt lat="32.737476349" lon="35.060123444">
  <ele>359.689941</ele>
  <time>2011-06-17T03:26:59Z</time>
  <speed>4.810000</speed>
</trkpt>
<trkpt lat="32.737442017" lon="35.060150146">
  <ele>359.229004</ele>
  <time>2011-06-17T03:27:00Z</time>
  <speed>5.090000</speed>
</trkpt>
<trkpt lat="32.737400055" lon="35.060180664">
  <ele>358.838379</ele>
  <time>2011-06-17T03:27:01Z</time>
  <speed>4.730000</speed>
</trkpt>
<trkpt lat="32.737365723" lon="35.060214996">
  <ele>358.744629</ele>
  <time>2011-06-17T03:27:02Z</time>
  <speed>4.910000</speed>
</trkpt>
<trkpt lat="32.737327576" lon="35.060249329">
  <ele>358.439941</ele>
  <time>2011-06-17T03:27:03Z</time>
  <speed>4.690000</speed>
</trkpt>
<trkpt lat="32.737297058" lon="35.060279846">
  <ele>358.971191</ele>
  <time>2011-06-17T03:27:04Z</time>
  <speed>4.630000</speed>
</trkpt>
<trkpt lat="32.737266541" lon="35.060314178">
  <ele>358.924316</ele>
  <time>2011-06-17T03:27:05Z</time>
  <speed>4.670000</speed>
</trkpt>
<trkpt lat="32.737247467" lon="35.060352325">
  <ele>358.932129</ele>
  <time>2011-06-17T03:27:06Z</time>
  <speed>4.650000</speed>
</trkpt>
<trkpt lat="32.737224579" lon="35.060390472">
  <ele>359.010254</ele>
  <time>2011-06-17T03:27:07Z</time>
  <speed>4.730000</speed>
</trkpt>
<trkpt lat="32.737186432" lon="35.060428619">
  <ele>359.432129</ele>
  <time>2011-06-17T03:27:08Z</time>
  <speed>4.760000</speed>
</trkpt>
<trkpt lat="32.737155914" lon="35.060455322">
  <ele>359.025879</ele>
  <time>2011-06-17T03:27:09Z</time>
  <speed>4.550000</speed>
</trkpt>
<trkpt lat="32.737121582" lon="35.060485840">
  <ele>360.197754</ele>
  <time>2011-06-17T03:27:10Z</time>
  <speed>5.040000</speed>
</trkpt>
<trkpt lat="32.737079620" lon="35.060512543">
  <ele>361.635254</ele>
  <time>2011-06-17T03:27:11Z</time>
  <speed>5.010000</speed>
</trkpt>
<trkpt lat="32.737033844" lon="35.060543060">
  <ele>361.932129</ele>
  <time>2011-06-17T03:27:12Z</time>
  <speed>5.590000</speed>
</trkpt>
<trkpt lat="32.736995697" lon="35.060569763">
  <ele>361.939941</ele>
  <time>2011-06-17T03:27:13Z</time>
  <speed>5.020000</speed>
</trkpt>
<trkpt lat="32.736957550" lon="35.060596466">
  <ele>362.322754</ele>
  <time>2011-06-17T03:27:14Z</time>
  <speed>5.190000</speed>
</trkpt>
<trkpt lat="32.736915588" lon="35.060626984">
  <ele>362.986816</ele>
  <time>2011-06-17T03:27:15Z</time>
  <speed>5.360000</speed>
</trkpt>
<trkpt lat="32.736865997" lon="35.060653687">
  <ele>363.010254</ele>
  <time>2011-06-17T03:27:16Z</time>
  <speed>5.420000</speed>
</trkpt>
<trkpt lat="32.736827850" lon="35.060665131">
  <ele>361.814941</ele>
  <time>2011-06-17T03:27:17Z</time>
  <speed>5.380000</speed>
</trkpt>
<trkpt lat="32.736782074" lon="35.060688019">
  <ele>361.408691</ele>
  <time>2011-06-17T03:27:18Z</time>
  <speed>5.630000</speed>
</trkpt>
<trkpt lat="32.736740112" lon="35.060707092">
  <ele>362.588379</ele>
  <time>2011-06-17T03:27:19Z</time>
  <speed>6.120000</speed>
</trkpt>
<trkpt lat="32.736686707" lon="35.060733795">
  <ele>364.111816</ele>
  <time>2011-06-17T03:27:20Z</time>
  <speed>6.510000</speed>
</trkpt>
<trkpt lat="32.736637115" lon="35.060760498">
  <ele>363.635254</ele>
  <time>2011-06-17T03:27:21Z</time>
  <speed>6.920000</speed>
</trkpt>
<trkpt lat="32.736579895" lon="35.060779572">
  <ele>363.588379</ele>
  <time>2011-06-17T03:27:22Z</time>
  <speed>6.760000</speed>
</trkpt>
<trkpt lat="32.736526489" lon="35.060791016">
  <ele>363.783691</ele>
  <time>2011-06-17T03:27:23Z</time>
  <speed>7.250000</speed>
</trkpt>
<trkpt lat="32.736457825" lon="35.060806274">
  <ele>363.822754</ele>
  <time>2011-06-17T03:27:24Z</time>
  <speed>7.670000</speed>
</trkpt>
<trkpt lat="32.736392975" lon="35.060817719">
  <ele>363.307129</ele>
  <time>2011-06-17T03:27:25Z</time>
  <speed>7.610000</speed>
</trkpt>
<trkpt lat="32.736331940" lon="35.060791016">
  <ele>362.291504</ele>
  <time>2011-06-17T03:27:26Z</time>
  <speed>7.650000</speed>
</trkpt>
<trkpt lat="32.736267090" lon="35.060771942">
  <ele>362.213379</ele>
  <time>2011-06-17T03:27:27Z</time>
  <speed>7.880000</speed>
</trkpt>
<trkpt lat="32.736198425" lon="35.060749054">
  <ele>361.900879</ele>
  <time>2011-06-17T03:27:28Z</time>
  <speed>8.110000</speed>
</trkpt>
<trkpt lat="32.736125946" lon="35.060741425">
  <ele>361.549316</ele>
  <time>2011-06-17T03:27:29Z</time>
  <speed>8.120000</speed>
</trkpt>
<trkpt lat="32.736068726" lon="35.060710907">
  <ele>360.064941</ele>
  <time>2011-06-17T03:27:30Z</time>
  <speed>7.830000</speed>
</trkpt>
<trkpt lat="32.736007690" lon="35.060661316">
  <ele>358.791504</ele>
  <time>2011-06-17T03:27:31Z</time>
  <speed>8.010000</speed>
</trkpt>
<trkpt lat="32.735942841" lon="35.060619354">
  <ele>358.057129</ele>
  <time>2011-06-17T03:27:32Z</time>
  <speed>8.280000</speed>
</trkpt>
<trkpt lat="32.735877991" lon="35.060562134">
  <ele>357.807129</ele>
  <time>2011-06-17T03:27:33Z</time>
  <speed>8.460000</speed>
</trkpt>
<trkpt lat="32.735828400" lon="35.060485840">
  <ele>356.361816</ele>
  <time>2011-06-17T03:27:34Z</time>
  <speed>8.700000</speed>
</trkpt>
<trkpt lat="32.735771179" lon="35.060417175">
  <ele>355.721191</ele>
  <time>2011-06-17T03:27:35Z</time>
  <speed>9.050001</speed>
</trkpt>
<trkpt lat="32.735725403" lon="35.060337067">
  <ele>355.119629</ele>
  <time>2011-06-17T03:27:36Z</time>
  <speed>9.010000</speed>
</trkpt>
<trkpt lat="32.735679626" lon="35.060256958">
  <ele>355.025879</ele>
  <time>2011-06-17T03:27:37Z</time>
  <speed>9.080000</speed>
</trkpt>
<trkpt lat="32.735649109" lon="35.060165405">
  <ele>355.018066</ele>
  <time>2011-06-17T03:27:38Z</time>
  <speed>9.370000</speed>
</trkpt>
<trkpt lat="32.735633850" lon="35.060070038">
  <ele>354.064941</ele>
  <time>2011-06-17T03:27:39Z</time>
  <speed>8.640000</speed>
</trkpt>
<trkpt lat="32.735614777" lon="35.059970856">
  <ele>353.119629</ele>
  <time>2011-06-17T03:27:40Z</time>
  <speed>9.180000</speed>
</trkpt>
<trkpt lat="32.735599518" lon="35.059879303">
  <ele>351.947754</ele>
  <time>2011-06-17T03:27:41Z</time>
  <speed>8.250000</speed>
</trkpt>
<trkpt lat="32.735591888" lon="35.059799194">
  <ele>350.885254</ele>
  <time>2011-06-17T03:27:42Z</time>
  <speed>7.100000</speed>
</trkpt>
<trkpt lat="32.735591888" lon="35.059726715">
  <ele>349.979004</ele>
  <time>2011-06-17T03:27:43Z</time>
  <speed>6.100000</speed>
</trkpt>
<trkpt lat="32.735595703" lon="35.059673309">
  <ele>349.002441</ele>
  <time>2011-06-17T03:27:44Z</time>
  <speed>3.760000</speed>
</trkpt>
<trkpt lat="32.735588074" lon="35.059631348">
  <ele>348.291504</ele>
  <time>2011-06-17T03:27:45Z</time>
  <speed>3.840000</speed>
</trkpt>
<trkpt lat="32.735576630" lon="35.059600830">
  <ele>347.416504</ele>
  <time>2011-06-17T03:27:46Z</time>
  <speed>3.360000</speed>
</trkpt>
<trkpt lat="32.735538483" lon="35.059589386">
  <ele>346.846191</ele>
  <time>2011-06-17T03:27:47Z</time>
  <speed>3.540000</speed>
</trkpt>
<trkpt lat="32.735492706" lon="35.059608459">
  <ele>345.221191</ele>
  <time>2011-06-17T03:27:48Z</time>
  <speed>4.030000</speed>
</trkpt>
<trkpt lat="32.735458374" lon="35.059631348">
  <ele>343.900879</ele>
  <time>2011-06-17T03:27:49Z</time>
  <speed>4.110000</speed>
</trkpt>
<trkpt lat="32.735412598" lon="35.059680939">
  <ele>341.939941</ele>
  <time>2011-06-17T03:27:50Z</time>
  <speed>4.920000</speed>
</trkpt>
<trkpt lat="32.735374451" lon="35.059722900">
  <ele>341.135254</ele>
  <time>2011-06-17T03:27:51Z</time>
  <speed>5.140000</speed>
</trkpt>
<trkpt lat="32.735340118" lon="35.059764862">
  <ele>340.025879</ele>
  <time>2011-06-17T03:27:52Z</time>
  <speed>4.690000</speed>
</trkpt>
<trkpt lat="32.735298157" lon="35.059810638">
  <ele>339.111816</ele>
  <time>2011-06-17T03:27:53Z</time>
  <speed>5.040000</speed>
</trkpt>
<trkpt lat="32.735260010" lon="35.059841156">
  <ele>338.486816</ele>
  <time>2011-06-17T03:27:54Z</time>
  <speed>5.250000</speed>
</trkpt>
<trkpt lat="32.735210419" lon="35.059879303">
  <ele>337.744629</ele>
  <time>2011-06-17T03:27:55Z</time>
  <speed>5.020000</speed>
</trkpt>
<trkpt lat="32.735179901" lon="35.059906006">
  <ele>337.369629</ele>
  <time>2011-06-17T03:27:56Z</time>
  <speed>5.020000</speed>
</trkpt>
<trkpt lat="32.735141754" lon="35.059940338">
  <ele>336.775879</ele>
  <time>2011-06-17T03:27:57Z</time>
  <speed>4.760000</speed>
</trkpt>
<trkpt lat="32.735099792" lon="35.059963226">
  <ele>336.650879</ele>
  <time>2011-06-17T03:27:58Z</time>
  <speed>4.730000</speed>
</trkpt>
<trkpt lat="32.735057831" lon="35.059986115">
  <ele>336.979004</ele>
  <time>2011-06-17T03:27:59Z</time>
  <speed>4.640000</speed>
</trkpt>
<trkpt lat="32.735023499" lon="35.060005188">
  <ele>336.854004</ele>
  <time>2011-06-17T03:28:00Z</time>
  <speed>4.470000</speed>
</trkpt>
<trkpt lat="32.734981537" lon="35.060020447">
  <ele>336.549316</ele>
  <time>2011-06-17T03:28:01Z</time>
  <speed>4.200000</speed>
</trkpt>
<trkpt lat="32.734947205" lon="35.060028076">
  <ele>336.588379</ele>
  <time>2011-06-17T03:28:02Z</time>
  <speed>4.100000</speed>
</trkpt>
<trkpt lat="32.734909058" lon="35.060031891">
  <ele>336.314941</ele>
  <time>2011-06-17T03:28:03Z</time>
  <speed>3.940000</speed>
</trkpt>
<trkpt lat="32.734863281" lon="35.060039520">
  <ele>336.518066</ele>
  <time>2011-06-17T03:28:04Z</time>
  <speed>4.170000</speed>
</trkpt>
<trkpt lat="32.734828949" lon="35.060039520">
  <ele>336.041504</ele>
  <time>2011-06-17T03:28:05Z</time>
  <speed>4.080000</speed>
</trkpt>
<trkpt lat="32.734794617" lon="35.060039520">
  <ele>335.689941</ele>
  <time>2011-06-17T03:28:06Z</time>
  <speed>4.080000</speed>
</trkpt>
<trkpt lat="32.734756470" lon="35.060047150">
  <ele>335.564941</ele>
  <time>2011-06-17T03:28:07Z</time>
  <speed>3.950000</speed>
</trkpt>
<trkpt lat="32.734722137" lon="35.060054779">
  <ele>336.213379</ele>
  <time>2011-06-17T03:28:08Z</time>
  <speed>3.790000</speed>
</trkpt>
<trkpt lat="32.734687805" lon="35.060054779">
  <ele>336.283691</ele>
  <time>2011-06-17T03:28:09Z</time>
  <speed>3.830000</speed>
</trkpt>
<trkpt lat="32.734649658" lon="35.060058594">
  <ele>336.518066</ele>
  <time>2011-06-17T03:28:10Z</time>
  <speed>3.790000</speed>
</trkpt>
<trkpt lat="32.734592438" lon="35.060058594">
  <ele>336.416504</ele>
  <time>2011-06-17T03:28:12Z</time>
  <speed>3.500000</speed>
</trkpt>
<trkpt lat="32.734558105" lon="35.060050964">
  <ele>337.025879</ele>
  <time>2011-06-17T03:28:13Z</time>
  <speed>3.460000</speed>
</trkpt>
<trkpt lat="32.734523773" lon="35.060054779">
  <ele>337.229004</ele>
  <time>2011-06-17T03:28:14Z</time>
  <speed>3.540000</speed>
</trkpt>
<trkpt lat="32.734489441" lon="35.060058594">
  <ele>337.268066</ele>
  <time>2011-06-17T03:28:15Z</time>
  <speed>3.570000</speed>
</trkpt>
<trkpt lat="32.734451294" lon="35.060062408">
  <ele>337.729004</ele>
  <time>2011-06-17T03:28:16Z</time>
  <speed>3.810000</speed>
</trkpt>
<trkpt lat="32.734394073" lon="35.060054779">
  <ele>338.557129</ele>
  <time>2011-06-17T03:28:18Z</time>
  <speed>3.870000</speed>
</trkpt>
<trkpt lat="32.734359741" lon="35.060050964">
  <ele>338.619629</ele>
  <time>2011-06-17T03:28:19Z</time>
  <speed>4.010000</speed>
</trkpt>
<trkpt lat="32.734317780" lon="35.060050964">
  <ele>338.713379</ele>
  <time>2011-06-17T03:28:20Z</time>
  <speed>4.200000</speed>
</trkpt>
<trkpt lat="32.734272003" lon="35.060043335">
  <ele>338.861816</ele>
  <time>2011-06-17T03:28:21Z</time>
  <speed>4.180000</speed>
</trkpt>
<trkpt lat="32.734230042" lon="35.060039520">
  <ele>339.252441</ele>
  <time>2011-06-17T03:28:22Z</time>
  <speed>4.250000</speed>
</trkpt>
<trkpt lat="32.734195709" lon="35.060024261">
  <ele>338.689941</ele>
  <time>2011-06-17T03:28:23Z</time>
  <speed>4.440000</speed>
</trkpt>
<trkpt lat="32.734157562" lon="35.060009003">
  <ele>338.822754</ele>
  <time>2011-06-17T03:28:24Z</time>
  <speed>4.570000</speed>
</trkpt>
<trkpt lat="32.734119415" lon="35.059993744">
  <ele>339.307129</ele>
  <time>2011-06-17T03:28:25Z</time>
  <speed>4.620000</speed>
</trkpt>
<trkpt lat="32.734085083" lon="35.059982300">
  <ele>339.557129</ele>
  <time>2011-06-17T03:28:26Z</time>
  <speed>4.520000</speed>
</trkpt>
<trkpt lat="32.734039307" lon="35.059967041">
  <ele>339.885254</ele>
  <time>2011-06-17T03:28:27Z</time>
  <speed>4.230000</speed>
</trkpt>
<trkpt lat="32.733993530" lon="35.059955597">
  <ele>339.775879</ele>
  <time>2011-06-17T03:28:28Z</time>
  <speed>4.220000</speed>
</trkpt>
<trkpt lat="32.733966827" lon="35.059936523">
  <ele>339.588379</ele>
  <time>2011-06-17T03:28:29Z</time>
  <speed>4.060000</speed>
</trkpt>
<trkpt lat="32.733936310" lon="35.059909821">
  <ele>339.846191</ele>
  <time>2011-06-17T03:28:30Z</time>
  <speed>4.010000</speed>
</trkpt>
<trkpt lat="32.733909607" lon="35.059871674">
  <ele>340.033691</ele>
  <time>2011-06-17T03:28:31Z</time>
  <speed>4.190000</speed>
</trkpt>
<trkpt lat="32.733882904" lon="35.059837341">
  <ele>340.775879</ele>
  <time>2011-06-17T03:28:32Z</time>
  <speed>4.160000</speed>
</trkpt>
<trkpt lat="32.733860016" lon="35.059799194">
  <ele>341.729004</ele>
  <time>2011-06-17T03:28:33Z</time>
  <speed>4.230000</speed>
</trkpt>
<trkpt lat="32.733833313" lon="35.059761047">
  <ele>342.080566</ele>
  <time>2011-06-17T03:28:34Z</time>
  <speed>4.620000</speed>
</trkpt>
<trkpt lat="32.733806610" lon="35.059719086">
  <ele>342.244629</ele>
  <time>2011-06-17T03:28:35Z</time>
  <speed>4.830000</speed>
</trkpt>
<trkpt lat="32.733791351" lon="35.059673309">
  <ele>342.518066</ele>
  <time>2011-06-17T03:28:36Z</time>
  <speed>4.980000</speed>
</trkpt>
<trkpt lat="32.733779907" lon="35.059619904">
  <ele>342.830566</ele>
  <time>2011-06-17T03:28:37Z</time>
  <speed>5.330000</speed>
</trkpt>
<trkpt lat="32.733757019" lon="35.059570313">
  <ele>343.072754</ele>
  <time>2011-06-17T03:28:38Z</time>
  <speed>5.620000</speed>
</trkpt>
<trkpt lat="32.733734131" lon="35.059520721">
  <ele>342.689941</ele>
  <time>2011-06-17T03:28:39Z</time>
  <speed>5.110000</speed>
</trkpt>
<trkpt lat="32.733695984" lon="35.059494019">
  <ele>342.666504</ele>
  <time>2011-06-17T03:28:40Z</time>
  <speed>4.710000</speed>
</trkpt>
<trkpt lat="32.733654022" lon="35.059501648">
  <ele>342.346191</ele>
  <time>2011-06-17T03:28:41Z</time>
  <speed>4.210000</speed>
</trkpt>
<trkpt lat="32.733604431" lon="35.059520721">
  <ele>342.564941</ele>
  <time>2011-06-17T03:28:42Z</time>
  <speed>4.700000</speed>
</trkpt>
<trkpt lat="32.733562469" lon="35.059558868">
  <ele>341.705566</ele>
  <time>2011-06-17T03:28:43Z</time>
  <speed>4.600000</speed>
</trkpt>
<trkpt lat="32.733531952" lon="35.059597015">
  <ele>341.252441</ele>
  <time>2011-06-17T03:28:44Z</time>
  <speed>4.720000</speed>
</trkpt>
<trkpt lat="32.733501434" lon="35.059642792">
  <ele>340.424316</ele>
  <time>2011-06-17T03:28:45Z</time>
  <speed>4.330000</speed>
</trkpt>
<trkpt lat="32.733478546" lon="35.059677124">
  <ele>340.541504</ele>
  <time>2011-06-17T03:28:46Z</time>
  <speed>4.070000</speed>
</trkpt>
<trkpt lat="32.733448029" lon="35.059730530">
  <ele>340.049316</ele>
  <time>2011-06-17T03:28:47Z</time>
  <speed>4.150000</speed>
</trkpt>
<trkpt lat="32.733428955" lon="35.059768677">
  <ele>340.314941</ele>
  <time>2011-06-17T03:28:48Z</time>
  <speed>4.100000</speed>
</trkpt>
<trkpt lat="32.733406067" lon="35.059806824">
  <ele>340.314941</ele>
  <time>2011-06-17T03:28:49Z</time>
  <speed>4.070000</speed>
</trkpt>
<trkpt lat="32.733390808" lon="35.059856415">
  <ele>340.080566</ele>
  <time>2011-06-17T03:28:50Z</time>
  <speed>4.120000</speed>
</trkpt>
<trkpt lat="32.733371735" lon="35.059902191">
  <ele>339.939941</ele>
  <time>2011-06-17T03:28:51Z</time>
  <speed>4.160000</speed>
</trkpt>
<trkpt lat="32.733352661" lon="35.059944153">
  <ele>339.658691</ele>
  <time>2011-06-17T03:28:52Z</time>
  <speed>4.140000</speed>
</trkpt>
<trkpt lat="32.733337402" lon="35.059978485">
  <ele>339.588379</ele>
  <time>2011-06-17T03:28:53Z</time>
  <speed>3.710000</speed>
</trkpt>
<trkpt lat="32.733318329" lon="35.060009003">
  <ele>339.447754</ele>
  <time>2011-06-17T03:28:54Z</time>
  <speed>3.520000</speed>
</trkpt>
<trkpt lat="32.733299255" lon="35.060039520">
  <ele>339.213379</ele>
  <time>2011-06-17T03:28:55Z</time>
  <speed>3.940000</speed>
</trkpt>
<trkpt lat="32.733287811" lon="35.060073853">
  <ele>339.041504</ele>
  <time>2011-06-17T03:28:56Z</time>
  <speed>3.210000</speed>
</trkpt>
<trkpt lat="32.733245850" lon="35.060123444">
  <ele>338.908691</ele>
  <time>2011-06-17T03:28:58Z</time>
  <speed>3.960000</speed>
</trkpt>
<trkpt lat="32.733222961" lon="35.060146332">
  <ele>339.033691</ele>
  <time>2011-06-17T03:28:59Z</time>
  <speed>3.550000</speed>
</trkpt>
<trkpt lat="32.733203888" lon="35.060180664">
  <ele>339.283691</ele>
  <time>2011-06-17T03:29:00Z</time>
  <speed>3.420000</speed>
</trkpt>
<trkpt lat="32.733192444" lon="35.060214996">
  <ele>339.400879</ele>
  <time>2011-06-17T03:29:01Z</time>
  <speed>3.750000</speed>
</trkpt>
<trkpt lat="32.733192444" lon="35.060260773">
  <ele>339.377441</ele>
  <time>2011-06-17T03:29:02Z</time>
  <speed>3.850000</speed>
</trkpt>
<trkpt lat="32.733192444" lon="35.060306549">
  <ele>340.002441</ele>
  <time>2011-06-17T03:29:03Z</time>
  <speed>3.970000</speed>
</trkpt>
<trkpt lat="32.733196259" lon="35.060356140">
  <ele>340.166504</ele>
  <time>2011-06-17T03:29:04Z</time>
  <speed>3.460000</speed>
</trkpt>
<trkpt lat="32.733203888" lon="35.060390472">
  <ele>340.916504</ele>
  <time>2011-06-17T03:29:05Z</time>
  <speed>3.480000</speed>
</trkpt>
<trkpt lat="32.733215332" lon="35.060432434">
  <ele>340.768066</ele>
  <time>2011-06-17T03:29:06Z</time>
  <speed>3.610000</speed>
</trkpt>
<trkpt lat="32.733219147" lon="35.060482025">
  <ele>342.447754</ele>
  <time>2011-06-17T03:29:07Z</time>
  <speed>3.580000</speed>
</trkpt>
<trkpt lat="32.733226776" lon="35.060520172">
  <ele>342.494629</ele>
  <time>2011-06-17T03:29:08Z</time>
  <speed>3.680000</speed>
</trkpt>
<trkpt lat="32.733219147" lon="35.060585022">
  <ele>346.111816</ele>
  <time>2011-06-17T03:29:09Z</time>
  <speed>3.670000</speed>
</trkpt>
<trkpt lat="32.733215332" lon="35.060626984">
  <ele>347.885254</ele>
  <time>2011-06-17T03:29:10Z</time>
  <speed>3.450000</speed>
</trkpt>
<trkpt lat="32.733215332" lon="35.060672760">
  <ele>348.963379</ele>
  <time>2011-06-17T03:29:11Z</time>
  <speed>3.310000</speed>
</trkpt>
<trkpt lat="32.733222961" lon="35.060707092">
  <ele>350.885254</ele>
  <time>2011-06-17T03:29:12Z</time>
  <speed>3.320000</speed>
</trkpt>
<trkpt lat="32.733219147" lon="35.060752869">
  <ele>352.393066</ele>
  <time>2011-06-17T03:29:13Z</time>
  <speed>3.580000</speed>
</trkpt>
<trkpt lat="32.733219147" lon="35.060791016">
  <ele>354.439941</ele>
  <time>2011-06-17T03:29:14Z</time>
  <speed>3.150000</speed>
</trkpt>
<trkpt lat="32.733215332" lon="35.060829163">
  <ele>355.338379</ele>
  <time>2011-06-17T03:29:15Z</time>
  <speed>3.240000</speed>
</trkpt>
<trkpt lat="32.733215332" lon="35.060867310">
  <ele>356.174316</ele>
  <time>2011-06-17T03:29:16Z</time>
  <speed>3.170000</speed>
</trkpt>
<trkpt lat="32.733211517" lon="35.060901642">
  <ele>356.744629</ele>
  <time>2011-06-17T03:29:17Z</time>
  <speed>3.260000</speed>
</trkpt>
<trkpt lat="32.733207703" lon="35.060935974">
  <ele>357.400879</ele>
  <time>2011-06-17T03:29:18Z</time>
  <speed>3.320000</speed>
</trkpt>
<trkpt lat="32.733211517" lon="35.060970306">
  <ele>357.752441</ele>
  <time>2011-06-17T03:29:19Z</time>
  <speed>3.190000</speed>
</trkpt>
<trkpt lat="32.733200073" lon="35.061004639">
  <ele>358.080566</ele>
  <time>2011-06-17T03:29:20Z</time>
  <speed>3.070000</speed>
</trkpt>
<trkpt lat="32.733196259" lon="35.061038971">
  <ele>358.674316</ele>
  <time>2011-06-17T03:29:21Z</time>
  <speed>3.200000</speed>
</trkpt>
<trkpt lat="32.733192444" lon="35.061069489">
  <ele>359.775879</ele>
  <time>2011-06-17T03:29:22Z</time>
  <speed>3.280000</speed>
</trkpt>
<trkpt lat="32.733184814" lon="35.061107635">
  <ele>359.838379</ele>
  <time>2011-06-17T03:29:23Z</time>
  <speed>3.220000</speed>
</trkpt>
<trkpt lat="32.733177185" lon="35.061141968">
  <ele>360.486816</ele>
  <time>2011-06-17T03:29:24Z</time>
  <speed>3.370000</speed>
</trkpt>
<trkpt lat="32.733165741" lon="35.061176300">
  <ele>361.119629</ele>
  <time>2011-06-17T03:29:25Z</time>
  <speed>3.430000</speed>
</trkpt>
<trkpt lat="32.733158112" lon="35.061214447">
  <ele>361.424316</ele>
  <time>2011-06-17T03:29:26Z</time>
  <speed>3.180000</speed>
</trkpt>
<trkpt lat="32.733139038" lon="35.061279297">
  <ele>362.041504</ele>
  <time>2011-06-17T03:29:28Z</time>
  <speed>3.260000</speed>
</trkpt>
<trkpt lat="32.733135223" lon="35.061309814">
  <ele>362.807129</ele>
  <time>2011-06-17T03:29:29Z</time>
  <speed>3.140000</speed>
</trkpt>
<trkpt lat="32.733123779" lon="35.061340332">
  <ele>363.260254</ele>
  <time>2011-06-17T03:29:30Z</time>
  <speed>3.320000</speed>
</trkpt>
<trkpt lat="32.733093262" lon="35.061386108">
  <ele>363.549316</ele>
  <time>2011-06-17T03:29:32Z</time>
  <speed>3.180000</speed>
</trkpt>
<trkpt lat="32.733074188" lon="35.061420441">
  <ele>363.580566</ele>
  <time>2011-06-17T03:29:33Z</time>
  <speed>3.360000</speed>
</trkpt>
<trkpt lat="32.733055115" lon="35.061443329">
  <ele>363.299316</ele>
  <time>2011-06-17T03:29:34Z</time>
  <speed>3.490000</speed>
</trkpt>
<trkpt lat="32.733032227" lon="35.061470032">
  <ele>363.205566</ele>
  <time>2011-06-17T03:29:35Z</time>
  <speed>3.480000</speed>
</trkpt>
<trkpt lat="32.733009338" lon="35.061496735">
  <ele>363.283691</ele>
  <time>2011-06-17T03:29:36Z</time>
  <speed>3.680000</speed>
</trkpt>
<trkpt lat="32.732986450" lon="35.061527252">
  <ele>363.424316</ele>
  <time>2011-06-17T03:29:37Z</time>
  <speed>3.610000</speed>
</trkpt>
<trkpt lat="32.732955933" lon="35.061550140">
  <ele>363.361816</ele>
  <time>2011-06-17T03:29:38Z</time>
  <speed>3.670000</speed>
</trkpt>
<trkpt lat="32.732929230" lon="35.061573029">
  <ele>363.564941</ele>
  <time>2011-06-17T03:29:39Z</time>
  <speed>3.630000</speed>
</trkpt>
<trkpt lat="32.732898712" lon="35.061599731">
  <ele>364.057129</ele>
  <time>2011-06-17T03:29:40Z</time>
  <speed>3.490000</speed>
</trkpt>
<trkpt lat="32.732868195" lon="35.061622620">
  <ele>364.150879</ele>
  <time>2011-06-17T03:29:41Z</time>
  <speed>3.390000</speed>
</trkpt>
<trkpt lat="32.732833862" lon="35.061637878">
  <ele>364.275879</ele>
  <time>2011-06-17T03:29:42Z</time>
  <speed>3.320000</speed>
</trkpt>
<trkpt lat="32.732803345" lon="35.061649323">
  <ele>364.494629</ele>
  <time>2011-06-17T03:29:43Z</time>
  <speed>3.380000</speed>
</trkpt>
<trkpt lat="32.732769012" lon="35.061653137">
  <ele>364.275879</ele>
  <time>2011-06-17T03:29:44Z</time>
  <speed>3.260000</speed>
</trkpt>
<trkpt lat="32.732734680" lon="35.061660767">
  <ele>364.564941</ele>
  <time>2011-06-17T03:29:45Z</time>
  <speed>3.590000</speed>
</trkpt>
<trkpt lat="32.732700348" lon="35.061660767">
  <ele>364.463379</ele>
  <time>2011-06-17T03:29:46Z</time>
  <speed>3.430000</speed>
</trkpt>
<trkpt lat="32.732669830" lon="35.061660767">
  <ele>364.822754</ele>
  <time>2011-06-17T03:29:47Z</time>
  <speed>3.310000</speed>
</trkpt>
<trkpt lat="32.732635498" lon="35.061660767">
  <ele>364.619629</ele>
  <time>2011-06-17T03:29:48Z</time>
  <speed>3.520000</speed>
</trkpt>
<trkpt lat="32.732597351" lon="35.061660767">
  <ele>364.104004</ele>
  <time>2011-06-17T03:29:49Z</time>
  <speed>3.510000</speed>
</trkpt>
<trkpt lat="32.732559204" lon="35.061656952">
  <ele>363.814941</ele>
  <time>2011-06-17T03:29:50Z</time>
  <speed>3.390000</speed>
</trkpt>
<trkpt lat="32.732532501" lon="35.061649323">
  <ele>363.721191</ele>
  <time>2011-06-17T03:29:51Z</time>
  <speed>3.310000</speed>
</trkpt>
<trkpt lat="32.732479095" lon="35.061637878">
  <ele>364.322754</ele>
  <time>2011-06-17T03:29:53Z</time>
  <speed>3.230000</speed>
</trkpt>
<trkpt lat="32.732448578" lon="35.061630249">
  <ele>364.268066</ele>
  <time>2011-06-17T03:29:54Z</time>
  <speed>3.370000</speed>
</trkpt>
<trkpt lat="32.732425690" lon="35.061618805">
  <ele>364.557129</ele>
  <time>2011-06-17T03:29:55Z</time>
  <speed>3.010000</speed>
</trkpt>
<trkpt lat="32.732372284" lon="35.061588287">
  <ele>364.588379</ele>
  <time>2011-06-17T03:29:57Z</time>
  <speed>3.250000</speed>
</trkpt>
<trkpt lat="32.732349396" lon="35.061569214">
  <ele>364.557129</ele>
  <time>2011-06-17T03:29:58Z</time>
  <speed>3.240000</speed>
</trkpt>
<trkpt lat="32.732303619" lon="35.061531067">
  <ele>364.275879</ele>
  <time>2011-06-17T03:30:00Z</time>
  <speed>3.260000</speed>
</trkpt>
<trkpt lat="32.732280731" lon="35.061511993">
  <ele>363.424316</ele>
  <time>2011-06-17T03:30:01Z</time>
  <speed>3.090000</speed>
</trkpt>
<trkpt lat="32.732254028" lon="35.061489105">
  <ele>363.674316</ele>
  <time>2011-06-17T03:30:02Z</time>
  <speed>3.200000</speed>
</trkpt>
<trkpt lat="32.732204437" lon="35.061458588">
  <ele>363.174316</ele>
  <time>2011-06-17T03:30:04Z</time>
  <speed>3.210000</speed>
</trkpt>
<trkpt lat="32.732177734" lon="35.061447144">
  <ele>363.471191</ele>
  <time>2011-06-17T03:30:05Z</time>
  <speed>3.050000</speed>
</trkpt>
<trkpt lat="32.732147217" lon="35.061435699">
  <ele>362.924316</ele>
  <time>2011-06-17T03:30:06Z</time>
  <speed>2.880000</speed>
</trkpt>
<trkpt lat="32.732120514" lon="35.061424255">
  <ele>362.932129</ele>
  <time>2011-06-17T03:30:07Z</time>
  <speed>2.700000</speed>
</trkpt>
<trkpt lat="32.732070923" lon="35.061401367">
  <ele>362.447754</ele>
  <time>2011-06-17T03:30:09Z</time>
  <speed>2.860000</speed>
</trkpt>
<trkpt lat="32.732040405" lon="35.061386108">
  <ele>362.291504</ele>
  <time>2011-06-17T03:30:10Z</time>
  <speed>3.000000</speed>
</trkpt>
<trkpt lat="32.732013702" lon="35.061378479">
  <ele>362.682129</ele>
  <time>2011-06-17T03:30:11Z</time>
  <speed>2.980000</speed>
</trkpt>
<trkpt lat="32.731964111" lon="35.061355591">
  <ele>362.580566</ele>
  <time>2011-06-17T03:30:13Z</time>
  <speed>2.890000</speed>
</trkpt>
<trkpt lat="32.731910706" lon="35.061332703">
  <ele>361.939941</ele>
  <time>2011-06-17T03:30:15Z</time>
  <speed>3.230000</speed>
</trkpt>
<trkpt lat="32.731880188" lon="35.061321259">
  <ele>361.893066</ele>
  <time>2011-06-17T03:30:16Z</time>
  <speed>3.190000</speed>
</trkpt>
<trkpt lat="32.731834412" lon="35.061294556">
  <ele>361.822754</ele>
  <time>2011-06-17T03:30:18Z</time>
  <speed>3.070000</speed>
</trkpt>
<trkpt lat="32.731807709" lon="35.061279297">
  <ele>361.814941</ele>
  <time>2011-06-17T03:30:19Z</time>
  <speed>3.290000</speed>
</trkpt>
<trkpt lat="32.731765747" lon="35.061256409">
  <ele>361.838379</ele>
  <time>2011-06-17T03:30:21Z</time>
  <speed>3.110000</speed>
</trkpt>
<trkpt lat="32.731716156" lon="35.061233521">
  <ele>361.463379</ele>
  <time>2011-06-17T03:30:23Z</time>
  <speed>2.990000</speed>
</trkpt>
<trkpt lat="32.731662750" lon="35.061222076">
  <ele>361.252441</ele>
  <time>2011-06-17T03:30:25Z</time>
  <speed>3.190000</speed>
</trkpt>
<trkpt lat="32.731616974" lon="35.061203003">
  <ele>361.596191</ele>
  <time>2011-06-17T03:30:27Z</time>
  <speed>3.160000</speed>
</trkpt>
<trkpt lat="32.731571198" lon="35.061210632">
  <ele>361.361816</ele>
  <time>2011-06-17T03:30:29Z</time>
  <speed>3.020000</speed>
</trkpt>
<trkpt lat="32.731533051" lon="35.061252594">
  <ele>361.588379</ele>
  <time>2011-06-17T03:30:31Z</time>
  <speed>2.880000</speed>
</trkpt>
<trkpt lat="32.731521606" lon="35.061290741">
  <ele>361.229004</ele>
  <time>2011-06-17T03:30:32Z</time>
  <speed>2.900000</speed>
</trkpt>
<trkpt lat="32.731521606" lon="35.061325073">
  <ele>361.275879</ele>
  <time>2011-06-17T03:30:33Z</time>
  <speed>3.190000</speed>
</trkpt>
<trkpt lat="32.731533051" lon="35.061363220">
  <ele>360.869629</ele>
  <time>2011-06-17T03:30:34Z</time>
  <speed>3.280000</speed>
</trkpt>
<trkpt lat="32.731559753" lon="35.061393738">
  <ele>360.971191</ele>
  <time>2011-06-17T03:30:35Z</time>
  <speed>3.430000</speed>
</trkpt>
<trkpt lat="32.731586456" lon="35.061428070">
  <ele>360.783691</ele>
  <time>2011-06-17T03:30:36Z</time>
  <speed>3.870000</speed>
</trkpt>
<trkpt lat="32.731605530" lon="35.061466217">
  <ele>360.471191</ele>
  <time>2011-06-17T03:30:37Z</time>
  <speed>3.270000</speed>
</trkpt>
<trkpt lat="32.731632233" lon="35.061496735">
  <ele>360.596191</ele>
  <time>2011-06-17T03:30:38Z</time>
  <speed>4.010000</speed>
</trkpt>
<trkpt lat="32.731655121" lon="35.061534882">
  <ele>360.432129</ele>
  <time>2011-06-17T03:30:39Z</time>
  <speed>4.450000</speed>
</trkpt>
<trkpt lat="32.731670380" lon="35.061576843">
  <ele>360.963379</ele>
  <time>2011-06-17T03:30:40Z</time>
  <speed>3.830000</speed>
</trkpt>
<trkpt lat="32.731689453" lon="35.061618805">
  <ele>361.619629</ele>
  <time>2011-06-17T03:30:41Z</time>
  <speed>4.100000</speed>
</trkpt>
<trkpt lat="32.731708527" lon="35.061656952">
  <ele>362.361816</ele>
  <time>2011-06-17T03:30:42Z</time>
  <speed>4.030000</speed>
</trkpt>
<trkpt lat="32.731731415" lon="35.061695099">
  <ele>362.025879</ele>
  <time>2011-06-17T03:30:43Z</time>
  <speed>4.010000</speed>
</trkpt>
<trkpt lat="32.731754303" lon="35.061737061">
  <ele>362.939941</ele>
  <time>2011-06-17T03:30:44Z</time>
  <speed>4.240000</speed>
</trkpt>
<trkpt lat="32.731777191" lon="35.061779022">
  <ele>363.119629</ele>
  <time>2011-06-17T03:30:45Z</time>
  <speed>4.270000</speed>
</trkpt>
<trkpt lat="32.731788635" lon="35.061832428">
  <ele>365.111816</ele>
  <time>2011-06-17T03:30:46Z</time>
  <speed>4.640000</speed>
</trkpt>
<trkpt lat="32.731807709" lon="35.061882019">
  <ele>365.572754</ele>
  <time>2011-06-17T03:30:47Z</time>
  <speed>4.800000</speed>
</trkpt>
<trkpt lat="32.731822968" lon="35.061927795">
  <ele>366.682129</ele>
  <time>2011-06-17T03:30:48Z</time>
  <speed>4.790000</speed>
</trkpt>
<trkpt lat="32.731842041" lon="35.061977386">
  <ele>367.354004</ele>
  <time>2011-06-17T03:30:49Z</time>
  <speed>4.750000</speed>
</trkpt>
<trkpt lat="32.731861115" lon="35.062026978">
  <ele>367.814941</ele>
  <time>2011-06-17T03:30:50Z</time>
  <speed>4.480000</speed>
</trkpt>
<trkpt lat="32.731876373" lon="35.062068939">
  <ele>368.197754</ele>
  <time>2011-06-17T03:30:51Z</time>
  <speed>4.080000</speed>
</trkpt>
<trkpt lat="32.731887817" lon="35.062110901">
  <ele>368.338379</ele>
  <time>2011-06-17T03:30:52Z</time>
  <speed>3.980000</speed>
</trkpt>
<trkpt lat="32.731899261" lon="35.062145233">
  <ele>368.166504</ele>
  <time>2011-06-17T03:30:53Z</time>
  <speed>3.470000</speed>
</trkpt>
<trkpt lat="32.731922150" lon="35.062179565">
  <ele>369.150879</ele>
  <time>2011-06-17T03:30:54Z</time>
  <speed>3.890000</speed>
</trkpt>
<trkpt lat="32.731941223" lon="35.062213898">
  <ele>368.939941</ele>
  <time>2011-06-17T03:30:55Z</time>
  <speed>3.950000</speed>
</trkpt>
<trkpt lat="32.731960297" lon="35.062248230">
  <ele>368.838379</ele>
  <time>2011-06-17T03:30:56Z</time>
  <speed>3.860000</speed>
</trkpt>
<trkpt lat="32.731975555" lon="35.062282562">
  <ele>369.502441</ele>
  <time>2011-06-17T03:30:57Z</time>
  <speed>3.820000</speed>
</trkpt>
<trkpt lat="32.731987000" lon="35.062324524">
  <ele>369.377441</ele>
  <time>2011-06-17T03:30:58Z</time>
  <speed>4.090000</speed>
</trkpt>
<trkpt lat="32.731983185" lon="35.062374115">
  <ele>370.369629</ele>
  <time>2011-06-17T03:30:59Z</time>
  <speed>4.220000</speed>
</trkpt>
<trkpt lat="32.731990814" lon="35.062419891">
  <ele>369.705566</ele>
  <time>2011-06-17T03:31:00Z</time>
  <speed>4.380000</speed>
</trkpt>
<trkpt lat="32.731990814" lon="35.062465668">
  <ele>369.775879</ele>
  <time>2011-06-17T03:31:01Z</time>
  <speed>4.590000</speed>
</trkpt>
<trkpt lat="32.731987000" lon="35.062515259">
  <ele>369.557129</ele>
  <time>2011-06-17T03:31:02Z</time>
  <speed>4.610000</speed>
</trkpt>
<trkpt lat="32.731983185" lon="35.062564850">
  <ele>369.424316</ele>
  <time>2011-06-17T03:31:03Z</time>
  <speed>4.910000</speed>
</trkpt>
<trkpt lat="32.731971741" lon="35.062622070">
  <ele>369.838379</ele>
  <time>2011-06-17T03:31:04Z</time>
  <speed>4.780000</speed>
</trkpt>
<trkpt lat="32.731956482" lon="35.062671661">
  <ele>369.588379</ele>
  <time>2011-06-17T03:31:05Z</time>
  <speed>4.630000</speed>
</trkpt>
<trkpt lat="32.731929779" lon="35.062709808">
  <ele>368.979004</ele>
  <time>2011-06-17T03:31:06Z</time>
  <speed>4.730000</speed>
</trkpt>
<trkpt lat="32.731903076" lon="35.062755585">
  <ele>368.408691</ele>
  <time>2011-06-17T03:31:07Z</time>
  <speed>5.090000</speed>
</trkpt>
<trkpt lat="32.731872559" lon="35.062805176">
  <ele>368.682129</ele>
  <time>2011-06-17T03:31:08Z</time>
  <speed>5.070000</speed>
</trkpt>
<trkpt lat="32.731857300" lon="35.062858582">
  <ele>368.721191</ele>
  <time>2011-06-17T03:31:09Z</time>
  <speed>4.820000</speed>
</trkpt>
<trkpt lat="32.731842041" lon="35.062908173">
  <ele>368.775879</ele>
  <time>2011-06-17T03:31:10Z</time>
  <speed>4.660000</speed>
</trkpt>
<trkpt lat="32.731819153" lon="35.062957764">
  <ele>368.564941</ele>
  <time>2011-06-17T03:31:11Z</time>
  <speed>4.720000</speed>
</trkpt>
<trkpt lat="32.731796265" lon="35.062992096">
  <ele>368.791504</ele>
  <time>2011-06-17T03:31:12Z</time>
  <speed>4.330000</speed>
</trkpt>
<trkpt lat="32.731773376" lon="35.063030243">
  <ele>368.838379</ele>
  <time>2011-06-17T03:31:13Z</time>
  <speed>4.690000</speed>
</trkpt>
<trkpt lat="32.731754303" lon="35.063068390">
  <ele>368.369629</ele>
  <time>2011-06-17T03:31:14Z</time>
  <speed>4.380000</speed>
</trkpt>
<trkpt lat="32.731739044" lon="35.063102722">
  <ele>368.783691</ele>
  <time>2011-06-17T03:31:15Z</time>
  <speed>4.220000</speed>
</trkpt>
<trkpt lat="32.731716156" lon="35.063140869">
  <ele>368.689941</ele>
  <time>2011-06-17T03:31:16Z</time>
  <speed>4.340000</speed>
</trkpt>
<trkpt lat="32.731693268" lon="35.063179016">
  <ele>368.736816</ele>
  <time>2011-06-17T03:31:17Z</time>
  <speed>4.290000</speed>
</trkpt>
<trkpt lat="32.731674194" lon="35.063217163">
  <ele>368.611816</ele>
  <time>2011-06-17T03:31:18Z</time>
  <speed>4.490000</speed>
</trkpt>
<trkpt lat="32.731651306" lon="35.063255310">
  <ele>368.525879</ele>
  <time>2011-06-17T03:31:19Z</time>
  <speed>4.750000</speed>
</trkpt>
<trkpt lat="32.731620789" lon="35.063297272">
  <ele>368.150879</ele>
  <time>2011-06-17T03:31:20Z</time>
  <speed>5.090000</speed>
</trkpt>
<trkpt lat="32.731590271" lon="35.063335419">
  <ele>368.025879</ele>
  <time>2011-06-17T03:31:21Z</time>
  <speed>4.910000</speed>
</trkpt>
<trkpt lat="32.731559753" lon="35.063385010">
  <ele>368.057129</ele>
  <time>2011-06-17T03:31:22Z</time>
  <speed>5.010000</speed>
</trkpt>
<trkpt lat="32.731536865" lon="35.063423157">
  <ele>367.861816</ele>
  <time>2011-06-17T03:31:23Z</time>
  <speed>4.490000</speed>
</trkpt>
<trkpt lat="32.731513977" lon="35.063465118">
  <ele>367.518066</ele>
  <time>2011-06-17T03:31:24Z</time>
  <speed>4.410000</speed>
</trkpt>
<trkpt lat="32.731483459" lon="35.063495636">
  <ele>367.307129</ele>
  <time>2011-06-17T03:31:25Z</time>
  <speed>5.150000</speed>
</trkpt>
<trkpt lat="32.731460571" lon="35.063537598">
  <ele>366.971191</ele>
  <time>2011-06-17T03:31:26Z</time>
  <speed>4.510000</speed>
</trkpt>
<trkpt lat="32.731445313" lon="35.063583374">
  <ele>366.658691</ele>
  <time>2011-06-17T03:31:27Z</time>
  <speed>4.890000</speed>
</trkpt>
<trkpt lat="32.731422424" lon="35.063625336">
  <ele>366.322754</ele>
  <time>2011-06-17T03:31:28Z</time>
  <speed>4.600000</speed>
</trkpt>
<trkpt lat="32.731403351" lon="35.063667297">
  <ele>366.049316</ele>
  <time>2011-06-17T03:31:29Z</time>
  <speed>4.600000</speed>
</trkpt>
<trkpt lat="32.731369019" lon="35.063694000">
  <ele>365.674316</ele>
  <time>2011-06-17T03:31:30Z</time>
  <speed>4.710000</speed>
</trkpt>
<trkpt lat="32.731338501" lon="35.063732147">
  <ele>366.611816</ele>
  <time>2011-06-17T03:31:31Z</time>
  <speed>4.330000</speed>
</trkpt>
<trkpt lat="32.731304169" lon="35.063766479">
  <ele>366.619629</ele>
  <time>2011-06-17T03:31:32Z</time>
  <speed>4.530000</speed>
</trkpt>
<trkpt lat="32.731277466" lon="35.063808441">
  <ele>367.471191</ele>
  <time>2011-06-17T03:31:33Z</time>
  <speed>4.620000</speed>
</trkpt>
<trkpt lat="32.731254578" lon="35.063842773">
  <ele>368.127441</ele>
  <time>2011-06-17T03:31:34Z</time>
  <speed>4.980000</speed>
</trkpt>
<trkpt lat="32.731224060" lon="35.063880920">
  <ele>367.822754</ele>
  <time>2011-06-17T03:31:35Z</time>
  <speed>4.960000</speed>
</trkpt>
<trkpt lat="32.731174469" lon="35.063907623">
  <ele>366.900879</ele>
  <time>2011-06-17T03:31:36Z</time>
  <speed>5.290000</speed>
</trkpt>
<trkpt lat="32.731132507" lon="35.063930511">
  <ele>366.580566</ele>
  <time>2011-06-17T03:31:37Z</time>
  <speed>4.840000</speed>
</trkpt>
<trkpt lat="32.731101990" lon="35.063957214">
  <ele>366.088379</ele>
  <time>2011-06-17T03:31:38Z</time>
  <speed>4.220000</speed>
</trkpt>
<trkpt lat="32.731079102" lon="35.063991547">
  <ele>366.752441</ele>
  <time>2011-06-17T03:31:39Z</time>
  <speed>4.420000</speed>
</trkpt>
<trkpt lat="32.731056213" lon="35.064029694">
  <ele>366.791504</ele>
  <time>2011-06-17T03:31:40Z</time>
  <speed>4.690000</speed>
</trkpt>
<trkpt lat="32.731037140" lon="35.064075470">
  <ele>367.244629</ele>
  <time>2011-06-17T03:31:41Z</time>
  <speed>4.840000</speed>
</trkpt>
<trkpt lat="32.731021881" lon="35.064121246">
  <ele>367.807129</ele>
  <time>2011-06-17T03:31:42Z</time>
  <speed>4.830000</speed>
</trkpt>
<trkpt lat="32.731002808" lon="35.064170837">
  <ele>367.932129</ele>
  <time>2011-06-17T03:31:43Z</time>
  <speed>4.480000</speed>
</trkpt>
<trkpt lat="32.730995178" lon="35.064212799">
  <ele>368.049316</ele>
  <time>2011-06-17T03:31:44Z</time>
  <speed>4.210000</speed>
</trkpt>
<trkpt lat="32.730991364" lon="35.064258575">
  <ele>368.338379</ele>
  <time>2011-06-17T03:31:45Z</time>
  <speed>4.260000</speed>
</trkpt>
<trkpt lat="32.730991364" lon="35.064304352">
  <ele>368.354004</ele>
  <time>2011-06-17T03:31:46Z</time>
  <speed>4.210000</speed>
</trkpt>
<trkpt lat="32.730995178" lon="35.064350128">
  <ele>368.369629</ele>
  <time>2011-06-17T03:31:47Z</time>
  <speed>4.390000</speed>
</trkpt>
<trkpt lat="32.731010437" lon="35.064399719">
  <ele>368.502441</ele>
  <time>2011-06-17T03:31:48Z</time>
  <speed>4.290000</speed>
</trkpt>
<trkpt lat="32.731021881" lon="35.064441681">
  <ele>368.791504</ele>
  <time>2011-06-17T03:31:49Z</time>
  <speed>4.140000</speed>
</trkpt>
<trkpt lat="32.731037140" lon="35.064483643">
  <ele>368.377441</ele>
  <time>2011-06-17T03:31:50Z</time>
  <speed>4.300000</speed>
</trkpt>
<trkpt lat="32.731044769" lon="35.064529419">
  <ele>368.354004</ele>
  <time>2011-06-17T03:31:51Z</time>
  <speed>4.400000</speed>
</trkpt>
<trkpt lat="32.731048584" lon="35.064582825">
  <ele>369.096191</ele>
  <time>2011-06-17T03:31:52Z</time>
  <speed>4.490000</speed>
</trkpt>
<trkpt lat="32.731056213" lon="35.064628601">
  <ele>369.338379</ele>
  <time>2011-06-17T03:31:53Z</time>
  <speed>4.480000</speed>
</trkpt>
<trkpt lat="32.731060028" lon="35.064678192">
  <ele>369.447754</ele>
  <time>2011-06-17T03:31:54Z</time>
  <speed>4.310000</speed>
</trkpt>
<trkpt lat="32.731063843" lon="35.064731598">
  <ele>369.502441</ele>
  <time>2011-06-17T03:31:55Z</time>
  <speed>4.470000</speed>
</trkpt>
<trkpt lat="32.731071472" lon="35.064781189">
  <ele>370.510254</ele>
  <time>2011-06-17T03:31:56Z</time>
  <speed>4.500000</speed>
</trkpt>
<trkpt lat="32.731075287" lon="35.064830780">
  <ele>370.525879</ele>
  <time>2011-06-17T03:31:57Z</time>
  <speed>4.400000</speed>
</trkpt>
<trkpt lat="32.731079102" lon="35.064880371">
  <ele>371.236816</ele>
  <time>2011-06-17T03:31:58Z</time>
  <speed>4.530000</speed>
</trkpt>
<trkpt lat="32.731086731" lon="35.064929962">
  <ele>371.307129</ele>
  <time>2011-06-17T03:31:59Z</time>
  <speed>4.430000</speed>
</trkpt>
<trkpt lat="32.731090546" lon="35.064971924">
  <ele>371.635254</ele>
  <time>2011-06-17T03:32:00Z</time>
  <speed>4.460000</speed>
</trkpt>
<trkpt lat="32.731098175" lon="35.065021515">
  <ele>371.838379</ele>
  <time>2011-06-17T03:32:01Z</time>
  <speed>4.470000</speed>
</trkpt>
<trkpt lat="32.731101990" lon="35.065063477">
  <ele>371.979004</ele>
  <time>2011-06-17T03:32:02Z</time>
  <speed>4.300000</speed>
</trkpt>
<trkpt lat="32.731109619" lon="35.065113068">
  <ele>371.971191</ele>
  <time>2011-06-17T03:32:03Z</time>
  <speed>4.210000</speed>
</trkpt>
<trkpt lat="32.731113434" lon="35.065155029">
  <ele>372.307129</ele>
  <time>2011-06-17T03:32:04Z</time>
  <speed>4.090000</speed>
</trkpt>
<trkpt lat="32.731113434" lon="35.065208435">
  <ele>373.197754</ele>
  <time>2011-06-17T03:32:05Z</time>
  <speed>3.960000</speed>
</trkpt>
<trkpt lat="32.731124878" lon="35.065250397">
  <ele>373.455566</ele>
  <time>2011-06-17T03:32:06Z</time>
  <speed>4.150000</speed>
</trkpt>
<trkpt lat="32.731128693" lon="35.065296173">
  <ele>373.822754</ele>
  <time>2011-06-17T03:32:07Z</time>
  <speed>4.040000</speed>
</trkpt>
<trkpt lat="32.731136322" lon="35.065334320">
  <ele>374.119629</ele>
  <time>2011-06-17T03:32:08Z</time>
  <speed>3.780000</speed>
</trkpt>
<trkpt lat="32.731136322" lon="35.065372467">
  <ele>374.729004</ele>
  <time>2011-06-17T03:32:09Z</time>
  <speed>3.820000</speed>
</trkpt>
<trkpt lat="32.731147766" lon="35.065418243">
  <ele>375.518066</ele>
  <time>2011-06-17T03:32:10Z</time>
  <speed>3.900000</speed>
</trkpt>
<trkpt lat="32.731147766" lon="35.065456390">
  <ele>375.869629</ele>
  <time>2011-06-17T03:32:11Z</time>
  <speed>3.590000</speed>
</trkpt>
<trkpt lat="32.731147766" lon="35.065521240">
  <ele>376.064941</ele>
  <time>2011-06-17T03:32:13Z</time>
  <speed>3.370000</speed>
</trkpt>
<trkpt lat="32.731143951" lon="35.065563202">
  <ele>376.541504</ele>
  <time>2011-06-17T03:32:14Z</time>
  <speed>3.400000</speed>
</trkpt>
<trkpt lat="32.731147766" lon="35.065593719">
  <ele>377.010254</ele>
  <time>2011-06-17T03:32:15Z</time>
  <speed>3.370000</speed>
</trkpt>
<trkpt lat="32.731159210" lon="35.065635681">
  <ele>378.150879</ele>
  <time>2011-06-17T03:32:16Z</time>
  <speed>3.080000</speed>
</trkpt>
<trkpt lat="32.731166840" lon="35.065685272">
  <ele>378.861816</ele>
  <time>2011-06-17T03:32:18Z</time>
  <speed>2.190000</speed>
</trkpt>
<trkpt lat="32.731159210" lon="35.065738678">
  <ele>379.479004</ele>
  <time>2011-06-17T03:32:20Z</time>
  <speed>2.390000</speed>
</trkpt>
<trkpt lat="32.731147766" lon="35.065784454">
  <ele>379.986816</ele>
  <time>2011-06-17T03:32:22Z</time>
  <speed>2.310000</speed>
</trkpt>
<trkpt lat="32.731140137" lon="35.065841675">
  <ele>380.041504</ele>
  <time>2011-06-17T03:32:24Z</time>
  <speed>2.980000</speed>
</trkpt>
<trkpt lat="32.731136322" lon="35.065876007">
  <ele>380.564941</ele>
  <time>2011-06-17T03:32:25Z</time>
  <speed>3.460000</speed>
</trkpt>
<trkpt lat="32.731124878" lon="35.065914154">
  <ele>380.861816</ele>
  <time>2011-06-17T03:32:26Z</time>
  <speed>3.820000</speed>
</trkpt>
<trkpt lat="32.731117249" lon="35.065956116">
  <ele>380.971191</ele>
  <time>2011-06-17T03:32:27Z</time>
  <speed>3.850000</speed>
</trkpt>
<trkpt lat="32.731105804" lon="35.065994263">
  <ele>381.150879</ele>
  <time>2011-06-17T03:32:28Z</time>
  <speed>3.720000</speed>
</trkpt>
<trkpt lat="32.731079102" lon="35.066020966">
  <ele>381.541504</ele>
  <time>2011-06-17T03:32:29Z</time>
  <speed>3.850000</speed>
</trkpt>
<trkpt lat="32.731060028" lon="35.066043854">
  <ele>381.119629</ele>
  <time>2011-06-17T03:32:30Z</time>
  <speed>3.630000</speed>
</trkpt>
<trkpt lat="32.731033325" lon="35.066062927">
  <ele>381.596191</ele>
  <time>2011-06-17T03:32:31Z</time>
  <speed>3.970000</speed>
</trkpt>
<trkpt lat="32.731002808" lon="35.066085815">
  <ele>381.721191</ele>
  <time>2011-06-17T03:32:32Z</time>
  <speed>4.020000</speed>
</trkpt>
<trkpt lat="32.730968475" lon="35.066104889">
  <ele>382.072754</ele>
  <time>2011-06-17T03:32:33Z</time>
  <speed>4.000000</speed>
</trkpt>
<trkpt lat="32.730941772" lon="35.066116333">
  <ele>382.604004</ele>
  <time>2011-06-17T03:32:34Z</time>
  <speed>4.030000</speed>
</trkpt>
<trkpt lat="32.730911255" lon="35.066123962">
  <ele>382.721191</ele>
  <time>2011-06-17T03:32:35Z</time>
  <speed>4.170000</speed>
</trkpt>
<trkpt lat="32.730876923" lon="35.066123962">
  <ele>383.041504</ele>
  <time>2011-06-17T03:32:36Z</time>
  <speed>4.440000</speed>
</trkpt>
<trkpt lat="32.730834961" lon="35.066127777">
  <ele>383.635254</ele>
  <time>2011-06-17T03:32:37Z</time>
  <speed>4.200000</speed>
</trkpt>
<trkpt lat="32.730796814" lon="35.066131592">
  <ele>383.307129</ele>
  <time>2011-06-17T03:32:38Z</time>
  <speed>4.260000</speed>
</trkpt>
<trkpt lat="32.730762482" lon="35.066131592">
  <ele>383.416504</ele>
  <time>2011-06-17T03:32:39Z</time>
  <speed>4.570000</speed>
</trkpt>
<trkpt lat="32.730720520" lon="35.066127777">
  <ele>383.377441</ele>
  <time>2011-06-17T03:32:40Z</time>
  <speed>4.680000</speed>
</trkpt>
<trkpt lat="32.730682373" lon="35.066116333">
  <ele>383.447754</ele>
  <time>2011-06-17T03:32:41Z</time>
  <speed>4.940000</speed>
</trkpt>
<trkpt lat="32.730636597" lon="35.066093445">
  <ele>383.455566</ele>
  <time>2011-06-17T03:32:42Z</time>
  <speed>5.470000</speed>
</trkpt>
<trkpt lat="32.730590820" lon="35.066066742">
  <ele>383.729004</ele>
  <time>2011-06-17T03:32:43Z</time>
  <speed>5.730000</speed>
</trkpt>
<trkpt lat="32.730545044" lon="35.066040039">
  <ele>383.791504</ele>
  <time>2011-06-17T03:32:44Z</time>
  <speed>6.040000</speed>
</trkpt>
<trkpt lat="32.730491638" lon="35.066013336">
  <ele>383.760254</ele>
  <time>2011-06-17T03:32:45Z</time>
  <speed>6.090000</speed>
</trkpt>
<trkpt lat="32.730438232" lon="35.065990448">
  <ele>384.166504</ele>
  <time>2011-06-17T03:32:46Z</time>
  <speed>5.990000</speed>
</trkpt>
<trkpt lat="32.730384827" lon="35.065975189">
  <ele>384.252441</ele>
  <time>2011-06-17T03:32:47Z</time>
  <speed>5.660000</speed>
</trkpt>
<trkpt lat="32.730335236" lon="35.065959930">
  <ele>384.197754</ele>
  <time>2011-06-17T03:32:48Z</time>
  <speed>5.720000</speed>
</trkpt>
<trkpt lat="32.730285645" lon="35.065933228">
  <ele>384.572754</ele>
  <time>2011-06-17T03:32:49Z</time>
  <speed>5.630000</speed>
</trkpt>
<trkpt lat="32.730239868" lon="35.065921783">
  <ele>385.135254</ele>
  <time>2011-06-17T03:32:50Z</time>
  <speed>5.280000</speed>
</trkpt>
<trkpt lat="32.730197906" lon="35.065906525">
  <ele>384.861816</ele>
  <time>2011-06-17T03:32:51Z</time>
  <speed>4.980000</speed>
</trkpt>
<trkpt lat="32.730152130" lon="35.065891266">
  <ele>384.885254</ele>
  <time>2011-06-17T03:32:52Z</time>
  <speed>5.320000</speed>
</trkpt>
<trkpt lat="32.730110168" lon="35.065887451">
  <ele>384.299316</ele>
  <time>2011-06-17T03:32:53Z</time>
  <speed>5.440000</speed>
</trkpt>
<trkpt lat="32.730052948" lon="35.065879822">
  <ele>384.744629</ele>
  <time>2011-06-17T03:32:54Z</time>
  <speed>5.600000</speed>
</trkpt>
<trkpt lat="32.730007172" lon="35.065876007">
  <ele>384.205566</ele>
  <time>2011-06-17T03:32:55Z</time>
  <speed>5.810000</speed>
</trkpt>
<trkpt lat="32.729953766" lon="35.065868378">
  <ele>383.924316</ele>
  <time>2011-06-17T03:32:56Z</time>
  <speed>5.640000</speed>
</trkpt>
<trkpt lat="32.729904175" lon="35.065860748">
  <ele>384.002441</ele>
  <time>2011-06-17T03:32:57Z</time>
  <speed>5.680000</speed>
</trkpt>
<trkpt lat="32.729846954" lon="35.065868378">
  <ele>384.549316</ele>
  <time>2011-06-17T03:32:58Z</time>
  <speed>5.760000</speed>
</trkpt>
<trkpt lat="32.729793549" lon="35.065883636">
  <ele>383.736816</ele>
  <time>2011-06-17T03:32:59Z</time>
  <speed>6.270000</speed>
</trkpt>
<trkpt lat="32.729736328" lon="35.065887451">
  <ele>383.736816</ele>
  <time>2011-06-17T03:33:00Z</time>
  <speed>6.880000</speed>
</trkpt>
<trkpt lat="32.729675293" lon="35.065898895">
  <ele>383.768066</ele>
  <time>2011-06-17T03:33:01Z</time>
  <speed>7.060000</speed>
</trkpt>
<trkpt lat="32.729606628" lon="35.065914154">
  <ele>382.986816</ele>
  <time>2011-06-17T03:33:02Z</time>
  <speed>7.140000</speed>
</trkpt>
<trkpt lat="32.729545593" lon="35.065925598">
  <ele>381.963379</ele>
  <time>2011-06-17T03:33:03Z</time>
  <speed>7.190000</speed>
</trkpt>
<trkpt lat="32.729488373" lon="35.065937042">
  <ele>381.018066</ele>
  <time>2011-06-17T03:33:04Z</time>
  <speed>7.360000</speed>
</trkpt>
<trkpt lat="32.729415894" lon="35.065944672">
  <ele>380.518066</ele>
  <time>2011-06-17T03:33:05Z</time>
  <speed>7.310000</speed>
</trkpt>
<trkpt lat="32.729351044" lon="35.065952301">
  <ele>379.658691</ele>
  <time>2011-06-17T03:33:06Z</time>
  <speed>7.350000</speed>
</trkpt>
<trkpt lat="32.729286194" lon="35.065956116">
  <ele>379.291504</ele>
  <time>2011-06-17T03:33:07Z</time>
  <speed>7.510000</speed>
</trkpt>
<trkpt lat="32.729217529" lon="35.065959930">
  <ele>378.260254</ele>
  <time>2011-06-17T03:33:08Z</time>
  <speed>7.810000</speed>
</trkpt>
<trkpt lat="32.729141235" lon="35.065956116">
  <ele>377.713379</ele>
  <time>2011-06-17T03:33:09Z</time>
  <speed>7.680000</speed>
</trkpt>
<trkpt lat="32.729076385" lon="35.065948486">
  <ele>376.908691</ele>
  <time>2011-06-17T03:33:10Z</time>
  <speed>7.760000</speed>
</trkpt>
<trkpt lat="32.729007721" lon="35.065937042">
  <ele>376.439941</ele>
  <time>2011-06-17T03:33:11Z</time>
  <speed>7.170000</speed>
</trkpt>
<trkpt lat="32.728939056" lon="35.065937042">
  <ele>375.752441</ele>
  <time>2011-06-17T03:33:12Z</time>
  <speed>7.460000</speed>
</trkpt>
<trkpt lat="32.728870392" lon="35.065956116">
  <ele>374.572754</ele>
  <time>2011-06-17T03:33:13Z</time>
  <speed>7.650000</speed>
</trkpt>
<trkpt lat="32.728805542" lon="35.065975189">
  <ele>373.635254</ele>
  <time>2011-06-17T03:33:14Z</time>
  <speed>7.460000</speed>
</trkpt>
<trkpt lat="32.728733063" lon="35.066013336">
  <ele>373.025879</ele>
  <time>2011-06-17T03:33:15Z</time>
  <speed>7.820000</speed>
</trkpt>
<trkpt lat="32.728660583" lon="35.066040039">
  <ele>372.721191</ele>
  <time>2011-06-17T03:33:16Z</time>
  <speed>7.130000</speed>
</trkpt>
<trkpt lat="32.728603363" lon="35.066059113">
  <ele>371.830566</ele>
  <time>2011-06-17T03:33:17Z</time>
  <speed>6.100000</speed>
</trkpt>
<trkpt lat="32.728549957" lon="35.066085815">
  <ele>371.213379</ele>
  <time>2011-06-17T03:33:18Z</time>
  <speed>6.730000</speed>
</trkpt>
<trkpt lat="32.728488922" lon="35.066116333">
  <ele>370.596191</ele>
  <time>2011-06-17T03:33:19Z</time>
  <speed>7.070000</speed>
</trkpt>
<trkpt lat="32.728431702" lon="35.066139221">
  <ele>369.830566</ele>
  <time>2011-06-17T03:33:20Z</time>
  <speed>6.680000</speed>
</trkpt>
<trkpt lat="32.728374481" lon="35.066154480">
  <ele>368.729004</ele>
  <time>2011-06-17T03:33:21Z</time>
  <speed>6.910000</speed>
</trkpt>
<trkpt lat="32.728309631" lon="35.066169739">
  <ele>367.791504</ele>
  <time>2011-06-17T03:33:22Z</time>
  <speed>7.820000</speed>
</trkpt>
<trkpt lat="32.728229523" lon="35.066188812">
  <ele>367.541504</ele>
  <time>2011-06-17T03:33:23Z</time>
  <speed>7.790000</speed>
</trkpt>
<trkpt lat="32.728160858" lon="35.066204071">
  <ele>366.541504</ele>
  <time>2011-06-17T03:33:24Z</time>
  <speed>7.470000</speed>
</trkpt>
<trkpt lat="32.728099823" lon="35.066207886">
  <ele>365.916504</ele>
  <time>2011-06-17T03:33:25Z</time>
  <speed>7.280000</speed>
</trkpt>
<trkpt lat="32.728027344" lon="35.066223145">
  <ele>365.205566</ele>
  <time>2011-06-17T03:33:26Z</time>
  <speed>7.720000</speed>
</trkpt>
<trkpt lat="32.727970123" lon="35.066226959">
  <ele>364.197754</ele>
  <time>2011-06-17T03:33:27Z</time>
  <speed>7.450000</speed>
</trkpt>
<trkpt lat="32.727901459" lon="35.066226959">
  <ele>363.283691</ele>
  <time>2011-06-17T03:33:28Z</time>
  <speed>7.330000</speed>
</trkpt>
<trkpt lat="32.727832794" lon="35.066219330">
  <ele>362.697754</ele>
  <time>2011-06-17T03:33:29Z</time>
  <speed>6.650000</speed>
</trkpt>
<trkpt lat="32.727775574" lon="35.066215515">
  <ele>361.861816</ele>
  <time>2011-06-17T03:33:30Z</time>
  <speed>6.220000</speed>
</trkpt>
<trkpt lat="32.727714539" lon="35.066234589">
  <ele>361.283691</ele>
  <time>2011-06-17T03:33:31Z</time>
  <speed>7.020000</speed>
</trkpt>
<trkpt lat="32.727642059" lon="35.066249847">
  <ele>360.518066</ele>
  <time>2011-06-17T03:33:32Z</time>
  <speed>7.580000</speed>
</trkpt>
<trkpt lat="32.727569580" lon="35.066257477">
  <ele>359.752441</ele>
  <time>2011-06-17T03:33:33Z</time>
  <speed>7.570000</speed>
</trkpt>
<trkpt lat="32.727504730" lon="35.066249847">
  <ele>358.252441</ele>
  <time>2011-06-17T03:33:34Z</time>
  <speed>7.740000</speed>
</trkpt>
<trkpt lat="32.727436066" lon="35.066234589">
  <ele>357.166504</ele>
  <time>2011-06-17T03:33:35Z</time>
  <speed>7.880000</speed>
</trkpt>
<trkpt lat="32.727359772" lon="35.066223145">
  <ele>356.369629</ele>
  <time>2011-06-17T03:33:36Z</time>
  <speed>8.130000</speed>
</trkpt>
<trkpt lat="32.727291107" lon="35.066211700">
  <ele>355.463379</ele>
  <time>2011-06-17T03:33:37Z</time>
  <speed>8.090000</speed>
</trkpt>
<trkpt lat="32.727222443" lon="35.066196442">
  <ele>354.908691</ele>
  <time>2011-06-17T03:33:38Z</time>
  <speed>8.050000</speed>
</trkpt>
<trkpt lat="32.727149963" lon="35.066184998">
  <ele>354.486816</ele>
  <time>2011-06-17T03:33:39Z</time>
  <speed>7.720000</speed>
</trkpt>
<trkpt lat="32.727085114" lon="35.066169739">
  <ele>353.994629</ele>
  <time>2011-06-17T03:33:40Z</time>
  <speed>7.380000</speed>
</trkpt>
<trkpt lat="32.727027893" lon="35.066143036">
  <ele>353.096191</ele>
  <time>2011-06-17T03:33:41Z</time>
  <speed>7.250000</speed>
</trkpt>
<trkpt lat="32.726947784" lon="35.066112518">
  <ele>353.002441</ele>
  <time>2011-06-17T03:33:42Z</time>
  <speed>7.840000</speed>
</trkpt>
<trkpt lat="32.726886749" lon="35.066089630">
  <ele>352.189941</ele>
  <time>2011-06-17T03:33:43Z</time>
  <speed>7.420000</speed>
</trkpt>
<trkpt lat="32.726825714" lon="35.066055298">
  <ele>352.119629</ele>
  <time>2011-06-17T03:33:44Z</time>
  <speed>6.820000</speed>
</trkpt>
<trkpt lat="32.726757050" lon="35.066032410">
  <ele>351.127441</ele>
  <time>2011-06-17T03:33:45Z</time>
  <speed>7.050000</speed>
</trkpt>
<trkpt lat="32.726699829" lon="35.066005707">
  <ele>350.775879</ele>
  <time>2011-06-17T03:33:46Z</time>
  <speed>7.290000</speed>
</trkpt>
<trkpt lat="32.726642609" lon="35.065971375">
  <ele>350.471191</ele>
  <time>2011-06-17T03:33:47Z</time>
  <speed>7.400000</speed>
</trkpt>
<trkpt lat="32.726581573" lon="35.065929413">
  <ele>350.658691</ele>
  <time>2011-06-17T03:33:48Z</time>
  <speed>6.830000</speed>
</trkpt>
<trkpt lat="32.726528168" lon="35.065895081">
  <ele>350.502441</ele>
  <time>2011-06-17T03:33:49Z</time>
  <speed>6.560000</speed>
</trkpt>
<trkpt lat="32.726482391" lon="35.065856934">
  <ele>350.666504</ele>
  <time>2011-06-17T03:33:50Z</time>
  <speed>6.400000</speed>
</trkpt>
<trkpt lat="32.726425171" lon="35.065830231">
  <ele>350.510254</ele>
  <time>2011-06-17T03:33:51Z</time>
  <speed>5.870000</speed>
</trkpt>
<trkpt lat="32.726379395" lon="35.065803528">
  <ele>350.135254</ele>
  <time>2011-06-17T03:33:52Z</time>
  <speed>5.510000</speed>
</trkpt>
<trkpt lat="32.726337433" lon="35.065792084">
  <ele>349.197754</ele>
  <time>2011-06-17T03:33:53Z</time>
  <speed>5.320000</speed>
</trkpt>
<trkpt lat="32.726284027" lon="35.065780640">
  <ele>349.447754</ele>
  <time>2011-06-17T03:33:54Z</time>
  <speed>5.790000</speed>
</trkpt>
<trkpt lat="32.726234436" lon="35.065761566">
  <ele>349.197754</ele>
  <time>2011-06-17T03:33:55Z</time>
  <speed>6.190000</speed>
</trkpt>
<trkpt lat="32.726184845" lon="35.065738678">
  <ele>348.799316</ele>
  <time>2011-06-17T03:33:56Z</time>
  <speed>5.650000</speed>
</trkpt>
<trkpt lat="32.726131439" lon="35.065727234">
  <ele>349.049316</ele>
  <time>2011-06-17T03:33:57Z</time>
  <speed>5.630000</speed>
</trkpt>
<trkpt lat="32.726085663" lon="35.065711975">
  <ele>349.283691</ele>
  <time>2011-06-17T03:33:58Z</time>
  <speed>5.680000</speed>
</trkpt>
<trkpt lat="32.726039886" lon="35.065700531">
  <ele>349.143066</ele>
  <time>2011-06-17T03:33:59Z</time>
  <speed>5.730000</speed>
</trkpt>
<trkpt lat="32.725978851" lon="35.065689087">
  <ele>348.908691</ele>
  <time>2011-06-17T03:34:00Z</time>
  <speed>6.040000</speed>
</trkpt>
<trkpt lat="32.725925446" lon="35.065677643">
  <ele>348.393066</ele>
  <time>2011-06-17T03:34:01Z</time>
  <speed>5.930000</speed>
</trkpt>
<trkpt lat="32.725872040" lon="35.065670013">
  <ele>348.064941</ele>
  <time>2011-06-17T03:34:02Z</time>
  <speed>6.050000</speed>
</trkpt>
<trkpt lat="32.725807190" lon="35.065685272">
  <ele>347.275879</ele>
  <time>2011-06-17T03:34:03Z</time>
  <speed>5.830000</speed>
</trkpt>
<trkpt lat="32.725753784" lon="35.065689087">
  <ele>346.939941</ele>
  <time>2011-06-17T03:34:04Z</time>
  <speed>5.840000</speed>
</trkpt>
<trkpt lat="32.725708008" lon="35.065704346">
  <ele>347.072754</ele>
  <time>2011-06-17T03:34:05Z</time>
  <speed>6.230000</speed>
</trkpt>
<trkpt lat="32.725643158" lon="35.065704346">
  <ele>346.760254</ele>
  <time>2011-06-17T03:34:06Z</time>
  <speed>6.740000</speed>
</trkpt>
<trkpt lat="32.725582123" lon="35.065685272">
  <ele>346.354004</ele>
  <time>2011-06-17T03:34:07Z</time>
  <speed>7.120000</speed>
</trkpt>
<trkpt lat="32.725524902" lon="35.065658569">
  <ele>345.916504</ele>
  <time>2011-06-17T03:34:08Z</time>
  <speed>7.250000</speed>
</trkpt>
<trkpt lat="32.725456238" lon="35.065620422">
  <ele>345.736816</ele>
  <time>2011-06-17T03:34:09Z</time>
  <speed>7.280000</speed>
</trkpt>
<trkpt lat="32.725395203" lon="35.065570831">
  <ele>345.111816</ele>
  <time>2011-06-17T03:34:10Z</time>
  <speed>8.250000</speed>
</trkpt>
<trkpt lat="32.725334167" lon="35.065509796">
  <ele>343.814941</ele>
  <time>2011-06-17T03:34:11Z</time>
  <speed>8.660000</speed>
</trkpt>
<trkpt lat="32.725269318" lon="35.065448761">
  <ele>343.205566</ele>
  <time>2011-06-17T03:34:12Z</time>
  <speed>8.610000</speed>
</trkpt>
<trkpt lat="32.725215912" lon="35.065387726">
  <ele>341.900879</ele>
  <time>2011-06-17T03:34:13Z</time>
  <speed>8.630000</speed>
</trkpt>
<trkpt lat="32.725166321" lon="35.065319061">
  <ele>341.666504</ele>
  <time>2011-06-17T03:34:14Z</time>
  <speed>8.060000</speed>
</trkpt>
<trkpt lat="32.725116730" lon="35.065250397">
  <ele>341.432129</ele>
  <time>2011-06-17T03:34:15Z</time>
  <speed>7.470000</speed>
</trkpt>
<trkpt lat="32.725074768" lon="35.065196991">
  <ele>341.643066</ele>
  <time>2011-06-17T03:34:16Z</time>
  <speed>5.830000</speed>
</trkpt>
<trkpt lat="32.725036621" lon="35.065185547">
  <ele>340.752441</ele>
  <time>2011-06-17T03:34:17Z</time>
  <speed>4.530000</speed>
</trkpt>
<trkpt lat="32.725002289" lon="35.065185547">
  <ele>340.072754</ele>
  <time>2011-06-17T03:34:18Z</time>
  <speed>3.910000</speed>
</trkpt>
<trkpt lat="32.724979401" lon="35.065212250">
  <ele>339.088379</ele>
  <time>2011-06-17T03:34:19Z</time>
  <speed>3.710000</speed>
</trkpt>
<trkpt lat="32.724960327" lon="35.065250397">
  <ele>338.463379</ele>
  <time>2011-06-17T03:34:20Z</time>
  <speed>4.140000</speed>
</trkpt>
<trkpt lat="32.724945068" lon="35.065292358">
  <ele>338.080566</ele>
  <time>2011-06-17T03:34:21Z</time>
  <speed>4.650000</speed>
</trkpt>
<trkpt lat="32.724922180" lon="35.065338135">
  <ele>337.408691</ele>
  <time>2011-06-17T03:34:22Z</time>
  <speed>5.020000</speed>
</trkpt>
<trkpt lat="32.724903107" lon="35.065383911">
  <ele>336.924316</ele>
  <time>2011-06-17T03:34:23Z</time>
  <speed>4.070000</speed>
</trkpt>
<trkpt lat="32.724887848" lon="35.065425873">
  <ele>336.002441</ele>
  <time>2011-06-17T03:34:24Z</time>
  <speed>4.250000</speed>
</trkpt>
<trkpt lat="32.724857330" lon="35.065464020">
  <ele>335.947754</ele>
  <time>2011-06-17T03:34:25Z</time>
  <speed>4.550000</speed>
</trkpt>
<trkpt lat="32.724830627" lon="35.065494537">
  <ele>335.572754</ele>
  <time>2011-06-17T03:34:26Z</time>
  <speed>3.680000</speed>
</trkpt>
<trkpt lat="32.724788666" lon="35.065517426">
  <ele>335.346191</ele>
  <time>2011-06-17T03:34:27Z</time>
  <speed>3.350000</speed>
</trkpt>
<trkpt lat="32.724769592" lon="35.065532684">
  <ele>334.736816</ele>
  <time>2011-06-17T03:34:28Z</time>
  <speed>2.970000</speed>
</trkpt>
<trkpt lat="32.724746704" lon="35.065555573">
  <ele>334.330566</ele>
  <time>2011-06-17T03:34:29Z</time>
  <speed>3.490000</speed>
</trkpt>
<trkpt lat="32.724716187" lon="35.065570831">
  <ele>334.588379</ele>
  <time>2011-06-17T03:34:30Z</time>
  <speed>3.430000</speed>
</trkpt>
<trkpt lat="32.724685669" lon="35.065586090">
  <ele>334.275879</ele>
  <time>2011-06-17T03:34:31Z</time>
  <speed>3.270000</speed>
</trkpt>
<trkpt lat="32.724647522" lon="35.065597534">
  <ele>334.213379</ele>
  <time>2011-06-17T03:34:32Z</time>
  <speed>3.680000</speed>
</trkpt>
<trkpt lat="32.724613190" lon="35.065624237">
  <ele>333.963379</ele>
  <time>2011-06-17T03:34:33Z</time>
  <speed>3.840000</speed>
</trkpt>
<trkpt lat="32.724578857" lon="35.065643311">
  <ele>333.768066</ele>
  <time>2011-06-17T03:34:34Z</time>
  <speed>3.600000</speed>
</trkpt>
<trkpt lat="32.724552155" lon="35.065662384">
  <ele>333.525879</ele>
  <time>2011-06-17T03:34:35Z</time>
  <speed>3.830000</speed>
</trkpt>
<trkpt lat="32.724517822" lon="35.065681458">
  <ele>333.143066</ele>
  <time>2011-06-17T03:34:36Z</time>
  <speed>3.910000</speed>
</trkpt>
<trkpt lat="32.724483490" lon="35.065700531">
  <ele>332.666504</ele>
  <time>2011-06-17T03:34:37Z</time>
  <speed>3.820000</speed>
</trkpt>
<trkpt lat="32.724452972" lon="35.065719604">
  <ele>332.635254</ele>
  <time>2011-06-17T03:34:38Z</time>
  <speed>4.080000</speed>
</trkpt>
<trkpt lat="32.724414825" lon="35.065738678">
  <ele>332.705566</ele>
  <time>2011-06-17T03:34:39Z</time>
  <speed>4.200000</speed>
</trkpt>
<trkpt lat="32.724380493" lon="35.065765381">
  <ele>332.705566</ele>
  <time>2011-06-17T03:34:40Z</time>
  <speed>3.830000</speed>
</trkpt>
<trkpt lat="32.724349976" lon="35.065784454">
  <ele>332.557129</ele>
  <time>2011-06-17T03:34:41Z</time>
  <speed>3.890000</speed>
</trkpt>
<trkpt lat="32.724315643" lon="35.065807343">
  <ele>332.205566</ele>
  <time>2011-06-17T03:34:42Z</time>
  <speed>4.000000</speed>
</trkpt>
<trkpt lat="32.724281311" lon="35.065826416">
  <ele>332.291504</ele>
  <time>2011-06-17T03:34:43Z</time>
  <speed>3.800000</speed>
</trkpt>
<trkpt lat="32.724250793" lon="35.065841675">
  <ele>332.143066</ele>
  <time>2011-06-17T03:34:44Z</time>
  <speed>3.710000</speed>
</trkpt>
<trkpt lat="32.724231720" lon="35.065872192">
  <ele>331.885254</ele>
  <time>2011-06-17T03:34:45Z</time>
  <speed>3.490000</speed>
</trkpt>
<trkpt lat="32.724212646" lon="35.065921783">
  <ele>331.572754</ele>
  <time>2011-06-17T03:34:46Z</time>
  <speed>4.050000</speed>
</trkpt>
<trkpt lat="32.724205017" lon="35.065971375">
  <ele>331.416504</ele>
  <time>2011-06-17T03:34:47Z</time>
  <speed>4.130000</speed>
</trkpt>
<trkpt lat="32.724205017" lon="35.066017151">
  <ele>331.455566</ele>
  <time>2011-06-17T03:34:48Z</time>
  <speed>4.690000</speed>
</trkpt>
<trkpt lat="32.724212646" lon="35.066078186">
  <ele>331.174316</ele>
  <time>2011-06-17T03:34:49Z</time>
  <speed>4.750000</speed>
</trkpt>
<trkpt lat="32.724227905" lon="35.066123962">
  <ele>331.057129</ele>
  <time>2011-06-17T03:34:50Z</time>
  <speed>4.820000</speed>
</trkpt>
<trkpt lat="32.724246979" lon="35.066177368">
  <ele>331.127441</ele>
  <time>2011-06-17T03:34:51Z</time>
  <speed>4.620000</speed>
</trkpt>
<trkpt lat="32.724273682" lon="35.066219330">
  <ele>331.588379</ele>
  <time>2011-06-17T03:34:52Z</time>
  <speed>4.040000</speed>
</trkpt>
<trkpt lat="32.724308014" lon="35.066249847">
  <ele>332.018066</ele>
  <time>2011-06-17T03:34:53Z</time>
  <speed>3.990000</speed>
</trkpt>
<trkpt lat="32.724330902" lon="35.066280365">
  <ele>333.135254</ele>
  <time>2011-06-17T03:34:54Z</time>
  <speed>3.790000</speed>
</trkpt>
<trkpt lat="32.724357605" lon="35.066310883">
  <ele>334.322754</ele>
  <time>2011-06-17T03:34:55Z</time>
  <speed>3.760000</speed>
</trkpt>
<trkpt lat="32.724403381" lon="35.066341400">
  <ele>336.682129</ele>
  <time>2011-06-17T03:34:56Z</time>
  <speed>3.580000</speed>
</trkpt>
<trkpt lat="32.724445343" lon="35.066352844">
  <ele>337.447754</ele>
  <time>2011-06-17T03:34:57Z</time>
  <speed>3.690000</speed>
</trkpt>
<trkpt lat="32.724483490" lon="35.066349030">
  <ele>337.752441</ele>
  <time>2011-06-17T03:34:58Z</time>
  <speed>3.820000</speed>
</trkpt>
<trkpt lat="32.724514008" lon="35.066345215">
  <ele>338.963379</ele>
  <time>2011-06-17T03:34:59Z</time>
  <speed>3.360000</speed>
</trkpt>
<trkpt lat="32.724544525" lon="35.066349030">
  <ele>340.236816</ele>
  <time>2011-06-17T03:35:00Z</time>
  <speed>3.550000</speed>
</trkpt>
<trkpt lat="32.724578857" lon="35.066341400">
  <ele>341.768066</ele>
  <time>2011-06-17T03:35:01Z</time>
  <speed>3.690000</speed>
</trkpt>
<trkpt lat="32.724613190" lon="35.066349030">
  <ele>341.939941</ele>
  <time>2011-06-17T03:35:02Z</time>
  <speed>3.530000</speed>
</trkpt>
<trkpt lat="32.724647522" lon="35.066356659">
  <ele>342.955566</ele>
  <time>2011-06-17T03:35:03Z</time>
  <speed>3.710000</speed>
</trkpt>
<trkpt lat="32.724681854" lon="35.066360474">
  <ele>344.072754</ele>
  <time>2011-06-17T03:35:04Z</time>
  <speed>3.600000</speed>
</trkpt>
<trkpt lat="32.724716187" lon="35.066368103">
  <ele>344.963379</ele>
  <time>2011-06-17T03:35:05Z</time>
  <speed>3.680000</speed>
</trkpt>
<trkpt lat="32.724746704" lon="35.066379547">
  <ele>345.846191</ele>
  <time>2011-06-17T03:35:06Z</time>
  <speed>3.820000</speed>
</trkpt>
<trkpt lat="32.724781036" lon="35.066390991">
  <ele>346.666504</ele>
  <time>2011-06-17T03:35:07Z</time>
  <speed>3.750000</speed>
</trkpt>
<trkpt lat="32.724819183" lon="35.066394806">
  <ele>347.283691</ele>
  <time>2011-06-17T03:35:08Z</time>
  <speed>4.080000</speed>
</trkpt>
<trkpt lat="32.724857330" lon="35.066410065">
  <ele>347.236816</ele>
  <time>2011-06-17T03:35:09Z</time>
  <speed>3.650000</speed>
</trkpt>
<trkpt lat="32.724887848" lon="35.066425323">
  <ele>347.564941</ele>
  <time>2011-06-17T03:35:10Z</time>
  <speed>3.700000</speed>
</trkpt>
<trkpt lat="32.724922180" lon="35.066440582">
  <ele>348.424316</ele>
  <time>2011-06-17T03:35:11Z</time>
  <speed>3.840000</speed>
</trkpt>
<trkpt lat="32.724952698" lon="35.066459656">
  <ele>348.877441</ele>
  <time>2011-06-17T03:35:12Z</time>
  <speed>3.820000</speed>
</trkpt>
<trkpt lat="32.724983215" lon="35.066486359">
  <ele>349.166504</ele>
  <time>2011-06-17T03:35:13Z</time>
  <speed>3.650000</speed>
</trkpt>
<trkpt lat="32.725009918" lon="35.066509247">
  <ele>350.025879</ele>
  <time>2011-06-17T03:35:14Z</time>
  <speed>3.530000</speed>
</trkpt>
<trkpt lat="32.725040436" lon="35.066528320">
  <ele>350.721191</ele>
  <time>2011-06-17T03:35:15Z</time>
  <speed>3.600000</speed>
</trkpt>
<trkpt lat="32.725070953" lon="35.066551208">
  <ele>350.924316</ele>
  <time>2011-06-17T03:35:16Z</time>
  <speed>3.540000</speed>
</trkpt>
<trkpt lat="32.725101471" lon="35.066574097">
  <ele>352.057129</ele>
  <time>2011-06-17T03:35:17Z</time>
  <speed>3.510000</speed>
</trkpt>
<trkpt lat="32.725128174" lon="35.066593170">
  <ele>352.986816</ele>
  <time>2011-06-17T03:35:18Z</time>
  <speed>3.110000</speed>
</trkpt>
<trkpt lat="32.725154877" lon="35.066608429">
  <ele>354.689941</ele>
  <time>2011-06-17T03:35:19Z</time>
  <speed>2.760000</speed>
</trkpt>
<trkpt lat="32.725173950" lon="35.066635132">
  <ele>355.627441</ele>
  <time>2011-06-17T03:35:20Z</time>
  <speed>3.140000</speed>
</trkpt>
<trkpt lat="32.725196838" lon="35.066661835">
  <ele>356.994629</ele>
  <time>2011-06-17T03:35:21Z</time>
  <speed>3.100000</speed>
</trkpt>
<trkpt lat="32.725219727" lon="35.066688538">
  <ele>358.424316</ele>
  <time>2011-06-17T03:35:22Z</time>
  <speed>3.020000</speed>
</trkpt>
<trkpt lat="32.725238800" lon="35.066711426">
  <ele>358.439941</ele>
  <time>2011-06-17T03:35:23Z</time>
  <speed>3.110000</speed>
</trkpt>
<trkpt lat="32.725257874" lon="35.066730499">
  <ele>358.713379</ele>
  <time>2011-06-17T03:35:24Z</time>
  <speed>3.080000</speed>
</trkpt>
<trkpt lat="32.725284576" lon="35.066749573">
  <ele>359.346191</ele>
  <time>2011-06-17T03:35:25Z</time>
  <speed>3.150000</speed>
</trkpt>
<trkpt lat="32.725315094" lon="35.066799164">
  <ele>359.377441</ele>
  <time>2011-06-17T03:35:27Z</time>
  <speed>2.950000</speed>
</trkpt>
<trkpt lat="32.725334167" lon="35.066822052">
  <ele>359.955566</ele>
  <time>2011-06-17T03:35:28Z</time>
  <speed>3.000000</speed>
</trkpt>
<trkpt lat="32.725353241" lon="35.066848755">
  <ele>359.604004</ele>
  <time>2011-06-17T03:35:29Z</time>
  <speed>3.090000</speed>
</trkpt>
<trkpt lat="32.725391388" lon="35.066886902">
  <ele>360.486816</ele>
  <time>2011-06-17T03:35:31Z</time>
  <speed>2.900000</speed>
</trkpt>
<trkpt lat="32.725414276" lon="35.066913605">
  <ele>363.338379</ele>
  <time>2011-06-17T03:35:32Z</time>
  <speed>2.990000</speed>
</trkpt>
<trkpt lat="32.725437164" lon="35.066951752">
  <ele>364.252441</ele>
  <time>2011-06-17T03:35:34Z</time>
  <speed>2.740000</speed>
</trkpt>
<trkpt lat="32.725456238" lon="35.066974640">
  <ele>364.736816</ele>
  <time>2011-06-17T03:35:35Z</time>
  <speed>2.480000</speed>
</trkpt>
<trkpt lat="32.725494385" lon="35.067012787">
  <ele>366.650879</ele>
  <time>2011-06-17T03:35:37Z</time>
  <speed>2.620000</speed>
</trkpt>
<trkpt lat="32.725524902" lon="35.067043304">
  <ele>367.471191</ele>
  <time>2011-06-17T03:35:39Z</time>
  <speed>2.400000</speed>
</trkpt>
<trkpt lat="32.725532532" lon="35.067070007">
  <ele>369.627441</ele>
  <time>2011-06-17T03:35:40Z</time>
  <speed>2.520000</speed>
</trkpt>
<trkpt lat="32.725555420" lon="35.067115784">
  <ele>369.541504</ele>
  <time>2011-06-17T03:35:42Z</time>
  <speed>2.390000</speed>
</trkpt>
<trkpt lat="32.725574493" lon="35.067157745">
  <ele>369.916504</ele>
  <time>2011-06-17T03:35:44Z</time>
  <speed>2.160000</speed>
</trkpt>
<trkpt lat="32.725601196" lon="35.067192078">
  <ele>370.932129</ele>
  <time>2011-06-17T03:35:46Z</time>
  <speed>2.300000</speed>
</trkpt>
<trkpt lat="32.725627899" lon="35.067234039">
  <ele>371.455566</ele>
  <time>2011-06-17T03:35:48Z</time>
  <speed>1.960000</speed>
</trkpt>
<trkpt lat="32.725646973" lon="35.067268372">
  <ele>372.182129</ele>
  <time>2011-06-17T03:35:50Z</time>
  <speed>1.760000</speed>
</trkpt>
<trkpt lat="32.725669861" lon="35.067302704">
  <ele>372.057129</ele>
  <time>2011-06-17T03:35:52Z</time>
  <speed>2.190000</speed>
</trkpt>
<trkpt lat="32.725688934" lon="35.067340851">
  <ele>372.643066</ele>
  <time>2011-06-17T03:35:54Z</time>
  <speed>1.970000</speed>
</trkpt>
<trkpt lat="32.725708008" lon="35.067375183">
  <ele>373.908691</ele>
  <time>2011-06-17T03:35:56Z</time>
  <speed>2.040000</speed>
</trkpt>
<trkpt lat="32.725730896" lon="35.067413330">
  <ele>374.213379</ele>
  <time>2011-06-17T03:35:58Z</time>
  <speed>1.950000</speed>
</trkpt>
<trkpt lat="32.725753784" lon="35.067440033">
  <ele>374.939941</ele>
  <time>2011-06-17T03:36:00Z</time>
  <speed>1.850000</speed>
</trkpt>
<trkpt lat="32.725772858" lon="35.067474365">
  <ele>375.494629</ele>
  <time>2011-06-17T03:36:02Z</time>
  <speed>1.950000</speed>
</trkpt>
<trkpt lat="32.725788116" lon="35.067508698">
  <ele>376.229004</ele>
  <time>2011-06-17T03:36:04Z</time>
  <speed>2.020000</speed>
</trkpt>
<trkpt lat="32.725807190" lon="35.067543030">
  <ele>376.119629</ele>
  <time>2011-06-17T03:36:06Z</time>
  <speed>1.820000</speed>
</trkpt>
<trkpt lat="32.725830078" lon="35.067577362">
  <ele>376.025879</ele>
  <time>2011-06-17T03:36:08Z</time>
  <speed>1.890000</speed>
</trkpt>
<trkpt lat="32.725856781" lon="35.067600250">
  <ele>376.268066</ele>
  <time>2011-06-17T03:36:10Z</time>
  <speed>1.810000</speed>
</trkpt>
<trkpt lat="32.725883484" lon="35.067630768">
  <ele>377.041504</ele>
  <time>2011-06-17T03:36:12Z</time>
  <speed>1.850000</speed>
</trkpt>
<trkpt lat="32.725902557" lon="35.067668915">
  <ele>377.275879</ele>
  <time>2011-06-17T03:36:14Z</time>
  <speed>1.940000</speed>
</trkpt>
<trkpt lat="32.725921631" lon="35.067699432">
  <ele>377.439941</ele>
  <time>2011-06-17T03:36:16Z</time>
  <speed>1.740000</speed>
</trkpt>
<trkpt lat="32.725948334" lon="35.067726135">
  <ele>377.104004</ele>
  <time>2011-06-17T03:36:18Z</time>
  <speed>2.030000</speed>
</trkpt>
<trkpt lat="32.725963593" lon="35.067756653">
  <ele>377.213379</ele>
  <time>2011-06-17T03:36:20Z</time>
  <speed>1.780000</speed>
</trkpt>
<trkpt lat="32.725982666" lon="35.067794800">
  <ele>378.041504</ele>
  <time>2011-06-17T03:36:23Z</time>
  <speed>1.870000</speed>
</trkpt>
<trkpt lat="32.726005554" lon="35.067825317">
  <ele>378.486816</ele>
  <time>2011-06-17T03:36:25Z</time>
  <speed>1.640000</speed>
</trkpt>
<trkpt lat="32.726032257" lon="35.067852020">
  <ele>378.393066</ele>
  <time>2011-06-17T03:36:27Z</time>
  <speed>1.370000</speed>
</trkpt>
<trkpt lat="32.726047516" lon="35.067893982">
  <ele>379.314941</ele>
  <time>2011-06-17T03:36:29Z</time>
  <speed>1.800000</speed>
</trkpt>
<trkpt lat="32.726062775" lon="35.067928314">
  <ele>379.135254</ele>
  <time>2011-06-17T03:36:31Z</time>
  <speed>1.770000</speed>
</trkpt>
<trkpt lat="32.726085663" lon="35.067966461">
  <ele>380.479004</ele>
  <time>2011-06-17T03:36:34Z</time>
  <speed>1.530000</speed>
</trkpt>
<trkpt lat="32.726116180" lon="35.067985535">
  <ele>381.611816</ele>
  <time>2011-06-17T03:36:36Z</time>
  <speed>1.780000</speed>
</trkpt>
<trkpt lat="32.726146698" lon="35.068012238">
  <ele>382.174316</ele>
  <time>2011-06-17T03:36:38Z</time>
  <speed>2.230000</speed>
</trkpt>
<trkpt lat="32.726181030" lon="35.068035126">
  <ele>383.096191</ele>
  <time>2011-06-17T03:36:40Z</time>
  <speed>2.300000</speed>
</trkpt>
<trkpt lat="32.726219177" lon="35.068073273">
  <ele>383.682129</ele>
  <time>2011-06-17T03:36:42Z</time>
  <speed>2.260000</speed>
</trkpt>
<trkpt lat="32.726245880" lon="35.068099976">
  <ele>384.260254</ele>
  <time>2011-06-17T03:36:44Z</time>
  <speed>2.220000</speed>
</trkpt>
<trkpt lat="32.726272583" lon="35.068134308">
  <ele>384.244629</ele>
  <time>2011-06-17T03:36:46Z</time>
  <speed>2.080000</speed>
</trkpt>
<trkpt lat="32.726291656" lon="35.068176270">
  <ele>384.760254</ele>
  <time>2011-06-17T03:36:48Z</time>
  <speed>2.150000</speed>
</trkpt>
<trkpt lat="32.726310730" lon="35.068214417">
  <ele>385.104004</ele>
  <time>2011-06-17T03:36:50Z</time>
  <speed>2.200000</speed>
</trkpt>
<trkpt lat="32.726337433" lon="35.068248749">
  <ele>385.955566</ele>
  <time>2011-06-17T03:36:52Z</time>
  <speed>2.030000</speed>
</trkpt>
<trkpt lat="32.726356506" lon="35.068286896">
  <ele>386.861816</ele>
  <time>2011-06-17T03:36:54Z</time>
  <speed>2.130000</speed>
</trkpt>
<trkpt lat="32.726379395" lon="35.068332672">
  <ele>387.268066</ele>
  <time>2011-06-17T03:36:56Z</time>
  <speed>2.230000</speed>
</trkpt>
<trkpt lat="32.726387024" lon="35.068382263">
  <ele>388.307129</ele>
  <time>2011-06-17T03:36:58Z</time>
  <speed>2.270000</speed>
</trkpt>
<trkpt lat="32.726390839" lon="35.068424225">
  <ele>389.182129</ele>
  <time>2011-06-17T03:37:00Z</time>
  <speed>1.890000</speed>
</trkpt>
<trkpt lat="32.726390839" lon="35.068477631">
  <ele>389.650879</ele>
  <time>2011-06-17T03:37:02Z</time>
  <speed>2.410000</speed>
</trkpt>
<trkpt lat="32.726387024" lon="35.068534851">
  <ele>389.752441</ele>
  <time>2011-06-17T03:37:04Z</time>
  <speed>2.720000</speed>
</trkpt>
<trkpt lat="32.726375580" lon="35.068588257">
  <ele>390.182129</ele>
  <time>2011-06-17T03:37:06Z</time>
  <speed>2.790000</speed>
</trkpt>
<trkpt lat="32.726348877" lon="35.068641663">
  <ele>390.072754</ele>
  <time>2011-06-17T03:37:08Z</time>
  <speed>2.590000</speed>
</trkpt>
<trkpt lat="32.726337433" lon="35.068691254">
  <ele>390.369629</ele>
  <time>2011-06-17T03:37:10Z</time>
  <speed>2.350000</speed>
</trkpt>
<trkpt lat="32.726318359" lon="35.068737030">
  <ele>390.322754</ele>
  <time>2011-06-17T03:37:12Z</time>
  <speed>2.210000</speed>
</trkpt>
<trkpt lat="32.726303101" lon="35.068778992">
  <ele>390.471191</ele>
  <time>2011-06-17T03:37:14Z</time>
  <speed>2.990000</speed>
</trkpt>
<trkpt lat="32.726276398" lon="35.068824768">
  <ele>389.963379</ele>
  <time>2011-06-17T03:37:16Z</time>
  <speed>2.210000</speed>
</trkpt>
<trkpt lat="32.726261139" lon="35.068870544">
  <ele>390.549316</ele>
  <time>2011-06-17T03:37:18Z</time>
  <speed>2.220000</speed>
</trkpt>
<trkpt lat="32.726245880" lon="35.068931580">
  <ele>391.510254</ele>
  <time>2011-06-17T03:37:20Z</time>
  <speed>2.610000</speed>
</trkpt>
<trkpt lat="32.726230621" lon="35.068984985">
  <ele>392.400879</ele>
  <time>2011-06-17T03:37:22Z</time>
  <speed>2.470000</speed>
</trkpt>
<trkpt lat="32.726226807" lon="35.069034576">
  <ele>392.518066</ele>
  <time>2011-06-17T03:37:24Z</time>
  <speed>2.390000</speed>
</trkpt>
<trkpt lat="32.726226807" lon="35.069076538">
  <ele>392.604004</ele>
  <time>2011-06-17T03:37:26Z</time>
  <speed>2.070000</speed>
</trkpt>
<trkpt lat="32.726226807" lon="35.069126129">
  <ele>392.064941</ele>
  <time>2011-06-17T03:37:28Z</time>
  <speed>2.190000</speed>
</trkpt>
<trkpt lat="32.726226807" lon="35.069171906">
  <ele>391.807129</ele>
  <time>2011-06-17T03:37:30Z</time>
  <speed>2.270000</speed>
</trkpt>
<trkpt lat="32.726230621" lon="35.069221497">
  <ele>391.260254</ele>
  <time>2011-06-17T03:37:32Z</time>
  <speed>2.330000</speed>
</trkpt>
<trkpt lat="32.726257324" lon="35.069271088">
  <ele>391.072754</ele>
  <time>2011-06-17T03:37:34Z</time>
  <speed>2.270000</speed>
</trkpt>
<trkpt lat="32.726287842" lon="35.069309235">
  <ele>390.994629</ele>
  <time>2011-06-17T03:37:36Z</time>
  <speed>2.290000</speed>
</trkpt>
<trkpt lat="32.726333618" lon="35.069328308">
  <ele>391.838379</ele>
  <time>2011-06-17T03:37:38Z</time>
  <speed>2.490000</speed>
</trkpt>
<trkpt lat="32.726371765" lon="35.069328308">
  <ele>392.932129</ele>
  <time>2011-06-17T03:37:40Z</time>
  <speed>2.150000</speed>
</trkpt>
<trkpt lat="32.726413727" lon="35.069313049">
  <ele>394.221191</ele>
  <time>2011-06-17T03:37:42Z</time>
  <speed>2.300000</speed>
</trkpt>
<trkpt lat="32.726463318" lon="35.069301605">
  <ele>395.611816</ele>
  <time>2011-06-17T03:37:44Z</time>
  <speed>2.280000</speed>
</trkpt>
<trkpt lat="32.726512909" lon="35.069286346">
  <ele>398.049316</ele>
  <time>2011-06-17T03:37:46Z</time>
  <speed>2.400000</speed>
</trkpt>
<trkpt lat="32.726539612" lon="35.069278717">
  <ele>398.150879</ele>
  <time>2011-06-17T03:37:47Z</time>
  <speed>2.530000</speed>
</trkpt>
<trkpt lat="32.726581573" lon="35.069278717">
  <ele>398.838379</ele>
  <time>2011-06-17T03:37:49Z</time>
  <speed>2.570000</speed>
</trkpt>
<trkpt lat="32.726604462" lon="35.069267273">
  <ele>399.580566</ele>
  <time>2011-06-17T03:37:50Z</time>
  <speed>2.550000</speed>
</trkpt>
<trkpt lat="32.726654053" lon="35.069274902">
  <ele>399.814941</ele>
  <time>2011-06-17T03:37:52Z</time>
  <speed>2.560000</speed>
</trkpt>
<trkpt lat="32.726684570" lon="35.069274902">
  <ele>399.713379</ele>
  <time>2011-06-17T03:37:53Z</time>
  <speed>2.720000</speed>
</trkpt>
<trkpt lat="32.726734161" lon="35.069278717">
  <ele>400.736816</ele>
  <time>2011-06-17T03:37:55Z</time>
  <speed>2.670000</speed>
</trkpt>
<trkpt lat="32.726787567" lon="35.069278717">
  <ele>400.760254</ele>
  <time>2011-06-17T03:37:57Z</time>
  <speed>2.760000</speed>
</trkpt>
<trkpt lat="32.726833344" lon="35.069278717">
  <ele>400.643066</ele>
  <time>2011-06-17T03:37:59Z</time>
  <speed>2.480000</speed>
</trkpt>
<trkpt lat="32.726871490" lon="35.069278717">
  <ele>401.424316</ele>
  <time>2011-06-17T03:38:01Z</time>
  <speed>2.470000</speed>
</trkpt>
<trkpt lat="32.726917267" lon="35.069286346">
  <ele>401.877441</ele>
  <time>2011-06-17T03:38:03Z</time>
  <speed>2.390000</speed>
</trkpt>
<trkpt lat="32.726963043" lon="35.069286346">
  <ele>401.885254</ele>
  <time>2011-06-17T03:38:05Z</time>
  <speed>2.560000</speed>
</trkpt>
<trkpt lat="32.727008820" lon="35.069290161">
  <ele>402.932129</ele>
  <time>2011-06-17T03:38:07Z</time>
  <speed>2.600000</speed>
</trkpt>
<trkpt lat="32.727054596" lon="35.069297791">
  <ele>403.104004</ele>
  <time>2011-06-17T03:38:09Z</time>
  <speed>2.630000</speed>
</trkpt>
<trkpt lat="32.727108002" lon="35.069305420">
  <ele>402.893066</ele>
  <time>2011-06-17T03:38:11Z</time>
  <speed>2.770000</speed>
</trkpt>
<trkpt lat="32.727138519" lon="35.069313049">
  <ele>402.736816</ele>
  <time>2011-06-17T03:38:12Z</time>
  <speed>3.200000</speed>
</trkpt>
<trkpt lat="32.727184296" lon="35.069320679">
  <ele>402.705566</ele>
  <time>2011-06-17T03:38:14Z</time>
  <speed>2.300000</speed>
</trkpt>
<trkpt lat="32.727222443" lon="35.069328308">
  <ele>403.627441</ele>
  <time>2011-06-17T03:38:16Z</time>
  <speed>2.400000</speed>
</trkpt>
<trkpt lat="32.727256775" lon="35.069324493">
  <ele>403.322754</ele>
  <time>2011-06-17T03:38:18Z</time>
  <speed>2.250000</speed>
</trkpt>
<trkpt lat="32.727287292" lon="35.069324493">
  <ele>403.955566</ele>
  <time>2011-06-17T03:38:20Z</time>
  <speed>1.890000</speed>
</trkpt>
<trkpt lat="32.727333069" lon="35.069328308">
  <ele>403.643066</ele>
  <time>2011-06-17T03:38:22Z</time>
  <speed>2.520000</speed>
</trkpt>
<trkpt lat="32.727378845" lon="35.069320679">
  <ele>404.525879</ele>
  <time>2011-06-17T03:38:24Z</time>
  <speed>2.350000</speed>
</trkpt>
<trkpt lat="32.727420807" lon="35.069324493">
  <ele>403.885254</ele>
  <time>2011-06-17T03:38:26Z</time>
  <speed>2.150000</speed>
</trkpt>
<trkpt lat="32.727462769" lon="35.069335938">
  <ele>404.557129</ele>
  <time>2011-06-17T03:38:28Z</time>
  <speed>2.360000</speed>
</trkpt>
<trkpt lat="32.727497101" lon="35.069347382">
  <ele>405.377441</ele>
  <time>2011-06-17T03:38:30Z</time>
  <speed>2.080000</speed>
</trkpt>
<trkpt lat="32.727539063" lon="35.069358826">
  <ele>405.650879</ele>
  <time>2011-06-17T03:38:32Z</time>
  <speed>1.830000</speed>
</trkpt>
<trkpt lat="32.727569580" lon="35.069370270">
  <ele>406.197754</ele>
  <time>2011-06-17T03:38:34Z</time>
  <speed>1.740000</speed>
</trkpt>
<trkpt lat="32.727600098" lon="35.069389343">
  <ele>405.830566</ele>
  <time>2011-06-17T03:38:36Z</time>
  <speed>1.850000</speed>
</trkpt>
<trkpt lat="32.727626801" lon="35.069408417">
  <ele>405.432129</ele>
  <time>2011-06-17T03:38:38Z</time>
  <speed>1.940000</speed>
</trkpt>
<trkpt lat="32.727661133" lon="35.069431305">
  <ele>405.025879</ele>
  <time>2011-06-17T03:38:40Z</time>
  <speed>1.810000</speed>
</trkpt>
<trkpt lat="32.727699280" lon="35.069454193">
  <ele>405.158691</ele>
  <time>2011-06-17T03:38:42Z</time>
  <speed>2.090000</speed>
</trkpt>
<trkpt lat="32.727733612" lon="35.069473267">
  <ele>405.377441</ele>
  <time>2011-06-17T03:38:44Z</time>
  <speed>1.930000</speed>
</trkpt>
<trkpt lat="32.727767944" lon="35.069477081">
  <ele>405.314941</ele>
  <time>2011-06-17T03:38:46Z</time>
  <speed>2.180000</speed>
</trkpt>
<trkpt lat="32.727809906" lon="35.069496155">
  <ele>405.846191</ele>
  <time>2011-06-17T03:38:48Z</time>
  <speed>2.000000</speed>
</trkpt>
<trkpt lat="32.727844238" lon="35.069522858">
  <ele>405.986816</ele>
  <time>2011-06-17T03:38:50Z</time>
  <speed>2.220000</speed>
</trkpt>
<trkpt lat="32.727867126" lon="35.069557190">
  <ele>405.877441</ele>
  <time>2011-06-17T03:38:52Z</time>
  <speed>2.160000</speed>
</trkpt>
<trkpt lat="32.727886200" lon="35.069591522">
  <ele>405.877441</ele>
  <time>2011-06-17T03:38:54Z</time>
  <speed>2.120000</speed>
</trkpt>
<trkpt lat="32.727909088" lon="35.069633484">
  <ele>405.760254</ele>
  <time>2011-06-17T03:38:56Z</time>
  <speed>1.800000</speed>
</trkpt>
<trkpt lat="32.727924347" lon="35.069667816">
  <ele>405.619629</ele>
  <time>2011-06-17T03:38:58Z</time>
  <speed>2.000000</speed>
</trkpt>
<trkpt lat="32.727943420" lon="35.069698334">
  <ele>405.400879</ele>
  <time>2011-06-17T03:39:00Z</time>
  <speed>2.030000</speed>
</trkpt>
<trkpt lat="32.727970123" lon="35.069732666">
  <ele>405.658691</ele>
  <time>2011-06-17T03:39:02Z</time>
  <speed>2.230000</speed>
</trkpt>
<trkpt lat="32.727993011" lon="35.069774628">
  <ele>406.416504</ele>
  <time>2011-06-17T03:39:04Z</time>
  <speed>2.250000</speed>
</trkpt>
<trkpt lat="32.728008270" lon="35.069820404">
  <ele>406.525879</ele>
  <time>2011-06-17T03:39:06Z</time>
  <speed>2.140000</speed>
</trkpt>
<trkpt lat="32.728023529" lon="35.069866180">
  <ele>407.541504</ele>
  <time>2011-06-17T03:39:08Z</time>
  <speed>2.200000</speed>
</trkpt>
<trkpt lat="32.728046417" lon="35.069908142">
  <ele>408.080566</ele>
  <time>2011-06-17T03:39:10Z</time>
  <speed>2.210000</speed>
</trkpt>
<trkpt lat="32.728065491" lon="35.069946289">
  <ele>408.822754</ele>
  <time>2011-06-17T03:39:12Z</time>
  <speed>2.120000</speed>
</trkpt>
<trkpt lat="32.728084564" lon="35.069984436">
  <ele>408.057129</ele>
  <time>2011-06-17T03:39:14Z</time>
  <speed>2.000000</speed>
</trkpt>
<trkpt lat="32.728099823" lon="35.070022583">
  <ele>407.994629</ele>
  <time>2011-06-17T03:39:16Z</time>
  <speed>2.050000</speed>
</trkpt>
<trkpt lat="32.728118896" lon="35.070068359">
  <ele>408.947754</ele>
  <time>2011-06-17T03:39:18Z</time>
  <speed>2.190000</speed>
</trkpt>
<trkpt lat="32.728137970" lon="35.070110321">
  <ele>408.830566</ele>
  <time>2011-06-17T03:39:20Z</time>
  <speed>2.050000</speed>
</trkpt>
<trkpt lat="32.728153229" lon="35.070148468">
  <ele>409.416504</ele>
  <time>2011-06-17T03:39:22Z</time>
  <speed>2.130000</speed>
</trkpt>
<trkpt lat="32.728176117" lon="35.070198059">
  <ele>409.057129</ele>
  <time>2011-06-17T03:39:24Z</time>
  <speed>2.390000</speed>
</trkpt>
<trkpt lat="32.728183746" lon="35.070243835">
  <ele>410.166504</ele>
  <time>2011-06-17T03:39:26Z</time>
  <speed>1.940000</speed>
</trkpt>
<trkpt lat="32.728199005" lon="35.070281982">
  <ele>409.088379</ele>
  <time>2011-06-17T03:39:28Z</time>
  <speed>2.160000</speed>
</trkpt>
<trkpt lat="32.728218079" lon="35.070320129">
  <ele>409.197754</ele>
  <time>2011-06-17T03:39:30Z</time>
  <speed>2.260000</speed>
</trkpt>
<trkpt lat="32.728237152" lon="35.070362091">
  <ele>409.088379</ele>
  <time>2011-06-17T03:39:32Z</time>
  <speed>2.350000</speed>
</trkpt>
<trkpt lat="32.728263855" lon="35.070400238">
  <ele>410.018066</ele>
  <time>2011-06-17T03:39:34Z</time>
  <speed>2.290000</speed>
</trkpt>
<trkpt lat="32.728275299" lon="35.070438385">
  <ele>411.150879</ele>
  <time>2011-06-17T03:39:36Z</time>
  <speed>2.090000</speed>
</trkpt>
<trkpt lat="32.728290558" lon="35.070480347">
  <ele>410.799316</ele>
  <time>2011-06-17T03:39:38Z</time>
  <speed>2.060000</speed>
</trkpt>
<trkpt lat="32.728305817" lon="35.070514679">
  <ele>412.104004</ele>
  <time>2011-06-17T03:39:40Z</time>
  <speed>2.040000</speed>
</trkpt>
<trkpt lat="32.728332520" lon="35.070560455">
  <ele>412.299316</ele>
  <time>2011-06-17T03:39:42Z</time>
  <speed>2.360000</speed>
</trkpt>
<trkpt lat="32.728347778" lon="35.070598602">
  <ele>412.760254</ele>
  <time>2011-06-17T03:39:44Z</time>
  <speed>1.940000</speed>
</trkpt>
<trkpt lat="32.728374481" lon="35.070636749">
  <ele>412.650879</ele>
  <time>2011-06-17T03:39:46Z</time>
  <speed>2.140000</speed>
</trkpt>
<trkpt lat="32.728408813" lon="35.070655823">
  <ele>412.900879</ele>
  <time>2011-06-17T03:39:48Z</time>
  <speed>2.170000</speed>
</trkpt>
<trkpt lat="32.728439331" lon="35.070682526">
  <ele>413.268066</ele>
  <time>2011-06-17T03:39:50Z</time>
  <speed>1.920000</speed>
</trkpt>
<trkpt lat="32.728466034" lon="35.070720673">
  <ele>413.330566</ele>
  <time>2011-06-17T03:39:52Z</time>
  <speed>1.940000</speed>
</trkpt>
<trkpt lat="32.728492737" lon="35.070755005">
  <ele>413.861816</ele>
  <time>2011-06-17T03:39:54Z</time>
  <speed>2.080000</speed>
</trkpt>
<trkpt lat="32.728507996" lon="35.070796967">
  <ele>414.424316</ele>
  <time>2011-06-17T03:39:56Z</time>
  <speed>1.920000</speed>
</trkpt>
<trkpt lat="32.728515625" lon="35.070831299">
  <ele>414.869629</ele>
  <time>2011-06-17T03:39:58Z</time>
  <speed>1.850000</speed>
</trkpt>
<trkpt lat="32.728534698" lon="35.070869446">
  <ele>414.979004</ele>
  <time>2011-06-17T03:40:00Z</time>
  <speed>2.110000</speed>
</trkpt>
<trkpt lat="32.728553772" lon="35.070903778">
  <ele>414.627441</ele>
  <time>2011-06-17T03:40:02Z</time>
  <speed>2.090000</speed>
</trkpt>
<trkpt lat="32.728576660" lon="35.070934296">
  <ele>415.549316</ele>
  <time>2011-06-17T03:40:04Z</time>
  <speed>1.750000</speed>
</trkpt>
<trkpt lat="32.728591919" lon="35.070964813">
  <ele>415.455566</ele>
  <time>2011-06-17T03:40:06Z</time>
  <speed>1.710000</speed>
</trkpt>
<trkpt lat="32.728614807" lon="35.070995331">
  <ele>416.611816</ele>
  <time>2011-06-17T03:40:08Z</time>
  <speed>2.000000</speed>
</trkpt>
<trkpt lat="32.728626251" lon="35.071029663">
  <ele>416.877441</ele>
  <time>2011-06-17T03:40:10Z</time>
  <speed>1.860000</speed>
</trkpt>
<trkpt lat="32.728618622" lon="35.071067810">
  <ele>416.096191</ele>
  <time>2011-06-17T03:40:12Z</time>
  <speed>1.970000</speed>
</trkpt>
<trkpt lat="32.728622437" lon="35.071109772">
  <ele>416.385254</ele>
  <time>2011-06-17T03:40:14Z</time>
  <speed>1.800000</speed>
</trkpt>
<trkpt lat="32.728633881" lon="35.071147919">
  <ele>416.189941</ele>
  <time>2011-06-17T03:40:16Z</time>
  <speed>1.820000</speed>
</trkpt>
<trkpt lat="32.728649139" lon="35.071189880">
  <ele>416.361816</ele>
  <time>2011-06-17T03:40:18Z</time>
  <speed>2.080000</speed>
</trkpt>
<trkpt lat="32.728649139" lon="35.071239471">
  <ele>416.072754</ele>
  <time>2011-06-17T03:40:20Z</time>
  <speed>2.040000</speed>
</trkpt>
<trkpt lat="32.728660583" lon="35.071289063">
  <ele>416.346191</ele>
  <time>2011-06-17T03:40:22Z</time>
  <speed>2.120000</speed>
</trkpt>
<trkpt lat="32.728672028" lon="35.071327209">
  <ele>416.025879</ele>
  <time>2011-06-17T03:40:24Z</time>
  <speed>2.010000</speed>
</trkpt>
<trkpt lat="32.728683472" lon="35.071369171">
  <ele>415.947754</ele>
  <time>2011-06-17T03:40:26Z</time>
  <speed>2.010000</speed>
</trkpt>
<trkpt lat="32.728702545" lon="35.071407318">
  <ele>416.158691</ele>
  <time>2011-06-17T03:40:28Z</time>
  <speed>1.940000</speed>
</trkpt>
<trkpt lat="32.728717804" lon="35.071445465">
  <ele>416.439941</ele>
  <time>2011-06-17T03:40:30Z</time>
  <speed>1.810000</speed>
</trkpt>
<trkpt lat="32.728729248" lon="35.071483612">
  <ele>417.119629</ele>
  <time>2011-06-17T03:40:32Z</time>
  <speed>2.030000</speed>
</trkpt>
<trkpt lat="32.728740692" lon="35.071533203">
  <ele>418.080566</ele>
  <time>2011-06-17T03:40:34Z</time>
  <speed>1.950000</speed>
</trkpt>
<trkpt lat="32.728740692" lon="35.071586609">
  <ele>418.260254</ele>
  <time>2011-06-17T03:40:36Z</time>
  <speed>1.940000</speed>
</trkpt>
<trkpt lat="32.728733063" lon="35.071628571">
  <ele>418.596191</ele>
  <time>2011-06-17T03:40:38Z</time>
  <speed>2.320000</speed>
</trkpt>
<trkpt lat="32.728717804" lon="35.071670532">
  <ele>418.275879</ele>
  <time>2011-06-17T03:40:40Z</time>
  <speed>2.090000</speed>
</trkpt>
<trkpt lat="32.728687286" lon="35.071685791">
  <ele>417.908691</ele>
  <time>2011-06-17T03:40:41Z</time>
  <speed>2.100000</speed>
</trkpt>
<trkpt lat="32.728664398" lon="35.071708679">
  <ele>417.775879</ele>
  <time>2011-06-17T03:40:43Z</time>
  <speed>2.010000</speed>
</trkpt>
<trkpt lat="32.728626251" lon="35.071743011">
  <ele>417.650879</ele>
  <time>2011-06-17T03:40:45Z</time>
  <speed>1.940000</speed>
</trkpt>
<trkpt lat="32.728603363" lon="35.071750641">
  <ele>417.244629</ele>
  <time>2011-06-17T03:40:46Z</time>
  <speed>2.040000</speed>
</trkpt>
<trkpt lat="32.728565216" lon="35.071762085">
  <ele>417.486816</ele>
  <time>2011-06-17T03:40:48Z</time>
  <speed>2.240000</speed>
</trkpt>
<trkpt lat="32.728530884" lon="35.071762085">
  <ele>417.330566</ele>
  <time>2011-06-17T03:40:50Z</time>
  <speed>2.190000</speed>
</trkpt>
<trkpt lat="32.728492737" lon="35.071758270">
  <ele>417.268066</ele>
  <time>2011-06-17T03:40:52Z</time>
  <speed>2.210000</speed>
</trkpt>
<trkpt lat="32.728466034" lon="35.071743011">
  <ele>417.018066</ele>
  <time>2011-06-17T03:40:54Z</time>
  <speed>2.140000</speed>
</trkpt>
<trkpt lat="32.728427887" lon="35.071727753">
  <ele>416.400879</ele>
  <time>2011-06-17T03:40:57Z</time>
  <speed>1.290000</speed>
</trkpt>
<trkpt lat="32.728397369" lon="35.071731567">
  <ele>415.689941</ele>
  <time>2011-06-17T03:41:02Z</time>
  <speed>1.630000</speed>
</trkpt>
<trkpt lat="32.728378296" lon="35.071693420">
  <ele>414.994629</ele>
  <time>2011-06-17T03:41:04Z</time>
  <speed>2.100000</speed>
</trkpt>
<trkpt lat="32.728378296" lon="35.071662903">
  <ele>414.986816</ele>
  <time>2011-06-17T03:41:05Z</time>
  <speed>1.920000</speed>
</trkpt>
<trkpt lat="32.728363037" lon="35.071628571">
  <ele>415.025879</ele>
  <time>2011-06-17T03:41:07Z</time>
  <speed>2.070000</speed>
</trkpt>
<trkpt lat="32.728324890" lon="35.071594238">
  <ele>413.807129</ele>
  <time>2011-06-17T03:41:09Z</time>
  <speed>2.120000</speed>
</trkpt>
<trkpt lat="32.728294373" lon="35.071575165">
  <ele>415.057129</ele>
  <time>2011-06-17T03:41:11Z</time>
  <speed>1.900000</speed>
</trkpt>
<trkpt lat="32.728290558" lon="35.071540833">
  <ele>416.986816</ele>
  <time>2011-06-17T03:41:13Z</time>
  <speed>1.830000</speed>
</trkpt>
<trkpt lat="32.728271484" lon="35.071506500">
  <ele>418.510254</ele>
  <time>2011-06-17T03:41:15Z</time>
  <speed>2.000000</speed>
</trkpt>
<trkpt lat="32.728240967" lon="35.071472168">
  <ele>420.080566</ele>
  <time>2011-06-17T03:41:17Z</time>
  <speed>2.040000</speed>
</trkpt>
<trkpt lat="32.728210449" lon="35.071437836">
  <ele>420.354004</ele>
  <time>2011-06-17T03:41:19Z</time>
  <speed>2.250000</speed>
</trkpt>
<trkpt lat="32.728187561" lon="35.071403503">
  <ele>420.635254</ele>
  <time>2011-06-17T03:41:21Z</time>
  <speed>2.060000</speed>
</trkpt>
<trkpt lat="32.728164673" lon="35.071365356">
  <ele>421.775879</ele>
  <time>2011-06-17T03:41:23Z</time>
  <speed>2.110000</speed>
</trkpt>
<trkpt lat="32.728145599" lon="35.071331024">
  <ele>422.963379</ele>
  <time>2011-06-17T03:41:25Z</time>
  <speed>2.050000</speed>
</trkpt>
<trkpt lat="32.728126526" lon="35.071300507">
  <ele>424.580566</ele>
  <time>2011-06-17T03:41:27Z</time>
  <speed>1.420000</speed>
</trkpt>
<trkpt lat="32.728122711" lon="35.071262360">
  <ele>425.893066</ele>
  <time>2011-06-17T03:41:29Z</time>
  <speed>1.700000</speed>
</trkpt>
<trkpt lat="32.728103638" lon="35.071228027">
  <ele>427.424316</ele>
  <time>2011-06-17T03:41:31Z</time>
  <speed>2.050000</speed>
</trkpt>
<trkpt lat="32.728076935" lon="35.071197510">
  <ele>427.893066</ele>
  <time>2011-06-17T03:41:33Z</time>
  <speed>1.780000</speed>
</trkpt>
<trkpt lat="32.728061676" lon="35.071159363">
  <ele>427.924316</ele>
  <time>2011-06-17T03:41:35Z</time>
  <speed>1.810000</speed>
</trkpt>
<trkpt lat="32.728042603" lon="35.071121216">
  <ele>428.221191</ele>
  <time>2011-06-17T03:41:37Z</time>
  <speed>1.790000</speed>
</trkpt>
<trkpt lat="32.728019714" lon="35.071086884">
  <ele>428.479004</ele>
  <time>2011-06-17T03:41:39Z</time>
  <speed>1.680000</speed>
</trkpt>
<trkpt lat="32.727996826" lon="35.071052551">
  <ele>429.291504</ele>
  <time>2011-06-17T03:41:41Z</time>
  <speed>1.870000</speed>
</trkpt>
<trkpt lat="32.727977753" lon="35.071018219">
  <ele>429.705566</ele>
  <time>2011-06-17T03:41:43Z</time>
  <speed>2.020000</speed>
</trkpt>
<trkpt lat="32.727951050" lon="35.070980072">
  <ele>429.900879</ele>
  <time>2011-06-17T03:41:46Z</time>
  <speed>1.630000</speed>
</trkpt>
<trkpt lat="32.727931976" lon="35.070957184">
  <ele>430.463379</ele>
  <time>2011-06-17T03:41:48Z</time>
  <speed>1.590000</speed>
</trkpt>
<trkpt lat="32.727893829" lon="35.070945740">
  <ele>431.158691</ele>
  <time>2011-06-17T03:41:51Z</time>
  <speed>1.870000</speed>
</trkpt>
<trkpt lat="32.727855682" lon="35.070930481">
  <ele>431.674316</ele>
  <time>2011-06-17T03:41:53Z</time>
  <speed>1.540000</speed>
</trkpt>
<trkpt lat="32.727817535" lon="35.070922852">
  <ele>431.877441</ele>
  <time>2011-06-17T03:41:55Z</time>
  <speed>1.760000</speed>
</trkpt>
<trkpt lat="32.727771759" lon="35.070922852">
  <ele>431.979004</ele>
  <time>2011-06-17T03:41:57Z</time>
  <speed>1.820000</speed>
</trkpt>
<trkpt lat="32.727737427" lon="35.070903778">
  <ele>431.564941</ele>
  <time>2011-06-17T03:41:59Z</time>
  <speed>1.790000</speed>
</trkpt>
<trkpt lat="32.727706909" lon="35.070896149">
  <ele>431.666504</ele>
  <time>2011-06-17T03:42:01Z</time>
  <speed>1.670000</speed>
</trkpt>
<trkpt lat="32.727668762" lon="35.070873260">
  <ele>431.455566</ele>
  <time>2011-06-17T03:42:04Z</time>
  <speed>1.940000</speed>
</trkpt>
<trkpt lat="32.727642059" lon="35.070854187">
  <ele>431.221191</ele>
  <time>2011-06-17T03:42:06Z</time>
  <speed>1.620000</speed>
</trkpt>
<trkpt lat="32.727607727" lon="35.070842743">
  <ele>431.080566</ele>
  <time>2011-06-17T03:42:08Z</time>
  <speed>1.920000</speed>
</trkpt>
<trkpt lat="32.727561951" lon="35.070838928">
  <ele>431.119629</ele>
  <time>2011-06-17T03:42:10Z</time>
  <speed>1.640000</speed>
</trkpt>
<trkpt lat="32.727523804" lon="35.070838928">
  <ele>431.408691</ele>
  <time>2011-06-17T03:42:12Z</time>
  <speed>1.590000</speed>
</trkpt>
<trkpt lat="32.727485657" lon="35.070850372">
  <ele>431.611816</ele>
  <time>2011-06-17T03:42:14Z</time>
  <speed>1.350000</speed>
</trkpt>
<trkpt lat="32.727455139" lon="35.070850372">
  <ele>431.971191</ele>
  <time>2011-06-17T03:42:16Z</time>
  <speed>1.800000</speed>
</trkpt>
<trkpt lat="32.727424622" lon="35.070835114">
  <ele>432.424316</ele>
  <time>2011-06-17T03:42:18Z</time>
  <speed>1.960000</speed>
</trkpt>
<trkpt lat="32.727394104" lon="35.070827484">
  <ele>432.150879</ele>
  <time>2011-06-17T03:42:20Z</time>
  <speed>1.880000</speed>
</trkpt>
<trkpt lat="32.727367401" lon="35.070838928">
  <ele>432.838379</ele>
  <time>2011-06-17T03:42:21Z</time>
  <speed>1.590000</speed>
</trkpt>
<trkpt lat="32.727340698" lon="35.070854187">
  <ele>433.057129</ele>
  <time>2011-06-17T03:42:22Z</time>
  <speed>1.940000</speed>
</trkpt>
<trkpt lat="32.727306366" lon="35.070873260">
  <ele>432.572754</ele>
  <time>2011-06-17T03:42:24Z</time>
  <speed>1.880000</speed>
</trkpt>
<trkpt lat="32.727275848" lon="35.070880890">
  <ele>432.439941</ele>
  <time>2011-06-17T03:42:25Z</time>
  <speed>1.660000</speed>
</trkpt>
<trkpt lat="32.727237701" lon="35.070899963">
  <ele>432.377441</ele>
  <time>2011-06-17T03:42:27Z</time>
  <speed>2.270000</speed>
</trkpt>
<trkpt lat="32.727203369" lon="35.070915222">
  <ele>431.994629</ele>
  <time>2011-06-17T03:42:29Z</time>
  <speed>1.770000</speed>
</trkpt>
<trkpt lat="32.727157593" lon="35.070930481">
  <ele>431.205566</ele>
  <time>2011-06-17T03:42:31Z</time>
  <speed>1.630000</speed>
</trkpt>
<trkpt lat="32.727123260" lon="35.070938110">
  <ele>431.838379</ele>
  <time>2011-06-17T03:42:33Z</time>
  <speed>1.500000</speed>
</trkpt>
<trkpt lat="32.727092743" lon="35.070945740">
  <ele>431.971191</ele>
  <time>2011-06-17T03:42:35Z</time>
  <speed>1.650000</speed>
</trkpt>
<trkpt lat="32.727054596" lon="35.070957184">
  <ele>431.768066</ele>
  <time>2011-06-17T03:42:37Z</time>
  <speed>1.780000</speed>
</trkpt>
<trkpt lat="32.727020264" lon="35.070968628">
  <ele>431.299316</ele>
  <time>2011-06-17T03:42:39Z</time>
  <speed>1.860000</speed>
</trkpt>
<trkpt lat="32.726997375" lon="35.070987701">
  <ele>431.635254</ele>
  <time>2011-06-17T03:42:40Z</time>
  <speed>2.040000</speed>
</trkpt>
<trkpt lat="32.726970673" lon="35.071018219">
  <ele>430.541504</ele>
  <time>2011-06-17T03:42:42Z</time>
  <speed>1.580000</speed>
</trkpt>
<trkpt lat="32.726940155" lon="35.071022034">
  <ele>431.041504</ele>
  <time>2011-06-17T03:42:45Z</time>
  <speed>1.770000</speed>
</trkpt>
<trkpt lat="32.726902008" lon="35.071025848">
  <ele>431.229004</ele>
  <time>2011-06-17T03:42:47Z</time>
  <speed>1.850000</speed>
</trkpt>
<trkpt lat="32.726867676" lon="35.071025848">
  <ele>432.025879</ele>
  <time>2011-06-17T03:42:49Z</time>
  <speed>1.640000</speed>
</trkpt>
<trkpt lat="32.726818085" lon="35.071052551">
  <ele>432.783691</ele>
  <time>2011-06-17T03:42:51Z</time>
  <speed>1.650000</speed>
</trkpt>
<trkpt lat="32.726787567" lon="35.071060181">
  <ele>433.072754</ele>
  <time>2011-06-17T03:42:53Z</time>
  <speed>1.970000</speed>
</trkpt>
<trkpt lat="32.726749420" lon="35.071079254">
  <ele>433.314941</ele>
  <time>2011-06-17T03:42:55Z</time>
  <speed>1.980000</speed>
</trkpt>
<trkpt lat="32.726726532" lon="35.071090698">
  <ele>433.299316</ele>
  <time>2011-06-17T03:42:57Z</time>
  <speed>1.070000</speed>
</trkpt>
<trkpt lat="32.726696014" lon="35.071117401">
  <ele>433.713379</ele>
  <time>2011-06-17T03:43:00Z</time>
  <speed>1.480000</speed>
</trkpt>
<trkpt lat="32.726665497" lon="35.071144104">
  <ele>433.924316</ele>
  <time>2011-06-17T03:43:02Z</time>
  <speed>1.450000</speed>
</trkpt>
<trkpt lat="32.726631165" lon="35.071174622">
  <ele>433.713379</ele>
  <time>2011-06-17T03:43:04Z</time>
  <speed>1.820000</speed>
</trkpt>
<trkpt lat="32.726604462" lon="35.071201324">
  <ele>433.346191</ele>
  <time>2011-06-17T03:43:06Z</time>
  <speed>1.970000</speed>
</trkpt>
<trkpt lat="32.726573944" lon="35.071231842">
  <ele>433.947754</ele>
  <time>2011-06-17T03:43:09Z</time>
  <speed>1.630000</speed>
</trkpt>
<trkpt lat="32.726551056" lon="35.071262360">
  <ele>433.314941</ele>
  <time>2011-06-17T03:43:11Z</time>
  <speed>1.290000</speed>
</trkpt>
<trkpt lat="32.726520538" lon="35.071285248">
  <ele>432.854004</ele>
  <time>2011-06-17T03:43:13Z</time>
  <speed>1.450000</speed>
</trkpt>
<trkpt lat="32.726482391" lon="35.071319580">
  <ele>431.729004</ele>
  <time>2011-06-17T03:43:15Z</time>
  <speed>1.870000</speed>
</trkpt>
<trkpt lat="32.726451874" lon="35.071353912">
  <ele>433.166504</ele>
  <time>2011-06-17T03:43:16Z</time>
  <speed>2.030000</speed>
</trkpt>
<trkpt lat="32.726417542" lon="35.071380615">
  <ele>433.682129</ele>
  <time>2011-06-17T03:43:18Z</time>
  <speed>2.100000</speed>
</trkpt>
<trkpt lat="32.726398468" lon="35.071414948">
  <ele>434.479004</ele>
  <time>2011-06-17T03:43:21Z</time>
  <speed>1.980000</speed>
</trkpt>
<trkpt lat="32.726367950" lon="35.071441650">
  <ele>435.283691</ele>
  <time>2011-06-17T03:43:23Z</time>
  <speed>1.670000</speed>
</trkpt>
<trkpt lat="32.726345062" lon="35.071464539">
  <ele>435.432129</ele>
  <time>2011-06-17T03:43:25Z</time>
  <speed>1.570000</speed>
</trkpt>
<trkpt lat="32.726314545" lon="35.071491241">
  <ele>435.439941</ele>
  <time>2011-06-17T03:43:27Z</time>
  <speed>1.640000</speed>
</trkpt>
<trkpt lat="32.726284027" lon="35.071506500">
  <ele>435.416504</ele>
  <time>2011-06-17T03:43:29Z</time>
  <speed>1.830000</speed>
</trkpt>
<trkpt lat="32.726253510" lon="35.071510315">
  <ele>436.033691</ele>
  <time>2011-06-17T03:43:31Z</time>
  <speed>1.620000</speed>
</trkpt>
<trkpt lat="32.726226807" lon="35.071552277">
  <ele>435.916504</ele>
  <time>2011-06-17T03:43:34Z</time>
  <speed>1.730000</speed>
</trkpt>
<trkpt lat="32.726207733" lon="35.071590424">
  <ele>436.135254</ele>
  <time>2011-06-17T03:43:37Z</time>
  <speed>1.310000</speed>
</trkpt>
<trkpt lat="32.726188660" lon="35.071628571">
  <ele>436.408691</ele>
  <time>2011-06-17T03:43:40Z</time>
  <speed>1.110000</speed>
</trkpt>
<trkpt lat="32.726177216" lon="35.071666718">
  <ele>436.064941</ele>
  <time>2011-06-17T03:43:43Z</time>
  <speed>1.510000</speed>
</trkpt>
<trkpt lat="32.726181030" lon="35.071701050">
  <ele>435.689941</ele>
  <time>2011-06-17T03:43:45Z</time>
  <speed>1.150000</speed>
</trkpt>
<trkpt lat="32.726165771" lon="35.071777344">
  <ele>436.705566</ele>
  <time>2011-06-17T03:43:47Z</time>
  <speed>1.690000</speed>
</trkpt>
<trkpt lat="32.726146698" lon="35.071819305">
  <ele>437.822754</ele>
  <time>2011-06-17T03:43:48Z</time>
  <speed>1.760000</speed>
</trkpt>
<trkpt lat="32.726131439" lon="35.071849823">
  <ele>438.744629</ele>
  <time>2011-06-17T03:43:49Z</time>
  <speed>2.090000</speed>
</trkpt>
<trkpt lat="32.726119995" lon="35.071876526">
  <ele>439.213379</ele>
  <time>2011-06-17T03:43:50Z</time>
  <speed>2.210000</speed>
</trkpt>
<trkpt lat="32.726112366" lon="35.071910858">
  <ele>440.049316</ele>
  <time>2011-06-17T03:43:52Z</time>
  <speed>1.600000</speed>
</trkpt>
<trkpt lat="32.726100922" lon="35.071949005">
  <ele>439.838379</ele>
  <time>2011-06-17T03:43:54Z</time>
  <speed>2.140000</speed>
</trkpt>
<trkpt lat="32.726112366" lon="35.071987152">
  <ele>440.643066</ele>
  <time>2011-06-17T03:43:56Z</time>
  <speed>1.420000</speed>
</trkpt>
<trkpt lat="32.726089478" lon="35.072021484">
  <ele>440.861816</ele>
  <time>2011-06-17T03:43:58Z</time>
  <speed>1.610000</speed>
</trkpt>
<trkpt lat="32.726078033" lon="35.072063446">
  <ele>441.752441</ele>
  <time>2011-06-17T03:44:01Z</time>
  <speed>1.420000</speed>
</trkpt>
<trkpt lat="32.726066589" lon="35.072093964">
  <ele>442.338379</ele>
  <time>2011-06-17T03:44:03Z</time>
  <speed>2.160000</speed>
</trkpt>
<trkpt lat="32.726058960" lon="35.072132111">
  <ele>443.111816</ele>
  <time>2011-06-17T03:44:05Z</time>
  <speed>1.870000</speed>
</trkpt>
<trkpt lat="32.726043701" lon="35.072166443">
  <ele>443.041504</ele>
  <time>2011-06-17T03:44:07Z</time>
  <speed>1.830000</speed>
</trkpt>
<trkpt lat="32.726028442" lon="35.072193146">
  <ele>441.814941</ele>
  <time>2011-06-17T03:44:09Z</time>
  <speed>0.690000</speed>
</trkpt>
<trkpt lat="32.726013184" lon="35.072223663">
  <ele>440.814941</ele>
  <time>2011-06-17T03:44:12Z</time>
  <speed>0.920000</speed>
</trkpt>
<trkpt lat="32.726009369" lon="35.072261810">
  <ele>440.486816</ele>
  <time>2011-06-17T03:44:15Z</time>
  <speed>0.980000</speed>
</trkpt>
<trkpt lat="32.725997925" lon="35.072303772">
  <ele>439.682129</ele>
  <time>2011-06-17T03:44:17Z</time>
  <speed>1.100000</speed>
</trkpt>
<trkpt lat="32.725971222" lon="35.072334290">
  <ele>439.549316</ele>
  <time>2011-06-17T03:44:18Z</time>
  <speed>1.680000</speed>
</trkpt>
<trkpt lat="32.725948334" lon="35.072345734">
  <ele>440.322754</ele>
  <time>2011-06-17T03:44:19Z</time>
  <speed>1.790000</speed>
</trkpt>
<trkpt lat="32.725925446" lon="35.072372437">
  <ele>439.994629</ele>
  <time>2011-06-17T03:44:21Z</time>
  <speed>1.480000</speed>
</trkpt>
<trkpt lat="32.725906372" lon="35.072402954">
  <ele>440.393066</ele>
  <time>2011-06-17T03:44:22Z</time>
  <speed>1.540000</speed>
</trkpt>
<trkpt lat="32.725883484" lon="35.072425842">
  <ele>439.877441</ele>
  <time>2011-06-17T03:44:24Z</time>
  <speed>0.940000</speed>
</trkpt>
<trkpt lat="32.725860596" lon="35.072463989">
  <ele>440.002441</ele>
  <time>2011-06-17T03:44:27Z</time>
  <speed>1.180000</speed>
</trkpt>
<trkpt lat="32.725845337" lon="35.072490692">
  <ele>439.588379</ele>
  <time>2011-06-17T03:44:29Z</time>
  <speed>1.280000</speed>
</trkpt>
<trkpt lat="32.725822449" lon="35.072513580">
  <ele>438.963379</ele>
  <time>2011-06-17T03:44:31Z</time>
  <speed>1.630000</speed>
</trkpt>
<trkpt lat="32.725795746" lon="35.072544098">
  <ele>438.510254</ele>
  <time>2011-06-17T03:44:33Z</time>
  <speed>1.940000</speed>
</trkpt>
<trkpt lat="32.725738525" lon="35.072593689">
  <ele>439.432129</ele>
  <time>2011-06-17T03:44:35Z</time>
  <speed>1.980000</speed>
</trkpt>
<trkpt lat="32.725719452" lon="35.072620392">
  <ele>439.205566</ele>
  <time>2011-06-17T03:44:37Z</time>
  <speed>1.620000</speed>
</trkpt>
<trkpt lat="32.725696564" lon="35.072658539">
  <ele>439.447754</ele>
  <time>2011-06-17T03:44:39Z</time>
  <speed>1.720000</speed>
</trkpt>
<trkpt lat="32.725677490" lon="35.072689056">
  <ele>439.268066</ele>
  <time>2011-06-17T03:44:41Z</time>
  <speed>1.470000</speed>
</trkpt>
<trkpt lat="32.725654602" lon="35.072719574">
  <ele>439.400879</ele>
  <time>2011-06-17T03:44:45Z</time>
  <speed>0.940000</speed>
</trkpt>
<trkpt lat="32.725631714" lon="35.072750092">
  <ele>438.869629</ele>
  <time>2011-06-17T03:44:47Z</time>
  <speed>1.440000</speed>
</trkpt>
<trkpt lat="32.725616455" lon="35.072784424">
  <ele>438.643066</ele>
  <time>2011-06-17T03:44:49Z</time>
  <speed>1.350000</speed>
</trkpt>
<trkpt lat="32.725589752" lon="35.072826385">
  <ele>438.400879</ele>
  <time>2011-06-17T03:44:52Z</time>
  <speed>2.230000</speed>
</trkpt>
<trkpt lat="32.725574493" lon="35.072864532">
  <ele>437.939941</ele>
  <time>2011-06-17T03:44:54Z</time>
  <speed>1.880000</speed>
</trkpt>
<trkpt lat="32.725551605" lon="35.072891235">
  <ele>437.275879</ele>
  <time>2011-06-17T03:44:56Z</time>
  <speed>1.620000</speed>
</trkpt>
<trkpt lat="32.725521088" lon="35.072910309">
  <ele>436.486816</ele>
  <time>2011-06-17T03:44:58Z</time>
  <speed>1.970000</speed>
</trkpt>
<trkpt lat="32.725482941" lon="35.072925568">
  <ele>436.314941</ele>
  <time>2011-06-17T03:45:00Z</time>
  <speed>2.050000</speed>
</trkpt>
<trkpt lat="32.725452423" lon="35.072952271">
  <ele>436.189941</ele>
  <time>2011-06-17T03:45:02Z</time>
  <speed>2.040000</speed>
</trkpt>
<trkpt lat="32.725425720" lon="35.072967529">
  <ele>436.104004</ele>
  <time>2011-06-17T03:45:04Z</time>
  <speed>2.120000</speed>
</trkpt>
<trkpt lat="32.725383759" lon="35.072975159">
  <ele>435.729004</ele>
  <time>2011-06-17T03:45:06Z</time>
  <speed>1.970000</speed>
</trkpt>
<trkpt lat="32.725353241" lon="35.072986603">
  <ele>435.432129</ele>
  <time>2011-06-17T03:45:08Z</time>
  <speed>1.890000</speed>
</trkpt>
<trkpt lat="32.725318909" lon="35.072990417">
  <ele>434.752441</ele>
  <time>2011-06-17T03:45:11Z</time>
  <speed>1.180000</speed>
</trkpt>
<trkpt lat="32.725280762" lon="35.072998047">
  <ele>434.244629</ele>
  <time>2011-06-17T03:45:14Z</time>
  <speed>1.300000</speed>
</trkpt>
<trkpt lat="32.725246429" lon="35.073017120">
  <ele>434.596191</ele>
  <time>2011-06-17T03:45:16Z</time>
  <speed>1.760000</speed>
</trkpt>
<trkpt lat="32.725219727" lon="35.073040009">
  <ele>434.432129</ele>
  <time>2011-06-17T03:45:18Z</time>
  <speed>1.700000</speed>
</trkpt>
<trkpt lat="32.725185394" lon="35.073043823">
  <ele>435.002441</ele>
  <time>2011-06-17T03:45:20Z</time>
  <speed>1.690000</speed>
</trkpt>
<trkpt lat="32.725162506" lon="35.073078156">
  <ele>435.635254</ele>
  <time>2011-06-17T03:45:22Z</time>
  <speed>1.520000</speed>
</trkpt>
<trkpt lat="32.725124359" lon="35.073081970">
  <ele>435.041504</ele>
  <time>2011-06-17T03:45:24Z</time>
  <speed>1.760000</speed>
</trkpt>
<trkpt lat="32.725090027" lon="35.073120117">
  <ele>436.510254</ele>
  <time>2011-06-17T03:45:27Z</time>
  <speed>1.710000</speed>
</trkpt>
<trkpt lat="32.725051880" lon="35.073143005">
  <ele>437.041504</ele>
  <time>2011-06-17T03:45:29Z</time>
  <speed>1.540000</speed>
</trkpt>
<trkpt lat="32.725025177" lon="35.073158264">
  <ele>437.658691</ele>
  <time>2011-06-17T03:45:32Z</time>
  <speed>1.560000</speed>
</trkpt>
<trkpt lat="32.724987030" lon="35.073173523">
  <ele>437.775879</ele>
  <time>2011-06-17T03:45:35Z</time>
  <speed>1.910000</speed>
</trkpt>
<trkpt lat="32.724964142" lon="35.073196411">
  <ele>437.502441</ele>
  <time>2011-06-17T03:45:37Z</time>
  <speed>1.730000</speed>
</trkpt>
<trkpt lat="32.724937439" lon="35.073215485">
  <ele>437.455566</ele>
  <time>2011-06-17T03:45:39Z</time>
  <speed>1.620000</speed>
</trkpt>
<trkpt lat="32.724906921" lon="35.073238373">
  <ele>437.854004</ele>
  <time>2011-06-17T03:45:42Z</time>
  <speed>1.240000</speed>
</trkpt>
<trkpt lat="32.724887848" lon="35.073268890">
  <ele>438.197754</ele>
  <time>2011-06-17T03:45:43Z</time>
  <speed>1.410000</speed>
</trkpt>
<trkpt lat="32.724872589" lon="35.073322296">
  <ele>437.947754</ele>
  <time>2011-06-17T03:45:45Z</time>
  <speed>1.450000</speed>
</trkpt>
<trkpt lat="32.724857330" lon="35.073356628">
  <ele>437.682129</ele>
  <time>2011-06-17T03:45:47Z</time>
  <speed>1.690000</speed>
</trkpt>
<trkpt lat="32.724842072" lon="35.073394775">
  <ele>437.518066</ele>
  <time>2011-06-17T03:45:49Z</time>
  <speed>1.390000</speed>
</trkpt>
<trkpt lat="32.724826813" lon="35.073432922">
  <ele>437.674316</ele>
  <time>2011-06-17T03:45:51Z</time>
  <speed>1.850000</speed>
</trkpt>
<trkpt lat="32.724811554" lon="35.073467255">
  <ele>437.947754</ele>
  <time>2011-06-17T03:45:53Z</time>
  <speed>1.230000</speed>
</trkpt>
<trkpt lat="32.724800110" lon="35.073501587">
  <ele>438.377441</ele>
  <time>2011-06-17T03:45:56Z</time>
  <speed>1.260000</speed>
</trkpt>
<trkpt lat="32.724781036" lon="35.073543549">
  <ele>437.932129</ele>
  <time>2011-06-17T03:45:59Z</time>
  <speed>1.570000</speed>
</trkpt>
<trkpt lat="32.724765778" lon="35.073577881">
  <ele>437.963379</ele>
  <time>2011-06-17T03:46:01Z</time>
  <speed>1.670000</speed>
</trkpt>
<trkpt lat="32.724735260" lon="35.073604584">
  <ele>437.814941</ele>
  <time>2011-06-17T03:46:03Z</time>
  <speed>2.040000</speed>
</trkpt>
<trkpt lat="32.724700928" lon="35.073631287">
  <ele>437.150879</ele>
  <time>2011-06-17T03:46:05Z</time>
  <speed>1.890000</speed>
</trkpt>
<trkpt lat="32.724670410" lon="35.073646545">
  <ele>436.877441</ele>
  <time>2011-06-17T03:46:07Z</time>
  <speed>1.740000</speed>
</trkpt>
<trkpt lat="32.724647522" lon="35.073673248">
  <ele>437.143066</ele>
  <time>2011-06-17T03:46:09Z</time>
  <speed>1.640000</speed>
</trkpt>
<trkpt lat="32.724620819" lon="35.073692322">
  <ele>437.268066</ele>
  <time>2011-06-17T03:46:11Z</time>
  <speed>1.580000</speed>
</trkpt>
<trkpt lat="32.724544525" lon="35.073799133">
  <ele>441.916504</ele>
  <time>2011-06-17T03:46:13Z</time>
  <speed>1.700000</speed>
</trkpt>
<trkpt lat="32.724529266" lon="35.073844910">
  <ele>443.760254</ele>
  <time>2011-06-17T03:46:14Z</time>
  <speed>1.590000</speed>
</trkpt>
<trkpt lat="32.724506378" lon="35.073879242">
  <ele>445.135254</ele>
  <time>2011-06-17T03:46:16Z</time>
  <speed>1.400000</speed>
</trkpt>
<trkpt lat="32.724494934" lon="35.073917389">
  <ele>446.025879</ele>
  <time>2011-06-17T03:46:18Z</time>
  <speed>1.400000</speed>
</trkpt>
<trkpt lat="32.724483490" lon="35.073955536">
  <ele>447.557129</ele>
  <time>2011-06-17T03:46:19Z</time>
  <speed>1.250000</speed>
</trkpt>
<trkpt lat="32.724491119" lon="35.073993683">
  <ele>449.689941</ele>
  <time>2011-06-17T03:46:20Z</time>
  <speed>1.900000</speed>
</trkpt>
<trkpt lat="32.724472046" lon="35.074031830">
  <ele>450.221191</ele>
  <time>2011-06-17T03:46:22Z</time>
  <speed>1.520000</speed>
</trkpt>
<trkpt lat="32.724456787" lon="35.074073792">
  <ele>451.518066</ele>
  <time>2011-06-17T03:46:24Z</time>
  <speed>1.270000</speed>
</trkpt>
<trkpt lat="32.724441528" lon="35.074111938">
  <ele>452.674316</ele>
  <time>2011-06-17T03:46:26Z</time>
  <speed>1.550000</speed>
</trkpt>
<trkpt lat="32.724433899" lon="35.074142456">
  <ele>453.697754</ele>
  <time>2011-06-17T03:46:27Z</time>
  <speed>1.820000</speed>
</trkpt>
<trkpt lat="32.724399567" lon="35.074180603">
  <ele>455.057129</ele>
  <time>2011-06-17T03:46:29Z</time>
  <speed>2.160000</speed>
</trkpt>
<trkpt lat="32.724376678" lon="35.074214935">
  <ele>455.135254</ele>
  <time>2011-06-17T03:46:31Z</time>
  <speed>2.300000</speed>
</trkpt>
<trkpt lat="32.724353790" lon="35.074241638">
  <ele>456.322754</ele>
  <time>2011-06-17T03:46:33Z</time>
  <speed>1.950000</speed>
</trkpt>
<trkpt lat="32.724342346" lon="35.074291229">
  <ele>456.369629</ele>
  <time>2011-06-17T03:46:35Z</time>
  <speed>2.210000</speed>
</trkpt>
<trkpt lat="32.724319458" lon="35.074321747">
  <ele>458.346191</ele>
  <time>2011-06-17T03:46:37Z</time>
  <speed>2.410000</speed>
</trkpt>
<trkpt lat="32.724288940" lon="35.074359894">
  <ele>457.604004</ele>
  <time>2011-06-17T03:46:39Z</time>
  <speed>2.530000</speed>
</trkpt>
<trkpt lat="32.724262238" lon="35.074409485">
  <ele>457.877441</ele>
  <time>2011-06-17T03:46:41Z</time>
  <speed>2.730000</speed>
</trkpt>
<trkpt lat="32.724243164" lon="35.074455261">
  <ele>458.994629</ele>
  <time>2011-06-17T03:46:43Z</time>
  <speed>2.710000</speed>
</trkpt>
<trkpt lat="32.724220276" lon="35.074501038">
  <ele>460.377441</ele>
  <time>2011-06-17T03:46:45Z</time>
  <speed>2.750000</speed>
</trkpt>
<trkpt lat="32.724193573" lon="35.074554443">
  <ele>461.588379</ele>
  <time>2011-06-17T03:46:47Z</time>
  <speed>2.860000</speed>
</trkpt>
<trkpt lat="32.724166870" lon="35.074604034">
  <ele>462.174316</ele>
  <time>2011-06-17T03:46:49Z</time>
  <speed>3.130000</speed>
</trkpt>
<trkpt lat="32.724147797" lon="35.074634552">
  <ele>461.807129</ele>
  <time>2011-06-17T03:46:50Z</time>
  <speed>3.240000</speed>
</trkpt>
<trkpt lat="32.724124908" lon="35.074661255">
  <ele>461.900879</ele>
  <time>2011-06-17T03:46:51Z</time>
  <speed>3.100000</speed>
</trkpt>
<trkpt lat="32.724094391" lon="35.074714661">
  <ele>461.955566</ele>
  <time>2011-06-17T03:46:53Z</time>
  <speed>3.100000</speed>
</trkpt>
<trkpt lat="32.724075317" lon="35.074737549">
  <ele>461.885254</ele>
  <time>2011-06-17T03:46:54Z</time>
  <speed>3.500000</speed>
</trkpt>
<trkpt lat="32.724048615" lon="35.074771881">
  <ele>460.939941</ele>
  <time>2011-06-17T03:46:55Z</time>
  <speed>3.550000</speed>
</trkpt>
<trkpt lat="32.724002838" lon="35.074806213">
  <ele>461.229004</ele>
  <time>2011-06-17T03:46:57Z</time>
  <speed>3.250000</speed>
</trkpt>
<trkpt lat="32.723976135" lon="35.074829102">
  <ele>460.932129</ele>
  <time>2011-06-17T03:46:58Z</time>
  <speed>3.130000</speed>
</trkpt>
<trkpt lat="32.723953247" lon="35.074855804">
  <ele>461.064941</ele>
  <time>2011-06-17T03:46:59Z</time>
  <speed>3.140000</speed>
</trkpt>
<trkpt lat="32.723911285" lon="35.074897766">
  <ele>460.822754</ele>
  <time>2011-06-17T03:47:01Z</time>
  <speed>3.460000</speed>
</trkpt>
<trkpt lat="32.723896027" lon="35.074928284">
  <ele>461.291504</ele>
  <time>2011-06-17T03:47:02Z</time>
  <speed>3.190000</speed>
</trkpt>
<trkpt lat="32.723880768" lon="35.074951172">
  <ele>461.033691</ele>
  <time>2011-06-17T03:47:03Z</time>
  <speed>3.190000</speed>
</trkpt>
<trkpt lat="32.723861694" lon="35.074977875">
  <ele>460.689941</ele>
  <time>2011-06-17T03:47:04Z</time>
  <speed>3.110000</speed>
</trkpt>
<trkpt lat="32.723834991" lon="35.075031281">
  <ele>460.955566</ele>
  <time>2011-06-17T03:47:06Z</time>
  <speed>3.250000</speed>
</trkpt>
<trkpt lat="32.723812103" lon="35.075088501">
  <ele>461.783691</ele>
  <time>2011-06-17T03:47:08Z</time>
  <speed>3.480000</speed>
</trkpt>
<trkpt lat="32.723800659" lon="35.075119019">
  <ele>462.541504</ele>
  <time>2011-06-17T03:47:09Z</time>
  <speed>2.960000</speed>
</trkpt>
<trkpt lat="32.723770142" lon="35.075176239">
  <ele>461.994629</ele>
  <time>2011-06-17T03:47:11Z</time>
  <speed>3.620000</speed>
</trkpt>
<trkpt lat="32.723751068" lon="35.075210571">
  <ele>462.533691</ele>
  <time>2011-06-17T03:47:12Z</time>
  <speed>3.390000</speed>
</trkpt>
<trkpt lat="32.723735809" lon="35.075244904">
  <ele>461.932129</ele>
  <time>2011-06-17T03:47:13Z</time>
  <speed>3.410000</speed>
</trkpt>
<trkpt lat="32.723720551" lon="35.075271606">
  <ele>461.830566</ele>
  <time>2011-06-17T03:47:14Z</time>
  <speed>3.010000</speed>
</trkpt>
<trkpt lat="32.723701477" lon="35.075294495">
  <ele>461.791504</ele>
  <time>2011-06-17T03:47:15Z</time>
  <speed>3.160000</speed>
</trkpt>
<trkpt lat="32.723682404" lon="35.075325012">
  <ele>461.580566</ele>
  <time>2011-06-17T03:47:16Z</time>
  <speed>3.270000</speed>
</trkpt>
<trkpt lat="32.723648071" lon="35.075359344">
  <ele>461.697754</ele>
  <time>2011-06-17T03:47:18Z</time>
  <speed>2.200000</speed>
</trkpt>
<trkpt lat="32.723613739" lon="35.075393677">
  <ele>461.729004</ele>
  <time>2011-06-17T03:47:20Z</time>
  <speed>2.530000</speed>
</trkpt>
<trkpt lat="32.723575592" lon="35.075424194">
  <ele>461.791504</ele>
  <time>2011-06-17T03:47:22Z</time>
  <speed>2.880000</speed>
</trkpt>
<trkpt lat="32.723537445" lon="35.075428009">
  <ele>462.408691</ele>
  <time>2011-06-17T03:47:24Z</time>
  <speed>2.230000</speed>
</trkpt>
<trkpt lat="32.723499298" lon="35.075435638">
  <ele>461.916504</ele>
  <time>2011-06-17T03:47:26Z</time>
  <speed>2.320000</speed>
</trkpt>
<trkpt lat="32.723468781" lon="35.075428009">
  <ele>462.439941</ele>
  <time>2011-06-17T03:47:28Z</time>
  <speed>1.960000</speed>
</trkpt>
<trkpt lat="32.723434448" lon="35.075424194">
  <ele>462.041504</ele>
  <time>2011-06-17T03:47:30Z</time>
  <speed>2.230000</speed>
</trkpt>
<trkpt lat="32.723384857" lon="35.075416565">
  <ele>462.033691</ele>
  <time>2011-06-17T03:47:32Z</time>
  <speed>2.690000</speed>
</trkpt>
<trkpt lat="32.723335266" lon="35.075416565">
  <ele>462.697754</ele>
  <time>2011-06-17T03:47:34Z</time>
  <speed>3.020000</speed>
</trkpt>
<trkpt lat="32.723289490" lon="35.075405121">
  <ele>462.947754</ele>
  <time>2011-06-17T03:47:36Z</time>
  <speed>2.740000</speed>
</trkpt>
<trkpt lat="32.723243713" lon="35.075382233">
  <ele>463.283691</ele>
  <time>2011-06-17T03:47:38Z</time>
  <speed>2.820000</speed>
</trkpt>
<trkpt lat="32.723197937" lon="35.075359344">
  <ele>463.369629</ele>
  <time>2011-06-17T03:47:40Z</time>
  <speed>3.000000</speed>
</trkpt>
<trkpt lat="32.723144531" lon="35.075344086">
  <ele>463.416504</ele>
  <time>2011-06-17T03:47:42Z</time>
  <speed>2.940000</speed>
</trkpt>
<trkpt lat="32.723117828" lon="35.075317383">
  <ele>464.916504</ele>
  <time>2011-06-17T03:47:43Z</time>
  <speed>2.960000</speed>
</trkpt>
<trkpt lat="32.723087311" lon="35.075309753">
  <ele>464.971191</ele>
  <time>2011-06-17T03:47:44Z</time>
  <speed>3.050000</speed>
</trkpt>
<trkpt lat="32.723033905" lon="35.075298309">
  <ele>465.471191</ele>
  <time>2011-06-17T03:47:46Z</time>
  <speed>2.870000</speed>
</trkpt>
<trkpt lat="32.723007202" lon="35.075294495">
  <ele>465.455566</ele>
  <time>2011-06-17T03:47:47Z</time>
  <speed>2.970000</speed>
</trkpt>
<trkpt lat="32.722969055" lon="35.075290680">
  <ele>465.346191</ele>
  <time>2011-06-17T03:47:48Z</time>
  <speed>2.910000</speed>
</trkpt>
<trkpt lat="32.722923279" lon="35.075283051">
  <ele>465.775879</ele>
  <time>2011-06-17T03:47:50Z</time>
  <speed>2.530000</speed>
</trkpt>
<trkpt lat="32.722881317" lon="35.075286865">
  <ele>465.775879</ele>
  <time>2011-06-17T03:47:52Z</time>
  <speed>2.030000</speed>
</trkpt>
<trkpt lat="32.722843170" lon="35.075313568">
  <ele>465.479004</ele>
  <time>2011-06-17T03:47:54Z</time>
  <speed>2.480000</speed>
</trkpt>
<trkpt lat="32.722793579" lon="35.075340271">
  <ele>465.533691</ele>
  <time>2011-06-17T03:47:56Z</time>
  <speed>2.650000</speed>
</trkpt>
<trkpt lat="32.722770691" lon="35.075359344">
  <ele>465.447754</ele>
  <time>2011-06-17T03:47:57Z</time>
  <speed>2.610000</speed>
</trkpt>
<trkpt lat="32.722740173" lon="35.075370789">
  <ele>466.213379</ele>
  <time>2011-06-17T03:47:59Z</time>
  <speed>1.990000</speed>
</trkpt>
<trkpt lat="32.722698212" lon="35.075443268">
  <ele>465.275879</ele>
  <time>2011-06-17T03:48:01Z</time>
  <speed>2.850000</speed>
</trkpt>
<trkpt lat="32.722675323" lon="35.075466156">
  <ele>465.338379</ele>
  <time>2011-06-17T03:48:02Z</time>
  <speed>2.830000</speed>
</trkpt>
<trkpt lat="32.722633362" lon="35.075496674">
  <ele>465.338379</ele>
  <time>2011-06-17T03:48:04Z</time>
  <speed>2.930000</speed>
</trkpt>
<trkpt lat="32.722587585" lon="35.075531006">
  <ele>465.666504</ele>
  <time>2011-06-17T03:48:06Z</time>
  <speed>2.720000</speed>
</trkpt>
<trkpt lat="32.722553253" lon="35.075531006">
  <ele>465.307129</ele>
  <time>2011-06-17T03:48:08Z</time>
  <speed>2.470000</speed>
</trkpt>
<trkpt lat="32.722499847" lon="35.075538635">
  <ele>465.104004</ele>
  <time>2011-06-17T03:48:10Z</time>
  <speed>3.040000</speed>
</trkpt>
<trkpt lat="32.722473145" lon="35.075542450">
  <ele>465.619629</ele>
  <time>2011-06-17T03:48:11Z</time>
  <speed>2.790000</speed>
</trkpt>
<trkpt lat="32.722423553" lon="35.075538635">
  <ele>466.627441</ele>
  <time>2011-06-17T03:48:13Z</time>
  <speed>2.910000</speed>
</trkpt>
<trkpt lat="32.722400665" lon="35.075527191">
  <ele>468.713379</ele>
  <time>2011-06-17T03:48:14Z</time>
  <speed>2.720000</speed>
</trkpt>
<trkpt lat="32.722385406" lon="35.075508118">
  <ele>470.299316</ele>
  <time>2011-06-17T03:48:15Z</time>
  <speed>2.830000</speed>
</trkpt>
<trkpt lat="32.722358704" lon="35.075496674">
  <ele>471.713379</ele>
  <time>2011-06-17T03:48:16Z</time>
  <speed>2.700000</speed>
</trkpt>
<trkpt lat="32.722324371" lon="35.075462341">
  <ele>472.729004</ele>
  <time>2011-06-17T03:48:18Z</time>
  <speed>3.130000</speed>
</trkpt>
<trkpt lat="32.722293854" lon="35.075443268">
  <ele>473.494629</ele>
  <time>2011-06-17T03:48:19Z</time>
  <speed>3.340000</speed>
</trkpt>
<trkpt lat="32.722270966" lon="35.075424194">
  <ele>474.322754</ele>
  <time>2011-06-17T03:48:20Z</time>
  <speed>3.590000</speed>
</trkpt>
<trkpt lat="32.722251892" lon="35.075401306">
  <ele>474.689941</ele>
  <time>2011-06-17T03:48:21Z</time>
  <speed>3.500000</speed>
</trkpt>
<trkpt lat="32.722221375" lon="35.075382233">
  <ele>475.189941</ele>
  <time>2011-06-17T03:48:22Z</time>
  <speed>3.640000</speed>
</trkpt>
<trkpt lat="32.722190857" lon="35.075366974">
  <ele>475.729004</ele>
  <time>2011-06-17T03:48:23Z</time>
  <speed>3.250000</speed>
</trkpt>
<trkpt lat="32.722156525" lon="35.075359344">
  <ele>476.299316</ele>
  <time>2011-06-17T03:48:24Z</time>
  <speed>3.060000</speed>
</trkpt>
<trkpt lat="32.722126007" lon="35.075363159">
  <ele>476.268066</ele>
  <time>2011-06-17T03:48:25Z</time>
  <speed>3.040000</speed>
</trkpt>
<trkpt lat="32.722095490" lon="35.075374603">
  <ele>476.260254</ele>
  <time>2011-06-17T03:48:26Z</time>
  <speed>3.130000</speed>
</trkpt>
<trkpt lat="32.722064972" lon="35.075386047">
  <ele>476.518066</ele>
  <time>2011-06-17T03:48:27Z</time>
  <speed>3.120000</speed>
</trkpt>
<trkpt lat="32.722026825" lon="35.075412750">
  <ele>476.244629</ele>
  <time>2011-06-17T03:48:28Z</time>
  <speed>3.680000</speed>
</trkpt>
<trkpt lat="32.721996307" lon="35.075435638">
  <ele>475.947754</ele>
  <time>2011-06-17T03:48:29Z</time>
  <speed>3.410000</speed>
</trkpt>
<trkpt lat="32.721961975" lon="35.075458527">
  <ele>475.674316</ele>
  <time>2011-06-17T03:48:30Z</time>
  <speed>3.630000</speed>
</trkpt>
<trkpt lat="32.721931458" lon="35.075481415">
  <ele>475.432129</ele>
  <time>2011-06-17T03:48:31Z</time>
  <speed>3.530000</speed>
</trkpt>
<trkpt lat="32.721904755" lon="35.075496674">
  <ele>475.096191</ele>
  <time>2011-06-17T03:48:32Z</time>
  <speed>3.480000</speed>
</trkpt>
<trkpt lat="32.721870422" lon="35.075504303">
  <ele>475.213379</ele>
  <time>2011-06-17T03:48:33Z</time>
  <speed>3.470000</speed>
</trkpt>
<trkpt lat="32.721836090" lon="35.075515747">
  <ele>475.252441</ele>
  <time>2011-06-17T03:48:34Z</time>
  <speed>3.110000</speed>
</trkpt>
<trkpt lat="32.721813202" lon="35.075534821">
  <ele>475.205566</ele>
  <time>2011-06-17T03:48:35Z</time>
  <speed>3.010000</speed>
</trkpt>
<trkpt lat="32.721786499" lon="35.075550079">
  <ele>475.268066</ele>
  <time>2011-06-17T03:48:36Z</time>
  <speed>2.600000</speed>
</trkpt>
<trkpt lat="32.721767426" lon="35.075576782">
  <ele>475.150879</ele>
  <time>2011-06-17T03:48:37Z</time>
  <speed>3.000000</speed>
</trkpt>
<trkpt lat="32.721744537" lon="35.075592041">
  <ele>475.041504</ele>
  <time>2011-06-17T03:48:38Z</time>
  <speed>2.710000</speed>
</trkpt>
<trkpt lat="32.721714020" lon="35.075656891">
  <ele>474.713379</ele>
  <time>2011-06-17T03:48:39Z</time>
  <speed>3.490000</speed>
</trkpt>
<trkpt lat="32.721691132" lon="35.075687408">
  <ele>474.783691</ele>
  <time>2011-06-17T03:48:40Z</time>
  <speed>3.160000</speed>
</trkpt>
<trkpt lat="32.721664429" lon="35.075737000">
  <ele>474.736816</ele>
  <time>2011-06-17T03:48:41Z</time>
  <speed>2.840000</speed>
</trkpt>
<trkpt lat="32.721626282" lon="35.075778961">
  <ele>474.596191</ele>
  <time>2011-06-17T03:48:43Z</time>
  <speed>3.040000</speed>
</trkpt>
<trkpt lat="32.721584320" lon="35.075820923">
  <ele>474.236816</ele>
  <time>2011-06-17T03:48:45Z</time>
  <speed>2.150000</speed>
</trkpt>
<trkpt lat="32.721542358" lon="35.075859070">
  <ele>474.010254</ele>
  <time>2011-06-17T03:48:47Z</time>
  <speed>2.970000</speed>
</trkpt>
<trkpt lat="32.721515656" lon="35.075878143">
  <ele>473.775879</ele>
  <time>2011-06-17T03:48:48Z</time>
  <speed>3.030000</speed>
</trkpt>
<trkpt lat="32.721492767" lon="35.075901031">
  <ele>473.799316</ele>
  <time>2011-06-17T03:48:49Z</time>
  <speed>2.870000</speed>
</trkpt>
<trkpt lat="32.721446991" lon="35.075935364">
  <ele>473.486816</ele>
  <time>2011-06-17T03:48:51Z</time>
  <speed>2.710000</speed>
</trkpt>
<trkpt lat="32.721424103" lon="35.075954437">
  <ele>472.916504</ele>
  <time>2011-06-17T03:48:52Z</time>
  <speed>3.280000</speed>
</trkpt>
<trkpt lat="32.721393585" lon="35.075977325">
  <ele>472.307129</ele>
  <time>2011-06-17T03:48:53Z</time>
  <speed>2.870000</speed>
</trkpt>
<trkpt lat="32.721370697" lon="35.075992584">
  <ele>471.971191</ele>
  <time>2011-06-17T03:48:54Z</time>
  <speed>2.830000</speed>
</trkpt>
<trkpt lat="32.721321106" lon="35.076007843">
  <ele>471.150879</ele>
  <time>2011-06-17T03:48:56Z</time>
  <speed>2.720000</speed>
</trkpt>
<trkpt lat="32.721275330" lon="35.076026917">
  <ele>470.783691</ele>
  <time>2011-06-17T03:48:58Z</time>
  <speed>2.640000</speed>
</trkpt>
<trkpt lat="32.721237183" lon="35.076045990">
  <ele>470.213379</ele>
  <time>2011-06-17T03:49:00Z</time>
  <speed>2.320000</speed>
</trkpt>
<trkpt lat="32.721214294" lon="35.076068878">
  <ele>469.807129</ele>
  <time>2011-06-17T03:49:01Z</time>
  <speed>2.410000</speed>
</trkpt>
<trkpt lat="32.721176147" lon="35.076087952">
  <ele>469.580566</ele>
  <time>2011-06-17T03:49:03Z</time>
  <speed>2.340000</speed>
</trkpt>
<trkpt lat="32.721141815" lon="35.076118469">
  <ele>469.166504</ele>
  <time>2011-06-17T03:49:05Z</time>
  <speed>2.330000</speed>
</trkpt>
<trkpt lat="32.721103668" lon="35.076145172">
  <ele>469.393066</ele>
  <time>2011-06-17T03:49:07Z</time>
  <speed>2.590000</speed>
</trkpt>
<trkpt lat="32.721061707" lon="35.076168060">
  <ele>469.518066</ele>
  <time>2011-06-17T03:49:09Z</time>
  <speed>2.120000</speed>
</trkpt>
<trkpt lat="32.721035004" lon="35.076187134">
  <ele>469.947754</ele>
  <time>2011-06-17T03:49:11Z</time>
  <speed>1.860000</speed>
</trkpt>
<trkpt lat="32.721000671" lon="35.076213837">
  <ele>469.119629</ele>
  <time>2011-06-17T03:49:13Z</time>
  <speed>2.040000</speed>
</trkpt>
<trkpt lat="32.720958710" lon="35.076240540">
  <ele>468.018066</ele>
  <time>2011-06-17T03:49:15Z</time>
  <speed>2.030000</speed>
</trkpt>
<trkpt lat="32.720939636" lon="35.076263428">
  <ele>468.752441</ele>
  <time>2011-06-17T03:49:16Z</time>
  <speed>2.120000</speed>
</trkpt>
<trkpt lat="32.720912933" lon="35.076278687">
  <ele>468.830566</ele>
  <time>2011-06-17T03:49:17Z</time>
  <speed>2.480000</speed>
</trkpt>
<trkpt lat="32.720874786" lon="35.076309204">
  <ele>468.463379</ele>
  <time>2011-06-17T03:49:19Z</time>
  <speed>2.480000</speed>
</trkpt>
<trkpt lat="32.720840454" lon="35.076339722">
  <ele>468.510254</ele>
  <time>2011-06-17T03:49:21Z</time>
  <speed>2.770000</speed>
</trkpt>
<trkpt lat="32.720817566" lon="35.076362610">
  <ele>468.447754</ele>
  <time>2011-06-17T03:49:22Z</time>
  <speed>2.800000</speed>
</trkpt>
<trkpt lat="32.720783234" lon="35.076381683">
  <ele>468.244629</ele>
  <time>2011-06-17T03:49:24Z</time>
  <speed>2.160000</speed>
</trkpt>
<trkpt lat="32.720752716" lon="35.076416016">
  <ele>467.721191</ele>
  <time>2011-06-17T03:49:26Z</time>
  <speed>2.470000</speed>
</trkpt>
<trkpt lat="32.720718384" lon="35.076442719">
  <ele>467.580566</ele>
  <time>2011-06-17T03:49:28Z</time>
  <speed>2.300000</speed>
</trkpt>
<trkpt lat="32.720684052" lon="35.076473236">
  <ele>467.354004</ele>
  <time>2011-06-17T03:49:30Z</time>
  <speed>2.390000</speed>
</trkpt>
<trkpt lat="32.720642090" lon="35.076484680">
  <ele>466.721191</ele>
  <time>2011-06-17T03:49:32Z</time>
  <speed>2.050000</speed>
</trkpt>
<trkpt lat="32.720607758" lon="35.076488495">
  <ele>467.002441</ele>
  <time>2011-06-17T03:49:34Z</time>
  <speed>1.880000</speed>
</trkpt>
<trkpt lat="32.720565796" lon="35.076499939">
  <ele>466.658691</ele>
  <time>2011-06-17T03:49:36Z</time>
  <speed>2.160000</speed>
</trkpt>
<trkpt lat="32.720527649" lon="35.076522827">
  <ele>467.010254</ele>
  <time>2011-06-17T03:49:38Z</time>
  <speed>2.430000</speed>
</trkpt>
<trkpt lat="32.720485687" lon="35.076549530">
  <ele>467.447754</ele>
  <time>2011-06-17T03:49:40Z</time>
  <speed>2.170000</speed>
</trkpt>
<trkpt lat="32.720466614" lon="35.076572418">
  <ele>467.572754</ele>
  <time>2011-06-17T03:49:41Z</time>
  <speed>1.530000</speed>
</trkpt>
<trkpt lat="32.720436096" lon="35.076610565">
  <ele>470.260254</ele>
  <time>2011-06-17T03:49:43Z</time>
  <speed>1.670000</speed>
</trkpt>
<trkpt lat="32.720405579" lon="35.076633453">
  <ele>470.955566</ele>
  <time>2011-06-17T03:49:45Z</time>
  <speed>2.040000</speed>
</trkpt>
<trkpt lat="32.720367432" lon="35.076660156">
  <ele>471.229004</ele>
  <time>2011-06-17T03:49:47Z</time>
  <speed>2.400000</speed>
</trkpt>
<trkpt lat="32.720333099" lon="35.076686859">
  <ele>471.877441</ele>
  <time>2011-06-17T03:49:49Z</time>
  <speed>1.950000</speed>
</trkpt>
<trkpt lat="32.720298767" lon="35.076709747">
  <ele>471.643066</ele>
  <time>2011-06-17T03:49:51Z</time>
  <speed>2.040000</speed>
</trkpt>
<trkpt lat="32.720268250" lon="35.076736450">
  <ele>472.174316</ele>
  <time>2011-06-17T03:49:53Z</time>
  <speed>2.110000</speed>
</trkpt>
<trkpt lat="32.720237732" lon="35.076766968">
  <ele>472.182129</ele>
  <time>2011-06-17T03:49:55Z</time>
  <speed>1.910000</speed>
</trkpt>
<trkpt lat="32.720203400" lon="35.076797485">
  <ele>472.861816</ele>
  <time>2011-06-17T03:49:58Z</time>
  <speed>1.870000</speed>
</trkpt>
<trkpt lat="32.720169067" lon="35.076828003">
  <ele>473.018066</ele>
  <time>2011-06-17T03:50:00Z</time>
  <speed>2.200000</speed>
</trkpt>
<trkpt lat="32.720134735" lon="35.076862335">
  <ele>473.979004</ele>
  <time>2011-06-17T03:50:02Z</time>
  <speed>1.510000</speed>
</trkpt>
<trkpt lat="32.720111847" lon="35.076892853">
  <ele>474.775879</ele>
  <time>2011-06-17T03:50:04Z</time>
  <speed>1.780000</speed>
</trkpt>
<trkpt lat="32.720081329" lon="35.076927185">
  <ele>474.752441</ele>
  <time>2011-06-17T03:50:06Z</time>
  <speed>1.820000</speed>
</trkpt>
<trkpt lat="32.720054626" lon="35.076965332">
  <ele>474.283691</ele>
  <time>2011-06-17T03:50:08Z</time>
  <speed>2.330000</speed>
</trkpt>
<trkpt lat="32.720016479" lon="35.077003479">
  <ele>474.533691</ele>
  <time>2011-06-17T03:50:10Z</time>
  <speed>2.910000</speed>
</trkpt>
<trkpt lat="32.719970703" lon="35.077041626">
  <ele>474.166504</ele>
  <time>2011-06-17T03:50:12Z</time>
  <speed>2.470000</speed>
</trkpt>
<trkpt lat="32.719940186" lon="35.077072144">
  <ele>474.314941</ele>
  <time>2011-06-17T03:50:14Z</time>
  <speed>1.860000</speed>
</trkpt>
<trkpt lat="32.719909668" lon="35.077091217">
  <ele>474.002441</ele>
  <time>2011-06-17T03:50:16Z</time>
  <speed>2.180000</speed>
</trkpt>
<trkpt lat="32.719875336" lon="35.077095032">
  <ele>474.369629</ele>
  <time>2011-06-17T03:50:19Z</time>
  <speed>1.310000</speed>
</trkpt>
<trkpt lat="32.719837189" lon="35.077110291">
  <ele>474.674316</ele>
  <time>2011-06-17T03:50:22Z</time>
  <speed>2.460000</speed>
</trkpt>
<trkpt lat="32.719802856" lon="35.077133179">
  <ele>475.049316</ele>
  <time>2011-06-17T03:50:24Z</time>
  <speed>2.140000</speed>
</trkpt>
<trkpt lat="32.719757080" lon="35.077156067">
  <ele>474.861816</ele>
  <time>2011-06-17T03:50:26Z</time>
  <speed>2.870000</speed>
</trkpt>
<trkpt lat="32.719730377" lon="35.077167511">
  <ele>474.791504</ele>
  <time>2011-06-17T03:50:27Z</time>
  <speed>2.270000</speed>
</trkpt>
<trkpt lat="32.719688416" lon="35.077178955">
  <ele>475.143066</ele>
  <time>2011-06-17T03:50:29Z</time>
  <speed>2.410000</speed>
</trkpt>
<trkpt lat="32.719646454" lon="35.077190399">
  <ele>475.682129</ele>
  <time>2011-06-17T03:50:31Z</time>
  <speed>2.520000</speed>
</trkpt>
<trkpt lat="32.719596863" lon="35.077201843">
  <ele>476.424316</ele>
  <time>2011-06-17T03:50:33Z</time>
  <speed>2.440000</speed>
</trkpt>
<trkpt lat="32.719551086" lon="35.077201843">
  <ele>477.455566</ele>
  <time>2011-06-17T03:50:35Z</time>
  <speed>2.480000</speed>
</trkpt>
<trkpt lat="32.719501495" lon="35.077209473">
  <ele>478.416504</ele>
  <time>2011-06-17T03:50:37Z</time>
  <speed>2.430000</speed>
</trkpt>
<trkpt lat="32.719467163" lon="35.077209473">
  <ele>478.768066</ele>
  <time>2011-06-17T03:50:39Z</time>
  <speed>2.270000</speed>
</trkpt>
<trkpt lat="32.719440460" lon="35.077205658">
  <ele>479.189941</ele>
  <time>2011-06-17T03:50:40Z</time>
  <speed>2.700000</speed>
</trkpt>
<trkpt lat="32.719398499" lon="35.077209473">
  <ele>480.510254</ele>
  <time>2011-06-17T03:50:42Z</time>
  <speed>2.530000</speed>
</trkpt>
<trkpt lat="32.719367981" lon="35.077209473">
  <ele>480.471191</ele>
  <time>2011-06-17T03:50:43Z</time>
  <speed>2.810000</speed>
</trkpt>
<trkpt lat="32.719326019" lon="35.077205658">
  <ele>481.158691</ele>
  <time>2011-06-17T03:50:45Z</time>
  <speed>2.340000</speed>
</trkpt>
<trkpt lat="32.719276428" lon="35.077209473">
  <ele>481.096191</ele>
  <time>2011-06-17T03:50:47Z</time>
  <speed>2.940000</speed>
</trkpt>
<trkpt lat="32.719253540" lon="35.077220917">
  <ele>482.049316</ele>
  <time>2011-06-17T03:50:48Z</time>
  <speed>2.600000</speed>
</trkpt>
<trkpt lat="32.719211578" lon="35.077205658">
  <ele>482.354004</ele>
  <time>2011-06-17T03:50:50Z</time>
  <speed>2.960000</speed>
</trkpt>
<trkpt lat="32.719181061" lon="35.077209473">
  <ele>482.104004</ele>
  <time>2011-06-17T03:50:51Z</time>
  <speed>3.050000</speed>
</trkpt>
<trkpt lat="32.719131470" lon="35.077201843">
  <ele>481.314941</ele>
  <time>2011-06-17T03:50:53Z</time>
  <speed>3.040000</speed>
</trkpt>
<trkpt lat="32.719081879" lon="35.077201843">
  <ele>482.268066</ele>
  <time>2011-06-17T03:50:55Z</time>
  <speed>3.670000</speed>
</trkpt>
<trkpt lat="32.719043732" lon="35.077201843">
  <ele>482.213379</ele>
  <time>2011-06-17T03:50:56Z</time>
  <speed>3.700000</speed>
</trkpt>
<trkpt lat="32.719013214" lon="35.077194214">
  <ele>481.963379</ele>
  <time>2011-06-17T03:50:57Z</time>
  <speed>4.020000</speed>
</trkpt>
<trkpt lat="32.718975067" lon="35.077194214">
  <ele>482.408691</ele>
  <time>2011-06-17T03:50:58Z</time>
  <speed>4.060000</speed>
</trkpt>
<trkpt lat="32.718944550" lon="35.077198029">
  <ele>483.432129</ele>
  <time>2011-06-17T03:50:59Z</time>
  <speed>4.060000</speed>
</trkpt>
<trkpt lat="32.718906403" lon="35.077198029">
  <ele>483.689941</ele>
  <time>2011-06-17T03:51:00Z</time>
  <speed>4.160000</speed>
</trkpt>
<trkpt lat="32.718860626" lon="35.077201843">
  <ele>483.619629</ele>
  <time>2011-06-17T03:51:01Z</time>
  <speed>3.400000</speed>
</trkpt>
<trkpt lat="32.718830109" lon="35.077213287">
  <ele>483.236816</ele>
  <time>2011-06-17T03:51:02Z</time>
  <speed>3.720000</speed>
</trkpt>
<trkpt lat="32.718799591" lon="35.077220917">
  <ele>483.885254</ele>
  <time>2011-06-17T03:51:03Z</time>
  <speed>3.630000</speed>
</trkpt>
<trkpt lat="32.718769073" lon="35.077209473">
  <ele>485.096191</ele>
  <time>2011-06-17T03:51:04Z</time>
  <speed>3.280000</speed>
</trkpt>
<trkpt lat="32.718738556" lon="35.077205658">
  <ele>485.900879</ele>
  <time>2011-06-17T03:51:05Z</time>
  <speed>3.260000</speed>
</trkpt>
<trkpt lat="32.718681335" lon="35.077182770">
  <ele>488.057129</ele>
  <time>2011-06-17T03:51:07Z</time>
  <speed>2.740000</speed>
</trkpt>
<trkpt lat="32.718650818" lon="35.077140808">
  <ele>489.322754</ele>
  <time>2011-06-17T03:51:09Z</time>
  <speed>2.540000</speed>
</trkpt>
<trkpt lat="32.718643188" lon="35.077091217">
  <ele>491.775879</ele>
  <time>2011-06-17T03:51:11Z</time>
  <speed>2.520000</speed>
</trkpt>
<trkpt lat="32.718666077" lon="35.077037811">
  <ele>493.111816</ele>
  <time>2011-06-17T03:51:13Z</time>
  <speed>3.030000</speed>
</trkpt>
<trkpt lat="32.718677521" lon="35.077011108">
  <ele>493.588379</ele>
  <time>2011-06-17T03:51:14Z</time>
  <speed>2.970000</speed>
</trkpt>
<trkpt lat="32.718688965" lon="35.076980591">
  <ele>493.830566</ele>
  <time>2011-06-17T03:51:15Z</time>
  <speed>3.210000</speed>
</trkpt>
<trkpt lat="32.718704224" lon="35.076946259">
  <ele>494.275879</ele>
  <time>2011-06-17T03:51:16Z</time>
  <speed>3.100000</speed>
</trkpt>
<trkpt lat="32.718715668" lon="35.076915741">
  <ele>494.713379</ele>
  <time>2011-06-17T03:51:17Z</time>
  <speed>2.970000</speed>
</trkpt>
<trkpt lat="32.718738556" lon="35.076881409">
  <ele>495.080566</ele>
  <time>2011-06-17T03:51:18Z</time>
  <speed>3.130000</speed>
</trkpt>
<trkpt lat="32.718757629" lon="35.076854706">
  <ele>495.760254</ele>
  <time>2011-06-17T03:51:19Z</time>
  <speed>3.180000</speed>
</trkpt>
<trkpt lat="32.718769073" lon="35.076824188">
  <ele>496.361816</ele>
  <time>2011-06-17T03:51:20Z</time>
  <speed>3.070000</speed>
</trkpt>
<trkpt lat="32.718788147" lon="35.076789856">
  <ele>497.025879</ele>
  <time>2011-06-17T03:51:21Z</time>
  <speed>3.110000</speed>
</trkpt>
<trkpt lat="32.718807220" lon="35.076763153">
  <ele>496.877441</ele>
  <time>2011-06-17T03:51:22Z</time>
  <speed>3.310000</speed>
</trkpt>
<trkpt lat="32.718826294" lon="35.076740265">
  <ele>497.346191</ele>
  <time>2011-06-17T03:51:23Z</time>
  <speed>3.260000</speed>
</trkpt>
<trkpt lat="32.718849182" lon="35.076713562">
  <ele>498.002441</ele>
  <time>2011-06-17T03:51:24Z</time>
  <speed>3.140000</speed>
</trkpt>
<trkpt lat="32.718864441" lon="35.076683044">
  <ele>498.604004</ele>
  <time>2011-06-17T03:51:25Z</time>
  <speed>3.280000</speed>
</trkpt>
<trkpt lat="32.718898773" lon="35.076629639">
  <ele>499.064941</ele>
  <time>2011-06-17T03:51:27Z</time>
  <speed>3.050000</speed>
</trkpt>
<trkpt lat="32.718933105" lon="35.076591492">
  <ele>498.932129</ele>
  <time>2011-06-17T03:51:29Z</time>
  <speed>2.770000</speed>
</trkpt>
<trkpt lat="32.718952179" lon="35.076568604">
  <ele>499.314941</ele>
  <time>2011-06-17T03:51:30Z</time>
  <speed>2.800000</speed>
</trkpt>
<trkpt lat="32.718986511" lon="35.076515198">
  <ele>499.689941</ele>
  <time>2011-06-17T03:51:32Z</time>
  <speed>2.890000</speed>
</trkpt>
<trkpt lat="32.719009399" lon="35.076457977">
  <ele>499.635254</ele>
  <time>2011-06-17T03:51:34Z</time>
  <speed>2.990000</speed>
</trkpt>
<trkpt lat="32.719032288" lon="35.076412201">
  <ele>499.252441</ele>
  <time>2011-06-17T03:51:36Z</time>
  <speed>2.560000</speed>
</trkpt>
<trkpt lat="32.719055176" lon="35.076351166">
  <ele>499.494629</ele>
  <time>2011-06-17T03:51:38Z</time>
  <speed>2.790000</speed>
</trkpt>
<trkpt lat="32.719070435" lon="35.076324463">
  <ele>500.127441</ele>
  <time>2011-06-17T03:51:39Z</time>
  <speed>2.810000</speed>
</trkpt>
<trkpt lat="32.719085693" lon="35.076274872">
  <ele>500.643066</ele>
  <time>2011-06-17T03:51:41Z</time>
  <speed>2.560000</speed>
</trkpt>
<trkpt lat="32.719108582" lon="35.076225281">
  <ele>500.838379</ele>
  <time>2011-06-17T03:51:43Z</time>
  <speed>2.710000</speed>
</trkpt>
<trkpt lat="32.719131470" lon="35.076175690">
  <ele>501.025879</ele>
  <time>2011-06-17T03:51:45Z</time>
  <speed>2.520000</speed>
</trkpt>
<trkpt lat="32.719146729" lon="35.076145172">
  <ele>502.572754</ele>
  <time>2011-06-17T03:51:46Z</time>
  <speed>2.590000</speed>
</trkpt>
<trkpt lat="32.719173431" lon="35.076095581">
  <ele>502.869629</ele>
  <time>2011-06-17T03:51:48Z</time>
  <speed>2.700000</speed>
</trkpt>
<trkpt lat="32.719196320" lon="35.076053619">
  <ele>502.166504</ele>
  <time>2011-06-17T03:51:50Z</time>
  <speed>2.810000</speed>
</trkpt>
<trkpt lat="32.719215393" lon="35.076000214">
  <ele>502.072754</ele>
  <time>2011-06-17T03:51:52Z</time>
  <speed>2.880000</speed>
</trkpt>
<trkpt lat="32.719242096" lon="35.075942993">
  <ele>501.916504</ele>
  <time>2011-06-17T03:51:54Z</time>
  <speed>2.740000</speed>
</trkpt>
<trkpt lat="32.719257355" lon="35.075912476">
  <ele>502.932129</ele>
  <time>2011-06-17T03:51:55Z</time>
  <speed>2.740000</speed>
</trkpt>
<trkpt lat="32.719272614" lon="35.075885773">
  <ele>503.072754</ele>
  <time>2011-06-17T03:51:56Z</time>
  <speed>2.690000</speed>
</trkpt>
<trkpt lat="32.719280243" lon="35.075832367">
  <ele>502.393066</ele>
  <time>2011-06-17T03:51:58Z</time>
  <speed>2.660000</speed>
</trkpt>
<trkpt lat="32.719299316" lon="35.075778961">
  <ele>502.096191</ele>
  <time>2011-06-17T03:52:00Z</time>
  <speed>2.930000</speed>
</trkpt>
<trkpt lat="32.719333649" lon="35.075725555">
  <ele>502.260254</ele>
  <time>2011-06-17T03:52:02Z</time>
  <speed>2.910000</speed>
</trkpt>
<trkpt lat="32.719375610" lon="35.075679779">
  <ele>501.768066</ele>
  <time>2011-06-17T03:52:04Z</time>
  <speed>3.560000</speed>
</trkpt>
<trkpt lat="32.719394684" lon="35.075653076">
  <ele>501.213379</ele>
  <time>2011-06-17T03:52:05Z</time>
  <speed>3.460000</speed>
</trkpt>
<trkpt lat="32.719417572" lon="35.075626373">
  <ele>501.580566</ele>
  <time>2011-06-17T03:52:06Z</time>
  <speed>3.820000</speed>
</trkpt>
<trkpt lat="32.719444275" lon="35.075599670">
  <ele>501.635254</ele>
  <time>2011-06-17T03:52:07Z</time>
  <speed>3.700000</speed>
</trkpt>
<trkpt lat="32.719470978" lon="35.075572968">
  <ele>501.783691</ele>
  <time>2011-06-17T03:52:08Z</time>
  <speed>3.690000</speed>
</trkpt>
<trkpt lat="32.719490051" lon="35.075538635">
  <ele>501.768066</ele>
  <time>2011-06-17T03:52:09Z</time>
  <speed>4.090000</speed>
</trkpt>
<trkpt lat="32.719516754" lon="35.075508118">
  <ele>501.400879</ele>
  <time>2011-06-17T03:52:10Z</time>
  <speed>4.160000</speed>
</trkpt>
<trkpt lat="32.719539642" lon="35.075473785">
  <ele>501.025879</ele>
  <time>2011-06-17T03:52:11Z</time>
  <speed>4.040000</speed>
</trkpt>
<trkpt lat="32.719566345" lon="35.075443268">
  <ele>501.314941</ele>
  <time>2011-06-17T03:52:12Z</time>
  <speed>4.320000</speed>
</trkpt>
<trkpt lat="32.719593048" lon="35.075412750">
  <ele>500.525879</ele>
  <time>2011-06-17T03:52:13Z</time>
  <speed>4.790000</speed>
</trkpt>
<trkpt lat="32.719627380" lon="35.075386047">
  <ele>499.869629</ele>
  <time>2011-06-17T03:52:14Z</time>
  <speed>4.660000</speed>
</trkpt>
<trkpt lat="32.719657898" lon="35.075351715">
  <ele>499.455566</ele>
  <time>2011-06-17T03:52:15Z</time>
  <speed>4.860000</speed>
</trkpt>
<trkpt lat="32.719688416" lon="35.075313568">
  <ele>499.408691</ele>
  <time>2011-06-17T03:52:16Z</time>
  <speed>4.980000</speed>
</trkpt>
<trkpt lat="32.719722748" lon="35.075279236">
  <ele>499.361816</ele>
  <time>2011-06-17T03:52:17Z</time>
  <speed>4.950000</speed>
</trkpt>
<trkpt lat="32.719753265" lon="35.075241089">
  <ele>499.791504</ele>
  <time>2011-06-17T03:52:18Z</time>
  <speed>5.020000</speed>
</trkpt>
<trkpt lat="32.719791412" lon="35.075199127">
  <ele>500.033691</ele>
  <time>2011-06-17T03:52:19Z</time>
  <speed>4.980000</speed>
</trkpt>
<trkpt lat="32.719818115" lon="35.075164795">
  <ele>499.455566</ele>
  <time>2011-06-17T03:52:20Z</time>
  <speed>4.810000</speed>
</trkpt>
<trkpt lat="32.719848633" lon="35.075134277">
  <ele>499.439941</ele>
  <time>2011-06-17T03:52:21Z</time>
  <speed>4.540000</speed>
</trkpt>
<trkpt lat="32.719879150" lon="35.075103760">
  <ele>499.283691</ele>
  <time>2011-06-17T03:52:22Z</time>
  <speed>4.440000</speed>
</trkpt>
<trkpt lat="32.719905853" lon="35.075069427">
  <ele>498.869629</ele>
  <time>2011-06-17T03:52:23Z</time>
  <speed>4.330000</speed>
</trkpt>
<trkpt lat="32.719932556" lon="35.075038910">
  <ele>499.283691</ele>
  <time>2011-06-17T03:52:24Z</time>
  <speed>4.180000</speed>
</trkpt>
<trkpt lat="32.719963074" lon="35.075012207">
  <ele>499.283691</ele>
  <time>2011-06-17T03:52:25Z</time>
  <speed>4.180000</speed>
</trkpt>
<trkpt lat="32.719997406" lon="35.074993134">
  <ele>498.557129</ele>
  <time>2011-06-17T03:52:26Z</time>
  <speed>4.120000</speed>
</trkpt>
<trkpt lat="32.720027924" lon="35.074970245">
  <ele>498.463379</ele>
  <time>2011-06-17T03:52:27Z</time>
  <speed>3.960000</speed>
</trkpt>
<trkpt lat="32.720058441" lon="35.074943542">
  <ele>498.783691</ele>
  <time>2011-06-17T03:52:28Z</time>
  <speed>4.190000</speed>
</trkpt>
<trkpt lat="32.720092773" lon="35.074916840">
  <ele>499.229004</ele>
  <time>2011-06-17T03:52:29Z</time>
  <speed>4.090000</speed>
</trkpt>
<trkpt lat="32.720123291" lon="35.074897766">
  <ele>499.330566</ele>
  <time>2011-06-17T03:52:30Z</time>
  <speed>4.250000</speed>
</trkpt>
<trkpt lat="32.720157623" lon="35.074882507">
  <ele>498.955566</ele>
  <time>2011-06-17T03:52:31Z</time>
  <speed>4.120000</speed>
</trkpt>
<trkpt lat="32.720188141" lon="35.074859619">
  <ele>498.736816</ele>
  <time>2011-06-17T03:52:32Z</time>
  <speed>3.840000</speed>
</trkpt>
<trkpt lat="32.720218658" lon="35.074848175">
  <ele>498.768066</ele>
  <time>2011-06-17T03:52:33Z</time>
  <speed>3.600000</speed>
</trkpt>
<trkpt lat="32.720249176" lon="35.074832916">
  <ele>498.838379</ele>
  <time>2011-06-17T03:52:34Z</time>
  <speed>3.640000</speed>
</trkpt>
<trkpt lat="32.720275879" lon="35.074825287">
  <ele>498.807129</ele>
  <time>2011-06-17T03:52:35Z</time>
  <speed>3.650000</speed>
</trkpt>
<trkpt lat="32.720306396" lon="35.074810028">
  <ele>499.049316</ele>
  <time>2011-06-17T03:52:36Z</time>
  <speed>3.520000</speed>
</trkpt>
<trkpt lat="32.720333099" lon="35.074794769">
  <ele>499.119629</ele>
  <time>2011-06-17T03:52:37Z</time>
  <speed>3.380000</speed>
</trkpt>
<trkpt lat="32.720359802" lon="35.074779510">
  <ele>499.424316</ele>
  <time>2011-06-17T03:52:38Z</time>
  <speed>3.480000</speed>
</trkpt>
<trkpt lat="32.720386505" lon="35.074760437">
  <ele>499.799316</ele>
  <time>2011-06-17T03:52:39Z</time>
  <speed>3.200000</speed>
</trkpt>
<trkpt lat="32.720413208" lon="35.074745178">
  <ele>499.799316</ele>
  <time>2011-06-17T03:52:40Z</time>
  <speed>3.400000</speed>
</trkpt>
<trkpt lat="32.720439911" lon="35.074733734">
  <ele>499.885254</ele>
  <time>2011-06-17T03:52:41Z</time>
  <speed>3.320000</speed>
</trkpt>
<trkpt lat="32.720466614" lon="35.074726105">
  <ele>499.611816</ele>
  <time>2011-06-17T03:52:42Z</time>
  <speed>3.020000</speed>
</trkpt>
<trkpt lat="32.720497131" lon="35.074718475">
  <ele>499.338379</ele>
  <time>2011-06-17T03:52:43Z</time>
  <speed>3.380000</speed>
</trkpt>
<trkpt lat="32.720527649" lon="35.074707031">
  <ele>500.002441</ele>
  <time>2011-06-17T03:52:44Z</time>
  <speed>3.260000</speed>
</trkpt>
<trkpt lat="32.720554352" lon="35.074695587">
  <ele>500.236816</ele>
  <time>2011-06-17T03:52:45Z</time>
  <speed>3.170000</speed>
</trkpt>
<trkpt lat="32.720584869" lon="35.074676514">
  <ele>500.510254</ele>
  <time>2011-06-17T03:52:46Z</time>
  <speed>3.310000</speed>
</trkpt>
<trkpt lat="32.720615387" lon="35.074665070">
  <ele>500.760254</ele>
  <time>2011-06-17T03:52:47Z</time>
  <speed>3.070000</speed>
</trkpt>
<trkpt lat="32.720645905" lon="35.074653625">
  <ele>501.361816</ele>
  <time>2011-06-17T03:52:48Z</time>
  <speed>3.200000</speed>
</trkpt>
<trkpt lat="32.720672607" lon="35.074653625">
  <ele>500.557129</ele>
  <time>2011-06-17T03:52:49Z</time>
  <speed>3.130000</speed>
</trkpt>
<trkpt lat="32.720699310" lon="35.074649811">
  <ele>500.221191</ele>
  <time>2011-06-17T03:52:50Z</time>
  <speed>3.390000</speed>
</trkpt>
<trkpt lat="32.720729828" lon="35.074642181">
  <ele>500.252441</ele>
  <time>2011-06-17T03:52:51Z</time>
  <speed>3.410000</speed>
</trkpt>
<trkpt lat="32.720756531" lon="35.074634552">
  <ele>500.580566</ele>
  <time>2011-06-17T03:52:52Z</time>
  <speed>3.410000</speed>
</trkpt>
<trkpt lat="32.720790863" lon="35.074615479">
  <ele>500.736816</ele>
  <time>2011-06-17T03:52:53Z</time>
  <speed>3.360000</speed>
</trkpt>
<trkpt lat="32.720817566" lon="35.074604034">
  <ele>500.064941</ele>
  <time>2011-06-17T03:52:54Z</time>
  <speed>3.410000</speed>
</trkpt>
<trkpt lat="32.720840454" lon="35.074588776">
  <ele>499.393066</ele>
  <time>2011-06-17T03:52:55Z</time>
  <speed>3.470000</speed>
</trkpt>
<trkpt lat="32.720870972" lon="35.074569702">
  <ele>499.322754</ele>
  <time>2011-06-17T03:52:56Z</time>
  <speed>3.340000</speed>
</trkpt>
<trkpt lat="32.720890045" lon="35.074542999">
  <ele>499.135254</ele>
  <time>2011-06-17T03:52:57Z</time>
  <speed>3.420000</speed>
</trkpt>
<trkpt lat="32.720905304" lon="35.074508667">
  <ele>499.439941</ele>
  <time>2011-06-17T03:52:58Z</time>
  <speed>3.600000</speed>
</trkpt>
<trkpt lat="32.720924377" lon="35.074470520">
  <ele>499.354004</ele>
  <time>2011-06-17T03:52:59Z</time>
  <speed>4.260000</speed>
</trkpt>
<trkpt lat="32.720947266" lon="35.074436188">
  <ele>498.283691</ele>
  <time>2011-06-17T03:53:00Z</time>
  <speed>4.280000</speed>
</trkpt>
<trkpt lat="32.720973969" lon="35.074398041">
  <ele>498.729004</ele>
  <time>2011-06-17T03:53:01Z</time>
  <speed>4.330000</speed>
</trkpt>
<trkpt lat="32.721000671" lon="35.074371338">
  <ele>498.400879</ele>
  <time>2011-06-17T03:53:02Z</time>
  <speed>4.540000</speed>
</trkpt>
<trkpt lat="32.721035004" lon="35.074340820">
  <ele>498.275879</ele>
  <time>2011-06-17T03:53:03Z</time>
  <speed>4.320000</speed>
</trkpt>
<trkpt lat="32.721069336" lon="35.074317932">
  <ele>498.729004</ele>
  <time>2011-06-17T03:53:04Z</time>
  <speed>4.430000</speed>
</trkpt>
<trkpt lat="32.721103668" lon="35.074295044">
  <ele>498.229004</ele>
  <time>2011-06-17T03:53:05Z</time>
  <speed>4.230000</speed>
</trkpt>
<trkpt lat="32.721138000" lon="35.074279785">
  <ele>498.049316</ele>
  <time>2011-06-17T03:53:06Z</time>
  <speed>4.150000</speed>
</trkpt>
<trkpt lat="32.721172333" lon="35.074268341">
  <ele>497.197754</ele>
  <time>2011-06-17T03:53:07Z</time>
  <speed>4.120000</speed>
</trkpt>
<trkpt lat="32.721202850" lon="35.074249268">
  <ele>497.025879</ele>
  <time>2011-06-17T03:53:08Z</time>
  <speed>3.910000</speed>
</trkpt>
<trkpt lat="32.721233368" lon="35.074222565">
  <ele>496.807129</ele>
  <time>2011-06-17T03:53:09Z</time>
  <speed>3.780000</speed>
</trkpt>
<trkpt lat="32.721260071" lon="35.074199677">
  <ele>496.682129</ele>
  <time>2011-06-17T03:53:10Z</time>
  <speed>3.680000</speed>
</trkpt>
<trkpt lat="32.721290588" lon="35.074180603">
  <ele>496.986816</ele>
  <time>2011-06-17T03:53:11Z</time>
  <speed>3.570000</speed>
</trkpt>
<trkpt lat="32.721321106" lon="35.074165344">
  <ele>498.260254</ele>
  <time>2011-06-17T03:53:12Z</time>
  <speed>3.350000</speed>
</trkpt>
<trkpt lat="32.721343994" lon="35.074138641">
  <ele>498.807129</ele>
  <time>2011-06-17T03:53:13Z</time>
  <speed>3.190000</speed>
</trkpt>
<trkpt lat="32.721370697" lon="35.074119568">
  <ele>498.877441</ele>
  <time>2011-06-17T03:53:14Z</time>
  <speed>3.400000</speed>
</trkpt>
<trkpt lat="32.721393585" lon="35.074100494">
  <ele>498.869629</ele>
  <time>2011-06-17T03:53:15Z</time>
  <speed>3.210000</speed>
</trkpt>
<trkpt lat="32.721416473" lon="35.074081421">
  <ele>499.682129</ele>
  <time>2011-06-17T03:53:16Z</time>
  <speed>3.230000</speed>
</trkpt>
<trkpt lat="32.721435547" lon="35.074069977">
  <ele>501.635254</ele>
  <time>2011-06-17T03:53:17Z</time>
  <speed>2.890000</speed>
</trkpt>
<trkpt lat="32.721466064" lon="35.074050903">
  <ele>499.861816</ele>
  <time>2011-06-17T03:53:18Z</time>
  <speed>3.400000</speed>
</trkpt>
<trkpt lat="32.721492767" lon="35.074031830">
  <ele>500.408691</ele>
  <time>2011-06-17T03:53:19Z</time>
  <speed>3.050000</speed>
</trkpt>
<trkpt lat="32.721519470" lon="35.074008942">
  <ele>501.244629</ele>
  <time>2011-06-17T03:53:20Z</time>
  <speed>3.180000</speed>
</trkpt>
<trkpt lat="32.721549988" lon="35.073986053">
  <ele>501.432129</ele>
  <time>2011-06-17T03:53:21Z</time>
  <speed>3.090000</speed>
</trkpt>
<trkpt lat="32.721569061" lon="35.073963165">
  <ele>501.885254</ele>
  <time>2011-06-17T03:53:22Z</time>
  <speed>3.020000</speed>
</trkpt>
<trkpt lat="32.721591949" lon="35.073944092">
  <ele>502.424316</ele>
  <time>2011-06-17T03:53:23Z</time>
  <speed>3.060000</speed>
</trkpt>
<trkpt lat="32.721614838" lon="35.073917389">
  <ele>503.689941</ele>
  <time>2011-06-17T03:53:24Z</time>
  <speed>3.080000</speed>
</trkpt>
<trkpt lat="32.721641541" lon="35.073894501">
  <ele>504.072754</ele>
  <time>2011-06-17T03:53:25Z</time>
  <speed>2.910000</speed>
</trkpt>
<trkpt lat="32.721687317" lon="35.073871613">
  <ele>502.447754</ele>
  <time>2011-06-17T03:53:27Z</time>
  <speed>2.730000</speed>
</trkpt>
<trkpt lat="32.721710205" lon="35.073852539">
  <ele>503.486816</ele>
  <time>2011-06-17T03:53:28Z</time>
  <speed>3.090000</speed>
</trkpt>
<trkpt lat="32.721733093" lon="35.073829651">
  <ele>503.721191</ele>
  <time>2011-06-17T03:53:29Z</time>
  <speed>3.040000</speed>
</trkpt>
<trkpt lat="32.721755981" lon="35.073814392">
  <ele>503.572754</ele>
  <time>2011-06-17T03:53:30Z</time>
  <speed>3.070000</speed>
</trkpt>
<trkpt lat="32.721801758" lon="35.073780060">
  <ele>503.939941</ele>
  <time>2011-06-17T03:53:32Z</time>
  <speed>3.080000</speed>
</trkpt>
<trkpt lat="32.721828461" lon="35.073760986">
  <ele>504.877441</ele>
  <time>2011-06-17T03:53:33Z</time>
  <speed>3.180000</speed>
</trkpt>
<trkpt lat="32.721851349" lon="35.073745728">
  <ele>504.025879</ele>
  <time>2011-06-17T03:53:34Z</time>
  <speed>3.030000</speed>
</trkpt>
<trkpt lat="32.721874237" lon="35.073749542">
  <ele>500.611816</ele>
  <time>2011-06-17T03:53:35Z</time>
  <speed>3.020000</speed>
</trkpt>
<trkpt lat="32.721900940" lon="35.073745728">
  <ele>499.549316</ele>
  <time>2011-06-17T03:53:36Z</time>
  <speed>3.270000</speed>
</trkpt>
<trkpt lat="32.721927643" lon="35.073730469">
  <ele>500.291504</ele>
  <time>2011-06-17T03:53:37Z</time>
  <speed>3.230000</speed>
</trkpt>
<trkpt lat="32.721954346" lon="35.073715210">
  <ele>500.689941</ele>
  <time>2011-06-17T03:53:38Z</time>
  <speed>3.200000</speed>
</trkpt>
<trkpt lat="32.721981049" lon="35.073696136">
  <ele>501.010254</ele>
  <time>2011-06-17T03:53:39Z</time>
  <speed>3.130000</speed>
</trkpt>
<trkpt lat="32.722007751" lon="35.073688507">
  <ele>500.924316</ele>
  <time>2011-06-17T03:53:40Z</time>
  <speed>3.330000</speed>
</trkpt>
<trkpt lat="32.722038269" lon="35.073673248">
  <ele>500.994629</ele>
  <time>2011-06-17T03:53:41Z</time>
  <speed>3.870000</speed>
</trkpt>
<trkpt lat="32.722064972" lon="35.073650360">
  <ele>501.002441</ele>
  <time>2011-06-17T03:53:42Z</time>
  <speed>3.790000</speed>
</trkpt>
<trkpt lat="32.722095490" lon="35.073623657">
  <ele>500.361816</ele>
  <time>2011-06-17T03:53:43Z</time>
  <speed>3.830000</speed>
</trkpt>
<trkpt lat="32.722122192" lon="35.073596954">
  <ele>500.455566</ele>
  <time>2011-06-17T03:53:44Z</time>
  <speed>3.300000</speed>
</trkpt>
<trkpt lat="32.722145081" lon="35.073577881">
  <ele>501.072754</ele>
  <time>2011-06-17T03:53:45Z</time>
  <speed>3.250000</speed>
</trkpt>
<trkpt lat="32.722198486" lon="35.073558807">
  <ele>500.057129</ele>
  <time>2011-06-17T03:53:47Z</time>
  <speed>3.280000</speed>
</trkpt>
<trkpt lat="32.722225189" lon="35.073547363">
  <ele>500.330566</ele>
  <time>2011-06-17T03:53:48Z</time>
  <speed>2.970000</speed>
</trkpt>
<trkpt lat="32.722278595" lon="35.073539734">
  <ele>499.424316</ele>
  <time>2011-06-17T03:53:50Z</time>
  <speed>3.860000</speed>
</trkpt>
<trkpt lat="32.722309113" lon="35.073528290">
  <ele>499.111816</ele>
  <time>2011-06-17T03:53:51Z</time>
  <speed>3.860000</speed>
</trkpt>
<trkpt lat="32.722347260" lon="35.073520660">
  <ele>498.135254</ele>
  <time>2011-06-17T03:53:52Z</time>
  <speed>3.980000</speed>
</trkpt>
<trkpt lat="32.722381592" lon="35.073505402">
  <ele>498.900879</ele>
  <time>2011-06-17T03:53:53Z</time>
  <speed>4.430000</speed>
</trkpt>
<trkpt lat="32.722419739" lon="35.073497772">
  <ele>498.338379</ele>
  <time>2011-06-17T03:53:54Z</time>
  <speed>4.060000</speed>
</trkpt>
<trkpt lat="32.722454071" lon="35.073493958">
  <ele>498.455566</ele>
  <time>2011-06-17T03:53:55Z</time>
  <speed>4.310000</speed>
</trkpt>
<trkpt lat="32.722488403" lon="35.073490143">
  <ele>498.229004</ele>
  <time>2011-06-17T03:53:56Z</time>
  <speed>4.130000</speed>
</trkpt>
<trkpt lat="32.722526550" lon="35.073486328">
  <ele>497.814941</ele>
  <time>2011-06-17T03:53:57Z</time>
  <speed>3.830000</speed>
</trkpt>
<trkpt lat="32.722560883" lon="35.073478699">
  <ele>498.104004</ele>
  <time>2011-06-17T03:53:58Z</time>
  <speed>3.420000</speed>
</trkpt>
<trkpt lat="32.722587585" lon="35.073471069">
  <ele>497.830566</ele>
  <time>2011-06-17T03:53:59Z</time>
  <speed>3.540000</speed>
</trkpt>
<trkpt lat="32.722614288" lon="35.073455811">
  <ele>497.447754</ele>
  <time>2011-06-17T03:54:00Z</time>
  <speed>3.570000</speed>
</trkpt>
<trkpt lat="32.722644806" lon="35.073432922">
  <ele>495.979004</ele>
  <time>2011-06-17T03:54:01Z</time>
  <speed>3.100000</speed>
</trkpt>
<trkpt lat="32.722690582" lon="35.073406219">
  <ele>495.424316</ele>
  <time>2011-06-17T03:54:03Z</time>
  <speed>2.560000</speed>
</trkpt>
<trkpt lat="32.722705841" lon="35.073379517">
  <ele>496.346191</ele>
  <time>2011-06-17T03:54:04Z</time>
  <speed>3.060000</speed>
</trkpt>
<trkpt lat="32.722724915" lon="35.073348999">
  <ele>497.072754</ele>
  <time>2011-06-17T03:54:05Z</time>
  <speed>3.150000</speed>
</trkpt>
<trkpt lat="32.722736359" lon="35.073314667">
  <ele>497.221191</ele>
  <time>2011-06-17T03:54:06Z</time>
  <speed>3.240000</speed>
</trkpt>
<trkpt lat="32.722751617" lon="35.073280334">
  <ele>497.502441</ele>
  <time>2011-06-17T03:54:07Z</time>
  <speed>3.640000</speed>
</trkpt>
<trkpt lat="32.722763062" lon="35.073242188">
  <ele>497.377441</ele>
  <time>2011-06-17T03:54:08Z</time>
  <speed>3.590000</speed>
</trkpt>
<trkpt lat="32.722778320" lon="35.073200226">
  <ele>497.447754</ele>
  <time>2011-06-17T03:54:09Z</time>
  <speed>3.770000</speed>
</trkpt>
<trkpt lat="32.722789764" lon="35.073162079">
  <ele>497.744629</ele>
  <time>2011-06-17T03:54:10Z</time>
  <speed>3.850000</speed>
</trkpt>
<trkpt lat="32.722812653" lon="35.073123932">
  <ele>498.447754</ele>
  <time>2011-06-17T03:54:11Z</time>
  <speed>3.850000</speed>
</trkpt>
<trkpt lat="32.722824097" lon="35.073085785">
  <ele>498.807129</ele>
  <time>2011-06-17T03:54:12Z</time>
  <speed>3.860000</speed>
</trkpt>
<trkpt lat="32.722835541" lon="35.073043823">
  <ele>499.580566</ele>
  <time>2011-06-17T03:54:13Z</time>
  <speed>4.380000</speed>
</trkpt>
<trkpt lat="32.722850800" lon="35.073001862">
  <ele>500.611816</ele>
  <time>2011-06-17T03:54:14Z</time>
  <speed>4.060000</speed>
</trkpt>
<trkpt lat="32.722866058" lon="35.072963715">
  <ele>501.127441</ele>
  <time>2011-06-17T03:54:15Z</time>
  <speed>3.510000</speed>
</trkpt>
<trkpt lat="32.722877502" lon="35.072929382">
  <ele>501.408691</ele>
  <time>2011-06-17T03:54:16Z</time>
  <speed>3.170000</speed>
</trkpt>
<trkpt lat="32.722888947" lon="35.072898865">
  <ele>501.361816</ele>
  <time>2011-06-17T03:54:17Z</time>
  <speed>2.970000</speed>
</trkpt>
<trkpt lat="32.722900391" lon="35.072868347">
  <ele>501.705566</ele>
  <time>2011-06-17T03:54:18Z</time>
  <speed>3.230000</speed>
</trkpt>
<trkpt lat="32.722919464" lon="35.072841644">
  <ele>502.072754</ele>
  <time>2011-06-17T03:54:19Z</time>
  <speed>2.940000</speed>
</trkpt>
<trkpt lat="32.722942352" lon="35.072792053">
  <ele>503.072754</ele>
  <time>2011-06-17T03:54:21Z</time>
  <speed>2.500000</speed>
</trkpt>
<trkpt lat="32.722957611" lon="35.072746277">
  <ele>503.736816</ele>
  <time>2011-06-17T03:54:23Z</time>
  <speed>1.540000</speed>
</trkpt>
<trkpt lat="32.722953796" lon="35.072711945">
  <ele>503.510254</ele>
  <time>2011-06-17T03:54:25Z</time>
  <speed>0.820000</speed>
</trkpt>
<trkpt lat="32.722946167" lon="35.072681427">
  <ele>505.229004</ele>
  <time>2011-06-17T03:54:26Z</time>
  <speed>0.310000</speed>
</trkpt>
<trkpt lat="32.722930908" lon="35.072654724">
  <ele>506.229004</ele>
  <time>2011-06-17T03:54:41Z</time>
  <speed>1.310000</speed>
</trkpt>
<trkpt lat="32.722888947" lon="35.072616577">
  <ele>505.932129</ele>
  <time>2011-06-17T03:54:43Z</time>
  <speed>2.530000</speed>
</trkpt>
<trkpt lat="32.722835541" lon="35.072586060">
  <ele>505.236816</ele>
  <time>2011-06-17T03:54:45Z</time>
  <speed>3.290000</speed>
</trkpt>
<trkpt lat="32.722805023" lon="35.072551727">
  <ele>504.400879</ele>
  <time>2011-06-17T03:54:46Z</time>
  <speed>3.520000</speed>
</trkpt>
<trkpt lat="32.722778320" lon="35.072521210">
  <ele>503.729004</ele>
  <time>2011-06-17T03:54:47Z</time>
  <speed>3.570000</speed>
</trkpt>
<trkpt lat="32.722763062" lon="35.072471619">
  <ele>503.596191</ele>
  <time>2011-06-17T03:54:48Z</time>
  <speed>4.030000</speed>
</trkpt>
<trkpt lat="32.722751617" lon="35.072429657">
  <ele>503.088379</ele>
  <time>2011-06-17T03:54:49Z</time>
  <speed>3.920000</speed>
</trkpt>
<trkpt lat="32.722724915" lon="35.072387695">
  <ele>502.643066</ele>
  <time>2011-06-17T03:54:50Z</time>
  <speed>4.380000</speed>
</trkpt>
<trkpt lat="32.722713470" lon="35.072341919">
  <ele>502.197754</ele>
  <time>2011-06-17T03:54:51Z</time>
  <speed>4.110000</speed>
</trkpt>
<trkpt lat="32.722702026" lon="35.072288513">
  <ele>502.221191</ele>
  <time>2011-06-17T03:54:52Z</time>
  <speed>4.110000</speed>
</trkpt>
<trkpt lat="32.722698212" lon="35.072250366">
  <ele>502.010254</ele>
  <time>2011-06-17T03:54:53Z</time>
  <speed>3.500000</speed>
</trkpt>
<trkpt lat="32.722705841" lon="35.072208405">
  <ele>502.557129</ele>
  <time>2011-06-17T03:54:54Z</time>
  <speed>3.620000</speed>
</trkpt>
<trkpt lat="32.722713470" lon="35.072170258">
  <ele>502.213379</ele>
  <time>2011-06-17T03:54:55Z</time>
  <speed>3.480000</speed>
</trkpt>
<trkpt lat="32.722717285" lon="35.072139740">
  <ele>501.814941</ele>
  <time>2011-06-17T03:54:56Z</time>
  <speed>2.520000</speed>
</trkpt>
<trkpt lat="32.722702026" lon="35.072101593">
  <ele>501.486816</ele>
  <time>2011-06-17T03:54:57Z</time>
  <speed>3.370000</speed>
</trkpt>
<trkpt lat="32.722686768" lon="35.072055817">
  <ele>501.049316</ele>
  <time>2011-06-17T03:54:58Z</time>
  <speed>4.200000</speed>
</trkpt>
<trkpt lat="32.722679138" lon="35.071998596">
  <ele>500.393066</ele>
  <time>2011-06-17T03:54:59Z</time>
  <speed>4.450000</speed>
</trkpt>
<trkpt lat="32.722682953" lon="35.071949005">
  <ele>500.143066</ele>
  <time>2011-06-17T03:55:00Z</time>
  <speed>4.380000</speed>
</trkpt>
<trkpt lat="32.722682953" lon="35.071895599">
  <ele>500.111816</ele>
  <time>2011-06-17T03:55:01Z</time>
  <speed>4.260000</speed>
</trkpt>
<trkpt lat="32.722682953" lon="35.071826935">
  <ele>499.486816</ele>
  <time>2011-06-17T03:55:02Z</time>
  <speed>4.740000</speed>
</trkpt>
<trkpt lat="32.722686768" lon="35.071777344">
  <ele>499.322754</ele>
  <time>2011-06-17T03:55:03Z</time>
  <speed>5.000000</speed>
</trkpt>
<trkpt lat="32.722698212" lon="35.071723938">
  <ele>498.877441</ele>
  <time>2011-06-17T03:55:04Z</time>
  <speed>4.770000</speed>
</trkpt>
<trkpt lat="32.722713470" lon="35.071666718">
  <ele>498.150879</ele>
  <time>2011-06-17T03:55:05Z</time>
  <speed>5.030000</speed>
</trkpt>
<trkpt lat="32.722728729" lon="35.071617126">
  <ele>497.494629</ele>
  <time>2011-06-17T03:55:06Z</time>
  <speed>5.390000</speed>
</trkpt>
<trkpt lat="32.722743988" lon="35.071559906">
  <ele>496.744629</ele>
  <time>2011-06-17T03:55:07Z</time>
  <speed>5.440000</speed>
</trkpt>
<trkpt lat="32.722759247" lon="35.071514130">
  <ele>496.650879</ele>
  <time>2011-06-17T03:55:08Z</time>
  <speed>4.980000</speed>
</trkpt>
<trkpt lat="32.722782135" lon="35.071464539">
  <ele>496.338379</ele>
  <time>2011-06-17T03:55:09Z</time>
  <speed>5.210000</speed>
</trkpt>
<trkpt lat="32.722808838" lon="35.071426392">
  <ele>496.221191</ele>
  <time>2011-06-17T03:55:10Z</time>
  <speed>4.890000</speed>
</trkpt>
<trkpt lat="32.722835541" lon="35.071380615">
  <ele>496.283691</ele>
  <time>2011-06-17T03:55:11Z</time>
  <speed>5.080000</speed>
</trkpt>
<trkpt lat="32.722862244" lon="35.071338654">
  <ele>496.611816</ele>
  <time>2011-06-17T03:55:12Z</time>
  <speed>5.280000</speed>
</trkpt>
<trkpt lat="32.722892761" lon="35.071292877">
  <ele>496.416504</ele>
  <time>2011-06-17T03:55:13Z</time>
  <speed>4.680000</speed>
</trkpt>
<trkpt lat="32.722908020" lon="35.071235657">
  <ele>495.697754</ele>
  <time>2011-06-17T03:55:14Z</time>
  <speed>4.530000</speed>
</trkpt>
<trkpt lat="32.722930908" lon="35.071197510">
  <ele>495.338379</ele>
  <time>2011-06-17T03:55:15Z</time>
  <speed>3.700000</speed>
</trkpt>
<trkpt lat="32.722953796" lon="35.071163177">
  <ele>494.979004</ele>
  <time>2011-06-17T03:55:16Z</time>
  <speed>4.110000</speed>
</trkpt>
<trkpt lat="32.722980499" lon="35.071125031">
  <ele>494.572754</ele>
  <time>2011-06-17T03:55:17Z</time>
  <speed>4.790000</speed>
</trkpt>
<trkpt lat="32.723007202" lon="35.071090698">
  <ele>494.377441</ele>
  <time>2011-06-17T03:55:18Z</time>
  <speed>4.200000</speed>
</trkpt>
<trkpt lat="32.723037720" lon="35.071060181">
  <ele>493.783691</ele>
  <time>2011-06-17T03:55:19Z</time>
  <speed>4.250000</speed>
</trkpt>
<trkpt lat="32.723056793" lon="35.071014404">
  <ele>493.518066</ele>
  <time>2011-06-17T03:55:20Z</time>
  <speed>4.830000</speed>
</trkpt>
<trkpt lat="32.723075867" lon="35.070968628">
  <ele>492.955566</ele>
  <time>2011-06-17T03:55:21Z</time>
  <speed>4.660000</speed>
</trkpt>
<trkpt lat="32.723106384" lon="35.070926666">
  <ele>492.674316</ele>
  <time>2011-06-17T03:55:22Z</time>
  <speed>4.800000</speed>
</trkpt>
<trkpt lat="32.723136902" lon="35.070884705">
  <ele>492.361816</ele>
  <time>2011-06-17T03:55:23Z</time>
  <speed>4.740000</speed>
</trkpt>
<trkpt lat="32.723159790" lon="35.070846558">
  <ele>491.893066</ele>
  <time>2011-06-17T03:55:24Z</time>
  <speed>4.270000</speed>
</trkpt>
<trkpt lat="32.723175049" lon="35.070804596">
  <ele>491.268066</ele>
  <time>2011-06-17T03:55:25Z</time>
  <speed>4.100000</speed>
</trkpt>
<trkpt lat="32.723194122" lon="35.070762634">
  <ele>491.221191</ele>
  <time>2011-06-17T03:55:26Z</time>
  <speed>3.700000</speed>
</trkpt>
<trkpt lat="32.723217010" lon="35.070735931">
  <ele>490.557129</ele>
  <time>2011-06-17T03:55:27Z</time>
  <speed>3.790000</speed>
</trkpt>
<trkpt lat="32.723243713" lon="35.070705414">
  <ele>490.182129</ele>
  <time>2011-06-17T03:55:28Z</time>
  <speed>3.950000</speed>
</trkpt>
<trkpt lat="32.723270416" lon="35.070667267">
  <ele>490.416504</ele>
  <time>2011-06-17T03:55:29Z</time>
  <speed>4.860000</speed>
</trkpt>
<trkpt lat="32.723297119" lon="35.070621490">
  <ele>490.721191</ele>
  <time>2011-06-17T03:55:30Z</time>
  <speed>5.050000</speed>
</trkpt>
<trkpt lat="32.723320007" lon="35.070571899">
  <ele>490.158691</ele>
  <time>2011-06-17T03:55:31Z</time>
  <speed>4.820000</speed>
</trkpt>
<trkpt lat="32.723339081" lon="35.070533752">
  <ele>489.525879</ele>
  <time>2011-06-17T03:55:32Z</time>
  <speed>3.950000</speed>
</trkpt>
<trkpt lat="32.723358154" lon="35.070484161">
  <ele>490.369629</ele>
  <time>2011-06-17T03:55:33Z</time>
  <speed>3.920000</speed>
</trkpt>
<trkpt lat="32.723381042" lon="35.070449829">
  <ele>490.111816</ele>
  <time>2011-06-17T03:55:34Z</time>
  <speed>3.870000</speed>
</trkpt>
<trkpt lat="32.723396301" lon="35.070426941">
  <ele>489.549316</ele>
  <time>2011-06-17T03:55:35Z</time>
  <speed>3.350000</speed>
</trkpt>
<trkpt lat="32.723415375" lon="35.070392609">
  <ele>488.986816</ele>
  <time>2011-06-17T03:55:36Z</time>
  <speed>3.810000</speed>
</trkpt>
<trkpt lat="32.723438263" lon="35.070358276">
  <ele>488.182129</ele>
  <time>2011-06-17T03:55:37Z</time>
  <speed>4.060000</speed>
</trkpt>
<trkpt lat="32.723449707" lon="35.070323944">
  <ele>487.650879</ele>
  <time>2011-06-17T03:55:38Z</time>
  <speed>3.830000</speed>
</trkpt>
<trkpt lat="32.723453522" lon="35.070274353">
  <ele>487.080566</ele>
  <time>2011-06-17T03:55:39Z</time>
  <speed>4.250000</speed>
</trkpt>
<trkpt lat="32.723445892" lon="35.070228577">
  <ele>485.955566</ele>
  <time>2011-06-17T03:55:40Z</time>
  <speed>4.750000</speed>
</trkpt>
<trkpt lat="32.723445892" lon="35.070178986">
  <ele>485.291504</ele>
  <time>2011-06-17T03:55:41Z</time>
  <speed>4.510000</speed>
</trkpt>
<trkpt lat="32.723442078" lon="35.070129395">
  <ele>483.775879</ele>
  <time>2011-06-17T03:55:42Z</time>
  <speed>4.610000</speed>
</trkpt>
<trkpt lat="32.723434448" lon="35.070079803">
  <ele>483.080566</ele>
  <time>2011-06-17T03:55:43Z</time>
  <speed>4.450000</speed>
</trkpt>
<trkpt lat="32.723438263" lon="35.070030212">
  <ele>482.111816</ele>
  <time>2011-06-17T03:55:44Z</time>
  <speed>3.980000</speed>
</trkpt>
<trkpt lat="32.723445892" lon="35.069992065">
  <ele>480.893066</ele>
  <time>2011-06-17T03:55:45Z</time>
  <speed>2.930000</speed>
</trkpt>
<trkpt lat="32.723453522" lon="35.069931030">
  <ele>481.143066</ele>
  <time>2011-06-17T03:55:47Z</time>
  <speed>3.000000</speed>
</trkpt>
<trkpt lat="32.723457336" lon="35.069896698">
  <ele>480.432129</ele>
  <time>2011-06-17T03:55:48Z</time>
  <speed>2.660000</speed>
</trkpt>
<trkpt lat="32.723468781" lon="35.069831848">
  <ele>480.486816</ele>
  <time>2011-06-17T03:55:50Z</time>
  <speed>2.780000</speed>
</trkpt>
<trkpt lat="32.723472595" lon="35.069774628">
  <ele>480.197754</ele>
  <time>2011-06-17T03:55:52Z</time>
  <speed>2.690000</speed>
</trkpt>
<trkpt lat="32.723468781" lon="35.069736481">
  <ele>479.885254</ele>
  <time>2011-06-17T03:55:53Z</time>
  <speed>3.290000</speed>
</trkpt>
<trkpt lat="32.723461151" lon="35.069694519">
  <ele>479.354004</ele>
  <time>2011-06-17T03:55:54Z</time>
  <speed>3.900000</speed>
</trkpt>
<trkpt lat="32.723457336" lon="35.069652557">
  <ele>478.494629</ele>
  <time>2011-06-17T03:55:55Z</time>
  <speed>4.120000</speed>
</trkpt>
<trkpt lat="32.723457336" lon="35.069618225">
  <ele>477.463379</ele>
  <time>2011-06-17T03:55:56Z</time>
  <speed>3.470000</speed>
</trkpt>
<trkpt lat="32.723464966" lon="35.069580078">
  <ele>477.439941</ele>
  <time>2011-06-17T03:55:57Z</time>
  <speed>3.680000</speed>
</trkpt>
<trkpt lat="32.723472595" lon="35.069541931">
  <ele>477.088379</ele>
  <time>2011-06-17T03:55:58Z</time>
  <speed>4.210000</speed>
</trkpt>
<trkpt lat="32.723484039" lon="35.069496155">
  <ele>476.682129</ele>
  <time>2011-06-17T03:55:59Z</time>
  <speed>5.050000</speed>
</trkpt>
<trkpt lat="32.723499298" lon="35.069442749">
  <ele>477.330566</ele>
  <time>2011-06-17T03:56:00Z</time>
  <speed>4.900000</speed>
</trkpt>
<trkpt lat="32.723506927" lon="35.069393158">
  <ele>477.244629</ele>
  <time>2011-06-17T03:56:01Z</time>
  <speed>4.600000</speed>
</trkpt>
<trkpt lat="32.723518372" lon="35.069347382">
  <ele>476.666504</ele>
  <time>2011-06-17T03:56:02Z</time>
  <speed>4.790000</speed>
</trkpt>
<trkpt lat="32.723522186" lon="35.069290161">
  <ele>475.924316</ele>
  <time>2011-06-17T03:56:03Z</time>
  <speed>4.590000</speed>
</trkpt>
<trkpt lat="32.723533630" lon="35.069244385">
  <ele>475.518066</ele>
  <time>2011-06-17T03:56:04Z</time>
  <speed>4.060000</speed>
</trkpt>
<trkpt lat="32.723541260" lon="35.069198608">
  <ele>475.018066</ele>
  <time>2011-06-17T03:56:05Z</time>
  <speed>4.370000</speed>
</trkpt>
<trkpt lat="32.723552704" lon="35.069152832">
  <ele>474.400879</ele>
  <time>2011-06-17T03:56:06Z</time>
  <speed>4.000000</speed>
</trkpt>
<trkpt lat="32.723560333" lon="35.069110870">
  <ele>474.158691</ele>
  <time>2011-06-17T03:56:07Z</time>
  <speed>3.660000</speed>
</trkpt>
<trkpt lat="32.723567963" lon="35.069065094">
  <ele>474.104004</ele>
  <time>2011-06-17T03:56:08Z</time>
  <speed>3.850000</speed>
</trkpt>
<trkpt lat="32.723583221" lon="35.069026947">
  <ele>474.072754</ele>
  <time>2011-06-17T03:56:09Z</time>
  <speed>3.660000</speed>
</trkpt>
<trkpt lat="32.723587036" lon="35.068977356">
  <ele>473.721191</ele>
  <time>2011-06-17T03:56:10Z</time>
  <speed>4.300000</speed>
</trkpt>
<trkpt lat="32.723606110" lon="35.068931580">
  <ele>473.314941</ele>
  <time>2011-06-17T03:56:11Z</time>
  <speed>4.620000</speed>
</trkpt>
<trkpt lat="32.723628998" lon="35.068881989">
  <ele>472.627441</ele>
  <time>2011-06-17T03:56:12Z</time>
  <speed>4.790000</speed>
</trkpt>
<trkpt lat="32.723655701" lon="35.068840027">
  <ele>472.064941</ele>
  <time>2011-06-17T03:56:13Z</time>
  <speed>5.270000</speed>
</trkpt>
<trkpt lat="32.723686218" lon="35.068790436">
  <ele>471.604004</ele>
  <time>2011-06-17T03:56:14Z</time>
  <speed>5.350000</speed>
</trkpt>
<trkpt lat="32.723709106" lon="35.068725586">
  <ele>471.861816</ele>
  <time>2011-06-17T03:56:15Z</time>
  <speed>5.160000</speed>
</trkpt>
<trkpt lat="32.723724365" lon="35.068664551">
  <ele>470.916504</ele>
  <time>2011-06-17T03:56:16Z</time>
  <speed>5.190000</speed>
</trkpt>
<trkpt lat="32.723739624" lon="35.068614960">
  <ele>470.346191</ele>
  <time>2011-06-17T03:56:17Z</time>
  <speed>4.680000</speed>
</trkpt>
<trkpt lat="32.723754883" lon="35.068561554">
  <ele>469.674316</ele>
  <time>2011-06-17T03:56:18Z</time>
  <speed>4.530000</speed>
</trkpt>
<trkpt lat="32.723770142" lon="35.068523407">
  <ele>469.189941</ele>
  <time>2011-06-17T03:56:19Z</time>
  <speed>3.340000</speed>
</trkpt>
<trkpt lat="32.723804474" lon="35.068485260">
  <ele>468.018066</ele>
  <time>2011-06-17T03:56:21Z</time>
  <speed>2.950000</speed>
</trkpt>
<trkpt lat="32.723834991" lon="35.068473816">
  <ele>467.533691</ele>
  <time>2011-06-17T03:56:22Z</time>
  <speed>3.750000</speed>
</trkpt>
<trkpt lat="32.723869324" lon="35.068450928">
  <ele>466.814941</ele>
  <time>2011-06-17T03:56:23Z</time>
  <speed>3.850000</speed>
</trkpt>
<trkpt lat="32.723903656" lon="35.068428040">
  <ele>466.244629</ele>
  <time>2011-06-17T03:56:24Z</time>
  <speed>3.990000</speed>
</trkpt>
<trkpt lat="32.723934174" lon="35.068412781">
  <ele>465.658691</ele>
  <time>2011-06-17T03:56:25Z</time>
  <speed>3.830000</speed>
</trkpt>
<trkpt lat="32.723968506" lon="35.068393707">
  <ele>464.893066</ele>
  <time>2011-06-17T03:56:26Z</time>
  <speed>3.350000</speed>
</trkpt>
<trkpt lat="32.723999023" lon="35.068378448">
  <ele>464.127441</ele>
  <time>2011-06-17T03:56:27Z</time>
  <speed>3.880000</speed>
</trkpt>
<trkpt lat="32.724021912" lon="35.068363190">
  <ele>462.783691</ele>
  <time>2011-06-17T03:56:28Z</time>
  <speed>3.030000</speed>
</trkpt>
<trkpt lat="32.724040985" lon="35.068386078">
  <ele>461.143066</ele>
  <time>2011-06-17T03:56:29Z</time>
  <speed>2.870000</speed>
</trkpt>
<trkpt lat="32.724063873" lon="35.068420410">
  <ele>457.830566</ele>
  <time>2011-06-17T03:56:30Z</time>
  <speed>2.890000</speed>
</trkpt>
<trkpt lat="32.724094391" lon="35.068447113">
  <ele>455.799316</ele>
  <time>2011-06-17T03:56:31Z</time>
  <speed>3.150000</speed>
</trkpt>
<trkpt lat="32.724132538" lon="35.068473816">
  <ele>454.041504</ele>
  <time>2011-06-17T03:56:33Z</time>
  <speed>2.540000</speed>
</trkpt>
<trkpt lat="32.724166870" lon="35.068485260">
  <ele>452.768066</ele>
  <time>2011-06-17T03:56:34Z</time>
  <speed>2.920000</speed>
</trkpt>
<trkpt lat="32.724220276" lon="35.068489075">
  <ele>450.361816</ele>
  <time>2011-06-17T03:56:36Z</time>
  <speed>2.600000</speed>
</trkpt>
<trkpt lat="32.724243164" lon="35.068492889">
  <ele>449.713379</ele>
  <time>2011-06-17T03:56:37Z</time>
  <speed>2.550000</speed>
</trkpt>
<trkpt lat="32.724292755" lon="35.068492889">
  <ele>448.947754</ele>
  <time>2011-06-17T03:56:38Z</time>
  <speed>4.450000</speed>
</trkpt>
<trkpt lat="32.724323273" lon="35.068496704">
  <ele>447.830566</ele>
  <time>2011-06-17T03:56:39Z</time>
  <speed>4.200000</speed>
</trkpt>
<trkpt lat="32.724346161" lon="35.068511963">
  <ele>446.799316</ele>
  <time>2011-06-17T03:56:40Z</time>
  <speed>3.120000</speed>
</trkpt>
<trkpt lat="32.724380493" lon="35.068523407">
  <ele>445.338379</ele>
  <time>2011-06-17T03:56:41Z</time>
  <speed>2.670000</speed>
</trkpt>
<trkpt lat="32.724391937" lon="35.068569183">
  <ele>443.979004</ele>
  <time>2011-06-17T03:56:43Z</time>
  <speed>1.170000</speed>
</trkpt>
<trkpt lat="32.724422455" lon="35.068576813">
  <ele>442.018066</ele>
  <time>2011-06-17T03:56:46Z</time>
  <speed>0.980000</speed>
</trkpt>
<trkpt lat="32.724456787" lon="35.068592072">
  <ele>440.627441</ele>
  <time>2011-06-17T03:56:48Z</time>
  <speed>2.740000</speed>
</trkpt>
<trkpt lat="32.724487305" lon="35.068595886">
  <ele>439.838379</ele>
  <time>2011-06-17T03:56:49Z</time>
  <speed>3.450000</speed>
</trkpt>
<trkpt lat="32.724521637" lon="35.068611145">
  <ele>438.604004</ele>
  <time>2011-06-17T03:56:50Z</time>
  <speed>3.550000</speed>
</trkpt>
<trkpt lat="32.724555969" lon="35.068630219">
  <ele>437.268066</ele>
  <time>2011-06-17T03:56:51Z</time>
  <speed>2.890000</speed>
</trkpt>
<trkpt lat="32.724582672" lon="35.068645477">
  <ele>436.455566</ele>
  <time>2011-06-17T03:56:52Z</time>
  <speed>3.130000</speed>
</trkpt>
<trkpt lat="32.724636078" lon="35.068683624">
  <ele>435.221191</ele>
  <time>2011-06-17T03:56:54Z</time>
  <speed>3.360000</speed>
</trkpt>
<trkpt lat="32.724662781" lon="35.068687439">
  <ele>435.908691</ele>
  <time>2011-06-17T03:56:55Z</time>
  <speed>3.350000</speed>
</trkpt>
<trkpt lat="32.724700928" lon="35.068717957">
  <ele>435.158691</ele>
  <time>2011-06-17T03:56:56Z</time>
  <speed>3.350000</speed>
</trkpt>
<trkpt lat="32.724746704" lon="35.068725586">
  <ele>436.908691</ele>
  <time>2011-06-17T03:56:57Z</time>
  <speed>3.510000</speed>
</trkpt>
<trkpt lat="32.724777222" lon="35.068740845">
  <ele>436.627441</ele>
  <time>2011-06-17T03:56:58Z</time>
  <speed>3.230000</speed>
</trkpt>
<trkpt lat="32.724819183" lon="35.068737030">
  <ele>436.760254</ele>
  <time>2011-06-17T03:56:59Z</time>
  <speed>4.280000</speed>
</trkpt>
<trkpt lat="32.724857330" lon="35.068752289">
  <ele>435.861816</ele>
  <time>2011-06-17T03:57:00Z</time>
  <speed>4.570000</speed>
</trkpt>
<trkpt lat="32.724891663" lon="35.068790436">
  <ele>436.299316</ele>
  <time>2011-06-17T03:57:01Z</time>
  <speed>4.610000</speed>
</trkpt>
<trkpt lat="32.724918365" lon="35.068828583">
  <ele>435.346191</ele>
  <time>2011-06-17T03:57:02Z</time>
  <speed>3.920000</speed>
</trkpt>
<trkpt lat="32.724941254" lon="35.068851471">
  <ele>434.330566</ele>
  <time>2011-06-17T03:57:03Z</time>
  <speed>3.280000</speed>
</trkpt>
<trkpt lat="32.724983215" lon="35.068878174">
  <ele>433.314941</ele>
  <time>2011-06-17T03:57:04Z</time>
  <speed>4.250000</speed>
</trkpt>
<trkpt lat="32.725017548" lon="35.068897247">
  <ele>432.518066</ele>
  <time>2011-06-17T03:57:05Z</time>
  <speed>3.700000</speed>
</trkpt>
<trkpt lat="32.725048065" lon="35.068912506">
  <ele>431.986816</ele>
  <time>2011-06-17T03:57:06Z</time>
  <speed>3.570000</speed>
</trkpt>
<trkpt lat="32.725078583" lon="35.068931580">
  <ele>431.127441</ele>
  <time>2011-06-17T03:57:07Z</time>
  <speed>3.090000</speed>
</trkpt>
<trkpt lat="32.725105286" lon="35.068950653">
  <ele>430.924316</ele>
  <time>2011-06-17T03:57:08Z</time>
  <speed>2.660000</speed>
</trkpt>
<trkpt lat="32.725131989" lon="35.068992615">
  <ele>430.283691</ele>
  <time>2011-06-17T03:57:10Z</time>
  <speed>2.760000</speed>
</trkpt>
<trkpt lat="32.725143433" lon="35.069026947">
  <ele>429.916504</ele>
  <time>2011-06-17T03:57:11Z</time>
  <speed>3.420000</speed>
</trkpt>
<trkpt lat="32.725162506" lon="35.069061279">
  <ele>429.439941</ele>
  <time>2011-06-17T03:57:12Z</time>
  <speed>2.760000</speed>
</trkpt>
<trkpt lat="32.725185394" lon="35.069107056">
  <ele>429.299316</ele>
  <time>2011-06-17T03:57:14Z</time>
  <speed>1.890000</speed>
</trkpt>
<trkpt lat="32.725231171" lon="35.069145203">
  <ele>429.549316</ele>
  <time>2011-06-17T03:57:15Z</time>
  <speed>2.750000</speed>
</trkpt>
<trkpt lat="32.725269318" lon="35.069194794">
  <ele>428.955566</ele>
  <time>2011-06-17T03:57:17Z</time>
  <speed>2.160000</speed>
</trkpt>
<trkpt lat="32.725280762" lon="35.069225311">
  <ele>427.752441</ele>
  <time>2011-06-17T03:57:18Z</time>
  <speed>2.090000</speed>
</trkpt>
<trkpt lat="32.725288391" lon="35.069259644">
  <ele>428.494629</ele>
  <time>2011-06-17T03:57:19Z</time>
  <speed>1.940000</speed>
</trkpt>
<trkpt lat="32.725334167" lon="35.069316864">
  <ele>427.947754</ele>
  <time>2011-06-17T03:57:21Z</time>
  <speed>3.600000</speed>
</trkpt>
<trkpt lat="32.725349426" lon="35.069358826">
  <ele>428.244629</ele>
  <time>2011-06-17T03:57:22Z</time>
  <speed>2.570000</speed>
</trkpt>
<trkpt lat="32.725368500" lon="35.069396973">
  <ele>426.893066</ele>
  <time>2011-06-17T03:57:23Z</time>
  <speed>2.810000</speed>
</trkpt>
<trkpt lat="32.725437164" lon="35.069416046">
  <ele>426.127441</ele>
  <time>2011-06-17T03:57:24Z</time>
  <speed>2.600000</speed>
</trkpt>
<trkpt lat="32.725456238" lon="35.069473267">
  <ele>425.588379</ele>
  <time>2011-06-17T03:57:26Z</time>
  <speed>2.830000</speed>
</trkpt>
<trkpt lat="32.725471497" lon="35.069511414">
  <ele>425.900879</ele>
  <time>2011-06-17T03:57:27Z</time>
  <speed>2.700000</speed>
</trkpt>
<trkpt lat="32.725505829" lon="35.069541931">
  <ele>425.900879</ele>
  <time>2011-06-17T03:57:28Z</time>
  <speed>3.290000</speed>
</trkpt>
<trkpt lat="32.725524902" lon="35.069572449">
  <ele>425.072754</ele>
  <time>2011-06-17T03:57:29Z</time>
  <speed>3.360000</speed>
</trkpt>
<trkpt lat="32.725536346" lon="35.069614410">
  <ele>424.775879</ele>
  <time>2011-06-17T03:57:30Z</time>
  <speed>3.470000</speed>
</trkpt>
<trkpt lat="32.725543976" lon="35.069648743">
  <ele>424.197754</ele>
  <time>2011-06-17T03:57:31Z</time>
  <speed>3.910000</speed>
</trkpt>
<trkpt lat="32.725551605" lon="35.069694519">
  <ele>422.666504</ele>
  <time>2011-06-17T03:57:32Z</time>
  <speed>4.330000</speed>
</trkpt>
<trkpt lat="32.725555420" lon="35.069744110">
  <ele>421.846191</ele>
  <time>2011-06-17T03:57:33Z</time>
  <speed>4.160000</speed>
</trkpt>
<trkpt lat="32.725631714" lon="35.069782257">
  <ele>420.541504</ele>
  <time>2011-06-17T03:57:34Z</time>
  <speed>3.750000</speed>
</trkpt>
<trkpt lat="32.725635529" lon="35.069824219">
  <ele>420.963379</ele>
  <time>2011-06-17T03:57:35Z</time>
  <speed>3.280000</speed>
</trkpt>
<trkpt lat="32.725643158" lon="35.069889069">
  <ele>422.057129</ele>
  <time>2011-06-17T03:57:37Z</time>
  <speed>2.230000</speed>
</trkpt>
<trkpt lat="32.725654602" lon="35.069923401">
  <ele>422.314941</ele>
  <time>2011-06-17T03:57:38Z</time>
  <speed>3.050000</speed>
</trkpt>
<trkpt lat="32.725666046" lon="35.069957733">
  <ele>422.768066</ele>
  <time>2011-06-17T03:57:39Z</time>
  <speed>3.280000</speed>
</trkpt>
<trkpt lat="32.725677490" lon="35.069992065">
  <ele>423.900879</ele>
  <time>2011-06-17T03:57:40Z</time>
  <speed>2.360000</speed>
</trkpt>
<trkpt lat="32.725696564" lon="35.070030212">
  <ele>424.518066</ele>
  <time>2011-06-17T03:57:42Z</time>
  <speed>1.560000</speed>
</trkpt>
<trkpt lat="32.725719452" lon="35.070049286">
  <ele>423.799316</ele>
  <time>2011-06-17T03:57:43Z</time>
  <speed>2.600000</speed>
</trkpt>
<trkpt lat="32.725776672" lon="35.070072174">
  <ele>424.518066</ele>
  <time>2011-06-17T03:57:44Z</time>
  <speed>3.460000</speed>
</trkpt>
<trkpt lat="32.725795746" lon="35.070102692">
  <ele>424.369629</ele>
  <time>2011-06-17T03:57:45Z</time>
  <speed>2.720000</speed>
</trkpt>
<trkpt lat="32.725799561" lon="35.070133209">
  <ele>424.697754</ele>
  <time>2011-06-17T03:57:46Z</time>
  <speed>2.530000</speed>
</trkpt>
<trkpt lat="32.725803375" lon="35.070190430">
  <ele>424.354004</ele>
  <time>2011-06-17T03:57:48Z</time>
  <speed>2.520000</speed>
</trkpt>
<trkpt lat="32.725803375" lon="35.070247650">
  <ele>423.564941</ele>
  <time>2011-06-17T03:57:50Z</time>
  <speed>3.050000</speed>
</trkpt>
<trkpt lat="32.725811005" lon="35.070278168">
  <ele>423.064941</ele>
  <time>2011-06-17T03:57:51Z</time>
  <speed>3.180000</speed>
</trkpt>
<trkpt lat="32.725845337" lon="35.070335388">
  <ele>422.822754</ele>
  <time>2011-06-17T03:57:53Z</time>
  <speed>2.510000</speed>
</trkpt>
<trkpt lat="32.725875854" lon="35.070346832">
  <ele>422.361816</ele>
  <time>2011-06-17T03:57:54Z</time>
  <speed>3.480000</speed>
</trkpt>
<trkpt lat="32.725910187" lon="35.070362091">
  <ele>422.057129</ele>
  <time>2011-06-17T03:57:55Z</time>
  <speed>3.650000</speed>
</trkpt>
<trkpt lat="32.725944519" lon="35.070377350">
  <ele>421.361816</ele>
  <time>2011-06-17T03:57:56Z</time>
  <speed>3.550000</speed>
</trkpt>
<trkpt lat="32.725978851" lon="35.070381165">
  <ele>421.588379</ele>
  <time>2011-06-17T03:57:57Z</time>
  <speed>1.850000</speed>
</trkpt>
<trkpt lat="32.726016998" lon="35.070377350">
  <ele>421.455566</ele>
  <time>2011-06-17T03:57:58Z</time>
  <speed>2.070000</speed>
</trkpt>
<trkpt lat="32.726043701" lon="35.070377350">
  <ele>421.213379</ele>
  <time>2011-06-17T03:57:59Z</time>
  <speed>2.960000</speed>
</trkpt>
<trkpt lat="32.726081848" lon="35.070365906">
  <ele>421.502441</ele>
  <time>2011-06-17T03:58:00Z</time>
  <speed>4.130000</speed>
</trkpt>
<trkpt lat="32.726108551" lon="35.070369720">
  <ele>422.025879</ele>
  <time>2011-06-17T03:58:01Z</time>
  <speed>3.930000</speed>
</trkpt>
<trkpt lat="32.726177216" lon="35.070362091">
  <ele>423.432129</ele>
  <time>2011-06-17T03:58:02Z</time>
  <speed>3.670000</speed>
</trkpt>
<trkpt lat="32.726230621" lon="35.070323944">
  <ele>424.197754</ele>
  <time>2011-06-17T03:58:04Z</time>
  <speed>3.910000</speed>
</trkpt>
<trkpt lat="32.726268768" lon="35.070293427">
  <ele>425.275879</ele>
  <time>2011-06-17T03:58:05Z</time>
  <speed>3.680000</speed>
</trkpt>
<trkpt lat="32.726310730" lon="35.070262909">
  <ele>425.814941</ele>
  <time>2011-06-17T03:58:06Z</time>
  <speed>4.050000</speed>
</trkpt>
<trkpt lat="32.726352692" lon="35.070220947">
  <ele>427.041504</ele>
  <time>2011-06-17T03:58:07Z</time>
  <speed>4.070000</speed>
</trkpt>
<trkpt lat="32.726383209" lon="35.070190430">
  <ele>426.861816</ele>
  <time>2011-06-17T03:58:08Z</time>
  <speed>4.060000</speed>
</trkpt>
<trkpt lat="32.726413727" lon="35.070156097">
  <ele>427.713379</ele>
  <time>2011-06-17T03:58:09Z</time>
  <speed>4.440000</speed>
</trkpt>
<trkpt lat="32.726444244" lon="35.070110321">
  <ele>428.502441</ele>
  <time>2011-06-17T03:58:10Z</time>
  <speed>4.440000</speed>
</trkpt>
<trkpt lat="32.726470947" lon="35.070068359">
  <ele>429.307129</ele>
  <time>2011-06-17T03:58:11Z</time>
  <speed>4.680000</speed>
</trkpt>
<trkpt lat="32.726497650" lon="35.070026398">
  <ele>429.674316</ele>
  <time>2011-06-17T03:58:12Z</time>
  <speed>4.880000</speed>
</trkpt>
<trkpt lat="32.726520538" lon="35.069980621">
  <ele>429.572754</ele>
  <time>2011-06-17T03:58:13Z</time>
  <speed>4.360000</speed>
</trkpt>
<trkpt lat="32.726539612" lon="35.069946289">
  <ele>429.252441</ele>
  <time>2011-06-17T03:58:14Z</time>
  <speed>3.750000</speed>
</trkpt>
<trkpt lat="32.726570129" lon="35.069923401">
  <ele>429.369629</ele>
  <time>2011-06-17T03:58:15Z</time>
  <speed>2.950000</speed>
</trkpt>
<trkpt lat="32.726596832" lon="35.069911957">
  <ele>430.564941</ele>
  <time>2011-06-17T03:58:16Z</time>
  <speed>2.800000</speed>
</trkpt>
<trkpt lat="32.726646423" lon="35.069900513">
  <ele>431.502441</ele>
  <time>2011-06-17T03:58:18Z</time>
  <speed>2.970000</speed>
</trkpt>
<trkpt lat="32.726696014" lon="35.069911957">
  <ele>431.533691</ele>
  <time>2011-06-17T03:58:20Z</time>
  <speed>2.550000</speed>
</trkpt>
<trkpt lat="32.726749420" lon="35.069919586">
  <ele>432.354004</ele>
  <time>2011-06-17T03:58:22Z</time>
  <speed>2.010000</speed>
</trkpt>
<trkpt lat="32.726764679" lon="35.069908142">
  <ele>434.791504</ele>
  <time>2011-06-17T03:58:24Z</time>
  <speed>1.100000</speed>
</trkpt>
<trkpt lat="32.726802826" lon="35.069889069">
  <ele>435.650879</ele>
  <time>2011-06-17T03:58:27Z</time>
  <speed>2.260000</speed>
</trkpt>
<trkpt lat="32.726837158" lon="35.069885254">
  <ele>437.072754</ele>
  <time>2011-06-17T03:58:29Z</time>
  <speed>2.410000</speed>
</trkpt>
<trkpt lat="32.726882935" lon="35.069908142">
  <ele>436.697754</ele>
  <time>2011-06-17T03:58:31Z</time>
  <speed>2.170000</speed>
</trkpt>
<trkpt lat="32.726924896" lon="35.069923401">
  <ele>437.713379</ele>
  <time>2011-06-17T03:58:33Z</time>
  <speed>2.200000</speed>
</trkpt>
<trkpt lat="32.726963043" lon="35.069927216">
  <ele>438.252441</ele>
  <time>2011-06-17T03:58:35Z</time>
  <speed>2.240000</speed>
</trkpt>
<trkpt lat="32.727005005" lon="35.069938660">
  <ele>436.635254</ele>
  <time>2011-06-17T03:58:37Z</time>
  <speed>2.670000</speed>
</trkpt>
<trkpt lat="32.727031708" lon="35.069931030">
  <ele>435.549316</ele>
  <time>2011-06-17T03:58:38Z</time>
  <speed>3.290000</speed>
</trkpt>
<trkpt lat="32.727058411" lon="35.069919586">
  <ele>435.299316</ele>
  <time>2011-06-17T03:58:39Z</time>
  <speed>2.850000</speed>
</trkpt>
<trkpt lat="32.727085114" lon="35.069900513">
  <ele>435.400879</ele>
  <time>2011-06-17T03:58:40Z</time>
  <speed>3.370000</speed>
</trkpt>
<trkpt lat="32.727108002" lon="35.069885254">
  <ele>435.314941</ele>
  <time>2011-06-17T03:58:41Z</time>
  <speed>3.790000</speed>
</trkpt>
<trkpt lat="32.727142334" lon="35.069869995">
  <ele>434.666504</ele>
  <time>2011-06-17T03:58:42Z</time>
  <speed>3.770000</speed>
</trkpt>
<trkpt lat="32.727176666" lon="35.069866180">
  <ele>433.822754</ele>
  <time>2011-06-17T03:58:43Z</time>
  <speed>3.930000</speed>
</trkpt>
<trkpt lat="32.727207184" lon="35.069866180">
  <ele>432.932129</ele>
  <time>2011-06-17T03:58:44Z</time>
  <speed>4.130000</speed>
</trkpt>
<trkpt lat="32.727249146" lon="35.069881439">
  <ele>432.080566</ele>
  <time>2011-06-17T03:58:45Z</time>
  <speed>4.190000</speed>
</trkpt>
<trkpt lat="32.727279663" lon="35.069892883">
  <ele>432.689941</ele>
  <time>2011-06-17T03:58:46Z</time>
  <speed>3.710000</speed>
</trkpt>
<trkpt lat="32.727306366" lon="35.069904327">
  <ele>432.166504</ele>
  <time>2011-06-17T03:58:47Z</time>
  <speed>2.820000</speed>
</trkpt>
<trkpt lat="32.727355957" lon="35.069923401">
  <ele>431.994629</ele>
  <time>2011-06-17T03:58:49Z</time>
  <speed>3.140000</speed>
</trkpt>
<trkpt lat="32.727386475" lon="35.069931030">
  <ele>431.768066</ele>
  <time>2011-06-17T03:58:50Z</time>
  <speed>3.560000</speed>
</trkpt>
<trkpt lat="32.727428436" lon="35.069942474">
  <ele>431.275879</ele>
  <time>2011-06-17T03:58:51Z</time>
  <speed>3.860000</speed>
</trkpt>
<trkpt lat="32.727455139" lon="35.069976807">
  <ele>428.854004</ele>
  <time>2011-06-17T03:58:52Z</time>
  <speed>3.620000</speed>
</trkpt>
<trkpt lat="32.727481842" lon="35.069992065">
  <ele>428.416504</ele>
  <time>2011-06-17T03:58:53Z</time>
  <speed>3.060000</speed>
</trkpt>
<trkpt lat="32.727512360" lon="35.070030212">
  <ele>427.885254</ele>
  <time>2011-06-17T03:58:55Z</time>
  <speed>2.400000</speed>
</trkpt>
<trkpt lat="32.727539063" lon="35.070068359">
  <ele>427.158691</ele>
  <time>2011-06-17T03:58:57Z</time>
  <speed>2.620000</speed>
</trkpt>
<trkpt lat="32.727565765" lon="35.070095062">
  <ele>426.682129</ele>
  <time>2011-06-17T03:58:58Z</time>
  <speed>2.350000</speed>
</trkpt>
<trkpt lat="32.727592468" lon="35.070137024">
  <ele>427.080566</ele>
  <time>2011-06-17T03:59:00Z</time>
  <speed>2.670000</speed>
</trkpt>
<trkpt lat="32.727626801" lon="35.070159912">
  <ele>427.072754</ele>
  <time>2011-06-17T03:59:02Z</time>
  <speed>2.010000</speed>
</trkpt>
<trkpt lat="32.727634430" lon="35.070194244">
  <ele>427.025879</ele>
  <time>2011-06-17T03:59:04Z</time>
  <speed>1.340000</speed>
</trkpt>
<trkpt lat="32.727638245" lon="35.070232391">
  <ele>427.174316</ele>
  <time>2011-06-17T03:59:07Z</time>
  <speed>1.230000</speed>
</trkpt>
<trkpt lat="32.727664948" lon="35.070270538">
  <ele>426.752441</ele>
  <time>2011-06-17T03:59:09Z</time>
  <speed>2.030000</speed>
</trkpt>
<trkpt lat="32.727668762" lon="35.070304871">
  <ele>426.588379</ele>
  <time>2011-06-17T03:59:10Z</time>
  <speed>2.140000</speed>
</trkpt>
<trkpt lat="32.727680206" lon="35.070365906">
  <ele>426.135254</ele>
  <time>2011-06-17T03:59:12Z</time>
  <speed>2.520000</speed>
</trkpt>
<trkpt lat="32.727680206" lon="35.070400238">
  <ele>426.275879</ele>
  <time>2011-06-17T03:59:13Z</time>
  <speed>2.660000</speed>
</trkpt>
<trkpt lat="32.727714539" lon="35.070419312">
  <ele>425.729004</ele>
  <time>2011-06-17T03:59:14Z</time>
  <speed>2.950000</speed>
</trkpt>
<trkpt lat="32.727729797" lon="35.070457458">
  <ele>425.143066</ele>
  <time>2011-06-17T03:59:15Z</time>
  <speed>3.600000</speed>
</trkpt>
<trkpt lat="32.727733612" lon="35.070495605">
  <ele>424.744629</ele>
  <time>2011-06-17T03:59:16Z</time>
  <speed>3.330000</speed>
</trkpt>
<trkpt lat="32.727745056" lon="35.070526123">
  <ele>425.518066</ele>
  <time>2011-06-17T03:59:17Z</time>
  <speed>3.360000</speed>
</trkpt>
<trkpt lat="32.727748871" lon="35.070560455">
  <ele>425.486816</ele>
  <time>2011-06-17T03:59:18Z</time>
  <speed>3.010000</speed>
</trkpt>
<trkpt lat="32.727771759" lon="35.070594788">
  <ele>425.252441</ele>
  <time>2011-06-17T03:59:19Z</time>
  <speed>3.790000</speed>
</trkpt>
<trkpt lat="32.727790833" lon="35.070625305">
  <ele>425.268066</ele>
  <time>2011-06-17T03:59:20Z</time>
  <speed>3.460000</speed>
</trkpt>
<trkpt lat="32.727802277" lon="35.070671082">
  <ele>425.354004</ele>
  <time>2011-06-17T03:59:21Z</time>
  <speed>3.350000</speed>
</trkpt>
<trkpt lat="32.727802277" lon="35.070705414">
  <ele>424.908691</ele>
  <time>2011-06-17T03:59:22Z</time>
  <speed>2.670000</speed>
</trkpt>
<trkpt lat="32.727802277" lon="35.070739746">
  <ele>424.314941</ele>
  <time>2011-06-17T03:59:23Z</time>
  <speed>3.360000</speed>
</trkpt>
<trkpt lat="32.727806091" lon="35.070777893">
  <ele>423.650879</ele>
  <time>2011-06-17T03:59:24Z</time>
  <speed>3.130000</speed>
</trkpt>
<trkpt lat="32.727813721" lon="35.070812225">
  <ele>423.361816</ele>
  <time>2011-06-17T03:59:25Z</time>
  <speed>3.100000</speed>
</trkpt>
<trkpt lat="32.727817535" lon="35.070861816">
  <ele>423.494629</ele>
  <time>2011-06-17T03:59:26Z</time>
  <speed>3.200000</speed>
</trkpt>
<trkpt lat="32.727832794" lon="35.070896149">
  <ele>423.174316</ele>
  <time>2011-06-17T03:59:27Z</time>
  <speed>3.160000</speed>
</trkpt>
<trkpt lat="32.727844238" lon="35.070926666">
  <ele>422.619629</ele>
  <time>2011-06-17T03:59:28Z</time>
  <speed>3.260000</speed>
</trkpt>
<trkpt lat="32.727855682" lon="35.070968628">
  <ele>422.221191</ele>
  <time>2011-06-17T03:59:29Z</time>
  <speed>3.150000</speed>
</trkpt>
<trkpt lat="32.727882385" lon="35.070995331">
  <ele>422.197754</ele>
  <time>2011-06-17T03:59:30Z</time>
  <speed>3.050000</speed>
</trkpt>
<trkpt lat="32.727905273" lon="35.071010590">
  <ele>421.643066</ele>
  <time>2011-06-17T03:59:31Z</time>
  <speed>2.900000</speed>
</trkpt>
<trkpt lat="32.727954865" lon="35.071022034">
  <ele>421.072754</ele>
  <time>2011-06-17T03:59:32Z</time>
  <speed>4.120000</speed>
</trkpt>
<trkpt lat="32.728012085" lon="35.071044922">
  <ele>421.557129</ele>
  <time>2011-06-17T03:59:33Z</time>
  <speed>5.560000</speed>
</trkpt>
<trkpt lat="32.728061676" lon="35.071094513">
  <ele>421.854004</ele>
  <time>2011-06-17T03:59:34Z</time>
  <speed>5.130000</speed>
</trkpt>
<trkpt lat="32.728103638" lon="35.071128845">
  <ele>421.619629</ele>
  <time>2011-06-17T03:59:35Z</time>
  <speed>5.070000</speed>
</trkpt>
<trkpt lat="32.728141785" lon="35.071163177">
  <ele>421.119629</ele>
  <time>2011-06-17T03:59:36Z</time>
  <speed>5.130000</speed>
</trkpt>
<trkpt lat="32.728199005" lon="35.071201324">
  <ele>420.619629</ele>
  <time>2011-06-17T03:59:37Z</time>
  <speed>5.540000</speed>
</trkpt>
<trkpt lat="32.728248596" lon="35.071231842">
  <ele>420.494629</ele>
  <time>2011-06-17T03:59:38Z</time>
  <speed>5.520000</speed>
</trkpt>
<trkpt lat="32.728282928" lon="35.071247101">
  <ele>421.158691</ele>
  <time>2011-06-17T03:59:39Z</time>
  <speed>4.760000</speed>
</trkpt>
<trkpt lat="32.728324890" lon="35.071254730">
  <ele>421.596191</ele>
  <time>2011-06-17T03:59:40Z</time>
  <speed>3.310000</speed>
</trkpt>
<trkpt lat="32.728355408" lon="35.071258545">
  <ele>421.674316</ele>
  <time>2011-06-17T03:59:41Z</time>
  <speed>2.590000</speed>
</trkpt>
<trkpt lat="32.728412628" lon="35.071269989">
  <ele>421.588379</ele>
  <time>2011-06-17T03:59:43Z</time>
  <speed>2.750000</speed>
</trkpt>
<trkpt lat="32.728439331" lon="35.071258545">
  <ele>421.291504</ele>
  <time>2011-06-17T03:59:44Z</time>
  <speed>2.490000</speed>
</trkpt>
<trkpt lat="32.728462219" lon="35.071239471">
  <ele>421.033691</ele>
  <time>2011-06-17T03:59:45Z</time>
  <speed>2.070000</speed>
</trkpt>
<trkpt lat="32.728492737" lon="35.071208954">
  <ele>422.041504</ele>
  <time>2011-06-17T03:59:46Z</time>
  <speed>3.100000</speed>
</trkpt>
<trkpt lat="32.728523254" lon="35.071189880">
  <ele>423.072754</ele>
  <time>2011-06-17T03:59:47Z</time>
  <speed>3.500000</speed>
</trkpt>
<trkpt lat="32.728553772" lon="35.071166992">
  <ele>423.682129</ele>
  <time>2011-06-17T03:59:48Z</time>
  <speed>2.980000</speed>
</trkpt>
<trkpt lat="32.728595734" lon="35.071170807">
  <ele>423.502441</ele>
  <time>2011-06-17T03:59:50Z</time>
  <speed>2.520000</speed>
</trkpt>
<trkpt lat="32.728618622" lon="35.071228027">
  <ele>423.096191</ele>
  <time>2011-06-17T03:59:52Z</time>
  <speed>3.160000</speed>
</trkpt>
<trkpt lat="32.728633881" lon="35.071277618">
  <ele>422.939941</ele>
  <time>2011-06-17T03:59:54Z</time>
  <speed>2.560000</speed>
</trkpt>
<trkpt lat="32.728618622" lon="35.071334839">
  <ele>423.018066</ele>
  <time>2011-06-17T03:59:56Z</time>
  <speed>2.490000</speed>
</trkpt>
<trkpt lat="32.728622437" lon="35.071388245">
  <ele>421.986816</ele>
  <time>2011-06-17T03:59:58Z</time>
  <speed>2.490000</speed>
</trkpt>
<trkpt lat="32.728622437" lon="35.071445465">
  <ele>420.760254</ele>
  <time>2011-06-17T04:00:00Z</time>
  <speed>2.290000</speed>
</trkpt>
<trkpt lat="32.728630066" lon="35.071491241">
  <ele>419.752441</ele>
  <time>2011-06-17T04:00:02Z</time>
  <speed>2.230000</speed>
</trkpt>
<trkpt lat="32.728641510" lon="35.071517944">
  <ele>418.916504</ele>
  <time>2011-06-17T04:00:03Z</time>
  <speed>2.690000</speed>
</trkpt>
<trkpt lat="32.728649139" lon="35.071563721">
  <ele>419.197754</ele>
  <time>2011-06-17T04:00:04Z</time>
  <speed>3.470000</speed>
</trkpt>
<trkpt lat="32.728672028" lon="35.071601868">
  <ele>417.924316</ele>
  <time>2011-06-17T04:00:05Z</time>
  <speed>3.310000</speed>
</trkpt>
<trkpt lat="32.728702545" lon="35.071647644">
  <ele>416.229004</ele>
  <time>2011-06-17T04:00:07Z</time>
  <speed>1.950000</speed>
</trkpt>
<trkpt lat="32.728736877" lon="35.071643829">
  <ele>416.713379</ele>
  <time>2011-06-17T04:00:09Z</time>
  <speed>1.610000</speed>
</trkpt>
<trkpt lat="32.728759766" lon="35.071620941">
  <ele>416.791504</ele>
  <time>2011-06-17T04:00:10Z</time>
  <speed>2.170000</speed>
</trkpt>
<trkpt lat="32.728775024" lon="35.071590424">
  <ele>416.393066</ele>
  <time>2011-06-17T04:00:11Z</time>
  <speed>3.130000</speed>
</trkpt>
<trkpt lat="32.728786469" lon="35.071544647">
  <ele>416.854004</ele>
  <time>2011-06-17T04:00:12Z</time>
  <speed>4.120000</speed>
</trkpt>
<trkpt lat="32.728786469" lon="35.071487427">
  <ele>416.354004</ele>
  <time>2011-06-17T04:00:13Z</time>
  <speed>4.840000</speed>
</trkpt>
<trkpt lat="32.728771210" lon="35.071434021">
  <ele>416.760254</ele>
  <time>2011-06-17T04:00:14Z</time>
  <speed>5.360000</speed>
</trkpt>
<trkpt lat="32.728755951" lon="35.071372986">
  <ele>416.830566</ele>
  <time>2011-06-17T04:00:15Z</time>
  <speed>5.440000</speed>
</trkpt>
<trkpt lat="32.728740692" lon="35.071308136">
  <ele>417.229004</ele>
  <time>2011-06-17T04:00:16Z</time>
  <speed>5.930000</speed>
</trkpt>
<trkpt lat="32.728721619" lon="35.071243286">
  <ele>417.783691</ele>
  <time>2011-06-17T04:00:17Z</time>
  <speed>6.340000</speed>
</trkpt>
<trkpt lat="32.728702545" lon="35.071170807">
  <ele>417.979004</ele>
  <time>2011-06-17T04:00:18Z</time>
  <speed>6.610000</speed>
</trkpt>
<trkpt lat="32.728683472" lon="35.071098328">
  <ele>418.752441</ele>
  <time>2011-06-17T04:00:19Z</time>
  <speed>6.270000</speed>
</trkpt>
<trkpt lat="32.728660583" lon="35.071029663">
  <ele>419.197754</ele>
  <time>2011-06-17T04:00:20Z</time>
  <speed>6.630000</speed>
</trkpt>
<trkpt lat="32.728641510" lon="35.070957184">
  <ele>418.682129</ele>
  <time>2011-06-17T04:00:21Z</time>
  <speed>6.820000</speed>
</trkpt>
<trkpt lat="32.728607178" lon="35.070884705">
  <ele>419.127441</ele>
  <time>2011-06-17T04:00:22Z</time>
  <speed>7.130000</speed>
</trkpt>
<trkpt lat="32.728572845" lon="35.070819855">
  <ele>418.604004</ele>
  <time>2011-06-17T04:00:23Z</time>
  <speed>7.280000</speed>
</trkpt>
<trkpt lat="32.728538513" lon="35.070747375">
  <ele>418.760254</ele>
  <time>2011-06-17T04:00:24Z</time>
  <speed>7.690000</speed>
</trkpt>
<trkpt lat="32.728500366" lon="35.070671082">
  <ele>418.604004</ele>
  <time>2011-06-17T04:00:25Z</time>
  <speed>8.190000</speed>
</trkpt>
<trkpt lat="32.728458405" lon="35.070598602">
  <ele>418.541504</ele>
  <time>2011-06-17T04:00:26Z</time>
  <speed>8.370000</speed>
</trkpt>
<trkpt lat="32.728412628" lon="35.070526123">
  <ele>418.260254</ele>
  <time>2011-06-17T04:00:27Z</time>
  <speed>7.880000</speed>
</trkpt>
<trkpt lat="32.728370667" lon="35.070449829">
  <ele>418.010254</ele>
  <time>2011-06-17T04:00:28Z</time>
  <speed>8.460000</speed>
</trkpt>
<trkpt lat="32.728324890" lon="35.070373535">
  <ele>417.455566</ele>
  <time>2011-06-17T04:00:29Z</time>
  <speed>9.130000</speed>
</trkpt>
<trkpt lat="32.728282928" lon="35.070285797">
  <ele>417.025879</ele>
  <time>2011-06-17T04:00:30Z</time>
  <speed>9.340000</speed>
</trkpt>
<trkpt lat="32.728244781" lon="35.070190430">
  <ele>416.455566</ele>
  <time>2011-06-17T04:00:31Z</time>
  <speed>9.110000</speed>
</trkpt>
<trkpt lat="32.728206635" lon="35.070098877">
  <ele>416.533691</ele>
  <time>2011-06-17T04:00:32Z</time>
  <speed>9.800000</speed>
</trkpt>
<trkpt lat="32.728168488" lon="35.070003510">
  <ele>415.861816</ele>
  <time>2011-06-17T04:00:33Z</time>
  <speed>8.770000</speed>
</trkpt>
<trkpt lat="32.728130341" lon="35.069923401">
  <ele>415.658691</ele>
  <time>2011-06-17T04:00:34Z</time>
  <speed>8.600000</speed>
</trkpt>
<trkpt lat="32.728092194" lon="35.069843292">
  <ele>415.314941</ele>
  <time>2011-06-17T04:00:35Z</time>
  <speed>8.210000</speed>
</trkpt>
<trkpt lat="32.728057861" lon="35.069770813">
  <ele>415.033691</ele>
  <time>2011-06-17T04:00:36Z</time>
  <speed>7.410000</speed>
</trkpt>
<trkpt lat="32.728031158" lon="35.069690704">
  <ele>414.650879</ele>
  <time>2011-06-17T04:00:37Z</time>
  <speed>7.640000</speed>
</trkpt>
<trkpt lat="32.728000641" lon="35.069625854">
  <ele>413.713379</ele>
  <time>2011-06-17T04:00:38Z</time>
  <speed>7.600000</speed>
</trkpt>
<trkpt lat="32.727962494" lon="35.069557190">
  <ele>412.971191</ele>
  <time>2011-06-17T04:00:39Z</time>
  <speed>7.650000</speed>
</trkpt>
<trkpt lat="32.727916718" lon="35.069488525">
  <ele>412.924316</ele>
  <time>2011-06-17T04:00:40Z</time>
  <speed>8.140000</speed>
</trkpt>
<trkpt lat="32.727867126" lon="35.069423676">
  <ele>412.471191</ele>
  <time>2011-06-17T04:00:41Z</time>
  <speed>7.740000</speed>
</trkpt>
<trkpt lat="32.727806091" lon="35.069374084">
  <ele>411.596191</ele>
  <time>2011-06-17T04:00:42Z</time>
  <speed>7.710000</speed>
</trkpt>
<trkpt lat="32.727748871" lon="35.069339752">
  <ele>410.096191</ele>
  <time>2011-06-17T04:00:43Z</time>
  <speed>7.830000</speed>
</trkpt>
<trkpt lat="32.727687836" lon="35.069316864">
  <ele>408.455566</ele>
  <time>2011-06-17T04:00:44Z</time>
  <speed>7.440000</speed>
</trkpt>
<trkpt lat="32.727622986" lon="35.069282532">
  <ele>408.119629</ele>
  <time>2011-06-17T04:00:45Z</time>
  <speed>7.660000</speed>
</trkpt>
<trkpt lat="32.727554321" lon="35.069271088">
  <ele>406.182129</ele>
  <time>2011-06-17T04:00:46Z</time>
  <speed>7.830000</speed>
</trkpt>
<trkpt lat="32.727485657" lon="35.069267273">
  <ele>403.814941</ele>
  <time>2011-06-17T04:00:47Z</time>
  <speed>8.150000</speed>
</trkpt>
<trkpt lat="32.727405548" lon="35.069248199">
  <ele>403.025879</ele>
  <time>2011-06-17T04:00:48Z</time>
  <speed>8.640000</speed>
</trkpt>
<trkpt lat="32.727325439" lon="35.069244385">
  <ele>401.760254</ele>
  <time>2011-06-17T04:00:49Z</time>
  <speed>9.150000</speed>
</trkpt>
<trkpt lat="32.727233887" lon="35.069240570">
  <ele>401.479004</ele>
  <time>2011-06-17T04:00:50Z</time>
  <speed>9.800000</speed>
</trkpt>
<trkpt lat="32.727142334" lon="35.069240570">
  <ele>400.979004</ele>
  <time>2011-06-17T04:00:51Z</time>
  <speed>10.400000</speed>
</trkpt>
<trkpt lat="32.727050781" lon="35.069236755">
  <ele>400.213379</ele>
  <time>2011-06-17T04:00:52Z</time>
  <speed>9.980000</speed>
</trkpt>
<trkpt lat="32.726959229" lon="35.069232941">
  <ele>399.768066</ele>
  <time>2011-06-17T04:00:53Z</time>
  <speed>9.720000</speed>
</trkpt>
<trkpt lat="32.726863861" lon="35.069236755">
  <ele>399.877441</ele>
  <time>2011-06-17T04:00:54Z</time>
  <speed>9.390000</speed>
</trkpt>
<trkpt lat="32.726779938" lon="35.069232941">
  <ele>399.096191</ele>
  <time>2011-06-17T04:00:55Z</time>
  <speed>9.140000</speed>
</trkpt>
<trkpt lat="32.726699829" lon="35.069225311">
  <ele>398.572754</ele>
  <time>2011-06-17T04:00:56Z</time>
  <speed>8.970000</speed>
</trkpt>
<trkpt lat="32.726612091" lon="35.069236755">
  <ele>398.611816</ele>
  <time>2011-06-17T04:00:57Z</time>
  <speed>8.570000</speed>
</trkpt>
<trkpt lat="32.726543427" lon="35.069248199">
  <ele>396.963379</ele>
  <time>2011-06-17T04:00:58Z</time>
  <speed>7.760000</speed>
</trkpt>
<trkpt lat="32.726467133" lon="35.069263458">
  <ele>395.682129</ele>
  <time>2011-06-17T04:00:59Z</time>
  <speed>7.920000</speed>
</trkpt>
<trkpt lat="32.726398468" lon="35.069278717">
  <ele>394.299316</ele>
  <time>2011-06-17T04:01:00Z</time>
  <speed>7.080000</speed>
</trkpt>
<trkpt lat="32.726341248" lon="35.069282532">
  <ele>392.822754</ele>
  <time>2011-06-17T04:01:01Z</time>
  <speed>5.390000</speed>
</trkpt>
<trkpt lat="32.726303101" lon="35.069263458">
  <ele>392.979004</ele>
  <time>2011-06-17T04:01:02Z</time>
  <speed>4.200000</speed>
</trkpt>
<trkpt lat="32.726280212" lon="35.069232941">
  <ele>392.408691</ele>
  <time>2011-06-17T04:01:03Z</time>
  <speed>3.480000</speed>
</trkpt>
<trkpt lat="32.726261139" lon="35.069202423">
  <ele>392.244629</ele>
  <time>2011-06-17T04:01:04Z</time>
  <speed>3.620000</speed>
</trkpt>
<trkpt lat="32.726249695" lon="35.069160461">
  <ele>392.158691</ele>
  <time>2011-06-17T04:01:05Z</time>
  <speed>4.160000</speed>
</trkpt>
<trkpt lat="32.726238251" lon="35.069107056">
  <ele>392.033691</ele>
  <time>2011-06-17T04:01:06Z</time>
  <speed>5.000000</speed>
</trkpt>
<trkpt lat="32.726234436" lon="35.069042206">
  <ele>391.768066</ele>
  <time>2011-06-17T04:01:07Z</time>
  <speed>5.690000</speed>
</trkpt>
<trkpt lat="32.726242065" lon="35.068977356">
  <ele>391.744629</ele>
  <time>2011-06-17T04:01:08Z</time>
  <speed>5.930000</speed>
</trkpt>
<trkpt lat="32.726257324" lon="35.068916321">
  <ele>391.385254</ele>
  <time>2011-06-17T04:01:09Z</time>
  <speed>6.070000</speed>
</trkpt>
<trkpt lat="32.726268768" lon="35.068847656">
  <ele>390.760254</ele>
  <time>2011-06-17T04:01:10Z</time>
  <speed>6.960000</speed>
</trkpt>
<trkpt lat="32.726287842" lon="35.068767548">
  <ele>390.291504</ele>
  <time>2011-06-17T04:01:11Z</time>
  <speed>7.280000</speed>
</trkpt>
<trkpt lat="32.726318359" lon="35.068675995">
  <ele>390.010254</ele>
  <time>2011-06-17T04:01:12Z</time>
  <speed>8.240000</speed>
</trkpt>
<trkpt lat="32.726352692" lon="35.068588257">
  <ele>389.994629</ele>
  <time>2011-06-17T04:01:13Z</time>
  <speed>8.120000</speed>
</trkpt>
<trkpt lat="32.726387024" lon="35.068504333">
  <ele>390.666504</ele>
  <time>2011-06-17T04:01:14Z</time>
  <speed>7.940000</speed>
</trkpt>
<trkpt lat="32.726409912" lon="35.068420410">
  <ele>390.752441</ele>
  <time>2011-06-17T04:01:15Z</time>
  <speed>7.320000</speed>
</trkpt>
<trkpt lat="32.726417542" lon="35.068336487">
  <ele>390.900879</ele>
  <time>2011-06-17T04:01:16Z</time>
  <speed>7.200000</speed>
</trkpt>
<trkpt lat="32.726406097" lon="35.068252563">
  <ele>389.885254</ele>
  <time>2011-06-17T04:01:17Z</time>
  <speed>7.130000</speed>
</trkpt>
<trkpt lat="32.726383209" lon="35.068180084">
  <ele>389.174316</ele>
  <time>2011-06-17T04:01:18Z</time>
  <speed>7.010000</speed>
</trkpt>
<trkpt lat="32.726348877" lon="35.068111420">
  <ele>388.439941</ele>
  <time>2011-06-17T04:01:19Z</time>
  <speed>6.510000</speed>
</trkpt>
<trkpt lat="32.726310730" lon="35.068054199">
  <ele>387.432129</ele>
  <time>2011-06-17T04:01:20Z</time>
  <speed>6.620000</speed>
</trkpt>
<trkpt lat="32.726268768" lon="35.068008423">
  <ele>386.658691</ele>
  <time>2011-06-17T04:01:21Z</time>
  <speed>6.080000</speed>
</trkpt>
<trkpt lat="32.726226807" lon="35.067962646">
  <ele>385.955566</ele>
  <time>2011-06-17T04:01:22Z</time>
  <speed>6.640000</speed>
</trkpt>
<trkpt lat="32.726184845" lon="35.067901611">
  <ele>386.010254</ele>
  <time>2011-06-17T04:01:23Z</time>
  <speed>6.920000</speed>
</trkpt>
<trkpt lat="32.726146698" lon="35.067844391">
  <ele>385.525879</ele>
  <time>2011-06-17T04:01:24Z</time>
  <speed>6.950000</speed>
</trkpt>
<trkpt lat="32.726104736" lon="35.067775726">
  <ele>385.158691</ele>
  <time>2011-06-17T04:01:25Z</time>
  <speed>7.650000</speed>
</trkpt>
<trkpt lat="32.726062775" lon="35.067699432">
  <ele>384.947754</ele>
  <time>2011-06-17T04:01:26Z</time>
  <speed>8.530000</speed>
</trkpt>
<trkpt lat="32.726020813" lon="35.067619324">
  <ele>384.689941</ele>
  <time>2011-06-17T04:01:27Z</time>
  <speed>8.510000</speed>
</trkpt>
<trkpt lat="32.725971222" lon="35.067531586">
  <ele>384.596191</ele>
  <time>2011-06-17T04:01:28Z</time>
  <speed>9.300000</speed>
</trkpt>
<trkpt lat="32.725914001" lon="35.067443848">
  <ele>384.666504</ele>
  <time>2011-06-17T04:01:29Z</time>
  <speed>9.790000</speed>
</trkpt>
<trkpt lat="32.725860596" lon="35.067356110">
  <ele>384.189941</ele>
  <time>2011-06-17T04:01:30Z</time>
  <speed>8.960000</speed>
</trkpt>
<trkpt lat="32.725811005" lon="35.067272186">
  <ele>383.846191</ele>
  <time>2011-06-17T04:01:31Z</time>
  <speed>8.640000</speed>
</trkpt>
<trkpt lat="32.725761414" lon="35.067184448">
  <ele>383.416504</ele>
  <time>2011-06-17T04:01:32Z</time>
  <speed>8.750000</speed>
</trkpt>
<trkpt lat="32.725711823" lon="35.067111969">
  <ele>382.705566</ele>
  <time>2011-06-17T04:01:33Z</time>
  <speed>8.610000</speed>
</trkpt>
<trkpt lat="32.725666046" lon="35.067035675">
  <ele>382.361816</ele>
  <time>2011-06-17T04:01:34Z</time>
  <speed>7.470000</speed>
</trkpt>
<trkpt lat="32.725624084" lon="35.066970825">
  <ele>381.994629</ele>
  <time>2011-06-17T04:01:35Z</time>
  <speed>7.300000</speed>
</trkpt>
<trkpt lat="32.725574493" lon="35.066909790">
  <ele>381.197754</ele>
  <time>2011-06-17T04:01:36Z</time>
  <speed>8.090000</speed>
</trkpt>
<trkpt lat="32.725524902" lon="35.066848755">
  <ele>380.471191</ele>
  <time>2011-06-17T04:01:37Z</time>
  <speed>8.010000</speed>
</trkpt>
<trkpt lat="32.725471497" lon="35.066783905">
  <ele>379.799316</ele>
  <time>2011-06-17T04:01:38Z</time>
  <speed>8.510000</speed>
</trkpt>
<trkpt lat="32.725418091" lon="35.066719055">
  <ele>379.283691</ele>
  <time>2011-06-17T04:01:39Z</time>
  <speed>8.890000</speed>
</trkpt>
<trkpt lat="32.725357056" lon="35.066646576">
  <ele>378.557129</ele>
  <time>2011-06-17T04:01:40Z</time>
  <speed>9.180000</speed>
</trkpt>
<trkpt lat="32.725288391" lon="35.066581726">
  <ele>377.830566</ele>
  <time>2011-06-17T04:01:41Z</time>
  <speed>9.390000</speed>
</trkpt>
<trkpt lat="32.725223541" lon="35.066524506">
  <ele>377.221191</ele>
  <time>2011-06-17T04:01:42Z</time>
  <speed>8.810000</speed>
</trkpt>
<trkpt lat="32.725154877" lon="35.066467285">
  <ele>376.643066</ele>
  <time>2011-06-17T04:01:43Z</time>
  <speed>9.220000</speed>
</trkpt>
<trkpt lat="32.725078583" lon="35.066421509">
  <ele>376.205566</ele>
  <time>2011-06-17T04:01:44Z</time>
  <speed>9.920001</speed>
</trkpt>
<trkpt lat="32.725002289" lon="35.066387177">
  <ele>374.744629</ele>
  <time>2011-06-17T04:01:45Z</time>
  <speed>9.120000</speed>
</trkpt>
<trkpt lat="32.724925995" lon="35.066345215">
  <ele>374.135254</ele>
  <time>2011-06-17T04:01:46Z</time>
  <speed>9.000000</speed>
</trkpt>
<trkpt lat="32.724842072" lon="35.066314697">
  <ele>373.010254</ele>
  <time>2011-06-17T04:01:47Z</time>
  <speed>8.660000</speed>
</trkpt>
<trkpt lat="32.724761963" lon="35.066295624">
  <ele>372.361816</ele>
  <time>2011-06-17T04:01:48Z</time>
  <speed>8.280000</speed>
</trkpt>
<trkpt lat="32.724681854" lon="35.066280365">
  <ele>371.049316</ele>
  <time>2011-06-17T04:01:49Z</time>
  <speed>7.800000</speed>
</trkpt>
<trkpt lat="32.724609375" lon="35.066272736">
  <ele>370.354004</ele>
  <time>2011-06-17T04:01:50Z</time>
  <speed>8.160000</speed>
</trkpt>
<trkpt lat="32.724533081" lon="35.066261292">
  <ele>368.963379</ele>
  <time>2011-06-17T04:01:51Z</time>
  <speed>8.220000</speed>
</trkpt>
<trkpt lat="32.724460602" lon="35.066253662">
  <ele>367.658691</ele>
  <time>2011-06-17T04:01:52Z</time>
  <speed>7.900000</speed>
</trkpt>
<trkpt lat="32.724391937" lon="35.066238403">
  <ele>366.822754</ele>
  <time>2011-06-17T04:01:53Z</time>
  <speed>6.950000</speed>
</trkpt>
<trkpt lat="32.724334717" lon="35.066211700">
  <ele>367.221191</ele>
  <time>2011-06-17T04:01:54Z</time>
  <speed>5.780000</speed>
</trkpt>
<trkpt lat="32.724300385" lon="35.066165924">
  <ele>366.432129</ele>
  <time>2011-06-17T04:01:55Z</time>
  <speed>5.630000</speed>
</trkpt>
<trkpt lat="32.724269867" lon="35.066108704">
  <ele>365.807129</ele>
  <time>2011-06-17T04:01:56Z</time>
  <speed>6.230000</speed>
</trkpt>
<trkpt lat="32.724258423" lon="35.066051483">
  <ele>364.900879</ele>
  <time>2011-06-17T04:01:57Z</time>
  <speed>5.630000</speed>
</trkpt>
<trkpt lat="32.724262238" lon="35.065990448">
  <ele>364.432129</ele>
  <time>2011-06-17T04:01:58Z</time>
  <speed>4.620000</speed>
</trkpt>
<trkpt lat="32.724277496" lon="35.065937042">
  <ele>363.627441</ele>
  <time>2011-06-17T04:01:59Z</time>
  <speed>5.060000</speed>
</trkpt>
<trkpt lat="32.724296570" lon="35.065887451">
  <ele>362.791504</ele>
  <time>2011-06-17T04:02:00Z</time>
  <speed>5.490000</speed>
</trkpt>
<trkpt lat="32.724323273" lon="35.065834045">
  <ele>362.010254</ele>
  <time>2011-06-17T04:02:01Z</time>
  <speed>6.200000</speed>
</trkpt>
<trkpt lat="32.724376678" lon="35.065830231">
  <ele>359.197754</ele>
  <time>2011-06-17T04:02:02Z</time>
  <speed>5.790000</speed>
</trkpt>
<trkpt lat="32.724422455" lon="35.065795898">
  <ele>358.299316</ele>
  <time>2011-06-17T04:02:03Z</time>
  <speed>6.120000</speed>
</trkpt>
<trkpt lat="32.724472046" lon="35.065757751">
  <ele>357.502441</ele>
  <time>2011-06-17T04:02:04Z</time>
  <speed>5.920000</speed>
</trkpt>
<trkpt lat="32.724521637" lon="35.065731049">
  <ele>356.721191</ele>
  <time>2011-06-17T04:02:05Z</time>
  <speed>5.900000</speed>
</trkpt>
<trkpt lat="32.724571228" lon="35.065700531">
  <ele>355.799316</ele>
  <time>2011-06-17T04:02:06Z</time>
  <speed>6.130000</speed>
</trkpt>
<trkpt lat="32.724628448" lon="35.065670013">
  <ele>354.564941</ele>
  <time>2011-06-17T04:02:07Z</time>
  <speed>6.230000</speed>
</trkpt>
<trkpt lat="32.724685669" lon="35.065635681">
  <ele>353.861816</ele>
  <time>2011-06-17T04:02:08Z</time>
  <speed>6.590000</speed>
</trkpt>
<trkpt lat="32.724742889" lon="35.065601349">
  <ele>353.088379</ele>
  <time>2011-06-17T04:02:09Z</time>
  <speed>6.910000</speed>
</trkpt>
<trkpt lat="32.724834442" lon="35.065555573">
  <ele>352.588379</ele>
  <time>2011-06-17T04:02:10Z</time>
  <speed>7.120000</speed>
</trkpt>
<trkpt lat="32.724884033" lon="35.065505981">
  <ele>351.838379</ele>
  <time>2011-06-17T04:02:11Z</time>
  <speed>7.160000</speed>
</trkpt>
<trkpt lat="32.724937439" lon="35.065444946">
  <ele>351.072754</ele>
  <time>2011-06-17T04:02:12Z</time>
  <speed>7.280000</speed>
</trkpt>
<trkpt lat="32.724979401" lon="35.065376282">
  <ele>349.861816</ele>
  <time>2011-06-17T04:02:13Z</time>
  <speed>7.600000</speed>
</trkpt>
<trkpt lat="32.725021362" lon="35.065299988">
  <ele>349.018066</ele>
  <time>2011-06-17T04:02:14Z</time>
  <speed>7.990000</speed>
</trkpt>
<trkpt lat="32.725059509" lon="35.065227509">
  <ele>347.893066</ele>
  <time>2011-06-17T04:02:15Z</time>
  <speed>7.380000</speed>
</trkpt>
<trkpt lat="32.725093842" lon="35.065193176">
  <ele>345.400879</ele>
  <time>2011-06-17T04:02:16Z</time>
  <speed>5.680000</speed>
</trkpt>
<trkpt lat="32.725131989" lon="35.065170288">
  <ele>345.346191</ele>
  <time>2011-06-17T04:02:17Z</time>
  <speed>5.170000</speed>
</trkpt>
<trkpt lat="32.725181580" lon="35.065185547">
  <ele>344.932129</ele>
  <time>2011-06-17T04:02:18Z</time>
  <speed>5.580000</speed>
</trkpt>
<trkpt lat="32.725227356" lon="35.065216064">
  <ele>344.408691</ele>
  <time>2011-06-17T04:02:19Z</time>
  <speed>5.110000</speed>
</trkpt>
<trkpt lat="32.725261688" lon="35.065254211">
  <ele>345.666504</ele>
  <time>2011-06-17T04:02:20Z</time>
  <speed>4.540000</speed>
</trkpt>
<trkpt lat="32.725284576" lon="35.065292358">
  <ele>346.111816</ele>
  <time>2011-06-17T04:02:21Z</time>
  <speed>4.550000</speed>
</trkpt>
<trkpt lat="32.725315094" lon="35.065345764">
  <ele>347.721191</ele>
  <time>2011-06-17T04:02:22Z</time>
  <speed>4.110000</speed>
</trkpt>
<trkpt lat="32.725330353" lon="35.065391541">
  <ele>348.533691</ele>
  <time>2011-06-17T04:02:23Z</time>
  <speed>4.010000</speed>
</trkpt>
<trkpt lat="32.725360870" lon="35.065422058">
  <ele>348.619629</ele>
  <time>2011-06-17T04:02:24Z</time>
  <speed>3.450000</speed>
</trkpt>
<trkpt lat="32.725379944" lon="35.065456390">
  <ele>349.049316</ele>
  <time>2011-06-17T04:02:25Z</time>
  <speed>3.100000</speed>
</trkpt>
<trkpt lat="32.725402832" lon="35.065483093">
  <ele>349.666504</ele>
  <time>2011-06-17T04:02:26Z</time>
  <speed>3.190000</speed>
</trkpt>
<trkpt lat="32.725425720" lon="35.065505981">
  <ele>350.424316</ele>
  <time>2011-06-17T04:02:27Z</time>
  <speed>3.040000</speed>
</trkpt>
<trkpt lat="32.725444794" lon="35.065528870">
  <ele>351.869629</ele>
  <time>2011-06-17T04:02:28Z</time>
  <speed>3.220000</speed>
</trkpt>
<trkpt lat="32.725467682" lon="35.065551758">
  <ele>352.314941</ele>
  <time>2011-06-17T04:02:29Z</time>
  <speed>3.030000</speed>
</trkpt>
<trkpt lat="32.725486755" lon="35.065574646">
  <ele>352.963379</ele>
  <time>2011-06-17T04:02:30Z</time>
  <speed>3.040000</speed>
</trkpt>
<trkpt lat="32.725532532" lon="35.065612793">
  <ele>355.041504</ele>
  <time>2011-06-17T04:02:32Z</time>
  <speed>2.700000</speed>
</trkpt>
<trkpt lat="32.725570679" lon="35.065643311">
  <ele>357.119629</ele>
  <time>2011-06-17T04:02:34Z</time>
  <speed>2.770000</speed>
</trkpt>
<trkpt lat="32.725612640" lon="35.065666199">
  <ele>358.533691</ele>
  <time>2011-06-17T04:02:36Z</time>
  <speed>2.640000</speed>
</trkpt>
<trkpt lat="32.725658417" lon="35.065685272">
  <ele>358.807129</ele>
  <time>2011-06-17T04:02:38Z</time>
  <speed>3.030000</speed>
</trkpt>
<trkpt lat="32.725685120" lon="35.065696716">
  <ele>359.252441</ele>
  <time>2011-06-17T04:02:39Z</time>
  <speed>2.740000</speed>
</trkpt>
<trkpt lat="32.725727081" lon="35.065711975">
  <ele>359.705566</ele>
  <time>2011-06-17T04:02:41Z</time>
  <speed>2.830000</speed>
</trkpt>
<trkpt lat="32.725769043" lon="35.065715790">
  <ele>360.775879</ele>
  <time>2011-06-17T04:02:43Z</time>
  <speed>3.010000</speed>
</trkpt>
<trkpt lat="32.725814819" lon="35.065723419">
  <ele>361.557129</ele>
  <time>2011-06-17T04:02:45Z</time>
  <speed>2.700000</speed>
</trkpt>
<trkpt lat="32.725845337" lon="35.065715790">
  <ele>361.588379</ele>
  <time>2011-06-17T04:02:46Z</time>
  <speed>2.920000</speed>
</trkpt>
<trkpt lat="32.725891113" lon="35.065727234">
  <ele>361.979004</ele>
  <time>2011-06-17T04:02:48Z</time>
  <speed>2.860000</speed>
</trkpt>
<trkpt lat="32.725936890" lon="35.065731049">
  <ele>362.057129</ele>
  <time>2011-06-17T04:02:50Z</time>
  <speed>2.980000</speed>
</trkpt>
<trkpt lat="32.725986481" lon="35.065734863">
  <ele>361.033691</ele>
  <time>2011-06-17T04:02:52Z</time>
  <speed>2.770000</speed>
</trkpt>
<trkpt lat="32.726039886" lon="35.065742493">
  <ele>361.432129</ele>
  <time>2011-06-17T04:02:54Z</time>
  <speed>2.970000</speed>
</trkpt>
<trkpt lat="32.726097107" lon="35.065750122">
  <ele>360.166504</ele>
  <time>2011-06-17T04:02:56Z</time>
  <speed>3.150000</speed>
</trkpt>
<trkpt lat="32.726119995" lon="35.065761566">
  <ele>359.041504</ele>
  <time>2011-06-17T04:02:57Z</time>
  <speed>3.190000</speed>
</trkpt>
<trkpt lat="32.726173401" lon="35.065769196">
  <ele>358.518066</ele>
  <time>2011-06-17T04:02:59Z</time>
  <speed>3.140000</speed>
</trkpt>
<trkpt lat="32.726203918" lon="35.065769196">
  <ele>358.416504</ele>
  <time>2011-06-17T04:03:00Z</time>
  <speed>3.420000</speed>
</trkpt>
<trkpt lat="32.726234436" lon="35.065776825">
  <ele>358.080566</ele>
  <time>2011-06-17T04:03:01Z</time>
  <speed>3.620000</speed>
</trkpt>
<trkpt lat="32.726268768" lon="35.065795898">
  <ele>357.010254</ele>
  <time>2011-06-17T04:03:02Z</time>
  <speed>3.500000</speed>
</trkpt>
<trkpt lat="32.726299286" lon="35.065807343">
  <ele>357.127441</ele>
  <time>2011-06-17T04:03:03Z</time>
  <speed>3.570000</speed>
</trkpt>
<trkpt lat="32.726333618" lon="35.065818787">
  <ele>356.494629</ele>
  <time>2011-06-17T04:03:04Z</time>
  <speed>3.810000</speed>
</trkpt>
<trkpt lat="32.726367950" lon="35.065830231">
  <ele>356.330566</ele>
  <time>2011-06-17T04:03:05Z</time>
  <speed>3.730000</speed>
</trkpt>
<trkpt lat="32.726406097" lon="35.065845490">
  <ele>356.182129</ele>
  <time>2011-06-17T04:03:06Z</time>
  <speed>3.880000</speed>
</trkpt>
<trkpt lat="32.726440430" lon="35.065853119">
  <ele>356.104004</ele>
  <time>2011-06-17T04:03:07Z</time>
  <speed>4.150000</speed>
</trkpt>
<trkpt lat="32.726478577" lon="35.065864563">
  <ele>356.104004</ele>
  <time>2011-06-17T04:03:08Z</time>
  <speed>4.090000</speed>
</trkpt>
<trkpt lat="32.726509094" lon="35.065879822">
  <ele>355.939941</ele>
  <time>2011-06-17T04:03:09Z</time>
  <speed>4.070000</speed>
</trkpt>
<trkpt lat="32.726539612" lon="35.065902710">
  <ele>354.830566</ele>
  <time>2011-06-17T04:03:10Z</time>
  <speed>4.070000</speed>
</trkpt>
<trkpt lat="32.726573944" lon="35.065925598">
  <ele>353.674316</ele>
  <time>2011-06-17T04:03:11Z</time>
  <speed>4.070000</speed>
</trkpt>
<trkpt lat="32.726600647" lon="35.065944672">
  <ele>354.072754</ele>
  <time>2011-06-17T04:03:12Z</time>
  <speed>3.800000</speed>
</trkpt>
<trkpt lat="32.726627350" lon="35.065956116">
  <ele>353.377441</ele>
  <time>2011-06-17T04:03:13Z</time>
  <speed>4.080000</speed>
</trkpt>
<trkpt lat="32.726661682" lon="35.065967560">
  <ele>353.283691</ele>
  <time>2011-06-17T04:03:14Z</time>
  <speed>4.220000</speed>
</trkpt>
<trkpt lat="32.726696014" lon="35.065982819">
  <ele>352.096191</ele>
  <time>2011-06-17T04:03:15Z</time>
  <speed>3.540000</speed>
</trkpt>
<trkpt lat="32.726730347" lon="35.065994263">
  <ele>351.963379</ele>
  <time>2011-06-17T04:03:16Z</time>
  <speed>3.520000</speed>
</trkpt>
<trkpt lat="32.726760864" lon="35.066001892">
  <ele>351.635254</ele>
  <time>2011-06-17T04:03:17Z</time>
  <speed>3.700000</speed>
</trkpt>
<trkpt lat="32.726791382" lon="35.066017151">
  <ele>351.783691</ele>
  <time>2011-06-17T04:03:18Z</time>
  <speed>3.730000</speed>
</trkpt>
<trkpt lat="32.726825714" lon="35.066028595">
  <ele>352.205566</ele>
  <time>2011-06-17T04:03:19Z</time>
  <speed>3.840000</speed>
</trkpt>
<trkpt lat="32.726856232" lon="35.066040039">
  <ele>351.721191</ele>
  <time>2011-06-17T04:03:20Z</time>
  <speed>3.840000</speed>
</trkpt>
<trkpt lat="32.726894379" lon="35.066059113">
  <ele>351.197754</ele>
  <time>2011-06-17T04:03:21Z</time>
  <speed>3.920000</speed>
</trkpt>
<trkpt lat="32.726921082" lon="35.066074371">
  <ele>351.088379</ele>
  <time>2011-06-17T04:03:22Z</time>
  <speed>3.780000</speed>
</trkpt>
<trkpt lat="32.726951599" lon="35.066082001">
  <ele>350.893066</ele>
  <time>2011-06-17T04:03:23Z</time>
  <speed>3.870000</speed>
</trkpt>
<trkpt lat="32.726989746" lon="35.066093445">
  <ele>350.549316</ele>
  <time>2011-06-17T04:03:24Z</time>
  <speed>3.950000</speed>
</trkpt>
<trkpt lat="32.727020264" lon="35.066108704">
  <ele>350.885254</ele>
  <time>2011-06-17T04:03:25Z</time>
  <speed>3.910000</speed>
</trkpt>
<trkpt lat="32.727043152" lon="35.066135406">
  <ele>350.557129</ele>
  <time>2011-06-17T04:03:26Z</time>
  <speed>3.950000</speed>
</trkpt>
<trkpt lat="32.727073669" lon="35.066146851">
  <ele>350.635254</ele>
  <time>2011-06-17T04:03:27Z</time>
  <speed>4.020000</speed>
</trkpt>
<trkpt lat="32.727111816" lon="35.066162109">
  <ele>351.002441</ele>
  <time>2011-06-17T04:03:28Z</time>
  <speed>3.910000</speed>
</trkpt>
<trkpt lat="32.727142334" lon="35.066169739">
  <ele>350.947754</ele>
  <time>2011-06-17T04:03:29Z</time>
  <speed>3.450000</speed>
</trkpt>
<trkpt lat="32.727176666" lon="35.066173553">
  <ele>350.908691</ele>
  <time>2011-06-17T04:03:30Z</time>
  <speed>3.550000</speed>
</trkpt>
<trkpt lat="32.727210999" lon="35.066181183">
  <ele>351.260254</ele>
  <time>2011-06-17T04:03:31Z</time>
  <speed>3.830000</speed>
</trkpt>
<trkpt lat="32.727241516" lon="35.066188812">
  <ele>351.275879</ele>
  <time>2011-06-17T04:03:32Z</time>
  <speed>3.840000</speed>
</trkpt>
<trkpt lat="32.727275848" lon="35.066196442">
  <ele>352.377441</ele>
  <time>2011-06-17T04:03:33Z</time>
  <speed>4.080000</speed>
</trkpt>
<trkpt lat="32.727310181" lon="35.066200256">
  <ele>352.502441</ele>
  <time>2011-06-17T04:03:34Z</time>
  <speed>3.870000</speed>
</trkpt>
<trkpt lat="32.727340698" lon="35.066204071">
  <ele>352.385254</ele>
  <time>2011-06-17T04:03:35Z</time>
  <speed>3.990000</speed>
</trkpt>
<trkpt lat="32.727375031" lon="35.066211700">
  <ele>352.283691</ele>
  <time>2011-06-17T04:03:36Z</time>
  <speed>3.920000</speed>
</trkpt>
<trkpt lat="32.727409363" lon="35.066223145">
  <ele>352.518066</ele>
  <time>2011-06-17T04:03:37Z</time>
  <speed>3.950000</speed>
</trkpt>
<trkpt lat="32.727451324" lon="35.066230774">
  <ele>352.299316</ele>
  <time>2011-06-17T04:03:38Z</time>
  <speed>3.890000</speed>
</trkpt>
<trkpt lat="32.727481842" lon="35.066230774">
  <ele>352.002441</ele>
  <time>2011-06-17T04:03:39Z</time>
  <speed>3.910000</speed>
</trkpt>
<trkpt lat="32.727508545" lon="35.066246033">
  <ele>352.236816</ele>
  <time>2011-06-17T04:03:40Z</time>
  <speed>3.690000</speed>
</trkpt>
<trkpt lat="32.727550507" lon="35.066249847">
  <ele>352.143066</ele>
  <time>2011-06-17T04:03:41Z</time>
  <speed>3.520000</speed>
</trkpt>
<trkpt lat="32.727584839" lon="35.066249847">
  <ele>352.861816</ele>
  <time>2011-06-17T04:03:42Z</time>
  <speed>3.270000</speed>
</trkpt>
<trkpt lat="32.727619171" lon="35.066253662">
  <ele>353.736816</ele>
  <time>2011-06-17T04:03:43Z</time>
  <speed>3.320000</speed>
</trkpt>
<trkpt lat="32.727657318" lon="35.066257477">
  <ele>356.072754</ele>
  <time>2011-06-17T04:03:44Z</time>
  <speed>3.330000</speed>
</trkpt>
<trkpt lat="32.727687836" lon="35.066257477">
  <ele>355.525879</ele>
  <time>2011-06-17T04:03:45Z</time>
  <speed>3.480000</speed>
</trkpt>
<trkpt lat="32.727722168" lon="35.066257477">
  <ele>355.572754</ele>
  <time>2011-06-17T04:03:46Z</time>
  <speed>3.480000</speed>
</trkpt>
<trkpt lat="32.727748871" lon="35.066261292">
  <ele>356.213379</ele>
  <time>2011-06-17T04:03:47Z</time>
  <speed>3.270000</speed>
</trkpt>
<trkpt lat="32.727775574" lon="35.066242218">
  <ele>355.236816</ele>
  <time>2011-06-17T04:03:48Z</time>
  <speed>3.360000</speed>
</trkpt>
<trkpt lat="32.727806091" lon="35.066223145">
  <ele>355.752441</ele>
  <time>2011-06-17T04:03:49Z</time>
  <speed>3.400000</speed>
</trkpt>
<trkpt lat="32.727832794" lon="35.066207886">
  <ele>356.744629</ele>
  <time>2011-06-17T04:03:50Z</time>
  <speed>3.570000</speed>
</trkpt>
<trkpt lat="32.727863312" lon="35.066196442">
  <ele>356.768066</ele>
  <time>2011-06-17T04:03:51Z</time>
  <speed>3.530000</speed>
</trkpt>
<trkpt lat="32.727893829" lon="35.066196442">
  <ele>356.564941</ele>
  <time>2011-06-17T04:03:52Z</time>
  <speed>3.490000</speed>
</trkpt>
<trkpt lat="32.727924347" lon="35.066200256">
  <ele>356.330566</ele>
  <time>2011-06-17T04:03:53Z</time>
  <speed>3.580000</speed>
</trkpt>
<trkpt lat="32.727958679" lon="35.066207886">
  <ele>357.150879</ele>
  <time>2011-06-17T04:03:54Z</time>
  <speed>3.300000</speed>
</trkpt>
<trkpt lat="32.727989197" lon="35.066211700">
  <ele>357.924316</ele>
  <time>2011-06-17T04:03:55Z</time>
  <speed>3.230000</speed>
</trkpt>
<trkpt lat="32.728015900" lon="35.066211700">
  <ele>358.510254</ele>
  <time>2011-06-17T04:03:56Z</time>
  <speed>3.320000</speed>
</trkpt>
<trkpt lat="32.728050232" lon="35.066207886">
  <ele>359.354004</ele>
  <time>2011-06-17T04:03:57Z</time>
  <speed>3.410000</speed>
</trkpt>
<trkpt lat="32.728080750" lon="35.066204071">
  <ele>359.611816</ele>
  <time>2011-06-17T04:03:58Z</time>
  <speed>3.360000</speed>
</trkpt>
<trkpt lat="32.728111267" lon="35.066200256">
  <ele>359.361816</ele>
  <time>2011-06-17T04:03:59Z</time>
  <speed>3.450000</speed>
</trkpt>
<trkpt lat="32.728141785" lon="35.066192627">
  <ele>359.424316</ele>
  <time>2011-06-17T04:04:00Z</time>
  <speed>3.580000</speed>
</trkpt>
<trkpt lat="32.728176117" lon="35.066188812">
  <ele>359.635254</ele>
  <time>2011-06-17T04:04:01Z</time>
  <speed>3.420000</speed>
</trkpt>
<trkpt lat="32.728206635" lon="35.066177368">
  <ele>359.510254</ele>
  <time>2011-06-17T04:04:02Z</time>
  <speed>3.280000</speed>
</trkpt>
<trkpt lat="32.728233337" lon="35.066165924">
  <ele>359.033691</ele>
  <time>2011-06-17T04:04:03Z</time>
  <speed>3.710000</speed>
</trkpt>
<trkpt lat="32.728267670" lon="35.066154480">
  <ele>357.619629</ele>
  <time>2011-06-17T04:04:04Z</time>
  <speed>3.600000</speed>
</trkpt>
<trkpt lat="32.728294373" lon="35.066139221">
  <ele>356.814941</ele>
  <time>2011-06-17T04:04:05Z</time>
  <speed>3.550000</speed>
</trkpt>
<trkpt lat="32.728328705" lon="35.066131592">
  <ele>357.643066</ele>
  <time>2011-06-17T04:04:06Z</time>
  <speed>3.750000</speed>
</trkpt>
<trkpt lat="32.728363037" lon="35.066131592">
  <ele>357.807129</ele>
  <time>2011-06-17T04:04:07Z</time>
  <speed>3.600000</speed>
</trkpt>
<trkpt lat="32.728393555" lon="35.066131592">
  <ele>357.963379</ele>
  <time>2011-06-17T04:04:08Z</time>
  <speed>3.420000</speed>
</trkpt>
<trkpt lat="32.728427887" lon="35.066127777">
  <ele>357.416504</ele>
  <time>2011-06-17T04:04:09Z</time>
  <speed>3.560000</speed>
</trkpt>
<trkpt lat="32.728462219" lon="35.066131592">
  <ele>357.057129</ele>
  <time>2011-06-17T04:04:10Z</time>
  <speed>3.490000</speed>
</trkpt>
<trkpt lat="32.728488922" lon="35.066123962">
  <ele>357.518066</ele>
  <time>2011-06-17T04:04:11Z</time>
  <speed>3.430000</speed>
</trkpt>
<trkpt lat="32.728527069" lon="35.066116333">
  <ele>358.807129</ele>
  <time>2011-06-17T04:04:12Z</time>
  <speed>3.430000</speed>
</trkpt>
<trkpt lat="32.728557587" lon="35.066104889">
  <ele>358.791504</ele>
  <time>2011-06-17T04:04:13Z</time>
  <speed>3.560000</speed>
</trkpt>
<trkpt lat="32.728588104" lon="35.066085815">
  <ele>358.260254</ele>
  <time>2011-06-17T04:04:14Z</time>
  <speed>3.660000</speed>
</trkpt>
<trkpt lat="32.728622437" lon="35.066074371">
  <ele>357.986816</ele>
  <time>2011-06-17T04:04:15Z</time>
  <speed>3.720000</speed>
</trkpt>
<trkpt lat="32.728652954" lon="35.066051483">
  <ele>357.479004</ele>
  <time>2011-06-17T04:04:16Z</time>
  <speed>3.730000</speed>
</trkpt>
<trkpt lat="32.728683472" lon="35.066036224">
  <ele>357.502441</ele>
  <time>2011-06-17T04:04:17Z</time>
  <speed>3.830000</speed>
</trkpt>
<trkpt lat="32.728717804" lon="35.066020966">
  <ele>358.002441</ele>
  <time>2011-06-17T04:04:18Z</time>
  <speed>4.030000</speed>
</trkpt>
<trkpt lat="32.728752136" lon="35.066013336">
  <ele>358.791504</ele>
  <time>2011-06-17T04:04:19Z</time>
  <speed>3.950000</speed>
</trkpt>
<trkpt lat="32.728786469" lon="35.066001892">
  <ele>359.494629</ele>
  <time>2011-06-17T04:04:20Z</time>
  <speed>3.850000</speed>
</trkpt>
<trkpt lat="32.728816986" lon="35.065994263">
  <ele>360.689941</ele>
  <time>2011-06-17T04:04:21Z</time>
  <speed>3.920000</speed>
</trkpt>
<trkpt lat="32.728851318" lon="35.065979004">
  <ele>360.518066</ele>
  <time>2011-06-17T04:04:22Z</time>
  <speed>3.880000</speed>
</trkpt>
<trkpt lat="32.728881836" lon="35.065971375">
  <ele>360.736816</ele>
  <time>2011-06-17T04:04:23Z</time>
  <speed>3.560000</speed>
</trkpt>
<trkpt lat="32.728912354" lon="35.065959930">
  <ele>360.900879</ele>
  <time>2011-06-17T04:04:24Z</time>
  <speed>3.680000</speed>
</trkpt>
<trkpt lat="32.728946686" lon="35.065952301">
  <ele>361.127441</ele>
  <time>2011-06-17T04:04:25Z</time>
  <speed>3.440000</speed>
</trkpt>
<trkpt lat="32.728977203" lon="35.065948486">
  <ele>361.127441</ele>
  <time>2011-06-17T04:04:26Z</time>
  <speed>3.430000</speed>
</trkpt>
<trkpt lat="32.729003906" lon="35.065940857">
  <ele>361.479004</ele>
  <time>2011-06-17T04:04:27Z</time>
  <speed>3.170000</speed>
</trkpt>
<trkpt lat="32.729030609" lon="35.065925598">
  <ele>361.432129</ele>
  <time>2011-06-17T04:04:28Z</time>
  <speed>3.390000</speed>
</trkpt>
<trkpt lat="32.729084015" lon="35.065917969">
  <ele>361.307129</ele>
  <time>2011-06-17T04:04:30Z</time>
  <speed>3.090000</speed>
</trkpt>
<trkpt lat="32.729110718" lon="35.065929413">
  <ele>360.143066</ele>
  <time>2011-06-17T04:04:31Z</time>
  <speed>3.320000</speed>
</trkpt>
<trkpt lat="32.729145050" lon="35.065944672">
  <ele>359.432129</ele>
  <time>2011-06-17T04:04:32Z</time>
  <speed>3.670000</speed>
</trkpt>
<trkpt lat="32.729175568" lon="35.065948486">
  <ele>359.143066</ele>
  <time>2011-06-17T04:04:33Z</time>
  <speed>3.110000</speed>
</trkpt>
<trkpt lat="32.729228973" lon="35.065956116">
  <ele>359.393066</ele>
  <time>2011-06-17T04:04:35Z</time>
  <speed>3.100000</speed>
</trkpt>
<trkpt lat="32.729255676" lon="35.065952301">
  <ele>359.869629</ele>
  <time>2011-06-17T04:04:36Z</time>
  <speed>2.890000</speed>
</trkpt>
<trkpt lat="32.729309082" lon="35.065944672">
  <ele>359.463379</ele>
  <time>2011-06-17T04:04:38Z</time>
  <speed>3.030000</speed>
</trkpt>
<trkpt lat="32.729358673" lon="35.065940857">
  <ele>360.689941</ele>
  <time>2011-06-17T04:04:40Z</time>
  <speed>3.150000</speed>
</trkpt>
<trkpt lat="32.729412079" lon="35.065937042">
  <ele>361.791504</ele>
  <time>2011-06-17T04:04:42Z</time>
  <speed>3.150000</speed>
</trkpt>
<trkpt lat="32.729438782" lon="35.065925598">
  <ele>361.369629</ele>
  <time>2011-06-17T04:04:43Z</time>
  <speed>3.150000</speed>
</trkpt>
<trkpt lat="32.729469299" lon="35.065925598">
  <ele>361.924316</ele>
  <time>2011-06-17T04:04:44Z</time>
  <speed>3.050000</speed>
</trkpt>
<trkpt lat="32.729492188" lon="35.065917969">
  <ele>363.189941</ele>
  <time>2011-06-17T04:04:45Z</time>
  <speed>3.020000</speed>
</trkpt>
<trkpt lat="32.729530334" lon="35.065917969">
  <ele>365.572754</ele>
  <time>2011-06-17T04:04:46Z</time>
  <speed>3.330000</speed>
</trkpt>
<trkpt lat="32.729557037" lon="35.065910339">
  <ele>366.377441</ele>
  <time>2011-06-17T04:04:47Z</time>
  <speed>3.110000</speed>
</trkpt>
<trkpt lat="32.729587555" lon="35.065906525">
  <ele>367.197754</ele>
  <time>2011-06-17T04:04:48Z</time>
  <speed>3.260000</speed>
</trkpt>
<trkpt lat="32.729614258" lon="35.065906525">
  <ele>367.127441</ele>
  <time>2011-06-17T04:04:49Z</time>
  <speed>3.020000</speed>
</trkpt>
<trkpt lat="32.729660034" lon="35.065902710">
  <ele>367.791504</ele>
  <time>2011-06-17T04:04:51Z</time>
  <speed>3.000000</speed>
</trkpt>
<trkpt lat="32.729713440" lon="35.065906525">
  <ele>371.166504</ele>
  <time>2011-06-17T04:04:53Z</time>
  <speed>2.840000</speed>
</trkpt>
<trkpt lat="32.729740143" lon="35.065902710">
  <ele>370.486816</ele>
  <time>2011-06-17T04:04:54Z</time>
  <speed>3.020000</speed>
</trkpt>
<trkpt lat="32.729766846" lon="35.065910339">
  <ele>372.119629</ele>
  <time>2011-06-17T04:04:55Z</time>
  <speed>3.020000</speed>
</trkpt>
<trkpt lat="32.729793549" lon="35.065898895">
  <ele>373.377441</ele>
  <time>2011-06-17T04:04:56Z</time>
  <speed>2.820000</speed>
</trkpt>
<trkpt lat="32.729820251" lon="35.065898895">
  <ele>374.979004</ele>
  <time>2011-06-17T04:04:57Z</time>
  <speed>2.710000</speed>
</trkpt>
<trkpt lat="32.729873657" lon="35.065891266">
  <ele>376.205566</ele>
  <time>2011-06-17T04:04:59Z</time>
  <speed>2.980000</speed>
</trkpt>
<trkpt lat="32.729904175" lon="35.065891266">
  <ele>376.955566</ele>
  <time>2011-06-17T04:05:00Z</time>
  <speed>3.040000</speed>
</trkpt>
<trkpt lat="32.729961395" lon="35.065887451">
  <ele>377.697754</ele>
  <time>2011-06-17T04:05:02Z</time>
  <speed>2.930000</speed>
</trkpt>
<trkpt lat="32.729988098" lon="35.065876007">
  <ele>378.838379</ele>
  <time>2011-06-17T04:05:03Z</time>
  <speed>3.140000</speed>
</trkpt>
<trkpt lat="32.730022430" lon="35.065864563">
  <ele>378.658691</ele>
  <time>2011-06-17T04:05:04Z</time>
  <speed>3.280000</speed>
</trkpt>
<trkpt lat="32.730049133" lon="35.065860748">
  <ele>378.010254</ele>
  <time>2011-06-17T04:05:05Z</time>
  <speed>3.270000</speed>
</trkpt>
<trkpt lat="32.730106354" lon="35.065872192">
  <ele>376.705566</ele>
  <time>2011-06-17T04:05:07Z</time>
  <speed>2.950000</speed>
</trkpt>
<trkpt lat="32.730133057" lon="35.065879822">
  <ele>377.143066</ele>
  <time>2011-06-17T04:05:08Z</time>
  <speed>3.120000</speed>
</trkpt>
<trkpt lat="32.730163574" lon="35.065883636">
  <ele>376.721191</ele>
  <time>2011-06-17T04:05:09Z</time>
  <speed>3.090000</speed>
</trkpt>
<trkpt lat="32.730197906" lon="35.065898895">
  <ele>376.713379</ele>
  <time>2011-06-17T04:05:10Z</time>
  <speed>3.360000</speed>
</trkpt>
<trkpt lat="32.730224609" lon="35.065910339">
  <ele>377.080566</ele>
  <time>2011-06-17T04:05:11Z</time>
  <speed>3.210000</speed>
</trkpt>
<trkpt lat="32.730255127" lon="35.065921783">
  <ele>376.596191</ele>
  <time>2011-06-17T04:05:12Z</time>
  <speed>3.180000</speed>
</trkpt>
<trkpt lat="32.730281830" lon="35.065940857">
  <ele>377.471191</ele>
  <time>2011-06-17T04:05:13Z</time>
  <speed>3.200000</speed>
</trkpt>
<trkpt lat="32.730312347" lon="35.065944672">
  <ele>377.775879</ele>
  <time>2011-06-17T04:05:14Z</time>
  <speed>3.340000</speed>
</trkpt>
<trkpt lat="32.730339050" lon="35.065948486">
  <ele>377.408691</ele>
  <time>2011-06-17T04:05:15Z</time>
  <speed>3.270000</speed>
</trkpt>
<trkpt lat="32.730369568" lon="35.065959930">
  <ele>376.588379</ele>
  <time>2011-06-17T04:05:16Z</time>
  <speed>3.820000</speed>
</trkpt>
<trkpt lat="32.730396271" lon="35.065975189">
  <ele>376.588379</ele>
  <time>2011-06-17T04:05:17Z</time>
  <speed>3.650000</speed>
</trkpt>
<trkpt lat="32.730430603" lon="35.065979004">
  <ele>376.447754</ele>
  <time>2011-06-17T04:05:18Z</time>
  <speed>3.670000</speed>
</trkpt>
<trkpt lat="32.730464935" lon="35.065982819">
  <ele>376.408691</ele>
  <time>2011-06-17T04:05:19Z</time>
  <speed>3.760000</speed>
</trkpt>
<trkpt lat="32.730499268" lon="35.065994263">
  <ele>375.924316</ele>
  <time>2011-06-17T04:05:20Z</time>
  <speed>3.740000</speed>
</trkpt>
<trkpt lat="32.730533600" lon="35.066001892">
  <ele>376.189941</ele>
  <time>2011-06-17T04:05:21Z</time>
  <speed>3.770000</speed>
</trkpt>
<trkpt lat="32.730567932" lon="35.066013336">
  <ele>376.166504</ele>
  <time>2011-06-17T04:05:22Z</time>
  <speed>3.860000</speed>
</trkpt>
<trkpt lat="32.730606079" lon="35.066024780">
  <ele>376.354004</ele>
  <time>2011-06-17T04:05:23Z</time>
  <speed>3.720000</speed>
</trkpt>
<trkpt lat="32.730636597" lon="35.066028595">
  <ele>376.510254</ele>
  <time>2011-06-17T04:05:24Z</time>
  <speed>3.440000</speed>
</trkpt>
<trkpt lat="32.730655670" lon="35.066051483">
  <ele>377.721191</ele>
  <time>2011-06-17T04:05:25Z</time>
  <speed>3.560000</speed>
</trkpt>
<trkpt lat="32.730682373" lon="35.066070557">
  <ele>379.400879</ele>
  <time>2011-06-17T04:05:26Z</time>
  <speed>3.480000</speed>
</trkpt>
<trkpt lat="32.730709076" lon="35.066089630">
  <ele>379.924316</ele>
  <time>2011-06-17T04:05:27Z</time>
  <speed>3.300000</speed>
</trkpt>
<trkpt lat="32.730739594" lon="35.066101074">
  <ele>380.611816</ele>
  <time>2011-06-17T04:05:28Z</time>
  <speed>3.410000</speed>
</trkpt>
<trkpt lat="32.730762482" lon="35.066108704">
  <ele>382.182129</ele>
  <time>2011-06-17T04:05:29Z</time>
  <speed>3.230000</speed>
</trkpt>
<trkpt lat="32.730815887" lon="35.066123962">
  <ele>383.322754</ele>
  <time>2011-06-17T04:05:31Z</time>
  <speed>3.200000</speed>
</trkpt>
<trkpt lat="32.730842590" lon="35.066123962">
  <ele>383.932129</ele>
  <time>2011-06-17T04:05:32Z</time>
  <speed>3.470000</speed>
</trkpt>
<trkpt lat="32.730873108" lon="35.066123962">
  <ele>384.596191</ele>
  <time>2011-06-17T04:05:33Z</time>
  <speed>3.450000</speed>
</trkpt>
<trkpt lat="32.730903625" lon="35.066120148">
  <ele>384.838379</ele>
  <time>2011-06-17T04:05:34Z</time>
  <speed>3.550000</speed>
</trkpt>
<trkpt lat="32.730934143" lon="35.066116333">
  <ele>384.604004</ele>
  <time>2011-06-17T04:05:35Z</time>
  <speed>3.290000</speed>
</trkpt>
<trkpt lat="32.730960846" lon="35.066116333">
  <ele>384.643066</ele>
  <time>2011-06-17T04:05:36Z</time>
  <speed>3.340000</speed>
</trkpt>
<trkpt lat="32.730991364" lon="35.066112518">
  <ele>384.838379</ele>
  <time>2011-06-17T04:05:37Z</time>
  <speed>3.420000</speed>
</trkpt>
<trkpt lat="32.731018066" lon="35.066104889">
  <ele>384.885254</ele>
  <time>2011-06-17T04:05:38Z</time>
  <speed>3.220000</speed>
</trkpt>
<trkpt lat="32.731075287" lon="35.066070557">
  <ele>385.111816</ele>
  <time>2011-06-17T04:05:40Z</time>
  <speed>3.710000</speed>
</trkpt>
<trkpt lat="32.731101990" lon="35.066040039">
  <ele>385.002441</ele>
  <time>2011-06-17T04:05:41Z</time>
  <speed>3.770000</speed>
</trkpt>
<trkpt lat="32.731128693" lon="35.066009521">
  <ele>385.197754</ele>
  <time>2011-06-17T04:05:42Z</time>
  <speed>3.710000</speed>
</trkpt>
<trkpt lat="32.731147766" lon="35.065979004">
  <ele>386.057129</ele>
  <time>2011-06-17T04:05:43Z</time>
  <speed>3.830000</speed>
</trkpt>
<trkpt lat="32.731166840" lon="35.065940857">
  <ele>387.049316</ele>
  <time>2011-06-17T04:05:44Z</time>
  <speed>3.720000</speed>
</trkpt>
<trkpt lat="32.731185913" lon="35.065902710">
  <ele>387.393066</ele>
  <time>2011-06-17T04:05:45Z</time>
  <speed>3.860000</speed>
</trkpt>
<trkpt lat="32.731201172" lon="35.065860748">
  <ele>387.455566</ele>
  <time>2011-06-17T04:05:46Z</time>
  <speed>3.940000</speed>
</trkpt>
<trkpt lat="32.731212616" lon="35.065811157">
  <ele>387.791504</ele>
  <time>2011-06-17T04:05:47Z</time>
  <speed>3.980000</speed>
</trkpt>
<trkpt lat="32.731220245" lon="35.065765381">
  <ele>387.729004</ele>
  <time>2011-06-17T04:05:48Z</time>
  <speed>3.800000</speed>
</trkpt>
<trkpt lat="32.731224060" lon="35.065723419">
  <ele>387.783691</ele>
  <time>2011-06-17T04:05:49Z</time>
  <speed>3.620000</speed>
</trkpt>
<trkpt lat="32.731224060" lon="35.065677643">
  <ele>388.088379</ele>
  <time>2011-06-17T04:05:50Z</time>
  <speed>3.940000</speed>
</trkpt>
<trkpt lat="32.731227875" lon="35.065631866">
  <ele>388.119629</ele>
  <time>2011-06-17T04:05:51Z</time>
  <speed>4.120000</speed>
</trkpt>
<trkpt lat="32.731227875" lon="35.065586090">
  <ele>387.900879</ele>
  <time>2011-06-17T04:05:52Z</time>
  <speed>4.520000</speed>
</trkpt>
<trkpt lat="32.731227875" lon="35.065532684">
  <ele>388.111816</ele>
  <time>2011-06-17T04:05:53Z</time>
  <speed>4.880000</speed>
</trkpt>
<trkpt lat="32.731227875" lon="35.065479279">
  <ele>387.932129</ele>
  <time>2011-06-17T04:05:54Z</time>
  <speed>5.100000</speed>
</trkpt>
<trkpt lat="32.731227875" lon="35.065425873">
  <ele>387.213379</ele>
  <time>2011-06-17T04:05:55Z</time>
  <speed>5.300000</speed>
</trkpt>
<trkpt lat="32.731220245" lon="35.065368652">
  <ele>387.041504</ele>
  <time>2011-06-17T04:05:56Z</time>
  <speed>5.950000</speed>
</trkpt>
<trkpt lat="32.731204987" lon="35.065299988">
  <ele>387.064941</ele>
  <time>2011-06-17T04:05:57Z</time>
  <speed>6.630000</speed>
</trkpt>
<trkpt lat="32.731193542" lon="35.065231323">
  <ele>385.971191</ele>
  <time>2011-06-17T04:05:58Z</time>
  <speed>6.560000</speed>
</trkpt>
<trkpt lat="32.731185913" lon="35.065155029">
  <ele>385.900879</ele>
  <time>2011-06-17T04:05:59Z</time>
  <speed>7.080000</speed>
</trkpt>
<trkpt lat="32.731185913" lon="35.065074921">
  <ele>385.502441</ele>
  <time>2011-06-17T04:06:00Z</time>
  <speed>7.270000</speed>
</trkpt>
<trkpt lat="32.731182098" lon="35.064990997">
  <ele>385.502441</ele>
  <time>2011-06-17T04:06:01Z</time>
  <speed>7.190000</speed>
</trkpt>
<trkpt lat="32.731178284" lon="35.064914703">
  <ele>385.096191</ele>
  <time>2011-06-17T04:06:02Z</time>
  <speed>7.340000</speed>
</trkpt>
<trkpt lat="32.731166840" lon="35.064834595">
  <ele>385.096191</ele>
  <time>2011-06-17T04:06:03Z</time>
  <speed>7.160000</speed>
</trkpt>
<trkpt lat="32.731163025" lon="35.064758301">
  <ele>385.041504</ele>
  <time>2011-06-17T04:06:04Z</time>
  <speed>7.070000</speed>
</trkpt>
<trkpt lat="32.731155396" lon="35.064678192">
  <ele>384.768066</ele>
  <time>2011-06-17T04:06:05Z</time>
  <speed>6.770000</speed>
</trkpt>
<trkpt lat="32.731147766" lon="35.064605713">
  <ele>384.494629</ele>
  <time>2011-06-17T04:06:06Z</time>
  <speed>6.800000</speed>
</trkpt>
<trkpt lat="32.731140137" lon="35.064533234">
  <ele>384.541504</ele>
  <time>2011-06-17T04:06:07Z</time>
  <speed>6.930000</speed>
</trkpt>
<trkpt lat="32.731132507" lon="35.064456940">
  <ele>385.104004</ele>
  <time>2011-06-17T04:06:08Z</time>
  <speed>6.600000</speed>
</trkpt>
<trkpt lat="32.731128693" lon="35.064388275">
  <ele>384.979004</ele>
  <time>2011-06-17T04:06:09Z</time>
  <speed>6.730000</speed>
</trkpt>
<trkpt lat="32.731121063" lon="35.064311981">
  <ele>385.354004</ele>
  <time>2011-06-17T04:06:10Z</time>
  <speed>6.710000</speed>
</trkpt>
<trkpt lat="32.731109619" lon="35.064239502">
  <ele>385.666504</ele>
  <time>2011-06-17T04:06:11Z</time>
  <speed>6.820000</speed>
</trkpt>
<trkpt lat="32.731109619" lon="35.064174652">
  <ele>385.455566</ele>
  <time>2011-06-17T04:06:12Z</time>
  <speed>6.430000</speed>
</trkpt>
<trkpt lat="32.731121063" lon="35.064109802">
  <ele>384.830566</ele>
  <time>2011-06-17T04:06:13Z</time>
  <speed>6.220000</speed>
</trkpt>
<trkpt lat="32.731143951" lon="35.064041138">
  <ele>384.885254</ele>
  <time>2011-06-17T04:06:14Z</time>
  <speed>6.470000</speed>
</trkpt>
<trkpt lat="32.731166840" lon="35.063980103">
  <ele>384.346191</ele>
  <time>2011-06-17T04:06:15Z</time>
  <speed>6.530000</speed>
</trkpt>
<trkpt lat="32.731197357" lon="35.063915253">
  <ele>384.229004</ele>
  <time>2011-06-17T04:06:16Z</time>
  <speed>6.390000</speed>
</trkpt>
<trkpt lat="32.731231689" lon="35.063858032">
  <ele>384.119629</ele>
  <time>2011-06-17T04:06:17Z</time>
  <speed>6.220000</speed>
</trkpt>
<trkpt lat="32.731277466" lon="35.063827515">
  <ele>381.650879</ele>
  <time>2011-06-17T04:06:18Z</time>
  <speed>6.620000</speed>
</trkpt>
<trkpt lat="32.731323242" lon="35.063793182">
  <ele>382.174316</ele>
  <time>2011-06-17T04:06:19Z</time>
  <speed>5.840000</speed>
</trkpt>
<trkpt lat="32.731361389" lon="35.063766479">
  <ele>382.174316</ele>
  <time>2011-06-17T04:06:20Z</time>
  <speed>5.410000</speed>
</trkpt>
<trkpt lat="32.731399536" lon="35.063724518">
  <ele>382.400879</ele>
  <time>2011-06-17T04:06:21Z</time>
  <speed>5.200000</speed>
</trkpt>
<trkpt lat="32.731426239" lon="35.063674927">
  <ele>383.119629</ele>
  <time>2011-06-17T04:06:22Z</time>
  <speed>5.110000</speed>
</trkpt>
<trkpt lat="32.731452942" lon="35.063632965">
  <ele>383.283691</ele>
  <time>2011-06-17T04:06:23Z</time>
  <speed>4.850000</speed>
</trkpt>
<trkpt lat="32.731475830" lon="35.063591003">
  <ele>383.674316</ele>
  <time>2011-06-17T04:06:24Z</time>
  <speed>4.630000</speed>
</trkpt>
<trkpt lat="32.731498718" lon="35.063545227">
  <ele>383.307129</ele>
  <time>2011-06-17T04:06:25Z</time>
  <speed>4.980000</speed>
</trkpt>
<trkpt lat="32.731525421" lon="35.063503265">
  <ele>383.377441</ele>
  <time>2011-06-17T04:06:26Z</time>
  <speed>4.950000</speed>
</trkpt>
<trkpt lat="32.731548309" lon="35.063465118">
  <ele>382.979004</ele>
  <time>2011-06-17T04:06:27Z</time>
  <speed>4.530000</speed>
</trkpt>
<trkpt lat="32.731575012" lon="35.063423157">
  <ele>383.604004</ele>
  <time>2011-06-17T04:06:28Z</time>
  <speed>4.760000</speed>
</trkpt>
<trkpt lat="32.731601715" lon="35.063377380">
  <ele>383.791504</ele>
  <time>2011-06-17T04:06:29Z</time>
  <speed>5.060000</speed>
</trkpt>
<trkpt lat="32.731628418" lon="35.063331604">
  <ele>383.682129</ele>
  <time>2011-06-17T04:06:30Z</time>
  <speed>4.540000</speed>
</trkpt>
<trkpt lat="32.731655121" lon="35.063285828">
  <ele>384.064941</ele>
  <time>2011-06-17T04:06:31Z</time>
  <speed>4.810000</speed>
</trkpt>
<trkpt lat="32.731681824" lon="35.063240051">
  <ele>384.830566</ele>
  <time>2011-06-17T04:06:32Z</time>
  <speed>4.760000</speed>
</trkpt>
<trkpt lat="32.731704712" lon="35.063194275">
  <ele>385.143066</ele>
  <time>2011-06-17T04:06:33Z</time>
  <speed>4.640000</speed>
</trkpt>
<trkpt lat="32.731731415" lon="35.063144684">
  <ele>385.908691</ele>
  <time>2011-06-17T04:06:34Z</time>
  <speed>4.810000</speed>
</trkpt>
<trkpt lat="32.731758118" lon="35.063098907">
  <ele>386.525879</ele>
  <time>2011-06-17T04:06:35Z</time>
  <speed>4.840000</speed>
</trkpt>
<trkpt lat="32.731777191" lon="35.063056946">
  <ele>386.916504</ele>
  <time>2011-06-17T04:06:36Z</time>
  <speed>5.100000</speed>
</trkpt>
<trkpt lat="32.731807709" lon="35.063014984">
  <ele>386.627441</ele>
  <time>2011-06-17T04:06:37Z</time>
  <speed>4.720000</speed>
</trkpt>
<trkpt lat="32.731834412" lon="35.062969208">
  <ele>386.854004</ele>
  <time>2011-06-17T04:06:38Z</time>
  <speed>4.900000</speed>
</trkpt>
<trkpt lat="32.731864929" lon="35.062923431">
  <ele>387.010254</ele>
  <time>2011-06-17T04:06:39Z</time>
  <speed>5.210000</speed>
</trkpt>
<trkpt lat="32.731895447" lon="35.062873840">
  <ele>387.041504</ele>
  <time>2011-06-17T04:06:40Z</time>
  <speed>5.090000</speed>
</trkpt>
<trkpt lat="32.731922150" lon="35.062831879">
  <ele>387.150879</ele>
  <time>2011-06-17T04:06:41Z</time>
  <speed>5.010000</speed>
</trkpt>
<trkpt lat="32.731948853" lon="35.062782288">
  <ele>387.658691</ele>
  <time>2011-06-17T04:06:42Z</time>
  <speed>5.050000</speed>
</trkpt>
<trkpt lat="32.731971741" lon="35.062744141">
  <ele>387.346191</ele>
  <time>2011-06-17T04:06:43Z</time>
  <speed>4.850000</speed>
</trkpt>
<trkpt lat="32.731987000" lon="35.062698364">
  <ele>386.518066</ele>
  <time>2011-06-17T04:06:44Z</time>
  <speed>5.210000</speed>
</trkpt>
<trkpt lat="32.732006073" lon="35.062648773">
  <ele>386.604004</ele>
  <time>2011-06-17T04:06:45Z</time>
  <speed>5.050000</speed>
</trkpt>
<trkpt lat="32.732013702" lon="35.062599182">
  <ele>387.049316</ele>
  <time>2011-06-17T04:06:46Z</time>
  <speed>4.690000</speed>
</trkpt>
<trkpt lat="32.732021332" lon="35.062545776">
  <ele>387.596191</ele>
  <time>2011-06-17T04:06:47Z</time>
  <speed>4.560000</speed>
</trkpt>
<trkpt lat="32.732028961" lon="35.062503815">
  <ele>387.205566</ele>
  <time>2011-06-17T04:06:48Z</time>
  <speed>4.580000</speed>
</trkpt>
<trkpt lat="32.732032776" lon="35.062461853">
  <ele>387.002441</ele>
  <time>2011-06-17T04:06:49Z</time>
  <speed>4.480000</speed>
</trkpt>
<trkpt lat="32.732032776" lon="35.062416077">
  <ele>386.721191</ele>
  <time>2011-06-17T04:06:50Z</time>
  <speed>4.350000</speed>
</trkpt>
<trkpt lat="32.732028961" lon="35.062370300">
  <ele>386.307129</ele>
  <time>2011-06-17T04:06:51Z</time>
  <speed>4.210000</speed>
</trkpt>
<trkpt lat="32.732028961" lon="35.062324524">
  <ele>386.471191</ele>
  <time>2011-06-17T04:06:52Z</time>
  <speed>4.100000</speed>
</trkpt>
<trkpt lat="32.732028961" lon="35.062278748">
  <ele>386.682129</ele>
  <time>2011-06-17T04:06:53Z</time>
  <speed>4.160000</speed>
</trkpt>
<trkpt lat="32.732028961" lon="35.062236786">
  <ele>386.963379</ele>
  <time>2011-06-17T04:06:54Z</time>
  <speed>4.300000</speed>
</trkpt>
<trkpt lat="32.732021332" lon="35.062191010">
  <ele>386.697754</ele>
  <time>2011-06-17T04:06:55Z</time>
  <speed>4.180000</speed>
</trkpt>
<trkpt lat="32.732013702" lon="35.062149048">
  <ele>386.385254</ele>
  <time>2011-06-17T04:06:56Z</time>
  <speed>4.360000</speed>
</trkpt>
<trkpt lat="32.731994629" lon="35.062099457">
  <ele>385.744629</ele>
  <time>2011-06-17T04:06:57Z</time>
  <speed>4.630000</speed>
</trkpt>
<trkpt lat="32.731979370" lon="35.062061310">
  <ele>384.768066</ele>
  <time>2011-06-17T04:06:58Z</time>
  <speed>4.590000</speed>
</trkpt>
<trkpt lat="32.731952667" lon="35.062011719">
  <ele>384.721191</ele>
  <time>2011-06-17T04:06:59Z</time>
  <speed>5.170000</speed>
</trkpt>
<trkpt lat="32.731933594" lon="35.061958313">
  <ele>385.713379</ele>
  <time>2011-06-17T04:07:00Z</time>
  <speed>5.180000</speed>
</trkpt>
<trkpt lat="32.731918335" lon="35.061904907">
  <ele>386.104004</ele>
  <time>2011-06-17T04:07:01Z</time>
  <speed>5.090000</speed>
</trkpt>
<trkpt lat="32.731899261" lon="35.061851501">
  <ele>385.979004</ele>
  <time>2011-06-17T04:07:02Z</time>
  <speed>5.330000</speed>
</trkpt>
<trkpt lat="32.731884003" lon="35.061798096">
  <ele>385.104004</ele>
  <time>2011-06-17T04:07:03Z</time>
  <speed>4.790000</speed>
</trkpt>
<trkpt lat="32.731868744" lon="35.061748505">
  <ele>384.416504</ele>
  <time>2011-06-17T04:07:04Z</time>
  <speed>4.450000</speed>
</trkpt>
<trkpt lat="32.731853485" lon="35.061706543">
  <ele>384.377441</ele>
  <time>2011-06-17T04:07:05Z</time>
  <speed>4.220000</speed>
</trkpt>
<trkpt lat="32.731834412" lon="35.061664581">
  <ele>384.393066</ele>
  <time>2011-06-17T04:07:06Z</time>
  <speed>4.390000</speed>
</trkpt>
<trkpt lat="32.731803894" lon="35.061630249">
  <ele>383.580566</ele>
  <time>2011-06-17T04:07:07Z</time>
  <speed>4.320000</speed>
</trkpt>
<trkpt lat="32.731773376" lon="35.061595917">
  <ele>383.189941</ele>
  <time>2011-06-17T04:07:08Z</time>
  <speed>4.610000</speed>
</trkpt>
<trkpt lat="32.731739044" lon="35.061561584">
  <ele>382.596191</ele>
  <time>2011-06-17T04:07:09Z</time>
  <speed>4.960000</speed>
</trkpt>
<trkpt lat="32.731712341" lon="35.061523438">
  <ele>382.572754</ele>
  <time>2011-06-17T04:07:10Z</time>
  <speed>4.910000</speed>
</trkpt>
<trkpt lat="32.731681824" lon="35.061477661">
  <ele>382.361816</ele>
  <time>2011-06-17T04:07:11Z</time>
  <speed>5.420000</speed>
</trkpt>
<trkpt lat="32.731655121" lon="35.061431885">
  <ele>382.893066</ele>
  <time>2011-06-17T04:07:12Z</time>
  <speed>5.150000</speed>
</trkpt>
<trkpt lat="32.731636047" lon="35.061378479">
  <ele>382.541504</ele>
  <time>2011-06-17T04:07:13Z</time>
  <speed>5.180000</speed>
</trkpt>
<trkpt lat="32.731620789" lon="35.061336517">
  <ele>383.072754</ele>
  <time>2011-06-17T04:07:14Z</time>
  <speed>4.600000</speed>
</trkpt>
<trkpt lat="32.731605530" lon="35.061290741">
  <ele>383.213379</ele>
  <time>2011-06-17T04:07:15Z</time>
  <speed>4.410000</speed>
</trkpt>
<trkpt lat="32.731601715" lon="35.061244965">
  <ele>382.760254</ele>
  <time>2011-06-17T04:07:16Z</time>
  <speed>4.030000</speed>
</trkpt>
<trkpt lat="32.731597900" lon="35.061203003">
  <ele>382.697754</ele>
  <time>2011-06-17T04:07:17Z</time>
  <speed>3.410000</speed>
</trkpt>
<trkpt lat="32.731613159" lon="35.061176300">
  <ele>382.166504</ele>
  <time>2011-06-17T04:07:18Z</time>
  <speed>3.130000</speed>
</trkpt>
<trkpt lat="32.731639862" lon="35.061149597">
  <ele>382.104004</ele>
  <time>2011-06-17T04:07:19Z</time>
  <speed>3.360000</speed>
</trkpt>
<trkpt lat="32.731670380" lon="35.061157227">
  <ele>379.760254</ele>
  <time>2011-06-17T04:07:20Z</time>
  <speed>3.140000</speed>
</trkpt>
<trkpt lat="32.731704712" lon="35.061164856">
  <ele>377.768066</ele>
  <time>2011-06-17T04:07:21Z</time>
  <speed>3.690000</speed>
</trkpt>
<trkpt lat="32.731739044" lon="35.061176300">
  <ele>376.768066</ele>
  <time>2011-06-17T04:07:22Z</time>
  <speed>3.580000</speed>
</trkpt>
<trkpt lat="32.731777191" lon="35.061187744">
  <ele>376.119629</ele>
  <time>2011-06-17T04:07:23Z</time>
  <speed>4.240000</speed>
</trkpt>
<trkpt lat="32.731811523" lon="35.061199188">
  <ele>375.736816</ele>
  <time>2011-06-17T04:07:24Z</time>
  <speed>4.600000</speed>
</trkpt>
<trkpt lat="32.731853485" lon="35.061225891">
  <ele>374.674316</ele>
  <time>2011-06-17T04:07:25Z</time>
  <speed>4.880000</speed>
</trkpt>
<trkpt lat="32.731895447" lon="35.061252594">
  <ele>373.525879</ele>
  <time>2011-06-17T04:07:26Z</time>
  <speed>5.200000</speed>
</trkpt>
<trkpt lat="32.731945038" lon="35.061283112">
  <ele>372.424316</ele>
  <time>2011-06-17T04:07:27Z</time>
  <speed>5.480000</speed>
</trkpt>
<trkpt lat="32.731998444" lon="35.061313629">
  <ele>372.744629</ele>
  <time>2011-06-17T04:07:28Z</time>
  <speed>5.560000</speed>
</trkpt>
<trkpt lat="32.732055664" lon="35.061332703">
  <ele>371.697754</ele>
  <time>2011-06-17T04:07:29Z</time>
  <speed>5.580000</speed>
</trkpt>
<trkpt lat="32.732109070" lon="35.061363220">
  <ele>370.557129</ele>
  <time>2011-06-17T04:07:30Z</time>
  <speed>6.200000</speed>
</trkpt>
<trkpt lat="32.732166290" lon="35.061389923">
  <ele>369.322754</ele>
  <time>2011-06-17T04:07:31Z</time>
  <speed>6.720000</speed>
</trkpt>
<trkpt lat="32.732219696" lon="35.061416626">
  <ele>368.799316</ele>
  <time>2011-06-17T04:07:32Z</time>
  <speed>6.760000</speed>
</trkpt>
<trkpt lat="32.732280731" lon="35.061439514">
  <ele>368.236816</ele>
  <time>2011-06-17T04:07:33Z</time>
  <speed>7.030000</speed>
</trkpt>
<trkpt lat="32.732341766" lon="35.061466217">
  <ele>367.533691</ele>
  <time>2011-06-17T04:07:34Z</time>
  <speed>7.260000</speed>
</trkpt>
<trkpt lat="32.732402802" lon="35.061508179">
  <ele>367.229004</ele>
  <time>2011-06-17T04:07:35Z</time>
  <speed>7.140000</speed>
</trkpt>
<trkpt lat="32.732467651" lon="35.061546326">
  <ele>367.041504</ele>
  <time>2011-06-17T04:07:36Z</time>
  <speed>7.590000</speed>
</trkpt>
<trkpt lat="32.732540131" lon="35.061584473">
  <ele>367.174316</ele>
  <time>2011-06-17T04:07:37Z</time>
  <speed>7.900000</speed>
</trkpt>
<trkpt lat="32.732604980" lon="35.061611176">
  <ele>366.814941</ele>
  <time>2011-06-17T04:07:38Z</time>
  <speed>7.930000</speed>
</trkpt>
<trkpt lat="32.732677460" lon="35.061626434">
  <ele>366.791504</ele>
  <time>2011-06-17T04:07:39Z</time>
  <speed>8.110000</speed>
</trkpt>
<trkpt lat="32.732749939" lon="35.061626434">
  <ele>366.650879</ele>
  <time>2011-06-17T04:07:40Z</time>
  <speed>8.330000</speed>
</trkpt>
<trkpt lat="32.732830048" lon="35.061626434">
  <ele>365.971191</ele>
  <time>2011-06-17T04:07:41Z</time>
  <speed>8.570000</speed>
</trkpt>
<trkpt lat="32.732906342" lon="35.061607361">
  <ele>364.596191</ele>
  <time>2011-06-17T04:07:42Z</time>
  <speed>8.760000</speed>
</trkpt>
<trkpt lat="32.732955933" lon="35.061584473">
  <ele>364.291504</ele>
  <time>2011-06-17T04:07:43Z</time>
  <speed>7.510000</speed>
</trkpt>
<trkpt lat="32.733013153" lon="35.061550140">
  <ele>363.541504</ele>
  <time>2011-06-17T04:07:44Z</time>
  <speed>7.470000</speed>
</trkpt>
<trkpt lat="32.733066559" lon="35.061500549">
  <ele>362.900879</ele>
  <time>2011-06-17T04:07:45Z</time>
  <speed>7.360000</speed>
</trkpt>
<trkpt lat="32.733116150" lon="35.061450958">
  <ele>363.205566</ele>
  <time>2011-06-17T04:07:46Z</time>
  <speed>7.200000</speed>
</trkpt>
<trkpt lat="32.733161926" lon="35.061393738">
  <ele>363.104004</ele>
  <time>2011-06-17T04:07:47Z</time>
  <speed>7.190000</speed>
</trkpt>
<trkpt lat="32.733211517" lon="35.061328888">
  <ele>363.400879</ele>
  <time>2011-06-17T04:07:48Z</time>
  <speed>7.120000</speed>
</trkpt>
<trkpt lat="32.733242035" lon="35.061256409">
  <ele>364.697754</ele>
  <time>2011-06-17T04:07:49Z</time>
  <speed>7.030000</speed>
</trkpt>
<trkpt lat="32.733264923" lon="35.061164856">
  <ele>366.330566</ele>
  <time>2011-06-17T04:07:50Z</time>
  <speed>7.040000</speed>
</trkpt>
<trkpt lat="32.733280182" lon="35.061092377">
  <ele>366.986816</ele>
  <time>2011-06-17T04:07:51Z</time>
  <speed>6.970000</speed>
</trkpt>
<trkpt lat="32.733291626" lon="35.061016083">
  <ele>367.385254</ele>
  <time>2011-06-17T04:07:52Z</time>
  <speed>6.970000</speed>
</trkpt>
<trkpt lat="32.733303070" lon="35.060935974">
  <ele>367.814941</ele>
  <time>2011-06-17T04:07:53Z</time>
  <speed>7.180000</speed>
</trkpt>
<trkpt lat="32.733314514" lon="35.060852051">
  <ele>368.447754</ele>
  <time>2011-06-17T04:07:54Z</time>
  <speed>7.110000</speed>
</trkpt>
<trkpt lat="32.733318329" lon="35.060771942">
  <ele>368.869629</ele>
  <time>2011-06-17T04:07:55Z</time>
  <speed>7.330000</speed>
</trkpt>
<trkpt lat="32.733318329" lon="35.060688019">
  <ele>370.002441</ele>
  <time>2011-06-17T04:07:56Z</time>
  <speed>7.400000</speed>
</trkpt>
<trkpt lat="32.733314514" lon="35.060607910">
  <ele>370.533691</ele>
  <time>2011-06-17T04:07:57Z</time>
  <speed>6.830000</speed>
</trkpt>
<trkpt lat="32.733314514" lon="35.060535431">
  <ele>369.979004</ele>
  <time>2011-06-17T04:07:58Z</time>
  <speed>6.450000</speed>
</trkpt>
<trkpt lat="32.733314514" lon="35.060462952">
  <ele>369.830566</ele>
  <time>2011-06-17T04:07:59Z</time>
  <speed>6.380000</speed>
</trkpt>
<trkpt lat="32.733310699" lon="35.060394287">
  <ele>370.252441</ele>
  <time>2011-06-17T04:08:00Z</time>
  <speed>6.710000</speed>
</trkpt>
<trkpt lat="32.733299255" lon="35.060321808">
  <ele>370.572754</ele>
  <time>2011-06-17T04:08:01Z</time>
  <speed>6.690000</speed>
</trkpt>
<trkpt lat="32.733291626" lon="35.060253143">
  <ele>370.635254</ele>
  <time>2011-06-17T04:08:02Z</time>
  <speed>6.540000</speed>
</trkpt>
<trkpt lat="32.733295441" lon="35.060180664">
  <ele>370.275879</ele>
  <time>2011-06-17T04:08:03Z</time>
  <speed>6.780000</speed>
</trkpt>
<trkpt lat="32.733306885" lon="35.060108185">
  <ele>370.033691</ele>
  <time>2011-06-17T04:08:04Z</time>
  <speed>6.230000</speed>
</trkpt>
<trkpt lat="32.733329773" lon="35.060047150">
  <ele>369.439941</ele>
  <time>2011-06-17T04:08:05Z</time>
  <speed>5.680000</speed>
</trkpt>
<trkpt lat="32.733360291" lon="35.059989929">
  <ele>369.455566</ele>
  <time>2011-06-17T04:08:06Z</time>
  <speed>6.080000</speed>
</trkpt>
<trkpt lat="32.733390808" lon="35.059936523">
  <ele>369.494629</ele>
  <time>2011-06-17T04:08:07Z</time>
  <speed>5.890000</speed>
</trkpt>
<trkpt lat="32.733428955" lon="35.059875488">
  <ele>369.049316</ele>
  <time>2011-06-17T04:08:08Z</time>
  <speed>6.420000</speed>
</trkpt>
<trkpt lat="32.733459473" lon="35.059818268">
  <ele>368.682129</ele>
  <time>2011-06-17T04:08:09Z</time>
  <speed>5.990000</speed>
</trkpt>
<trkpt lat="32.733493805" lon="35.059753418">
  <ele>368.627441</ele>
  <time>2011-06-17T04:08:10Z</time>
  <speed>6.590000</speed>
</trkpt>
<trkpt lat="32.733524323" lon="35.059688568">
  <ele>368.557129</ele>
  <time>2011-06-17T04:08:11Z</time>
  <speed>7.010000</speed>
</trkpt>
<trkpt lat="32.733566284" lon="35.059619904">
  <ele>368.064941</ele>
  <time>2011-06-17T04:08:12Z</time>
  <speed>7.690000</speed>
</trkpt>
<trkpt lat="32.733612061" lon="35.059558868">
  <ele>367.650879</ele>
  <time>2011-06-17T04:08:13Z</time>
  <speed>7.820000</speed>
</trkpt>
<trkpt lat="32.733673096" lon="35.059505463">
  <ele>367.119629</ele>
  <time>2011-06-17T04:08:14Z</time>
  <speed>7.770000</speed>
</trkpt>
<trkpt lat="32.733737946" lon="35.059497833">
  <ele>363.814941</ele>
  <time>2011-06-17T04:08:15Z</time>
  <speed>6.710000</speed>
</trkpt>
<trkpt lat="32.733795166" lon="35.059501648">
  <ele>361.143066</ele>
  <time>2011-06-17T04:08:16Z</time>
  <speed>5.930000</speed>
</trkpt>
<trkpt lat="32.733844757" lon="35.059516907">
  <ele>358.924316</ele>
  <time>2011-06-17T04:08:17Z</time>
  <speed>5.800000</speed>
</trkpt>
<trkpt lat="32.733894348" lon="35.059543610">
  <ele>357.900879</ele>
  <time>2011-06-17T04:08:18Z</time>
  <speed>5.650000</speed>
</trkpt>
<trkpt lat="32.733921051" lon="35.059589386">
  <ele>356.236816</ele>
  <time>2011-06-17T04:08:19Z</time>
  <speed>4.550000</speed>
</trkpt>
<trkpt lat="32.733943939" lon="35.059631348">
  <ele>355.260254</ele>
  <time>2011-06-17T04:08:20Z</time>
  <speed>4.570000</speed>
</trkpt>
<trkpt lat="32.733966827" lon="35.059673309">
  <ele>353.713379</ele>
  <time>2011-06-17T04:08:21Z</time>
  <speed>4.240000</speed>
</trkpt>
<trkpt lat="32.733970642" lon="35.059722900">
  <ele>352.947754</ele>
  <time>2011-06-17T04:08:22Z</time>
  <speed>4.390000</speed>
</trkpt>
<trkpt lat="32.733985901" lon="35.059768677">
  <ele>352.486816</ele>
  <time>2011-06-17T04:08:23Z</time>
  <speed>3.870000</speed>
</trkpt>
<trkpt lat="32.734008789" lon="35.059806824">
  <ele>352.033691</ele>
  <time>2011-06-17T04:08:24Z</time>
  <speed>4.160000</speed>
</trkpt>
<trkpt lat="32.734027863" lon="35.059844971">
  <ele>351.010254</ele>
  <time>2011-06-17T04:08:25Z</time>
  <speed>3.970000</speed>
</trkpt>
<trkpt lat="32.734058380" lon="35.059875488">
  <ele>350.158691</ele>
  <time>2011-06-17T04:08:26Z</time>
  <speed>4.230000</speed>
</trkpt>
<trkpt lat="32.734096527" lon="35.059909821">
  <ele>350.002441</ele>
  <time>2011-06-17T04:08:27Z</time>
  <speed>4.870000</speed>
</trkpt>
<trkpt lat="32.734130859" lon="35.059947968">
  <ele>350.338379</ele>
  <time>2011-06-17T04:08:28Z</time>
  <speed>5.270000</speed>
</trkpt>
<trkpt lat="32.734169006" lon="35.059974670">
  <ele>349.900879</ele>
  <time>2011-06-17T04:08:29Z</time>
  <speed>5.430000</speed>
</trkpt>
<trkpt lat="32.734218597" lon="35.060001373">
  <ele>350.268066</ele>
  <time>2011-06-17T04:08:30Z</time>
  <speed>5.650000</speed>
</trkpt>
<trkpt lat="32.734264374" lon="35.060016632">
  <ele>349.893066</ele>
  <time>2011-06-17T04:08:31Z</time>
  <speed>5.570000</speed>
</trkpt>
<trkpt lat="32.734317780" lon="35.060031891">
  <ele>350.979004</ele>
  <time>2011-06-17T04:08:32Z</time>
  <speed>5.650000</speed>
</trkpt>
<trkpt lat="32.734363556" lon="35.060050964">
  <ele>350.596191</ele>
  <time>2011-06-17T04:08:33Z</time>
  <speed>5.330000</speed>
</trkpt>
<trkpt lat="32.734409332" lon="35.060062408">
  <ele>350.869629</ele>
  <time>2011-06-17T04:08:34Z</time>
  <speed>5.110000</speed>
</trkpt>
<trkpt lat="32.734455109" lon="35.060062408">
  <ele>350.955566</ele>
  <time>2011-06-17T04:08:35Z</time>
  <speed>4.740000</speed>
</trkpt>
<trkpt lat="32.734497070" lon="35.060073853">
  <ele>350.525879</ele>
  <time>2011-06-17T04:08:36Z</time>
  <speed>5.030000</speed>
</trkpt>
<trkpt lat="32.734542847" lon="35.060073853">
  <ele>350.471191</ele>
  <time>2011-06-17T04:08:37Z</time>
  <speed>5.250000</speed>
</trkpt>
<trkpt lat="32.734588623" lon="35.060070038">
  <ele>349.721191</ele>
  <time>2011-06-17T04:08:38Z</time>
  <speed>5.160000</speed>
</trkpt>
<trkpt lat="32.734642029" lon="35.060066223">
  <ele>349.104004</ele>
  <time>2011-06-17T04:08:39Z</time>
  <speed>5.250000</speed>
</trkpt>
<trkpt lat="32.734691620" lon="35.060070038">
  <ele>349.799316</ele>
  <time>2011-06-17T04:08:40Z</time>
  <speed>4.950000</speed>
</trkpt>
<trkpt lat="32.734737396" lon="35.060066223">
  <ele>349.924316</ele>
  <time>2011-06-17T04:08:41Z</time>
  <speed>5.550000</speed>
</trkpt>
<trkpt lat="32.734786987" lon="35.060062408">
  <ele>349.775879</ele>
  <time>2011-06-17T04:08:42Z</time>
  <speed>5.940000</speed>
</trkpt>
<trkpt lat="32.734844208" lon="35.060054779">
  <ele>349.830566</ele>
  <time>2011-06-17T04:08:43Z</time>
  <speed>6.200000</speed>
</trkpt>
<trkpt lat="32.734893799" lon="35.060047150">
  <ele>349.229004</ele>
  <time>2011-06-17T04:08:44Z</time>
  <speed>6.090000</speed>
</trkpt>
<trkpt lat="32.734951019" lon="35.060035706">
  <ele>348.822754</ele>
  <time>2011-06-17T04:08:45Z</time>
  <speed>6.790000</speed>
</trkpt>
<trkpt lat="32.735008240" lon="35.060024261">
  <ele>348.658691</ele>
  <time>2011-06-17T04:08:46Z</time>
  <speed>6.870000</speed>
</trkpt>
<trkpt lat="32.735069275" lon="35.060001373">
  <ele>348.275879</ele>
  <time>2011-06-17T04:08:47Z</time>
  <speed>7.270000</speed>
</trkpt>
<trkpt lat="32.735130310" lon="35.059974670">
  <ele>347.807129</ele>
  <time>2011-06-17T04:08:48Z</time>
  <speed>7.480000</speed>
</trkpt>
<trkpt lat="32.735191345" lon="35.059932709">
  <ele>347.314941</ele>
  <time>2011-06-17T04:08:49Z</time>
  <speed>7.480000</speed>
</trkpt>
<trkpt lat="32.735248566" lon="35.059890747">
  <ele>346.721191</ele>
  <time>2011-06-17T04:08:50Z</time>
  <speed>7.730000</speed>
</trkpt>
<trkpt lat="32.735301971" lon="35.059844971">
  <ele>346.104004</ele>
  <time>2011-06-17T04:08:51Z</time>
  <speed>7.440000</speed>
</trkpt>
<trkpt lat="32.735355377" lon="35.059795380">
  <ele>345.744629</ele>
  <time>2011-06-17T04:08:52Z</time>
  <speed>7.690000</speed>
</trkpt>
<trkpt lat="32.735416412" lon="35.059741974">
  <ele>344.979004</ele>
  <time>2011-06-17T04:08:53Z</time>
  <speed>7.590000</speed>
</trkpt>
<trkpt lat="32.735473633" lon="35.059684753">
  <ele>344.213379</ele>
  <time>2011-06-17T04:08:54Z</time>
  <speed>7.740000</speed>
</trkpt>
<trkpt lat="32.735534668" lon="35.059642792">
  <ele>343.611816</ele>
  <time>2011-06-17T04:08:55Z</time>
  <speed>7.300000</speed>
</trkpt>
<trkpt lat="32.735599518" lon="35.059623718">
  <ele>342.877441</ele>
  <time>2011-06-17T04:08:56Z</time>
  <speed>6.600000</speed>
</trkpt>
<trkpt lat="32.735649109" lon="35.059627533">
  <ele>342.221191</ele>
  <time>2011-06-17T04:08:57Z</time>
  <speed>5.780000</speed>
</trkpt>
<trkpt lat="32.735691071" lon="35.059646606">
  <ele>341.463379</ele>
  <time>2011-06-17T04:08:58Z</time>
  <speed>4.200000</speed>
</trkpt>
<trkpt lat="32.735717773" lon="35.059673309">
  <ele>340.596191</ele>
  <time>2011-06-17T04:08:59Z</time>
  <speed>3.290000</speed>
</trkpt>
<trkpt lat="32.735729218" lon="35.059711456">
  <ele>340.229004</ele>
  <time>2011-06-17T04:09:00Z</time>
  <speed>3.480000</speed>
</trkpt>
<trkpt lat="32.735717773" lon="35.059787750">
  <ele>340.908691</ele>
  <time>2011-06-17T04:09:01Z</time>
  <speed>4.110000</speed>
</trkpt>
<trkpt lat="32.735713959" lon="35.059841156">
  <ele>341.299316</ele>
  <time>2011-06-17T04:09:02Z</time>
  <speed>4.540000</speed>
</trkpt>
<trkpt lat="32.735710144" lon="35.059879303">
  <ele>341.471191</ele>
  <time>2011-06-17T04:09:03Z</time>
  <speed>4.160000</speed>
</trkpt>
<trkpt lat="32.735713959" lon="35.059925079">
  <ele>341.213379</ele>
  <time>2011-06-17T04:09:04Z</time>
  <speed>3.730000</speed>
</trkpt>
<trkpt lat="32.735706329" lon="35.059978485">
  <ele>340.760254</ele>
  <time>2011-06-17T04:09:05Z</time>
  <speed>3.950000</speed>
</trkpt>
<trkpt lat="32.735706329" lon="35.060028076">
  <ele>340.369629</ele>
  <time>2011-06-17T04:09:06Z</time>
  <speed>4.000000</speed>
</trkpt>
<trkpt lat="32.735706329" lon="35.060070038">
  <ele>340.057129</ele>
  <time>2011-06-17T04:09:07Z</time>
  <speed>3.590000</speed>
</trkpt>
<trkpt lat="32.735706329" lon="35.060108185">
  <ele>340.533691</ele>
  <time>2011-06-17T04:09:08Z</time>
  <speed>3.370000</speed>
</trkpt>
<trkpt lat="32.735713959" lon="35.060150146">
  <ele>340.158691</ele>
  <time>2011-06-17T04:09:09Z</time>
  <speed>3.700000</speed>
</trkpt>
<trkpt lat="32.735721588" lon="35.060192108">
  <ele>340.213379</ele>
  <time>2011-06-17T04:09:10Z</time>
  <speed>3.320000</speed>
</trkpt>
<trkpt lat="32.735729218" lon="35.060226440">
  <ele>340.471191</ele>
  <time>2011-06-17T04:09:11Z</time>
  <speed>3.130000</speed>
</trkpt>
<trkpt lat="32.735736847" lon="35.060260773">
  <ele>340.260254</ele>
  <time>2011-06-17T04:09:12Z</time>
  <speed>3.000000</speed>
</trkpt>
<trkpt lat="32.735752106" lon="35.060291290">
  <ele>340.393066</ele>
  <time>2011-06-17T04:09:13Z</time>
  <speed>3.210000</speed>
</trkpt>
<trkpt lat="32.735767365" lon="35.060321808">
  <ele>340.354004</ele>
  <time>2011-06-17T04:09:14Z</time>
  <speed>3.460000</speed>
</trkpt>
<trkpt lat="32.735786438" lon="35.060352325">
  <ele>340.986816</ele>
  <time>2011-06-17T04:09:15Z</time>
  <speed>3.360000</speed>
</trkpt>
<trkpt lat="32.735805511" lon="35.060379028">
  <ele>341.096191</ele>
  <time>2011-06-17T04:09:16Z</time>
  <speed>3.400000</speed>
</trkpt>
<trkpt lat="32.735820770" lon="35.060413361">
  <ele>341.010254</ele>
  <time>2011-06-17T04:09:17Z</time>
  <speed>3.320000</speed>
</trkpt>
<trkpt lat="32.735839844" lon="35.060447693">
  <ele>340.994629</ele>
  <time>2011-06-17T04:09:18Z</time>
  <speed>3.540000</speed>
</trkpt>
<trkpt lat="32.735862732" lon="35.060470581">
  <ele>341.314941</ele>
  <time>2011-06-17T04:09:19Z</time>
  <speed>3.490000</speed>
</trkpt>
<trkpt lat="32.735889435" lon="35.060501099">
  <ele>341.291504</ele>
  <time>2011-06-17T04:09:20Z</time>
  <speed>3.570000</speed>
</trkpt>
<trkpt lat="32.735916138" lon="35.060520172">
  <ele>341.533691</ele>
  <time>2011-06-17T04:09:21Z</time>
  <speed>3.340000</speed>
</trkpt>
<trkpt lat="32.735942841" lon="35.060535431">
  <ele>341.502441</ele>
  <time>2011-06-17T04:09:22Z</time>
  <speed>3.140000</speed>
</trkpt>
<trkpt lat="32.735961914" lon="35.060554504">
  <ele>341.971191</ele>
  <time>2011-06-17T04:09:23Z</time>
  <speed>3.340000</speed>
</trkpt>
<trkpt lat="32.735996246" lon="35.060573578">
  <ele>342.604004</ele>
  <time>2011-06-17T04:09:24Z</time>
  <speed>3.440000</speed>
</trkpt>
<trkpt lat="32.736019135" lon="35.060596466">
  <ele>342.510254</ele>
  <time>2011-06-17T04:09:25Z</time>
  <speed>3.250000</speed>
</trkpt>
<trkpt lat="32.736049652" lon="35.060615540">
  <ele>343.025879</ele>
  <time>2011-06-17T04:09:26Z</time>
  <speed>2.850000</speed>
</trkpt>
<trkpt lat="32.736080170" lon="35.060623169">
  <ele>342.869629</ele>
  <time>2011-06-17T04:09:27Z</time>
  <speed>3.040000</speed>
</trkpt>
<trkpt lat="32.736129761" lon="35.060649872">
  <ele>342.838379</ele>
  <time>2011-06-17T04:09:29Z</time>
  <speed>3.080000</speed>
</trkpt>
<trkpt lat="32.736156464" lon="35.060661316">
  <ele>342.854004</ele>
  <time>2011-06-17T04:09:30Z</time>
  <speed>3.310000</speed>
</trkpt>
<trkpt lat="32.736186981" lon="35.060672760">
  <ele>342.924316</ele>
  <time>2011-06-17T04:09:31Z</time>
  <speed>3.240000</speed>
</trkpt>
<trkpt lat="32.736217499" lon="35.060684204">
  <ele>342.924316</ele>
  <time>2011-06-17T04:09:32Z</time>
  <speed>3.270000</speed>
</trkpt>
<trkpt lat="32.736244202" lon="35.060695648">
  <ele>343.283691</ele>
  <time>2011-06-17T04:09:33Z</time>
  <speed>3.260000</speed>
</trkpt>
<trkpt lat="32.736278534" lon="35.060695648">
  <ele>343.861816</ele>
  <time>2011-06-17T04:09:34Z</time>
  <speed>3.080000</speed>
</trkpt>
<trkpt lat="32.736309052" lon="35.060707092">
  <ele>343.689941</ele>
  <time>2011-06-17T04:09:35Z</time>
  <speed>3.330000</speed>
</trkpt>
<trkpt lat="32.736343384" lon="35.060710907">
  <ele>343.744629</ele>
  <time>2011-06-17T04:09:36Z</time>
  <speed>3.620000</speed>
</trkpt>
<trkpt lat="32.736370087" lon="35.060718536">
  <ele>344.783691</ele>
  <time>2011-06-17T04:09:37Z</time>
  <speed>3.120000</speed>
</trkpt>
<trkpt lat="32.736423492" lon="35.060722351">
  <ele>344.689941</ele>
  <time>2011-06-17T04:09:39Z</time>
  <speed>3.100000</speed>
</trkpt>
<trkpt lat="32.736473083" lon="35.060733795">
  <ele>345.213379</ele>
  <time>2011-06-17T04:09:41Z</time>
  <speed>2.820000</speed>
</trkpt>
<trkpt lat="32.736522675" lon="35.060752869">
  <ele>345.502441</ele>
  <time>2011-06-17T04:09:43Z</time>
  <speed>2.750000</speed>
</trkpt>
<trkpt lat="32.736568451" lon="35.060764313">
  <ele>346.111816</ele>
  <time>2011-06-17T04:09:45Z</time>
  <speed>2.590000</speed>
</trkpt>
<trkpt lat="32.736602783" lon="35.060749054">
  <ele>345.994629</ele>
  <time>2011-06-17T04:09:46Z</time>
  <speed>2.920000</speed>
</trkpt>
<trkpt lat="32.736629486" lon="35.060745239">
  <ele>346.432129</ele>
  <time>2011-06-17T04:09:47Z</time>
  <speed>3.130000</speed>
</trkpt>
<trkpt lat="32.736660004" lon="35.060729980">
  <ele>346.572754</ele>
  <time>2011-06-17T04:09:48Z</time>
  <speed>3.030000</speed>
</trkpt>
<trkpt lat="32.736686707" lon="35.060737610">
  <ele>349.869629</ele>
  <time>2011-06-17T04:09:49Z</time>
  <speed>2.960000</speed>
</trkpt>
<trkpt lat="32.736732483" lon="35.060714722">
  <ele>350.197754</ele>
  <time>2011-06-17T04:09:51Z</time>
  <speed>3.030000</speed>
</trkpt>
<trkpt lat="32.736755371" lon="35.060707092">
  <ele>352.830566</ele>
  <time>2011-06-17T04:09:52Z</time>
  <speed>2.720000</speed>
</trkpt>
<trkpt lat="32.736778259" lon="35.060695648">
  <ele>355.143066</ele>
  <time>2011-06-17T04:09:53Z</time>
  <speed>2.920000</speed>
</trkpt>
<trkpt lat="32.736793518" lon="35.060676575">
  <ele>356.057129</ele>
  <time>2011-06-17T04:09:54Z</time>
  <speed>3.030000</speed>
</trkpt>
<trkpt lat="32.736816406" lon="35.060649872">
  <ele>358.057129</ele>
  <time>2011-06-17T04:09:55Z</time>
  <speed>3.310000</speed>
</trkpt>
<trkpt lat="32.736869812" lon="35.060646057">
  <ele>358.393066</ele>
  <time>2011-06-17T04:09:57Z</time>
  <speed>3.280000</speed>
</trkpt>
<trkpt lat="32.736896515" lon="35.060638428">
  <ele>358.244629</ele>
  <time>2011-06-17T04:09:58Z</time>
  <speed>3.120000</speed>
</trkpt>
<trkpt lat="32.736927032" lon="35.060626984">
  <ele>358.861816</ele>
  <time>2011-06-17T04:09:59Z</time>
  <speed>3.250000</speed>
</trkpt>
<trkpt lat="32.736972809" lon="35.060611725">
  <ele>360.854004</ele>
  <time>2011-06-17T04:10:01Z</time>
  <speed>3.030000</speed>
</trkpt>
<trkpt lat="32.737022400" lon="35.060585022">
  <ele>362.057129</ele>
  <time>2011-06-17T04:10:03Z</time>
  <speed>3.210000</speed>
</trkpt>
<trkpt lat="32.737045288" lon="35.060573578">
  <ele>361.729004</ele>
  <time>2011-06-17T04:10:04Z</time>
  <speed>3.110000</speed>
</trkpt>
<trkpt lat="32.737075806" lon="35.060554504">
  <ele>361.861816</ele>
  <time>2011-06-17T04:10:05Z</time>
  <speed>3.180000</speed>
</trkpt>
<trkpt lat="32.737102509" lon="35.060535431">
  <ele>362.525879</ele>
  <time>2011-06-17T04:10:06Z</time>
  <speed>3.320000</speed>
</trkpt>
<trkpt lat="32.737129211" lon="35.060516357">
  <ele>362.643066</ele>
  <time>2011-06-17T04:10:07Z</time>
  <speed>3.390000</speed>
</trkpt>
<trkpt lat="32.737155914" lon="35.060493469">
  <ele>362.697754</ele>
  <time>2011-06-17T04:10:08Z</time>
  <speed>3.540000</speed>
</trkpt>
<trkpt lat="32.737186432" lon="35.060474396">
  <ele>362.471191</ele>
  <time>2011-06-17T04:10:09Z</time>
  <speed>3.650000</speed>
</trkpt>
<trkpt lat="32.737213135" lon="35.060451508">
  <ele>362.307129</ele>
  <time>2011-06-17T04:10:10Z</time>
  <speed>3.590000</speed>
</trkpt>
<trkpt lat="32.737239838" lon="35.060420990">
  <ele>362.971191</ele>
  <time>2011-06-17T04:10:11Z</time>
  <speed>3.540000</speed>
</trkpt>
<trkpt lat="32.737266541" lon="35.060398102">
  <ele>363.611816</ele>
  <time>2011-06-17T04:10:12Z</time>
  <speed>3.580000</speed>
</trkpt>
<trkpt lat="32.737293243" lon="35.060371399">
  <ele>363.760254</ele>
  <time>2011-06-17T04:10:13Z</time>
  <speed>3.630000</speed>
</trkpt>
<trkpt lat="32.737319946" lon="35.060348511">
  <ele>363.885254</ele>
  <time>2011-06-17T04:10:14Z</time>
  <speed>3.380000</speed>
</trkpt>
<trkpt lat="32.737342834" lon="35.060317993">
  <ele>363.150879</ele>
  <time>2011-06-17T04:10:15Z</time>
  <speed>3.640000</speed>
</trkpt>
<trkpt lat="32.737365723" lon="35.060287476">
  <ele>363.002441</ele>
  <time>2011-06-17T04:10:16Z</time>
  <speed>3.470000</speed>
</trkpt>
<trkpt lat="32.737388611" lon="35.060260773">
  <ele>363.354004</ele>
  <time>2011-06-17T04:10:17Z</time>
  <speed>3.590000</speed>
</trkpt>
<trkpt lat="32.737419128" lon="35.060226440">
  <ele>362.869629</ele>
  <time>2011-06-17T04:10:18Z</time>
  <speed>3.910000</speed>
</trkpt>
<trkpt lat="32.737442017" lon="35.060199738">
  <ele>363.197754</ele>
  <time>2011-06-17T04:10:19Z</time>
  <speed>3.830000</speed>
</trkpt>
<trkpt lat="32.737468719" lon="35.060176849">
  <ele>363.658691</ele>
  <time>2011-06-17T04:10:20Z</time>
  <speed>3.690000</speed>
</trkpt>
<trkpt lat="32.737491608" lon="35.060146332">
  <ele>363.143066</ele>
  <time>2011-06-17T04:10:21Z</time>
  <speed>3.900000</speed>
</trkpt>
<trkpt lat="32.737514496" lon="35.060112000">
  <ele>363.229004</ele>
  <time>2011-06-17T04:10:22Z</time>
  <speed>3.920000</speed>
</trkpt>
<trkpt lat="32.737545013" lon="35.060092926">
  <ele>364.393066</ele>
  <time>2011-06-17T04:10:23Z</time>
  <speed>3.810000</speed>
</trkpt>
<trkpt lat="32.737571716" lon="35.060070038">
  <ele>364.721191</ele>
  <time>2011-06-17T04:10:24Z</time>
  <speed>3.750000</speed>
</trkpt>
<trkpt lat="32.737594604" lon="35.060035706">
  <ele>364.572754</ele>
  <time>2011-06-17T04:10:25Z</time>
  <speed>3.630000</speed>
</trkpt>
<trkpt lat="32.737621307" lon="35.060016632">
  <ele>365.025879</ele>
  <time>2011-06-17T04:10:26Z</time>
  <speed>3.900000</speed>
</trkpt>
<trkpt lat="32.737651825" lon="35.059986115">
  <ele>365.354004</ele>
  <time>2011-06-17T04:10:27Z</time>
  <speed>4.150000</speed>
</trkpt>
<trkpt lat="32.737682343" lon="35.059963226">
  <ele>365.689941</ele>
  <time>2011-06-17T04:10:28Z</time>
  <speed>3.850000</speed>
</trkpt>
<trkpt lat="32.737712860" lon="35.059932709">
  <ele>365.549316</ele>
  <time>2011-06-17T04:10:29Z</time>
  <speed>4.100000</speed>
</trkpt>
<trkpt lat="32.737743378" lon="35.059906006">
  <ele>365.768066</ele>
  <time>2011-06-17T04:10:30Z</time>
  <speed>4.100000</speed>
</trkpt>
<trkpt lat="32.737777710" lon="35.059890747">
  <ele>365.057129</ele>
  <time>2011-06-17T04:10:31Z</time>
  <speed>4.730000</speed>
</trkpt>
<trkpt lat="32.737808228" lon="35.059875488">
  <ele>364.760254</ele>
  <time>2011-06-17T04:10:32Z</time>
  <speed>4.680000</speed>
</trkpt>
<trkpt lat="32.737846375" lon="35.059837341">
  <ele>364.713379</ele>
  <time>2011-06-17T04:10:33Z</time>
  <speed>5.030000</speed>
</trkpt>
<trkpt lat="32.737884521" lon="35.059791565">
  <ele>365.596191</ele>
  <time>2011-06-17T04:10:34Z</time>
  <speed>4.840000</speed>
</trkpt>
<trkpt lat="32.737915039" lon="35.059749603">
  <ele>366.150879</ele>
  <time>2011-06-17T04:10:35Z</time>
  <speed>4.840000</speed>
</trkpt>
<trkpt lat="32.737949371" lon="35.059715271">
  <ele>365.979004</ele>
  <time>2011-06-17T04:10:36Z</time>
  <speed>4.670000</speed>
</trkpt>
<trkpt lat="32.737976074" lon="35.059684753">
  <ele>364.689941</ele>
  <time>2011-06-17T04:10:37Z</time>
  <speed>4.530000</speed>
</trkpt>
<trkpt lat="32.738006592" lon="35.059650421">
  <ele>364.744629</ele>
  <time>2011-06-17T04:10:38Z</time>
  <speed>4.160000</speed>
</trkpt>
<trkpt lat="32.738029480" lon="35.059623718">
  <ele>364.479004</ele>
  <time>2011-06-17T04:10:39Z</time>
  <speed>3.780000</speed>
</trkpt>
<trkpt lat="32.738056183" lon="35.059589386">
  <ele>364.611816</ele>
  <time>2011-06-17T04:10:40Z</time>
  <speed>4.150000</speed>
</trkpt>
<trkpt lat="32.738082886" lon="35.059562683">
  <ele>363.916504</ele>
  <time>2011-06-17T04:10:41Z</time>
  <speed>3.920000</speed>
</trkpt>
<trkpt lat="32.738113403" lon="35.059539795">
  <ele>363.893066</ele>
  <time>2011-06-17T04:10:42Z</time>
  <speed>4.080000</speed>
</trkpt>
<trkpt lat="32.738143921" lon="35.059520721">
  <ele>363.494629</ele>
  <time>2011-06-17T04:10:43Z</time>
  <speed>3.980000</speed>
</trkpt>
<trkpt lat="32.738174438" lon="35.059501648">
  <ele>363.330566</ele>
  <time>2011-06-17T04:10:44Z</time>
  <speed>3.870000</speed>
</trkpt>
<trkpt lat="32.738212585" lon="35.059486389">
  <ele>363.549316</ele>
  <time>2011-06-17T04:10:45Z</time>
  <speed>4.270000</speed>
</trkpt>
<trkpt lat="32.738243103" lon="35.059452057">
  <ele>364.096191</ele>
  <time>2011-06-17T04:10:46Z</time>
  <speed>4.400000</speed>
</trkpt>
<trkpt lat="32.738269806" lon="35.059421539">
  <ele>363.893066</ele>
  <time>2011-06-17T04:10:47Z</time>
  <speed>4.570000</speed>
</trkpt>
<trkpt lat="32.738304138" lon="35.059379578">
  <ele>363.791504</ele>
  <time>2011-06-17T04:10:48Z</time>
  <speed>5.280000</speed>
</trkpt>
<trkpt lat="32.738338470" lon="35.059333801">
  <ele>363.822754</ele>
  <time>2011-06-17T04:10:49Z</time>
  <speed>5.590000</speed>
</trkpt>
<trkpt lat="32.738376617" lon="35.059288025">
  <ele>362.580566</ele>
  <time>2011-06-17T04:10:50Z</time>
  <speed>5.780000</speed>
</trkpt>
<trkpt lat="32.738418579" lon="35.059249878">
  <ele>361.861816</ele>
  <time>2011-06-17T04:10:51Z</time>
  <speed>5.650000</speed>
</trkpt>
<trkpt lat="32.738464355" lon="35.059219360">
  <ele>361.908691</ele>
  <time>2011-06-17T04:10:52Z</time>
  <speed>5.680000</speed>
</trkpt>
<trkpt lat="32.738506317" lon="35.059204102">
  <ele>360.111816</ele>
  <time>2011-06-17T04:10:53Z</time>
  <speed>5.170000</speed>
</trkpt>
<trkpt lat="32.738555908" lon="35.059215546">
  <ele>359.783691</ele>
  <time>2011-06-17T04:10:54Z</time>
  <speed>4.670000</speed>
</trkpt>
<trkpt lat="32.738597870" lon="35.059234619">
  <ele>359.854004</ele>
  <time>2011-06-17T04:10:55Z</time>
  <speed>4.630000</speed>
</trkpt>
<trkpt lat="32.738632202" lon="35.059253693">
  <ele>359.877441</ele>
  <time>2011-06-17T04:10:56Z</time>
  <speed>4.490000</speed>
</trkpt>
<trkpt lat="32.738674164" lon="35.059272766">
  <ele>358.854004</ele>
  <time>2011-06-17T04:10:57Z</time>
  <speed>4.970000</speed>
</trkpt>
<trkpt lat="32.738723755" lon="35.059284210">
  <ele>358.674316</ele>
  <time>2011-06-17T04:10:58Z</time>
  <speed>5.270000</speed>
</trkpt>
<trkpt lat="32.738750458" lon="35.059291840">
  <ele>358.104004</ele>
  <time>2011-06-17T04:10:59Z</time>
  <speed>3.980000</speed>
</trkpt>
<trkpt lat="32.738788605" lon="35.059291840">
  <ele>358.291504</ele>
  <time>2011-06-17T04:11:00Z</time>
  <speed>3.990000</speed>
</trkpt>
<trkpt lat="32.738822937" lon="35.059295654">
  <ele>357.299316</ele>
  <time>2011-06-17T04:11:01Z</time>
  <speed>4.420000</speed>
</trkpt>
<trkpt lat="32.738857269" lon="35.059299469">
  <ele>356.729004</ele>
  <time>2011-06-17T04:11:02Z</time>
  <speed>4.190000</speed>
</trkpt>
<trkpt lat="32.738895416" lon="35.059307098">
  <ele>356.010254</ele>
  <time>2011-06-17T04:11:03Z</time>
  <speed>4.390000</speed>
</trkpt>
<trkpt lat="32.738933563" lon="35.059322357">
  <ele>355.361816</ele>
  <time>2011-06-17T04:11:04Z</time>
  <speed>4.650000</speed>
</trkpt>
<trkpt lat="32.738975525" lon="35.059349060">
  <ele>354.697754</ele>
  <time>2011-06-17T04:11:05Z</time>
  <speed>4.490000</speed>
</trkpt>
<trkpt lat="32.739017487" lon="35.059375763">
  <ele>354.486816</ele>
  <time>2011-06-17T04:11:06Z</time>
  <speed>5.170000</speed>
</trkpt>
<trkpt lat="32.739067078" lon="35.059406281">
  <ele>354.744629</ele>
  <time>2011-06-17T04:11:07Z</time>
  <speed>5.260000</speed>
</trkpt>
<trkpt lat="32.739109039" lon="35.059432983">
  <ele>354.822754</ele>
  <time>2011-06-17T04:11:08Z</time>
  <speed>5.380000</speed>
</trkpt>
<trkpt lat="32.739147186" lon="35.059463501">
  <ele>355.111816</ele>
  <time>2011-06-17T04:11:09Z</time>
  <speed>5.280000</speed>
</trkpt>
<trkpt lat="32.739189148" lon="35.059490204">
  <ele>354.619629</ele>
  <time>2011-06-17T04:11:10Z</time>
  <speed>4.920000</speed>
</trkpt>
<trkpt lat="32.739227295" lon="35.059516907">
  <ele>354.463379</ele>
  <time>2011-06-17T04:11:11Z</time>
  <speed>4.920000</speed>
</trkpt>
<trkpt lat="32.739261627" lon="35.059539795">
  <ele>354.213379</ele>
  <time>2011-06-17T04:11:12Z</time>
  <speed>4.790000</speed>
</trkpt>
<trkpt lat="32.739299774" lon="35.059558868">
  <ele>354.018066</ele>
  <time>2011-06-17T04:11:13Z</time>
  <speed>4.380000</speed>
</trkpt>
<trkpt lat="32.739341736" lon="35.059574127">
  <ele>353.893066</ele>
  <time>2011-06-17T04:11:14Z</time>
  <speed>4.500000</speed>
</trkpt>
<trkpt lat="32.739379883" lon="35.059593201">
  <ele>354.307129</ele>
  <time>2011-06-17T04:11:15Z</time>
  <speed>4.500000</speed>
</trkpt>
<trkpt lat="32.739418030" lon="35.059616089">
  <ele>355.135254</ele>
  <time>2011-06-17T04:11:16Z</time>
  <speed>4.130000</speed>
</trkpt>
<trkpt lat="32.739452362" lon="35.059631348">
  <ele>355.408691</ele>
  <time>2011-06-17T04:11:17Z</time>
  <speed>4.310000</speed>
</trkpt>
<trkpt lat="32.739486694" lon="35.059642792">
  <ele>355.314941</ele>
  <time>2011-06-17T04:11:18Z</time>
  <speed>3.870000</speed>
</trkpt>
<trkpt lat="32.739517212" lon="35.059650421">
  <ele>355.525879</ele>
  <time>2011-06-17T04:11:19Z</time>
  <speed>3.720000</speed>
</trkpt>
<trkpt lat="32.739551544" lon="35.059650421">
  <ele>355.416504</ele>
  <time>2011-06-17T04:11:20Z</time>
  <speed>3.780000</speed>
</trkpt>
<trkpt lat="32.739582062" lon="35.059650421">
  <ele>355.791504</ele>
  <time>2011-06-17T04:11:21Z</time>
  <speed>4.120000</speed>
</trkpt>
<trkpt lat="32.739612579" lon="35.059650421">
  <ele>355.979004</ele>
  <time>2011-06-17T04:11:22Z</time>
  <speed>3.730000</speed>
</trkpt>
<trkpt lat="32.739643097" lon="35.059650421">
  <ele>356.705566</ele>
  <time>2011-06-17T04:11:23Z</time>
  <speed>3.750000</speed>
</trkpt>
<trkpt lat="32.739685059" lon="35.059646606">
  <ele>356.994629</ele>
  <time>2011-06-17T04:11:24Z</time>
  <speed>3.930000</speed>
</trkpt>
<trkpt lat="32.739719391" lon="35.059642792">
  <ele>357.783691</ele>
  <time>2011-06-17T04:11:25Z</time>
  <speed>3.940000</speed>
</trkpt>
<trkpt lat="32.739753723" lon="35.059631348">
  <ele>357.877441</ele>
  <time>2011-06-17T04:11:26Z</time>
  <speed>3.870000</speed>
</trkpt>
<trkpt lat="32.739788055" lon="35.059612274">
  <ele>358.299316</ele>
  <time>2011-06-17T04:11:27Z</time>
  <speed>3.920000</speed>
</trkpt>
<trkpt lat="32.739826202" lon="35.059581757">
  <ele>357.971191</ele>
  <time>2011-06-17T04:11:28Z</time>
  <speed>3.940000</speed>
</trkpt>
<trkpt lat="32.739860535" lon="35.059562683">
  <ele>358.057129</ele>
  <time>2011-06-17T04:11:29Z</time>
  <speed>4.030000</speed>
</trkpt>
<trkpt lat="32.739891052" lon="35.059543610">
  <ele>357.338379</ele>
  <time>2011-06-17T04:11:30Z</time>
  <speed>3.980000</speed>
</trkpt>
<trkpt lat="32.739921570" lon="35.059528351">
  <ele>357.705566</ele>
  <time>2011-06-17T04:11:31Z</time>
  <speed>3.860000</speed>
</trkpt>
<trkpt lat="32.739955902" lon="35.059520721">
  <ele>357.830566</ele>
  <time>2011-06-17T04:11:32Z</time>
  <speed>3.940000</speed>
</trkpt>
<trkpt lat="32.739986420" lon="35.059509277">
  <ele>358.354004</ele>
  <time>2011-06-17T04:11:33Z</time>
  <speed>3.980000</speed>
</trkpt>
<trkpt lat="32.740020752" lon="35.059490204">
  <ele>357.346191</ele>
  <time>2011-06-17T04:11:34Z</time>
  <speed>4.130000</speed>
</trkpt>
<trkpt lat="32.740047455" lon="35.059463501">
  <ele>358.627441</ele>
  <time>2011-06-17T04:11:35Z</time>
  <speed>4.230000</speed>
</trkpt>
<trkpt lat="32.740077972" lon="35.059425354">
  <ele>358.822754</ele>
  <time>2011-06-17T04:11:36Z</time>
  <speed>4.320000</speed>
</trkpt>
<trkpt lat="32.740108490" lon="35.059394836">
  <ele>358.986816</ele>
  <time>2011-06-17T04:11:37Z</time>
  <speed>4.180000</speed>
</trkpt>
<trkpt lat="32.740139008" lon="35.059360504">
  <ele>359.564941</ele>
  <time>2011-06-17T04:11:38Z</time>
  <speed>4.430000</speed>
</trkpt>
<trkpt lat="32.740161896" lon="35.059326172">
  <ele>360.049316</ele>
  <time>2011-06-17T04:11:39Z</time>
  <speed>4.260000</speed>
</trkpt>
<trkpt lat="32.740180969" lon="35.059288025">
  <ele>361.064941</ele>
  <time>2011-06-17T04:11:40Z</time>
  <speed>4.250000</speed>
</trkpt>
<trkpt lat="32.740200043" lon="35.059249878">
  <ele>361.447754</ele>
  <time>2011-06-17T04:11:41Z</time>
  <speed>4.170000</speed>
</trkpt>
<trkpt lat="32.740215302" lon="35.059207916">
  <ele>361.752441</ele>
  <time>2011-06-17T04:11:42Z</time>
  <speed>4.270000</speed>
</trkpt>
<trkpt lat="32.740234375" lon="35.059169769">
  <ele>361.932129</ele>
  <time>2011-06-17T04:11:43Z</time>
  <speed>4.250000</speed>
</trkpt>
<trkpt lat="32.740249634" lon="35.059127808">
  <ele>361.408691</ele>
  <time>2011-06-17T04:11:44Z</time>
  <speed>4.390000</speed>
</trkpt>
<trkpt lat="32.740261078" lon="35.059085846">
  <ele>361.596191</ele>
  <time>2011-06-17T04:11:45Z</time>
  <speed>4.120000</speed>
</trkpt>
<trkpt lat="32.740272522" lon="35.059043884">
  <ele>361.588379</ele>
  <time>2011-06-17T04:11:46Z</time>
  <speed>4.490000</speed>
</trkpt>
<trkpt lat="32.740280151" lon="35.058998108">
  <ele>362.033691</ele>
  <time>2011-06-17T04:11:47Z</time>
  <speed>4.500000</speed>
</trkpt>
<trkpt lat="32.740272522" lon="35.058921814">
  <ele>365.939941</ele>
  <time>2011-06-17T04:11:48Z</time>
  <speed>4.590000</speed>
</trkpt>
<trkpt lat="32.740283966" lon="35.058872223">
  <ele>365.627441</ele>
  <time>2011-06-17T04:11:49Z</time>
  <speed>4.810000</speed>
</trkpt>
<trkpt lat="32.740303040" lon="35.058826447">
  <ele>365.580566</ele>
  <time>2011-06-17T04:11:50Z</time>
  <speed>5.040000</speed>
</trkpt>
<trkpt lat="32.740329742" lon="35.058795929">
  <ele>363.729004</ele>
  <time>2011-06-17T04:11:51Z</time>
  <speed>4.470000</speed>
</trkpt>
<trkpt lat="32.740367889" lon="35.058773041">
  <ele>362.189941</ele>
  <time>2011-06-17T04:11:52Z</time>
  <speed>5.110000</speed>
</trkpt>
<trkpt lat="32.740413666" lon="35.058761597">
  <ele>361.689941</ele>
  <time>2011-06-17T04:11:53Z</time>
  <speed>5.330000</speed>
</trkpt>
<trkpt lat="32.740467072" lon="35.058776855">
  <ele>359.830566</ele>
  <time>2011-06-17T04:11:54Z</time>
  <speed>5.780000</speed>
</trkpt>
<trkpt lat="32.740505219" lon="35.058807373">
  <ele>359.229004</ele>
  <time>2011-06-17T04:11:55Z</time>
  <speed>4.760000</speed>
</trkpt>
<trkpt lat="32.740535736" lon="35.058841705">
  <ele>357.814941</ele>
  <time>2011-06-17T04:11:56Z</time>
  <speed>4.170000</speed>
</trkpt>
<trkpt lat="32.740566254" lon="35.058879852">
  <ele>359.455566</ele>
  <time>2011-06-17T04:11:57Z</time>
  <speed>4.080000</speed>
</trkpt>
<trkpt lat="32.740596771" lon="35.058917999">
  <ele>359.900879</ele>
  <time>2011-06-17T04:11:58Z</time>
  <speed>4.040000</speed>
</trkpt>
<trkpt lat="32.740631104" lon="35.058952332">
  <ele>361.229004</ele>
  <time>2011-06-17T04:11:59Z</time>
  <speed>4.130000</speed>
</trkpt>
<trkpt lat="32.740657806" lon="35.058979034">
  <ele>361.908691</ele>
  <time>2011-06-17T04:12:00Z</time>
  <speed>3.750000</speed>
</trkpt>
<trkpt lat="32.740680695" lon="35.059009552">
  <ele>362.854004</ele>
  <time>2011-06-17T04:12:01Z</time>
  <speed>3.860000</speed>
</trkpt>
<trkpt lat="32.740718842" lon="35.059032440">
  <ele>362.994629</ele>
  <time>2011-06-17T04:12:02Z</time>
  <speed>4.090000</speed>
</trkpt>
<trkpt lat="32.740749359" lon="35.059062958">
  <ele>362.455566</ele>
  <time>2011-06-17T04:12:03Z</time>
  <speed>4.170000</speed>
</trkpt>
<trkpt lat="32.740783691" lon="35.059089661">
  <ele>362.205566</ele>
  <time>2011-06-17T04:12:04Z</time>
  <speed>4.170000</speed>
</trkpt>
<trkpt lat="32.740814209" lon="35.059108734">
  <ele>362.393066</ele>
  <time>2011-06-17T04:12:05Z</time>
  <speed>4.090000</speed>
</trkpt>
<trkpt lat="32.740852356" lon="35.059120178">
  <ele>361.947754</ele>
  <time>2011-06-17T04:12:06Z</time>
  <speed>4.330000</speed>
</trkpt>
<trkpt lat="32.740894318" lon="35.059123993">
  <ele>362.049316</ele>
  <time>2011-06-17T04:12:07Z</time>
  <speed>4.340000</speed>
</trkpt>
<trkpt lat="32.740928650" lon="35.059123993">
  <ele>362.080566</ele>
  <time>2011-06-17T04:12:08Z</time>
  <speed>4.370000</speed>
</trkpt>
<trkpt lat="32.740970612" lon="35.059123993">
  <ele>361.322754</ele>
  <time>2011-06-17T04:12:09Z</time>
  <speed>4.400000</speed>
</trkpt>
<trkpt lat="32.741012573" lon="35.059131622">
  <ele>361.916504</ele>
  <time>2011-06-17T04:12:10Z</time>
  <speed>4.240000</speed>
</trkpt>
<trkpt lat="32.741050720" lon="35.059139252">
  <ele>362.260254</ele>
  <time>2011-06-17T04:12:11Z</time>
  <speed>4.230000</speed>
</trkpt>
<trkpt lat="32.741092682" lon="35.059150696">
  <ele>362.697754</ele>
  <time>2011-06-17T04:12:12Z</time>
  <speed>4.260000</speed>
</trkpt>
<trkpt lat="32.741127014" lon="35.059169769">
  <ele>363.018066</ele>
  <time>2011-06-17T04:12:13Z</time>
  <speed>4.060000</speed>
</trkpt>
<trkpt lat="32.741157532" lon="35.059192657">
  <ele>362.775879</ele>
  <time>2011-06-17T04:12:14Z</time>
  <speed>3.750000</speed>
</trkpt>
<trkpt lat="32.741180420" lon="35.059219360">
  <ele>362.314941</ele>
  <time>2011-06-17T04:12:15Z</time>
  <speed>3.210000</speed>
</trkpt>
<trkpt lat="32.741203308" lon="35.059242249">
  <ele>363.369629</ele>
  <time>2011-06-17T04:12:16Z</time>
  <speed>3.270000</speed>
</trkpt>
<trkpt lat="32.741218567" lon="35.059268951">
  <ele>362.697754</ele>
  <time>2011-06-17T04:12:17Z</time>
  <speed>3.020000</speed>
</trkpt>
<trkpt lat="32.741256714" lon="35.059314728">
  <ele>363.143066</ele>
  <time>2011-06-17T04:12:19Z</time>
  <speed>3.470000</speed>
</trkpt>
<trkpt lat="32.741268158" lon="35.059352875">
  <ele>363.908691</ele>
  <time>2011-06-17T04:12:20Z</time>
  <speed>3.520000</speed>
</trkpt>
<trkpt lat="32.741294861" lon="35.059379578">
  <ele>363.783691</ele>
  <time>2011-06-17T04:12:21Z</time>
  <speed>3.670000</speed>
</trkpt>
<trkpt lat="32.741313934" lon="35.059417725">
  <ele>363.463379</ele>
  <time>2011-06-17T04:12:22Z</time>
  <speed>3.830000</speed>
</trkpt>
<trkpt lat="32.741329193" lon="35.059455872">
  <ele>363.471191</ele>
  <time>2011-06-17T04:12:23Z</time>
  <speed>3.530000</speed>
</trkpt>
<trkpt lat="32.741348267" lon="35.059486389">
  <ele>363.635254</ele>
  <time>2011-06-17T04:12:24Z</time>
  <speed>3.700000</speed>
</trkpt>
<trkpt lat="32.741371155" lon="35.059513092">
  <ele>363.072754</ele>
  <time>2011-06-17T04:12:25Z</time>
  <speed>3.800000</speed>
</trkpt>
<trkpt lat="32.741397858" lon="35.059543610">
  <ele>363.549316</ele>
  <time>2011-06-17T04:12:26Z</time>
  <speed>4.080000</speed>
</trkpt>
<trkpt lat="32.741424561" lon="35.059570313">
  <ele>364.666504</ele>
  <time>2011-06-17T04:12:27Z</time>
  <speed>3.980000</speed>
</trkpt>
<trkpt lat="32.741451263" lon="35.059604645">
  <ele>365.189941</ele>
  <time>2011-06-17T04:12:28Z</time>
  <speed>4.150000</speed>
</trkpt>
<trkpt lat="32.741477966" lon="35.059631348">
  <ele>365.791504</ele>
  <time>2011-06-17T04:12:29Z</time>
  <speed>3.930000</speed>
</trkpt>
<trkpt lat="32.741512299" lon="35.059658051">
  <ele>366.018066</ele>
  <time>2011-06-17T04:12:30Z</time>
  <speed>4.210000</speed>
</trkpt>
<trkpt lat="32.741546631" lon="35.059673309">
  <ele>365.963379</ele>
  <time>2011-06-17T04:12:31Z</time>
  <speed>4.100000</speed>
</trkpt>
<trkpt lat="32.741580963" lon="35.059688568">
  <ele>365.979004</ele>
  <time>2011-06-17T04:12:32Z</time>
  <speed>3.990000</speed>
</trkpt>
<trkpt lat="32.741619110" lon="35.059700012">
  <ele>366.307129</ele>
  <time>2011-06-17T04:12:33Z</time>
  <speed>4.120000</speed>
</trkpt>
<trkpt lat="32.741649628" lon="35.059715271">
  <ele>366.330566</ele>
  <time>2011-06-17T04:12:34Z</time>
  <speed>3.900000</speed>
</trkpt>
<trkpt lat="32.741680145" lon="35.059730530">
  <ele>366.955566</ele>
  <time>2011-06-17T04:12:35Z</time>
  <speed>3.850000</speed>
</trkpt>
<trkpt lat="32.741714478" lon="35.059741974">
  <ele>366.893066</ele>
  <time>2011-06-17T04:12:36Z</time>
  <speed>4.000000</speed>
</trkpt>
<trkpt lat="32.741744995" lon="35.059757233">
  <ele>366.916504</ele>
  <time>2011-06-17T04:12:37Z</time>
  <speed>3.920000</speed>
</trkpt>
<trkpt lat="32.741775513" lon="35.059768677">
  <ele>367.572754</ele>
  <time>2011-06-17T04:12:38Z</time>
  <speed>3.880000</speed>
</trkpt>
<trkpt lat="32.741813660" lon="35.059772491">
  <ele>367.533691</ele>
  <time>2011-06-17T04:12:39Z</time>
  <speed>3.970000</speed>
</trkpt>
<trkpt lat="32.741851807" lon="35.059768677">
  <ele>368.041504</ele>
  <time>2011-06-17T04:12:40Z</time>
  <speed>3.750000</speed>
</trkpt>
<trkpt lat="32.741886139" lon="35.059757233">
  <ele>367.893066</ele>
  <time>2011-06-17T04:12:41Z</time>
  <speed>3.590000</speed>
</trkpt>
<trkpt lat="32.741916656" lon="35.059738159">
  <ele>368.822754</ele>
  <time>2011-06-17T04:12:42Z</time>
  <speed>3.770000</speed>
</trkpt>
<trkpt lat="32.741950989" lon="35.059711456">
  <ele>368.994629</ele>
  <time>2011-06-17T04:12:43Z</time>
  <speed>3.800000</speed>
</trkpt>
<trkpt lat="32.741973877" lon="35.059692383">
  <ele>370.104004</ele>
  <time>2011-06-17T04:12:44Z</time>
  <speed>3.900000</speed>
</trkpt>
<trkpt lat="32.742012024" lon="35.059677124">
  <ele>369.260254</ele>
  <time>2011-06-17T04:12:45Z</time>
  <speed>3.960000</speed>
</trkpt>
<trkpt lat="32.742050171" lon="35.059677124">
  <ele>368.361816</ele>
  <time>2011-06-17T04:12:46Z</time>
  <speed>3.810000</speed>
</trkpt>
<trkpt lat="32.742084503" lon="35.059677124">
  <ele>367.549316</ele>
  <time>2011-06-17T04:12:47Z</time>
  <speed>3.350000</speed>
</trkpt>
<trkpt lat="32.742118835" lon="35.059669495">
  <ele>366.314941</ele>
  <time>2011-06-17T04:12:48Z</time>
  <speed>3.940000</speed>
</trkpt>
<trkpt lat="32.742156982" lon="35.059658051">
  <ele>367.049316</ele>
  <time>2011-06-17T04:12:49Z</time>
  <speed>3.820000</speed>
</trkpt>
<trkpt lat="32.742179871" lon="35.059635162">
  <ele>366.682129</ele>
  <time>2011-06-17T04:12:50Z</time>
  <speed>3.740000</speed>
</trkpt>
<trkpt lat="32.742206573" lon="35.059608459">
  <ele>367.369629</ele>
  <time>2011-06-17T04:12:51Z</time>
  <speed>3.700000</speed>
</trkpt>
<trkpt lat="32.742225647" lon="35.059570313">
  <ele>367.229004</ele>
  <time>2011-06-17T04:12:52Z</time>
  <speed>3.740000</speed>
</trkpt>
<trkpt lat="32.742240906" lon="35.059532166">
  <ele>367.830566</ele>
  <time>2011-06-17T04:12:53Z</time>
  <speed>4.010000</speed>
</trkpt>
<trkpt lat="32.742263794" lon="35.059494019">
  <ele>368.439941</ele>
  <time>2011-06-17T04:12:54Z</time>
  <speed>3.660000</speed>
</trkpt>
<trkpt lat="32.742286682" lon="35.059459686">
  <ele>369.104004</ele>
  <time>2011-06-17T04:12:55Z</time>
  <speed>3.550000</speed>
</trkpt>
<trkpt lat="32.742317200" lon="35.059440613">
  <ele>368.135254</ele>
  <time>2011-06-17T04:12:56Z</time>
  <speed>3.810000</speed>
</trkpt>
<trkpt lat="32.742343903" lon="35.059413910">
  <ele>369.549316</ele>
  <time>2011-06-17T04:12:57Z</time>
  <speed>3.680000</speed>
</trkpt>
<trkpt lat="32.742366791" lon="35.059387207">
  <ele>369.814941</ele>
  <time>2011-06-17T04:12:58Z</time>
  <speed>3.400000</speed>
</trkpt>
<trkpt lat="32.742389679" lon="35.059360504">
  <ele>369.689941</ele>
  <time>2011-06-17T04:12:59Z</time>
  <speed>3.600000</speed>
</trkpt>
<trkpt lat="32.742416382" lon="35.059333801">
  <ele>369.744629</ele>
  <time>2011-06-17T04:13:00Z</time>
  <speed>3.720000</speed>
</trkpt>
<trkpt lat="32.742439270" lon="35.059310913">
  <ele>370.189941</ele>
  <time>2011-06-17T04:13:01Z</time>
  <speed>3.520000</speed>
</trkpt>
<trkpt lat="32.742462158" lon="35.059291840">
  <ele>371.463379</ele>
  <time>2011-06-17T04:13:02Z</time>
  <speed>3.600000</speed>
</trkpt>
<trkpt lat="32.742488861" lon="35.059268951">
  <ele>371.260254</ele>
  <time>2011-06-17T04:13:03Z</time>
  <speed>3.310000</speed>
</trkpt>
<trkpt lat="32.742519379" lon="35.059246063">
  <ele>370.197754</ele>
  <time>2011-06-17T04:13:04Z</time>
  <speed>3.350000</speed>
</trkpt>
<trkpt lat="32.742542267" lon="35.059223175">
  <ele>369.400879</ele>
  <time>2011-06-17T04:13:05Z</time>
  <speed>3.270000</speed>
</trkpt>
<trkpt lat="32.742568970" lon="35.059200287">
  <ele>369.541504</ele>
  <time>2011-06-17T04:13:06Z</time>
  <speed>3.700000</speed>
</trkpt>
<trkpt lat="32.742599487" lon="35.059192657">
  <ele>369.752441</ele>
  <time>2011-06-17T04:13:07Z</time>
  <speed>3.430000</speed>
</trkpt>
<trkpt lat="32.742633820" lon="35.059196472">
  <ele>370.166504</ele>
  <time>2011-06-17T04:13:08Z</time>
  <speed>3.480000</speed>
</trkpt>
<trkpt lat="32.742660522" lon="35.059181213">
  <ele>370.393066</ele>
  <time>2011-06-17T04:13:09Z</time>
  <speed>3.630000</speed>
</trkpt>
<trkpt lat="32.742683411" lon="35.059165955">
  <ele>370.947754</ele>
  <time>2011-06-17T04:13:10Z</time>
  <speed>3.300000</speed>
</trkpt>
<trkpt lat="32.742710114" lon="35.059139252">
  <ele>371.424316</ele>
  <time>2011-06-17T04:13:11Z</time>
  <speed>3.530000</speed>
</trkpt>
<trkpt lat="32.742733002" lon="35.059108734">
  <ele>372.221191</ele>
  <time>2011-06-17T04:13:12Z</time>
  <speed>3.560000</speed>
</trkpt>
<trkpt lat="32.742752075" lon="35.059074402">
  <ele>372.736816</ele>
  <time>2011-06-17T04:13:13Z</time>
  <speed>3.490000</speed>
</trkpt>
<trkpt lat="32.742774963" lon="35.059043884">
  <ele>372.729004</ele>
  <time>2011-06-17T04:13:14Z</time>
  <speed>3.680000</speed>
</trkpt>
<trkpt lat="32.742794037" lon="35.059013367">
  <ele>373.994629</ele>
  <time>2011-06-17T04:13:15Z</time>
  <speed>3.580000</speed>
</trkpt>
<trkpt lat="32.742813110" lon="35.058982849">
  <ele>373.596191</ele>
  <time>2011-06-17T04:13:16Z</time>
  <speed>3.730000</speed>
</trkpt>
<trkpt lat="32.742835999" lon="35.058952332">
  <ele>373.494629</ele>
  <time>2011-06-17T04:13:17Z</time>
  <speed>3.830000</speed>
</trkpt>
<trkpt lat="32.742866516" lon="35.058925629">
  <ele>373.768066</ele>
  <time>2011-06-17T04:13:18Z</time>
  <speed>3.760000</speed>
</trkpt>
<trkpt lat="32.742893219" lon="35.058906555">
  <ele>373.807129</ele>
  <time>2011-06-17T04:13:19Z</time>
  <speed>3.460000</speed>
</trkpt>
<trkpt lat="32.742919922" lon="35.058891296">
  <ele>372.049316</ele>
  <time>2011-06-17T04:13:20Z</time>
  <speed>3.560000</speed>
</trkpt>
<trkpt lat="32.742942810" lon="35.058864594">
  <ele>371.807129</ele>
  <time>2011-06-17T04:13:21Z</time>
  <speed>3.610000</speed>
</trkpt>
<trkpt lat="32.742973328" lon="35.058834076">
  <ele>371.588379</ele>
  <time>2011-06-17T04:13:22Z</time>
  <speed>3.590000</speed>
</trkpt>
<trkpt lat="32.743000031" lon="35.058811188">
  <ele>372.893066</ele>
  <time>2011-06-17T04:13:23Z</time>
  <speed>3.790000</speed>
</trkpt>
<trkpt lat="32.743026733" lon="35.058792114">
  <ele>373.307129</ele>
  <time>2011-06-17T04:13:24Z</time>
  <speed>3.620000</speed>
</trkpt>
<trkpt lat="32.743061066" lon="35.058776855">
  <ele>373.768066</ele>
  <time>2011-06-17T04:13:25Z</time>
  <speed>3.840000</speed>
</trkpt>
<trkpt lat="32.743087769" lon="35.058757782">
  <ele>373.939941</ele>
  <time>2011-06-17T04:13:26Z</time>
  <speed>3.790000</speed>
</trkpt>
<trkpt lat="32.743114471" lon="35.058742523">
  <ele>373.986816</ele>
  <time>2011-06-17T04:13:27Z</time>
  <speed>3.780000</speed>
</trkpt>
<trkpt lat="32.743141174" lon="35.058723450">
  <ele>374.143066</ele>
  <time>2011-06-17T04:13:28Z</time>
  <speed>4.010000</speed>
</trkpt>
<trkpt lat="32.743175507" lon="35.058700562">
  <ele>374.455566</ele>
  <time>2011-06-17T04:13:29Z</time>
  <speed>3.850000</speed>
</trkpt>
<trkpt lat="32.743202209" lon="35.058677673">
  <ele>375.033691</ele>
  <time>2011-06-17T04:13:30Z</time>
  <speed>3.930000</speed>
</trkpt>
<trkpt lat="32.743225098" lon="35.058650970">
  <ele>376.244629</ele>
  <time>2011-06-17T04:13:31Z</time>
  <speed>3.930000</speed>
</trkpt>
<trkpt lat="32.743251801" lon="35.058631897">
  <ele>377.525879</ele>
  <time>2011-06-17T04:13:32Z</time>
  <speed>3.770000</speed>
</trkpt>
<trkpt lat="32.743278503" lon="35.058605194">
  <ele>378.002441</ele>
  <time>2011-06-17T04:13:33Z</time>
  <speed>3.940000</speed>
</trkpt>
<trkpt lat="32.743309021" lon="35.058582306">
  <ele>378.408691</ele>
  <time>2011-06-17T04:13:34Z</time>
  <speed>3.700000</speed>
</trkpt>
<trkpt lat="32.743335724" lon="35.058559418">
  <ele>378.939941</ele>
  <time>2011-06-17T04:13:35Z</time>
  <speed>3.800000</speed>
</trkpt>
<trkpt lat="32.743366241" lon="35.058536530">
  <ele>379.096191</ele>
  <time>2011-06-17T04:13:36Z</time>
  <speed>3.770000</speed>
</trkpt>
<trkpt lat="32.743389130" lon="35.058513641">
  <ele>380.252441</ele>
  <time>2011-06-17T04:13:37Z</time>
  <speed>3.800000</speed>
</trkpt>
<trkpt lat="32.743412018" lon="35.058483124">
  <ele>380.643066</ele>
  <time>2011-06-17T04:13:38Z</time>
  <speed>3.680000</speed>
</trkpt>
<trkpt lat="32.743434906" lon="35.058452606">
  <ele>381.510254</ele>
  <time>2011-06-17T04:13:39Z</time>
  <speed>3.930000</speed>
</trkpt>
<trkpt lat="32.743457794" lon="35.058418274">
  <ele>381.994629</ele>
  <time>2011-06-17T04:13:40Z</time>
  <speed>4.060000</speed>
</trkpt>
<trkpt lat="32.743484497" lon="35.058387756">
  <ele>382.088379</ele>
  <time>2011-06-17T04:13:41Z</time>
  <speed>3.950000</speed>
</trkpt>
<trkpt lat="32.743511200" lon="35.058353424">
  <ele>382.369629</ele>
  <time>2011-06-17T04:13:42Z</time>
  <speed>4.160000</speed>
</trkpt>
<trkpt lat="32.743537903" lon="35.058315277">
  <ele>383.025879</ele>
  <time>2011-06-17T04:13:43Z</time>
  <speed>4.240000</speed>
</trkpt>
<trkpt lat="32.743568420" lon="35.058284760">
  <ele>382.979004</ele>
  <time>2011-06-17T04:13:44Z</time>
  <speed>4.090000</speed>
</trkpt>
<trkpt lat="32.743598938" lon="35.058254242">
  <ele>381.994629</ele>
  <time>2011-06-17T04:13:45Z</time>
  <speed>4.090000</speed>
</trkpt>
<trkpt lat="32.743625641" lon="35.058223724">
  <ele>381.908691</ele>
  <time>2011-06-17T04:13:46Z</time>
  <speed>3.780000</speed>
</trkpt>
<trkpt lat="32.743652344" lon="35.058193207">
  <ele>381.869629</ele>
  <time>2011-06-17T04:13:47Z</time>
  <speed>4.100000</speed>
</trkpt>
<trkpt lat="32.743675232" lon="35.058166504">
  <ele>382.260254</ele>
  <time>2011-06-17T04:13:48Z</time>
  <speed>3.790000</speed>
</trkpt>
<trkpt lat="32.743709564" lon="35.058143616">
  <ele>382.338379</ele>
  <time>2011-06-17T04:13:49Z</time>
  <speed>3.870000</speed>
</trkpt>
<trkpt lat="32.743732452" lon="35.058116913">
  <ele>381.791504</ele>
  <time>2011-06-17T04:13:50Z</time>
  <speed>3.870000</speed>
</trkpt>
<trkpt lat="32.743759155" lon="35.058101654">
  <ele>380.307129</ele>
  <time>2011-06-17T04:13:51Z</time>
  <speed>3.690000</speed>
</trkpt>
<trkpt lat="32.743785858" lon="35.058090210">
  <ele>379.338379</ele>
  <time>2011-06-17T04:13:52Z</time>
  <speed>4.010000</speed>
</trkpt>
<trkpt lat="32.743816376" lon="35.058063507">
  <ele>379.533691</ele>
  <time>2011-06-17T04:13:53Z</time>
  <speed>4.020000</speed>
</trkpt>
<trkpt lat="32.743850708" lon="35.058040619">
  <ele>377.689941</ele>
  <time>2011-06-17T04:13:54Z</time>
  <speed>4.080000</speed>
</trkpt>
<trkpt lat="32.743881226" lon="35.058017731">
  <ele>377.252441</ele>
  <time>2011-06-17T04:13:55Z</time>
  <speed>4.220000</speed>
</trkpt>
<trkpt lat="32.743907928" lon="35.057987213">
  <ele>376.947754</ele>
  <time>2011-06-17T04:13:56Z</time>
  <speed>3.990000</speed>
</trkpt>
<trkpt lat="32.743934631" lon="35.057964325">
  <ele>375.822754</ele>
  <time>2011-06-17T04:13:57Z</time>
  <speed>3.850000</speed>
</trkpt>
<trkpt lat="32.743961334" lon="35.057941437">
  <ele>377.197754</ele>
  <time>2011-06-17T04:13:58Z</time>
  <speed>3.950000</speed>
</trkpt>
<trkpt lat="32.743984222" lon="35.057918549">
  <ele>378.885254</ele>
  <time>2011-06-17T04:13:59Z</time>
  <speed>3.790000</speed>
</trkpt>
<trkpt lat="32.744010925" lon="35.057903290">
  <ele>379.229004</ele>
  <time>2011-06-17T04:14:00Z</time>
  <speed>3.870000</speed>
</trkpt>
<trkpt lat="32.744037628" lon="35.057876587">
  <ele>379.877441</ele>
  <time>2011-06-17T04:14:01Z</time>
  <speed>3.830000</speed>
</trkpt>
<trkpt lat="32.744064331" lon="35.057846069">
  <ele>379.752441</ele>
  <time>2011-06-17T04:14:02Z</time>
  <speed>3.850000</speed>
</trkpt>
<trkpt lat="32.744091034" lon="35.057823181">
  <ele>379.557129</ele>
  <time>2011-06-17T04:14:03Z</time>
  <speed>4.050000</speed>
</trkpt>
<trkpt lat="32.744117737" lon="35.057796478">
  <ele>379.900879</ele>
  <time>2011-06-17T04:14:04Z</time>
  <speed>3.870000</speed>
</trkpt>
<trkpt lat="32.744152069" lon="35.057773590">
  <ele>380.002441</ele>
  <time>2011-06-17T04:14:05Z</time>
  <speed>4.190000</speed>
</trkpt>
<trkpt lat="32.744178772" lon="35.057746887">
  <ele>379.338379</ele>
  <time>2011-06-17T04:14:06Z</time>
  <speed>4.110000</speed>
</trkpt>
<trkpt lat="32.744205475" lon="35.057716370">
  <ele>379.291504</ele>
  <time>2011-06-17T04:14:07Z</time>
  <speed>4.100000</speed>
</trkpt>
<trkpt lat="32.744232178" lon="35.057678223">
  <ele>380.018066</ele>
  <time>2011-06-17T04:14:08Z</time>
  <speed>4.320000</speed>
</trkpt>
<trkpt lat="32.744255066" lon="35.057640076">
  <ele>379.635254</ele>
  <time>2011-06-17T04:14:09Z</time>
  <speed>4.540000</speed>
</trkpt>
<trkpt lat="32.744277954" lon="35.057598114">
  <ele>379.924316</ele>
  <time>2011-06-17T04:14:10Z</time>
  <speed>4.610000</speed>
</trkpt>
<trkpt lat="32.744300842" lon="35.057552338">
  <ele>380.088379</ele>
  <time>2011-06-17T04:14:11Z</time>
  <speed>4.710000</speed>
</trkpt>
<trkpt lat="32.744327545" lon="35.057502747">
  <ele>380.432129</ele>
  <time>2011-06-17T04:14:12Z</time>
  <speed>4.490000</speed>
</trkpt>
<trkpt lat="32.744354248" lon="35.057464600">
  <ele>380.760254</ele>
  <time>2011-06-17T04:14:13Z</time>
  <speed>4.520000</speed>
</trkpt>
<trkpt lat="32.744384766" lon="35.057430267">
  <ele>380.393066</ele>
  <time>2011-06-17T04:14:14Z</time>
  <speed>4.530000</speed>
</trkpt>
<trkpt lat="32.744415283" lon="35.057392120">
  <ele>380.299316</ele>
  <time>2011-06-17T04:14:15Z</time>
  <speed>4.840000</speed>
</trkpt>
<trkpt lat="32.744445801" lon="35.057353973">
  <ele>380.182129</ele>
  <time>2011-06-17T04:14:16Z</time>
  <speed>5.120000</speed>
</trkpt>
<trkpt lat="32.744483948" lon="35.057331085">
  <ele>378.400879</ele>
  <time>2011-06-17T04:14:17Z</time>
  <speed>5.090000</speed>
</trkpt>
<trkpt lat="32.744522095" lon="35.057292938">
  <ele>378.236816</ele>
  <time>2011-06-17T04:14:18Z</time>
  <speed>4.620000</speed>
</trkpt>
<trkpt lat="32.744552612" lon="35.057258606">
  <ele>378.236816</ele>
  <time>2011-06-17T04:14:19Z</time>
  <speed>4.660000</speed>
</trkpt>
<trkpt lat="32.744590759" lon="35.057212830">
  <ele>378.127441</ele>
  <time>2011-06-17T04:14:20Z</time>
  <speed>4.860000</speed>
</trkpt>
<trkpt lat="32.744617462" lon="35.057174683">
  <ele>377.838379</ele>
  <time>2011-06-17T04:14:21Z</time>
  <speed>4.610000</speed>
</trkpt>
<trkpt lat="32.744647980" lon="35.057140350">
  <ele>377.471191</ele>
  <time>2011-06-17T04:14:22Z</time>
  <speed>5.030000</speed>
</trkpt>
<trkpt lat="32.744678497" lon="35.057109833">
  <ele>376.736816</ele>
  <time>2011-06-17T04:14:23Z</time>
  <speed>5.200000</speed>
</trkpt>
<trkpt lat="32.744720459" lon="35.057083130">
  <ele>376.494629</ele>
  <time>2011-06-17T04:14:24Z</time>
  <speed>5.200000</speed>
</trkpt>
<trkpt lat="32.744754791" lon="35.057048798">
  <ele>376.213379</ele>
  <time>2011-06-17T04:14:25Z</time>
  <speed>5.070000</speed>
</trkpt>
<trkpt lat="32.744789124" lon="35.057006836">
  <ele>375.939941</ele>
  <time>2011-06-17T04:14:26Z</time>
  <speed>4.860000</speed>
</trkpt>
<trkpt lat="32.744819641" lon="35.056964874">
  <ele>375.744629</ele>
  <time>2011-06-17T04:14:27Z</time>
  <speed>4.990000</speed>
</trkpt>
<trkpt lat="32.744850159" lon="35.056930542">
  <ele>374.729004</ele>
  <time>2011-06-17T04:14:28Z</time>
  <speed>4.820000</speed>
</trkpt>
<trkpt lat="32.744892120" lon="35.056900024">
  <ele>374.049316</ele>
  <time>2011-06-17T04:14:29Z</time>
  <speed>5.000000</speed>
</trkpt>
<trkpt lat="32.744926453" lon="35.056877136">
  <ele>373.205566</ele>
  <time>2011-06-17T04:14:30Z</time>
  <speed>5.060000</speed>
</trkpt>
<trkpt lat="32.744953156" lon="35.056846619">
  <ele>372.143066</ele>
  <time>2011-06-17T04:14:31Z</time>
  <speed>4.320000</speed>
</trkpt>
<trkpt lat="32.744987488" lon="35.056819916">
  <ele>371.822754</ele>
  <time>2011-06-17T04:14:32Z</time>
  <speed>4.230000</speed>
</trkpt>
<trkpt lat="32.745018005" lon="35.056789398">
  <ele>372.346191</ele>
  <time>2011-06-17T04:14:33Z</time>
  <speed>4.350000</speed>
</trkpt>
<trkpt lat="32.745044708" lon="35.056758881">
  <ele>373.635254</ele>
  <time>2011-06-17T04:14:34Z</time>
  <speed>3.930000</speed>
</trkpt>
<trkpt lat="32.745075226" lon="35.056728363">
  <ele>372.947754</ele>
  <time>2011-06-17T04:14:35Z</time>
  <speed>3.720000</speed>
</trkpt>
<trkpt lat="32.745101929" lon="35.056701660">
  <ele>372.588379</ele>
  <time>2011-06-17T04:14:36Z</time>
  <speed>3.660000</speed>
</trkpt>
<trkpt lat="32.745132446" lon="35.056682587">
  <ele>372.541504</ele>
  <time>2011-06-17T04:14:37Z</time>
  <speed>3.310000</speed>
</trkpt>
<trkpt lat="32.745155334" lon="35.056659698">
  <ele>372.299316</ele>
  <time>2011-06-17T04:14:38Z</time>
  <speed>3.500000</speed>
</trkpt>
<trkpt lat="32.745182037" lon="35.056632996">
  <ele>372.588379</ele>
  <time>2011-06-17T04:14:39Z</time>
  <speed>3.480000</speed>
</trkpt>
<trkpt lat="32.745204926" lon="35.056610107">
  <ele>372.439941</ele>
  <time>2011-06-17T04:14:40Z</time>
  <speed>3.200000</speed>
</trkpt>
<trkpt lat="32.745227814" lon="35.056583405">
  <ele>374.650879</ele>
  <time>2011-06-17T04:14:41Z</time>
  <speed>3.270000</speed>
</trkpt>
<trkpt lat="32.745258331" lon="35.056560516">
  <ele>374.635254</ele>
  <time>2011-06-17T04:14:42Z</time>
  <speed>3.630000</speed>
</trkpt>
<trkpt lat="32.745285034" lon="35.056529999">
  <ele>375.760254</ele>
  <time>2011-06-17T04:14:43Z</time>
  <speed>3.530000</speed>
</trkpt>
<trkpt lat="32.745311737" lon="35.056507111">
  <ele>376.080566</ele>
  <time>2011-06-17T04:14:44Z</time>
  <speed>3.400000</speed>
</trkpt>
<trkpt lat="32.745338440" lon="35.056484222">
  <ele>375.479004</ele>
  <time>2011-06-17T04:14:45Z</time>
  <speed>3.380000</speed>
</trkpt>
<trkpt lat="32.745365143" lon="35.056461334">
  <ele>376.143066</ele>
  <time>2011-06-17T04:14:46Z</time>
  <speed>3.720000</speed>
</trkpt>
<trkpt lat="32.745391846" lon="35.056442261">
  <ele>377.205566</ele>
  <time>2011-06-17T04:14:47Z</time>
  <speed>3.530000</speed>
</trkpt>
<trkpt lat="32.745418549" lon="35.056419373">
  <ele>376.854004</ele>
  <time>2011-06-17T04:14:48Z</time>
  <speed>3.330000</speed>
</trkpt>
<trkpt lat="32.745449066" lon="35.056404114">
  <ele>376.307129</ele>
  <time>2011-06-17T04:14:49Z</time>
  <speed>3.320000</speed>
</trkpt>
<trkpt lat="32.745475769" lon="35.056396484">
  <ele>375.346191</ele>
  <time>2011-06-17T04:14:50Z</time>
  <speed>3.120000</speed>
</trkpt>
<trkpt lat="32.745502472" lon="35.056381226">
  <ele>374.400879</ele>
  <time>2011-06-17T04:14:51Z</time>
  <speed>2.890000</speed>
</trkpt>
<trkpt lat="32.745544434" lon="35.056346893">
  <ele>373.416504</ele>
  <time>2011-06-17T04:14:53Z</time>
  <speed>2.940000</speed>
</trkpt>
<trkpt lat="32.745590210" lon="35.056297302">
  <ele>372.322754</ele>
  <time>2011-06-17T04:14:55Z</time>
  <speed>3.160000</speed>
</trkpt>
<trkpt lat="32.745613098" lon="35.056278229">
  <ele>371.963379</ele>
  <time>2011-06-17T04:14:56Z</time>
  <speed>3.060000</speed>
</trkpt>
<trkpt lat="32.745658875" lon="35.056236267">
  <ele>372.025879</ele>
  <time>2011-06-17T04:14:58Z</time>
  <speed>3.410000</speed>
</trkpt>
<trkpt lat="32.745693207" lon="35.056213379">
  <ele>371.885254</ele>
  <time>2011-06-17T04:14:59Z</time>
  <speed>3.570000</speed>
</trkpt>
<trkpt lat="32.745719910" lon="35.056194305">
  <ele>371.830566</ele>
  <time>2011-06-17T04:15:00Z</time>
  <speed>3.450000</speed>
</trkpt>
<trkpt lat="32.745746613" lon="35.056175232">
  <ele>371.682129</ele>
  <time>2011-06-17T04:15:01Z</time>
  <speed>3.520000</speed>
</trkpt>
<trkpt lat="32.745777130" lon="35.056156158">
  <ele>371.877441</ele>
  <time>2011-06-17T04:15:02Z</time>
  <speed>3.230000</speed>
</trkpt>
<trkpt lat="32.745807648" lon="35.056140900">
  <ele>372.846191</ele>
  <time>2011-06-17T04:15:03Z</time>
  <speed>3.470000</speed>
</trkpt>
<trkpt lat="32.745834351" lon="35.056129456">
  <ele>374.291504</ele>
  <time>2011-06-17T04:15:04Z</time>
  <speed>3.170000</speed>
</trkpt>
<trkpt lat="32.745857239" lon="35.056110382">
  <ele>374.486816</ele>
  <time>2011-06-17T04:15:05Z</time>
  <speed>3.200000</speed>
</trkpt>
<trkpt lat="32.745883942" lon="35.056095123">
  <ele>374.744629</ele>
  <time>2011-06-17T04:15:06Z</time>
  <speed>3.000000</speed>
</trkpt>
<trkpt lat="32.745929718" lon="35.056064606">
  <ele>374.760254</ele>
  <time>2011-06-17T04:15:08Z</time>
  <speed>3.280000</speed>
</trkpt>
<trkpt lat="32.745975494" lon="35.056041718">
  <ele>375.361816</ele>
  <time>2011-06-17T04:15:10Z</time>
  <speed>2.920000</speed>
</trkpt>
<trkpt lat="32.745983124" lon="35.055999756">
  <ele>377.197754</ele>
  <time>2011-06-17T04:15:12Z</time>
  <speed>1.810000</speed>
</trkpt>
<trkpt lat="32.745971680" lon="35.055973053">
  <ele>376.572754</ele>
  <time>2011-06-17T04:15:14Z</time>
  <speed>1.350000</speed>
</trkpt>
<trkpt lat="32.745952606" lon="35.055946350">
  <ele>376.557129</ele>
  <time>2011-06-17T04:15:16Z</time>
  <speed>1.220000</speed>
</trkpt>
<trkpt lat="32.745922089" lon="35.055919647">
  <ele>377.650879</ele>
  <time>2011-06-17T04:15:18Z</time>
  <speed>1.540000</speed>
</trkpt>
<trkpt lat="32.745891571" lon="35.055912018">
  <ele>378.244629</ele>
  <time>2011-06-17T04:15:20Z</time>
  <speed>1.320000</speed>
</trkpt>
<trkpt lat="32.745861053" lon="35.055938721">
  <ele>377.002441</ele>
  <time>2011-06-17T04:15:22Z</time>
  <speed>1.790000</speed>
</trkpt>
<trkpt lat="32.745845795" lon="35.055973053">
  <ele>377.400879</ele>
  <time>2011-06-17T04:15:23Z</time>
  <speed>2.020000</speed>
</trkpt>
<trkpt lat="32.745815277" lon="35.056015015">
  <ele>376.518066</ele>
  <time>2011-06-17T04:15:25Z</time>
  <speed>2.350000</speed>
</trkpt>
<trkpt lat="32.745773315" lon="35.056034088">
  <ele>376.854004</ele>
  <time>2011-06-17T04:15:27Z</time>
  <speed>2.230000</speed>
</trkpt>
<trkpt lat="32.745731354" lon="35.056060791">
  <ele>377.502441</ele>
  <time>2011-06-17T04:15:29Z</time>
  <speed>2.340000</speed>
</trkpt>
<trkpt lat="32.745685577" lon="35.056083679">
  <ele>377.322754</ele>
  <time>2011-06-17T04:15:31Z</time>
  <speed>2.170000</speed>
</trkpt>
<trkpt lat="32.745643616" lon="35.056091309">
  <ele>377.596191</ele>
  <time>2011-06-17T04:15:33Z</time>
  <speed>2.380000</speed>
</trkpt>
<trkpt lat="32.745601654" lon="35.056106567">
  <ele>377.111816</ele>
  <time>2011-06-17T04:15:35Z</time>
  <speed>2.150000</speed>
</trkpt>
<trkpt lat="32.745563507" lon="35.056129456">
  <ele>376.783691</ele>
  <time>2011-06-17T04:15:37Z</time>
  <speed>2.090000</speed>
</trkpt>
<trkpt lat="32.745521545" lon="35.056148529">
  <ele>376.963379</ele>
  <time>2011-06-17T04:15:39Z</time>
  <speed>2.110000</speed>
</trkpt>
<trkpt lat="32.745483398" lon="35.056171417">
  <ele>376.080566</ele>
  <time>2011-06-17T04:15:41Z</time>
  <speed>2.060000</speed>
</trkpt>
<trkpt lat="32.745456696" lon="35.056182861">
  <ele>376.314941</ele>
  <time>2011-06-17T04:15:43Z</time>
  <speed>1.720000</speed>
</trkpt>
<trkpt lat="32.745426178" lon="35.056194305">
  <ele>376.111816</ele>
  <time>2011-06-17T04:15:45Z</time>
  <speed>1.390000</speed>
</trkpt>
<trkpt lat="32.745395660" lon="35.056205750">
  <ele>375.588379</ele>
  <time>2011-06-17T04:15:47Z</time>
  <speed>1.700000</speed>
</trkpt>
<trkpt lat="32.745353699" lon="35.056213379">
  <ele>375.150879</ele>
  <time>2011-06-17T04:15:49Z</time>
  <speed>1.680000</speed>
</trkpt>
<trkpt lat="32.745326996" lon="35.056247711">
  <ele>376.002441</ele>
  <time>2011-06-17T04:15:50Z</time>
  <speed>1.830000</speed>
</trkpt>
<trkpt lat="32.745292664" lon="35.056251526">
  <ele>376.447754</ele>
  <time>2011-06-17T04:15:52Z</time>
  <speed>1.760000</speed>
</trkpt>
<trkpt lat="32.745254517" lon="35.056243896">
  <ele>375.877441</ele>
  <time>2011-06-17T04:15:54Z</time>
  <speed>1.970000</speed>
</trkpt>
<trkpt lat="32.745220184" lon="35.056232452">
  <ele>376.775879</ele>
  <time>2011-06-17T04:15:56Z</time>
  <speed>1.730000</speed>
</trkpt>
<trkpt lat="32.745189667" lon="35.056217194">
  <ele>377.150879</ele>
  <time>2011-06-17T04:15:58Z</time>
  <speed>1.740000</speed>
</trkpt>
<trkpt lat="32.745147705" lon="35.056209564">
  <ele>377.400879</ele>
  <time>2011-06-17T04:16:00Z</time>
  <speed>2.010000</speed>
</trkpt>
<trkpt lat="32.745109558" lon="35.056213379">
  <ele>378.150879</ele>
  <time>2011-06-17T04:16:02Z</time>
  <speed>1.770000</speed>
</trkpt>
<trkpt lat="32.745075226" lon="35.056213379">
  <ele>378.314941</ele>
  <time>2011-06-17T04:16:04Z</time>
  <speed>1.730000</speed>
</trkpt>
<trkpt lat="32.745040894" lon="35.056213379">
  <ele>378.549316</ele>
  <time>2011-06-17T04:16:06Z</time>
  <speed>1.960000</speed>
</trkpt>
<trkpt lat="32.744995117" lon="35.056221008">
  <ele>378.432129</ele>
  <time>2011-06-17T04:16:09Z</time>
  <speed>1.810000</speed>
</trkpt>
<trkpt lat="32.744956970" lon="35.056224823">
  <ele>378.525879</ele>
  <time>2011-06-17T04:16:11Z</time>
  <speed>1.860000</speed>
</trkpt>
<trkpt lat="32.744922638" lon="35.056232452">
  <ele>378.682129</ele>
  <time>2011-06-17T04:16:13Z</time>
  <speed>1.420000</speed>
</trkpt>
<trkpt lat="32.744892120" lon="35.056236267">
  <ele>378.658691</ele>
  <time>2011-06-17T04:16:15Z</time>
  <speed>1.740000</speed>
</trkpt>
<trkpt lat="32.744861603" lon="35.056228638">
  <ele>379.346191</ele>
  <time>2011-06-17T04:16:17Z</time>
  <speed>1.480000</speed>
</trkpt>
<trkpt lat="32.744834900" lon="35.056224823">
  <ele>379.096191</ele>
  <time>2011-06-17T04:16:19Z</time>
  <speed>1.600000</speed>
</trkpt>
<trkpt lat="32.744800568" lon="35.056236267">
  <ele>378.893066</ele>
  <time>2011-06-17T04:16:21Z</time>
  <speed>1.960000</speed>
</trkpt>
<trkpt lat="32.744762421" lon="35.056255341">
  <ele>378.877441</ele>
  <time>2011-06-17T04:16:23Z</time>
  <speed>2.130000</speed>
</trkpt>
<trkpt lat="32.744728088" lon="35.056278229">
  <ele>378.299316</ele>
  <time>2011-06-17T04:16:25Z</time>
  <speed>2.210000</speed>
</trkpt>
<trkpt lat="32.744693756" lon="35.056293488">
  <ele>378.354004</ele>
  <time>2011-06-17T04:16:27Z</time>
  <speed>1.700000</speed>
</trkpt>
<trkpt lat="32.744659424" lon="35.056293488">
  <ele>378.744629</ele>
  <time>2011-06-17T04:16:29Z</time>
  <speed>1.420000</speed>
</trkpt>
<trkpt lat="32.744625092" lon="35.056312561">
  <ele>378.549316</ele>
  <time>2011-06-17T04:16:31Z</time>
  <speed>1.430000</speed>
</trkpt>
<trkpt lat="32.744586945" lon="35.056320190">
  <ele>377.900879</ele>
  <time>2011-06-17T04:16:33Z</time>
  <speed>1.480000</speed>
</trkpt>
<trkpt lat="32.744552612" lon="35.056339264">
  <ele>377.971191</ele>
  <time>2011-06-17T04:16:35Z</time>
  <speed>1.650000</speed>
</trkpt>
<trkpt lat="32.744518280" lon="35.056377411">
  <ele>378.807129</ele>
  <time>2011-06-17T04:16:37Z</time>
  <speed>1.780000</speed>
</trkpt>
<trkpt lat="32.744483948" lon="35.056377411">
  <ele>379.268066</ele>
  <time>2011-06-17T04:16:39Z</time>
  <speed>1.900000</speed>
</trkpt>
<trkpt lat="32.744449615" lon="35.056388855">
  <ele>379.525879</ele>
  <time>2011-06-17T04:16:41Z</time>
  <speed>1.690000</speed>
</trkpt>
<trkpt lat="32.744419098" lon="35.056396484">
  <ele>380.736816</ele>
  <time>2011-06-17T04:16:43Z</time>
  <speed>1.720000</speed>
</trkpt>
<trkpt lat="32.744388580" lon="35.056400299">
  <ele>380.596191</ele>
  <time>2011-06-17T04:16:45Z</time>
  <speed>1.760000</speed>
</trkpt>
<trkpt lat="32.744350433" lon="35.056404114">
  <ele>380.893066</ele>
  <time>2011-06-17T04:16:47Z</time>
  <speed>1.820000</speed>
</trkpt>
<trkpt lat="32.744323730" lon="35.056404114">
  <ele>382.166504</ele>
  <time>2011-06-17T04:16:49Z</time>
  <speed>1.660000</speed>
</trkpt>
<trkpt lat="32.744285583" lon="35.056411743">
  <ele>382.057129</ele>
  <time>2011-06-17T04:16:51Z</time>
  <speed>2.020000</speed>
</trkpt>
<trkpt lat="32.744251251" lon="35.056423187">
  <ele>382.002441</ele>
  <time>2011-06-17T04:16:53Z</time>
  <speed>1.870000</speed>
</trkpt>
<trkpt lat="32.744216919" lon="35.056430817">
  <ele>381.721191</ele>
  <time>2011-06-17T04:16:55Z</time>
  <speed>1.840000</speed>
</trkpt>
<trkpt lat="32.744186401" lon="35.056446075">
  <ele>380.729004</ele>
  <time>2011-06-17T04:16:57Z</time>
  <speed>2.060000</speed>
</trkpt>
<trkpt lat="32.744152069" lon="35.056457520">
  <ele>381.205566</ele>
  <time>2011-06-17T04:16:59Z</time>
  <speed>1.780000</speed>
</trkpt>
<trkpt lat="32.744121552" lon="35.056488037">
  <ele>381.697754</ele>
  <time>2011-06-17T04:17:00Z</time>
  <speed>2.160000</speed>
</trkpt>
<trkpt lat="32.744091034" lon="35.056499481">
  <ele>381.775879</ele>
  <time>2011-06-17T04:17:02Z</time>
  <speed>1.380000</speed>
</trkpt>
<trkpt lat="32.744052887" lon="35.056510925">
  <ele>382.018066</ele>
  <time>2011-06-17T04:17:05Z</time>
  <speed>1.640000</speed>
</trkpt>
<trkpt lat="32.744007111" lon="35.056541443">
  <ele>383.221191</ele>
  <time>2011-06-17T04:17:07Z</time>
  <speed>2.160000</speed>
</trkpt>
<trkpt lat="32.743991852" lon="35.056507111">
  <ele>384.166504</ele>
  <time>2011-06-17T04:17:09Z</time>
  <speed>1.640000</speed>
</trkpt>
<trkpt lat="32.743961334" lon="35.056495667">
  <ele>384.268066</ele>
  <time>2011-06-17T04:17:11Z</time>
  <speed>1.680000</speed>
</trkpt>
<trkpt lat="32.743927002" lon="35.056499481">
  <ele>384.088379</ele>
  <time>2011-06-17T04:17:13Z</time>
  <speed>1.610000</speed>
</trkpt>
<trkpt lat="32.743892670" lon="35.056484222">
  <ele>386.111816</ele>
  <time>2011-06-17T04:17:15Z</time>
  <speed>1.930000</speed>
</trkpt>
<trkpt lat="32.743858337" lon="35.056491852">
  <ele>387.143066</ele>
  <time>2011-06-17T04:17:17Z</time>
  <speed>2.060000</speed>
</trkpt>
<trkpt lat="32.743831635" lon="35.056499481">
  <ele>387.674316</ele>
  <time>2011-06-17T04:17:18Z</time>
  <speed>1.720000</speed>
</trkpt>
<trkpt lat="32.743801117" lon="35.056507111">
  <ele>388.111816</ele>
  <time>2011-06-17T04:17:20Z</time>
  <speed>1.680000</speed>
</trkpt>
<trkpt lat="32.743778229" lon="35.056545258">
  <ele>389.471191</ele>
  <time>2011-06-17T04:17:21Z</time>
  <speed>1.570000</speed>
</trkpt>
<trkpt lat="32.743743896" lon="35.056545258">
  <ele>389.150879</ele>
  <time>2011-06-17T04:17:23Z</time>
  <speed>2.160000</speed>
</trkpt>
<trkpt lat="32.743709564" lon="35.056549072">
  <ele>388.971191</ele>
  <time>2011-06-17T04:17:25Z</time>
  <speed>1.930000</speed>
</trkpt>
<trkpt lat="32.743679047" lon="35.056549072">
  <ele>389.432129</ele>
  <time>2011-06-17T04:17:27Z</time>
  <speed>1.790000</speed>
</trkpt>
<trkpt lat="32.743644714" lon="35.056560516">
  <ele>390.236816</ele>
  <time>2011-06-17T04:17:29Z</time>
  <speed>1.520000</speed>
</trkpt>
<trkpt lat="32.743614197" lon="35.056564331">
  <ele>391.752441</ele>
  <time>2011-06-17T04:17:31Z</time>
  <speed>2.130000</speed>
</trkpt>
<trkpt lat="32.743579865" lon="35.056560516">
  <ele>391.939941</ele>
  <time>2011-06-17T04:17:33Z</time>
  <speed>2.240000</speed>
</trkpt>
<trkpt lat="32.743545532" lon="35.056575775">
  <ele>391.252441</ele>
  <time>2011-06-17T04:17:35Z</time>
  <speed>2.120000</speed>
</trkpt>
<trkpt lat="32.743507385" lon="35.056575775">
  <ele>391.877441</ele>
  <time>2011-06-17T04:17:37Z</time>
  <speed>2.000000</speed>
</trkpt>
<trkpt lat="32.743476868" lon="35.056568146">
  <ele>391.682129</ele>
  <time>2011-06-17T04:17:39Z</time>
  <speed>2.050000</speed>
</trkpt>
<trkpt lat="32.743438721" lon="35.056568146">
  <ele>392.572754</ele>
  <time>2011-06-17T04:17:41Z</time>
  <speed>1.830000</speed>
</trkpt>
<trkpt lat="32.743412018" lon="35.056571960">
  <ele>392.752441</ele>
  <time>2011-06-17T04:17:43Z</time>
  <speed>1.750000</speed>
</trkpt>
<trkpt lat="32.743373871" lon="35.056579590">
  <ele>394.049316</ele>
  <time>2011-06-17T04:17:45Z</time>
  <speed>1.470000</speed>
</trkpt>
<trkpt lat="32.743335724" lon="35.056594849">
  <ele>395.518066</ele>
  <time>2011-06-17T04:17:47Z</time>
  <speed>1.960000</speed>
</trkpt>
<trkpt lat="32.743297577" lon="35.056610107">
  <ele>395.197754</ele>
  <time>2011-06-17T04:17:49Z</time>
  <speed>1.780000</speed>
</trkpt>
<trkpt lat="32.743267059" lon="35.056606293">
  <ele>394.494629</ele>
  <time>2011-06-17T04:17:51Z</time>
  <speed>1.590000</speed>
</trkpt>
<trkpt lat="32.743236542" lon="35.056610107">
  <ele>393.072754</ele>
  <time>2011-06-17T04:17:53Z</time>
  <speed>1.780000</speed>
</trkpt>
<trkpt lat="32.743213654" lon="35.056587219">
  <ele>394.283691</ele>
  <time>2011-06-17T04:17:55Z</time>
  <speed>1.890000</speed>
</trkpt>
<trkpt lat="32.743179321" lon="35.056575775">
  <ele>394.549316</ele>
  <time>2011-06-17T04:17:57Z</time>
  <speed>1.720000</speed>
</trkpt>
<trkpt lat="32.743141174" lon="35.056591034">
  <ele>394.846191</ele>
  <time>2011-06-17T04:17:59Z</time>
  <speed>1.520000</speed>
</trkpt>
<trkpt lat="32.743110657" lon="35.056598663">
  <ele>393.932129</ele>
  <time>2011-06-17T04:18:01Z</time>
  <speed>1.880000</speed>
</trkpt>
<trkpt lat="32.743080139" lon="35.056602478">
  <ele>394.572754</ele>
  <time>2011-06-17T04:18:03Z</time>
  <speed>1.570000</speed>
</trkpt>
<trkpt lat="32.743080139" lon="35.056552887">
  <ele>395.838379</ele>
  <time>2011-06-17T04:18:05Z</time>
  <speed>1.550000</speed>
</trkpt>
<trkpt lat="32.743076324" lon="35.056510925">
  <ele>396.291504</ele>
  <time>2011-06-17T04:18:07Z</time>
  <speed>1.660000</speed>
</trkpt>
<trkpt lat="32.743083954" lon="35.056457520">
  <ele>397.900879</ele>
  <time>2011-06-17T04:18:09Z</time>
  <speed>1.360000</speed>
</trkpt>
<trkpt lat="32.743099213" lon="35.056419373">
  <ele>397.260254</ele>
  <time>2011-06-17T04:18:11Z</time>
  <speed>1.760000</speed>
</trkpt>
<trkpt lat="32.743122101" lon="35.056381226">
  <ele>397.705566</ele>
  <time>2011-06-17T04:18:13Z</time>
  <speed>1.640000</speed>
</trkpt>
<trkpt lat="32.743160248" lon="35.056354523">
  <ele>397.518066</ele>
  <time>2011-06-17T04:18:15Z</time>
  <speed>1.940000</speed>
</trkpt>
<trkpt lat="32.743198395" lon="35.056343079">
  <ele>398.018066</ele>
  <time>2011-06-17T04:18:17Z</time>
  <speed>1.650000</speed>
</trkpt>
<trkpt lat="32.743236542" lon="35.056327820">
  <ele>398.041504</ele>
  <time>2011-06-17T04:18:19Z</time>
  <speed>1.540000</speed>
</trkpt>
<trkpt lat="32.743267059" lon="35.056304932">
  <ele>397.979004</ele>
  <time>2011-06-17T04:18:21Z</time>
  <speed>1.530000</speed>
</trkpt>
<trkpt lat="32.743297577" lon="35.056278229">
  <ele>397.799316</ele>
  <time>2011-06-17T04:18:23Z</time>
  <speed>1.330000</speed>
</trkpt>
<trkpt lat="32.743328094" lon="35.056251526">
  <ele>397.393066</ele>
  <time>2011-06-17T04:18:25Z</time>
  <speed>1.690000</speed>
</trkpt>
<trkpt lat="32.743362427" lon="35.056224823">
  <ele>397.518066</ele>
  <time>2011-06-17T04:18:27Z</time>
  <speed>2.060000</speed>
</trkpt>
<trkpt lat="32.743396759" lon="35.056205750">
  <ele>397.033691</ele>
  <time>2011-06-17T04:18:29Z</time>
  <speed>1.980000</speed>
</trkpt>
<trkpt lat="32.743423462" lon="35.056186676">
  <ele>397.119629</ele>
  <time>2011-06-17T04:18:31Z</time>
  <speed>1.830000</speed>
</trkpt>
<trkpt lat="32.743450165" lon="35.056167603">
  <ele>397.354004</ele>
  <time>2011-06-17T04:18:33Z</time>
  <speed>2.110000</speed>
</trkpt>
<trkpt lat="32.743469238" lon="35.056144714">
  <ele>397.666504</ele>
  <time>2011-06-17T04:18:35Z</time>
  <speed>1.780000</speed>
</trkpt>
<trkpt lat="32.743495941" lon="35.056121826">
  <ele>397.385254</ele>
  <time>2011-06-17T04:18:37Z</time>
  <speed>1.850000</speed>
</trkpt>
<trkpt lat="32.743534088" lon="35.056102753">
  <ele>397.080566</ele>
  <time>2011-06-17T04:18:39Z</time>
  <speed>1.850000</speed>
</trkpt>
<trkpt lat="32.743568420" lon="35.056083679">
  <ele>396.689941</ele>
  <time>2011-06-17T04:18:41Z</time>
  <speed>1.960000</speed>
</trkpt>
<trkpt lat="32.743602753" lon="35.056060791">
  <ele>396.471191</ele>
  <time>2011-06-17T04:18:43Z</time>
  <speed>1.800000</speed>
</trkpt>
<trkpt lat="32.743629456" lon="35.056041718">
  <ele>397.299316</ele>
  <time>2011-06-17T04:18:45Z</time>
  <speed>1.750000</speed>
</trkpt>
<trkpt lat="32.743656158" lon="35.056018829">
  <ele>396.939941</ele>
  <time>2011-06-17T04:18:47Z</time>
  <speed>1.770000</speed>
</trkpt>
<trkpt lat="32.743682861" lon="35.056003571">
  <ele>396.861816</ele>
  <time>2011-06-17T04:18:49Z</time>
  <speed>2.060000</speed>
</trkpt>
<trkpt lat="32.743713379" lon="35.055980682">
  <ele>397.416504</ele>
  <time>2011-06-17T04:18:51Z</time>
  <speed>2.000000</speed>
</trkpt>
<trkpt lat="32.743747711" lon="35.055965424">
  <ele>397.236816</ele>
  <time>2011-06-17T04:18:53Z</time>
  <speed>1.810000</speed>
</trkpt>
<trkpt lat="32.743778229" lon="35.055934906">
  <ele>398.760254</ele>
  <time>2011-06-17T04:18:55Z</time>
  <speed>1.900000</speed>
</trkpt>
<trkpt lat="32.743808746" lon="35.055931091">
  <ele>399.814941</ele>
  <time>2011-06-17T04:18:57Z</time>
  <speed>1.820000</speed>
</trkpt>
<trkpt lat="32.743839264" lon="35.055923462">
  <ele>398.861816</ele>
  <time>2011-06-17T04:18:59Z</time>
  <speed>1.510000</speed>
</trkpt>
<trkpt lat="32.743869781" lon="35.055908203">
  <ele>399.150879</ele>
  <time>2011-06-17T04:19:01Z</time>
  <speed>2.110000</speed>
</trkpt>
<trkpt lat="32.743900299" lon="35.055870056">
  <ele>398.463379</ele>
  <time>2011-06-17T04:19:03Z</time>
  <speed>2.080000</speed>
</trkpt>
<trkpt lat="32.743923187" lon="35.055850983">
  <ele>399.197754</ele>
  <time>2011-06-17T04:19:05Z</time>
  <speed>1.970000</speed>
</trkpt>
<trkpt lat="32.743953705" lon="35.055820465">
  <ele>398.947754</ele>
  <time>2011-06-17T04:19:07Z</time>
  <speed>1.860000</speed>
</trkpt>
<trkpt lat="32.743965149" lon="35.055793762">
  <ele>399.939941</ele>
  <time>2011-06-17T04:19:08Z</time>
  <speed>1.940000</speed>
</trkpt>
<trkpt lat="32.743999481" lon="35.055778503">
  <ele>399.658691</ele>
  <time>2011-06-17T04:19:10Z</time>
  <speed>1.990000</speed>
</trkpt>
<trkpt lat="32.744026184" lon="35.055744171">
  <ele>399.471191</ele>
  <time>2011-06-17T04:19:12Z</time>
  <speed>1.850000</speed>
</trkpt>
<trkpt lat="32.744052887" lon="35.055725098">
  <ele>399.229004</ele>
  <time>2011-06-17T04:19:14Z</time>
  <speed>1.810000</speed>
</trkpt>
<trkpt lat="32.744087219" lon="35.055686951">
  <ele>399.400879</ele>
  <time>2011-06-17T04:19:17Z</time>
  <speed>2.150000</speed>
</trkpt>
<trkpt lat="32.744117737" lon="35.055656433">
  <ele>398.932129</ele>
  <time>2011-06-17T04:19:19Z</time>
  <speed>1.940000</speed>
</trkpt>
<trkpt lat="32.744152069" lon="35.055648804">
  <ele>401.432129</ele>
  <time>2011-06-17T04:19:21Z</time>
  <speed>2.100000</speed>
</trkpt>
<trkpt lat="32.744174957" lon="35.055614471">
  <ele>401.182129</ele>
  <time>2011-06-17T04:19:23Z</time>
  <speed>2.140000</speed>
</trkpt>
<trkpt lat="32.744190216" lon="35.055587769">
  <ele>404.439941</ele>
  <time>2011-06-17T04:19:25Z</time>
  <speed>1.970000</speed>
</trkpt>
<trkpt lat="32.744213104" lon="35.055557251">
  <ele>406.158691</ele>
  <time>2011-06-17T04:19:27Z</time>
  <speed>1.380000</speed>
</trkpt>
<trkpt lat="32.744228363" lon="35.055519104">
  <ele>407.268066</ele>
  <time>2011-06-17T04:19:29Z</time>
  <speed>1.800000</speed>
</trkpt>
<trkpt lat="32.744251251" lon="35.055484772">
  <ele>407.369629</ele>
  <time>2011-06-17T04:19:31Z</time>
  <speed>2.090000</speed>
</trkpt>
<trkpt lat="32.744270325" lon="35.055446625">
  <ele>407.939941</ele>
  <time>2011-06-17T04:19:33Z</time>
  <speed>2.310000</speed>
</trkpt>
<trkpt lat="32.744293213" lon="35.055408478">
  <ele>408.002441</ele>
  <time>2011-06-17T04:19:35Z</time>
  <speed>1.660000</speed>
</trkpt>
<trkpt lat="32.744316101" lon="35.055366516">
  <ele>408.244629</ele>
  <time>2011-06-17T04:19:37Z</time>
  <speed>2.120000</speed>
</trkpt>
<trkpt lat="32.744335175" lon="35.055335999">
  <ele>408.127441</ele>
  <time>2011-06-17T04:19:39Z</time>
  <speed>2.370000</speed>
</trkpt>
<trkpt lat="32.744346619" lon="35.055316925">
  <ele>411.221191</ele>
  <time>2011-06-17T04:19:40Z</time>
  <speed>2.260000</speed>
</trkpt>
<trkpt lat="32.744380951" lon="35.055309296">
  <ele>413.588379</ele>
  <time>2011-06-17T04:19:42Z</time>
  <speed>2.110000</speed>
</trkpt>
<trkpt lat="32.744415283" lon="35.055286407">
  <ele>414.096191</ele>
  <time>2011-06-17T04:19:44Z</time>
  <speed>2.100000</speed>
</trkpt>
<trkpt lat="32.744449615" lon="35.055252075">
  <ele>414.307129</ele>
  <time>2011-06-17T04:19:46Z</time>
  <speed>2.040000</speed>
</trkpt>
<trkpt lat="32.744464874" lon="35.055217743">
  <ele>414.275879</ele>
  <time>2011-06-17T04:19:48Z</time>
  <speed>1.980000</speed>
</trkpt>
<trkpt lat="32.744483948" lon="35.055179596">
  <ele>414.424316</ele>
  <time>2011-06-17T04:19:50Z</time>
  <speed>1.760000</speed>
</trkpt>
<trkpt lat="32.744506836" lon="35.055137634">
  <ele>415.572754</ele>
  <time>2011-06-17T04:19:52Z</time>
  <speed>2.020000</speed>
</trkpt>
<trkpt lat="32.744541168" lon="35.055110931">
  <ele>414.393066</ele>
  <time>2011-06-17T04:19:54Z</time>
  <speed>2.340000</speed>
</trkpt>
<trkpt lat="32.744583130" lon="35.055088043">
  <ele>415.377441</ele>
  <time>2011-06-17T04:19:56Z</time>
  <speed>2.250000</speed>
</trkpt>
<trkpt lat="32.744617462" lon="35.055053711">
  <ele>415.158691</ele>
  <time>2011-06-17T04:19:58Z</time>
  <speed>2.100000</speed>
</trkpt>
<trkpt lat="32.744651794" lon="35.055019379">
  <ele>414.541504</ele>
  <time>2011-06-17T04:20:00Z</time>
  <speed>1.820000</speed>
</trkpt>
<trkpt lat="32.744670868" lon="35.054985046">
  <ele>413.830566</ele>
  <time>2011-06-17T04:20:02Z</time>
  <speed>1.880000</speed>
</trkpt>
<trkpt lat="32.744686127" lon="35.054950714">
  <ele>413.650879</ele>
  <time>2011-06-17T04:20:04Z</time>
  <speed>1.920000</speed>
</trkpt>
<trkpt lat="32.744709015" lon="35.054927826">
  <ele>414.252441</ele>
  <time>2011-06-17T04:20:06Z</time>
  <speed>2.020000</speed>
</trkpt>
<trkpt lat="32.744739532" lon="35.054897308">
  <ele>414.830566</ele>
  <time>2011-06-17T04:20:08Z</time>
  <speed>2.090000</speed>
</trkpt>
<trkpt lat="32.744766235" lon="35.054866791">
  <ele>413.439941</ele>
  <time>2011-06-17T04:20:10Z</time>
  <speed>2.040000</speed>
</trkpt>
<trkpt lat="32.744781494" lon="35.054832458">
  <ele>414.564941</ele>
  <time>2011-06-17T04:20:12Z</time>
  <speed>2.010000</speed>
</trkpt>
<trkpt lat="32.744815826" lon="35.054798126">
  <ele>415.236816</ele>
  <time>2011-06-17T04:20:14Z</time>
  <speed>2.120000</speed>
</trkpt>
<trkpt lat="32.744842529" lon="35.054763794">
  <ele>415.596191</ele>
  <time>2011-06-17T04:20:16Z</time>
  <speed>1.890000</speed>
</trkpt>
<trkpt lat="32.744869232" lon="35.054725647">
  <ele>415.346191</ele>
  <time>2011-06-17T04:20:18Z</time>
  <speed>2.100000</speed>
</trkpt>
<trkpt lat="32.744907379" lon="35.054702759">
  <ele>416.369629</ele>
  <time>2011-06-17T04:20:20Z</time>
  <speed>2.050000</speed>
</trkpt>
<trkpt lat="32.744945526" lon="35.054687500">
  <ele>415.807129</ele>
  <time>2011-06-17T04:20:22Z</time>
  <speed>2.230000</speed>
</trkpt>
<trkpt lat="32.744964600" lon="35.054664612">
  <ele>414.361816</ele>
  <time>2011-06-17T04:20:24Z</time>
  <speed>2.100000</speed>
</trkpt>
<trkpt lat="32.744991302" lon="35.054634094">
  <ele>414.572754</ele>
  <time>2011-06-17T04:20:26Z</time>
  <speed>2.020000</speed>
</trkpt>
<trkpt lat="32.745025635" lon="35.054592133">
  <ele>414.314941</ele>
  <time>2011-06-17T04:20:28Z</time>
  <speed>2.270000</speed>
</trkpt>
<trkpt lat="32.745052338" lon="35.054557800">
  <ele>414.252441</ele>
  <time>2011-06-17T04:20:30Z</time>
  <speed>2.140000</speed>
</trkpt>
<trkpt lat="32.745079041" lon="35.054519653">
  <ele>414.158691</ele>
  <time>2011-06-17T04:20:32Z</time>
  <speed>2.230000</speed>
</trkpt>
<trkpt lat="32.745094299" lon="35.054481506">
  <ele>414.502441</ele>
  <time>2011-06-17T04:20:34Z</time>
  <speed>2.060000</speed>
</trkpt>
<trkpt lat="32.745117188" lon="35.054435730">
  <ele>414.416504</ele>
  <time>2011-06-17T04:20:36Z</time>
  <speed>2.020000</speed>
</trkpt>
<trkpt lat="32.745128632" lon="35.054401398">
  <ele>415.377441</ele>
  <time>2011-06-17T04:20:38Z</time>
  <speed>1.890000</speed>
</trkpt>
<trkpt lat="32.745143890" lon="35.054363251">
  <ele>416.299316</ele>
  <time>2011-06-17T04:20:40Z</time>
  <speed>2.180000</speed>
</trkpt>
<trkpt lat="32.745155334" lon="35.054317474">
  <ele>417.080566</ele>
  <time>2011-06-17T04:20:42Z</time>
  <speed>2.190000</speed>
</trkpt>
<trkpt lat="32.745162964" lon="35.054275513">
  <ele>417.596191</ele>
  <time>2011-06-17T04:20:44Z</time>
  <speed>1.830000</speed>
</trkpt>
<trkpt lat="32.745170593" lon="35.054237366">
  <ele>418.385254</ele>
  <time>2011-06-17T04:20:46Z</time>
  <speed>2.100000</speed>
</trkpt>
<trkpt lat="32.745182037" lon="35.054195404">
  <ele>419.041504</ele>
  <time>2011-06-17T04:20:48Z</time>
  <speed>2.030000</speed>
</trkpt>
<trkpt lat="32.745197296" lon="35.054157257">
  <ele>419.666504</ele>
  <time>2011-06-17T04:20:50Z</time>
  <speed>1.740000</speed>
</trkpt>
<trkpt lat="32.745201111" lon="35.054100037">
  <ele>420.986816</ele>
  <time>2011-06-17T04:20:52Z</time>
  <speed>1.860000</speed>
</trkpt>
<trkpt lat="32.745216370" lon="35.054054260">
  <ele>420.697754</ele>
  <time>2011-06-17T04:20:54Z</time>
  <speed>2.020000</speed>
</trkpt>
<trkpt lat="32.745231628" lon="35.054016113">
  <ele>420.518066</ele>
  <time>2011-06-17T04:20:56Z</time>
  <speed>1.600000</speed>
</trkpt>
<trkpt lat="32.745239258" lon="35.053974152">
  <ele>421.393066</ele>
  <time>2011-06-17T04:20:58Z</time>
  <speed>1.230000</speed>
</trkpt>
<trkpt lat="32.745277405" lon="35.053947449">
  <ele>419.854004</ele>
  <time>2011-06-17T04:21:01Z</time>
  <speed>1.580000</speed>
</trkpt>
<trkpt lat="32.745307922" lon="35.053928375">
  <ele>418.666504</ele>
  <time>2011-06-17T04:21:03Z</time>
  <speed>2.070000</speed>
</trkpt>
<trkpt lat="32.745346069" lon="35.053928375">
  <ele>418.619629</ele>
  <time>2011-06-17T04:21:05Z</time>
  <speed>2.050000</speed>
</trkpt>
<trkpt lat="32.745384216" lon="35.053928375">
  <ele>417.463379</ele>
  <time>2011-06-17T04:21:07Z</time>
  <speed>1.970000</speed>
</trkpt>
<trkpt lat="32.745418549" lon="35.053924561">
  <ele>417.744629</ele>
  <time>2011-06-17T04:21:09Z</time>
  <speed>2.160000</speed>
</trkpt>
<trkpt lat="32.745456696" lon="35.053932190">
  <ele>418.057129</ele>
  <time>2011-06-17T04:21:11Z</time>
  <speed>2.430000</speed>
</trkpt>
<trkpt lat="32.745498657" lon="35.053928375">
  <ele>417.596191</ele>
  <time>2011-06-17T04:21:13Z</time>
  <speed>2.140000</speed>
</trkpt>
<trkpt lat="32.745532990" lon="35.053916931">
  <ele>418.729004</ele>
  <time>2011-06-17T04:21:15Z</time>
  <speed>2.040000</speed>
</trkpt>
<trkpt lat="32.745574951" lon="35.053901672">
  <ele>417.580566</ele>
  <time>2011-06-17T04:21:17Z</time>
  <speed>2.060000</speed>
</trkpt>
<trkpt lat="32.745616913" lon="35.053886414">
  <ele>417.033691</ele>
  <time>2011-06-17T04:21:19Z</time>
  <speed>2.180000</speed>
</trkpt>
<trkpt lat="32.745655060" lon="35.053878784">
  <ele>416.518066</ele>
  <time>2011-06-17T04:21:21Z</time>
  <speed>1.940000</speed>
</trkpt>
<trkpt lat="32.745685577" lon="35.053863525">
  <ele>416.979004</ele>
  <time>2011-06-17T04:21:23Z</time>
  <speed>1.730000</speed>
</trkpt>
<trkpt lat="32.745716095" lon="35.053852081">
  <ele>416.971191</ele>
  <time>2011-06-17T04:21:25Z</time>
  <speed>1.930000</speed>
</trkpt>
<trkpt lat="32.745750427" lon="35.053859711">
  <ele>419.822754</ele>
  <time>2011-06-17T04:21:27Z</time>
  <speed>2.080000</speed>
</trkpt>
<trkpt lat="32.745777130" lon="35.053855896">
  <ele>420.604004</ele>
  <time>2011-06-17T04:21:29Z</time>
  <speed>2.010000</speed>
</trkpt>
<trkpt lat="32.745819092" lon="35.053840637">
  <ele>419.494629</ele>
  <time>2011-06-17T04:21:31Z</time>
  <speed>1.930000</speed>
</trkpt>
<trkpt lat="32.745845795" lon="35.053848267">
  <ele>421.275879</ele>
  <time>2011-06-17T04:21:33Z</time>
  <speed>1.860000</speed>
</trkpt>
<trkpt lat="32.745880127" lon="35.053840637">
  <ele>421.463379</ele>
  <time>2011-06-17T04:21:35Z</time>
  <speed>1.710000</speed>
</trkpt>
<trkpt lat="32.745914459" lon="35.053840637">
  <ele>421.682129</ele>
  <time>2011-06-17T04:21:37Z</time>
  <speed>1.690000</speed>
</trkpt>
<trkpt lat="32.745952606" lon="35.053836823">
  <ele>420.564941</ele>
  <time>2011-06-17T04:21:39Z</time>
  <speed>2.150000</speed>
</trkpt>
<trkpt lat="32.745994568" lon="35.053821564">
  <ele>418.205566</ele>
  <time>2011-06-17T04:21:41Z</time>
  <speed>2.020000</speed>
</trkpt>
<trkpt lat="32.746017456" lon="35.053840637">
  <ele>420.197754</ele>
  <time>2011-06-17T04:21:42Z</time>
  <speed>2.180000</speed>
</trkpt>
<trkpt lat="32.746067047" lon="35.053825378">
  <ele>418.541504</ele>
  <time>2011-06-17T04:21:44Z</time>
  <speed>2.040000</speed>
</trkpt>
<trkpt lat="32.746109009" lon="35.053802490">
  <ele>417.064941</ele>
  <time>2011-06-17T04:21:46Z</time>
  <speed>2.360000</speed>
</trkpt>
<trkpt lat="32.746147156" lon="35.053794861">
  <ele>416.174316</ele>
  <time>2011-06-17T04:21:48Z</time>
  <speed>2.110000</speed>
</trkpt>
<trkpt lat="32.746185303" lon="35.053787231">
  <ele>415.971191</ele>
  <time>2011-06-17T04:21:50Z</time>
  <speed>2.250000</speed>
</trkpt>
<trkpt lat="32.746219635" lon="35.053783417">
  <ele>415.189941</ele>
  <time>2011-06-17T04:21:52Z</time>
  <speed>2.070000</speed>
</trkpt>
<trkpt lat="32.746253967" lon="35.053794861">
  <ele>417.619629</ele>
  <time>2011-06-17T04:21:54Z</time>
  <speed>1.860000</speed>
</trkpt>
<trkpt lat="32.746273041" lon="35.053802490">
  <ele>419.736816</ele>
  <time>2011-06-17T04:21:56Z</time>
  <speed>1.430000</speed>
</trkpt>
<trkpt lat="32.746299744" lon="35.053791046">
  <ele>421.041504</ele>
  <time>2011-06-17T04:21:58Z</time>
  <speed>2.030000</speed>
</trkpt>
<trkpt lat="32.746334076" lon="35.053779602">
  <ele>422.518066</ele>
  <time>2011-06-17T04:22:00Z</time>
  <speed>1.920000</speed>
</trkpt>
<trkpt lat="32.746368408" lon="35.053768158">
  <ele>425.135254</ele>
  <time>2011-06-17T04:22:02Z</time>
  <speed>1.780000</speed>
</trkpt>
<trkpt lat="32.746391296" lon="35.053768158">
  <ele>428.025879</ele>
  <time>2011-06-17T04:22:04Z</time>
  <speed>1.810000</speed>
</trkpt>
<trkpt lat="32.746425629" lon="35.053764343">
  <ele>428.189941</ele>
  <time>2011-06-17T04:22:06Z</time>
  <speed>1.870000</speed>
</trkpt>
<trkpt lat="32.746459961" lon="35.053779602">
  <ele>428.541504</ele>
  <time>2011-06-17T04:22:08Z</time>
  <speed>1.690000</speed>
</trkpt>
<trkpt lat="32.746475220" lon="35.053798676">
  <ele>431.049316</ele>
  <time>2011-06-17T04:22:09Z</time>
  <speed>1.900000</speed>
</trkpt>
<trkpt lat="32.746505737" lon="35.053806305">
  <ele>432.393066</ele>
  <time>2011-06-17T04:22:11Z</time>
  <speed>1.810000</speed>
</trkpt>
<trkpt lat="32.746540070" lon="35.053806305">
  <ele>433.111816</ele>
  <time>2011-06-17T04:22:13Z</time>
  <speed>2.100000</speed>
</trkpt>
<trkpt lat="32.746570587" lon="35.053810120">
  <ele>433.104004</ele>
  <time>2011-06-17T04:22:14Z</time>
  <speed>2.060000</speed>
</trkpt>
<trkpt lat="32.746604919" lon="35.053806305">
  <ele>432.244629</ele>
  <time>2011-06-17T04:22:16Z</time>
  <speed>1.910000</speed>
</trkpt>
<trkpt lat="32.746639252" lon="35.053802490">
  <ele>431.064941</ele>
  <time>2011-06-17T04:22:18Z</time>
  <speed>2.230000</speed>
</trkpt>
<trkpt lat="32.746669769" lon="35.053802490">
  <ele>431.400879</ele>
  <time>2011-06-17T04:22:20Z</time>
  <speed>1.890000</speed>
</trkpt>
<trkpt lat="32.746707916" lon="35.053806305">
  <ele>431.057129</ele>
  <time>2011-06-17T04:22:22Z</time>
  <speed>1.840000</speed>
</trkpt>
<trkpt lat="32.746742249" lon="35.053806305">
  <ele>431.791504</ele>
  <time>2011-06-17T04:22:24Z</time>
  <speed>1.940000</speed>
</trkpt>
<trkpt lat="32.746780396" lon="35.053810120">
  <ele>431.971191</ele>
  <time>2011-06-17T04:22:26Z</time>
  <speed>1.610000</speed>
</trkpt>
<trkpt lat="32.746818542" lon="35.053810120">
  <ele>433.346191</ele>
  <time>2011-06-17T04:22:29Z</time>
  <speed>2.000000</speed>
</trkpt>
<trkpt lat="32.746856689" lon="35.053813934">
  <ele>433.619629</ele>
  <time>2011-06-17T04:22:31Z</time>
  <speed>1.810000</speed>
</trkpt>
<trkpt lat="32.746887207" lon="35.053821564">
  <ele>434.502441</ele>
  <time>2011-06-17T04:22:33Z</time>
  <speed>1.930000</speed>
</trkpt>
<trkpt lat="32.746921539" lon="35.053821564">
  <ele>435.775879</ele>
  <time>2011-06-17T04:22:35Z</time>
  <speed>1.950000</speed>
</trkpt>
<trkpt lat="32.746955872" lon="35.053825378">
  <ele>435.330566</ele>
  <time>2011-06-17T04:22:37Z</time>
  <speed>1.820000</speed>
</trkpt>
<trkpt lat="32.746986389" lon="35.053821564">
  <ele>435.486816</ele>
  <time>2011-06-17T04:22:39Z</time>
  <speed>1.890000</speed>
</trkpt>
<trkpt lat="32.747024536" lon="35.053821564">
  <ele>436.189941</ele>
  <time>2011-06-17T04:22:41Z</time>
  <speed>1.880000</speed>
</trkpt>
<trkpt lat="32.747062683" lon="35.053813934">
  <ele>436.463379</ele>
  <time>2011-06-17T04:22:43Z</time>
  <speed>1.870000</speed>
</trkpt>
<trkpt lat="32.747100830" lon="35.053806305">
  <ele>437.197754</ele>
  <time>2011-06-17T04:22:45Z</time>
  <speed>2.010000</speed>
</trkpt>
<trkpt lat="32.747135162" lon="35.053791046">
  <ele>436.479004</ele>
  <time>2011-06-17T04:22:47Z</time>
  <speed>2.120000</speed>
</trkpt>
<trkpt lat="32.747165680" lon="35.053783417">
  <ele>437.807129</ele>
  <time>2011-06-17T04:22:49Z</time>
  <speed>1.970000</speed>
</trkpt>
<trkpt lat="32.747200012" lon="35.053768158">
  <ele>439.143066</ele>
  <time>2011-06-17T04:22:51Z</time>
  <speed>2.050000</speed>
</trkpt>
<trkpt lat="32.747230530" lon="35.053745270">
  <ele>439.658691</ele>
  <time>2011-06-17T04:22:53Z</time>
  <speed>1.890000</speed>
</trkpt>
<trkpt lat="32.747268677" lon="35.053730011">
  <ele>439.127441</ele>
  <time>2011-06-17T04:22:55Z</time>
  <speed>2.010000</speed>
</trkpt>
<trkpt lat="32.747303009" lon="35.053718567">
  <ele>439.072754</ele>
  <time>2011-06-17T04:22:57Z</time>
  <speed>1.710000</speed>
</trkpt>
<trkpt lat="32.747333527" lon="35.053710938">
  <ele>439.494629</ele>
  <time>2011-06-17T04:22:59Z</time>
  <speed>1.870000</speed>
</trkpt>
<trkpt lat="32.747375488" lon="35.053695679">
  <ele>438.900879</ele>
  <time>2011-06-17T04:23:01Z</time>
  <speed>1.850000</speed>
</trkpt>
<trkpt lat="32.747413635" lon="35.053680420">
  <ele>440.479004</ele>
  <time>2011-06-17T04:23:04Z</time>
  <speed>2.000000</speed>
</trkpt>
<trkpt lat="32.747432709" lon="35.053657532">
  <ele>441.510254</ele>
  <time>2011-06-17T04:23:06Z</time>
  <speed>2.000000</speed>
</trkpt>
<trkpt lat="32.747455597" lon="35.053627014">
  <ele>442.471191</ele>
  <time>2011-06-17T04:23:08Z</time>
  <speed>1.910000</speed>
</trkpt>
<trkpt lat="32.747478485" lon="35.053592682">
  <ele>443.205566</ele>
  <time>2011-06-17T04:23:10Z</time>
  <speed>1.950000</speed>
</trkpt>
<trkpt lat="32.747505188" lon="35.053554535">
  <ele>443.807129</ele>
  <time>2011-06-17T04:23:12Z</time>
  <speed>1.920000</speed>
</trkpt>
<trkpt lat="32.747524261" lon="35.053516388">
  <ele>444.971191</ele>
  <time>2011-06-17T04:23:14Z</time>
  <speed>1.860000</speed>
</trkpt>
<trkpt lat="32.747539520" lon="35.053462982">
  <ele>445.611816</ele>
  <time>2011-06-17T04:23:16Z</time>
  <speed>2.200000</speed>
</trkpt>
<trkpt lat="32.747531891" lon="35.053424835">
  <ele>446.775879</ele>
  <time>2011-06-17T04:23:17Z</time>
  <speed>2.110000</speed>
</trkpt>
<trkpt lat="32.747531891" lon="35.053371429">
  <ele>447.768066</ele>
  <time>2011-06-17T04:23:19Z</time>
  <speed>2.070000</speed>
</trkpt>
<trkpt lat="32.747531891" lon="35.053329468">
  <ele>449.025879</ele>
  <time>2011-06-17T04:23:21Z</time>
  <speed>2.140000</speed>
</trkpt>
<trkpt lat="32.747516632" lon="35.053283691">
  <ele>449.119629</ele>
  <time>2011-06-17T04:23:23Z</time>
  <speed>2.150000</speed>
</trkpt>
<trkpt lat="32.747497559" lon="35.053237915">
  <ele>450.072754</ele>
  <time>2011-06-17T04:23:25Z</time>
  <speed>2.270000</speed>
</trkpt>
<trkpt lat="32.747470856" lon="35.053203583">
  <ele>449.783691</ele>
  <time>2011-06-17T04:23:27Z</time>
  <speed>2.180000</speed>
</trkpt>
<trkpt lat="32.747440338" lon="35.053173065">
  <ele>449.643066</ele>
  <time>2011-06-17T04:23:29Z</time>
  <speed>1.910000</speed>
</trkpt>
<trkpt lat="32.747406006" lon="35.053142548">
  <ele>450.205566</ele>
  <time>2011-06-17T04:23:31Z</time>
  <speed>1.950000</speed>
</trkpt>
<trkpt lat="32.747367859" lon="35.053115845">
  <ele>450.018066</ele>
  <time>2011-06-17T04:23:33Z</time>
  <speed>2.190000</speed>
</trkpt>
<trkpt lat="32.747337341" lon="35.053089142">
  <ele>449.541504</ele>
  <time>2011-06-17T04:23:35Z</time>
  <speed>1.920000</speed>
</trkpt>
<trkpt lat="32.747303009" lon="35.053066254">
  <ele>449.299316</ele>
  <time>2011-06-17T04:23:37Z</time>
  <speed>1.870000</speed>
</trkpt>
<trkpt lat="32.747280121" lon="35.053054810">
  <ele>450.658691</ele>
  <time>2011-06-17T04:23:38Z</time>
  <speed>2.040000</speed>
</trkpt>
<trkpt lat="32.747234344" lon="35.053020477">
  <ele>450.877441</ele>
  <time>2011-06-17T04:23:40Z</time>
  <speed>1.790000</speed>
</trkpt>
<trkpt lat="32.747207642" lon="35.053005219">
  <ele>450.635254</ele>
  <time>2011-06-17T04:23:42Z</time>
  <speed>2.030000</speed>
</trkpt>
<trkpt lat="32.747173309" lon="35.052993774">
  <ele>449.666504</ele>
  <time>2011-06-17T04:23:44Z</time>
  <speed>2.040000</speed>
</trkpt>
<trkpt lat="32.747142792" lon="35.052967072">
  <ele>449.627441</ele>
  <time>2011-06-17T04:23:46Z</time>
  <speed>2.060000</speed>
</trkpt>
<trkpt lat="32.747100830" lon="35.052955627">
  <ele>448.924316</ele>
  <time>2011-06-17T04:23:48Z</time>
  <speed>1.720000</speed>
</trkpt>
<trkpt lat="32.747066498" lon="35.052944183">
  <ele>447.900879</ele>
  <time>2011-06-17T04:23:50Z</time>
  <speed>1.970000</speed>
</trkpt>
<trkpt lat="32.747028351" lon="35.052936554">
  <ele>447.697754</ele>
  <time>2011-06-17T04:23:52Z</time>
  <speed>1.950000</speed>
</trkpt>
<trkpt lat="32.746994019" lon="35.052921295">
  <ele>447.697754</ele>
  <time>2011-06-17T04:23:54Z</time>
  <speed>1.980000</speed>
</trkpt>
<trkpt lat="32.746952057" lon="35.052917480">
  <ele>447.635254</ele>
  <time>2011-06-17T04:23:56Z</time>
  <speed>2.010000</speed>
</trkpt>
<trkpt lat="32.746917725" lon="35.052913666">
  <ele>447.729004</ele>
  <time>2011-06-17T04:23:58Z</time>
  <speed>2.020000</speed>
</trkpt>
<trkpt lat="32.746879578" lon="35.052913666">
  <ele>447.705566</ele>
  <time>2011-06-17T04:24:00Z</time>
  <speed>1.460000</speed>
</trkpt>
<trkpt lat="32.746852875" lon="35.052913666">
  <ele>448.502441</ele>
  <time>2011-06-17T04:24:02Z</time>
  <speed>1.570000</speed>
</trkpt>
<trkpt lat="32.746822357" lon="35.052902222">
  <ele>448.299316</ele>
  <time>2011-06-17T04:24:04Z</time>
  <speed>1.960000</speed>
</trkpt>
<trkpt lat="32.746795654" lon="35.052894592">
  <ele>448.822754</ele>
  <time>2011-06-17T04:24:06Z</time>
  <speed>1.680000</speed>
</trkpt>
<trkpt lat="32.746765137" lon="35.052890778">
  <ele>448.252441</ele>
  <time>2011-06-17T04:24:08Z</time>
  <speed>1.480000</speed>
</trkpt>
<trkpt lat="32.746730804" lon="35.052886963">
  <ele>447.775879</ele>
  <time>2011-06-17T04:24:10Z</time>
  <speed>1.720000</speed>
</trkpt>
<trkpt lat="32.746696472" lon="35.052894592">
  <ele>446.877441</ele>
  <time>2011-06-17T04:24:12Z</time>
  <speed>1.950000</speed>
</trkpt>
<trkpt lat="32.746662140" lon="35.052894592">
  <ele>447.908691</ele>
  <time>2011-06-17T04:24:14Z</time>
  <speed>1.450000</speed>
</trkpt>
<trkpt lat="32.746623993" lon="35.052898407">
  <ele>448.104004</ele>
  <time>2011-06-17T04:24:16Z</time>
  <speed>1.700000</speed>
</trkpt>
<trkpt lat="32.746597290" lon="35.052898407">
  <ele>448.080566</ele>
  <time>2011-06-17T04:24:18Z</time>
  <speed>1.120000</speed>
</trkpt>
<trkpt lat="32.746566772" lon="35.052909851">
  <ele>448.072754</ele>
  <time>2011-06-17T04:24:20Z</time>
  <speed>1.780000</speed>
</trkpt>
<trkpt lat="32.746532440" lon="35.052909851">
  <ele>448.361816</ele>
  <time>2011-06-17T04:24:22Z</time>
  <speed>1.860000</speed>
</trkpt>
<trkpt lat="32.746501923" lon="35.052921295">
  <ele>448.416504</ele>
  <time>2011-06-17T04:24:24Z</time>
  <speed>1.850000</speed>
</trkpt>
<trkpt lat="32.746471405" lon="35.052940369">
  <ele>448.674316</ele>
  <time>2011-06-17T04:24:26Z</time>
  <speed>1.400000</speed>
</trkpt>
<trkpt lat="32.746437073" lon="35.052963257">
  <ele>449.104004</ele>
  <time>2011-06-17T04:24:28Z</time>
  <speed>1.590000</speed>
</trkpt>
<trkpt lat="32.746406555" lon="35.052974701">
  <ele>448.705566</ele>
  <time>2011-06-17T04:24:30Z</time>
  <speed>1.490000</speed>
</trkpt>
<trkpt lat="32.746376038" lon="35.052978516">
  <ele>448.299316</ele>
  <time>2011-06-17T04:24:32Z</time>
  <speed>1.800000</speed>
</trkpt>
<trkpt lat="32.746356964" lon="35.052993774">
  <ele>446.424316</ele>
  <time>2011-06-17T04:24:34Z</time>
  <speed>1.330000</speed>
</trkpt>
<trkpt lat="32.746326447" lon="35.053005219">
  <ele>446.221191</ele>
  <time>2011-06-17T04:24:36Z</time>
  <speed>1.400000</speed>
</trkpt>
<trkpt lat="32.746299744" lon="35.053005219">
  <ele>445.752441</ele>
  <time>2011-06-17T04:24:38Z</time>
  <speed>1.440000</speed>
</trkpt>
<trkpt lat="32.746269226" lon="35.053009033">
  <ele>445.408691</ele>
  <time>2011-06-17T04:24:40Z</time>
  <speed>1.590000</speed>
</trkpt>
<trkpt lat="32.746238708" lon="35.053005219">
  <ele>445.119629</ele>
  <time>2011-06-17T04:24:42Z</time>
  <speed>1.470000</speed>
</trkpt>
<trkpt lat="32.746212006" lon="35.053020477">
  <ele>444.924316</ele>
  <time>2011-06-17T04:24:44Z</time>
  <speed>1.740000</speed>
</trkpt>
<trkpt lat="32.746177673" lon="35.053028107">
  <ele>444.588379</ele>
  <time>2011-06-17T04:24:46Z</time>
  <speed>1.600000</speed>
</trkpt>
<trkpt lat="32.746147156" lon="35.053028107">
  <ele>445.658691</ele>
  <time>2011-06-17T04:24:48Z</time>
  <speed>1.370000</speed>
</trkpt>
<trkpt lat="32.746109009" lon="35.053016663">
  <ele>444.869629</ele>
  <time>2011-06-17T04:24:51Z</time>
  <speed>1.630000</speed>
</trkpt>
<trkpt lat="32.746078491" lon="35.053016663">
  <ele>445.502441</ele>
  <time>2011-06-17T04:24:53Z</time>
  <speed>1.710000</speed>
</trkpt>
<trkpt lat="32.746044159" lon="35.053001404">
  <ele>445.549316</ele>
  <time>2011-06-17T04:24:55Z</time>
  <speed>1.590000</speed>
</trkpt>
<trkpt lat="32.746009827" lon="35.053005219">
  <ele>445.635254</ele>
  <time>2011-06-17T04:24:57Z</time>
  <speed>1.540000</speed>
</trkpt>
<trkpt lat="32.745975494" lon="35.053001404">
  <ele>447.119629</ele>
  <time>2011-06-17T04:24:59Z</time>
  <speed>1.820000</speed>
</trkpt>
<trkpt lat="32.745952606" lon="35.052978516">
  <ele>448.346191</ele>
  <time>2011-06-17T04:25:01Z</time>
  <speed>1.310000</speed>
</trkpt>
<trkpt lat="32.745925903" lon="35.052982330">
  <ele>448.932129</ele>
  <time>2011-06-17T04:25:03Z</time>
  <speed>1.680000</speed>
</trkpt>
<trkpt lat="32.745895386" lon="35.052986145">
  <ele>449.229004</ele>
  <time>2011-06-17T04:25:05Z</time>
  <speed>1.720000</speed>
</trkpt>
<trkpt lat="32.745861053" lon="35.052963257">
  <ele>450.002441</ele>
  <time>2011-06-17T04:25:08Z</time>
  <speed>1.540000</speed>
</trkpt>
<trkpt lat="32.745830536" lon="35.052947998">
  <ele>449.658691</ele>
  <time>2011-06-17T04:25:10Z</time>
  <speed>1.620000</speed>
</trkpt>
<trkpt lat="32.745803833" lon="35.052932739">
  <ele>448.775879</ele>
  <time>2011-06-17T04:25:12Z</time>
  <speed>1.860000</speed>
</trkpt>
<trkpt lat="32.745773315" lon="35.052917480">
  <ele>449.018066</ele>
  <time>2011-06-17T04:25:14Z</time>
  <speed>2.050000</speed>
</trkpt>
<trkpt lat="32.745738983" lon="35.052913666">
  <ele>448.971191</ele>
  <time>2011-06-17T04:25:16Z</time>
  <speed>1.980000</speed>
</trkpt>
<trkpt lat="32.745708466" lon="35.052894592">
  <ele>449.783691</ele>
  <time>2011-06-17T04:25:18Z</time>
  <speed>1.740000</speed>
</trkpt>
<trkpt lat="32.745674133" lon="35.052875519">
  <ele>450.854004</ele>
  <time>2011-06-17T04:25:20Z</time>
  <speed>2.000000</speed>
</trkpt>
<trkpt lat="32.745651245" lon="35.052845001">
  <ele>451.518066</ele>
  <time>2011-06-17T04:25:22Z</time>
  <speed>1.670000</speed>
</trkpt>
<trkpt lat="32.745624542" lon="35.052818298">
  <ele>451.814941</ele>
  <time>2011-06-17T04:25:24Z</time>
  <speed>1.730000</speed>
</trkpt>
<trkpt lat="32.745590210" lon="35.052787781">
  <ele>451.752441</ele>
  <time>2011-06-17T04:25:26Z</time>
  <speed>2.040000</speed>
</trkpt>
<trkpt lat="32.745559692" lon="35.052757263">
  <ele>451.791504</ele>
  <time>2011-06-17T04:25:28Z</time>
  <speed>1.800000</speed>
</trkpt>
<trkpt lat="32.745544434" lon="35.052730560">
  <ele>452.580566</ele>
  <time>2011-06-17T04:25:30Z</time>
  <speed>1.220000</speed>
</trkpt>
<trkpt lat="32.745525360" lon="35.052703857">
  <ele>453.057129</ele>
  <time>2011-06-17T04:25:32Z</time>
  <speed>1.640000</speed>
</trkpt>
<trkpt lat="32.745502472" lon="35.052684784">
  <ele>452.643066</ele>
  <time>2011-06-17T04:25:34Z</time>
  <speed>1.580000</speed>
</trkpt>
<trkpt lat="32.745468140" lon="35.052661896">
  <ele>453.377441</ele>
  <time>2011-06-17T04:25:36Z</time>
  <speed>1.910000</speed>
</trkpt>
<trkpt lat="32.745437622" lon="35.052639008">
  <ele>453.510254</ele>
  <time>2011-06-17T04:25:38Z</time>
  <speed>1.990000</speed>
</trkpt>
<trkpt lat="32.745407104" lon="35.052616119">
  <ele>453.549316</ele>
  <time>2011-06-17T04:25:40Z</time>
  <speed>2.120000</speed>
</trkpt>
<trkpt lat="32.745372772" lon="35.052604675">
  <ele>454.275879</ele>
  <time>2011-06-17T04:25:42Z</time>
  <speed>1.670000</speed>
</trkpt>
<trkpt lat="32.745346069" lon="35.052627563">
  <ele>454.877441</ele>
  <time>2011-06-17T04:25:43Z</time>
  <speed>1.650000</speed>
</trkpt>
<trkpt lat="32.745315552" lon="35.052608490">
  <ele>455.705566</ele>
  <time>2011-06-17T04:25:45Z</time>
  <speed>1.850000</speed>
</trkpt>
<trkpt lat="32.745296478" lon="35.052577972">
  <ele>456.057129</ele>
  <time>2011-06-17T04:25:47Z</time>
  <speed>1.590000</speed>
</trkpt>
<trkpt lat="32.745265961" lon="35.052566528">
  <ele>456.127441</ele>
  <time>2011-06-17T04:25:49Z</time>
  <speed>1.640000</speed>
</trkpt>
<trkpt lat="32.745246887" lon="35.052543640">
  <ele>457.158691</ele>
  <time>2011-06-17T04:25:51Z</time>
  <speed>1.520000</speed>
</trkpt>
<trkpt lat="32.745216370" lon="35.052528381">
  <ele>457.752441</ele>
  <time>2011-06-17T04:25:53Z</time>
  <speed>1.760000</speed>
</trkpt>
<trkpt lat="32.745189667" lon="35.052497864">
  <ele>458.455566</ele>
  <time>2011-06-17T04:25:55Z</time>
  <speed>1.860000</speed>
</trkpt>
<trkpt lat="32.745155334" lon="35.052474976">
  <ele>458.846191</ele>
  <time>2011-06-17T04:25:57Z</time>
  <speed>2.060000</speed>
</trkpt>
<trkpt lat="32.745117188" lon="35.052471161">
  <ele>459.799316</ele>
  <time>2011-06-17T04:25:59Z</time>
  <speed>1.720000</speed>
</trkpt>
<trkpt lat="32.745082855" lon="35.052459717">
  <ele>459.518066</ele>
  <time>2011-06-17T04:26:01Z</time>
  <speed>1.630000</speed>
</trkpt>
<trkpt lat="32.745052338" lon="35.052455902">
  <ele>460.229004</ele>
  <time>2011-06-17T04:26:03Z</time>
  <speed>2.010000</speed>
</trkpt>
<trkpt lat="32.745014191" lon="35.052455902">
  <ele>460.361816</ele>
  <time>2011-06-17T04:26:05Z</time>
  <speed>1.730000</speed>
</trkpt>
<trkpt lat="32.744987488" lon="35.052429199">
  <ele>460.846191</ele>
  <time>2011-06-17T04:26:07Z</time>
  <speed>1.930000</speed>
</trkpt>
<trkpt lat="32.744949341" lon="35.052425385">
  <ele>460.869629</ele>
  <time>2011-06-17T04:26:09Z</time>
  <speed>1.580000</speed>
</trkpt>
<trkpt lat="32.744915009" lon="35.052429199">
  <ele>461.221191</ele>
  <time>2011-06-17T04:26:11Z</time>
  <speed>1.650000</speed>
</trkpt>
<trkpt lat="32.744876862" lon="35.052440643">
  <ele>461.939941</ele>
  <time>2011-06-17T04:26:14Z</time>
  <speed>1.470000</speed>
</trkpt>
<trkpt lat="32.744846344" lon="35.052452087">
  <ele>461.533691</ele>
  <time>2011-06-17T04:26:16Z</time>
  <speed>1.350000</speed>
</trkpt>
<trkpt lat="32.744815826" lon="35.052455902">
  <ele>461.393066</ele>
  <time>2011-06-17T04:26:18Z</time>
  <speed>1.660000</speed>
</trkpt>
<trkpt lat="32.744785309" lon="35.052463531">
  <ele>461.486816</ele>
  <time>2011-06-17T04:26:20Z</time>
  <speed>1.260000</speed>
</trkpt>
<trkpt lat="32.744750977" lon="35.052478790">
  <ele>461.275879</ele>
  <time>2011-06-17T04:26:23Z</time>
  <speed>1.450000</speed>
</trkpt>
<trkpt lat="32.744720459" lon="35.052497864">
  <ele>461.135254</ele>
  <time>2011-06-17T04:26:25Z</time>
  <speed>1.570000</speed>
</trkpt>
<trkpt lat="32.744686127" lon="35.052505493">
  <ele>460.783691</ele>
  <time>2011-06-17T04:26:27Z</time>
  <speed>1.370000</speed>
</trkpt>
<trkpt lat="32.744647980" lon="35.052501678">
  <ele>460.744629</ele>
  <time>2011-06-17T04:26:29Z</time>
  <speed>1.430000</speed>
</trkpt>
<trkpt lat="32.744621277" lon="35.052516937">
  <ele>460.689941</ele>
  <time>2011-06-17T04:26:31Z</time>
  <speed>1.440000</speed>
</trkpt>
<trkpt lat="32.744594574" lon="35.052536011">
  <ele>460.064941</ele>
  <time>2011-06-17T04:26:33Z</time>
  <speed>1.720000</speed>
</trkpt>
<trkpt lat="32.744560242" lon="35.052543640">
  <ele>460.549316</ele>
  <time>2011-06-17T04:26:35Z</time>
  <speed>1.230000</speed>
</trkpt>
<trkpt lat="32.744533539" lon="35.052547455">
  <ele>459.721191</ele>
  <time>2011-06-17T04:26:37Z</time>
  <speed>1.440000</speed>
</trkpt>
<trkpt lat="32.744499207" lon="35.052547455">
  <ele>459.033691</ele>
  <time>2011-06-17T04:26:39Z</time>
  <speed>1.810000</speed>
</trkpt>
<trkpt lat="32.744461060" lon="35.052574158">
  <ele>458.385254</ele>
  <time>2011-06-17T04:26:42Z</time>
  <speed>1.560000</speed>
</trkpt>
<trkpt lat="32.744434357" lon="35.052585602">
  <ele>457.682129</ele>
  <time>2011-06-17T04:26:44Z</time>
  <speed>1.640000</speed>
</trkpt>
<trkpt lat="32.744400024" lon="35.052577972">
  <ele>458.518066</ele>
  <time>2011-06-17T04:26:46Z</time>
  <speed>1.690000</speed>
</trkpt>
<trkpt lat="32.744365692" lon="35.052570343">
  <ele>457.510254</ele>
  <time>2011-06-17T04:26:48Z</time>
  <speed>1.450000</speed>
</trkpt>
<trkpt lat="32.744335175" lon="35.052577972">
  <ele>457.486816</ele>
  <time>2011-06-17T04:26:50Z</time>
  <speed>1.440000</speed>
</trkpt>
<trkpt lat="32.744312286" lon="35.052616119">
  <ele>458.143066</ele>
  <time>2011-06-17T04:26:51Z</time>
  <speed>1.420000</speed>
</trkpt>
<trkpt lat="32.744277954" lon="35.052616119">
  <ele>458.463379</ele>
  <time>2011-06-17T04:26:54Z</time>
  <speed>1.680000</speed>
</trkpt>
<trkpt lat="32.744247437" lon="35.052612305">
  <ele>458.354004</ele>
  <time>2011-06-17T04:26:56Z</time>
  <speed>1.750000</speed>
</trkpt>
<trkpt lat="32.744213104" lon="35.052604675">
  <ele>458.455566</ele>
  <time>2011-06-17T04:26:58Z</time>
  <speed>1.680000</speed>
</trkpt>
<trkpt lat="32.744190216" lon="35.052585602">
  <ele>458.916504</ele>
  <time>2011-06-17T04:27:00Z</time>
  <speed>1.380000</speed>
</trkpt>
<trkpt lat="32.744159698" lon="35.052589417">
  <ele>459.736816</ele>
  <time>2011-06-17T04:27:03Z</time>
  <speed>1.380000</speed>
</trkpt>
<trkpt lat="32.744121552" lon="35.052597046">
  <ele>460.229004</ele>
  <time>2011-06-17T04:27:06Z</time>
  <speed>1.540000</speed>
</trkpt>
<trkpt lat="32.744091034" lon="35.052593231">
  <ele>460.768066</ele>
  <time>2011-06-17T04:27:09Z</time>
  <speed>1.140000</speed>
</trkpt>
<trkpt lat="32.744064331" lon="35.052589417">
  <ele>460.682129</ele>
  <time>2011-06-17T04:27:11Z</time>
  <speed>1.520000</speed>
</trkpt>
<trkpt lat="32.744037628" lon="35.052612305">
  <ele>460.643066</ele>
  <time>2011-06-17T04:27:12Z</time>
  <speed>1.680000</speed>
</trkpt>
<trkpt lat="32.744007111" lon="35.052608490">
  <ele>460.979004</ele>
  <time>2011-06-17T04:27:14Z</time>
  <speed>1.550000</speed>
</trkpt>
<trkpt lat="32.743968964" lon="35.052612305">
  <ele>460.705566</ele>
  <time>2011-06-17T04:27:16Z</time>
  <speed>1.790000</speed>
</trkpt>
<trkpt lat="32.743942261" lon="35.052604675">
  <ele>461.463379</ele>
  <time>2011-06-17T04:27:18Z</time>
  <speed>1.550000</speed>
</trkpt>
<trkpt lat="32.743915558" lon="35.052600861">
  <ele>462.713379</ele>
  <time>2011-06-17T04:27:20Z</time>
  <speed>1.360000</speed>
</trkpt>
<trkpt lat="32.743873596" lon="35.052604675">
  <ele>464.057129</ele>
  <time>2011-06-17T04:27:23Z</time>
  <speed>1.340000</speed>
</trkpt>
<trkpt lat="32.743839264" lon="35.052581787">
  <ele>465.674316</ele>
  <time>2011-06-17T04:27:26Z</time>
  <speed>1.350000</speed>
</trkpt>
<trkpt lat="32.743812561" lon="35.052555084">
  <ele>466.846191</ele>
  <time>2011-06-17T04:27:29Z</time>
  <speed>1.420000</speed>
</trkpt>
<trkpt lat="32.743778229" lon="35.052551270">
  <ele>467.635254</ele>
  <time>2011-06-17T04:27:32Z</time>
  <speed>1.610000</speed>
</trkpt>
<trkpt lat="32.743762970" lon="35.052532196">
  <ele>469.385254</ele>
  <time>2011-06-17T04:27:34Z</time>
  <speed>1.290000</speed>
</trkpt>
<trkpt lat="32.743721008" lon="35.052509308">
  <ele>471.486816</ele>
  <time>2011-06-17T04:27:37Z</time>
  <speed>1.190000</speed>
</trkpt>
<trkpt lat="32.743686676" lon="35.052501678">
  <ele>473.432129</ele>
  <time>2011-06-17T04:27:39Z</time>
  <speed>1.650000</speed>
</trkpt>
<trkpt lat="32.743659973" lon="35.052497864">
  <ele>473.861816</ele>
  <time>2011-06-17T04:27:41Z</time>
  <speed>1.660000</speed>
</trkpt>
<trkpt lat="32.743629456" lon="35.052486420">
  <ele>475.768066</ele>
  <time>2011-06-17T04:27:43Z</time>
  <speed>1.820000</speed>
</trkpt>
<trkpt lat="32.743602753" lon="35.052490234">
  <ele>475.932129</ele>
  <time>2011-06-17T04:27:45Z</time>
  <speed>1.860000</speed>
</trkpt>
<trkpt lat="32.743560791" lon="35.052494049">
  <ele>476.619629</ele>
  <time>2011-06-17T04:27:47Z</time>
  <speed>1.690000</speed>
</trkpt>
<trkpt lat="32.743530273" lon="35.052494049">
  <ele>477.518066</ele>
  <time>2011-06-17T04:27:49Z</time>
  <speed>1.540000</speed>
</trkpt>
<trkpt lat="32.743499756" lon="35.052478790">
  <ele>477.330566</ele>
  <time>2011-06-17T04:27:51Z</time>
  <speed>1.610000</speed>
</trkpt>
<trkpt lat="32.743461609" lon="35.052486420">
  <ele>477.814941</ele>
  <time>2011-06-17T04:27:54Z</time>
  <speed>1.540000</speed>
</trkpt>
<trkpt lat="32.743431091" lon="35.052497864">
  <ele>478.049316</ele>
  <time>2011-06-17T04:27:56Z</time>
  <speed>1.600000</speed>
</trkpt>
<trkpt lat="32.743400574" lon="35.052497864">
  <ele>478.158691</ele>
  <time>2011-06-17T04:27:58Z</time>
  <speed>1.410000</speed>
</trkpt>
<trkpt lat="32.743362427" lon="35.052494049">
  <ele>478.580566</ele>
  <time>2011-06-17T04:28:00Z</time>
  <speed>1.400000</speed>
</trkpt>
<trkpt lat="32.743331909" lon="35.052490234">
  <ele>478.307129</ele>
  <time>2011-06-17T04:28:02Z</time>
  <speed>1.460000</speed>
</trkpt>
<trkpt lat="32.743289948" lon="35.052490234">
  <ele>478.361816</ele>
  <time>2011-06-17T04:28:05Z</time>
  <speed>1.780000</speed>
</trkpt>
<trkpt lat="32.743247986" lon="35.052505493">
  <ele>478.111816</ele>
  <time>2011-06-17T04:28:07Z</time>
  <speed>1.660000</speed>
</trkpt>
<trkpt lat="32.743209839" lon="35.052509308">
  <ele>477.955566</ele>
  <time>2011-06-17T04:28:09Z</time>
  <speed>1.350000</speed>
</trkpt>
<trkpt lat="32.743183136" lon="35.052532196">
  <ele>478.400879</ele>
  <time>2011-06-17T04:28:10Z</time>
  <speed>1.530000</speed>
</trkpt>
<trkpt lat="32.743156433" lon="35.052532196">
  <ele>478.275879</ele>
  <time>2011-06-17T04:28:12Z</time>
  <speed>1.600000</speed>
</trkpt>
<trkpt lat="32.743122101" lon="35.052532196">
  <ele>478.150879</ele>
  <time>2011-06-17T04:28:14Z</time>
  <speed>1.630000</speed>
</trkpt>
<trkpt lat="32.743080139" lon="35.052543640">
  <ele>477.635254</ele>
  <time>2011-06-17T04:28:17Z</time>
  <speed>1.570000</speed>
</trkpt>
<trkpt lat="32.743045807" lon="35.052543640">
  <ele>477.229004</ele>
  <time>2011-06-17T04:28:19Z</time>
  <speed>1.520000</speed>
</trkpt>
<trkpt lat="32.743011475" lon="35.052547455">
  <ele>477.479004</ele>
  <time>2011-06-17T04:28:21Z</time>
  <speed>1.690000</speed>
</trkpt>
<trkpt lat="32.742980957" lon="35.052551270">
  <ele>477.447754</ele>
  <time>2011-06-17T04:28:24Z</time>
  <speed>1.680000</speed>
</trkpt>
<trkpt lat="32.742942810" lon="35.052547455">
  <ele>477.783691</ele>
  <time>2011-06-17T04:28:27Z</time>
  <speed>1.140000</speed>
</trkpt>
<trkpt lat="32.742912292" lon="35.052536011">
  <ele>478.275879</ele>
  <time>2011-06-17T04:28:29Z</time>
  <speed>1.610000</speed>
</trkpt>
<trkpt lat="32.742881775" lon="35.052539825">
  <ele>477.854004</ele>
  <time>2011-06-17T04:28:31Z</time>
  <speed>1.130000</speed>
</trkpt>
<trkpt lat="32.742855072" lon="35.052547455">
  <ele>478.111816</ele>
  <time>2011-06-17T04:28:33Z</time>
  <speed>1.450000</speed>
</trkpt>
<trkpt lat="32.742828369" lon="35.052562714">
  <ele>477.611816</ele>
  <time>2011-06-17T04:28:35Z</time>
  <speed>1.350000</speed>
</trkpt>
<trkpt lat="32.742809296" lon="35.052536011">
  <ele>477.916504</ele>
  <time>2011-06-17T04:28:37Z</time>
  <speed>1.600000</speed>
</trkpt>
<trkpt lat="32.742778778" lon="35.052528381">
  <ele>478.299316</ele>
  <time>2011-06-17T04:28:39Z</time>
  <speed>1.680000</speed>
</trkpt>
<trkpt lat="32.742752075" lon="35.052532196">
  <ele>478.275879</ele>
  <time>2011-06-17T04:28:41Z</time>
  <speed>1.210000</speed>
</trkpt>
<trkpt lat="32.742725372" lon="35.052539825">
  <ele>478.400879</ele>
  <time>2011-06-17T04:28:43Z</time>
  <speed>1.260000</speed>
</trkpt>
<trkpt lat="32.742691040" lon="35.052536011">
  <ele>478.994629</ele>
  <time>2011-06-17T04:28:45Z</time>
  <speed>1.430000</speed>
</trkpt>
<trkpt lat="32.742664337" lon="35.052528381">
  <ele>478.463379</ele>
  <time>2011-06-17T04:28:47Z</time>
  <speed>1.350000</speed>
</trkpt>
<trkpt lat="32.742637634" lon="35.052524567">
  <ele>478.275879</ele>
  <time>2011-06-17T04:28:49Z</time>
  <speed>1.490000</speed>
</trkpt>
<trkpt lat="32.742603302" lon="35.052520752">
  <ele>477.510254</ele>
  <time>2011-06-17T04:28:51Z</time>
  <speed>1.500000</speed>
</trkpt>
<trkpt lat="32.742568970" lon="35.052513123">
  <ele>478.479004</ele>
  <time>2011-06-17T04:28:53Z</time>
  <speed>1.590000</speed>
</trkpt>
<trkpt lat="32.742534637" lon="35.052505493">
  <ele>477.979004</ele>
  <time>2011-06-17T04:28:56Z</time>
  <speed>1.450000</speed>
</trkpt>
<trkpt lat="32.742504120" lon="35.052490234">
  <ele>478.760254</ele>
  <time>2011-06-17T04:28:58Z</time>
  <speed>1.710000</speed>
</trkpt>
<trkpt lat="32.742469788" lon="35.052474976">
  <ele>479.260254</ele>
  <time>2011-06-17T04:29:00Z</time>
  <speed>1.820000</speed>
</trkpt>
<trkpt lat="32.742446899" lon="35.052513123">
  <ele>480.713379</ele>
  <time>2011-06-17T04:29:01Z</time>
  <speed>1.620000</speed>
</trkpt>
<trkpt lat="32.742424011" lon="35.052532196">
  <ele>481.814941</ele>
  <time>2011-06-17T04:29:02Z</time>
  <speed>1.710000</speed>
</trkpt>
<trkpt lat="32.742401123" lon="35.052497864">
  <ele>482.814941</ele>
  <time>2011-06-17T04:29:05Z</time>
  <speed>1.430000</speed>
</trkpt>
<trkpt lat="32.742378235" lon="35.052478790">
  <ele>482.611816</ele>
  <time>2011-06-17T04:29:07Z</time>
  <speed>1.520000</speed>
</trkpt>
<trkpt lat="32.742343903" lon="35.052474976">
  <ele>482.783691</ele>
  <time>2011-06-17T04:29:10Z</time>
  <speed>1.310000</speed>
</trkpt>
<trkpt lat="32.742313385" lon="35.052455902">
  <ele>482.830566</ele>
  <time>2011-06-17T04:29:12Z</time>
  <speed>1.530000</speed>
</trkpt>
<trkpt lat="32.742286682" lon="35.052444458">
  <ele>482.346191</ele>
  <time>2011-06-17T04:29:14Z</time>
  <speed>1.260000</speed>
</trkpt>
<trkpt lat="32.742248535" lon="35.052440643">
  <ele>482.580566</ele>
  <time>2011-06-17T04:29:17Z</time>
  <speed>1.430000</speed>
</trkpt>
<trkpt lat="32.742218018" lon="35.052444458">
  <ele>482.525879</ele>
  <time>2011-06-17T04:29:20Z</time>
  <speed>0.930000</speed>
</trkpt>
<trkpt lat="32.742183685" lon="35.052429199">
  <ele>482.479004</ele>
  <time>2011-06-17T04:29:23Z</time>
  <speed>1.180000</speed>
</trkpt>
<trkpt lat="32.742156982" lon="35.052444458">
  <ele>482.361816</ele>
  <time>2011-06-17T04:29:25Z</time>
  <speed>0.850000</speed>
</trkpt>
<trkpt lat="32.742130280" lon="35.052429199">
  <ele>482.463379</ele>
  <time>2011-06-17T04:29:28Z</time>
  <speed>0.770000</speed>
</trkpt>
<trkpt lat="32.742107391" lon="35.052417755">
  <ele>483.369629</ele>
  <time>2011-06-17T04:29:31Z</time>
  <speed>1.160000</speed>
</trkpt>
<trkpt lat="32.742080688" lon="35.052398682">
  <ele>482.986816</ele>
  <time>2011-06-17T04:29:33Z</time>
  <speed>1.080000</speed>
</trkpt>
<trkpt lat="32.742046356" lon="35.052371979">
  <ele>483.299316</ele>
  <time>2011-06-17T04:29:36Z</time>
  <speed>1.490000</speed>
</trkpt>
<trkpt lat="32.742012024" lon="35.052349091">
  <ele>484.127441</ele>
  <time>2011-06-17T04:29:38Z</time>
  <speed>1.480000</speed>
</trkpt>
<trkpt lat="32.741981506" lon="35.052341461">
  <ele>484.580566</ele>
  <time>2011-06-17T04:29:40Z</time>
  <speed>1.590000</speed>
</trkpt>
<trkpt lat="32.741958618" lon="35.052322388">
  <ele>485.057129</ele>
  <time>2011-06-17T04:29:42Z</time>
  <speed>1.260000</speed>
</trkpt>
<trkpt lat="32.741912842" lon="35.052299500">
  <ele>485.291504</ele>
  <time>2011-06-17T04:29:45Z</time>
  <speed>1.330000</speed>
</trkpt>
<trkpt lat="32.741882324" lon="35.052303314">
  <ele>485.424316</ele>
  <time>2011-06-17T04:29:47Z</time>
  <speed>1.860000</speed>
</trkpt>
<trkpt lat="32.741847992" lon="35.052310944">
  <ele>485.635254</ele>
  <time>2011-06-17T04:29:50Z</time>
  <speed>0.790000</speed>
</trkpt>
<trkpt lat="32.741813660" lon="35.052291870">
  <ele>486.064941</ele>
  <time>2011-06-17T04:29:53Z</time>
  <speed>1.170000</speed>
</trkpt>
<trkpt lat="32.741775513" lon="35.052272797">
  <ele>486.986816</ele>
  <time>2011-06-17T04:29:57Z</time>
  <speed>1.120000</speed>
</trkpt>
<trkpt lat="32.741744995" lon="35.052272797">
  <ele>486.729004</ele>
  <time>2011-06-17T04:30:00Z</time>
  <speed>0.990000</speed>
</trkpt>
<trkpt lat="32.741703033" lon="35.052288055">
  <ele>486.932129</ele>
  <time>2011-06-17T04:30:03Z</time>
  <speed>0.850000</speed>
</trkpt>
<trkpt lat="32.741676331" lon="35.052307129">
  <ele>487.244629</ele>
  <time>2011-06-17T04:30:06Z</time>
  <speed>0.690000</speed>
</trkpt>
<trkpt lat="32.741645813" lon="35.052322388">
  <ele>487.611816</ele>
  <time>2011-06-17T04:30:08Z</time>
  <speed>0.930000</speed>
</trkpt>
<trkpt lat="32.741611481" lon="35.052307129">
  <ele>488.025879</ele>
  <time>2011-06-17T04:30:11Z</time>
  <speed>1.110000</speed>
</trkpt>
<trkpt lat="32.741596222" lon="35.052291870">
  <ele>490.799316</ele>
  <time>2011-06-17T04:30:15Z</time>
  <speed>1.000000</speed>
</trkpt>
<trkpt lat="32.741565704" lon="35.052291870">
  <ele>493.002441</ele>
  <time>2011-06-17T04:30:19Z</time>
  <speed>0.680000</speed>
</trkpt>
<trkpt lat="32.741561890" lon="35.052261353">
  <ele>493.939941</ele>
  <time>2011-06-17T04:30:21Z</time>
  <speed>0.710000</speed>
</trkpt>
<trkpt lat="32.741546631" lon="35.052227020">
  <ele>495.143066</ele>
  <time>2011-06-17T04:30:23Z</time>
  <speed>0.890000</speed>
</trkpt>
<trkpt lat="32.741516113" lon="35.052185059">
  <ele>497.291504</ele>
  <time>2011-06-17T04:30:25Z</time>
  <speed>0.960000</speed>
</trkpt>
<trkpt lat="32.741504669" lon="35.052146912">
  <ele>498.541504</ele>
  <time>2011-06-17T04:30:28Z</time>
  <speed>0.920000</speed>
</trkpt>
<trkpt lat="32.741477966" lon="35.052143097">
  <ele>499.947754</ele>
  <time>2011-06-17T04:30:32Z</time>
  <speed>0.740000</speed>
</trkpt>
<trkpt lat="32.741458893" lon="35.052120209">
  <ele>500.963379</ele>
  <time>2011-06-17T04:30:33Z</time>
  <speed>0.730000</speed>
</trkpt>
<trkpt lat="32.741428375" lon="35.052104950">
  <ele>502.002441</ele>
  <time>2011-06-17T04:30:36Z</time>
  <speed>0.900000</speed>
</trkpt>
<trkpt lat="32.741416931" lon="35.052082062">
  <ele>504.479004</ele>
  <time>2011-06-17T04:30:39Z</time>
  <speed>0.800000</speed>
</trkpt>
<trkpt lat="32.741397858" lon="35.052055359">
  <ele>506.369629</ele>
  <time>2011-06-17T04:30:42Z</time>
  <speed>0.990000</speed>
</trkpt>
<trkpt lat="32.741386414" lon="35.052021027">
  <ele>507.471191</ele>
  <time>2011-06-17T04:30:44Z</time>
  <speed>0.890000</speed>
</trkpt>
<trkpt lat="32.741374969" lon="35.051994324">
  <ele>507.799316</ele>
  <time>2011-06-17T04:30:47Z</time>
  <speed>0.770000</speed>
</trkpt>
<trkpt lat="32.741340637" lon="35.051979065">
  <ele>508.424316</ele>
  <time>2011-06-17T04:30:51Z</time>
  <speed>0.900000</speed>
</trkpt>
<trkpt lat="32.741313934" lon="35.051975250">
  <ele>508.354004</ele>
  <time>2011-06-17T04:30:54Z</time>
  <speed>0.970000</speed>
</trkpt>
<trkpt lat="32.741291046" lon="35.051944733">
  <ele>508.424316</ele>
  <time>2011-06-17T04:30:57Z</time>
  <speed>0.780000</speed>
</trkpt>
<trkpt lat="32.741268158" lon="35.051929474">
  <ele>508.174316</ele>
  <time>2011-06-17T04:30:59Z</time>
  <speed>0.910000</speed>
</trkpt>
<trkpt lat="32.741241455" lon="35.051898956">
  <ele>508.650879</ele>
  <time>2011-06-17T04:31:03Z</time>
  <speed>1.040000</speed>
</trkpt>
<trkpt lat="32.741207123" lon="35.051891327">
  <ele>508.807129</ele>
  <time>2011-06-17T04:31:06Z</time>
  <speed>0.930000</speed>
</trkpt>
<trkpt lat="32.741168976" lon="35.051883698">
  <ele>510.549316</ele>
  <time>2011-06-17T04:31:08Z</time>
  <speed>1.300000</speed>
</trkpt>
<trkpt lat="32.741134644" lon="35.051891327">
  <ele>512.411133</ele>
  <time>2011-06-17T04:31:10Z</time>
  <speed>1.200000</speed>
</trkpt>
<trkpt lat="32.741104126" lon="35.051883698">
  <ele>512.801758</ele>
  <time>2011-06-17T04:31:12Z</time>
  <speed>1.260000</speed>
</trkpt>
<trkpt lat="32.741081238" lon="35.051872253">
  <ele>513.270508</ele>
  <time>2011-06-17T04:31:14Z</time>
  <speed>1.010000</speed>
</trkpt>
<trkpt lat="32.741050720" lon="35.051864624">
  <ele>513.708008</ele>
  <time>2011-06-17T04:31:16Z</time>
  <speed>1.160000</speed>
</trkpt>
<trkpt lat="32.741031647" lon="35.051830292">
  <ele>514.473633</ele>
  <time>2011-06-17T04:31:19Z</time>
  <speed>1.590000</speed>
</trkpt>
<trkpt lat="32.741027832" lon="35.051784515">
  <ele>515.645508</ele>
  <time>2011-06-17T04:31:21Z</time>
  <speed>1.950000</speed>
</trkpt>
<trkpt lat="32.741012573" lon="35.051750183">
  <ele>515.442383</ele>
  <time>2011-06-17T04:31:23Z</time>
  <speed>1.160000</speed>
</trkpt>
<trkpt lat="32.741012573" lon="35.051727295">
  <ele>517.614258</ele>
  <time>2011-06-17T04:31:28Z</time>
  <speed>0.100000</speed>
</trkpt>
<trkpt lat="32.741001129" lon="35.051708221">
  <ele>519.754883</ele>
  <time>2011-06-17T04:35:01Z</time>
</trkpt>
<trkpt lat="32.741024017" lon="35.051734924">
  <ele>520.395508</ele>
  <time>2011-06-17T04:36:21Z</time>
  <speed>0.550000</speed>
</trkpt>
<trkpt lat="32.741050720" lon="35.051753998">
  <ele>520.239258</ele>
  <time>2011-06-17T04:36:23Z</time>
  <speed>1.140000</speed>
</trkpt>
<trkpt lat="32.741054535" lon="35.051792145">
  <ele>519.958008</ele>
  <time>2011-06-17T04:36:26Z</time>
  <speed>0.920000</speed>
</trkpt>
<trkpt lat="32.741062164" lon="35.051826477">
  <ele>519.676758</ele>
  <time>2011-06-17T04:36:29Z</time>
  <speed>0.880000</speed>
</trkpt>
<trkpt lat="32.741100311" lon="35.051826477">
  <ele>521.348633</ele>
  <time>2011-06-17T04:36:32Z</time>
  <speed>2.990000</speed>
</trkpt>
<trkpt lat="32.741138458" lon="35.051815033">
  <ele>521.223633</ele>
  <time>2011-06-17T04:36:33Z</time>
  <speed>2.760000</speed>
</trkpt>
<trkpt lat="32.741184235" lon="35.051826477">
  <ele>520.676758</ele>
  <time>2011-06-17T04:36:35Z</time>
  <speed>2.730000</speed>
</trkpt>
<trkpt lat="32.741214752" lon="35.051856995">
  <ele>519.895508</ele>
  <time>2011-06-17T04:36:36Z</time>
  <speed>4.260000</speed>
</trkpt>
<trkpt lat="32.741252899" lon="35.051895142">
  <ele>519.254883</ele>
  <time>2011-06-17T04:36:37Z</time>
  <speed>4.020000</speed>
</trkpt>
<trkpt lat="32.741283417" lon="35.051914215">
  <ele>518.442383</ele>
  <time>2011-06-17T04:36:38Z</time>
  <speed>3.820000</speed>
</trkpt>
<trkpt lat="32.741310120" lon="35.051925659">
  <ele>517.911133</ele>
  <time>2011-06-17T04:36:39Z</time>
  <speed>2.810000</speed>
</trkpt>
<trkpt lat="32.741340637" lon="35.051967621">
  <ele>517.051758</ele>
  <time>2011-06-17T04:36:40Z</time>
  <speed>4.960000</speed>
</trkpt>
<trkpt lat="32.741363525" lon="35.052017212">
  <ele>516.395508</ele>
  <time>2011-06-17T04:36:41Z</time>
  <speed>5.590000</speed>
</trkpt>
<trkpt lat="32.741378784" lon="35.052074432">
  <ele>515.989258</ele>
  <time>2011-06-17T04:36:42Z</time>
  <speed>6.150000</speed>
</trkpt>
<trkpt lat="32.741462708" lon="35.052158356">
  <ele>513.911133</ele>
  <time>2011-06-17T04:36:43Z</time>
  <speed>7.910000</speed>
</trkpt>
<trkpt lat="32.741527557" lon="35.052227020">
  <ele>512.551758</ele>
  <time>2011-06-17T04:36:44Z</time>
  <speed>8.050000</speed>
</trkpt>
<trkpt lat="32.741569519" lon="35.052303314">
  <ele>511.596191</ele>
  <time>2011-06-17T04:36:45Z</time>
  <speed>8.330000</speed>
</trkpt>
<trkpt lat="32.741592407" lon="35.052387238">
  <ele>510.713379</ele>
  <time>2011-06-17T04:36:46Z</time>
  <speed>7.680000</speed>
</trkpt>
<trkpt lat="32.741607666" lon="35.052467346">
  <ele>510.049316</ele>
  <time>2011-06-17T04:36:47Z</time>
  <speed>7.100000</speed>
</trkpt>
<trkpt lat="32.741653442" lon="35.052555084">
  <ele>508.338379</ele>
  <time>2011-06-17T04:36:48Z</time>
  <speed>5.960000</speed>
</trkpt>
<trkpt lat="32.741687775" lon="35.052604675">
  <ele>507.424316</ele>
  <time>2011-06-17T04:36:49Z</time>
  <speed>5.280000</speed>
</trkpt>
<trkpt lat="32.741733551" lon="35.052631378">
  <ele>506.580566</ele>
  <time>2011-06-17T04:36:50Z</time>
  <speed>4.490000</speed>
</trkpt>
<trkpt lat="32.741764069" lon="35.052661896">
  <ele>505.658691</ele>
  <time>2011-06-17T04:36:51Z</time>
  <speed>4.080000</speed>
</trkpt>
<trkpt lat="32.741828918" lon="35.052703857">
  <ele>504.213379</ele>
  <time>2011-06-17T04:36:52Z</time>
  <speed>4.790000</speed>
</trkpt>
<trkpt lat="32.741889954" lon="35.052742004">
  <ele>502.814941</ele>
  <time>2011-06-17T04:36:53Z</time>
  <speed>3.450000</speed>
</trkpt>
<trkpt lat="32.741970062" lon="35.052742004">
  <ele>501.916504</ele>
  <time>2011-06-17T04:36:55Z</time>
  <speed>1.270000</speed>
</trkpt>
<trkpt lat="32.742008209" lon="35.052734375">
  <ele>499.525879</ele>
  <time>2011-06-17T04:36:58Z</time>
  <speed>2.550000</speed>
</trkpt>
<trkpt lat="32.742038727" lon="35.052749634">
  <ele>497.877441</ele>
  <time>2011-06-17T04:36:59Z</time>
  <speed>2.640000</speed>
</trkpt>
<trkpt lat="32.742065430" lon="35.052757263">
  <ele>496.557129</ele>
  <time>2011-06-17T04:37:00Z</time>
  <speed>3.140000</speed>
</trkpt>
<trkpt lat="32.742095947" lon="35.052772522">
  <ele>495.229004</ele>
  <time>2011-06-17T04:37:01Z</time>
  <speed>3.630000</speed>
</trkpt>
<trkpt lat="32.742134094" lon="35.052791595">
  <ele>494.424316</ele>
  <time>2011-06-17T04:37:02Z</time>
  <speed>3.630000</speed>
</trkpt>
<trkpt lat="32.742172241" lon="35.052806854">
  <ele>493.463379</ele>
  <time>2011-06-17T04:37:03Z</time>
  <speed>3.230000</speed>
</trkpt>
<trkpt lat="32.742237091" lon="35.052810669">
  <ele>493.002441</ele>
  <time>2011-06-17T04:37:05Z</time>
  <speed>3.170000</speed>
</trkpt>
<trkpt lat="32.742271423" lon="35.052806854">
  <ele>492.877441</ele>
  <time>2011-06-17T04:37:06Z</time>
  <speed>3.300000</speed>
</trkpt>
<trkpt lat="32.742317200" lon="35.052810669">
  <ele>492.760254</ele>
  <time>2011-06-17T04:37:07Z</time>
  <speed>4.510000</speed>
</trkpt>
<trkpt lat="32.742370605" lon="35.052818298">
  <ele>493.033691</ele>
  <time>2011-06-17T04:37:08Z</time>
  <speed>5.270000</speed>
</trkpt>
<trkpt lat="32.742412567" lon="35.052825928">
  <ele>493.307129</ele>
  <time>2011-06-17T04:37:09Z</time>
  <speed>5.130000</speed>
</trkpt>
<trkpt lat="32.742465973" lon="35.052848816">
  <ele>494.564941</ele>
  <time>2011-06-17T04:37:10Z</time>
  <speed>4.380000</speed>
</trkpt>
<trkpt lat="32.742504120" lon="35.052883148">
  <ele>494.666504</ele>
  <time>2011-06-17T04:37:11Z</time>
  <speed>4.190000</speed>
</trkpt>
<trkpt lat="32.742549896" lon="35.052913666">
  <ele>495.283691</ele>
  <time>2011-06-17T04:37:12Z</time>
  <speed>5.030000</speed>
</trkpt>
<trkpt lat="32.742599487" lon="35.052928925">
  <ele>494.689941</ele>
  <time>2011-06-17T04:37:13Z</time>
  <speed>5.940000</speed>
</trkpt>
<trkpt lat="32.742660522" lon="35.052936554">
  <ele>495.119629</ele>
  <time>2011-06-17T04:37:14Z</time>
  <speed>6.780000</speed>
</trkpt>
<trkpt lat="32.742725372" lon="35.052947998">
  <ele>495.471191</ele>
  <time>2011-06-17T04:37:15Z</time>
  <speed>6.830000</speed>
</trkpt>
<trkpt lat="32.742774963" lon="35.052970886">
  <ele>495.854004</ele>
  <time>2011-06-17T04:37:16Z</time>
  <speed>4.670000</speed>
</trkpt>
<trkpt lat="32.742813110" lon="35.053005219">
  <ele>496.283691</ele>
  <time>2011-06-17T04:37:17Z</time>
  <speed>4.560000</speed>
</trkpt>
<trkpt lat="32.742847443" lon="35.053031921">
  <ele>496.705566</ele>
  <time>2011-06-17T04:37:18Z</time>
  <speed>4.790000</speed>
</trkpt>
<trkpt lat="32.742877960" lon="35.053062439">
  <ele>496.783691</ele>
  <time>2011-06-17T04:37:19Z</time>
  <speed>4.260000</speed>
</trkpt>
<trkpt lat="32.742900848" lon="35.053096771">
  <ele>496.510254</ele>
  <time>2011-06-17T04:37:20Z</time>
  <speed>3.610000</speed>
</trkpt>
<trkpt lat="32.742935181" lon="35.053127289">
  <ele>496.697754</ele>
  <time>2011-06-17T04:37:21Z</time>
  <speed>3.750000</speed>
</trkpt>
<trkpt lat="32.742958069" lon="35.053153992">
  <ele>496.713379</ele>
  <time>2011-06-17T04:37:22Z</time>
  <speed>3.300000</speed>
</trkpt>
<trkpt lat="32.742992401" lon="35.053173065">
  <ele>497.119629</ele>
  <time>2011-06-17T04:37:23Z</time>
  <speed>3.850000</speed>
</trkpt>
<trkpt lat="32.743019104" lon="35.053195953">
  <ele>497.416504</ele>
  <time>2011-06-17T04:37:24Z</time>
  <speed>3.450000</speed>
</trkpt>
<trkpt lat="32.743053436" lon="35.053211212">
  <ele>497.057129</ele>
  <time>2011-06-17T04:37:25Z</time>
  <speed>3.810000</speed>
</trkpt>
<trkpt lat="32.743080139" lon="35.053218842">
  <ele>497.018066</ele>
  <time>2011-06-17T04:37:26Z</time>
  <speed>3.240000</speed>
</trkpt>
<trkpt lat="32.743133545" lon="35.053211212">
  <ele>497.182129</ele>
  <time>2011-06-17T04:37:28Z</time>
  <speed>3.080000</speed>
</trkpt>
<trkpt lat="32.743156433" lon="35.053180695">
  <ele>496.291504</ele>
  <time>2011-06-17T04:37:29Z</time>
  <speed>3.470000</speed>
</trkpt>
<trkpt lat="32.743167877" lon="35.053146362">
  <ele>495.924316</ele>
  <time>2011-06-17T04:37:30Z</time>
  <speed>3.310000</speed>
</trkpt>
<trkpt lat="32.743183136" lon="35.053115845">
  <ele>495.604004</ele>
  <time>2011-06-17T04:37:31Z</time>
  <speed>2.900000</speed>
</trkpt>
<trkpt lat="32.743232727" lon="35.053058624">
  <ele>494.908691</ele>
  <time>2011-06-17T04:37:33Z</time>
  <speed>4.290000</speed>
</trkpt>
<trkpt lat="32.743255615" lon="35.053024292">
  <ele>494.533691</ele>
  <time>2011-06-17T04:37:34Z</time>
  <speed>4.000000</speed>
</trkpt>
<trkpt lat="32.743297577" lon="35.052986145">
  <ele>494.010254</ele>
  <time>2011-06-17T04:37:35Z</time>
  <speed>3.960000</speed>
</trkpt>
<trkpt lat="32.743320465" lon="35.052951813">
  <ele>493.783691</ele>
  <time>2011-06-17T04:37:36Z</time>
  <speed>2.620000</speed>
</trkpt>
<trkpt lat="32.743366241" lon="35.052913666">
  <ele>492.807129</ele>
  <time>2011-06-17T04:37:38Z</time>
  <speed>2.680000</speed>
</trkpt>
<trkpt lat="32.743423462" lon="35.052867889">
  <ele>491.807129</ele>
  <time>2011-06-17T04:37:40Z</time>
  <speed>3.650000</speed>
</trkpt>
<trkpt lat="32.743450165" lon="35.052837372">
  <ele>490.174316</ele>
  <time>2011-06-17T04:37:41Z</time>
  <speed>3.780000</speed>
</trkpt>
<trkpt lat="32.743476868" lon="35.052803040">
  <ele>489.189941</ele>
  <time>2011-06-17T04:37:42Z</time>
  <speed>3.020000</speed>
</trkpt>
<trkpt lat="32.743499756" lon="35.052787781">
  <ele>488.400879</ele>
  <time>2011-06-17T04:37:43Z</time>
  <speed>2.600000</speed>
</trkpt>
<trkpt lat="32.743522644" lon="35.052772522">
  <ele>487.627441</ele>
  <time>2011-06-17T04:37:44Z</time>
  <speed>2.760000</speed>
</trkpt>
<trkpt lat="32.743549347" lon="35.052776337">
  <ele>486.854004</ele>
  <time>2011-06-17T04:37:45Z</time>
  <speed>2.550000</speed>
</trkpt>
<trkpt lat="32.743595123" lon="35.052776337">
  <ele>485.361816</ele>
  <time>2011-06-17T04:37:47Z</time>
  <speed>2.960000</speed>
</trkpt>
<trkpt lat="32.743663788" lon="35.052776337">
  <ele>485.385254</ele>
  <time>2011-06-17T04:37:48Z</time>
  <speed>4.580000</speed>
</trkpt>
<trkpt lat="32.743717194" lon="35.052783966">
  <ele>484.791504</ele>
  <time>2011-06-17T04:37:49Z</time>
  <speed>4.990000</speed>
</trkpt>
<trkpt lat="32.743762970" lon="35.052791595">
  <ele>484.135254</ele>
  <time>2011-06-17T04:37:50Z</time>
  <speed>4.770000</speed>
</trkpt>
<trkpt lat="32.743801117" lon="35.052810669">
  <ele>483.924316</ele>
  <time>2011-06-17T04:37:51Z</time>
  <speed>3.490000</speed>
</trkpt>
<trkpt lat="32.743827820" lon="35.052825928">
  <ele>483.588379</ele>
  <time>2011-06-17T04:37:52Z</time>
  <speed>2.940000</speed>
</trkpt>
<trkpt lat="32.743869781" lon="35.052841187">
  <ele>482.869629</ele>
  <time>2011-06-17T04:37:54Z</time>
  <speed>1.430000</speed>
</trkpt>
<trkpt lat="32.743919373" lon="35.052825928">
  <ele>482.033691</ele>
  <time>2011-06-17T04:37:56Z</time>
  <speed>2.790000</speed>
</trkpt>
<trkpt lat="32.743957520" lon="35.052818298">
  <ele>480.400879</ele>
  <time>2011-06-17T04:37:57Z</time>
  <speed>4.260000</speed>
</trkpt>
<trkpt lat="32.744014740" lon="35.052803040">
  <ele>479.682129</ele>
  <time>2011-06-17T04:37:58Z</time>
  <speed>4.660000</speed>
</trkpt>
<trkpt lat="32.744049072" lon="35.052818298">
  <ele>479.166504</ele>
  <time>2011-06-17T04:37:59Z</time>
  <speed>4.180000</speed>
</trkpt>
<trkpt lat="32.744075775" lon="35.052841187">
  <ele>478.611816</ele>
  <time>2011-06-17T04:38:00Z</time>
  <speed>3.040000</speed>
</trkpt>
<trkpt lat="32.744117737" lon="35.052848816">
  <ele>478.846191</ele>
  <time>2011-06-17T04:38:02Z</time>
  <speed>1.160000</speed>
</trkpt>
<trkpt lat="32.744148254" lon="35.052845001">
  <ele>478.072754</ele>
  <time>2011-06-17T04:38:04Z</time>
  <speed>1.560000</speed>
</trkpt>
<trkpt lat="32.744186401" lon="35.052837372">
  <ele>478.119629</ele>
  <time>2011-06-17T04:38:05Z</time>
  <speed>3.500000</speed>
</trkpt>
<trkpt lat="32.744224548" lon="35.052837372">
  <ele>477.752441</ele>
  <time>2011-06-17T04:38:06Z</time>
  <speed>3.760000</speed>
</trkpt>
<trkpt lat="32.744262695" lon="35.052837372">
  <ele>476.650879</ele>
  <time>2011-06-17T04:38:07Z</time>
  <speed>4.090000</speed>
</trkpt>
<trkpt lat="32.744312286" lon="35.052829742">
  <ele>476.479004</ele>
  <time>2011-06-17T04:38:08Z</time>
  <speed>4.510000</speed>
</trkpt>
<trkpt lat="32.744358063" lon="35.052825928">
  <ele>476.244629</ele>
  <time>2011-06-17T04:38:09Z</time>
  <speed>4.730000</speed>
</trkpt>
<trkpt lat="32.744396210" lon="35.052825928">
  <ele>475.541504</ele>
  <time>2011-06-17T04:38:10Z</time>
  <speed>4.130000</speed>
</trkpt>
<trkpt lat="32.744438171" lon="35.052818298">
  <ele>475.799316</ele>
  <time>2011-06-17T04:38:11Z</time>
  <speed>4.030000</speed>
</trkpt>
<trkpt lat="32.744491577" lon="35.052803040">
  <ele>474.346191</ele>
  <time>2011-06-17T04:38:12Z</time>
  <speed>4.240000</speed>
</trkpt>
<trkpt lat="32.744537354" lon="35.052795410">
  <ele>474.057129</ele>
  <time>2011-06-17T04:38:13Z</time>
  <speed>4.350000</speed>
</trkpt>
<trkpt lat="32.744590759" lon="35.052783966">
  <ele>474.049316</ele>
  <time>2011-06-17T04:38:14Z</time>
  <speed>4.690000</speed>
</trkpt>
<trkpt lat="32.744632721" lon="35.052764893">
  <ele>473.518066</ele>
  <time>2011-06-17T04:38:15Z</time>
  <speed>4.200000</speed>
</trkpt>
<trkpt lat="32.744682312" lon="35.052772522">
  <ele>472.354004</ele>
  <time>2011-06-17T04:38:16Z</time>
  <speed>3.490000</speed>
</trkpt>
<trkpt lat="32.744720459" lon="35.052776337">
  <ele>469.760254</ele>
  <time>2011-06-17T04:38:17Z</time>
  <speed>3.660000</speed>
</trkpt>
<trkpt lat="32.744766235" lon="35.052772522">
  <ele>468.135254</ele>
  <time>2011-06-17T04:38:18Z</time>
  <speed>3.470000</speed>
</trkpt>
<trkpt lat="32.744792938" lon="35.052791595">
  <ele>467.346191</ele>
  <time>2011-06-17T04:38:19Z</time>
  <speed>1.960000</speed>
</trkpt>
<trkpt lat="32.744812012" lon="35.052795410">
  <ele>463.611816</ele>
  <time>2011-06-17T04:38:21Z</time>
  <speed>1.530000</speed>
</trkpt>
<trkpt lat="32.744762421" lon="35.052806854">
  <ele>461.072754</ele>
  <time>2011-06-17T04:38:23Z</time>
  <speed>3.340000</speed>
</trkpt>
<trkpt lat="32.744731903" lon="35.052822113">
  <ele>459.869629</ele>
  <time>2011-06-17T04:38:24Z</time>
  <speed>2.950000</speed>
</trkpt>
<trkpt lat="32.744697571" lon="35.052822113">
  <ele>457.979004</ele>
  <time>2011-06-17T04:38:25Z</time>
  <speed>3.260000</speed>
</trkpt>
<trkpt lat="32.744663239" lon="35.052833557">
  <ele>457.104004</ele>
  <time>2011-06-17T04:38:26Z</time>
  <speed>3.530000</speed>
</trkpt>
<trkpt lat="32.744621277" lon="35.052845001">
  <ele>455.713379</ele>
  <time>2011-06-17T04:38:27Z</time>
  <speed>3.820000</speed>
</trkpt>
<trkpt lat="32.744590759" lon="35.052867889">
  <ele>454.729004</ele>
  <time>2011-06-17T04:38:28Z</time>
  <speed>2.990000</speed>
</trkpt>
<trkpt lat="32.744564056" lon="35.052898407">
  <ele>453.955566</ele>
  <time>2011-06-17T04:38:29Z</time>
  <speed>1.860000</speed>
</trkpt>
<trkpt lat="32.744556427" lon="35.052925110">
  <ele>452.760254</ele>
  <time>2011-06-17T04:38:30Z</time>
  <speed>2.020000</speed>
</trkpt>
<trkpt lat="32.744583130" lon="35.052982330">
  <ele>450.963379</ele>
  <time>2011-06-17T04:38:31Z</time>
  <speed>2.750000</speed>
</trkpt>
<trkpt lat="32.744617462" lon="35.053028107">
  <ele>450.143066</ele>
  <time>2011-06-17T04:38:33Z</time>
  <speed>3.460000</speed>
</trkpt>
<trkpt lat="32.744659424" lon="35.053043365">
  <ele>448.924316</ele>
  <time>2011-06-17T04:38:34Z</time>
  <speed>4.820000</speed>
</trkpt>
<trkpt lat="32.744705200" lon="35.053047180">
  <ele>447.861816</ele>
  <time>2011-06-17T04:38:35Z</time>
  <speed>4.580000</speed>
</trkpt>
<trkpt lat="32.744747162" lon="35.053043365">
  <ele>447.135254</ele>
  <time>2011-06-17T04:38:36Z</time>
  <speed>3.710000</speed>
</trkpt>
<trkpt lat="32.744804382" lon="35.053070068">
  <ele>445.260254</ele>
  <time>2011-06-17T04:38:38Z</time>
  <speed>3.240000</speed>
</trkpt>
<trkpt lat="32.744838715" lon="35.053077698">
  <ele>444.643066</ele>
  <time>2011-06-17T04:38:39Z</time>
  <speed>2.360000</speed>
</trkpt>
<trkpt lat="32.744884491" lon="35.053089142">
  <ele>443.283691</ele>
  <time>2011-06-17T04:38:40Z</time>
  <speed>2.900000</speed>
</trkpt>
<trkpt lat="32.744964600" lon="35.053077698">
  <ele>442.994629</ele>
  <time>2011-06-17T04:38:41Z</time>
  <speed>3.710000</speed>
</trkpt>
<trkpt lat="32.744998932" lon="35.053077698">
  <ele>442.541504</ele>
  <time>2011-06-17T04:38:42Z</time>
  <speed>2.640000</speed>
</trkpt>
<trkpt lat="32.745040894" lon="35.053081512">
  <ele>441.713379</ele>
  <time>2011-06-17T04:38:43Z</time>
  <speed>2.980000</speed>
</trkpt>
<trkpt lat="32.745082855" lon="35.053096771">
  <ele>440.533691</ele>
  <time>2011-06-17T04:38:44Z</time>
  <speed>3.490000</speed>
</trkpt>
<trkpt lat="32.745151520" lon="35.053100586">
  <ele>440.189941</ele>
  <time>2011-06-17T04:38:45Z</time>
  <speed>5.230000</speed>
</trkpt>
<trkpt lat="32.745204926" lon="35.053100586">
  <ele>439.182129</ele>
  <time>2011-06-17T04:38:46Z</time>
  <speed>4.430000</speed>
</trkpt>
<trkpt lat="32.745246887" lon="35.053115845">
  <ele>438.268066</ele>
  <time>2011-06-17T04:38:47Z</time>
  <speed>3.720000</speed>
</trkpt>
<trkpt lat="32.745330811" lon="35.053142548">
  <ele>436.799316</ele>
  <time>2011-06-17T04:38:48Z</time>
  <speed>5.460000</speed>
</trkpt>
<trkpt lat="32.745380402" lon="35.053176880">
  <ele>435.541504</ele>
  <time>2011-06-17T04:38:49Z</time>
  <speed>5.520000</speed>
</trkpt>
<trkpt lat="32.745433807" lon="35.053218842">
  <ele>435.643066</ele>
  <time>2011-06-17T04:38:50Z</time>
  <speed>5.970000</speed>
</trkpt>
<trkpt lat="32.745475769" lon="35.053253174">
  <ele>434.830566</ele>
  <time>2011-06-17T04:38:51Z</time>
  <speed>4.220000</speed>
</trkpt>
<trkpt lat="32.745502472" lon="35.053329468">
  <ele>434.635254</ele>
  <time>2011-06-17T04:38:52Z</time>
  <speed>5.440000</speed>
</trkpt>
<trkpt lat="32.745552063" lon="35.053367615">
  <ele>434.158691</ele>
  <time>2011-06-17T04:38:53Z</time>
  <speed>5.140000</speed>
</trkpt>
<trkpt lat="32.745578766" lon="35.053405762">
  <ele>433.229004</ele>
  <time>2011-06-17T04:38:54Z</time>
  <speed>4.000000</speed>
</trkpt>
<trkpt lat="32.745597839" lon="35.053443909">
  <ele>432.775879</ele>
  <time>2011-06-17T04:38:55Z</time>
  <speed>3.450000</speed>
</trkpt>
<trkpt lat="32.745635986" lon="35.053466797">
  <ele>433.158691</ele>
  <time>2011-06-17T04:38:56Z</time>
  <speed>3.750000</speed>
</trkpt>
<trkpt lat="32.745666504" lon="35.053489685">
  <ele>432.127441</ele>
  <time>2011-06-17T04:38:57Z</time>
  <speed>3.500000</speed>
</trkpt>
<trkpt lat="32.745689392" lon="35.053512573">
  <ele>432.838379</ele>
  <time>2011-06-17T04:38:58Z</time>
  <speed>1.300000</speed>
</trkpt>
<trkpt lat="32.745643616" lon="35.053524017">
  <ele>431.197754</ele>
  <time>2011-06-17T04:39:02Z</time>
  <speed>2.720000</speed>
</trkpt>
<trkpt lat="32.745582581" lon="35.053504944">
  <ele>431.439941</ele>
  <time>2011-06-17T04:39:04Z</time>
  <speed>3.710000</speed>
</trkpt>
<trkpt lat="32.745540619" lon="35.053497314">
  <ele>430.705566</ele>
  <time>2011-06-17T04:39:05Z</time>
  <speed>4.350000</speed>
</trkpt>
<trkpt lat="32.745498657" lon="35.053489685">
  <ele>429.932129</ele>
  <time>2011-06-17T04:39:06Z</time>
  <speed>3.640000</speed>
</trkpt>
<trkpt lat="32.745464325" lon="35.053474426">
  <ele>429.682129</ele>
  <time>2011-06-17T04:39:07Z</time>
  <speed>4.150000</speed>
</trkpt>
<trkpt lat="32.745433807" lon="35.053455353">
  <ele>429.064941</ele>
  <time>2011-06-17T04:39:08Z</time>
  <speed>3.200000</speed>
</trkpt>
<trkpt lat="32.745395660" lon="35.053428650">
  <ele>428.010254</ele>
  <time>2011-06-17T04:39:09Z</time>
  <speed>4.630000</speed>
</trkpt>
<trkpt lat="32.745357513" lon="35.053413391">
  <ele>427.549316</ele>
  <time>2011-06-17T04:39:10Z</time>
  <speed>3.780000</speed>
</trkpt>
<trkpt lat="32.745319366" lon="35.053409576">
  <ele>427.330566</ele>
  <time>2011-06-17T04:39:11Z</time>
  <speed>3.280000</speed>
</trkpt>
<trkpt lat="32.745246887" lon="35.053417206">
  <ele>427.736816</ele>
  <time>2011-06-17T04:39:13Z</time>
  <speed>2.790000</speed>
</trkpt>
<trkpt lat="32.745227814" lon="35.053440094">
  <ele>427.119629</ele>
  <time>2011-06-17T04:39:14Z</time>
  <speed>2.450000</speed>
</trkpt>
<trkpt lat="32.745208740" lon="35.053470612">
  <ele>426.377441</ele>
  <time>2011-06-17T04:39:15Z</time>
  <speed>3.250000</speed>
</trkpt>
<trkpt lat="32.745185852" lon="35.053489685">
  <ele>425.807129</ele>
  <time>2011-06-17T04:39:16Z</time>
  <speed>2.820000</speed>
</trkpt>
<trkpt lat="32.745151520" lon="35.053497314">
  <ele>425.369629</ele>
  <time>2011-06-17T04:39:17Z</time>
  <speed>2.750000</speed>
</trkpt>
<trkpt lat="32.745113373" lon="35.053516388">
  <ele>424.479004</ele>
  <time>2011-06-17T04:39:19Z</time>
  <speed>1.340000</speed>
</trkpt>
<trkpt lat="32.745101929" lon="35.053562164">
  <ele>421.877441</ele>
  <time>2011-06-17T04:39:21Z</time>
  <speed>2.450000</speed>
</trkpt>
<trkpt lat="32.745098114" lon="35.053607941">
  <ele>420.963379</ele>
  <time>2011-06-17T04:39:22Z</time>
  <speed>2.910000</speed>
</trkpt>
<trkpt lat="32.745094299" lon="35.053676605">
  <ele>420.885254</ele>
  <time>2011-06-17T04:39:23Z</time>
  <speed>2.680000</speed>
</trkpt>
<trkpt lat="32.745105743" lon="35.053718567">
  <ele>420.807129</ele>
  <time>2011-06-17T04:39:24Z</time>
  <speed>2.730000</speed>
</trkpt>
<trkpt lat="32.745113373" lon="35.053752899">
  <ele>420.729004</ele>
  <time>2011-06-17T04:39:25Z</time>
  <speed>2.880000</speed>
</trkpt>
<trkpt lat="32.745132446" lon="35.053779602">
  <ele>419.322754</ele>
  <time>2011-06-17T04:39:27Z</time>
  <speed>0.160000</speed>
</trkpt>
<trkpt lat="32.745105743" lon="35.053794861">
  <ele>420.299316</ele>
  <time>2011-06-17T04:39:38Z</time>
  <speed>0.640000</speed>
</trkpt>
<trkpt lat="32.745075226" lon="35.053783417">
  <ele>420.018066</ele>
  <time>2011-06-17T04:39:43Z</time>
  <speed>0.680000</speed>
</trkpt>
<trkpt lat="32.745048523" lon="35.053779602">
  <ele>419.846191</ele>
  <time>2011-06-17T04:39:47Z</time>
  <speed>0.680000</speed>
</trkpt>
<trkpt lat="32.745018005" lon="35.053783417">
  <ele>419.635254</ele>
  <time>2011-06-17T04:39:52Z</time>
  <speed>0.610000</speed>
</trkpt>
<trkpt lat="32.744979858" lon="35.053791046">
  <ele>419.705566</ele>
  <time>2011-06-17T04:39:57Z</time>
  <speed>0.770000</speed>
</trkpt>
<trkpt lat="32.744945526" lon="35.053806305">
  <ele>420.689941</ele>
  <time>2011-06-17T04:40:00Z</time>
  <speed>0.680000</speed>
</trkpt>
<trkpt lat="32.744911194" lon="35.053802490">
  <ele>422.322754</ele>
  <time>2011-06-17T04:40:03Z</time>
  <speed>0.770000</speed>
</trkpt>
<trkpt lat="32.744880676" lon="35.053840637">
  <ele>423.205566</ele>
  <time>2011-06-17T04:40:06Z</time>
  <speed>0.870000</speed>
</trkpt>
<trkpt lat="32.744865417" lon="35.053878784">
  <ele>424.236816</ele>
  <time>2011-06-17T04:40:08Z</time>
  <speed>0.850000</speed>
</trkpt>
<trkpt lat="32.744850159" lon="35.053909302">
  <ele>425.299316</ele>
  <time>2011-06-17T04:40:12Z</time>
  <speed>0.820000</speed>
</trkpt>
<trkpt lat="32.744838715" lon="35.053936005">
  <ele>425.939941</ele>
  <time>2011-06-17T04:40:14Z</time>
  <speed>0.970000</speed>
</trkpt>
<trkpt lat="32.744827271" lon="35.053962708">
  <ele>427.588379</ele>
  <time>2011-06-17T04:40:23Z</time>
  <speed>0.610000</speed>
</trkpt>
<trkpt lat="32.744812012" lon="35.054000854">
  <ele>428.549316</ele>
  <time>2011-06-17T04:40:26Z</time>
  <speed>1.220000</speed>
</trkpt>
<trkpt lat="32.744792938" lon="35.054035187">
  <ele>429.416504</ele>
  <time>2011-06-17T04:40:28Z</time>
  <speed>1.510000</speed>
</trkpt>
<trkpt lat="32.744781494" lon="35.054065704">
  <ele>429.322754</ele>
  <time>2011-06-17T04:40:29Z</time>
  <speed>1.810000</speed>
</trkpt>
<trkpt lat="32.744758606" lon="35.054107666">
  <ele>429.674316</ele>
  <time>2011-06-17T04:40:31Z</time>
  <speed>2.170000</speed>
</trkpt>
<trkpt lat="32.744720459" lon="35.054164886">
  <ele>429.432129</ele>
  <time>2011-06-17T04:40:33Z</time>
  <speed>2.640000</speed>
</trkpt>
<trkpt lat="32.744693756" lon="35.054199219">
  <ele>429.143066</ele>
  <time>2011-06-17T04:40:34Z</time>
  <speed>3.580000</speed>
</trkpt>
<trkpt lat="32.744670868" lon="35.054229736">
  <ele>429.096191</ele>
  <time>2011-06-17T04:40:35Z</time>
  <speed>3.500000</speed>
</trkpt>
<trkpt lat="32.744644165" lon="35.054248810">
  <ele>429.088379</ele>
  <time>2011-06-17T04:40:36Z</time>
  <speed>3.580000</speed>
</trkpt>
<trkpt lat="32.744621277" lon="35.054267883">
  <ele>429.119629</ele>
  <time>2011-06-17T04:40:37Z</time>
  <speed>3.090000</speed>
</trkpt>
<trkpt lat="32.744590759" lon="35.054294586">
  <ele>429.307129</ele>
  <time>2011-06-17T04:40:38Z</time>
  <speed>3.460000</speed>
</trkpt>
<trkpt lat="32.744556427" lon="35.054325104">
  <ele>429.736816</ele>
  <time>2011-06-17T04:40:39Z</time>
  <speed>3.570000</speed>
</trkpt>
<trkpt lat="32.744525909" lon="35.054351807">
  <ele>430.143066</ele>
  <time>2011-06-17T04:40:40Z</time>
  <speed>3.280000</speed>
</trkpt>
<trkpt lat="32.744495392" lon="35.054370880">
  <ele>429.838379</ele>
  <time>2011-06-17T04:40:41Z</time>
  <speed>2.570000</speed>
</trkpt>
<trkpt lat="32.744453430" lon="35.054397583">
  <ele>429.580566</ele>
  <time>2011-06-17T04:40:43Z</time>
  <speed>1.940000</speed>
</trkpt>
<trkpt lat="32.744411469" lon="35.054447174">
  <ele>429.143066</ele>
  <time>2011-06-17T04:40:45Z</time>
  <speed>3.130000</speed>
</trkpt>
<trkpt lat="32.744369507" lon="35.054492950">
  <ele>428.471191</ele>
  <time>2011-06-17T04:40:47Z</time>
  <speed>1.550000</speed>
</trkpt>
<trkpt lat="32.744338989" lon="35.054523468">
  <ele>427.791504</ele>
  <time>2011-06-17T04:40:49Z</time>
  <speed>1.210000</speed>
</trkpt>
<trkpt lat="32.744312286" lon="35.054546356">
  <ele>427.580566</ele>
  <time>2011-06-17T04:40:51Z</time>
  <speed>1.550000</speed>
</trkpt>
<trkpt lat="32.744277954" lon="35.054573059">
  <ele>426.908691</ele>
  <time>2011-06-17T04:40:53Z</time>
  <speed>1.460000</speed>
</trkpt>
<trkpt lat="32.744247437" lon="35.054588318">
  <ele>426.658691</ele>
  <time>2011-06-17T04:40:54Z</time>
  <speed>2.000000</speed>
</trkpt>
<trkpt lat="32.744220734" lon="35.054595947">
  <ele>426.674316</ele>
  <time>2011-06-17T04:40:55Z</time>
  <speed>2.190000</speed>
</trkpt>
<trkpt lat="32.744194031" lon="35.054611206">
  <ele>427.486816</ele>
  <time>2011-06-17T04:40:56Z</time>
  <speed>2.210000</speed>
</trkpt>
<trkpt lat="32.744167328" lon="35.054622650">
  <ele>428.307129</ele>
  <time>2011-06-17T04:40:57Z</time>
  <speed>1.510000</speed>
</trkpt>
<trkpt lat="32.744140625" lon="35.054649353">
  <ele>429.416504</ele>
  <time>2011-06-17T04:40:59Z</time>
  <speed>1.820000</speed>
</trkpt>
<trkpt lat="32.744121552" lon="35.054683685">
  <ele>429.049316</ele>
  <time>2011-06-17T04:41:01Z</time>
  <speed>1.790000</speed>
</trkpt>
<trkpt lat="32.744094849" lon="35.054714203">
  <ele>428.869629</ele>
  <time>2011-06-17T04:41:03Z</time>
  <speed>1.860000</speed>
</trkpt>
<trkpt lat="32.744071960" lon="35.054744720">
  <ele>428.736816</ele>
  <time>2011-06-17T04:41:04Z</time>
  <speed>3.220000</speed>
</trkpt>
<trkpt lat="32.744045258" lon="35.054759979">
  <ele>429.033691</ele>
  <time>2011-06-17T04:41:05Z</time>
  <speed>2.310000</speed>
</trkpt>
<trkpt lat="32.744018555" lon="35.054775238">
  <ele>429.924316</ele>
  <time>2011-06-17T04:41:06Z</time>
  <speed>2.070000</speed>
</trkpt>
<trkpt lat="32.743988037" lon="35.054786682">
  <ele>429.854004</ele>
  <time>2011-06-17T04:41:08Z</time>
  <speed>1.470000</speed>
</trkpt>
<trkpt lat="32.743961334" lon="35.054813385">
  <ele>429.979004</ele>
  <time>2011-06-17T04:41:11Z</time>
  <speed>1.660000</speed>
</trkpt>
<trkpt lat="32.743927002" lon="35.054824829">
  <ele>430.322754</ele>
  <time>2011-06-17T04:41:13Z</time>
  <speed>1.270000</speed>
</trkpt>
<trkpt lat="32.743888855" lon="35.054866791">
  <ele>430.939941</ele>
  <time>2011-06-17T04:41:15Z</time>
  <speed>2.070000</speed>
</trkpt>
<trkpt lat="32.743846893" lon="35.054904938">
  <ele>431.119629</ele>
  <time>2011-06-17T04:41:17Z</time>
  <speed>2.540000</speed>
</trkpt>
<trkpt lat="32.743835449" lon="35.054931641">
  <ele>430.689941</ele>
  <time>2011-06-17T04:41:18Z</time>
  <speed>1.990000</speed>
</trkpt>
<trkpt lat="32.743793488" lon="35.054965973">
  <ele>430.588379</ele>
  <time>2011-06-17T04:41:20Z</time>
  <speed>2.280000</speed>
</trkpt>
<trkpt lat="32.743759155" lon="35.055000305">
  <ele>431.033691</ele>
  <time>2011-06-17T04:41:22Z</time>
  <speed>1.580000</speed>
</trkpt>
<trkpt lat="32.743721008" lon="35.055023193">
  <ele>431.197754</ele>
  <time>2011-06-17T04:41:24Z</time>
  <speed>2.270000</speed>
</trkpt>
<trkpt lat="32.743682861" lon="35.055046082">
  <ele>431.322754</ele>
  <time>2011-06-17T04:41:26Z</time>
  <speed>2.130000</speed>
</trkpt>
<trkpt lat="32.743644714" lon="35.055072784">
  <ele>431.791504</ele>
  <time>2011-06-17T04:41:28Z</time>
  <speed>2.330000</speed>
</trkpt>
<trkpt lat="32.743610382" lon="35.055099487">
  <ele>432.744629</ele>
  <time>2011-06-17T04:41:30Z</time>
  <speed>2.090000</speed>
</trkpt>
<trkpt lat="32.743576050" lon="35.055122375">
  <ele>433.189941</ele>
  <time>2011-06-17T04:41:32Z</time>
  <speed>1.450000</speed>
</trkpt>
<trkpt lat="32.743541718" lon="35.055152893">
  <ele>433.010254</ele>
  <time>2011-06-17T04:41:34Z</time>
  <speed>2.040000</speed>
</trkpt>
<trkpt lat="32.743511200" lon="35.055175781">
  <ele>432.588379</ele>
  <time>2011-06-17T04:41:36Z</time>
  <speed>1.620000</speed>
</trkpt>
<trkpt lat="32.743473053" lon="35.055198669">
  <ele>431.502441</ele>
  <time>2011-06-17T04:41:38Z</time>
  <speed>1.940000</speed>
</trkpt>
<trkpt lat="32.743427277" lon="35.055225372">
  <ele>431.307129</ele>
  <time>2011-06-17T04:41:40Z</time>
  <speed>2.570000</speed>
</trkpt>
<trkpt lat="32.743404388" lon="35.055248260">
  <ele>431.158691</ele>
  <time>2011-06-17T04:41:41Z</time>
  <speed>2.520000</speed>
</trkpt>
<trkpt lat="32.743381500" lon="35.055271149">
  <ele>430.775879</ele>
  <time>2011-06-17T04:41:42Z</time>
  <speed>2.300000</speed>
</trkpt>
<trkpt lat="32.743354797" lon="35.055294037">
  <ele>430.830566</ele>
  <time>2011-06-17T04:41:43Z</time>
  <speed>3.980000</speed>
</trkpt>
<trkpt lat="32.743316650" lon="35.055332184">
  <ele>430.885254</ele>
  <time>2011-06-17T04:41:44Z</time>
  <speed>4.520000</speed>
</trkpt>
<trkpt lat="32.743278503" lon="35.055366516">
  <ele>430.502441</ele>
  <time>2011-06-17T04:41:45Z</time>
  <speed>4.690000</speed>
</trkpt>
<trkpt lat="32.743236542" lon="35.055389404">
  <ele>430.721191</ele>
  <time>2011-06-17T04:41:46Z</time>
  <speed>3.730000</speed>
</trkpt>
<trkpt lat="32.743206024" lon="35.055397034">
  <ele>430.674316</ele>
  <time>2011-06-17T04:41:47Z</time>
  <speed>2.780000</speed>
</trkpt>
<trkpt lat="32.743160248" lon="35.055397034">
  <ele>431.354004</ele>
  <time>2011-06-17T04:41:49Z</time>
  <speed>1.950000</speed>
</trkpt>
<trkpt lat="32.743129730" lon="35.055400848">
  <ele>431.439941</ele>
  <time>2011-06-17T04:41:51Z</time>
  <speed>0.890000</speed>
</trkpt>
<trkpt lat="32.743156433" lon="35.055389404">
  <ele>432.971191</ele>
  <time>2011-06-17T04:41:56Z</time>
  <speed>1.640000</speed>
</trkpt>
<trkpt lat="32.743171692" lon="35.055362701">
  <ele>434.830566</ele>
  <time>2011-06-17T04:41:58Z</time>
  <speed>1.620000</speed>
</trkpt>
<trkpt lat="32.743190765" lon="35.055328369">
  <ele>435.689941</ele>
  <time>2011-06-17T04:42:00Z</time>
  <speed>1.580000</speed>
</trkpt>
<trkpt lat="32.743209839" lon="35.055290222">
  <ele>436.322754</ele>
  <time>2011-06-17T04:42:02Z</time>
  <speed>1.210000</speed>
</trkpt>
<trkpt lat="32.743228912" lon="35.055267334">
  <ele>437.268066</ele>
  <time>2011-06-17T04:42:04Z</time>
  <speed>1.620000</speed>
</trkpt>
<trkpt lat="32.743244171" lon="35.055244446">
  <ele>440.143066</ele>
  <time>2011-06-17T04:42:07Z</time>
  <speed>1.220000</speed>
</trkpt>
<trkpt lat="32.743282318" lon="35.055225372">
  <ele>441.549316</ele>
  <time>2011-06-17T04:42:09Z</time>
  <speed>1.250000</speed>
</trkpt>
<trkpt lat="32.743301392" lon="35.055198669">
  <ele>442.861816</ele>
  <time>2011-06-17T04:42:11Z</time>
  <speed>1.220000</speed>
</trkpt>
<trkpt lat="32.743312836" lon="35.055171967">
  <ele>444.447754</ele>
  <time>2011-06-17T04:42:13Z</time>
  <speed>0.820000</speed>
</trkpt>
<trkpt lat="32.743335724" lon="35.055156708">
  <ele>446.955566</ele>
  <time>2011-06-17T04:42:16Z</time>
  <speed>1.620000</speed>
</trkpt>
<trkpt lat="32.743370056" lon="35.055137634">
  <ele>446.666504</ele>
  <time>2011-06-17T04:42:18Z</time>
  <speed>1.190000</speed>
</trkpt>
<trkpt lat="32.743385315" lon="35.055107117">
  <ele>448.150879</ele>
  <time>2011-06-17T04:42:21Z</time>
  <speed>1.080000</speed>
</trkpt>
<trkpt lat="32.743423462" lon="35.055080414">
  <ele>449.432129</ele>
  <time>2011-06-17T04:42:23Z</time>
  <speed>1.730000</speed>
</trkpt>
<trkpt lat="32.743446350" lon="35.055061340">
  <ele>450.510254</ele>
  <time>2011-06-17T04:42:25Z</time>
  <speed>1.450000</speed>
</trkpt>
<trkpt lat="32.743465424" lon="35.055027008">
  <ele>451.994629</ele>
  <time>2011-06-17T04:42:28Z</time>
  <speed>1.330000</speed>
</trkpt>
<trkpt lat="32.743484497" lon="35.054996490">
  <ele>453.713379</ele>
  <time>2011-06-17T04:42:31Z</time>
  <speed>1.360000</speed>
</trkpt>
<trkpt lat="32.743507385" lon="35.054965973">
  <ele>455.494629</ele>
  <time>2011-06-17T04:42:34Z</time>
  <speed>1.670000</speed>
</trkpt>
<trkpt lat="32.743518829" lon="35.054916382">
  <ele>456.971191</ele>
  <time>2011-06-17T04:42:37Z</time>
  <speed>1.120000</speed>
</trkpt>
<trkpt lat="32.743553162" lon="35.054901123">
  <ele>458.088379</ele>
  <time>2011-06-17T04:42:39Z</time>
  <speed>1.400000</speed>
</trkpt>
<trkpt lat="32.743572235" lon="35.054866791">
  <ele>459.236816</ele>
  <time>2011-06-17T04:42:41Z</time>
  <speed>1.270000</speed>
</trkpt>
<trkpt lat="32.743602753" lon="35.054836273">
  <ele>460.057129</ele>
  <time>2011-06-17T04:42:44Z</time>
  <speed>1.430000</speed>
</trkpt>
<trkpt lat="32.743618011" lon="35.054798126">
  <ele>461.400879</ele>
  <time>2011-06-17T04:42:47Z</time>
  <speed>1.230000</speed>
</trkpt>
<trkpt lat="32.743644714" lon="35.054767609">
  <ele>462.572754</ele>
  <time>2011-06-17T04:42:50Z</time>
  <speed>1.470000</speed>
</trkpt>
<trkpt lat="32.743671417" lon="35.054756165">
  <ele>463.775879</ele>
  <time>2011-06-17T04:42:52Z</time>
  <speed>1.290000</speed>
</trkpt>
<trkpt lat="32.743694305" lon="35.054740906">
  <ele>465.393066</ele>
  <time>2011-06-17T04:42:54Z</time>
  <speed>1.280000</speed>
</trkpt>
<trkpt lat="32.743701935" lon="35.054710388">
  <ele>466.346191</ele>
  <time>2011-06-17T04:42:56Z</time>
  <speed>1.620000</speed>
</trkpt>
<trkpt lat="32.743724823" lon="35.054683685">
  <ele>467.033691</ele>
  <time>2011-06-17T04:42:58Z</time>
  <speed>1.070000</speed>
</trkpt>
<trkpt lat="32.743743896" lon="35.054649353">
  <ele>468.830566</ele>
  <time>2011-06-17T04:43:01Z</time>
  <speed>1.180000</speed>
</trkpt>
<trkpt lat="32.743778229" lon="35.054615021">
  <ele>469.799316</ele>
  <time>2011-06-17T04:43:03Z</time>
  <speed>1.490000</speed>
</trkpt>
<trkpt lat="32.743801117" lon="35.054573059">
  <ele>470.854004</ele>
  <time>2011-06-17T04:43:05Z</time>
  <speed>1.550000</speed>
</trkpt>
<trkpt lat="32.743816376" lon="35.054538727">
  <ele>471.518066</ele>
  <time>2011-06-17T04:43:07Z</time>
  <speed>1.440000</speed>
</trkpt>
<trkpt lat="32.743839264" lon="35.054512024">
  <ele>472.314941</ele>
  <time>2011-06-17T04:43:09Z</time>
  <speed>1.640000</speed>
</trkpt>
<trkpt lat="32.743862152" lon="35.054481506">
  <ele>472.752441</ele>
  <time>2011-06-17T04:43:11Z</time>
  <speed>1.720000</speed>
</trkpt>
<trkpt lat="32.743881226" lon="35.054454803">
  <ele>472.814941</ele>
  <time>2011-06-17T04:43:13Z</time>
  <speed>1.640000</speed>
</trkpt>
<trkpt lat="32.743896484" lon="35.054420471">
  <ele>472.627441</ele>
  <time>2011-06-17T04:43:16Z</time>
  <speed>1.330000</speed>
</trkpt>
<trkpt lat="32.743915558" lon="35.054378510">
  <ele>473.650879</ele>
  <time>2011-06-17T04:43:19Z</time>
  <speed>1.610000</speed>
</trkpt>
<trkpt lat="32.743927002" lon="35.054347992">
  <ele>473.682129</ele>
  <time>2011-06-17T04:43:21Z</time>
  <speed>1.490000</speed>
</trkpt>
<trkpt lat="32.743938446" lon="35.054298401">
  <ele>472.979004</ele>
  <time>2011-06-17T04:43:24Z</time>
  <speed>1.300000</speed>
</trkpt>
<trkpt lat="32.743946075" lon="35.054264069">
  <ele>472.986816</ele>
  <time>2011-06-17T04:43:26Z</time>
  <speed>1.460000</speed>
</trkpt>
<trkpt lat="32.743953705" lon="35.054218292">
  <ele>473.502441</ele>
  <time>2011-06-17T04:43:28Z</time>
  <speed>1.240000</speed>
</trkpt>
<trkpt lat="32.743972778" lon="35.054176331">
  <ele>473.580566</ele>
  <time>2011-06-17T04:43:31Z</time>
  <speed>1.530000</speed>
</trkpt>
<trkpt lat="32.743980408" lon="35.054141998">
  <ele>473.861816</ele>
  <time>2011-06-17T04:43:33Z</time>
  <speed>1.520000</speed>
</trkpt>
<trkpt lat="32.743988037" lon="35.054103851">
  <ele>474.096191</ele>
  <time>2011-06-17T04:43:35Z</time>
  <speed>1.880000</speed>
</trkpt>
<trkpt lat="32.744007111" lon="35.054077148">
  <ele>473.846191</ele>
  <time>2011-06-17T04:43:37Z</time>
  <speed>1.500000</speed>
</trkpt>
<trkpt lat="32.744026184" lon="35.054050446">
  <ele>473.963379</ele>
  <time>2011-06-17T04:43:39Z</time>
  <speed>1.680000</speed>
</trkpt>
<trkpt lat="32.744041443" lon="35.054016113">
  <ele>474.252441</ele>
  <time>2011-06-17T04:43:41Z</time>
  <speed>1.910000</speed>
</trkpt>
<trkpt lat="32.744052887" lon="35.053977966">
  <ele>475.221191</ele>
  <time>2011-06-17T04:43:43Z</time>
  <speed>1.930000</speed>
</trkpt>
<trkpt lat="32.744079590" lon="35.053928375">
  <ele>475.439941</ele>
  <time>2011-06-17T04:43:45Z</time>
  <speed>2.090000</speed>
</trkpt>
<trkpt lat="32.744102478" lon="35.053886414">
  <ele>475.502441</ele>
  <time>2011-06-17T04:43:47Z</time>
  <speed>2.020000</speed>
</trkpt>
<trkpt lat="32.744113922" lon="35.053848267">
  <ele>475.611816</ele>
  <time>2011-06-17T04:43:49Z</time>
  <speed>1.900000</speed>
</trkpt>
<trkpt lat="32.744121552" lon="35.053810120">
  <ele>475.307129</ele>
  <time>2011-06-17T04:43:51Z</time>
  <speed>1.890000</speed>
</trkpt>
<trkpt lat="32.744129181" lon="35.053768158">
  <ele>475.072754</ele>
  <time>2011-06-17T04:43:54Z</time>
  <speed>1.610000</speed>
</trkpt>
<trkpt lat="32.744140625" lon="35.053730011">
  <ele>475.502441</ele>
  <time>2011-06-17T04:43:56Z</time>
  <speed>1.710000</speed>
</trkpt>
<trkpt lat="32.744148254" lon="35.053688049">
  <ele>475.916504</ele>
  <time>2011-06-17T04:43:58Z</time>
  <speed>1.340000</speed>
</trkpt>
<trkpt lat="32.744148254" lon="35.053653717">
  <ele>476.494629</ele>
  <time>2011-06-17T04:44:00Z</time>
  <speed>1.740000</speed>
</trkpt>
<trkpt lat="32.744148254" lon="35.053600311">
  <ele>476.674316</ele>
  <time>2011-06-17T04:44:03Z</time>
  <speed>1.600000</speed>
</trkpt>
<trkpt lat="32.744140625" lon="35.053558350">
  <ele>476.846191</ele>
  <time>2011-06-17T04:44:05Z</time>
  <speed>1.060000</speed>
</trkpt>
<trkpt lat="32.744140625" lon="35.053527832">
  <ele>476.877441</ele>
  <time>2011-06-17T04:44:07Z</time>
  <speed>1.420000</speed>
</trkpt>
<trkpt lat="32.744144440" lon="35.053493500">
  <ele>477.072754</ele>
  <time>2011-06-17T04:44:09Z</time>
  <speed>1.520000</speed>
</trkpt>
<trkpt lat="32.744140625" lon="35.053447723">
  <ele>477.479004</ele>
  <time>2011-06-17T04:44:12Z</time>
  <speed>1.220000</speed>
</trkpt>
<trkpt lat="32.744136810" lon="35.053413391">
  <ele>477.424316</ele>
  <time>2011-06-17T04:44:14Z</time>
  <speed>1.460000</speed>
</trkpt>
<trkpt lat="32.744125366" lon="35.053367615">
  <ele>478.018066</ele>
  <time>2011-06-17T04:44:16Z</time>
  <speed>1.490000</speed>
</trkpt>
<trkpt lat="32.744140625" lon="35.053329468">
  <ele>478.455566</ele>
  <time>2011-06-17T04:44:18Z</time>
  <speed>1.740000</speed>
</trkpt>
<trkpt lat="32.744144440" lon="35.053291321">
  <ele>478.994629</ele>
  <time>2011-06-17T04:44:20Z</time>
  <speed>1.750000</speed>
</trkpt>
<trkpt lat="32.744136810" lon="35.053253174">
  <ele>478.932129</ele>
  <time>2011-06-17T04:44:22Z</time>
  <speed>1.700000</speed>
</trkpt>
<trkpt lat="32.744132996" lon="35.053215027">
  <ele>479.346191</ele>
  <time>2011-06-17T04:44:24Z</time>
  <speed>1.600000</speed>
</trkpt>
<trkpt lat="32.744129181" lon="35.053169250">
  <ele>479.080566</ele>
  <time>2011-06-17T04:44:26Z</time>
  <speed>1.450000</speed>
</trkpt>
<trkpt lat="32.744117737" lon="35.053123474">
  <ele>478.900879</ele>
  <time>2011-06-17T04:44:29Z</time>
  <speed>1.690000</speed>
</trkpt>
<trkpt lat="32.744113922" lon="35.053089142">
  <ele>478.643066</ele>
  <time>2011-06-17T04:44:31Z</time>
  <speed>1.410000</speed>
</trkpt>
<trkpt lat="32.744110107" lon="35.053054810">
  <ele>478.861816</ele>
  <time>2011-06-17T04:44:33Z</time>
  <speed>1.790000</speed>
</trkpt>
<trkpt lat="32.744106293" lon="35.053016663">
  <ele>478.658691</ele>
  <time>2011-06-17T04:44:35Z</time>
  <speed>1.260000</speed>
</trkpt>
<trkpt lat="32.744110107" lon="35.052982330">
  <ele>479.736816</ele>
  <time>2011-06-17T04:44:37Z</time>
  <speed>1.520000</speed>
</trkpt>
<trkpt lat="32.744102478" lon="35.052940369">
  <ele>480.369629</ele>
  <time>2011-06-17T04:44:40Z</time>
  <speed>1.550000</speed>
</trkpt>
<trkpt lat="32.744106293" lon="35.052906036">
  <ele>481.236816</ele>
  <time>2011-06-17T04:44:42Z</time>
  <speed>1.390000</speed>
</trkpt>
<trkpt lat="32.744106293" lon="35.052867889">
  <ele>481.299316</ele>
  <time>2011-06-17T04:44:44Z</time>
  <speed>1.660000</speed>
</trkpt>
<trkpt lat="32.744102478" lon="35.052829742">
  <ele>481.268066</ele>
  <time>2011-06-17T04:44:46Z</time>
  <speed>1.660000</speed>
</trkpt>
<trkpt lat="32.744094849" lon="35.052795410">
  <ele>481.439941</ele>
  <time>2011-06-17T04:44:48Z</time>
  <speed>1.390000</speed>
</trkpt>
<trkpt lat="32.744087219" lon="35.052764893">
  <ele>481.275879</ele>
  <time>2011-06-17T04:44:50Z</time>
  <speed>1.490000</speed>
</trkpt>
<trkpt lat="32.744087219" lon="35.052722931">
  <ele>481.533691</ele>
  <time>2011-06-17T04:44:52Z</time>
  <speed>1.630000</speed>
</trkpt>
<trkpt lat="32.744079590" lon="35.052688599">
  <ele>482.283691</ele>
  <time>2011-06-17T04:44:54Z</time>
  <speed>1.470000</speed>
</trkpt>
<trkpt lat="32.744056702" lon="35.052661896">
  <ele>482.096191</ele>
  <time>2011-06-17T04:44:56Z</time>
  <speed>1.350000</speed>
</trkpt>
<trkpt lat="32.744029999" lon="35.052631378">
  <ele>481.721191</ele>
  <time>2011-06-17T04:44:58Z</time>
  <speed>1.770000</speed>
</trkpt>
<trkpt lat="32.744007111" lon="35.052593231">
  <ele>481.260254</ele>
  <time>2011-06-17T04:45:00Z</time>
  <speed>1.420000</speed>
</trkpt>
<trkpt lat="32.743976593" lon="35.052581787">
  <ele>480.408691</ele>
  <time>2011-06-17T04:45:02Z</time>
  <speed>1.570000</speed>
</trkpt>
<trkpt lat="32.743946075" lon="35.052566528">
  <ele>479.666504</ele>
  <time>2011-06-17T04:45:04Z</time>
  <speed>1.590000</speed>
</trkpt>
<trkpt lat="32.743911743" lon="35.052558899">
  <ele>478.994629</ele>
  <time>2011-06-17T04:45:06Z</time>
  <speed>1.830000</speed>
</trkpt>
<trkpt lat="32.743877411" lon="35.052566528">
  <ele>478.041504</ele>
  <time>2011-06-17T04:45:08Z</time>
  <speed>1.550000</speed>
</trkpt>
<trkpt lat="32.743846893" lon="35.052551270">
  <ele>477.814941</ele>
  <time>2011-06-17T04:45:11Z</time>
  <speed>1.280000</speed>
</trkpt>
<trkpt lat="32.743812561" lon="35.052551270">
  <ele>477.939941</ele>
  <time>2011-06-17T04:45:13Z</time>
  <speed>1.560000</speed>
</trkpt>
<trkpt lat="32.743778229" lon="35.052555084">
  <ele>478.354004</ele>
  <time>2011-06-17T04:45:15Z</time>
  <speed>1.760000</speed>
</trkpt>
<trkpt lat="32.743743896" lon="35.052539825">
  <ele>478.666504</ele>
  <time>2011-06-17T04:45:17Z</time>
  <speed>1.680000</speed>
</trkpt>
<trkpt lat="32.743717194" lon="35.052539825">
  <ele>478.549316</ele>
  <time>2011-06-17T04:45:19Z</time>
  <speed>1.680000</speed>
</trkpt>
<trkpt lat="32.743694305" lon="35.052524567">
  <ele>478.775879</ele>
  <time>2011-06-17T04:45:21Z</time>
  <speed>1.700000</speed>
</trkpt>
<trkpt lat="32.743659973" lon="35.052516937">
  <ele>478.619629</ele>
  <time>2011-06-17T04:45:23Z</time>
  <speed>1.600000</speed>
</trkpt>
<trkpt lat="32.743629456" lon="35.052509308">
  <ele>478.494629</ele>
  <time>2011-06-17T04:45:25Z</time>
  <speed>1.830000</speed>
</trkpt>
<trkpt lat="32.743598938" lon="35.052486420">
  <ele>479.619629</ele>
  <time>2011-06-17T04:45:27Z</time>
  <speed>1.680000</speed>
</trkpt>
<trkpt lat="32.743572235" lon="35.052490234">
  <ele>479.861816</ele>
  <time>2011-06-17T04:45:29Z</time>
  <speed>1.960000</speed>
</trkpt>
<trkpt lat="32.743545532" lon="35.052478790">
  <ele>480.189941</ele>
  <time>2011-06-17T04:45:31Z</time>
  <speed>1.160000</speed>
</trkpt>
<trkpt lat="32.743518829" lon="35.052482605">
  <ele>480.283691</ele>
  <time>2011-06-17T04:45:33Z</time>
  <speed>1.290000</speed>
</trkpt>
<trkpt lat="32.743488312" lon="35.052478790">
  <ele>480.064941</ele>
  <time>2011-06-17T04:45:35Z</time>
  <speed>1.380000</speed>
</trkpt>
<trkpt lat="32.743446350" lon="35.052501678">
  <ele>480.549316</ele>
  <time>2011-06-17T04:45:38Z</time>
  <speed>1.770000</speed>
</trkpt>
<trkpt lat="32.743412018" lon="35.052509308">
  <ele>479.979004</ele>
  <time>2011-06-17T04:45:40Z</time>
  <speed>1.430000</speed>
</trkpt>
<trkpt lat="32.743381500" lon="35.052509308">
  <ele>479.666504</ele>
  <time>2011-06-17T04:45:42Z</time>
  <speed>1.490000</speed>
</trkpt>
<trkpt lat="32.743343353" lon="35.052516937">
  <ele>479.119629</ele>
  <time>2011-06-17T04:45:44Z</time>
  <speed>1.620000</speed>
</trkpt>
<trkpt lat="32.743309021" lon="35.052513123">
  <ele>479.104004</ele>
  <time>2011-06-17T04:45:46Z</time>
  <speed>1.460000</speed>
</trkpt>
<trkpt lat="32.743267059" lon="35.052513123">
  <ele>478.674316</ele>
  <time>2011-06-17T04:45:48Z</time>
  <speed>1.380000</speed>
</trkpt>
<trkpt lat="32.743228912" lon="35.052520752">
  <ele>478.236816</ele>
  <time>2011-06-17T04:45:51Z</time>
  <speed>1.250000</speed>
</trkpt>
<trkpt lat="32.743198395" lon="35.052524567">
  <ele>478.088379</ele>
  <time>2011-06-17T04:45:53Z</time>
  <speed>1.340000</speed>
</trkpt>
<trkpt lat="32.743167877" lon="35.052532196">
  <ele>477.729004</ele>
  <time>2011-06-17T04:45:55Z</time>
  <speed>1.320000</speed>
</trkpt>
<trkpt lat="32.743141174" lon="35.052547455">
  <ele>477.229004</ele>
  <time>2011-06-17T04:45:57Z</time>
  <speed>1.380000</speed>
</trkpt>
<trkpt lat="32.743095398" lon="35.052516937">
  <ele>477.572754</ele>
  <time>2011-06-17T04:46:00Z</time>
  <speed>1.480000</speed>
</trkpt>
<trkpt lat="32.743064880" lon="35.052520752">
  <ele>477.721191</ele>
  <time>2011-06-17T04:46:02Z</time>
  <speed>1.480000</speed>
</trkpt>
<trkpt lat="32.743019104" lon="35.052509308">
  <ele>477.697754</ele>
  <time>2011-06-17T04:46:05Z</time>
  <speed>1.680000</speed>
</trkpt>
<trkpt lat="32.742984772" lon="35.052513123">
  <ele>477.439941</ele>
  <time>2011-06-17T04:46:07Z</time>
  <speed>1.460000</speed>
</trkpt>
<trkpt lat="32.742954254" lon="35.052524567">
  <ele>477.064941</ele>
  <time>2011-06-17T04:46:09Z</time>
  <speed>1.240000</speed>
</trkpt>
<trkpt lat="32.742927551" lon="35.052524567">
  <ele>476.682129</ele>
  <time>2011-06-17T04:46:11Z</time>
  <speed>1.470000</speed>
</trkpt>
<trkpt lat="32.742897034" lon="35.052528381">
  <ele>476.557129</ele>
  <time>2011-06-17T04:46:13Z</time>
  <speed>1.520000</speed>
</trkpt>
<trkpt lat="32.742862701" lon="35.052543640">
  <ele>476.580566</ele>
  <time>2011-06-17T04:46:16Z</time>
  <speed>1.410000</speed>
</trkpt>
<trkpt lat="32.742832184" lon="35.052539825">
  <ele>475.854004</ele>
  <time>2011-06-17T04:46:18Z</time>
  <speed>1.490000</speed>
</trkpt>
<trkpt lat="32.742801666" lon="35.052536011">
  <ele>475.486816</ele>
  <time>2011-06-17T04:46:20Z</time>
  <speed>1.540000</speed>
</trkpt>
<trkpt lat="32.742771149" lon="35.052520752">
  <ele>475.768066</ele>
  <time>2011-06-17T04:46:22Z</time>
  <speed>1.380000</speed>
</trkpt>
<trkpt lat="32.742736816" lon="35.052524567">
  <ele>475.869629</ele>
  <time>2011-06-17T04:46:25Z</time>
  <speed>1.350000</speed>
</trkpt>
<trkpt lat="32.742694855" lon="35.052524567">
  <ele>476.643066</ele>
  <time>2011-06-17T04:46:28Z</time>
  <speed>1.560000</speed>
</trkpt>
<trkpt lat="32.742652893" lon="35.052528381">
  <ele>477.025879</ele>
  <time>2011-06-17T04:46:31Z</time>
  <speed>1.340000</speed>
</trkpt>
<trkpt lat="32.742622375" lon="35.052516937">
  <ele>477.900879</ele>
  <time>2011-06-17T04:46:33Z</time>
  <speed>1.590000</speed>
</trkpt>
<trkpt lat="32.742584229" lon="35.052520752">
  <ele>478.939941</ele>
  <time>2011-06-17T04:46:35Z</time>
  <speed>1.610000</speed>
</trkpt>
<trkpt lat="32.742553711" lon="35.052528381">
  <ele>479.572754</ele>
  <time>2011-06-17T04:46:37Z</time>
  <speed>1.310000</speed>
</trkpt>
<trkpt lat="32.742519379" lon="35.052524567">
  <ele>480.182129</ele>
  <time>2011-06-17T04:46:39Z</time>
  <speed>1.660000</speed>
</trkpt>
<trkpt lat="32.742488861" lon="35.052532196">
  <ele>480.510254</ele>
  <time>2011-06-17T04:46:41Z</time>
  <speed>1.440000</speed>
</trkpt>
<trkpt lat="32.742458344" lon="35.052532196">
  <ele>481.150879</ele>
  <time>2011-06-17T04:46:43Z</time>
  <speed>1.530000</speed>
</trkpt>
<trkpt lat="32.742431641" lon="35.052520752">
  <ele>481.447754</ele>
  <time>2011-06-17T04:46:45Z</time>
  <speed>1.460000</speed>
</trkpt>
<trkpt lat="32.742404938" lon="35.052509308">
  <ele>481.635254</ele>
  <time>2011-06-17T04:46:48Z</time>
  <speed>1.500000</speed>
</trkpt>
<trkpt lat="32.742370605" lon="35.052497864">
  <ele>481.947754</ele>
  <time>2011-06-17T04:46:51Z</time>
  <speed>1.650000</speed>
</trkpt>
<trkpt lat="32.742340088" lon="35.052501678">
  <ele>482.111816</ele>
  <time>2011-06-17T04:46:53Z</time>
  <speed>1.630000</speed>
</trkpt>
<trkpt lat="32.742317200" lon="35.052478790">
  <ele>482.549316</ele>
  <time>2011-06-17T04:46:55Z</time>
  <speed>1.270000</speed>
</trkpt>
<trkpt lat="32.742301941" lon="35.052452087">
  <ele>484.252441</ele>
  <time>2011-06-17T04:46:57Z</time>
  <speed>1.450000</speed>
</trkpt>
<trkpt lat="32.742275238" lon="35.052440643">
  <ele>484.393066</ele>
  <time>2011-06-17T04:46:59Z</time>
  <speed>1.540000</speed>
</trkpt>
<trkpt lat="32.742244720" lon="35.052433014">
  <ele>484.885254</ele>
  <time>2011-06-17T04:47:01Z</time>
  <speed>1.080000</speed>
</trkpt>
<trkpt lat="32.742218018" lon="35.052429199">
  <ele>485.221191</ele>
  <time>2011-06-17T04:47:03Z</time>
  <speed>0.940000</speed>
</trkpt>
<trkpt lat="32.742187500" lon="35.052406311">
  <ele>486.221191</ele>
  <time>2011-06-17T04:47:06Z</time>
  <speed>1.050000</speed>
</trkpt>
<trkpt lat="32.742160797" lon="35.052391052">
  <ele>486.166504</ele>
  <time>2011-06-17T04:47:08Z</time>
  <speed>1.360000</speed>
</trkpt>
<trkpt lat="32.742137909" lon="35.052371979">
  <ele>486.549316</ele>
  <time>2011-06-17T04:47:10Z</time>
  <speed>1.480000</speed>
</trkpt>
<trkpt lat="32.742118835" lon="35.052341461">
  <ele>487.479004</ele>
  <time>2011-06-17T04:47:13Z</time>
  <speed>0.760000</speed>
</trkpt>
<trkpt lat="32.742095947" lon="35.052322388">
  <ele>487.994629</ele>
  <time>2011-06-17T04:47:15Z</time>
  <speed>1.130000</speed>
</trkpt>
<trkpt lat="32.742065430" lon="35.052314758">
  <ele>487.705566</ele>
  <time>2011-06-17T04:47:17Z</time>
  <speed>1.280000</speed>
</trkpt>
<trkpt lat="32.742050171" lon="35.052272797">
  <ele>488.596191</ele>
  <time>2011-06-17T04:47:20Z</time>
  <speed>1.290000</speed>
</trkpt>
<trkpt lat="32.742038727" lon="35.052234650">
  <ele>489.619629</ele>
  <time>2011-06-17T04:47:22Z</time>
  <speed>1.470000</speed>
</trkpt>
<trkpt lat="32.742042542" lon="35.052200317">
  <ele>492.400879</ele>
  <time>2011-06-17T04:47:25Z</time>
  <speed>1.450000</speed>
</trkpt>
<trkpt lat="32.742073059" lon="35.052173615">
  <ele>493.205566</ele>
  <time>2011-06-17T04:47:28Z</time>
  <speed>1.590000</speed>
</trkpt>
<trkpt lat="32.742095947" lon="35.052120209">
  <ele>495.846191</ele>
  <time>2011-06-17T04:47:30Z</time>
  <speed>0.920000</speed>
</trkpt>
<trkpt lat="32.742122650" lon="35.052093506">
  <ele>496.768066</ele>
  <time>2011-06-17T04:47:32Z</time>
  <speed>1.170000</speed>
</trkpt>
<trkpt lat="32.742153168" lon="35.052070618">
  <ele>498.158691</ele>
  <time>2011-06-17T04:47:34Z</time>
  <speed>1.210000</speed>
</trkpt>
<trkpt lat="32.742179871" lon="35.052066803">
  <ele>499.369629</ele>
  <time>2011-06-17T04:47:36Z</time>
  <speed>1.250000</speed>
</trkpt>
<trkpt lat="32.742202759" lon="35.052047729">
  <ele>500.861816</ele>
  <time>2011-06-17T04:47:38Z</time>
  <speed>1.350000</speed>
</trkpt>
<trkpt lat="32.742229462" lon="35.052017212">
  <ele>501.908691</ele>
  <time>2011-06-17T04:47:40Z</time>
  <speed>1.610000</speed>
</trkpt>
<trkpt lat="32.742252350" lon="35.051986694">
  <ele>502.408691</ele>
  <time>2011-06-17T04:47:42Z</time>
  <speed>1.620000</speed>
</trkpt>
<trkpt lat="32.742282867" lon="35.051971436">
  <ele>503.697754</ele>
  <time>2011-06-17T04:47:44Z</time>
  <speed>1.620000</speed>
</trkpt>
<trkpt lat="32.742309570" lon="35.051940918">
  <ele>503.752441</ele>
  <time>2011-06-17T04:47:47Z</time>
  <speed>1.310000</speed>
</trkpt>
<trkpt lat="32.742332458" lon="35.051906586">
  <ele>504.205566</ele>
  <time>2011-06-17T04:47:49Z</time>
  <speed>1.580000</speed>
</trkpt>
<trkpt lat="32.742362976" lon="35.051876068">
  <ele>504.244629</ele>
  <time>2011-06-17T04:47:52Z</time>
  <speed>1.530000</speed>
</trkpt>
<trkpt lat="32.742385864" lon="35.051853180">
  <ele>505.088379</ele>
  <time>2011-06-17T04:47:54Z</time>
  <speed>1.350000</speed>
</trkpt>
<trkpt lat="32.742416382" lon="35.051830292">
  <ele>505.221191</ele>
  <time>2011-06-17T04:47:57Z</time>
  <speed>1.170000</speed>
</trkpt>
<trkpt lat="32.742435455" lon="35.051799774">
  <ele>505.604004</ele>
  <time>2011-06-17T04:47:59Z</time>
  <speed>1.300000</speed>
</trkpt>
<trkpt lat="32.742462158" lon="35.051776886">
  <ele>505.408691</ele>
  <time>2011-06-17T04:48:01Z</time>
  <speed>1.260000</speed>
</trkpt>
<trkpt lat="32.742496490" lon="35.051757813">
  <ele>507.041504</ele>
  <time>2011-06-17T04:48:03Z</time>
  <speed>1.370000</speed>
</trkpt>
<trkpt lat="32.742515564" lon="35.051734924">
  <ele>508.002441</ele>
  <time>2011-06-17T04:48:05Z</time>
  <speed>1.130000</speed>
</trkpt>
<trkpt lat="32.742534637" lon="35.051712036">
  <ele>508.822754</ele>
  <time>2011-06-17T04:48:07Z</time>
  <speed>1.340000</speed>
</trkpt>
<trkpt lat="32.742549896" lon="35.051689148">
  <ele>509.346191</ele>
  <time>2011-06-17T04:48:09Z</time>
  <speed>1.510000</speed>
</trkpt>
<trkpt lat="32.742576599" lon="35.051670074">
  <ele>510.361816</ele>
  <time>2011-06-17T04:48:11Z</time>
  <speed>0.980000</speed>
</trkpt>
<trkpt lat="32.742591858" lon="35.051628113">
  <ele>510.846191</ele>
  <time>2011-06-17T04:48:14Z</time>
  <speed>1.260000</speed>
</trkpt>
<trkpt lat="32.742614746" lon="35.051620483">
  <ele>509.471191</ele>
  <time>2011-06-17T04:48:16Z</time>
  <speed>1.390000</speed>
</trkpt>
<trkpt lat="32.742633820" lon="35.051574707">
  <ele>509.424316</ele>
  <time>2011-06-17T04:48:19Z</time>
  <speed>1.670000</speed>
</trkpt>
<trkpt lat="32.742675781" lon="35.051502228">
  <ele>511.096191</ele>
  <time>2011-06-17T04:48:21Z</time>
  <speed>1.410000</speed>
</trkpt>
<trkpt lat="32.742679596" lon="35.051464081">
  <ele>511.924316</ele>
  <time>2011-06-17T04:48:23Z</time>
  <speed>1.170000</speed>
</trkpt>
<trkpt lat="32.742675781" lon="35.051433563">
  <ele>512.395508</ele>
  <time>2011-06-17T04:48:25Z</time>
  <speed>1.000000</speed>
</trkpt>
<trkpt lat="32.742664337" lon="35.051395416">
  <ele>511.986816</ele>
  <time>2011-06-17T04:48:27Z</time>
  <speed>1.570000</speed>
</trkpt>
<trkpt lat="32.742633820" lon="35.051380157">
  <ele>512.817383</ele>
  <time>2011-06-17T04:48:29Z</time>
  <speed>1.850000</speed>
</trkpt>
<trkpt lat="32.742599487" lon="35.051345825">
  <ele>512.270508</ele>
  <time>2011-06-17T04:48:31Z</time>
  <speed>1.370000</speed>
</trkpt>
<trkpt lat="32.742561340" lon="35.051322937">
  <ele>511.408691</ele>
  <time>2011-06-17T04:48:33Z</time>
  <speed>1.290000</speed>
</trkpt>
<trkpt lat="32.742527008" lon="35.051307678">
  <ele>510.713379</ele>
  <time>2011-06-17T04:48:35Z</time>
  <speed>1.500000</speed>
</trkpt>
<trkpt lat="32.742492676" lon="35.051307678">
  <ele>511.010254</ele>
  <time>2011-06-17T04:48:37Z</time>
  <speed>1.650000</speed>
</trkpt>
<trkpt lat="32.742458344" lon="35.051303864">
  <ele>509.760254</ele>
  <time>2011-06-17T04:48:40Z</time>
  <speed>1.490000</speed>
</trkpt>
<trkpt lat="32.742431641" lon="35.051292419">
  <ele>508.947754</ele>
  <time>2011-06-17T04:48:42Z</time>
  <speed>1.460000</speed>
</trkpt>
<trkpt lat="32.742408752" lon="35.051277161">
  <ele>507.822754</ele>
  <time>2011-06-17T04:48:44Z</time>
  <speed>1.430000</speed>
</trkpt>
<trkpt lat="32.742370605" lon="35.051277161">
  <ele>507.541504</ele>
  <time>2011-06-17T04:48:46Z</time>
  <speed>1.430000</speed>
</trkpt>
<trkpt lat="32.742340088" lon="35.051269531">
  <ele>507.502441</ele>
  <time>2011-06-17T04:48:48Z</time>
  <speed>1.470000</speed>
</trkpt>
<trkpt lat="32.742313385" lon="35.051261902">
  <ele>506.611816</ele>
  <time>2011-06-17T04:48:50Z</time>
  <speed>1.410000</speed>
</trkpt>
<trkpt lat="32.742282867" lon="35.051258087">
  <ele>505.689941</ele>
  <time>2011-06-17T04:48:52Z</time>
  <speed>1.670000</speed>
</trkpt>
<trkpt lat="32.742252350" lon="35.051242828">
  <ele>505.455566</ele>
  <time>2011-06-17T04:48:55Z</time>
  <speed>1.530000</speed>
</trkpt>
<trkpt lat="32.742225647" lon="35.051239014">
  <ele>504.994629</ele>
  <time>2011-06-17T04:48:57Z</time>
  <speed>1.320000</speed>
</trkpt>
<trkpt lat="32.742195129" lon="35.051239014">
  <ele>504.666504</ele>
  <time>2011-06-17T04:48:59Z</time>
  <speed>1.400000</speed>
</trkpt>
<trkpt lat="32.742168427" lon="35.051242828">
  <ele>504.104004</ele>
  <time>2011-06-17T04:49:01Z</time>
  <speed>1.380000</speed>
</trkpt>
<trkpt lat="32.742137909" lon="35.051258087">
  <ele>502.197754</ele>
  <time>2011-06-17T04:49:04Z</time>
  <speed>1.350000</speed>
</trkpt>
<trkpt lat="32.742095947" lon="35.051261902">
  <ele>501.463379</ele>
  <time>2011-06-17T04:49:07Z</time>
  <speed>1.360000</speed>
</trkpt>
<trkpt lat="32.742065430" lon="35.051254272">
  <ele>501.689941</ele>
  <time>2011-06-17T04:49:09Z</time>
  <speed>1.490000</speed>
</trkpt>
<trkpt lat="32.742034912" lon="35.051250458">
  <ele>501.541504</ele>
  <time>2011-06-17T04:49:11Z</time>
  <speed>1.160000</speed>
</trkpt>
<trkpt lat="32.742000580" lon="35.051250458">
  <ele>501.572754</ele>
  <time>2011-06-17T04:49:13Z</time>
  <speed>1.430000</speed>
</trkpt>
<trkpt lat="32.741962433" lon="35.051254272">
  <ele>501.135254</ele>
  <time>2011-06-17T04:49:16Z</time>
  <speed>1.150000</speed>
</trkpt>
<trkpt lat="32.741920471" lon="35.051261902">
  <ele>500.580566</ele>
  <time>2011-06-17T04:49:19Z</time>
  <speed>1.360000</speed>
</trkpt>
<trkpt lat="32.741882324" lon="35.051273346">
  <ele>500.432129</ele>
  <time>2011-06-17T04:49:22Z</time>
  <speed>1.340000</speed>
</trkpt>
<trkpt lat="32.741847992" lon="35.051280975">
  <ele>499.979004</ele>
  <time>2011-06-17T04:49:24Z</time>
  <speed>0.800000</speed>
</trkpt>
<trkpt lat="32.741809845" lon="35.051284790">
  <ele>499.932129</ele>
  <time>2011-06-17T04:49:27Z</time>
  <speed>1.240000</speed>
</trkpt>
<trkpt lat="32.741771698" lon="35.051300049">
  <ele>499.369629</ele>
  <time>2011-06-17T04:49:29Z</time>
  <speed>1.210000</speed>
</trkpt>
<trkpt lat="32.741725922" lon="35.051303864">
  <ele>498.557129</ele>
  <time>2011-06-17T04:49:32Z</time>
  <speed>1.110000</speed>
</trkpt>
<trkpt lat="32.741695404" lon="35.051319122">
  <ele>499.064941</ele>
  <time>2011-06-17T04:49:34Z</time>
  <speed>1.350000</speed>
</trkpt>
<trkpt lat="32.741664886" lon="35.051319122">
  <ele>498.900879</ele>
  <time>2011-06-17T04:49:36Z</time>
  <speed>1.500000</speed>
</trkpt>
<trkpt lat="32.741630554" lon="35.051311493">
  <ele>499.541504</ele>
  <time>2011-06-17T04:49:38Z</time>
  <speed>1.360000</speed>
</trkpt>
<trkpt lat="32.741596222" lon="35.051322937">
  <ele>500.080566</ele>
  <time>2011-06-17T04:49:40Z</time>
  <speed>1.570000</speed>
</trkpt>
<trkpt lat="32.741561890" lon="35.051319122">
  <ele>500.799316</ele>
  <time>2011-06-17T04:49:42Z</time>
  <speed>1.440000</speed>
</trkpt>
<trkpt lat="32.741535187" lon="35.051319122">
  <ele>501.361816</ele>
  <time>2011-06-17T04:49:44Z</time>
  <speed>1.310000</speed>
</trkpt>
<trkpt lat="32.741493225" lon="35.051330566">
  <ele>501.744629</ele>
  <time>2011-06-17T04:49:47Z</time>
  <speed>1.360000</speed>
</trkpt>
<trkpt lat="32.741458893" lon="35.051349640">
  <ele>502.330566</ele>
  <time>2011-06-17T04:49:50Z</time>
  <speed>1.290000</speed>
</trkpt>
<trkpt lat="32.741432190" lon="35.051357269">
  <ele>502.955566</ele>
  <time>2011-06-17T04:49:52Z</time>
  <speed>1.330000</speed>
</trkpt>
<trkpt lat="32.741401672" lon="35.051380157">
  <ele>503.150879</ele>
  <time>2011-06-17T04:49:54Z</time>
  <speed>1.370000</speed>
</trkpt>
<trkpt lat="32.741371155" lon="35.051410675">
  <ele>503.846191</ele>
  <time>2011-06-17T04:49:56Z</time>
  <speed>1.780000</speed>
</trkpt>
<trkpt lat="32.741340637" lon="35.051437378">
  <ele>504.768066</ele>
  <time>2011-06-17T04:49:58Z</time>
  <speed>1.440000</speed>
</trkpt>
<trkpt lat="32.741313934" lon="35.051460266">
  <ele>504.994629</ele>
  <time>2011-06-17T04:50:00Z</time>
  <speed>1.460000</speed>
</trkpt>
<trkpt lat="32.741271973" lon="35.051502228">
  <ele>505.705566</ele>
  <time>2011-06-17T04:50:02Z</time>
  <speed>1.310000</speed>
</trkpt>
<trkpt lat="32.741249084" lon="35.051517487">
  <ele>506.408691</ele>
  <time>2011-06-17T04:50:04Z</time>
  <speed>1.480000</speed>
</trkpt>
<trkpt lat="32.741222382" lon="35.051502228">
  <ele>507.033691</ele>
  <time>2011-06-17T04:50:06Z</time>
  <speed>1.520000</speed>
</trkpt>
<trkpt lat="32.741188049" lon="35.051498413">
  <ele>507.369629</ele>
  <time>2011-06-17T04:50:09Z</time>
  <speed>1.640000</speed>
</trkpt>
<trkpt lat="32.741153717" lon="35.051513672">
  <ele>508.814941</ele>
  <time>2011-06-17T04:50:11Z</time>
  <speed>1.510000</speed>
</trkpt>
<trkpt lat="32.741123199" lon="35.051536560">
  <ele>509.408691</ele>
  <time>2011-06-17T04:50:14Z</time>
  <speed>1.510000</speed>
</trkpt>
<trkpt lat="32.741104126" lon="35.051555634">
  <ele>509.947754</ele>
  <time>2011-06-17T04:50:16Z</time>
  <speed>1.590000</speed>
</trkpt>
<trkpt lat="32.741085052" lon="35.051582336">
  <ele>510.861816</ele>
  <time>2011-06-17T04:50:18Z</time>
  <speed>1.520000</speed>
</trkpt>
<trkpt lat="32.741069794" lon="35.051620483">
  <ele>510.822754</ele>
  <time>2011-06-17T04:50:20Z</time>
  <speed>1.670000</speed>
</trkpt>
<trkpt lat="32.741058350" lon="35.051647186">
  <ele>511.854004</ele>
  <time>2011-06-17T04:50:22Z</time>
  <speed>1.300000</speed>
</trkpt>
<trkpt lat="32.741039276" lon="35.051670074">
  <ele>513.020508</ele>
  <time>2011-06-17T04:50:25Z</time>
  <speed>1.170000</speed>
</trkpt>
<trkpt lat="32.741020203" lon="35.051692963">
  <ele>514.348633</ele>
  <time>2011-06-17T04:50:28Z</time>
  <speed>1.170000</speed>
</trkpt>
<trkpt lat="32.740997314" lon="35.051715851">
  <ele>514.676758</ele>
  <time>2011-06-17T04:50:31Z</time>
  <speed>1.030000</speed>
</trkpt>
<trkpt lat="32.740982056" lon="35.051742554">
  <ele>515.645508</ele>
  <time>2011-06-17T04:50:34Z</time>
  <speed>0.190000</speed>
</trkpt>
<trkpt lat="32.740951538" lon="35.051769257">
  <ele>516.161133</ele>
  <time>2011-06-17T04:50:37Z</time>
  <speed>0.150000</speed>
</trkpt>
<trkpt lat="32.740978241" lon="35.051784515">
  <ele>516.989258</ele>
  <time>2011-06-17T04:52:47Z</time>
  <speed>0.080000</speed>
</trkpt>
<trkpt lat="32.740997314" lon="35.051807404">
  <ele>516.348633</ele>
  <time>2011-06-17T04:52:52Z</time>
  <speed>0.120000</speed>
</trkpt>
<trkpt lat="32.740997314" lon="35.051776886">
  <ele>517.926758</ele>
  <time>2011-06-17T04:53:07Z</time>
  <speed>0.070000</speed>
</trkpt>
<trkpt lat="32.740982056" lon="35.051746368">
  <ele>519.629883</ele>
  <time>2011-06-17T04:53:11Z</time>
  <speed>0.130000</speed>
</trkpt>
<trkpt lat="32.740974426" lon="35.051719666">
  <ele>521.458008</ele>
  <time>2011-06-17T04:53:14Z</time>
  <speed>0.160000</speed>
</trkpt>
<trkpt lat="32.740974426" lon="35.051692963">
  <ele>523.723633</ele>
  <time>2011-06-17T04:53:34Z</time>
  <speed>0.100000</speed>
</trkpt>
<trkpt lat="32.740962982" lon="35.051670074">
  <ele>525.583008</ele>
  <time>2011-06-17T04:53:39Z</time>
  <speed>0.150000</speed>
</trkpt>
<trkpt lat="32.740955353" lon="35.051700592">
  <ele>524.489258</ele>
  <time>2011-06-17T04:54:06Z</time>
</trkpt>
<trkpt lat="32.740962982" lon="35.051692963">
  <ele>527.426758</ele>
  <time>2011-06-17T04:54:35Z</time>
</trkpt>
<trkpt lat="32.740940094" lon="35.051712036">
  <ele>526.379883</ele>
  <time>2011-06-17T04:54:47Z</time>
  <speed>0.110000</speed>
</trkpt>
<trkpt lat="32.740951538" lon="35.051727295">
  <ele>523.942383</ele>
  <time>2011-06-17T04:55:14Z</time>
</trkpt>
<trkpt lat="32.740962982" lon="35.051715851">
  <ele>526.614258</ele>
  <time>2011-06-17T04:55:36Z</time>
  <speed>0.050000</speed>
</trkpt>
<trkpt lat="32.740962982" lon="35.051734924">
  <ele>529.145508</ele>
  <time>2011-06-17T04:55:44Z</time>
</trkpt>
<trkpt lat="32.740951538" lon="35.051776886">
  <ele>530.989258</ele>
  <time>2011-06-17T04:55:47Z</time>
</trkpt>
<trkpt lat="32.740947723" lon="35.051807404">
  <ele>531.848633</ele>
  <time>2011-06-17T04:55:50Z</time>
</trkpt>
<trkpt lat="32.740940094" lon="35.051834106">
  <ele>534.114258</ele>
  <time>2011-06-17T04:55:55Z</time>
</trkpt>
<trkpt lat="32.740928650" lon="35.051860809">
  <ele>535.598633</ele>
  <time>2011-06-17T04:56:01Z</time>
</trkpt>
<trkpt lat="32.740909576" lon="35.051856995">
  <ele>537.770508</ele>
  <time>2011-06-17T04:56:12Z</time>
</trkpt>
<trkpt lat="32.740901947" lon="35.051826477">
  <ele>536.348633</ele>
  <time>2011-06-17T04:58:03Z</time>
  <speed>0.040000</speed>
</trkpt>
<trkpt lat="32.740894318" lon="35.051803589">
  <ele>534.208008</ele>
  <time>2011-06-17T04:58:09Z</time>
  <speed>0.080000</speed>
</trkpt>
<trkpt lat="32.740905762" lon="35.051776886">
  <ele>532.614258</ele>
  <time>2011-06-17T04:58:13Z</time>
  <speed>0.120000</speed>
</trkpt>
<trkpt lat="32.740917206" lon="35.051750183">
  <ele>530.364258</ele>
  <time>2011-06-17T04:58:19Z</time>
  <speed>0.120000</speed>
</trkpt>
<trkpt lat="32.740913391" lon="35.051742554">
  <ele>527.395508</ele>
  <time>2011-06-17T04:58:27Z</time>
  <speed>0.070000</speed>
</trkpt>
<trkpt lat="32.740917206" lon="35.051731110">
  <ele>524.629883</ele>
  <time>2011-06-17T04:58:39Z</time>
  <speed>0.040000</speed>
</trkpt>
<trkpt lat="32.740932465" lon="35.051712036">
  <ele>526.426758</ele>
  <time>2011-06-17T04:58:44Z</time>
  <speed>0.090000</speed>
</trkpt>
<trkpt lat="32.740943909" lon="35.051685333">
  <ele>524.942383</ele>
  <time>2011-06-17T04:59:10Z</time>
  <speed>0.150000</speed>
</trkpt>
<trkpt lat="32.740962982" lon="35.051662445">
  <ele>523.801758</ele>
  <time>2011-06-17T04:59:26Z</time>
  <speed>0.190000</speed>
</trkpt>
<trkpt lat="32.740978241" lon="35.051643372">
  <ele>522.114258</ele>
  <time>2011-06-17T04:59:38Z</time>
  <speed>0.210000</speed>
</trkpt>
<trkpt lat="32.740989685" lon="35.051624298">
  <ele>519.958008</ele>
  <time>2011-06-17T04:59:50Z</time>
  <speed>0.150000</speed>
</trkpt>
<trkpt lat="32.740993500" lon="35.051647186">
  <ele>517.911133</ele>
  <time>2011-06-17T05:02:38Z</time>
</trkpt>
<trkpt lat="32.741001129" lon="35.051677704">
  <ele>517.723633</ele>
  <time>2011-06-17T05:02:45Z</time>
  <speed>0.690000</speed>
</trkpt>
<trkpt lat="32.741008759" lon="35.051723480">
  <ele>517.739258</ele>
  <time>2011-06-17T05:02:48Z</time>
  <speed>1.190000</speed>
</trkpt>
<trkpt lat="32.741008759" lon="35.051769257">
  <ele>518.067383</ele>
  <time>2011-06-17T05:02:51Z</time>
  <speed>0.990000</speed>
</trkpt>
<trkpt lat="32.741016388" lon="35.051803589">
  <ele>518.504883</ele>
  <time>2011-06-17T05:02:55Z</time>
  <speed>0.260000</speed>
</trkpt>
<trkpt lat="32.741020203" lon="35.051849365">
  <ele>518.817383</ele>
  <time>2011-06-17T05:03:00Z</time>
  <speed>1.450000</speed>
</trkpt>
<trkpt lat="32.741012573" lon="35.051883698">
  <ele>519.239258</ele>
  <time>2011-06-17T05:03:02Z</time>
  <speed>1.260000</speed>
</trkpt>
<trkpt lat="32.740993500" lon="35.051918030">
  <ele>519.864258</ele>
  <time>2011-06-17T05:03:04Z</time>
  <speed>1.800000</speed>
</trkpt>
<trkpt lat="32.740955353" lon="35.051952362">
  <ele>519.848633</ele>
  <time>2011-06-17T05:03:06Z</time>
  <speed>2.740000</speed>
</trkpt>
<trkpt lat="32.740909576" lon="35.051998138">
  <ele>519.567383</ele>
  <time>2011-06-17T05:03:08Z</time>
  <speed>2.060000</speed>
</trkpt>
<trkpt lat="32.740890503" lon="35.052047729">
  <ele>519.551758</ele>
  <time>2011-06-17T05:03:10Z</time>
  <speed>1.380000</speed>
</trkpt>
<trkpt lat="32.740905762" lon="35.052074432">
  <ele>519.661133</ele>
  <time>2011-06-17T05:03:12Z</time>
  <speed>1.580000</speed>
</trkpt>
<trkpt lat="32.740917206" lon="35.052108765">
  <ele>519.317383</ele>
  <time>2011-06-17T05:03:14Z</time>
  <speed>1.680000</speed>
</trkpt>
<trkpt lat="32.740924835" lon="35.052154541">
  <ele>518.645508</ele>
  <time>2011-06-17T05:03:16Z</time>
  <speed>1.290000</speed>
</trkpt>
<trkpt lat="32.740921021" lon="35.052185059">
  <ele>518.145508</ele>
  <time>2011-06-17T05:03:18Z</time>
  <speed>1.130000</speed>
</trkpt>
<trkpt lat="32.740932465" lon="35.052230835">
  <ele>518.067383</ele>
  <time>2011-06-17T05:03:21Z</time>
  <speed>1.010000</speed>
</trkpt>
<trkpt lat="32.740932465" lon="35.052265167">
  <ele>517.411133</ele>
  <time>2011-06-17T05:03:23Z</time>
  <speed>2.080000</speed>
</trkpt>
<trkpt lat="32.740921021" lon="35.052303314">
  <ele>517.020508</ele>
  <time>2011-06-17T05:03:25Z</time>
  <speed>1.720000</speed>
</trkpt>
<trkpt lat="32.740886688" lon="35.052337646">
  <ele>516.723633</ele>
  <time>2011-06-17T05:03:27Z</time>
  <speed>1.840000</speed>
</trkpt>
<trkpt lat="32.740848541" lon="35.052360535">
  <ele>516.051758</ele>
  <time>2011-06-17T05:03:29Z</time>
  <speed>1.760000</speed>
</trkpt>
<trkpt lat="32.740821838" lon="35.052364349">
  <ele>515.786133</ele>
  <time>2011-06-17T05:03:31Z</time>
  <speed>1.330000</speed>
</trkpt>
<trkpt lat="32.740787506" lon="35.052345276">
  <ele>515.973633</ele>
  <time>2011-06-17T05:03:33Z</time>
  <speed>1.770000</speed>
</trkpt>
<trkpt lat="32.740753174" lon="35.052356720">
  <ele>514.864258</ele>
  <time>2011-06-17T05:03:35Z</time>
  <speed>1.450000</speed>
</trkpt>
<trkpt lat="32.740722656" lon="35.052333832">
  <ele>514.817383</ele>
  <time>2011-06-17T05:03:37Z</time>
  <speed>1.890000</speed>
</trkpt>
<trkpt lat="32.740688324" lon="35.052337646">
  <ele>515.192383</ele>
  <time>2011-06-17T05:03:38Z</time>
  <speed>1.430000</speed>
</trkpt>
<trkpt lat="32.740657806" lon="35.052337646">
  <ele>516.114258</ele>
  <time>2011-06-17T05:03:39Z</time>
  <speed>1.610000</speed>
</trkpt>
<trkpt lat="32.740619659" lon="35.052326202">
  <ele>516.254883</ele>
  <time>2011-06-17T05:03:41Z</time>
  <speed>1.170000</speed>
</trkpt>
<trkpt lat="32.740589142" lon="35.052345276">
  <ele>517.286133</ele>
  <time>2011-06-17T05:03:44Z</time>
  <speed>0.160000</speed>
</trkpt>
<trkpt lat="32.740612030" lon="35.052330017">
  <ele>518.786133</ele>
  <time>2011-06-17T05:04:24Z</time>
  <speed>0.430000</speed>
</trkpt>
<trkpt lat="32.740646362" lon="35.052322388">
  <ele>519.442383</ele>
  <time>2011-06-17T05:04:26Z</time>
  <speed>0.460000</speed>
</trkpt>
<trkpt lat="32.740653992" lon="35.052299500">
  <ele>521.583008</ele>
  <time>2011-06-17T05:04:30Z</time>
  <speed>0.110000</speed>
</trkpt>
<trkpt lat="32.740684509" lon="35.052268982">
  <ele>521.551758</ele>
  <time>2011-06-17T05:04:35Z</time>
  <speed>1.550000</speed>
</trkpt>
<trkpt lat="32.740699768" lon="35.052223206">
  <ele>522.270508</ele>
  <time>2011-06-17T05:04:37Z</time>
  <speed>2.390000</speed>
</trkpt>
<trkpt lat="32.740703583" lon="35.052162170">
  <ele>522.426758</ele>
  <time>2011-06-17T05:04:39Z</time>
  <speed>3.030000</speed>
</trkpt>
<trkpt lat="32.740707397" lon="35.052127838">
  <ele>522.770508</ele>
  <time>2011-06-17T05:04:40Z</time>
  <speed>2.850000</speed>
</trkpt>
<trkpt lat="32.740726471" lon="35.052074432">
  <ele>522.458008</ele>
  <time>2011-06-17T05:04:42Z</time>
  <speed>2.670000</speed>
</trkpt>
<trkpt lat="32.740749359" lon="35.052043915">
  <ele>522.754883</ele>
  <time>2011-06-17T05:04:43Z</time>
  <speed>3.190000</speed>
</trkpt>
<trkpt lat="32.740772247" lon="35.052017212">
  <ele>522.598633</ele>
  <time>2011-06-17T05:04:44Z</time>
  <speed>3.270000</speed>
</trkpt>
<trkpt lat="32.740791321" lon="35.051986694">
  <ele>522.598633</ele>
  <time>2011-06-17T05:04:45Z</time>
  <speed>2.820000</speed>
</trkpt>
<trkpt lat="32.740806580" lon="35.051952362">
  <ele>522.833008</ele>
  <time>2011-06-17T05:04:46Z</time>
  <speed>2.640000</speed>
</trkpt>
<trkpt lat="32.740821838" lon="35.051921844">
  <ele>523.129883</ele>
  <time>2011-06-17T05:04:47Z</time>
  <speed>2.470000</speed>
</trkpt>
<trkpt lat="32.740848541" lon="35.051864624">
  <ele>522.567383</ele>
  <time>2011-06-17T05:04:49Z</time>
  <speed>3.130000</speed>
</trkpt>
<trkpt lat="32.740863800" lon="35.051822662">
  <ele>522.223633</ele>
  <time>2011-06-17T05:04:50Z</time>
  <speed>3.330000</speed>
</trkpt>
<trkpt lat="32.740875244" lon="35.051788330">
  <ele>521.958008</ele>
  <time>2011-06-17T05:04:51Z</time>
  <speed>3.410000</speed>
</trkpt>
<trkpt lat="32.740886688" lon="35.051753998">
  <ele>521.614258</ele>
  <time>2011-06-17T05:04:52Z</time>
  <speed>2.390000</speed>
</trkpt>
<trkpt lat="32.740882874" lon="35.051719666">
  <ele>520.942383</ele>
  <time>2011-06-17T05:04:53Z</time>
  <speed>2.730000</speed>
</trkpt>
<trkpt lat="32.740863800" lon="35.051689148">
  <ele>520.098633</ele>
  <time>2011-06-17T05:04:54Z</time>
  <speed>2.790000</speed>
</trkpt>
<trkpt lat="32.740844727" lon="35.051654816">
  <ele>518.817383</ele>
  <time>2011-06-17T05:04:55Z</time>
  <speed>3.690000</speed>
</trkpt>
<trkpt lat="32.740825653" lon="35.051624298">
  <ele>518.036133</ele>
  <time>2011-06-17T05:04:56Z</time>
  <speed>3.570000</speed>
</trkpt>
<trkpt lat="32.740802765" lon="35.051574707">
  <ele>516.723633</ele>
  <time>2011-06-17T05:04:57Z</time>
  <speed>4.060000</speed>
</trkpt>
<trkpt lat="32.740791321" lon="35.051540375">
  <ele>516.083008</ele>
  <time>2011-06-17T05:04:58Z</time>
  <speed>3.730000</speed>
</trkpt>
<trkpt lat="32.740791321" lon="35.051494598">
  <ele>514.989258</ele>
  <time>2011-06-17T05:04:59Z</time>
  <speed>4.200000</speed>
</trkpt>
<trkpt lat="32.740783691" lon="35.051441193">
  <ele>513.692383</ele>
  <time>2011-06-17T05:05:00Z</time>
  <speed>4.390000</speed>
</trkpt>
<trkpt lat="32.740764618" lon="35.051387787">
  <ele>513.192383</ele>
  <time>2011-06-17T05:05:01Z</time>
  <speed>3.960000</speed>
</trkpt>
<trkpt lat="32.740741730" lon="35.051330566">
  <ele>512.536133</ele>
  <time>2011-06-17T05:05:02Z</time>
  <speed>4.210000</speed>
</trkpt>
<trkpt lat="32.740722656" lon="35.051292419">
  <ele>511.846191</ele>
  <time>2011-06-17T05:05:03Z</time>
  <speed>4.460000</speed>
</trkpt>
<trkpt lat="32.740703583" lon="35.051261902">
  <ele>511.236816</ele>
  <time>2011-06-17T05:05:04Z</time>
  <speed>3.150000</speed>
</trkpt>
<trkpt lat="32.740692139" lon="35.051231384">
  <ele>510.502441</ele>
  <time>2011-06-17T05:05:05Z</time>
  <speed>3.070000</speed>
</trkpt>
<trkpt lat="32.740684509" lon="35.051197052">
  <ele>509.744629</ele>
  <time>2011-06-17T05:05:06Z</time>
  <speed>2.110000</speed>
</trkpt>
<trkpt lat="32.740684509" lon="35.051155090">
  <ele>508.432129</ele>
  <time>2011-06-17T05:05:08Z</time>
  <speed>1.520000</speed>
</trkpt>
<trkpt lat="32.740680695" lon="35.051105499">
  <ele>507.049316</ele>
  <time>2011-06-17T05:05:10Z</time>
  <speed>2.180000</speed>
</trkpt>
<trkpt lat="32.740653992" lon="35.051055908">
  <ele>504.939941</ele>
  <time>2011-06-17T05:05:12Z</time>
  <speed>1.960000</speed>
</trkpt>
<trkpt lat="32.740638733" lon="35.051029205">
  <ele>503.041504</ele>
  <time>2011-06-17T05:05:14Z</time>
  <speed>1.020000</speed>
</trkpt>
<trkpt lat="32.740657806" lon="35.051052094">
  <ele>502.322754</ele>
  <time>2011-06-17T05:05:45Z</time>
  <speed>0.890000</speed>
</trkpt>
<trkpt lat="32.740669250" lon="35.051082611">
  <ele>502.564941</ele>
  <time>2011-06-17T05:05:49Z</time>
  <speed>0.720000</speed>
</trkpt>
<trkpt lat="32.740676880" lon="35.051113129">
  <ele>503.611816</ele>
  <time>2011-06-17T05:05:53Z</time>
  <speed>0.840000</speed>
</trkpt>
<trkpt lat="32.740684509" lon="35.051151276">
  <ele>504.736816</ele>
  <time>2011-06-17T05:05:57Z</time>
  <speed>0.980000</speed>
</trkpt>
<trkpt lat="32.740688324" lon="35.051181793">
  <ele>505.557129</ele>
  <time>2011-06-17T05:06:00Z</time>
  <speed>0.830000</speed>
</trkpt>
<trkpt lat="32.740711212" lon="35.051197052">
  <ele>506.955566</ele>
  <time>2011-06-17T05:06:02Z</time>
  <speed>0.940000</speed>
</trkpt>
<trkpt lat="32.740718842" lon="35.051231384">
  <ele>507.275879</ele>
  <time>2011-06-17T05:06:05Z</time>
  <speed>0.970000</speed>
</trkpt>
<trkpt lat="32.740707397" lon="35.051197052">
  <ele>508.604004</ele>
  <time>2011-06-17T05:06:21Z</time>
  <speed>2.090000</speed>
</trkpt>
<trkpt lat="32.740692139" lon="35.051155090">
  <ele>508.361816</ele>
  <time>2011-06-17T05:06:23Z</time>
  <speed>2.100000</speed>
</trkpt>
<trkpt lat="32.740684509" lon="35.051101685">
  <ele>507.580566</ele>
  <time>2011-06-17T05:06:25Z</time>
  <speed>2.570000</speed>
</trkpt>
<trkpt lat="32.740665436" lon="35.051033020">
  <ele>506.877441</ele>
  <time>2011-06-17T05:06:27Z</time>
  <speed>3.470000</speed>
</trkpt>
<trkpt lat="32.740646362" lon="35.051006317">
  <ele>506.236816</ele>
  <time>2011-06-17T05:06:28Z</time>
  <speed>3.120000</speed>
</trkpt>
<trkpt lat="32.740623474" lon="35.050949097">
  <ele>504.814941</ele>
  <time>2011-06-17T05:06:30Z</time>
  <speed>2.880000</speed>
</trkpt>
<trkpt lat="32.740600586" lon="35.050895691">
  <ele>503.947754</ele>
  <time>2011-06-17T05:06:32Z</time>
  <speed>2.840000</speed>
</trkpt>
<trkpt lat="32.740592957" lon="35.050865173">
  <ele>503.400879</ele>
  <time>2011-06-17T05:06:33Z</time>
  <speed>2.340000</speed>
</trkpt>
<trkpt lat="32.740577698" lon="35.050830841">
  <ele>502.416504</ele>
  <time>2011-06-17T05:06:34Z</time>
  <speed>3.990000</speed>
</trkpt>
<trkpt lat="32.740562439" lon="35.050785065">
  <ele>501.650879</ele>
  <time>2011-06-17T05:06:35Z</time>
  <speed>3.790000</speed>
</trkpt>
<trkpt lat="32.740558624" lon="35.050746918">
  <ele>500.143066</ele>
  <time>2011-06-17T05:06:36Z</time>
  <speed>3.570000</speed>
</trkpt>
<trkpt lat="32.740547180" lon="35.050697327">
  <ele>499.283691</ele>
  <time>2011-06-17T05:06:37Z</time>
  <speed>4.190000</speed>
</trkpt>
<trkpt lat="32.740539551" lon="35.050655365">
  <ele>497.463379</ele>
  <time>2011-06-17T05:06:38Z</time>
  <speed>3.880000</speed>
</trkpt>
<trkpt lat="32.740531921" lon="35.050609589">
  <ele>496.721191</ele>
  <time>2011-06-17T05:06:39Z</time>
  <speed>3.480000</speed>
</trkpt>
<trkpt lat="32.740543365" lon="35.050548553">
  <ele>495.135254</ele>
  <time>2011-06-17T05:06:41Z</time>
  <speed>3.550000</speed>
</trkpt>
<trkpt lat="32.740573883" lon="35.050525665">
  <ele>493.213379</ele>
  <time>2011-06-17T05:06:43Z</time>
  <speed>1.840000</speed>
</trkpt>
<trkpt lat="32.740604401" lon="35.050483704">
  <ele>491.260254</ele>
  <time>2011-06-17T05:06:45Z</time>
  <speed>2.090000</speed>
</trkpt>
<trkpt lat="32.740608215" lon="35.050449371">
  <ele>490.471191</ele>
  <time>2011-06-17T05:06:46Z</time>
  <speed>3.040000</speed>
</trkpt>
<trkpt lat="32.740646362" lon="35.050399780">
  <ele>489.174316</ele>
  <time>2011-06-17T05:06:48Z</time>
  <speed>2.770000</speed>
</trkpt>
<trkpt lat="32.740669250" lon="35.050384521">
  <ele>488.463379</ele>
  <time>2011-06-17T05:06:49Z</time>
  <speed>2.970000</speed>
</trkpt>
<trkpt lat="32.740707397" lon="35.050380707">
  <ele>487.447754</ele>
  <time>2011-06-17T05:06:50Z</time>
  <speed>3.490000</speed>
</trkpt>
<trkpt lat="32.740730286" lon="35.050354004">
  <ele>486.924316</ele>
  <time>2011-06-17T05:06:51Z</time>
  <speed>3.540000</speed>
</trkpt>
<trkpt lat="32.740753174" lon="35.050304413">
  <ele>486.814941</ele>
  <time>2011-06-17T05:06:52Z</time>
  <speed>3.960000</speed>
</trkpt>
<trkpt lat="32.740760803" lon="35.050258636">
  <ele>486.268066</ele>
  <time>2011-06-17T05:06:53Z</time>
  <speed>3.570000</speed>
</trkpt>
<trkpt lat="32.740768433" lon="35.050212860">
  <ele>485.752441</ele>
  <time>2011-06-17T05:06:54Z</time>
  <speed>2.390000</speed>
</trkpt>
<trkpt lat="32.740806580" lon="35.050216675">
  <ele>484.502441</ele>
  <time>2011-06-17T05:06:57Z</time>
  <speed>2.560000</speed>
</trkpt>
<trkpt lat="32.740856171" lon="35.050224304">
  <ele>484.455566</ele>
  <time>2011-06-17T05:06:58Z</time>
  <speed>2.640000</speed>
</trkpt>
<trkpt lat="32.740882874" lon="35.050209045">
  <ele>484.049316</ele>
  <time>2011-06-17T05:06:59Z</time>
  <speed>2.130000</speed>
</trkpt>
<trkpt lat="32.740921021" lon="35.050159454">
  <ele>483.314941</ele>
  <time>2011-06-17T05:07:01Z</time>
  <speed>2.250000</speed>
</trkpt>
<trkpt lat="32.740951538" lon="35.050155640">
  <ele>482.455566</ele>
  <time>2011-06-17T05:07:03Z</time>
  <speed>1.890000</speed>
</trkpt>
<trkpt lat="32.741012573" lon="35.050159454">
  <ele>482.197754</ele>
  <time>2011-06-17T05:07:05Z</time>
  <speed>2.300000</speed>
</trkpt>
<trkpt lat="32.741046906" lon="35.050132751">
  <ele>482.119629</ele>
  <time>2011-06-17T05:07:07Z</time>
  <speed>2.560000</speed>
</trkpt>
<trkpt lat="32.741115570" lon="35.050117493">
  <ele>481.385254</ele>
  <time>2011-06-17T05:07:09Z</time>
  <speed>4.210000</speed>
</trkpt>
<trkpt lat="32.741161346" lon="35.050102234">
  <ele>481.174316</ele>
  <time>2011-06-17T05:07:10Z</time>
  <speed>4.130000</speed>
</trkpt>
<trkpt lat="32.741191864" lon="35.050079346">
  <ele>480.689941</ele>
  <time>2011-06-17T05:07:11Z</time>
  <speed>3.790000</speed>
</trkpt>
<trkpt lat="32.741210938" lon="35.050056458">
  <ele>480.275879</ele>
  <time>2011-06-17T05:07:12Z</time>
  <speed>3.120000</speed>
</trkpt>
<trkpt lat="32.741241455" lon="35.050041199">
  <ele>479.689941</ele>
  <time>2011-06-17T05:07:13Z</time>
  <speed>3.000000</speed>
</trkpt>
<trkpt lat="32.741268158" lon="35.050029755">
  <ele>478.354004</ele>
  <time>2011-06-17T05:07:14Z</time>
  <speed>2.560000</speed>
</trkpt>
<trkpt lat="32.741294861" lon="35.049980164">
  <ele>477.674316</ele>
  <time>2011-06-17T05:07:16Z</time>
  <speed>3.030000</speed>
</trkpt>
<trkpt lat="32.741317749" lon="35.049968719">
  <ele>477.174316</ele>
  <time>2011-06-17T05:07:17Z</time>
  <speed>2.850000</speed>
</trkpt>
<trkpt lat="32.741352081" lon="35.049945831">
  <ele>476.291504</ele>
  <time>2011-06-17T05:07:18Z</time>
  <speed>3.960000</speed>
</trkpt>
<trkpt lat="32.741394043" lon="35.049930573">
  <ele>475.541504</ele>
  <time>2011-06-17T05:07:19Z</time>
  <speed>3.960000</speed>
</trkpt>
<trkpt lat="32.741424561" lon="35.049884796">
  <ele>474.916504</ele>
  <time>2011-06-17T05:07:20Z</time>
  <speed>4.160000</speed>
</trkpt>
<trkpt lat="32.741455078" lon="35.049854279">
  <ele>474.963379</ele>
  <time>2011-06-17T05:07:21Z</time>
  <speed>3.980000</speed>
</trkpt>
<trkpt lat="32.741493225" lon="35.049827576">
  <ele>475.088379</ele>
  <time>2011-06-17T05:07:22Z</time>
  <speed>3.500000</speed>
</trkpt>
<trkpt lat="32.741523743" lon="35.049816132">
  <ele>474.799316</ele>
  <time>2011-06-17T05:07:23Z</time>
  <speed>2.940000</speed>
</trkpt>
<trkpt lat="32.741550446" lon="35.049789429">
  <ele>475.205566</ele>
  <time>2011-06-17T05:07:24Z</time>
  <speed>2.670000</speed>
</trkpt>
<trkpt lat="32.741600037" lon="35.049766541">
  <ele>474.674316</ele>
  <time>2011-06-17T05:07:26Z</time>
  <speed>2.980000</speed>
</trkpt>
<trkpt lat="32.741626740" lon="35.049758911">
  <ele>474.479004</ele>
  <time>2011-06-17T05:07:27Z</time>
  <speed>2.730000</speed>
</trkpt>
<trkpt lat="32.741653442" lon="35.049751282">
  <ele>474.260254</ele>
  <time>2011-06-17T05:07:28Z</time>
  <speed>2.460000</speed>
</trkpt>
<trkpt lat="32.741683960" lon="35.049751282">
  <ele>474.002441</ele>
  <time>2011-06-17T05:07:29Z</time>
  <speed>2.880000</speed>
</trkpt>
<trkpt lat="32.741756439" lon="35.049762726">
  <ele>473.010254</ele>
  <time>2011-06-17T05:07:30Z</time>
  <speed>3.870000</speed>
</trkpt>
<trkpt lat="32.741806030" lon="35.049743652">
  <ele>472.697754</ele>
  <time>2011-06-17T05:07:31Z</time>
  <speed>4.790000</speed>
</trkpt>
<trkpt lat="32.741867065" lon="35.049720764">
  <ele>471.822754</ele>
  <time>2011-06-17T05:07:32Z</time>
  <speed>5.440000</speed>
</trkpt>
<trkpt lat="32.741931915" lon="35.049694061">
  <ele>471.244629</ele>
  <time>2011-06-17T05:07:33Z</time>
  <speed>5.760000</speed>
</trkpt>
<trkpt lat="32.741977692" lon="35.049655914">
  <ele>470.893066</ele>
  <time>2011-06-17T05:07:34Z</time>
  <speed>5.550000</speed>
</trkpt>
<trkpt lat="32.742027283" lon="35.049602509">
  <ele>470.424316</ele>
  <time>2011-06-17T05:07:35Z</time>
  <speed>5.240000</speed>
</trkpt>
<trkpt lat="32.742065430" lon="35.049575806">
  <ele>469.869629</ele>
  <time>2011-06-17T05:07:36Z</time>
  <speed>3.870000</speed>
</trkpt>
<trkpt lat="32.742103577" lon="35.049560547">
  <ele>469.338379</ele>
  <time>2011-06-17T05:07:37Z</time>
  <speed>4.220000</speed>
</trkpt>
<trkpt lat="32.742145538" lon="35.049537659">
  <ele>469.041504</ele>
  <time>2011-06-17T05:07:38Z</time>
  <speed>4.150000</speed>
</trkpt>
<trkpt lat="32.742195129" lon="35.049510956">
  <ele>468.791504</ele>
  <time>2011-06-17T05:07:39Z</time>
  <speed>4.390000</speed>
</trkpt>
<trkpt lat="32.742233276" lon="35.049488068">
  <ele>468.439941</ele>
  <time>2011-06-17T05:07:40Z</time>
  <speed>4.680000</speed>
</trkpt>
<trkpt lat="32.742282867" lon="35.049476624">
  <ele>467.846191</ele>
  <time>2011-06-17T05:07:41Z</time>
  <speed>4.450000</speed>
</trkpt>
<trkpt lat="32.742313385" lon="35.049465179">
  <ele>466.432129</ele>
  <time>2011-06-17T05:07:42Z</time>
  <speed>3.080000</speed>
</trkpt>
<trkpt lat="32.742340088" lon="35.049461365">
  <ele>465.635254</ele>
  <time>2011-06-17T05:07:43Z</time>
  <speed>3.240000</speed>
</trkpt>
<trkpt lat="32.742370605" lon="35.049453735">
  <ele>464.502441</ele>
  <time>2011-06-17T05:07:44Z</time>
  <speed>2.920000</speed>
</trkpt>
<trkpt lat="32.742401123" lon="35.049446106">
  <ele>464.002441</ele>
  <time>2011-06-17T05:07:45Z</time>
  <speed>2.730000</speed>
</trkpt>
<trkpt lat="32.742424011" lon="35.049438477">
  <ele>463.346191</ele>
  <time>2011-06-17T05:07:46Z</time>
  <speed>2.950000</speed>
</trkpt>
<trkpt lat="32.742496490" lon="35.049404144">
  <ele>463.018066</ele>
  <time>2011-06-17T05:07:48Z</time>
  <speed>2.050000</speed>
</trkpt>
<trkpt lat="32.742538452" lon="35.049415588">
  <ele>460.682129</ele>
  <time>2011-06-17T05:07:50Z</time>
  <speed>1.930000</speed>
</trkpt>
<trkpt lat="32.742568970" lon="35.049411774">
  <ele>459.002441</ele>
  <time>2011-06-17T05:07:51Z</time>
  <speed>2.570000</speed>
</trkpt>
<trkpt lat="32.742599487" lon="35.049411774">
  <ele>457.041504</ele>
  <time>2011-06-17T05:07:52Z</time>
  <speed>3.200000</speed>
</trkpt>
<trkpt lat="32.742626190" lon="35.049404144">
  <ele>455.807129</ele>
  <time>2011-06-17T05:07:53Z</time>
  <speed>3.020000</speed>
</trkpt>
<trkpt lat="32.742679596" lon="35.049381256">
  <ele>456.049316</ele>
  <time>2011-06-17T05:07:54Z</time>
  <speed>3.940000</speed>
</trkpt>
<trkpt lat="32.742721558" lon="35.049373627">
  <ele>455.213379</ele>
  <time>2011-06-17T05:07:55Z</time>
  <speed>4.060000</speed>
</trkpt>
<trkpt lat="32.742759705" lon="35.049358368">
  <ele>453.979004</ele>
  <time>2011-06-17T05:07:56Z</time>
  <speed>3.110000</speed>
</trkpt>
<trkpt lat="32.742809296" lon="35.049339294">
  <ele>451.643066</ele>
  <time>2011-06-17T05:07:58Z</time>
  <speed>2.280000</speed>
</trkpt>
<trkpt lat="32.742855072" lon="35.049343109">
  <ele>451.439941</ele>
  <time>2011-06-17T05:07:59Z</time>
  <speed>4.050000</speed>
</trkpt>
<trkpt lat="32.742897034" lon="35.049350739">
  <ele>450.408691</ele>
  <time>2011-06-17T05:08:00Z</time>
  <speed>4.250000</speed>
</trkpt>
<trkpt lat="32.742958069" lon="35.049324036">
  <ele>451.096191</ele>
  <time>2011-06-17T05:08:01Z</time>
  <speed>4.320000</speed>
</trkpt>
<trkpt lat="32.743007660" lon="35.049324036">
  <ele>450.424316</ele>
  <time>2011-06-17T05:08:02Z</time>
  <speed>4.980000</speed>
</trkpt>
<trkpt lat="32.743061066" lon="35.049339294">
  <ele>449.525879</ele>
  <time>2011-06-17T05:08:03Z</time>
  <speed>4.650000</speed>
</trkpt>
<trkpt lat="32.743106842" lon="35.049346924">
  <ele>449.197754</ele>
  <time>2011-06-17T05:08:04Z</time>
  <speed>4.470000</speed>
</trkpt>
<trkpt lat="32.743148804" lon="35.049350739">
  <ele>448.525879</ele>
  <time>2011-06-17T05:08:05Z</time>
  <speed>4.160000</speed>
</trkpt>
<trkpt lat="32.743183136" lon="35.049350739">
  <ele>448.369629</ele>
  <time>2011-06-17T05:08:06Z</time>
  <speed>3.060000</speed>
</trkpt>
<trkpt lat="32.743240356" lon="35.049369812">
  <ele>446.057129</ele>
  <time>2011-06-17T05:08:08Z</time>
  <speed>2.710000</speed>
</trkpt>
<trkpt lat="32.743270874" lon="35.049385071">
  <ele>445.869629</ele>
  <time>2011-06-17T05:08:09Z</time>
  <speed>2.990000</speed>
</trkpt>
<trkpt lat="32.743305206" lon="35.049396515">
  <ele>446.244629</ele>
  <time>2011-06-17T05:08:10Z</time>
  <speed>3.020000</speed>
</trkpt>
<trkpt lat="32.743370056" lon="35.049407959">
  <ele>444.908691</ele>
  <time>2011-06-17T05:08:12Z</time>
  <speed>4.660000</speed>
</trkpt>
<trkpt lat="32.743415833" lon="35.049404144">
  <ele>444.002441</ele>
  <time>2011-06-17T05:08:13Z</time>
  <speed>5.590000</speed>
</trkpt>
<trkpt lat="32.743461609" lon="35.049400330">
  <ele>443.150879</ele>
  <time>2011-06-17T05:08:14Z</time>
  <speed>4.870000</speed>
</trkpt>
<trkpt lat="32.743511200" lon="35.049404144">
  <ele>442.252441</ele>
  <time>2011-06-17T05:08:15Z</time>
  <speed>4.660000</speed>
</trkpt>
<trkpt lat="32.743545532" lon="35.049407959">
  <ele>442.205566</ele>
  <time>2011-06-17T05:08:16Z</time>
  <speed>4.020000</speed>
</trkpt>
<trkpt lat="32.743576050" lon="35.049407959">
  <ele>441.283691</ele>
  <time>2011-06-17T05:08:17Z</time>
  <speed>3.430000</speed>
</trkpt>
<trkpt lat="32.743606567" lon="35.049404144">
  <ele>439.682129</ele>
  <time>2011-06-17T05:08:18Z</time>
  <speed>3.380000</speed>
</trkpt>
<trkpt lat="32.743637085" lon="35.049385071">
  <ele>439.502441</ele>
  <time>2011-06-17T05:08:19Z</time>
  <speed>3.500000</speed>
</trkpt>
<trkpt lat="32.743667603" lon="35.049365997">
  <ele>438.744629</ele>
  <time>2011-06-17T05:08:20Z</time>
  <speed>3.970000</speed>
</trkpt>
<trkpt lat="32.743698120" lon="35.049346924">
  <ele>438.455566</ele>
  <time>2011-06-17T05:08:21Z</time>
  <speed>3.320000</speed>
</trkpt>
<trkpt lat="32.743717194" lon="35.049312592">
  <ele>438.486816</ele>
  <time>2011-06-17T05:08:23Z</time>
  <speed>0.920000</speed>
</trkpt>
<trkpt lat="32.743686676" lon="35.049274445">
  <ele>438.408691</ele>
  <time>2011-06-17T05:08:32Z</time>
  <speed>2.350000</speed>
</trkpt>
<trkpt lat="32.743675232" lon="35.049221039">
  <ele>437.252441</ele>
  <time>2011-06-17T05:08:34Z</time>
  <speed>2.640000</speed>
</trkpt>
<trkpt lat="32.743675232" lon="35.049171448">
  <ele>437.096191</ele>
  <time>2011-06-17T05:08:36Z</time>
  <speed>2.590000</speed>
</trkpt>
<trkpt lat="32.743682861" lon="35.049114227">
  <ele>437.158691</ele>
  <time>2011-06-17T05:08:38Z</time>
  <speed>2.600000</speed>
</trkpt>
<trkpt lat="32.743682861" lon="35.049060822">
  <ele>437.244629</ele>
  <time>2011-06-17T05:08:40Z</time>
  <speed>2.020000</speed>
</trkpt>
<trkpt lat="32.743679047" lon="35.049011230">
  <ele>436.900879</ele>
  <time>2011-06-17T05:08:42Z</time>
  <speed>2.060000</speed>
</trkpt>
<trkpt lat="32.743682861" lon="35.048969269">
  <ele>436.439941</ele>
  <time>2011-06-17T05:08:44Z</time>
  <speed>2.180000</speed>
</trkpt>
<trkpt lat="32.743698120" lon="35.048923492">
  <ele>435.580566</ele>
  <time>2011-06-17T05:08:46Z</time>
  <speed>2.400000</speed>
</trkpt>
<trkpt lat="32.743717194" lon="35.048881531">
  <ele>435.221191</ele>
  <time>2011-06-17T05:08:48Z</time>
  <speed>3.090000</speed>
</trkpt>
<trkpt lat="32.743736267" lon="35.048854828">
  <ele>433.963379</ele>
  <time>2011-06-17T05:08:49Z</time>
  <speed>3.980000</speed>
</trkpt>
<trkpt lat="32.743759155" lon="35.048828125">
  <ele>433.369629</ele>
  <time>2011-06-17T05:08:50Z</time>
  <speed>3.730000</speed>
</trkpt>
<trkpt lat="32.743778229" lon="35.048797607">
  <ele>432.588379</ele>
  <time>2011-06-17T05:08:51Z</time>
  <speed>3.630000</speed>
</trkpt>
<trkpt lat="32.743801117" lon="35.048767090">
  <ele>432.088379</ele>
  <time>2011-06-17T05:08:52Z</time>
  <speed>3.630000</speed>
</trkpt>
<trkpt lat="32.743820190" lon="35.048736572">
  <ele>431.463379</ele>
  <time>2011-06-17T05:08:53Z</time>
  <speed>3.460000</speed>
</trkpt>
<trkpt lat="32.743839264" lon="35.048706055">
  <ele>430.869629</ele>
  <time>2011-06-17T05:08:54Z</time>
  <speed>3.480000</speed>
</trkpt>
<trkpt lat="32.743865967" lon="35.048671722">
  <ele>430.268066</ele>
  <time>2011-06-17T05:08:55Z</time>
  <speed>4.430000</speed>
</trkpt>
<trkpt lat="32.743892670" lon="35.048641205">
  <ele>429.432129</ele>
  <time>2011-06-17T05:08:56Z</time>
  <speed>4.330000</speed>
</trkpt>
<trkpt lat="32.743907928" lon="35.048603058">
  <ele>428.643066</ele>
  <time>2011-06-17T05:08:57Z</time>
  <speed>3.860000</speed>
</trkpt>
<trkpt lat="32.743911743" lon="35.048568726">
  <ele>428.135254</ele>
  <time>2011-06-17T05:08:58Z</time>
  <speed>2.960000</speed>
</trkpt>
<trkpt lat="32.743907928" lon="35.048503876">
  <ele>426.986816</ele>
  <time>2011-06-17T05:09:00Z</time>
  <speed>3.360000</speed>
</trkpt>
<trkpt lat="32.743907928" lon="35.048469543">
  <ele>426.377441</ele>
  <time>2011-06-17T05:09:01Z</time>
  <speed>3.030000</speed>
</trkpt>
<trkpt lat="32.743919373" lon="35.048439026">
  <ele>425.354004</ele>
  <time>2011-06-17T05:09:02Z</time>
  <speed>2.950000</speed>
</trkpt>
<trkpt lat="32.743930817" lon="35.048374176">
  <ele>424.150879</ele>
  <time>2011-06-17T05:09:04Z</time>
  <speed>3.190000</speed>
</trkpt>
<trkpt lat="32.743938446" lon="35.048339844">
  <ele>423.369629</ele>
  <time>2011-06-17T05:09:05Z</time>
  <speed>3.530000</speed>
</trkpt>
<trkpt lat="32.743942261" lon="35.048301697">
  <ele>423.604004</ele>
  <time>2011-06-17T05:09:06Z</time>
  <speed>3.060000</speed>
</trkpt>
<trkpt lat="32.743961334" lon="35.048244476">
  <ele>423.533691</ele>
  <time>2011-06-17T05:09:08Z</time>
  <speed>2.840000</speed>
</trkpt>
<trkpt lat="32.743976593" lon="35.048210144">
  <ele>423.869629</ele>
  <time>2011-06-17T05:09:09Z</time>
  <speed>3.090000</speed>
</trkpt>
<trkpt lat="32.743988037" lon="35.048179626">
  <ele>423.314941</ele>
  <time>2011-06-17T05:09:10Z</time>
  <speed>3.350000</speed>
</trkpt>
<trkpt lat="32.743999481" lon="35.048145294">
  <ele>423.010254</ele>
  <time>2011-06-17T05:09:11Z</time>
  <speed>3.160000</speed>
</trkpt>
<trkpt lat="32.743995667" lon="35.048114777">
  <ele>422.588379</ele>
  <time>2011-06-17T05:09:12Z</time>
  <speed>2.560000</speed>
</trkpt>
<trkpt lat="32.743988037" lon="35.048061371">
  <ele>422.080566</ele>
  <time>2011-06-17T05:09:14Z</time>
  <speed>1.840000</speed>
</trkpt>
<trkpt lat="32.743968964" lon="35.048023224">
  <ele>421.611816</ele>
  <time>2011-06-17T05:09:16Z</time>
  <speed>1.860000</speed>
</trkpt>
<trkpt lat="32.743961334" lon="35.047985077">
  <ele>421.947754</ele>
  <time>2011-06-17T05:09:18Z</time>
  <speed>1.740000</speed>
</trkpt>
<trkpt lat="32.743953705" lon="35.047950745">
  <ele>421.111816</ele>
  <time>2011-06-17T05:09:20Z</time>
  <speed>1.690000</speed>
</trkpt>
<trkpt lat="32.743942261" lon="35.047916412">
  <ele>421.143066</ele>
  <time>2011-06-17T05:09:22Z</time>
  <speed>1.620000</speed>
</trkpt>
<trkpt lat="32.743934631" lon="35.047885895">
  <ele>422.814941</ele>
  <time>2011-06-17T05:09:24Z</time>
  <speed>1.640000</speed>
</trkpt>
<trkpt lat="32.743923187" lon="35.047847748">
  <ele>423.721191</ele>
  <time>2011-06-17T05:09:26Z</time>
  <speed>1.650000</speed>
</trkpt>
<trkpt lat="32.743915558" lon="35.047805786">
  <ele>424.541504</ele>
  <time>2011-06-17T05:09:28Z</time>
  <speed>1.650000</speed>
</trkpt>
<trkpt lat="32.743888855" lon="35.047771454">
  <ele>424.635254</ele>
  <time>2011-06-17T05:09:30Z</time>
  <speed>0.920000</speed>
</trkpt>
<trkpt lat="32.743873596" lon="35.047740936">
  <ele>425.400879</ele>
  <time>2011-06-17T05:09:33Z</time>
  <speed>1.340000</speed>
</trkpt>
<trkpt lat="32.743865967" lon="35.047710419">
  <ele>426.080566</ele>
  <time>2011-06-17T05:09:36Z</time>
  <speed>1.550000</speed>
</trkpt>
<trkpt lat="32.743862152" lon="35.047683716">
  <ele>427.900879</ele>
  <time>2011-06-17T05:09:38Z</time>
  <speed>1.270000</speed>
</trkpt>
<trkpt lat="32.743854523" lon="35.047645569">
  <ele>428.736816</ele>
  <time>2011-06-17T05:09:40Z</time>
  <speed>1.600000</speed>
</trkpt>
<trkpt lat="32.743850708" lon="35.047607422">
  <ele>430.127441</ele>
  <time>2011-06-17T05:09:42Z</time>
  <speed>1.710000</speed>
</trkpt>
<trkpt lat="32.743846893" lon="35.047569275">
  <ele>430.924316</ele>
  <time>2011-06-17T05:09:44Z</time>
  <speed>1.750000</speed>
</trkpt>
<trkpt lat="32.743843079" lon="35.047523499">
  <ele>431.549316</ele>
  <time>2011-06-17T05:09:46Z</time>
  <speed>1.890000</speed>
</trkpt>
<trkpt lat="32.743835449" lon="35.047489166">
  <ele>431.939941</ele>
  <time>2011-06-17T05:09:48Z</time>
  <speed>1.580000</speed>
</trkpt>
<trkpt lat="32.743820190" lon="35.047458649">
  <ele>431.439941</ele>
  <time>2011-06-17T05:09:50Z</time>
  <speed>1.830000</speed>
</trkpt>
<trkpt lat="32.743816376" lon="35.047416687">
  <ele>431.760254</ele>
  <time>2011-06-17T05:09:52Z</time>
  <speed>1.810000</speed>
</trkpt>
<trkpt lat="32.743812561" lon="35.047374725">
  <ele>431.908691</ele>
  <time>2011-06-17T05:09:54Z</time>
  <speed>1.800000</speed>
</trkpt>
<trkpt lat="32.743808746" lon="35.047332764">
  <ele>431.775879</ele>
  <time>2011-06-17T05:09:56Z</time>
  <speed>2.000000</speed>
</trkpt>
<trkpt lat="32.743797302" lon="35.047290802">
  <ele>432.158691</ele>
  <time>2011-06-17T05:09:58Z</time>
  <speed>2.350000</speed>
</trkpt>
<trkpt lat="32.743774414" lon="35.047256470">
  <ele>431.080566</ele>
  <time>2011-06-17T05:10:00Z</time>
  <speed>1.900000</speed>
</trkpt>
<trkpt lat="32.743743896" lon="35.047233582">
  <ele>431.689941</ele>
  <time>2011-06-17T05:10:02Z</time>
  <speed>1.830000</speed>
</trkpt>
<trkpt lat="32.743713379" lon="35.047210693">
  <ele>431.900879</ele>
  <time>2011-06-17T05:10:04Z</time>
  <speed>1.860000</speed>
</trkpt>
<trkpt lat="32.743690491" lon="35.047168732">
  <ele>431.658691</ele>
  <time>2011-06-17T05:10:06Z</time>
  <speed>2.140000</speed>
</trkpt>
<trkpt lat="32.743663788" lon="35.047130585">
  <ele>432.432129</ele>
  <time>2011-06-17T05:10:08Z</time>
  <speed>2.020000</speed>
</trkpt>
<trkpt lat="32.743644714" lon="35.047088623">
  <ele>431.564941</ele>
  <time>2011-06-17T05:10:10Z</time>
  <speed>2.280000</speed>
</trkpt>
<trkpt lat="32.743621826" lon="35.047035217">
  <ele>431.174316</ele>
  <time>2011-06-17T05:10:12Z</time>
  <speed>2.700000</speed>
</trkpt>
<trkpt lat="32.743598938" lon="35.046985626">
  <ele>431.314941</ele>
  <time>2011-06-17T05:10:14Z</time>
  <speed>2.460000</speed>
</trkpt>
<trkpt lat="32.743572235" lon="35.046947479">
  <ele>431.596191</ele>
  <time>2011-06-17T05:10:16Z</time>
  <speed>2.300000</speed>
</trkpt>
<trkpt lat="32.743545532" lon="35.046901703">
  <ele>431.502441</ele>
  <time>2011-06-17T05:10:18Z</time>
  <speed>2.120000</speed>
</trkpt>
<trkpt lat="32.743511200" lon="35.046871185">
  <ele>431.369629</ele>
  <time>2011-06-17T05:10:20Z</time>
  <speed>2.340000</speed>
</trkpt>
<trkpt lat="32.743484497" lon="35.046844482">
  <ele>431.400879</ele>
  <time>2011-06-17T05:10:22Z</time>
  <speed>2.240000</speed>
</trkpt>
<trkpt lat="32.743453979" lon="35.046817780">
  <ele>431.916504</ele>
  <time>2011-06-17T05:10:24Z</time>
  <speed>1.660000</speed>
</trkpt>
<trkpt lat="32.743438721" lon="35.046779633">
  <ele>432.408691</ele>
  <time>2011-06-17T05:10:26Z</time>
  <speed>1.710000</speed>
</trkpt>
<trkpt lat="32.743419647" lon="35.046756744">
  <ele>433.182129</ele>
  <time>2011-06-17T05:10:28Z</time>
  <speed>1.580000</speed>
</trkpt>
<trkpt lat="32.743404388" lon="35.046726227">
  <ele>434.143066</ele>
  <time>2011-06-17T05:10:30Z</time>
  <speed>1.730000</speed>
</trkpt>
<trkpt lat="32.743385315" lon="35.046691895">
  <ele>434.729004</ele>
  <time>2011-06-17T05:10:32Z</time>
  <speed>2.070000</speed>
</trkpt>
<trkpt lat="32.743377686" lon="35.046653748">
  <ele>435.010254</ele>
  <time>2011-06-17T05:10:34Z</time>
  <speed>2.020000</speed>
</trkpt>
<trkpt lat="32.743339539" lon="35.046615601">
  <ele>434.619629</ele>
  <time>2011-06-17T05:10:36Z</time>
  <speed>2.140000</speed>
</trkpt>
<trkpt lat="32.743301392" lon="35.046588898">
  <ele>434.150879</ele>
  <time>2011-06-17T05:10:38Z</time>
  <speed>2.330000</speed>
</trkpt>
<trkpt lat="32.743263245" lon="35.046566010">
  <ele>434.447754</ele>
  <time>2011-06-17T05:10:40Z</time>
  <speed>1.950000</speed>
</trkpt>
<trkpt lat="32.743228912" lon="35.046546936">
  <ele>434.572754</ele>
  <time>2011-06-17T05:10:42Z</time>
  <speed>2.010000</speed>
</trkpt>
<trkpt lat="32.743198395" lon="35.046527863">
  <ele>434.064941</ele>
  <time>2011-06-17T05:10:44Z</time>
  <speed>2.610000</speed>
</trkpt>
<trkpt lat="32.743156433" lon="35.046497345">
  <ele>433.768066</ele>
  <time>2011-06-17T05:10:46Z</time>
  <speed>2.220000</speed>
</trkpt>
<trkpt lat="32.743118286" lon="35.046489716">
  <ele>433.111816</ele>
  <time>2011-06-17T05:10:48Z</time>
  <speed>2.150000</speed>
</trkpt>
<trkpt lat="32.743080139" lon="35.046482086">
  <ele>432.689941</ele>
  <time>2011-06-17T05:10:50Z</time>
  <speed>2.060000</speed>
</trkpt>
<trkpt lat="32.743041992" lon="35.046474457">
  <ele>432.111816</ele>
  <time>2011-06-17T05:10:52Z</time>
  <speed>1.860000</speed>
</trkpt>
<trkpt lat="32.743011475" lon="35.046455383">
  <ele>431.377441</ele>
  <time>2011-06-17T05:10:54Z</time>
  <speed>1.810000</speed>
</trkpt>
<trkpt lat="32.742969513" lon="35.046466827">
  <ele>430.994629</ele>
  <time>2011-06-17T05:10:56Z</time>
  <speed>2.110000</speed>
</trkpt>
<trkpt lat="32.742935181" lon="35.046474457">
  <ele>431.033691</ele>
  <time>2011-06-17T05:10:58Z</time>
  <speed>2.040000</speed>
</trkpt>
<trkpt lat="32.742897034" lon="35.046482086">
  <ele>430.689941</ele>
  <time>2011-06-17T05:11:00Z</time>
  <speed>1.840000</speed>
</trkpt>
<trkpt lat="32.742866516" lon="35.046482086">
  <ele>430.205566</ele>
  <time>2011-06-17T05:11:02Z</time>
  <speed>1.360000</speed>
</trkpt>
<trkpt lat="32.742835999" lon="35.046470642">
  <ele>429.697754</ele>
  <time>2011-06-17T05:11:04Z</time>
  <speed>1.620000</speed>
</trkpt>
<trkpt lat="32.742797852" lon="35.046474457">
  <ele>430.611816</ele>
  <time>2011-06-17T05:11:06Z</time>
  <speed>1.520000</speed>
</trkpt>
<trkpt lat="32.742759705" lon="35.046478271">
  <ele>429.799316</ele>
  <time>2011-06-17T05:11:08Z</time>
  <speed>1.460000</speed>
</trkpt>
<trkpt lat="32.742721558" lon="35.046504974">
  <ele>430.869629</ele>
  <time>2011-06-17T05:11:10Z</time>
  <speed>2.020000</speed>
</trkpt>
<trkpt lat="32.742691040" lon="35.046531677">
  <ele>430.557129</ele>
  <time>2011-06-17T05:11:12Z</time>
  <speed>1.550000</speed>
</trkpt>
<trkpt lat="32.742656708" lon="35.046527863">
  <ele>430.189941</ele>
  <time>2011-06-17T05:11:14Z</time>
  <speed>1.280000</speed>
</trkpt>
<trkpt lat="32.742630005" lon="35.046539307">
  <ele>430.486816</ele>
  <time>2011-06-17T05:11:16Z</time>
  <speed>0.980000</speed>
</trkpt>
<trkpt lat="32.742599487" lon="35.046562195">
  <ele>429.822754</ele>
  <time>2011-06-17T05:11:19Z</time>
  <speed>0.950000</speed>
</trkpt>
<trkpt lat="32.742565155" lon="35.046566010">
  <ele>429.822754</ele>
  <time>2011-06-17T05:11:21Z</time>
  <speed>1.520000</speed>
</trkpt>
<trkpt lat="32.742523193" lon="35.046569824">
  <ele>430.416504</ele>
  <time>2011-06-17T05:11:23Z</time>
  <speed>1.560000</speed>
</trkpt>
<trkpt lat="32.742492676" lon="35.046573639">
  <ele>430.932129</ele>
  <time>2011-06-17T05:11:25Z</time>
  <speed>1.570000</speed>
</trkpt>
<trkpt lat="32.742458344" lon="35.046569824">
  <ele>431.127441</ele>
  <time>2011-06-17T05:11:27Z</time>
  <speed>1.530000</speed>
</trkpt>
<trkpt lat="32.742420197" lon="35.046573639">
  <ele>431.557129</ele>
  <time>2011-06-17T05:11:29Z</time>
  <speed>1.940000</speed>
</trkpt>
<trkpt lat="32.742385864" lon="35.046569824">
  <ele>431.697754</ele>
  <time>2011-06-17T05:11:31Z</time>
  <speed>1.780000</speed>
</trkpt>
<trkpt lat="32.742343903" lon="35.046585083">
  <ele>431.354004</ele>
  <time>2011-06-17T05:11:33Z</time>
  <speed>1.480000</speed>
</trkpt>
<trkpt lat="32.742317200" lon="35.046600342">
  <ele>432.174316</ele>
  <time>2011-06-17T05:11:34Z</time>
  <speed>1.380000</speed>
</trkpt>
<trkpt lat="32.742267609" lon="35.046569824">
  <ele>432.002441</ele>
  <time>2011-06-17T05:11:37Z</time>
  <speed>1.840000</speed>
</trkpt>
<trkpt lat="32.742233276" lon="35.046581268">
  <ele>431.666504</ele>
  <time>2011-06-17T05:11:39Z</time>
  <speed>1.860000</speed>
</trkpt>
<trkpt lat="32.742191315" lon="35.046596527">
  <ele>431.854004</ele>
  <time>2011-06-17T05:11:41Z</time>
  <speed>2.170000</speed>
</trkpt>
<trkpt lat="32.742153168" lon="35.046604156">
  <ele>431.322754</ele>
  <time>2011-06-17T05:11:43Z</time>
  <speed>2.090000</speed>
</trkpt>
<trkpt lat="32.742107391" lon="35.046607971">
  <ele>430.916504</ele>
  <time>2011-06-17T05:11:45Z</time>
  <speed>2.010000</speed>
</trkpt>
<trkpt lat="32.742073059" lon="35.046600342">
  <ele>430.963379</ele>
  <time>2011-06-17T05:11:47Z</time>
  <speed>2.010000</speed>
</trkpt>
<trkpt lat="32.742034912" lon="35.046611786">
  <ele>430.197754</ele>
  <time>2011-06-17T05:11:49Z</time>
  <speed>2.040000</speed>
</trkpt>
<trkpt lat="32.742004395" lon="35.046623230">
  <ele>430.744629</ele>
  <time>2011-06-17T05:11:50Z</time>
  <speed>2.060000</speed>
</trkpt>
<trkpt lat="32.741966248" lon="35.046630859">
  <ele>429.963379</ele>
  <time>2011-06-17T05:11:52Z</time>
  <speed>1.840000</speed>
</trkpt>
<trkpt lat="32.741928101" lon="35.046627045">
  <ele>430.314941</ele>
  <time>2011-06-17T05:11:54Z</time>
  <speed>1.690000</speed>
</trkpt>
<trkpt lat="32.741889954" lon="35.046638489">
  <ele>430.049316</ele>
  <time>2011-06-17T05:11:56Z</time>
  <speed>2.170000</speed>
</trkpt>
<trkpt lat="32.741851807" lon="35.046676636">
  <ele>429.205566</ele>
  <time>2011-06-17T05:11:58Z</time>
  <speed>2.730000</speed>
</trkpt>
<trkpt lat="32.741828918" lon="35.046688080">
  <ele>429.096191</ele>
  <time>2011-06-17T05:11:59Z</time>
  <speed>2.920000</speed>
</trkpt>
<trkpt lat="32.741794586" lon="35.046680450">
  <ele>429.377441</ele>
  <time>2011-06-17T05:12:00Z</time>
  <speed>3.120000</speed>
</trkpt>
<trkpt lat="32.741764069" lon="35.046672821">
  <ele>429.244629</ele>
  <time>2011-06-17T05:12:01Z</time>
  <speed>3.440000</speed>
</trkpt>
<trkpt lat="32.741725922" lon="35.046680450">
  <ele>428.932129</ele>
  <time>2011-06-17T05:12:02Z</time>
  <speed>3.700000</speed>
</trkpt>
<trkpt lat="32.741683960" lon="35.046672821">
  <ele>429.088379</ele>
  <time>2011-06-17T05:12:03Z</time>
  <speed>4.120000</speed>
</trkpt>
<trkpt lat="32.741649628" lon="35.046676636">
  <ele>429.111816</ele>
  <time>2011-06-17T05:12:04Z</time>
  <speed>3.920000</speed>
</trkpt>
<trkpt lat="32.741603851" lon="35.046684265">
  <ele>429.588379</ele>
  <time>2011-06-17T05:12:05Z</time>
  <speed>3.690000</speed>
</trkpt>
<trkpt lat="32.741569519" lon="35.046684265">
  <ele>429.986816</ele>
  <time>2011-06-17T05:12:06Z</time>
  <speed>3.250000</speed>
</trkpt>
<trkpt lat="32.741535187" lon="35.046684265">
  <ele>430.682129</ele>
  <time>2011-06-17T05:12:07Z</time>
  <speed>2.810000</speed>
</trkpt>
<trkpt lat="32.741504669" lon="35.046691895">
  <ele>431.088379</ele>
  <time>2011-06-17T05:12:08Z</time>
  <speed>2.820000</speed>
</trkpt>
<trkpt lat="32.741477966" lon="35.046710968">
  <ele>430.627441</ele>
  <time>2011-06-17T05:12:09Z</time>
  <speed>2.250000</speed>
</trkpt>
<trkpt lat="32.741420746" lon="35.046718597">
  <ele>431.666504</ele>
  <time>2011-06-17T05:12:11Z</time>
  <speed>1.930000</speed>
</trkpt>
<trkpt lat="32.741390228" lon="35.046710968">
  <ele>430.955566</ele>
  <time>2011-06-17T05:12:12Z</time>
  <speed>2.930000</speed>
</trkpt>
<trkpt lat="32.741363525" lon="35.046710968">
  <ele>430.150879</ele>
  <time>2011-06-17T05:12:13Z</time>
  <speed>3.060000</speed>
</trkpt>
<trkpt lat="32.741310120" lon="35.046703339">
  <ele>430.119629</ele>
  <time>2011-06-17T05:12:15Z</time>
  <speed>2.670000</speed>
</trkpt>
<trkpt lat="32.741260529" lon="35.046730042">
  <ele>431.604004</ele>
  <time>2011-06-17T05:12:16Z</time>
  <speed>2.730000</speed>
</trkpt>
<trkpt lat="32.741210938" lon="35.046741486">
  <ele>431.010254</ele>
  <time>2011-06-17T05:12:18Z</time>
  <speed>2.060000</speed>
</trkpt>
<trkpt lat="32.741161346" lon="35.046749115">
  <ele>432.354004</ele>
  <time>2011-06-17T05:12:20Z</time>
  <speed>2.060000</speed>
</trkpt>
<trkpt lat="32.741115570" lon="35.046756744">
  <ele>433.611816</ele>
  <time>2011-06-17T05:12:22Z</time>
  <speed>2.430000</speed>
</trkpt>
<trkpt lat="32.741088867" lon="35.046772003">
  <ele>433.807129</ele>
  <time>2011-06-17T05:12:23Z</time>
  <speed>2.690000</speed>
</trkpt>
<trkpt lat="32.741035461" lon="35.046779633">
  <ele>434.057129</ele>
  <time>2011-06-17T05:12:25Z</time>
  <speed>2.870000</speed>
</trkpt>
<trkpt lat="32.741008759" lon="35.046783447">
  <ele>434.307129</ele>
  <time>2011-06-17T05:12:26Z</time>
  <speed>3.110000</speed>
</trkpt>
<trkpt lat="32.740974426" lon="35.046791077">
  <ele>433.869629</ele>
  <time>2011-06-17T05:12:27Z</time>
  <speed>3.060000</speed>
</trkpt>
<trkpt lat="32.740947723" lon="35.046794891">
  <ele>433.869629</ele>
  <time>2011-06-17T05:12:28Z</time>
  <speed>3.310000</speed>
</trkpt>
<trkpt lat="32.740905762" lon="35.046779633">
  <ele>435.322754</ele>
  <time>2011-06-17T05:12:29Z</time>
  <speed>2.920000</speed>
</trkpt>
<trkpt lat="32.740879059" lon="35.046794891">
  <ele>435.486816</ele>
  <time>2011-06-17T05:12:30Z</time>
  <speed>3.000000</speed>
</trkpt>
<trkpt lat="32.740856171" lon="35.046810150">
  <ele>435.713379</ele>
  <time>2011-06-17T05:12:31Z</time>
  <speed>3.250000</speed>
</trkpt>
<trkpt lat="32.740802765" lon="35.046825409">
  <ele>435.322754</ele>
  <time>2011-06-17T05:12:33Z</time>
  <speed>2.750000</speed>
</trkpt>
<trkpt lat="32.740756989" lon="35.046859741">
  <ele>436.010254</ele>
  <time>2011-06-17T05:12:35Z</time>
  <speed>2.540000</speed>
</trkpt>
<trkpt lat="32.740722656" lon="35.046882629">
  <ele>435.447754</ele>
  <time>2011-06-17T05:12:36Z</time>
  <speed>2.610000</speed>
</trkpt>
<trkpt lat="32.740684509" lon="35.046905518">
  <ele>436.533691</ele>
  <time>2011-06-17T05:12:37Z</time>
  <speed>3.070000</speed>
</trkpt>
<trkpt lat="32.740657806" lon="35.046924591">
  <ele>436.369629</ele>
  <time>2011-06-17T05:12:38Z</time>
  <speed>3.480000</speed>
</trkpt>
<trkpt lat="32.740627289" lon="35.046936035">
  <ele>435.869629</ele>
  <time>2011-06-17T05:12:39Z</time>
  <speed>3.400000</speed>
</trkpt>
<trkpt lat="32.740596771" lon="35.046951294">
  <ele>435.283691</ele>
  <time>2011-06-17T05:12:40Z</time>
  <speed>3.500000</speed>
</trkpt>
<trkpt lat="32.740566254" lon="35.046966553">
  <ele>435.135254</ele>
  <time>2011-06-17T05:12:41Z</time>
  <speed>3.330000</speed>
</trkpt>
<trkpt lat="32.740520477" lon="35.046966553">
  <ele>434.229004</ele>
  <time>2011-06-17T05:12:42Z</time>
  <speed>4.170000</speed>
</trkpt>
<trkpt lat="32.740478516" lon="35.046966553">
  <ele>433.986816</ele>
  <time>2011-06-17T05:12:43Z</time>
  <speed>4.210000</speed>
</trkpt>
<trkpt lat="32.740432739" lon="35.046970367">
  <ele>433.525879</ele>
  <time>2011-06-17T05:12:44Z</time>
  <speed>4.330000</speed>
</trkpt>
<trkpt lat="32.740367889" lon="35.047004700">
  <ele>435.588379</ele>
  <time>2011-06-17T05:12:45Z</time>
  <speed>5.440000</speed>
</trkpt>
<trkpt lat="32.740325928" lon="35.047035217">
  <ele>435.080566</ele>
  <time>2011-06-17T05:12:46Z</time>
  <speed>4.500000</speed>
</trkpt>
<trkpt lat="32.740303040" lon="35.047058105">
  <ele>435.182129</ele>
  <time>2011-06-17T05:12:47Z</time>
  <speed>2.410000</speed>
</trkpt>
<trkpt lat="32.740261078" lon="35.047088623">
  <ele>434.697754</ele>
  <time>2011-06-17T05:12:49Z</time>
  <speed>2.900000</speed>
</trkpt>
<trkpt lat="32.740230560" lon="35.047107697">
  <ele>434.893066</ele>
  <time>2011-06-17T05:12:50Z</time>
  <speed>3.170000</speed>
</trkpt>
<trkpt lat="32.740207672" lon="35.047119141">
  <ele>435.127441</ele>
  <time>2011-06-17T05:12:51Z</time>
  <speed>2.450000</speed>
</trkpt>
<trkpt lat="32.740180969" lon="35.047134399">
  <ele>434.854004</ele>
  <time>2011-06-17T05:12:52Z</time>
  <speed>2.890000</speed>
</trkpt>
<trkpt lat="32.740146637" lon="35.047153473">
  <ele>434.049316</ele>
  <time>2011-06-17T05:12:53Z</time>
  <speed>3.630000</speed>
</trkpt>
<trkpt lat="32.740112305" lon="35.047176361">
  <ele>434.127441</ele>
  <time>2011-06-17T05:12:54Z</time>
  <speed>4.140000</speed>
</trkpt>
<trkpt lat="32.740077972" lon="35.047199249">
  <ele>434.244629</ele>
  <time>2011-06-17T05:12:55Z</time>
  <speed>3.830000</speed>
</trkpt>
<trkpt lat="32.740032196" lon="35.047222137">
  <ele>434.760254</ele>
  <time>2011-06-17T05:12:56Z</time>
  <speed>3.850000</speed>
</trkpt>
<trkpt lat="32.739994049" lon="35.047245026">
  <ele>433.893066</ele>
  <time>2011-06-17T05:12:57Z</time>
  <speed>4.490000</speed>
</trkpt>
<trkpt lat="32.739952087" lon="35.047267914">
  <ele>434.150879</ele>
  <time>2011-06-17T05:12:58Z</time>
  <speed>4.760000</speed>
</trkpt>
<trkpt lat="32.739902496" lon="35.047298431">
  <ele>434.619629</ele>
  <time>2011-06-17T05:12:59Z</time>
  <speed>4.840000</speed>
</trkpt>
<trkpt lat="32.739860535" lon="35.047321320">
  <ele>435.096191</ele>
  <time>2011-06-17T05:13:00Z</time>
  <speed>4.330000</speed>
</trkpt>
<trkpt lat="32.739818573" lon="35.047336578">
  <ele>435.752441</ele>
  <time>2011-06-17T05:13:01Z</time>
  <speed>3.680000</speed>
</trkpt>
<trkpt lat="32.739788055" lon="35.047344208">
  <ele>435.799316</ele>
  <time>2011-06-17T05:13:02Z</time>
  <speed>3.410000</speed>
</trkpt>
<trkpt lat="32.739749908" lon="35.047363281">
  <ele>436.486816</ele>
  <time>2011-06-17T05:13:03Z</time>
  <speed>3.610000</speed>
</trkpt>
<trkpt lat="32.739719391" lon="35.047367096">
  <ele>436.393066</ele>
  <time>2011-06-17T05:13:04Z</time>
  <speed>3.660000</speed>
</trkpt>
<trkpt lat="32.739685059" lon="35.047374725">
  <ele>436.299316</ele>
  <time>2011-06-17T05:13:05Z</time>
  <speed>3.810000</speed>
</trkpt>
<trkpt lat="32.739646912" lon="35.047370911">
  <ele>436.689941</ele>
  <time>2011-06-17T05:13:06Z</time>
  <speed>3.930000</speed>
</trkpt>
<trkpt lat="32.739612579" lon="35.047374725">
  <ele>436.650879</ele>
  <time>2011-06-17T05:13:07Z</time>
  <speed>4.220000</speed>
</trkpt>
<trkpt lat="32.739570618" lon="35.047386169">
  <ele>436.799316</ele>
  <time>2011-06-17T05:13:08Z</time>
  <speed>4.170000</speed>
</trkpt>
<trkpt lat="32.739540100" lon="35.047401428">
  <ele>436.268066</ele>
  <time>2011-06-17T05:13:09Z</time>
  <speed>3.820000</speed>
</trkpt>
<trkpt lat="32.739513397" lon="35.047416687">
  <ele>436.510254</ele>
  <time>2011-06-17T05:13:10Z</time>
  <speed>3.050000</speed>
</trkpt>
<trkpt lat="32.739467621" lon="35.047416687">
  <ele>437.338379</ele>
  <time>2011-06-17T05:13:12Z</time>
  <speed>2.750000</speed>
</trkpt>
<trkpt lat="32.739418030" lon="35.047409058">
  <ele>438.971191</ele>
  <time>2011-06-17T05:13:14Z</time>
  <speed>3.200000</speed>
</trkpt>
<trkpt lat="32.739360809" lon="35.047405243">
  <ele>439.596191</ele>
  <time>2011-06-17T05:13:16Z</time>
  <speed>3.460000</speed>
</trkpt>
<trkpt lat="32.739330292" lon="35.047409058">
  <ele>440.197754</ele>
  <time>2011-06-17T05:13:17Z</time>
  <speed>3.710000</speed>
</trkpt>
<trkpt lat="32.739295959" lon="35.047412872">
  <ele>440.768066</ele>
  <time>2011-06-17T05:13:18Z</time>
  <speed>3.800000</speed>
</trkpt>
<trkpt lat="32.739261627" lon="35.047412872">
  <ele>441.377441</ele>
  <time>2011-06-17T05:13:19Z</time>
  <speed>3.670000</speed>
</trkpt>
<trkpt lat="32.739231110" lon="35.047420502">
  <ele>441.314941</ele>
  <time>2011-06-17T05:13:20Z</time>
  <speed>3.250000</speed>
</trkpt>
<trkpt lat="32.739200592" lon="35.047409058">
  <ele>441.986816</ele>
  <time>2011-06-17T05:13:21Z</time>
  <speed>3.260000</speed>
</trkpt>
<trkpt lat="32.739170074" lon="35.047359467">
  <ele>443.385254</ele>
  <time>2011-06-17T05:13:23Z</time>
  <speed>2.460000</speed>
</trkpt>
<trkpt lat="32.739158630" lon="35.047306061">
  <ele>443.783691</ele>
  <time>2011-06-17T05:13:25Z</time>
  <speed>3.010000</speed>
</trkpt>
<trkpt lat="32.739162445" lon="35.047245026">
  <ele>444.854004</ele>
  <time>2011-06-17T05:13:27Z</time>
  <speed>3.190000</speed>
</trkpt>
<trkpt lat="32.739170074" lon="35.047210693">
  <ele>444.744629</ele>
  <time>2011-06-17T05:13:28Z</time>
  <speed>3.690000</speed>
</trkpt>
<trkpt lat="32.739189148" lon="35.047172546">
  <ele>444.619629</ele>
  <time>2011-06-17T05:13:29Z</time>
  <speed>3.830000</speed>
</trkpt>
<trkpt lat="32.739204407" lon="35.047138214">
  <ele>444.650879</ele>
  <time>2011-06-17T05:13:30Z</time>
  <speed>3.820000</speed>
</trkpt>
<trkpt lat="32.739223480" lon="35.047103882">
  <ele>445.518066</ele>
  <time>2011-06-17T05:13:31Z</time>
  <speed>3.640000</speed>
</trkpt>
<trkpt lat="32.739246368" lon="35.047069550">
  <ele>445.518066</ele>
  <time>2011-06-17T05:13:32Z</time>
  <speed>4.100000</speed>
</trkpt>
<trkpt lat="32.739261627" lon="35.047031403">
  <ele>445.939941</ele>
  <time>2011-06-17T05:13:33Z</time>
  <speed>4.120000</speed>
</trkpt>
<trkpt lat="32.739276886" lon="35.046989441">
  <ele>446.166504</ele>
  <time>2011-06-17T05:13:34Z</time>
  <speed>4.470000</speed>
</trkpt>
<trkpt lat="32.739295959" lon="35.046947479">
  <ele>446.369629</ele>
  <time>2011-06-17T05:13:35Z</time>
  <speed>4.590000</speed>
</trkpt>
<trkpt lat="32.739318848" lon="35.046901703">
  <ele>446.322754</ele>
  <time>2011-06-17T05:13:36Z</time>
  <speed>4.670000</speed>
</trkpt>
<trkpt lat="32.739345551" lon="35.046863556">
  <ele>446.260254</ele>
  <time>2011-06-17T05:13:37Z</time>
  <speed>4.890000</speed>
</trkpt>
<trkpt lat="32.739368439" lon="35.046821594">
  <ele>446.236816</ele>
  <time>2011-06-17T05:13:38Z</time>
  <speed>4.950000</speed>
</trkpt>
<trkpt lat="32.739395142" lon="35.046772003">
  <ele>446.135254</ele>
  <time>2011-06-17T05:13:39Z</time>
  <speed>5.050000</speed>
</trkpt>
<trkpt lat="32.739414215" lon="35.046730042">
  <ele>445.439941</ele>
  <time>2011-06-17T05:13:40Z</time>
  <speed>5.010000</speed>
</trkpt>
<trkpt lat="32.739429474" lon="35.046684265">
  <ele>444.838379</ele>
  <time>2011-06-17T05:13:41Z</time>
  <speed>5.120000</speed>
</trkpt>
<trkpt lat="32.739440918" lon="35.046630859">
  <ele>444.775879</ele>
  <time>2011-06-17T05:13:42Z</time>
  <speed>5.580000</speed>
</trkpt>
<trkpt lat="32.739452362" lon="35.046573639">
  <ele>444.416504</ele>
  <time>2011-06-17T05:13:43Z</time>
  <speed>5.720000</speed>
</trkpt>
<trkpt lat="32.739467621" lon="35.046512604">
  <ele>444.041504</ele>
  <time>2011-06-17T05:13:44Z</time>
  <speed>5.810000</speed>
</trkpt>
<trkpt lat="32.739471436" lon="35.046455383">
  <ele>444.330566</ele>
  <time>2011-06-17T05:13:45Z</time>
  <speed>5.510000</speed>
</trkpt>
<trkpt lat="32.739479065" lon="35.046394348">
  <ele>443.854004</ele>
  <time>2011-06-17T05:13:46Z</time>
  <speed>5.630000</speed>
</trkpt>
<trkpt lat="32.739479065" lon="35.046337128">
  <ele>443.682129</ele>
  <time>2011-06-17T05:13:47Z</time>
  <speed>5.560000</speed>
</trkpt>
<trkpt lat="32.739471436" lon="35.046276093">
  <ele>443.689941</ele>
  <time>2011-06-17T05:13:48Z</time>
  <speed>5.890000</speed>
</trkpt>
<trkpt lat="32.739467621" lon="35.046207428">
  <ele>443.479004</ele>
  <time>2011-06-17T05:13:49Z</time>
  <speed>6.260000</speed>
</trkpt>
<trkpt lat="32.739459991" lon="35.046138763">
  <ele>443.096191</ele>
  <time>2011-06-17T05:13:50Z</time>
  <speed>6.240000</speed>
</trkpt>
<trkpt lat="32.739448547" lon="35.046070099">
  <ele>442.854004</ele>
  <time>2011-06-17T05:13:51Z</time>
  <speed>6.490000</speed>
</trkpt>
<trkpt lat="32.739440918" lon="35.046001434">
  <ele>442.689941</ele>
  <time>2011-06-17T05:13:52Z</time>
  <speed>6.970000</speed>
</trkpt>
<trkpt lat="32.739418030" lon="35.045928955">
  <ele>442.518066</ele>
  <time>2011-06-17T05:13:53Z</time>
  <speed>7.300000</speed>
</trkpt>
<trkpt lat="32.739395142" lon="35.045848846">
  <ele>441.877441</ele>
  <time>2011-06-17T05:13:54Z</time>
  <speed>7.380000</speed>
</trkpt>
<trkpt lat="32.739383698" lon="35.045768738">
  <ele>441.549316</ele>
  <time>2011-06-17T05:13:55Z</time>
  <speed>7.250000</speed>
</trkpt>
<trkpt lat="32.739376068" lon="35.045684814">
  <ele>440.979004</ele>
  <time>2011-06-17T05:13:56Z</time>
  <speed>7.190000</speed>
</trkpt>
<trkpt lat="32.739372253" lon="35.045612335">
  <ele>440.518066</ele>
  <time>2011-06-17T05:13:57Z</time>
  <speed>6.930000</speed>
</trkpt>
<trkpt lat="32.739364624" lon="35.045539856">
  <ele>440.111816</ele>
  <time>2011-06-17T05:13:58Z</time>
  <speed>6.890000</speed>
</trkpt>
<trkpt lat="32.739345551" lon="35.045471191">
  <ele>439.627441</ele>
  <time>2011-06-17T05:13:59Z</time>
  <speed>6.530000</speed>
</trkpt>
<trkpt lat="32.739326477" lon="35.045402527">
  <ele>439.361816</ele>
  <time>2011-06-17T05:14:00Z</time>
  <speed>6.390000</speed>
</trkpt>
<trkpt lat="32.739299774" lon="35.045341492">
  <ele>439.072754</ele>
  <time>2011-06-17T05:14:01Z</time>
  <speed>6.180000</speed>
</trkpt>
<trkpt lat="32.739284515" lon="35.045280457">
  <ele>438.814941</ele>
  <time>2011-06-17T05:14:02Z</time>
  <speed>5.750000</speed>
</trkpt>
<trkpt lat="32.739261627" lon="35.045230865">
  <ele>438.627441</ele>
  <time>2011-06-17T05:14:03Z</time>
  <speed>4.900000</speed>
</trkpt>
<trkpt lat="32.739253998" lon="35.045177460">
  <ele>438.596191</ele>
  <time>2011-06-17T05:14:04Z</time>
  <speed>4.140000</speed>
</trkpt>
<trkpt lat="32.739261627" lon="35.045135498">
  <ele>438.400879</ele>
  <time>2011-06-17T05:14:05Z</time>
  <speed>3.130000</speed>
</trkpt>
<trkpt lat="32.739242554" lon="35.045093536">
  <ele>438.338379</ele>
  <time>2011-06-17T05:14:06Z</time>
  <speed>3.700000</speed>
</trkpt>
<trkpt lat="32.739196777" lon="35.045043945">
  <ele>437.744629</ele>
  <time>2011-06-17T05:14:07Z</time>
  <speed>4.360000</speed>
</trkpt>
<trkpt lat="32.739173889" lon="35.045005798">
  <ele>437.471191</ele>
  <time>2011-06-17T05:14:08Z</time>
  <speed>4.380000</speed>
</trkpt>
<trkpt lat="32.739143372" lon="35.044967651">
  <ele>437.416504</ele>
  <time>2011-06-17T05:14:09Z</time>
  <speed>4.450000</speed>
</trkpt>
<trkpt lat="32.739116669" lon="35.044925690">
  <ele>437.385254</ele>
  <time>2011-06-17T05:14:10Z</time>
  <speed>4.330000</speed>
</trkpt>
<trkpt lat="32.739101410" lon="35.044895172">
  <ele>437.291504</ele>
  <time>2011-06-17T05:14:11Z</time>
  <speed>3.620000</speed>
</trkpt>
<trkpt lat="32.739086151" lon="35.044860840">
  <ele>437.088379</ele>
  <time>2011-06-17T05:14:12Z</time>
  <speed>3.580000</speed>
</trkpt>
<trkpt lat="32.739067078" lon="35.044826508">
  <ele>436.971191</ele>
  <time>2011-06-17T05:14:13Z</time>
  <speed>3.530000</speed>
</trkpt>
<trkpt lat="32.739044189" lon="35.044792175">
  <ele>436.986816</ele>
  <time>2011-06-17T05:14:14Z</time>
  <speed>3.660000</speed>
</trkpt>
<trkpt lat="32.739021301" lon="35.044742584">
  <ele>437.119629</ele>
  <time>2011-06-17T05:14:16Z</time>
  <speed>2.690000</speed>
</trkpt>
<trkpt lat="32.738998413" lon="35.044696808">
  <ele>436.877441</ele>
  <time>2011-06-17T05:14:18Z</time>
  <speed>2.920000</speed>
</trkpt>
<trkpt lat="32.738986969" lon="35.044658661">
  <ele>436.752441</ele>
  <time>2011-06-17T05:14:20Z</time>
  <speed>2.340000</speed>
</trkpt>
<trkpt lat="32.738937378" lon="35.044601440">
  <ele>436.971191</ele>
  <time>2011-06-17T05:14:22Z</time>
  <speed>2.690000</speed>
</trkpt>
<trkpt lat="32.738914490" lon="35.044574738">
  <ele>436.947754</ele>
  <time>2011-06-17T05:14:23Z</time>
  <speed>2.950000</speed>
</trkpt>
<trkpt lat="32.738868713" lon="35.044544220">
  <ele>437.877441</ele>
  <time>2011-06-17T05:14:24Z</time>
  <speed>2.760000</speed>
</trkpt>
<trkpt lat="32.738834381" lon="35.044528961">
  <ele>438.463379</ele>
  <time>2011-06-17T05:14:25Z</time>
  <speed>2.430000</speed>
</trkpt>
<trkpt lat="32.738811493" lon="35.044506073">
  <ele>438.822754</ele>
  <time>2011-06-17T05:14:26Z</time>
  <speed>2.510000</speed>
</trkpt>
<trkpt lat="32.738777161" lon="35.044490814">
  <ele>437.791504</ele>
  <time>2011-06-17T05:14:27Z</time>
  <speed>2.430000</speed>
</trkpt>
<trkpt lat="32.738746643" lon="35.044467926">
  <ele>436.463379</ele>
  <time>2011-06-17T05:14:28Z</time>
  <speed>2.910000</speed>
</trkpt>
<trkpt lat="32.738719940" lon="35.044437408">
  <ele>435.424316</ele>
  <time>2011-06-17T05:14:29Z</time>
  <speed>3.530000</speed>
</trkpt>
<trkpt lat="32.738704681" lon="35.044403076">
  <ele>435.166504</ele>
  <time>2011-06-17T05:14:30Z</time>
  <speed>3.430000</speed>
</trkpt>
<trkpt lat="32.738681793" lon="35.044376373">
  <ele>435.033691</ele>
  <time>2011-06-17T05:14:31Z</time>
  <speed>3.770000</speed>
</trkpt>
<trkpt lat="32.738662720" lon="35.044342041">
  <ele>435.510254</ele>
  <time>2011-06-17T05:14:32Z</time>
  <speed>3.330000</speed>
</trkpt>
<trkpt lat="32.738647461" lon="35.044307709">
  <ele>435.580566</ele>
  <time>2011-06-17T05:14:33Z</time>
  <speed>2.910000</speed>
</trkpt>
<trkpt lat="32.738628387" lon="35.044273376">
  <ele>435.955566</ele>
  <time>2011-06-17T05:14:34Z</time>
  <speed>3.040000</speed>
</trkpt>
<trkpt lat="32.738613129" lon="35.044246674">
  <ele>435.916504</ele>
  <time>2011-06-17T05:14:35Z</time>
  <speed>2.920000</speed>
</trkpt>
<trkpt lat="32.738594055" lon="35.044219971">
  <ele>436.322754</ele>
  <time>2011-06-17T05:14:36Z</time>
  <speed>2.780000</speed>
</trkpt>
<trkpt lat="32.738574982" lon="35.044166565">
  <ele>437.479004</ele>
  <time>2011-06-17T05:14:38Z</time>
  <speed>2.830000</speed>
</trkpt>
<trkpt lat="32.738552094" lon="35.044116974">
  <ele>438.252441</ele>
  <time>2011-06-17T05:14:40Z</time>
  <speed>2.690000</speed>
</trkpt>
<trkpt lat="32.738533020" lon="35.044063568">
  <ele>439.244629</ele>
  <time>2011-06-17T05:14:42Z</time>
  <speed>2.850000</speed>
</trkpt>
<trkpt lat="32.738517761" lon="35.044013977">
  <ele>439.369629</ele>
  <time>2011-06-17T05:14:44Z</time>
  <speed>2.320000</speed>
</trkpt>
<trkpt lat="32.738498688" lon="35.043968201">
  <ele>439.768066</ele>
  <time>2011-06-17T05:14:46Z</time>
  <speed>2.690000</speed>
</trkpt>
<trkpt lat="32.738479614" lon="35.043914795">
  <ele>439.643066</ele>
  <time>2011-06-17T05:14:48Z</time>
  <speed>2.910000</speed>
</trkpt>
<trkpt lat="32.738456726" lon="35.043857574">
  <ele>439.619629</ele>
  <time>2011-06-17T05:14:50Z</time>
  <speed>3.050000</speed>
</trkpt>
<trkpt lat="32.738445282" lon="35.043827057">
  <ele>439.385254</ele>
  <time>2011-06-17T05:14:51Z</time>
  <speed>3.130000</speed>
</trkpt>
<trkpt lat="32.738426208" lon="35.043792725">
  <ele>439.127441</ele>
  <time>2011-06-17T05:14:52Z</time>
  <speed>4.030000</speed>
</trkpt>
<trkpt lat="32.738403320" lon="35.043754578">
  <ele>439.057129</ele>
  <time>2011-06-17T05:14:53Z</time>
  <speed>3.630000</speed>
</trkpt>
<trkpt lat="32.738384247" lon="35.043716431">
  <ele>439.072754</ele>
  <time>2011-06-17T05:14:54Z</time>
  <speed>4.350000</speed>
</trkpt>
<trkpt lat="32.738368988" lon="35.043685913">
  <ele>439.291504</ele>
  <time>2011-06-17T05:14:55Z</time>
  <speed>3.330000</speed>
</trkpt>
<trkpt lat="32.738353729" lon="35.043655396">
  <ele>438.846191</ele>
  <time>2011-06-17T05:14:56Z</time>
  <speed>2.700000</speed>
</trkpt>
<trkpt lat="32.738357544" lon="35.043601990">
  <ele>438.924316</ele>
  <time>2011-06-17T05:14:58Z</time>
  <speed>2.360000</speed>
</trkpt>
<trkpt lat="32.738361359" lon="35.043556213">
  <ele>439.143066</ele>
  <time>2011-06-17T05:15:00Z</time>
  <speed>2.150000</speed>
</trkpt>
<trkpt lat="32.738357544" lon="35.043506622">
  <ele>438.783691</ele>
  <time>2011-06-17T05:15:02Z</time>
  <speed>2.160000</speed>
</trkpt>
<trkpt lat="32.738353729" lon="35.043453217">
  <ele>438.158691</ele>
  <time>2011-06-17T05:15:04Z</time>
  <speed>2.260000</speed>
</trkpt>
<trkpt lat="32.738342285" lon="35.043395996">
  <ele>437.549316</ele>
  <time>2011-06-17T05:15:06Z</time>
  <speed>2.130000</speed>
</trkpt>
<trkpt lat="32.738353729" lon="35.043342590">
  <ele>437.111816</ele>
  <time>2011-06-17T05:15:08Z</time>
  <speed>2.590000</speed>
</trkpt>
<trkpt lat="32.738353729" lon="35.043289185">
  <ele>436.713379</ele>
  <time>2011-06-17T05:15:10Z</time>
  <speed>1.770000</speed>
</trkpt>
<trkpt lat="32.738372803" lon="35.043243408">
  <ele>436.463379</ele>
  <time>2011-06-17T05:15:12Z</time>
  <speed>2.330000</speed>
</trkpt>
<trkpt lat="32.738388062" lon="35.043212891">
  <ele>436.369629</ele>
  <time>2011-06-17T05:15:13Z</time>
  <speed>2.350000</speed>
</trkpt>
<trkpt lat="32.738407135" lon="35.043190002">
  <ele>436.275879</ele>
  <time>2011-06-17T05:15:14Z</time>
  <speed>1.950000</speed>
</trkpt>
<trkpt lat="32.738445282" lon="35.043186188">
  <ele>436.049316</ele>
  <time>2011-06-17T05:15:15Z</time>
  <speed>2.540000</speed>
</trkpt>
<trkpt lat="32.738491058" lon="35.043174744">
  <ele>435.557129</ele>
  <time>2011-06-17T05:15:16Z</time>
  <speed>2.960000</speed>
</trkpt>
<trkpt lat="32.738529205" lon="35.043190002">
  <ele>434.166504</ele>
  <time>2011-06-17T05:15:18Z</time>
  <speed>1.830000</speed>
</trkpt>
<trkpt lat="32.738529205" lon="35.043220520">
  <ele>432.697754</ele>
  <time>2011-06-17T05:15:20Z</time>
  <speed>2.260000</speed>
</trkpt>
<trkpt lat="32.738533020" lon="35.043258667">
  <ele>432.518066</ele>
  <time>2011-06-17T05:15:22Z</time>
  <speed>1.910000</speed>
</trkpt>
<trkpt lat="32.738548279" lon="35.043312073">
  <ele>432.729004</ele>
  <time>2011-06-17T05:15:25Z</time>
  <speed>2.120000</speed>
</trkpt>
<trkpt lat="32.738559723" lon="35.043361664">
  <ele>432.604004</ele>
  <time>2011-06-17T05:15:27Z</time>
  <speed>2.130000</speed>
</trkpt>
<trkpt lat="32.738590240" lon="35.043426514">
  <ele>432.307129</ele>
  <time>2011-06-17T05:15:29Z</time>
  <speed>2.390000</speed>
</trkpt>
<trkpt lat="32.738609314" lon="35.043453217">
  <ele>432.557129</ele>
  <time>2011-06-17T05:15:30Z</time>
  <speed>2.560000</speed>
</trkpt>
<trkpt lat="32.738616943" lon="35.043498993">
  <ele>433.807129</ele>
  <time>2011-06-17T05:15:32Z</time>
  <speed>2.490000</speed>
</trkpt>
<trkpt lat="32.738628387" lon="35.043567657">
  <ele>436.619629</ele>
  <time>2011-06-17T05:15:34Z</time>
  <speed>2.840000</speed>
</trkpt>
<trkpt lat="32.738643646" lon="35.043594360">
  <ele>437.354004</ele>
  <time>2011-06-17T05:15:35Z</time>
  <speed>3.020000</speed>
</trkpt>
<trkpt lat="32.738658905" lon="35.043624878">
  <ele>437.611816</ele>
  <time>2011-06-17T05:15:36Z</time>
  <speed>3.190000</speed>
</trkpt>
<trkpt lat="32.738670349" lon="35.043655396">
  <ele>439.330566</ele>
  <time>2011-06-17T05:15:37Z</time>
  <speed>3.070000</speed>
</trkpt>
<trkpt lat="32.738689423" lon="35.043682098">
  <ele>440.064941</ele>
  <time>2011-06-17T05:15:38Z</time>
  <speed>2.710000</speed>
</trkpt>
<trkpt lat="32.738723755" lon="35.043724060">
  <ele>440.432129</ele>
  <time>2011-06-17T05:15:40Z</time>
  <speed>2.240000</speed>
</trkpt>
<trkpt lat="32.738750458" lon="35.043758392">
  <ele>440.791504</ele>
  <time>2011-06-17T05:15:42Z</time>
  <speed>2.490000</speed>
</trkpt>
<trkpt lat="32.738780975" lon="35.043796539">
  <ele>441.518066</ele>
  <time>2011-06-17T05:15:44Z</time>
  <speed>2.940000</speed>
</trkpt>
<trkpt lat="32.738811493" lon="35.043846130">
  <ele>441.033691</ele>
  <time>2011-06-17T05:15:46Z</time>
  <speed>3.110000</speed>
</trkpt>
<trkpt lat="32.738853455" lon="35.043884277">
  <ele>440.033691</ele>
  <time>2011-06-17T05:15:48Z</time>
  <speed>3.300000</speed>
</trkpt>
<trkpt lat="32.738876343" lon="35.043914795">
  <ele>440.025879</ele>
  <time>2011-06-17T05:15:49Z</time>
  <speed>3.520000</speed>
</trkpt>
<trkpt lat="32.738899231" lon="35.043937683">
  <ele>440.033691</ele>
  <time>2011-06-17T05:15:50Z</time>
  <speed>3.730000</speed>
</trkpt>
<trkpt lat="32.738925934" lon="35.043960571">
  <ele>439.572754</ele>
  <time>2011-06-17T05:15:51Z</time>
  <speed>3.880000</speed>
</trkpt>
<trkpt lat="32.738948822" lon="35.043994904">
  <ele>439.955566</ele>
  <time>2011-06-17T05:15:52Z</time>
  <speed>3.620000</speed>
</trkpt>
<trkpt lat="32.738975525" lon="35.044017792">
  <ele>439.947754</ele>
  <time>2011-06-17T05:15:53Z</time>
  <speed>3.370000</speed>
</trkpt>
<trkpt lat="32.738998413" lon="35.044033051">
  <ele>439.564941</ele>
  <time>2011-06-17T05:15:54Z</time>
  <speed>3.280000</speed>
</trkpt>
<trkpt lat="32.739036560" lon="35.044078827">
  <ele>439.518066</ele>
  <time>2011-06-17T05:15:56Z</time>
  <speed>3.050000</speed>
</trkpt>
<trkpt lat="32.739055634" lon="35.044101715">
  <ele>439.229004</ele>
  <time>2011-06-17T05:15:57Z</time>
  <speed>3.140000</speed>
</trkpt>
<trkpt lat="32.739078522" lon="35.044124603">
  <ele>439.471191</ele>
  <time>2011-06-17T05:15:58Z</time>
  <speed>3.470000</speed>
</trkpt>
<trkpt lat="32.739109039" lon="35.044136047">
  <ele>439.479004</ele>
  <time>2011-06-17T05:15:59Z</time>
  <speed>3.140000</speed>
</trkpt>
<trkpt lat="32.739135742" lon="35.044151306">
  <ele>440.182129</ele>
  <time>2011-06-17T05:16:00Z</time>
  <speed>3.230000</speed>
</trkpt>
<trkpt lat="32.739162445" lon="35.044162750">
  <ele>440.822754</ele>
  <time>2011-06-17T05:16:01Z</time>
  <speed>3.100000</speed>
</trkpt>
<trkpt lat="32.739185333" lon="35.044181824">
  <ele>440.947754</ele>
  <time>2011-06-17T05:16:02Z</time>
  <speed>3.080000</speed>
</trkpt>
<trkpt lat="32.739212036" lon="35.044200897">
  <ele>441.533691</ele>
  <time>2011-06-17T05:16:03Z</time>
  <speed>3.030000</speed>
</trkpt>
<trkpt lat="32.739253998" lon="35.044219971">
  <ele>442.072754</ele>
  <time>2011-06-17T05:16:05Z</time>
  <speed>3.020000</speed>
</trkpt>
<trkpt lat="32.739295959" lon="35.044246674">
  <ele>442.854004</ele>
  <time>2011-06-17T05:16:07Z</time>
  <speed>2.760000</speed>
</trkpt>
<trkpt lat="32.739334106" lon="35.044277191">
  <ele>442.979004</ele>
  <time>2011-06-17T05:16:09Z</time>
  <speed>2.640000</speed>
</trkpt>
<trkpt lat="32.739376068" lon="35.044311523">
  <ele>443.189941</ele>
  <time>2011-06-17T05:16:11Z</time>
  <speed>2.750000</speed>
</trkpt>
<trkpt lat="32.739398956" lon="35.044330597">
  <ele>443.432129</ele>
  <time>2011-06-17T05:16:12Z</time>
  <speed>3.160000</speed>
</trkpt>
<trkpt lat="32.739425659" lon="35.044353485">
  <ele>443.814941</ele>
  <time>2011-06-17T05:16:13Z</time>
  <speed>2.960000</speed>
</trkpt>
<trkpt lat="32.739448547" lon="35.044364929">
  <ele>443.479004</ele>
  <time>2011-06-17T05:16:14Z</time>
  <speed>2.880000</speed>
</trkpt>
<trkpt lat="32.739490509" lon="35.044395447">
  <ele>442.260254</ele>
  <time>2011-06-17T05:16:16Z</time>
  <speed>3.140000</speed>
</trkpt>
<trkpt lat="32.739521027" lon="35.044406891">
  <ele>442.127441</ele>
  <time>2011-06-17T05:16:17Z</time>
  <speed>3.410000</speed>
</trkpt>
<trkpt lat="32.739547729" lon="35.044425964">
  <ele>441.619629</ele>
  <time>2011-06-17T05:16:18Z</time>
  <speed>3.230000</speed>
</trkpt>
<trkpt lat="32.739570618" lon="35.044441223">
  <ele>440.916504</ele>
  <time>2011-06-17T05:16:19Z</time>
  <speed>3.110000</speed>
</trkpt>
<trkpt lat="32.739620209" lon="35.044467926">
  <ele>440.893066</ele>
  <time>2011-06-17T05:16:21Z</time>
  <speed>3.120000</speed>
</trkpt>
<trkpt lat="32.739681244" lon="35.044498444">
  <ele>440.861816</ele>
  <time>2011-06-17T05:16:23Z</time>
  <speed>3.160000</speed>
</trkpt>
<trkpt lat="32.739707947" lon="35.044513702">
  <ele>440.650879</ele>
  <time>2011-06-17T05:16:24Z</time>
  <speed>2.910000</speed>
</trkpt>
<trkpt lat="32.739730835" lon="35.044540405">
  <ele>440.783691</ele>
  <time>2011-06-17T05:16:25Z</time>
  <speed>2.980000</speed>
</trkpt>
<trkpt lat="32.739757538" lon="35.044551849">
  <ele>441.361816</ele>
  <time>2011-06-17T05:16:26Z</time>
  <speed>3.160000</speed>
</trkpt>
<trkpt lat="32.739788055" lon="35.044567108">
  <ele>441.518066</ele>
  <time>2011-06-17T05:16:27Z</time>
  <speed>3.210000</speed>
</trkpt>
<trkpt lat="32.739814758" lon="35.044586182">
  <ele>441.283691</ele>
  <time>2011-06-17T05:16:28Z</time>
  <speed>3.260000</speed>
</trkpt>
<trkpt lat="32.739841461" lon="35.044601440">
  <ele>441.439941</ele>
  <time>2011-06-17T05:16:29Z</time>
  <speed>2.900000</speed>
</trkpt>
<trkpt lat="32.739868164" lon="35.044612885">
  <ele>441.064941</ele>
  <time>2011-06-17T05:16:30Z</time>
  <speed>2.940000</speed>
</trkpt>
<trkpt lat="32.739921570" lon="35.044624329">
  <ele>440.463379</ele>
  <time>2011-06-17T05:16:32Z</time>
  <speed>3.030000</speed>
</trkpt>
<trkpt lat="32.739948273" lon="35.044635773">
  <ele>440.096191</ele>
  <time>2011-06-17T05:16:33Z</time>
  <speed>2.880000</speed>
</trkpt>
<trkpt lat="32.739974976" lon="35.044654846">
  <ele>440.049316</ele>
  <time>2011-06-17T05:16:34Z</time>
  <speed>2.960000</speed>
</trkpt>
<trkpt lat="32.740028381" lon="35.044681549">
  <ele>438.861816</ele>
  <time>2011-06-17T05:16:36Z</time>
  <speed>3.630000</speed>
</trkpt>
<trkpt lat="32.740062714" lon="35.044704437">
  <ele>438.510254</ele>
  <time>2011-06-17T05:16:37Z</time>
  <speed>3.960000</speed>
</trkpt>
<trkpt lat="32.740108490" lon="35.044723511">
  <ele>439.025879</ele>
  <time>2011-06-17T05:16:38Z</time>
  <speed>4.470000</speed>
</trkpt>
<trkpt lat="32.740142822" lon="35.044750214">
  <ele>439.174316</ele>
  <time>2011-06-17T05:16:39Z</time>
  <speed>4.350000</speed>
</trkpt>
<trkpt lat="32.740177155" lon="35.044773102">
  <ele>438.986816</ele>
  <time>2011-06-17T05:16:40Z</time>
  <speed>4.300000</speed>
</trkpt>
<trkpt lat="32.740211487" lon="35.044792175">
  <ele>438.861816</ele>
  <time>2011-06-17T05:16:41Z</time>
  <speed>4.010000</speed>
</trkpt>
<trkpt lat="32.740242004" lon="35.044822693">
  <ele>438.689941</ele>
  <time>2011-06-17T05:16:42Z</time>
  <speed>3.900000</speed>
</trkpt>
<trkpt lat="32.740272522" lon="35.044849396">
  <ele>438.822754</ele>
  <time>2011-06-17T05:16:43Z</time>
  <speed>3.560000</speed>
</trkpt>
<trkpt lat="32.740299225" lon="35.044864655">
  <ele>439.182129</ele>
  <time>2011-06-17T05:16:44Z</time>
  <speed>3.300000</speed>
</trkpt>
<trkpt lat="32.740329742" lon="35.044895172">
  <ele>439.533691</ele>
  <time>2011-06-17T05:16:45Z</time>
  <speed>3.190000</speed>
</trkpt>
<trkpt lat="32.740352631" lon="35.044918060">
  <ele>439.768066</ele>
  <time>2011-06-17T05:16:46Z</time>
  <speed>3.140000</speed>
</trkpt>
<trkpt lat="32.740379333" lon="35.044929504">
  <ele>439.744629</ele>
  <time>2011-06-17T05:16:47Z</time>
  <speed>3.090000</speed>
</trkpt>
<trkpt lat="32.740402222" lon="35.044948578">
  <ele>439.783691</ele>
  <time>2011-06-17T05:16:48Z</time>
  <speed>3.390000</speed>
</trkpt>
<trkpt lat="32.740436554" lon="35.044960022">
  <ele>440.338379</ele>
  <time>2011-06-17T05:16:49Z</time>
  <speed>3.500000</speed>
</trkpt>
<trkpt lat="32.740470886" lon="35.044971466">
  <ele>440.393066</ele>
  <time>2011-06-17T05:16:50Z</time>
  <speed>3.690000</speed>
</trkpt>
<trkpt lat="32.740505219" lon="35.044990540">
  <ele>441.221191</ele>
  <time>2011-06-17T05:16:51Z</time>
  <speed>3.640000</speed>
</trkpt>
<trkpt lat="32.740531921" lon="35.045009613">
  <ele>441.736816</ele>
  <time>2011-06-17T05:16:52Z</time>
  <speed>3.450000</speed>
</trkpt>
<trkpt lat="32.740562439" lon="35.045024872">
  <ele>441.619629</ele>
  <time>2011-06-17T05:16:53Z</time>
  <speed>3.450000</speed>
</trkpt>
<trkpt lat="32.740592957" lon="35.045032501">
  <ele>442.197754</ele>
  <time>2011-06-17T05:16:54Z</time>
  <speed>3.340000</speed>
</trkpt>
<trkpt lat="32.740623474" lon="35.045040131">
  <ele>442.650879</ele>
  <time>2011-06-17T05:16:55Z</time>
  <speed>3.200000</speed>
</trkpt>
<trkpt lat="32.740657806" lon="35.045047760">
  <ele>442.721191</ele>
  <time>2011-06-17T05:16:56Z</time>
  <speed>3.810000</speed>
</trkpt>
<trkpt lat="32.740688324" lon="35.045059204">
  <ele>442.947754</ele>
  <time>2011-06-17T05:16:57Z</time>
  <speed>3.660000</speed>
</trkpt>
<trkpt lat="32.740718842" lon="35.045070648">
  <ele>442.885254</ele>
  <time>2011-06-17T05:16:58Z</time>
  <speed>3.840000</speed>
</trkpt>
<trkpt lat="32.740756989" lon="35.045082092">
  <ele>442.596191</ele>
  <time>2011-06-17T05:16:59Z</time>
  <speed>4.050000</speed>
</trkpt>
<trkpt lat="32.740795135" lon="35.045093536">
  <ele>442.268066</ele>
  <time>2011-06-17T05:17:00Z</time>
  <speed>4.150000</speed>
</trkpt>
<trkpt lat="32.740833282" lon="35.045101166">
  <ele>442.143066</ele>
  <time>2011-06-17T05:17:01Z</time>
  <speed>4.170000</speed>
</trkpt>
<trkpt lat="32.740867615" lon="35.045108795">
  <ele>442.502441</ele>
  <time>2011-06-17T05:17:02Z</time>
  <speed>4.050000</speed>
</trkpt>
<trkpt lat="32.740905762" lon="35.045112610">
  <ele>442.900879</ele>
  <time>2011-06-17T05:17:03Z</time>
  <speed>3.980000</speed>
</trkpt>
<trkpt lat="32.740940094" lon="35.045116425">
  <ele>442.900879</ele>
  <time>2011-06-17T05:17:04Z</time>
  <speed>4.310000</speed>
</trkpt>
<trkpt lat="32.740982056" lon="35.045116425">
  <ele>443.291504</ele>
  <time>2011-06-17T05:17:05Z</time>
  <speed>4.150000</speed>
</trkpt>
<trkpt lat="32.741020203" lon="35.045116425">
  <ele>443.229004</ele>
  <time>2011-06-17T05:17:06Z</time>
  <speed>4.250000</speed>
</trkpt>
<trkpt lat="32.741062164" lon="35.045112610">
  <ele>443.479004</ele>
  <time>2011-06-17T05:17:07Z</time>
  <speed>4.450000</speed>
</trkpt>
<trkpt lat="32.741100311" lon="35.045120239">
  <ele>443.932129</ele>
  <time>2011-06-17T05:17:08Z</time>
  <speed>4.430000</speed>
</trkpt>
<trkpt lat="32.741138458" lon="35.045124054">
  <ele>443.729004</ele>
  <time>2011-06-17T05:17:09Z</time>
  <speed>4.300000</speed>
</trkpt>
<trkpt lat="32.741176605" lon="35.045120239">
  <ele>443.479004</ele>
  <time>2011-06-17T05:17:10Z</time>
  <speed>4.400000</speed>
</trkpt>
<trkpt lat="32.741222382" lon="35.045116425">
  <ele>443.041504</ele>
  <time>2011-06-17T05:17:11Z</time>
  <speed>4.890000</speed>
</trkpt>
<trkpt lat="32.741264343" lon="35.045101166">
  <ele>442.971191</ele>
  <time>2011-06-17T05:17:12Z</time>
  <speed>5.090000</speed>
</trkpt>
<trkpt lat="32.741306305" lon="35.045082092">
  <ele>442.986816</ele>
  <time>2011-06-17T05:17:13Z</time>
  <speed>5.370000</speed>
</trkpt>
<trkpt lat="32.741352081" lon="35.045070648">
  <ele>442.838379</ele>
  <time>2011-06-17T05:17:14Z</time>
  <speed>5.390000</speed>
</trkpt>
<trkpt lat="32.741394043" lon="35.045043945">
  <ele>442.846191</ele>
  <time>2011-06-17T05:17:15Z</time>
  <speed>5.470000</speed>
</trkpt>
<trkpt lat="32.741439819" lon="35.045021057">
  <ele>442.986816</ele>
  <time>2011-06-17T05:17:16Z</time>
  <speed>5.630000</speed>
</trkpt>
<trkpt lat="32.741481781" lon="35.044994354">
  <ele>443.025879</ele>
  <time>2011-06-17T05:17:17Z</time>
  <speed>5.400000</speed>
</trkpt>
<trkpt lat="32.741519928" lon="35.044956207">
  <ele>443.135254</ele>
  <time>2011-06-17T05:17:18Z</time>
  <speed>5.570000</speed>
</trkpt>
<trkpt lat="32.741558075" lon="35.044921875">
  <ele>443.158691</ele>
  <time>2011-06-17T05:17:19Z</time>
  <speed>5.400000</speed>
</trkpt>
<trkpt lat="32.741588593" lon="35.044879913">
  <ele>443.213379</ele>
  <time>2011-06-17T05:17:20Z</time>
  <speed>4.520000</speed>
</trkpt>
<trkpt lat="32.741607666" lon="35.044841766">
  <ele>442.900879</ele>
  <time>2011-06-17T05:17:21Z</time>
  <speed>4.440000</speed>
</trkpt>
<trkpt lat="32.741634369" lon="35.044799805">
  <ele>442.939941</ele>
  <time>2011-06-17T05:17:22Z</time>
  <speed>3.700000</speed>
</trkpt>
<trkpt lat="32.741649628" lon="35.044765472">
  <ele>443.807129</ele>
  <time>2011-06-17T05:17:23Z</time>
  <speed>2.710000</speed>
</trkpt>
<trkpt lat="32.741657257" lon="35.044712067">
  <ele>444.822754</ele>
  <time>2011-06-17T05:17:25Z</time>
  <speed>2.890000</speed>
</trkpt>
<trkpt lat="32.741680145" lon="35.044662476">
  <ele>445.479004</ele>
  <time>2011-06-17T05:17:27Z</time>
  <speed>2.860000</speed>
</trkpt>
<trkpt lat="32.741695404" lon="35.044631958">
  <ele>445.533691</ele>
  <time>2011-06-17T05:17:28Z</time>
  <speed>3.100000</speed>
</trkpt>
<trkpt lat="32.741699219" lon="35.044593811">
  <ele>445.541504</ele>
  <time>2011-06-17T05:17:29Z</time>
  <speed>3.330000</speed>
</trkpt>
<trkpt lat="32.741706848" lon="35.044559479">
  <ele>445.541504</ele>
  <time>2011-06-17T05:17:30Z</time>
  <speed>3.070000</speed>
</trkpt>
<trkpt lat="32.741714478" lon="35.044525146">
  <ele>445.635254</ele>
  <time>2011-06-17T05:17:31Z</time>
  <speed>3.280000</speed>
</trkpt>
<trkpt lat="32.741706848" lon="35.044490814">
  <ele>445.885254</ele>
  <time>2011-06-17T05:17:32Z</time>
  <speed>3.220000</speed>
</trkpt>
<trkpt lat="32.741710663" lon="35.044456482">
  <ele>445.791504</ele>
  <time>2011-06-17T05:17:33Z</time>
  <speed>2.930000</speed>
</trkpt>
<trkpt lat="32.741718292" lon="35.044418335">
  <ele>445.510254</ele>
  <time>2011-06-17T05:17:34Z</time>
  <speed>3.500000</speed>
</trkpt>
<trkpt lat="32.741722107" lon="35.044384003">
  <ele>445.424316</ele>
  <time>2011-06-17T05:17:35Z</time>
  <speed>3.290000</speed>
</trkpt>
<trkpt lat="32.741722107" lon="35.044319153">
  <ele>445.205566</ele>
  <time>2011-06-17T05:17:37Z</time>
  <speed>2.770000</speed>
</trkpt>
<trkpt lat="32.741722107" lon="35.044288635">
  <ele>444.924316</ele>
  <time>2011-06-17T05:17:38Z</time>
  <speed>3.060000</speed>
</trkpt>
<trkpt lat="32.741729736" lon="35.044254303">
  <ele>444.775879</ele>
  <time>2011-06-17T05:17:39Z</time>
  <speed>2.940000</speed>
</trkpt>
<trkpt lat="32.741733551" lon="35.044223785">
  <ele>444.541504</ele>
  <time>2011-06-17T05:17:40Z</time>
  <speed>3.080000</speed>
</trkpt>
<trkpt lat="32.741748810" lon="35.044193268">
  <ele>444.346191</ele>
  <time>2011-06-17T05:17:41Z</time>
  <speed>2.840000</speed>
</trkpt>
<trkpt lat="32.741756439" lon="35.044158936">
  <ele>444.104004</ele>
  <time>2011-06-17T05:17:42Z</time>
  <speed>2.900000</speed>
</trkpt>
<trkpt lat="32.741775513" lon="35.044120789">
  <ele>443.791504</ele>
  <time>2011-06-17T05:17:43Z</time>
  <speed>2.840000</speed>
</trkpt>
<trkpt lat="32.741794586" lon="35.044090271">
  <ele>443.674316</ele>
  <time>2011-06-17T05:17:44Z</time>
  <speed>2.880000</speed>
</trkpt>
<trkpt lat="32.741809845" lon="35.044059753">
  <ele>443.650879</ele>
  <time>2011-06-17T05:17:45Z</time>
  <speed>3.130000</speed>
</trkpt>
<trkpt lat="32.741825104" lon="35.044029236">
  <ele>443.354004</ele>
  <time>2011-06-17T05:17:46Z</time>
  <speed>2.960000</speed>
</trkpt>
<trkpt lat="32.741859436" lon="35.043975830">
  <ele>444.455566</ele>
  <time>2011-06-17T05:17:48Z</time>
  <speed>2.650000</speed>
</trkpt>
<trkpt lat="32.741882324" lon="35.043952942">
  <ele>444.479004</ele>
  <time>2011-06-17T05:17:49Z</time>
  <speed>3.000000</speed>
</trkpt>
<trkpt lat="32.741958618" lon="35.043903351">
  <ele>446.893066</ele>
  <time>2011-06-17T05:17:50Z</time>
  <speed>3.010000</speed>
</trkpt>
<trkpt lat="32.742004395" lon="35.043872833">
  <ele>447.057129</ele>
  <time>2011-06-17T05:17:52Z</time>
  <speed>3.270000</speed>
</trkpt>
<trkpt lat="32.742031097" lon="35.043857574">
  <ele>447.314941</ele>
  <time>2011-06-17T05:17:53Z</time>
  <speed>3.080000</speed>
</trkpt>
<trkpt lat="32.742073059" lon="35.043823242">
  <ele>447.205566</ele>
  <time>2011-06-17T05:17:55Z</time>
  <speed>3.290000</speed>
</trkpt>
<trkpt lat="32.742134094" lon="35.043796539">
  <ele>447.182129</ele>
  <time>2011-06-17T05:17:57Z</time>
  <speed>3.310000</speed>
</trkpt>
<trkpt lat="32.742176056" lon="35.043773651">
  <ele>446.893066</ele>
  <time>2011-06-17T05:17:59Z</time>
  <speed>2.650000</speed>
</trkpt>
<trkpt lat="32.742218018" lon="35.043762207">
  <ele>446.854004</ele>
  <time>2011-06-17T05:18:01Z</time>
  <speed>2.360000</speed>
</trkpt>
<trkpt lat="32.742267609" lon="35.043758392">
  <ele>446.291504</ele>
  <time>2011-06-17T05:18:03Z</time>
  <speed>2.600000</speed>
</trkpt>
<trkpt lat="32.742313385" lon="35.043758392">
  <ele>445.713379</ele>
  <time>2011-06-17T05:18:05Z</time>
  <speed>2.360000</speed>
</trkpt>
<trkpt lat="32.742324829" lon="35.043792725">
  <ele>444.322754</ele>
  <time>2011-06-17T05:18:06Z</time>
  <speed>3.370000</speed>
</trkpt>
<trkpt lat="32.742336273" lon="35.043830872">
  <ele>443.549316</ele>
  <time>2011-06-17T05:18:07Z</time>
  <speed>4.050000</speed>
</trkpt>
<trkpt lat="32.742343903" lon="35.043880463">
  <ele>442.596191</ele>
  <time>2011-06-17T05:18:08Z</time>
  <speed>5.130000</speed>
</trkpt>
<trkpt lat="32.742359161" lon="35.043937683">
  <ele>441.900879</ele>
  <time>2011-06-17T05:18:09Z</time>
  <speed>5.600000</speed>
</trkpt>
<trkpt lat="32.742378235" lon="35.043994904">
  <ele>441.291504</ele>
  <time>2011-06-17T05:18:10Z</time>
  <speed>5.320000</speed>
</trkpt>
<trkpt lat="32.742404938" lon="35.044052124">
  <ele>441.463379</ele>
  <time>2011-06-17T05:18:11Z</time>
  <speed>5.310000</speed>
</trkpt>
<trkpt lat="32.742439270" lon="35.044116974">
  <ele>441.869629</ele>
  <time>2011-06-17T05:18:12Z</time>
  <speed>4.960000</speed>
</trkpt>
<trkpt lat="32.742443085" lon="35.044151306">
  <ele>442.744629</ele>
  <time>2011-06-17T05:18:13Z</time>
  <speed>4.290000</speed>
</trkpt>
<trkpt lat="32.742465973" lon="35.044189453">
  <ele>443.783691</ele>
  <time>2011-06-17T05:18:14Z</time>
  <speed>4.380000</speed>
</trkpt>
<trkpt lat="32.742485046" lon="35.044223785">
  <ele>444.268066</ele>
  <time>2011-06-17T05:18:15Z</time>
  <speed>3.500000</speed>
</trkpt>
<trkpt lat="32.742504120" lon="35.044250488">
  <ele>444.854004</ele>
  <time>2011-06-17T05:18:16Z</time>
  <speed>2.730000</speed>
</trkpt>
<trkpt lat="32.742542267" lon="35.044284821">
  <ele>444.479004</ele>
  <time>2011-06-17T05:18:18Z</time>
  <speed>2.200000</speed>
</trkpt>
<trkpt lat="32.742576599" lon="35.044319153">
  <ele>443.377441</ele>
  <time>2011-06-17T05:18:20Z</time>
  <speed>2.430000</speed>
</trkpt>
<trkpt lat="32.742599487" lon="35.044342041">
  <ele>443.955566</ele>
  <time>2011-06-17T05:18:21Z</time>
  <speed>2.630000</speed>
</trkpt>
<trkpt lat="32.742630005" lon="35.044368744">
  <ele>443.307129</ele>
  <time>2011-06-17T05:18:23Z</time>
  <speed>2.580000</speed>
</trkpt>
<trkpt lat="32.742664337" lon="35.044399261">
  <ele>442.338379</ele>
  <time>2011-06-17T05:18:25Z</time>
  <speed>2.750000</speed>
</trkpt>
<trkpt lat="32.742710114" lon="35.044445038">
  <ele>443.338379</ele>
  <time>2011-06-17T05:18:27Z</time>
  <speed>2.570000</speed>
</trkpt>
<trkpt lat="32.742740631" lon="35.044479370">
  <ele>443.064941</ele>
  <time>2011-06-17T05:18:29Z</time>
  <speed>2.870000</speed>
</trkpt>
<trkpt lat="32.742778778" lon="35.044509888">
  <ele>443.150879</ele>
  <time>2011-06-17T05:18:31Z</time>
  <speed>2.810000</speed>
</trkpt>
<trkpt lat="32.742813110" lon="35.044544220">
  <ele>442.346191</ele>
  <time>2011-06-17T05:18:33Z</time>
  <speed>2.850000</speed>
</trkpt>
<trkpt lat="32.742855072" lon="35.044567108">
  <ele>442.439941</ele>
  <time>2011-06-17T05:18:35Z</time>
  <speed>2.620000</speed>
</trkpt>
<trkpt lat="32.742881775" lon="35.044570923">
  <ele>443.010254</ele>
  <time>2011-06-17T05:18:36Z</time>
  <speed>2.710000</speed>
</trkpt>
<trkpt lat="32.742908478" lon="35.044567108">
  <ele>443.604004</ele>
  <time>2011-06-17T05:18:37Z</time>
  <speed>2.630000</speed>
</trkpt>
<trkpt lat="32.742954254" lon="35.044563293">
  <ele>443.939941</ele>
  <time>2011-06-17T05:18:39Z</time>
  <speed>2.380000</speed>
</trkpt>
<trkpt lat="32.742984772" lon="35.044563293">
  <ele>444.510254</ele>
  <time>2011-06-17T05:18:40Z</time>
  <speed>2.560000</speed>
</trkpt>
<trkpt lat="32.743030548" lon="35.044555664">
  <ele>444.408691</ele>
  <time>2011-06-17T05:18:42Z</time>
  <speed>2.590000</speed>
</trkpt>
<trkpt lat="32.743057251" lon="35.044548035">
  <ele>444.486816</ele>
  <time>2011-06-17T05:18:43Z</time>
  <speed>2.640000</speed>
</trkpt>
<trkpt lat="32.743087769" lon="35.044548035">
  <ele>444.471191</ele>
  <time>2011-06-17T05:18:44Z</time>
  <speed>2.900000</speed>
</trkpt>
<trkpt lat="32.743114471" lon="35.044544220">
  <ele>443.783691</ele>
  <time>2011-06-17T05:18:45Z</time>
  <speed>2.770000</speed>
</trkpt>
<trkpt lat="32.743167877" lon="35.044551849">
  <ele>443.877441</ele>
  <time>2011-06-17T05:18:47Z</time>
  <speed>2.570000</speed>
</trkpt>
<trkpt lat="32.743198395" lon="35.044559479">
  <ele>444.291504</ele>
  <time>2011-06-17T05:18:48Z</time>
  <speed>2.660000</speed>
</trkpt>
<trkpt lat="32.743247986" lon="35.044586182">
  <ele>444.080566</ele>
  <time>2011-06-17T05:18:50Z</time>
  <speed>3.320000</speed>
</trkpt>
<trkpt lat="32.743278503" lon="35.044593811">
  <ele>443.885254</ele>
  <time>2011-06-17T05:18:51Z</time>
  <speed>3.520000</speed>
</trkpt>
<trkpt lat="32.743309021" lon="35.044605255">
  <ele>443.393066</ele>
  <time>2011-06-17T05:18:52Z</time>
  <speed>3.830000</speed>
</trkpt>
<trkpt lat="32.743347168" lon="35.044624329">
  <ele>443.291504</ele>
  <time>2011-06-17T05:18:53Z</time>
  <speed>3.890000</speed>
</trkpt>
<trkpt lat="32.743377686" lon="35.044628143">
  <ele>442.729004</ele>
  <time>2011-06-17T05:18:54Z</time>
  <speed>3.750000</speed>
</trkpt>
<trkpt lat="32.743408203" lon="35.044643402">
  <ele>443.244629</ele>
  <time>2011-06-17T05:18:55Z</time>
  <speed>3.590000</speed>
</trkpt>
<trkpt lat="32.743438721" lon="35.044651031">
  <ele>443.002441</ele>
  <time>2011-06-17T05:18:56Z</time>
  <speed>3.350000</speed>
</trkpt>
<trkpt lat="32.743476868" lon="35.044654846">
  <ele>443.080566</ele>
  <time>2011-06-17T05:18:57Z</time>
  <speed>3.200000</speed>
</trkpt>
<trkpt lat="32.743507385" lon="35.044662476">
  <ele>442.994629</ele>
  <time>2011-06-17T05:18:58Z</time>
  <speed>3.190000</speed>
</trkpt>
<trkpt lat="32.743534088" lon="35.044673920">
  <ele>443.150879</ele>
  <time>2011-06-17T05:18:59Z</time>
  <speed>3.110000</speed>
</trkpt>
<trkpt lat="32.743560791" lon="35.044681549">
  <ele>443.322754</ele>
  <time>2011-06-17T05:19:00Z</time>
  <speed>3.360000</speed>
</trkpt>
<trkpt lat="32.743591309" lon="35.044696808">
  <ele>443.947754</ele>
  <time>2011-06-17T05:19:01Z</time>
  <speed>3.210000</speed>
</trkpt>
<trkpt lat="32.743625641" lon="35.044704437">
  <ele>444.471191</ele>
  <time>2011-06-17T05:19:02Z</time>
  <speed>3.000000</speed>
</trkpt>
<trkpt lat="32.743675232" lon="35.044719696">
  <ele>445.674316</ele>
  <time>2011-06-17T05:19:04Z</time>
  <speed>2.650000</speed>
</trkpt>
<trkpt lat="32.743728638" lon="35.044719696">
  <ele>446.502441</ele>
  <time>2011-06-17T05:19:06Z</time>
  <speed>2.890000</speed>
</trkpt>
<trkpt lat="32.743774414" lon="35.044712067">
  <ele>447.330566</ele>
  <time>2011-06-17T05:19:08Z</time>
  <speed>2.360000</speed>
</trkpt>
<trkpt lat="32.743820190" lon="35.044712067">
  <ele>447.541504</ele>
  <time>2011-06-17T05:19:10Z</time>
  <speed>2.500000</speed>
</trkpt>
<trkpt lat="32.743873596" lon="35.044692993">
  <ele>447.572754</ele>
  <time>2011-06-17T05:19:12Z</time>
  <speed>2.520000</speed>
</trkpt>
<trkpt lat="32.743919373" lon="35.044677734">
  <ele>447.471191</ele>
  <time>2011-06-17T05:19:14Z</time>
  <speed>2.120000</speed>
</trkpt>
<trkpt lat="32.743961334" lon="35.044673920">
  <ele>447.713379</ele>
  <time>2011-06-17T05:19:16Z</time>
  <speed>2.620000</speed>
</trkpt>
<trkpt lat="32.744007111" lon="35.044666290">
  <ele>447.502441</ele>
  <time>2011-06-17T05:19:18Z</time>
  <speed>2.750000</speed>
</trkpt>
<trkpt lat="32.744033813" lon="35.044654846">
  <ele>448.088379</ele>
  <time>2011-06-17T05:19:19Z</time>
  <speed>2.790000</speed>
</trkpt>
<trkpt lat="32.744079590" lon="35.044635773">
  <ele>447.947754</ele>
  <time>2011-06-17T05:19:21Z</time>
  <speed>2.720000</speed>
</trkpt>
<trkpt lat="32.744110107" lon="35.044616699">
  <ele>447.424316</ele>
  <time>2011-06-17T05:19:22Z</time>
  <speed>2.670000</speed>
</trkpt>
<trkpt lat="32.744152069" lon="35.044589996">
  <ele>447.189941</ele>
  <time>2011-06-17T05:19:24Z</time>
  <speed>2.190000</speed>
</trkpt>
<trkpt lat="32.744194031" lon="35.044578552">
  <ele>447.939941</ele>
  <time>2011-06-17T05:19:26Z</time>
  <speed>2.620000</speed>
</trkpt>
<trkpt lat="32.744243622" lon="35.044574738">
  <ele>448.885254</ele>
  <time>2011-06-17T05:19:28Z</time>
  <speed>2.710000</speed>
</trkpt>
<trkpt lat="32.744285583" lon="35.044570923">
  <ele>450.885254</ele>
  <time>2011-06-17T05:19:30Z</time>
  <speed>2.550000</speed>
</trkpt>
<trkpt lat="32.744316101" lon="35.044567108">
  <ele>451.096191</ele>
  <time>2011-06-17T05:19:31Z</time>
  <speed>2.700000</speed>
</trkpt>
<trkpt lat="32.744361877" lon="35.044548035">
  <ele>451.189941</ele>
  <time>2011-06-17T05:19:33Z</time>
  <speed>2.620000</speed>
</trkpt>
<trkpt lat="32.744400024" lon="35.044532776">
  <ele>451.729004</ele>
  <time>2011-06-17T05:19:35Z</time>
  <speed>2.340000</speed>
</trkpt>
<trkpt lat="32.744445801" lon="35.044528961">
  <ele>452.354004</ele>
  <time>2011-06-17T05:19:37Z</time>
  <speed>2.820000</speed>
</trkpt>
<trkpt lat="32.744476318" lon="35.044525146">
  <ele>453.752441</ele>
  <time>2011-06-17T05:19:38Z</time>
  <speed>2.830000</speed>
</trkpt>
<trkpt lat="32.744533539" lon="35.044528961">
  <ele>454.260254</ele>
  <time>2011-06-17T05:19:40Z</time>
  <speed>2.690000</speed>
</trkpt>
<trkpt lat="32.744560242" lon="35.044521332">
  <ele>454.502441</ele>
  <time>2011-06-17T05:19:41Z</time>
  <speed>2.820000</speed>
</trkpt>
<trkpt lat="32.744590759" lon="35.044513702">
  <ele>455.533691</ele>
  <time>2011-06-17T05:19:42Z</time>
  <speed>2.830000</speed>
</trkpt>
<trkpt lat="32.744632721" lon="35.044475555">
  <ele>455.721191</ele>
  <time>2011-06-17T05:19:44Z</time>
  <speed>2.560000</speed>
</trkpt>
<trkpt lat="32.744647980" lon="35.044448853">
  <ele>455.408691</ele>
  <time>2011-06-17T05:19:45Z</time>
  <speed>2.650000</speed>
</trkpt>
<trkpt lat="32.744667053" lon="35.044391632">
  <ele>455.674316</ele>
  <time>2011-06-17T05:19:47Z</time>
  <speed>2.630000</speed>
</trkpt>
<trkpt lat="32.744682312" lon="35.044345856">
  <ele>455.424316</ele>
  <time>2011-06-17T05:19:49Z</time>
  <speed>2.540000</speed>
</trkpt>
<trkpt lat="32.744697571" lon="35.044300079">
  <ele>456.057129</ele>
  <time>2011-06-17T05:19:51Z</time>
  <speed>2.300000</speed>
</trkpt>
<trkpt lat="32.744701385" lon="35.044250488">
  <ele>456.221191</ele>
  <time>2011-06-17T05:19:53Z</time>
  <speed>2.290000</speed>
</trkpt>
<trkpt lat="32.744701385" lon="35.044189453">
  <ele>456.166504</ele>
  <time>2011-06-17T05:19:55Z</time>
  <speed>2.680000</speed>
</trkpt>
<trkpt lat="32.744697571" lon="35.044128418">
  <ele>455.877441</ele>
  <time>2011-06-17T05:19:57Z</time>
  <speed>2.660000</speed>
</trkpt>
<trkpt lat="32.744697571" lon="35.044067383">
  <ele>455.557129</ele>
  <time>2011-06-17T05:19:59Z</time>
  <speed>2.710000</speed>
</trkpt>
<trkpt lat="32.744697571" lon="35.044013977">
  <ele>455.596191</ele>
  <time>2011-06-17T05:20:01Z</time>
  <speed>1.900000</speed>
</trkpt>
<trkpt lat="32.744712830" lon="35.043975830">
  <ele>455.525879</ele>
  <time>2011-06-17T05:20:03Z</time>
  <speed>1.810000</speed>
</trkpt>
<trkpt lat="32.744709015" lon="35.043926239">
  <ele>456.338379</ele>
  <time>2011-06-17T05:20:05Z</time>
  <speed>2.080000</speed>
</trkpt>
<trkpt lat="32.744731903" lon="35.043884277">
  <ele>456.244629</ele>
  <time>2011-06-17T05:20:07Z</time>
  <speed>2.120000</speed>
</trkpt>
<trkpt lat="32.744750977" lon="35.043842316">
  <ele>456.221191</ele>
  <time>2011-06-17T05:20:09Z</time>
  <speed>2.200000</speed>
</trkpt>
<trkpt lat="32.744781494" lon="35.043796539">
  <ele>456.525879</ele>
  <time>2011-06-17T05:20:11Z</time>
  <speed>2.380000</speed>
</trkpt>
<trkpt lat="32.744804382" lon="35.043777466">
  <ele>456.385254</ele>
  <time>2011-06-17T05:20:12Z</time>
  <speed>2.520000</speed>
</trkpt>
<trkpt lat="32.744857788" lon="35.043762207">
  <ele>456.744629</ele>
  <time>2011-06-17T05:20:14Z</time>
  <speed>2.600000</speed>
</trkpt>
<trkpt lat="32.744888306" lon="35.043762207">
  <ele>457.080566</ele>
  <time>2011-06-17T05:20:15Z</time>
  <speed>2.830000</speed>
</trkpt>
<trkpt lat="32.744930267" lon="35.043758392">
  <ele>456.564941</ele>
  <time>2011-06-17T05:20:16Z</time>
  <speed>3.260000</speed>
</trkpt>
<trkpt lat="32.744953156" lon="35.043766022">
  <ele>455.635254</ele>
  <time>2011-06-17T05:20:17Z</time>
  <speed>3.670000</speed>
</trkpt>
<trkpt lat="32.744987488" lon="35.043773651">
  <ele>455.088379</ele>
  <time>2011-06-17T05:20:18Z</time>
  <speed>3.910000</speed>
</trkpt>
<trkpt lat="32.745033264" lon="35.043777466">
  <ele>455.080566</ele>
  <time>2011-06-17T05:20:19Z</time>
  <speed>4.530000</speed>
</trkpt>
<trkpt lat="32.745079041" lon="35.043788910">
  <ele>455.041504</ele>
  <time>2011-06-17T05:20:20Z</time>
  <speed>4.780000</speed>
</trkpt>
<trkpt lat="32.745124817" lon="35.043800354">
  <ele>454.486816</ele>
  <time>2011-06-17T05:20:21Z</time>
  <speed>4.620000</speed>
</trkpt>
<trkpt lat="32.745159149" lon="35.043811798">
  <ele>454.111816</ele>
  <time>2011-06-17T05:20:22Z</time>
  <speed>4.390000</speed>
</trkpt>
<trkpt lat="32.745201111" lon="35.043827057">
  <ele>454.135254</ele>
  <time>2011-06-17T05:20:23Z</time>
  <speed>4.430000</speed>
</trkpt>
<trkpt lat="32.745231628" lon="35.043842316">
  <ele>453.682129</ele>
  <time>2011-06-17T05:20:24Z</time>
  <speed>3.900000</speed>
</trkpt>
<trkpt lat="32.745258331" lon="35.043853760">
  <ele>453.275879</ele>
  <time>2011-06-17T05:20:25Z</time>
  <speed>3.230000</speed>
</trkpt>
<trkpt lat="32.745304108" lon="35.043876648">
  <ele>455.643066</ele>
  <time>2011-06-17T05:20:26Z</time>
  <speed>3.100000</speed>
</trkpt>
<trkpt lat="32.745342255" lon="35.043880463">
  <ele>455.807129</ele>
  <time>2011-06-17T05:20:27Z</time>
  <speed>2.400000</speed>
</trkpt>
<trkpt lat="32.745380402" lon="35.043895721">
  <ele>455.424316</ele>
  <time>2011-06-17T05:20:29Z</time>
  <speed>2.280000</speed>
</trkpt>
<trkpt lat="32.745426178" lon="35.043914795">
  <ele>454.807129</ele>
  <time>2011-06-17T05:20:31Z</time>
  <speed>2.620000</speed>
</trkpt>
<trkpt lat="32.745471954" lon="35.043933868">
  <ele>456.041504</ele>
  <time>2011-06-17T05:20:33Z</time>
  <speed>2.630000</speed>
</trkpt>
<trkpt lat="32.745521545" lon="35.043933868">
  <ele>455.877441</ele>
  <time>2011-06-17T05:20:35Z</time>
  <speed>2.340000</speed>
</trkpt>
<trkpt lat="32.745555878" lon="35.043945313">
  <ele>456.939941</ele>
  <time>2011-06-17T05:20:37Z</time>
  <speed>1.870000</speed>
</trkpt>
<trkpt lat="32.745586395" lon="35.043952942">
  <ele>457.783691</ele>
  <time>2011-06-17T05:20:39Z</time>
  <speed>1.770000</speed>
</trkpt>
<trkpt lat="32.745616913" lon="35.043949127">
  <ele>458.229004</ele>
  <time>2011-06-17T05:20:41Z</time>
  <speed>1.710000</speed>
</trkpt>
<trkpt lat="32.745647430" lon="35.043941498">
  <ele>458.775879</ele>
  <time>2011-06-17T05:20:43Z</time>
  <speed>2.150000</speed>
</trkpt>
<trkpt lat="32.745685577" lon="35.043937683">
  <ele>459.291504</ele>
  <time>2011-06-17T05:20:45Z</time>
  <speed>1.960000</speed>
</trkpt>
<trkpt lat="32.745712280" lon="35.043937683">
  <ele>460.236816</ele>
  <time>2011-06-17T05:20:47Z</time>
  <speed>1.630000</speed>
</trkpt>
<trkpt lat="32.745742798" lon="35.043926239">
  <ele>461.775879</ele>
  <time>2011-06-17T05:20:49Z</time>
  <speed>1.700000</speed>
</trkpt>
<trkpt lat="32.745773315" lon="35.043918610">
  <ele>462.197754</ele>
  <time>2011-06-17T05:20:51Z</time>
  <speed>1.830000</speed>
</trkpt>
<trkpt lat="32.745803833" lon="35.043903351">
  <ele>463.439941</ele>
  <time>2011-06-17T05:20:53Z</time>
  <speed>1.980000</speed>
</trkpt>
<trkpt lat="32.745838165" lon="35.043891907">
  <ele>463.166504</ele>
  <time>2011-06-17T05:20:55Z</time>
  <speed>1.880000</speed>
</trkpt>
<trkpt lat="32.745872498" lon="35.043880463">
  <ele>463.541504</ele>
  <time>2011-06-17T05:20:57Z</time>
  <speed>2.010000</speed>
</trkpt>
<trkpt lat="32.745895386" lon="35.043849945">
  <ele>463.518066</ele>
  <time>2011-06-17T05:20:59Z</time>
  <speed>1.800000</speed>
</trkpt>
<trkpt lat="32.745918274" lon="35.043823242">
  <ele>464.385254</ele>
  <time>2011-06-17T05:21:01Z</time>
  <speed>1.810000</speed>
</trkpt>
<trkpt lat="32.745933533" lon="35.043781281">
  <ele>465.760254</ele>
  <time>2011-06-17T05:21:03Z</time>
  <speed>2.090000</speed>
</trkpt>
<trkpt lat="32.745941162" lon="35.043743134">
  <ele>466.408691</ele>
  <time>2011-06-17T05:21:05Z</time>
  <speed>1.780000</speed>
</trkpt>
<trkpt lat="32.745956421" lon="35.043720245">
  <ele>467.174316</ele>
  <time>2011-06-17T05:21:07Z</time>
  <speed>1.550000</speed>
</trkpt>
<trkpt lat="32.745971680" lon="35.043678284">
  <ele>468.838379</ele>
  <time>2011-06-17T05:21:09Z</time>
  <speed>1.600000</speed>
</trkpt>
<trkpt lat="32.745983124" lon="35.043643951">
  <ele>469.791504</ele>
  <time>2011-06-17T05:21:11Z</time>
  <speed>1.420000</speed>
</trkpt>
<trkpt lat="32.745994568" lon="35.043613434">
  <ele>470.557129</ele>
  <time>2011-06-17T05:21:13Z</time>
  <speed>1.460000</speed>
</trkpt>
<trkpt lat="32.746002197" lon="35.043575287">
  <ele>471.752441</ele>
  <time>2011-06-17T05:21:15Z</time>
  <speed>1.300000</speed>
</trkpt>
<trkpt lat="32.746013641" lon="35.043548584">
  <ele>472.502441</ele>
  <time>2011-06-17T05:21:17Z</time>
  <speed>1.390000</speed>
</trkpt>
<trkpt lat="32.746025085" lon="35.043502808">
  <ele>473.221191</ele>
  <time>2011-06-17T05:21:20Z</time>
  <speed>1.500000</speed>
</trkpt>
<trkpt lat="32.746036530" lon="35.043476105">
  <ele>473.252441</ele>
  <time>2011-06-17T05:21:22Z</time>
  <speed>1.570000</speed>
</trkpt>
<trkpt lat="32.746044159" lon="35.043434143">
  <ele>474.041504</ele>
  <time>2011-06-17T05:21:24Z</time>
  <speed>1.520000</speed>
</trkpt>
<trkpt lat="32.746047974" lon="35.043399811">
  <ele>474.283691</ele>
  <time>2011-06-17T05:21:26Z</time>
  <speed>1.700000</speed>
</trkpt>
<trkpt lat="32.746055603" lon="35.043357849">
  <ele>474.189941</ele>
  <time>2011-06-17T05:21:29Z</time>
  <speed>1.520000</speed>
</trkpt>
<trkpt lat="32.746063232" lon="35.043308258">
  <ele>473.807129</ele>
  <time>2011-06-17T05:21:32Z</time>
  <speed>1.440000</speed>
</trkpt>
<trkpt lat="32.746070862" lon="35.043273926">
  <ele>473.518066</ele>
  <time>2011-06-17T05:21:34Z</time>
  <speed>1.570000</speed>
</trkpt>
<trkpt lat="32.746070862" lon="35.043235779">
  <ele>473.432129</ele>
  <time>2011-06-17T05:21:37Z</time>
  <speed>1.140000</speed>
</trkpt>
<trkpt lat="32.746070862" lon="35.043201447">
  <ele>473.682129</ele>
  <time>2011-06-17T05:21:39Z</time>
  <speed>1.760000</speed>
</trkpt>
<trkpt lat="32.746070862" lon="35.043167114">
  <ele>474.049316</ele>
  <time>2011-06-17T05:21:41Z</time>
  <speed>1.360000</speed>
</trkpt>
<trkpt lat="32.746074677" lon="35.043128967">
  <ele>474.736816</ele>
  <time>2011-06-17T05:21:44Z</time>
  <speed>1.060000</speed>
</trkpt>
<trkpt lat="32.746082306" lon="35.043087006">
  <ele>474.885254</ele>
  <time>2011-06-17T05:21:47Z</time>
  <speed>1.630000</speed>
</trkpt>
<trkpt lat="32.746074677" lon="35.043045044">
  <ele>475.611816</ele>
  <time>2011-06-17T05:21:49Z</time>
  <speed>1.450000</speed>
</trkpt>
<trkpt lat="32.746082306" lon="35.042999268">
  <ele>475.924316</ele>
  <time>2011-06-17T05:21:52Z</time>
  <speed>1.200000</speed>
</trkpt>
<trkpt lat="32.746086121" lon="35.042968750">
  <ele>475.533691</ele>
  <time>2011-06-17T05:21:55Z</time>
  <speed>1.110000</speed>
</trkpt>
<trkpt lat="32.746082306" lon="35.042930603">
  <ele>475.744629</ele>
  <time>2011-06-17T05:21:58Z</time>
  <speed>1.150000</speed>
</trkpt>
<trkpt lat="32.746074677" lon="35.042884827">
  <ele>475.986816</ele>
  <time>2011-06-17T05:22:01Z</time>
  <speed>1.170000</speed>
</trkpt>
<trkpt lat="32.746067047" lon="35.042854309">
  <ele>476.408691</ele>
  <time>2011-06-17T05:22:03Z</time>
  <speed>1.300000</speed>
</trkpt>
<trkpt lat="32.746063232" lon="35.042808533">
  <ele>476.377441</ele>
  <time>2011-06-17T05:22:06Z</time>
  <speed>1.310000</speed>
</trkpt>
<trkpt lat="32.746067047" lon="35.042770386">
  <ele>476.291504</ele>
  <time>2011-06-17T05:22:08Z</time>
  <speed>1.410000</speed>
</trkpt>
<trkpt lat="32.746059418" lon="35.042732239">
  <ele>476.150879</ele>
  <time>2011-06-17T05:22:11Z</time>
  <speed>0.910000</speed>
</trkpt>
<trkpt lat="32.746070862" lon="35.042701721">
  <ele>475.854004</ele>
  <time>2011-06-17T05:22:13Z</time>
  <speed>1.380000</speed>
</trkpt>
<trkpt lat="32.746070862" lon="35.042663574">
  <ele>476.775879</ele>
  <time>2011-06-17T05:22:15Z</time>
  <speed>1.530000</speed>
</trkpt>
<trkpt lat="32.746074677" lon="35.042629242">
  <ele>476.705566</ele>
  <time>2011-06-17T05:22:17Z</time>
  <speed>1.510000</speed>
</trkpt>
<trkpt lat="32.746078491" lon="35.042594910">
  <ele>476.658691</ele>
  <time>2011-06-17T05:22:19Z</time>
  <speed>1.700000</speed>
</trkpt>
<trkpt lat="32.746070862" lon="35.042556763">
  <ele>476.682129</ele>
  <time>2011-06-17T05:22:21Z</time>
  <speed>1.200000</speed>
</trkpt>
<trkpt lat="32.746070862" lon="35.042518616">
  <ele>476.697754</ele>
  <time>2011-06-17T05:22:23Z</time>
  <speed>1.070000</speed>
</trkpt>
<trkpt lat="32.746055603" lon="35.042484283">
  <ele>477.510254</ele>
  <time>2011-06-17T05:22:25Z</time>
  <speed>1.720000</speed>
</trkpt>
<trkpt lat="32.746032715" lon="35.042446136">
  <ele>478.877441</ele>
  <time>2011-06-17T05:22:27Z</time>
  <speed>1.630000</speed>
</trkpt>
<trkpt lat="32.746028900" lon="35.042407990">
  <ele>479.924316</ele>
  <time>2011-06-17T05:22:29Z</time>
  <speed>1.550000</speed>
</trkpt>
<trkpt lat="32.746017456" lon="35.042373657">
  <ele>479.963379</ele>
  <time>2011-06-17T05:22:32Z</time>
  <speed>0.710000</speed>
</trkpt>
<trkpt lat="32.746009827" lon="35.042354584">
  <ele>482.174316</ele>
  <time>2011-06-17T05:22:38Z</time>
  <speed>0.980000</speed>
</trkpt>
<trkpt lat="32.745998383" lon="35.042312622">
  <ele>482.783691</ele>
  <time>2011-06-17T05:22:42Z</time>
  <speed>1.340000</speed>
</trkpt>
<trkpt lat="32.745994568" lon="35.042278290">
  <ele>484.025879</ele>
  <time>2011-06-17T05:22:45Z</time>
  <speed>0.630000</speed>
</trkpt>
<trkpt lat="32.745964050" lon="35.042266846">
  <ele>484.814941</ele>
  <time>2011-06-17T05:22:49Z</time>
  <speed>0.990000</speed>
</trkpt>
<trkpt lat="32.745937347" lon="35.042266846">
  <ele>484.908691</ele>
  <time>2011-06-17T05:22:51Z</time>
  <speed>1.350000</speed>
</trkpt>
<trkpt lat="32.745903015" lon="35.042278290">
  <ele>484.947754</ele>
  <time>2011-06-17T05:22:54Z</time>
  <speed>0.630000</speed>
</trkpt>
<trkpt lat="32.745872498" lon="35.042301178">
  <ele>486.010254</ele>
  <time>2011-06-17T05:22:58Z</time>
  <speed>0.860000</speed>
</trkpt>
<trkpt lat="32.745849609" lon="35.042327881">
  <ele>485.854004</ele>
  <time>2011-06-17T05:23:01Z</time>
  <speed>0.990000</speed>
</trkpt>
<trkpt lat="32.745838165" lon="35.042358398">
  <ele>485.908691</ele>
  <time>2011-06-17T05:23:04Z</time>
  <speed>1.070000</speed>
</trkpt>
<trkpt lat="32.745819092" lon="35.042396545">
  <ele>486.314941</ele>
  <time>2011-06-17T05:23:07Z</time>
  <speed>0.750000</speed>
</trkpt>
<trkpt lat="32.745800018" lon="35.042423248">
  <ele>485.979004</ele>
  <time>2011-06-17T05:23:13Z</time>
  <speed>0.670000</speed>
</trkpt>
<trkpt lat="32.745784760" lon="35.042453766">
  <ele>485.986816</ele>
  <time>2011-06-17T05:23:16Z</time>
  <speed>1.150000</speed>
</trkpt>
<trkpt lat="32.745761871" lon="35.042484283">
  <ele>485.377441</ele>
  <time>2011-06-17T05:23:19Z</time>
  <speed>1.450000</speed>
</trkpt>
<trkpt lat="32.745742798" lon="35.042510986">
  <ele>485.041504</ele>
  <time>2011-06-17T05:23:21Z</time>
  <speed>1.660000</speed>
</trkpt>
<trkpt lat="32.745727539" lon="35.042537689">
  <ele>483.994629</ele>
  <time>2011-06-17T05:23:24Z</time>
  <speed>1.350000</speed>
</trkpt>
<trkpt lat="32.745704651" lon="35.042560577">
  <ele>482.994629</ele>
  <time>2011-06-17T05:23:26Z</time>
  <speed>1.570000</speed>
</trkpt>
<trkpt lat="32.745677948" lon="35.042583466">
  <ele>483.033691</ele>
  <time>2011-06-17T05:23:28Z</time>
  <speed>1.300000</speed>
</trkpt>
<trkpt lat="32.745655060" lon="35.042610168">
  <ele>482.510254</ele>
  <time>2011-06-17T05:23:31Z</time>
  <speed>1.490000</speed>
</trkpt>
<trkpt lat="32.745628357" lon="35.042629242">
  <ele>481.916504</ele>
  <time>2011-06-17T05:23:33Z</time>
  <speed>1.710000</speed>
</trkpt>
<trkpt lat="32.745609283" lon="35.042655945">
  <ele>481.900879</ele>
  <time>2011-06-17T05:23:35Z</time>
  <speed>1.890000</speed>
</trkpt>
<trkpt lat="32.745582581" lon="35.042690277">
  <ele>482.189941</ele>
  <time>2011-06-17T05:23:37Z</time>
  <speed>1.920000</speed>
</trkpt>
<trkpt lat="32.745563507" lon="35.042716980">
  <ele>481.135254</ele>
  <time>2011-06-17T05:23:39Z</time>
  <speed>1.440000</speed>
</trkpt>
<trkpt lat="32.745548248" lon="35.042743683">
  <ele>480.549316</ele>
  <time>2011-06-17T05:23:41Z</time>
  <speed>1.530000</speed>
</trkpt>
<trkpt lat="32.745532990" lon="35.042770386">
  <ele>480.705566</ele>
  <time>2011-06-17T05:23:43Z</time>
  <speed>1.670000</speed>
</trkpt>
<trkpt lat="32.745513916" lon="35.042804718">
  <ele>480.338379</ele>
  <time>2011-06-17T05:23:45Z</time>
  <speed>2.300000</speed>
</trkpt>
<trkpt lat="32.745483398" lon="35.042842865">
  <ele>480.041504</ele>
  <time>2011-06-17T05:23:47Z</time>
  <speed>2.460000</speed>
</trkpt>
<trkpt lat="32.745464325" lon="35.042869568">
  <ele>479.955566</ele>
  <time>2011-06-17T05:23:48Z</time>
  <speed>2.710000</speed>
</trkpt>
<trkpt lat="32.745437622" lon="35.042919159">
  <ele>479.768066</ele>
  <time>2011-06-17T05:23:50Z</time>
  <speed>2.840000</speed>
</trkpt>
<trkpt lat="32.745399475" lon="35.042953491">
  <ele>479.658691</ele>
  <time>2011-06-17T05:23:52Z</time>
  <speed>2.300000</speed>
</trkpt>
<trkpt lat="32.745361328" lon="35.042972565">
  <ele>479.908691</ele>
  <time>2011-06-17T05:23:54Z</time>
  <speed>2.390000</speed>
</trkpt>
<trkpt lat="32.745315552" lon="35.042995453">
  <ele>480.572754</ele>
  <time>2011-06-17T05:23:56Z</time>
  <speed>2.610000</speed>
</trkpt>
<trkpt lat="32.745269775" lon="35.043006897">
  <ele>480.830566</ele>
  <time>2011-06-17T05:23:58Z</time>
  <speed>2.750000</speed>
</trkpt>
<trkpt lat="32.745223999" lon="35.043022156">
  <ele>480.564941</ele>
  <time>2011-06-17T05:24:00Z</time>
  <speed>2.710000</speed>
</trkpt>
<trkpt lat="32.745174408" lon="35.043033600">
  <ele>480.877441</ele>
  <time>2011-06-17T05:24:02Z</time>
  <speed>2.830000</speed>
</trkpt>
<trkpt lat="32.745121002" lon="35.043052673">
  <ele>480.900879</ele>
  <time>2011-06-17T05:24:04Z</time>
  <speed>3.040000</speed>
</trkpt>
<trkpt lat="32.745094299" lon="35.043067932">
  <ele>481.314941</ele>
  <time>2011-06-17T05:24:05Z</time>
  <speed>3.140000</speed>
</trkpt>
<trkpt lat="32.745067596" lon="35.043079376">
  <ele>481.174316</ele>
  <time>2011-06-17T05:24:06Z</time>
  <speed>2.900000</speed>
</trkpt>
<trkpt lat="32.745014191" lon="35.043083191">
  <ele>481.854004</ele>
  <time>2011-06-17T05:24:08Z</time>
  <speed>2.320000</speed>
</trkpt>
<trkpt lat="32.744983673" lon="35.043079376">
  <ele>481.893066</ele>
  <time>2011-06-17T05:24:10Z</time>
  <speed>1.660000</speed>
</trkpt>
<trkpt lat="32.744949341" lon="35.043075562">
  <ele>482.268066</ele>
  <time>2011-06-17T05:24:13Z</time>
  <speed>1.740000</speed>
</trkpt>
<trkpt lat="32.744911194" lon="35.043071747">
  <ele>482.244629</ele>
  <time>2011-06-17T05:24:15Z</time>
  <speed>1.790000</speed>
</trkpt>
<trkpt lat="32.744873047" lon="35.043075562">
  <ele>483.729004</ele>
  <time>2011-06-17T05:24:17Z</time>
  <speed>1.850000</speed>
</trkpt>
<trkpt lat="32.744846344" lon="35.043067932">
  <ele>483.260254</ele>
  <time>2011-06-17T05:24:19Z</time>
  <speed>1.800000</speed>
</trkpt>
<trkpt lat="32.744812012" lon="35.043056488">
  <ele>483.955566</ele>
  <time>2011-06-17T05:24:21Z</time>
  <speed>1.920000</speed>
</trkpt>
<trkpt lat="32.744777679" lon="35.043048859">
  <ele>485.197754</ele>
  <time>2011-06-17T05:24:23Z</time>
  <speed>1.580000</speed>
</trkpt>
<trkpt lat="32.744743347" lon="35.043052673">
  <ele>485.580566</ele>
  <time>2011-06-17T05:24:25Z</time>
  <speed>1.960000</speed>
</trkpt>
<trkpt lat="32.744705200" lon="35.043045044">
  <ele>486.611816</ele>
  <time>2011-06-17T05:24:27Z</time>
  <speed>1.500000</speed>
</trkpt>
<trkpt lat="32.744678497" lon="35.043033600">
  <ele>487.205566</ele>
  <time>2011-06-17T05:24:29Z</time>
  <speed>1.650000</speed>
</trkpt>
<trkpt lat="32.744651794" lon="35.043014526">
  <ele>487.252441</ele>
  <time>2011-06-17T05:24:31Z</time>
  <speed>1.350000</speed>
</trkpt>
<trkpt lat="32.744613647" lon="35.043003082">
  <ele>487.830566</ele>
  <time>2011-06-17T05:24:34Z</time>
  <speed>1.380000</speed>
</trkpt>
<trkpt lat="32.744583130" lon="35.042999268">
  <ele>487.830566</ele>
  <time>2011-06-17T05:24:36Z</time>
  <speed>1.800000</speed>
</trkpt>
<trkpt lat="32.744552612" lon="35.042984009">
  <ele>487.572754</ele>
  <time>2011-06-17T05:24:38Z</time>
  <speed>1.460000</speed>
</trkpt>
<trkpt lat="32.744518280" lon="35.042961121">
  <ele>488.174316</ele>
  <time>2011-06-17T05:24:41Z</time>
  <speed>1.560000</speed>
</trkpt>
<trkpt lat="32.744483948" lon="35.042942047">
  <ele>488.244629</ele>
  <time>2011-06-17T05:24:44Z</time>
  <speed>1.420000</speed>
</trkpt>
<trkpt lat="32.744453430" lon="35.042934418">
  <ele>488.775879</ele>
  <time>2011-06-17T05:24:46Z</time>
  <speed>1.440000</speed>
</trkpt>
<trkpt lat="32.744422913" lon="35.042934418">
  <ele>488.846191</ele>
  <time>2011-06-17T05:24:48Z</time>
  <speed>1.430000</speed>
</trkpt>
<trkpt lat="32.744388580" lon="35.042961121">
  <ele>489.338379</ele>
  <time>2011-06-17T05:24:51Z</time>
  <speed>1.560000</speed>
</trkpt>
<trkpt lat="32.744365692" lon="35.042995453">
  <ele>489.541504</ele>
  <time>2011-06-17T05:24:53Z</time>
  <speed>1.940000</speed>
</trkpt>
<trkpt lat="32.744342804" lon="35.043037415">
  <ele>489.393066</ele>
  <time>2011-06-17T05:24:55Z</time>
  <speed>1.980000</speed>
</trkpt>
<trkpt lat="32.744331360" lon="35.043079376">
  <ele>489.447754</ele>
  <time>2011-06-17T05:24:57Z</time>
  <speed>2.020000</speed>
</trkpt>
<trkpt lat="32.744319916" lon="35.043128967">
  <ele>488.557129</ele>
  <time>2011-06-17T05:24:59Z</time>
  <speed>2.000000</speed>
</trkpt>
<trkpt lat="32.744308472" lon="35.043174744">
  <ele>488.643066</ele>
  <time>2011-06-17T05:25:01Z</time>
  <speed>2.270000</speed>
</trkpt>
<trkpt lat="32.744300842" lon="35.043209076">
  <ele>488.525879</ele>
  <time>2011-06-17T05:25:03Z</time>
  <speed>1.670000</speed>
</trkpt>
<trkpt lat="32.744285583" lon="35.043243408">
  <ele>488.080566</ele>
  <time>2011-06-17T05:25:05Z</time>
  <speed>1.850000</speed>
</trkpt>
<trkpt lat="32.744281769" lon="35.043277740">
  <ele>488.916504</ele>
  <time>2011-06-17T05:25:06Z</time>
  <speed>2.000000</speed>
</trkpt>
<trkpt lat="32.744281769" lon="35.043338776">
  <ele>490.986816</ele>
  <time>2011-06-17T05:25:08Z</time>
  <speed>1.770000</speed>
</trkpt>
<trkpt lat="32.744270325" lon="35.043376923">
  <ele>491.135254</ele>
  <time>2011-06-17T05:25:10Z</time>
  <speed>1.780000</speed>
</trkpt>
<trkpt lat="32.744262695" lon="35.043415070">
  <ele>492.041504</ele>
  <time>2011-06-17T05:25:12Z</time>
  <speed>1.960000</speed>
</trkpt>
<trkpt lat="32.744243622" lon="35.043441772">
  <ele>491.135254</ele>
  <time>2011-06-17T05:25:14Z</time>
  <speed>1.620000</speed>
</trkpt>
<trkpt lat="32.744228363" lon="35.043464661">
  <ele>490.377441</ele>
  <time>2011-06-17T05:25:16Z</time>
  <speed>1.850000</speed>
</trkpt>
<trkpt lat="32.744209290" lon="35.043506622">
  <ele>490.283691</ele>
  <time>2011-06-17T05:25:19Z</time>
  <speed>1.620000</speed>
</trkpt>
<trkpt lat="32.744182587" lon="35.043525696">
  <ele>490.354004</ele>
  <time>2011-06-17T05:25:21Z</time>
  <speed>1.670000</speed>
</trkpt>
<trkpt lat="32.744171143" lon="35.043571472">
  <ele>490.939941</ele>
  <time>2011-06-17T05:25:24Z</time>
  <speed>1.770000</speed>
</trkpt>
<trkpt lat="32.744152069" lon="35.043605804">
  <ele>491.463379</ele>
  <time>2011-06-17T05:25:26Z</time>
  <speed>1.860000</speed>
</trkpt>
<trkpt lat="32.744121552" lon="35.043621063">
  <ele>491.572754</ele>
  <time>2011-06-17T05:25:28Z</time>
  <speed>1.690000</speed>
</trkpt>
<trkpt lat="32.744091034" lon="35.043636322">
  <ele>492.666504</ele>
  <time>2011-06-17T05:25:30Z</time>
  <speed>1.810000</speed>
</trkpt>
<trkpt lat="32.744052887" lon="35.043647766">
  <ele>493.564941</ele>
  <time>2011-06-17T05:25:32Z</time>
  <speed>1.840000</speed>
</trkpt>
<trkpt lat="32.744022369" lon="35.043663025">
  <ele>494.408691</ele>
  <time>2011-06-17T05:25:33Z</time>
  <speed>1.850000</speed>
</trkpt>
<trkpt lat="32.743988037" lon="35.043666840">
  <ele>494.994629</ele>
  <time>2011-06-17T05:25:35Z</time>
  <speed>1.880000</speed>
</trkpt>
<trkpt lat="32.743953705" lon="35.043670654">
  <ele>495.877441</ele>
  <time>2011-06-17T05:25:37Z</time>
  <speed>1.490000</speed>
</trkpt>
<trkpt lat="32.743927002" lon="35.043663025">
  <ele>496.150879</ele>
  <time>2011-06-17T05:25:39Z</time>
  <speed>1.710000</speed>
</trkpt>
<trkpt lat="32.743896484" lon="35.043651581">
  <ele>497.760254</ele>
  <time>2011-06-17T05:25:41Z</time>
  <speed>1.550000</speed>
</trkpt>
<trkpt lat="32.743869781" lon="35.043628693">
  <ele>498.104004</ele>
  <time>2011-06-17T05:25:43Z</time>
  <speed>1.600000</speed>
</trkpt>
<trkpt lat="32.743850708" lon="35.043609619">
  <ele>497.861816</ele>
  <time>2011-06-17T05:25:45Z</time>
  <speed>1.630000</speed>
</trkpt>
<trkpt lat="32.743820190" lon="35.043586731">
  <ele>498.705566</ele>
  <time>2011-06-17T05:25:48Z</time>
  <speed>1.580000</speed>
</trkpt>
<trkpt lat="32.743801117" lon="35.043560028">
  <ele>498.986816</ele>
  <time>2011-06-17T05:25:50Z</time>
  <speed>1.860000</speed>
</trkpt>
<trkpt lat="32.743778229" lon="35.043529510">
  <ele>499.377441</ele>
  <time>2011-06-17T05:25:52Z</time>
  <speed>1.950000</speed>
</trkpt>
<trkpt lat="32.743755341" lon="35.043506622">
  <ele>500.010254</ele>
  <time>2011-06-17T05:25:54Z</time>
  <speed>1.420000</speed>
</trkpt>
<trkpt lat="32.743740082" lon="35.043460846">
  <ele>499.799316</ele>
  <time>2011-06-17T05:25:57Z</time>
  <speed>1.690000</speed>
</trkpt>
<trkpt lat="32.743724823" lon="35.043422699">
  <ele>500.127441</ele>
  <time>2011-06-17T05:26:00Z</time>
  <speed>1.260000</speed>
</trkpt>
<trkpt lat="32.743709564" lon="35.043399811">
  <ele>500.525879</ele>
  <time>2011-06-17T05:26:02Z</time>
  <speed>1.470000</speed>
</trkpt>
<trkpt lat="32.743682861" lon="35.043365479">
  <ele>500.830566</ele>
  <time>2011-06-17T05:26:05Z</time>
  <speed>1.600000</speed>
</trkpt>
<trkpt lat="32.743667603" lon="35.043334961">
  <ele>501.400879</ele>
  <time>2011-06-17T05:26:07Z</time>
  <speed>1.430000</speed>
</trkpt>
<trkpt lat="32.743637085" lon="35.043304443">
  <ele>502.736816</ele>
  <time>2011-06-17T05:26:10Z</time>
  <speed>1.420000</speed>
</trkpt>
<trkpt lat="32.743610382" lon="35.043285370">
  <ele>503.408691</ele>
  <time>2011-06-17T05:26:12Z</time>
  <speed>1.330000</speed>
</trkpt>
<trkpt lat="32.743587494" lon="35.043262482">
  <ele>503.549316</ele>
  <time>2011-06-17T05:26:14Z</time>
  <speed>1.530000</speed>
</trkpt>
<trkpt lat="32.743556976" lon="35.043228149">
  <ele>504.518066</ele>
  <time>2011-06-17T05:26:17Z</time>
  <speed>1.430000</speed>
</trkpt>
<trkpt lat="32.743530273" lon="35.043212891">
  <ele>504.252441</ele>
  <time>2011-06-17T05:26:19Z</time>
  <speed>1.690000</speed>
</trkpt>
<trkpt lat="32.743511200" lon="35.043178558">
  <ele>504.877441</ele>
  <time>2011-06-17T05:26:22Z</time>
  <speed>1.580000</speed>
</trkpt>
<trkpt lat="32.743495941" lon="35.043144226">
  <ele>505.072754</ele>
  <time>2011-06-17T05:26:24Z</time>
  <speed>1.590000</speed>
</trkpt>
<trkpt lat="32.743473053" lon="35.043121338">
  <ele>504.947754</ele>
  <time>2011-06-17T05:26:26Z</time>
  <speed>1.610000</speed>
</trkpt>
<trkpt lat="32.743461609" lon="35.043090820">
  <ele>505.393066</ele>
  <time>2011-06-17T05:26:28Z</time>
  <speed>1.760000</speed>
</trkpt>
<trkpt lat="32.743446350" lon="35.043064117">
  <ele>505.580566</ele>
  <time>2011-06-17T05:26:30Z</time>
  <speed>1.320000</speed>
</trkpt>
<trkpt lat="32.743434906" lon="35.043033600">
  <ele>505.682129</ele>
  <time>2011-06-17T05:26:32Z</time>
  <speed>1.630000</speed>
</trkpt>
<trkpt lat="32.743431091" lon="35.042991638">
  <ele>506.143066</ele>
  <time>2011-06-17T05:26:35Z</time>
  <speed>1.240000</speed>
</trkpt>
<trkpt lat="32.743419647" lon="35.042953491">
  <ele>506.346191</ele>
  <time>2011-06-17T05:26:38Z</time>
  <speed>1.470000</speed>
</trkpt>
<trkpt lat="32.743412018" lon="35.042907715">
  <ele>506.244629</ele>
  <time>2011-06-17T05:26:41Z</time>
  <speed>1.590000</speed>
</trkpt>
<trkpt lat="32.743404388" lon="35.042873383">
  <ele>506.611816</ele>
  <time>2011-06-17T05:26:43Z</time>
  <speed>1.780000</speed>
</trkpt>
<trkpt lat="32.743400574" lon="35.042839050">
  <ele>506.963379</ele>
  <time>2011-06-17T05:26:45Z</time>
  <speed>1.170000</speed>
</trkpt>
<trkpt lat="32.743396759" lon="35.042793274">
  <ele>507.213379</ele>
  <time>2011-06-17T05:26:48Z</time>
  <speed>1.780000</speed>
</trkpt>
<trkpt lat="32.743392944" lon="35.042755127">
  <ele>508.705566</ele>
  <time>2011-06-17T05:26:50Z</time>
  <speed>1.720000</speed>
</trkpt>
<trkpt lat="32.743377686" lon="35.042732239">
  <ele>509.932129</ele>
  <time>2011-06-17T05:26:52Z</time>
  <speed>1.590000</speed>
</trkpt>
<trkpt lat="32.743362427" lon="35.042690277">
  <ele>510.189941</ele>
  <time>2011-06-17T05:26:55Z</time>
  <speed>1.510000</speed>
</trkpt>
<trkpt lat="32.743354797" lon="35.042659760">
  <ele>509.916504</ele>
  <time>2011-06-17T05:26:57Z</time>
  <speed>1.430000</speed>
</trkpt>
<trkpt lat="32.743354797" lon="35.042625427">
  <ele>510.666504</ele>
  <time>2011-06-17T05:27:00Z</time>
  <speed>1.240000</speed>
</trkpt>
<trkpt lat="32.743362427" lon="35.042587280">
  <ele>512.801758</ele>
  <time>2011-06-17T05:27:03Z</time>
  <speed>1.460000</speed>
</trkpt>
<trkpt lat="32.743370056" lon="35.042556763">
  <ele>514.114258</ele>
  <time>2011-06-17T05:27:05Z</time>
  <speed>1.370000</speed>
</trkpt>
<trkpt lat="32.743381500" lon="35.042518616">
  <ele>515.426758</ele>
  <time>2011-06-17T05:27:08Z</time>
  <speed>1.190000</speed>
</trkpt>
<trkpt lat="32.743385315" lon="35.042476654">
  <ele>516.254883</ele>
  <time>2011-06-17T05:27:11Z</time>
  <speed>1.280000</speed>
</trkpt>
<trkpt lat="32.743389130" lon="35.042438507">
  <ele>517.708008</ele>
  <time>2011-06-17T05:27:14Z</time>
  <speed>1.220000</speed>
</trkpt>
<trkpt lat="32.743385315" lon="35.042396545">
  <ele>518.098633</ele>
  <time>2011-06-17T05:27:17Z</time>
  <speed>1.180000</speed>
</trkpt>
<trkpt lat="32.743381500" lon="35.042366028">
  <ele>519.614258</ele>
  <time>2011-06-17T05:27:20Z</time>
  <speed>0.840000</speed>
</trkpt>
<trkpt lat="32.743385315" lon="35.042320251">
  <ele>518.458008</ele>
  <time>2011-06-17T05:27:23Z</time>
  <speed>1.220000</speed>
</trkpt>
<trkpt lat="32.743381500" lon="35.042285919">
  <ele>518.176758</ele>
  <time>2011-06-17T05:27:26Z</time>
  <speed>1.360000</speed>
</trkpt>
<trkpt lat="32.743392944" lon="35.042243958">
  <ele>518.286133</ele>
  <time>2011-06-17T05:27:29Z</time>
  <speed>1.030000</speed>
</trkpt>
<trkpt lat="32.743396759" lon="35.042213440">
  <ele>518.504883</ele>
  <time>2011-06-17T05:27:31Z</time>
  <speed>1.500000</speed>
</trkpt>
<trkpt lat="32.743408203" lon="35.042171478">
  <ele>519.192383</ele>
  <time>2011-06-17T05:27:34Z</time>
  <speed>1.290000</speed>
</trkpt>
<trkpt lat="32.743404388" lon="35.042129517">
  <ele>519.911133</ele>
  <time>2011-06-17T05:27:37Z</time>
  <speed>1.290000</speed>
</trkpt>
<trkpt lat="32.743404388" lon="35.042095184">
  <ele>519.958008</ele>
  <time>2011-06-17T05:27:40Z</time>
  <speed>0.800000</speed>
</trkpt>
<trkpt lat="32.743389130" lon="35.042068481">
  <ele>519.223633</ele>
  <time>2011-06-17T05:27:42Z</time>
  <speed>1.480000</speed>
</trkpt>
<trkpt lat="32.743358612" lon="35.042034149">
  <ele>519.145508</ele>
  <time>2011-06-17T05:27:45Z</time>
  <speed>1.130000</speed>
</trkpt>
<trkpt lat="32.743335724" lon="35.041996002">
  <ele>519.520508</ele>
  <time>2011-06-17T05:27:48Z</time>
  <speed>1.360000</speed>
</trkpt>
<trkpt lat="32.743316650" lon="35.041957855">
  <ele>519.411133</ele>
  <time>2011-06-17T05:27:50Z</time>
  <speed>1.670000</speed>
</trkpt>
<trkpt lat="32.743297577" lon="35.041927338">
  <ele>519.333008</ele>
  <time>2011-06-17T05:27:52Z</time>
  <speed>1.410000</speed>
</trkpt>
<trkpt lat="32.743278503" lon="35.041912079">
  <ele>517.911133</ele>
  <time>2011-06-17T05:27:55Z</time>
  <speed>1.830000</speed>
</trkpt>
<trkpt lat="32.743255615" lon="35.041877747">
  <ele>517.567383</ele>
  <time>2011-06-17T05:27:57Z</time>
  <speed>2.380000</speed>
</trkpt>
<trkpt lat="32.743221283" lon="35.041824341">
  <ele>517.411133</ele>
  <time>2011-06-17T05:27:59Z</time>
  <speed>3.110000</speed>
</trkpt>
<trkpt lat="32.743202209" lon="35.041793823">
  <ele>516.676758</ele>
  <time>2011-06-17T05:28:00Z</time>
  <speed>3.280000</speed>
</trkpt>
<trkpt lat="32.743179321" lon="35.041763306">
  <ele>516.770508</ele>
  <time>2011-06-17T05:28:01Z</time>
  <speed>3.830000</speed>
</trkpt>
<trkpt lat="32.743160248" lon="35.041728973">
  <ele>515.754883</ele>
  <time>2011-06-17T05:28:02Z</time>
  <speed>4.130000</speed>
</trkpt>
<trkpt lat="32.743133545" lon="35.041690826">
  <ele>515.270508</ele>
  <time>2011-06-17T05:28:03Z</time>
  <speed>4.620000</speed>
</trkpt>
<trkpt lat="32.743106842" lon="35.041652679">
  <ele>514.786133</ele>
  <time>2011-06-17T05:28:04Z</time>
  <speed>4.940000</speed>
</trkpt>
<trkpt lat="32.743076324" lon="35.041610718">
  <ele>514.661133</ele>
  <time>2011-06-17T05:28:05Z</time>
  <speed>5.020000</speed>
</trkpt>
<trkpt lat="32.743041992" lon="35.041576385">
  <ele>514.239258</ele>
  <time>2011-06-17T05:28:06Z</time>
  <speed>4.930000</speed>
</trkpt>
<trkpt lat="32.743007660" lon="35.041538239">
  <ele>514.239258</ele>
  <time>2011-06-17T05:28:07Z</time>
  <speed>4.760000</speed>
</trkpt>
<trkpt lat="32.742969513" lon="35.041511536">
  <ele>514.473633</ele>
  <time>2011-06-17T05:28:08Z</time>
  <speed>4.520000</speed>
</trkpt>
<trkpt lat="32.742938995" lon="35.041492462">
  <ele>514.083008</ele>
  <time>2011-06-17T05:28:09Z</time>
  <speed>4.120000</speed>
</trkpt>
<trkpt lat="32.742912292" lon="35.041465759">
  <ele>513.786133</ele>
  <time>2011-06-17T05:28:10Z</time>
  <speed>3.590000</speed>
</trkpt>
<trkpt lat="32.742866516" lon="35.041431427">
  <ele>513.083008</ele>
  <time>2011-06-17T05:28:12Z</time>
  <speed>2.540000</speed>
</trkpt>
<trkpt lat="32.742832184" lon="35.041416168">
  <ele>514.411133</ele>
  <time>2011-06-17T05:28:14Z</time>
  <speed>1.770000</speed>
</trkpt>
<trkpt lat="32.742809296" lon="35.041385651">
  <ele>512.723633</ele>
  <time>2011-06-17T05:28:16Z</time>
  <speed>1.990000</speed>
</trkpt>
<trkpt lat="32.742771149" lon="35.041362762">
  <ele>512.754883</ele>
  <time>2011-06-17T05:28:18Z</time>
  <speed>2.250000</speed>
</trkpt>
<trkpt lat="32.742736816" lon="35.041347504">
  <ele>514.536133</ele>
  <time>2011-06-17T05:28:20Z</time>
  <speed>1.850000</speed>
</trkpt>
<trkpt lat="32.742698669" lon="35.041324615">
  <ele>516.536133</ele>
  <time>2011-06-17T05:28:22Z</time>
  <speed>2.290000</speed>
</trkpt>
<trkpt lat="32.742656708" lon="35.041305542">
  <ele>518.051758</ele>
  <time>2011-06-17T05:28:24Z</time>
  <speed>2.250000</speed>
</trkpt>
<trkpt lat="32.742618561" lon="35.041290283">
  <ele>518.270508</ele>
  <time>2011-06-17T05:28:26Z</time>
  <speed>2.230000</speed>
</trkpt>
<trkpt lat="32.742584229" lon="35.041267395">
  <ele>517.583008</ele>
  <time>2011-06-17T05:28:28Z</time>
  <speed>2.360000</speed>
</trkpt>
<trkpt lat="32.742549896" lon="35.041248322">
  <ele>517.020508</ele>
  <time>2011-06-17T05:28:30Z</time>
  <speed>2.200000</speed>
</trkpt>
<trkpt lat="32.742507935" lon="35.041229248">
  <ele>517.348633</ele>
  <time>2011-06-17T05:28:32Z</time>
  <speed>2.220000</speed>
</trkpt>
<trkpt lat="32.742477417" lon="35.041202545">
  <ele>517.145508</ele>
  <time>2011-06-17T05:28:34Z</time>
  <speed>2.140000</speed>
</trkpt>
<trkpt lat="32.742443085" lon="35.041191101">
  <ele>516.911133</ele>
  <time>2011-06-17T05:28:36Z</time>
  <speed>2.230000</speed>
</trkpt>
<trkpt lat="32.742393494" lon="35.041191101">
  <ele>516.926758</ele>
  <time>2011-06-17T05:28:38Z</time>
  <speed>2.040000</speed>
</trkpt>
<trkpt lat="32.742347717" lon="35.041187286">
  <ele>517.833008</ele>
  <time>2011-06-17T05:28:40Z</time>
  <speed>2.190000</speed>
</trkpt>
<trkpt lat="32.742309570" lon="35.041175842">
  <ele>517.770508</ele>
  <time>2011-06-17T05:28:42Z</time>
  <speed>2.180000</speed>
</trkpt>
<trkpt lat="32.742275238" lon="35.041175842">
  <ele>517.051758</ele>
  <time>2011-06-17T05:28:44Z</time>
  <speed>2.240000</speed>
</trkpt>
<trkpt lat="32.742240906" lon="35.041172028">
  <ele>517.801758</ele>
  <time>2011-06-17T05:28:46Z</time>
  <speed>2.060000</speed>
</trkpt>
<trkpt lat="32.742195129" lon="35.041183472">
  <ele>518.098633</ele>
  <time>2011-06-17T05:28:48Z</time>
  <speed>2.190000</speed>
</trkpt>
<trkpt lat="32.742153168" lon="35.041194916">
  <ele>518.426758</ele>
  <time>2011-06-17T05:28:50Z</time>
  <speed>2.250000</speed>
</trkpt>
<trkpt lat="32.742115021" lon="35.041194916">
  <ele>519.473633</ele>
  <time>2011-06-17T05:28:52Z</time>
  <speed>2.150000</speed>
</trkpt>
<trkpt lat="32.742073059" lon="35.041183472">
  <ele>519.739258</ele>
  <time>2011-06-17T05:28:54Z</time>
  <speed>2.170000</speed>
</trkpt>
<trkpt lat="32.742038727" lon="35.041187286">
  <ele>519.708008</ele>
  <time>2011-06-17T05:28:56Z</time>
  <speed>1.960000</speed>
</trkpt>
<trkpt lat="32.741996765" lon="35.041183472">
  <ele>520.004883</ele>
  <time>2011-06-17T05:28:58Z</time>
  <speed>1.980000</speed>
</trkpt>
<trkpt lat="32.741962433" lon="35.041187286">
  <ele>519.551758</ele>
  <time>2011-06-17T05:29:00Z</time>
  <speed>2.360000</speed>
</trkpt>
<trkpt lat="32.741920471" lon="35.041191101">
  <ele>520.364258</ele>
  <time>2011-06-17T05:29:02Z</time>
  <speed>2.230000</speed>
</trkpt>
<trkpt lat="32.741882324" lon="35.041194916">
  <ele>521.723633</ele>
  <time>2011-06-17T05:29:04Z</time>
  <speed>2.070000</speed>
</trkpt>
<trkpt lat="32.741840363" lon="35.041198730">
  <ele>522.270508</ele>
  <time>2011-06-17T05:29:06Z</time>
  <speed>2.240000</speed>
</trkpt>
<trkpt lat="32.741794586" lon="35.041202545">
  <ele>524.020508</ele>
  <time>2011-06-17T05:29:08Z</time>
  <speed>2.140000</speed>
</trkpt>
<trkpt lat="32.741760254" lon="35.041202545">
  <ele>523.723633</ele>
  <time>2011-06-17T05:29:10Z</time>
  <speed>2.040000</speed>
</trkpt>
<trkpt lat="32.741722107" lon="35.041191101">
  <ele>523.989258</ele>
  <time>2011-06-17T05:29:12Z</time>
  <speed>1.890000</speed>
</trkpt>
<trkpt lat="32.741683960" lon="35.041187286">
  <ele>525.051758</ele>
  <time>2011-06-17T05:29:14Z</time>
  <speed>1.910000</speed>
</trkpt>
<trkpt lat="32.741649628" lon="35.041164398">
  <ele>525.192383</ele>
  <time>2011-06-17T05:29:16Z</time>
  <speed>2.000000</speed>
</trkpt>
<trkpt lat="32.741630554" lon="35.041130066">
  <ele>525.926758</ele>
  <time>2011-06-17T05:29:18Z</time>
  <speed>1.650000</speed>
</trkpt>
<trkpt lat="32.741600037" lon="35.041099548">
  <ele>526.614258</ele>
  <time>2011-06-17T05:29:20Z</time>
  <speed>1.960000</speed>
</trkpt>
<trkpt lat="32.741573334" lon="35.041072845">
  <ele>527.051758</ele>
  <time>2011-06-17T05:29:22Z</time>
  <speed>1.760000</speed>
</trkpt>
<trkpt lat="32.741550446" lon="35.041046143">
  <ele>526.754883</ele>
  <time>2011-06-17T05:29:24Z</time>
  <speed>2.030000</speed>
</trkpt>
<trkpt lat="32.741527557" lon="35.041027069">
  <ele>526.692383</ele>
  <time>2011-06-17T05:29:26Z</time>
  <speed>1.890000</speed>
</trkpt>
<trkpt lat="32.741504669" lon="35.041004181">
  <ele>526.395508</ele>
  <time>2011-06-17T05:29:28Z</time>
  <speed>1.730000</speed>
</trkpt>
<trkpt lat="32.741477966" lon="35.040977478">
  <ele>526.395508</ele>
  <time>2011-06-17T05:29:30Z</time>
  <speed>1.780000</speed>
</trkpt>
<trkpt lat="32.741455078" lon="35.040950775">
  <ele>526.895508</ele>
  <time>2011-06-17T05:29:32Z</time>
  <speed>1.940000</speed>
</trkpt>
<trkpt lat="32.741439819" lon="35.040924072">
  <ele>526.629883</ele>
  <time>2011-06-17T05:29:34Z</time>
  <speed>1.900000</speed>
</trkpt>
<trkpt lat="32.741420746" lon="35.040882111">
  <ele>526.754883</ele>
  <time>2011-06-17T05:29:36Z</time>
  <speed>1.990000</speed>
</trkpt>
<trkpt lat="32.741394043" lon="35.040851593">
  <ele>526.739258</ele>
  <time>2011-06-17T05:29:38Z</time>
  <speed>2.110000</speed>
</trkpt>
<trkpt lat="32.741363525" lon="35.040813446">
  <ele>527.176758</ele>
  <time>2011-06-17T05:29:40Z</time>
  <speed>2.060000</speed>
</trkpt>
<trkpt lat="32.741344452" lon="35.040771484">
  <ele>527.395508</ele>
  <time>2011-06-17T05:29:42Z</time>
  <speed>2.300000</speed>
</trkpt>
<trkpt lat="32.741317749" lon="35.040737152">
  <ele>527.364258</ele>
  <time>2011-06-17T05:29:44Z</time>
  <speed>2.230000</speed>
</trkpt>
<trkpt lat="32.741294861" lon="35.040695190">
  <ele>526.333008</ele>
  <time>2011-06-17T05:29:46Z</time>
  <speed>2.680000</speed>
</trkpt>
<trkpt lat="32.741283417" lon="35.040664673">
  <ele>525.598633</ele>
  <time>2011-06-17T05:29:47Z</time>
  <speed>2.840000</speed>
</trkpt>
<trkpt lat="32.741252899" lon="35.040611267">
  <ele>525.348633</ele>
  <time>2011-06-17T05:29:49Z</time>
  <speed>3.700000</speed>
</trkpt>
<trkpt lat="32.741233826" lon="35.040576935">
  <ele>524.629883</ele>
  <time>2011-06-17T05:29:50Z</time>
  <speed>4.050000</speed>
</trkpt>
<trkpt lat="32.741210938" lon="35.040534973">
  <ele>524.004883</ele>
  <time>2011-06-17T05:29:51Z</time>
  <speed>4.460000</speed>
</trkpt>
<trkpt lat="32.741191864" lon="35.040489197">
  <ele>523.129883</ele>
  <time>2011-06-17T05:29:52Z</time>
  <speed>4.840000</speed>
</trkpt>
<trkpt lat="32.741168976" lon="35.040439606">
  <ele>522.192383</ele>
  <time>2011-06-17T05:29:53Z</time>
  <speed>5.160000</speed>
</trkpt>
<trkpt lat="32.741142273" lon="35.040393829">
  <ele>522.239258</ele>
  <time>2011-06-17T05:29:54Z</time>
  <speed>5.230000</speed>
</trkpt>
<trkpt lat="32.741119385" lon="35.040348053">
  <ele>521.645508</ele>
  <time>2011-06-17T05:29:55Z</time>
  <speed>5.440000</speed>
</trkpt>
<trkpt lat="32.741092682" lon="35.040298462">
  <ele>521.817383</ele>
  <time>2011-06-17T05:29:56Z</time>
  <speed>5.580000</speed>
</trkpt>
<trkpt lat="32.741073608" lon="35.040241241">
  <ele>522.051758</ele>
  <time>2011-06-17T05:29:57Z</time>
  <speed>5.790000</speed>
</trkpt>
<trkpt lat="32.741046906" lon="35.040180206">
  <ele>521.614258</ele>
  <time>2011-06-17T05:29:58Z</time>
  <speed>6.100000</speed>
</trkpt>
<trkpt lat="32.741016388" lon="35.040122986">
  <ele>521.426758</ele>
  <time>2011-06-17T05:29:59Z</time>
  <speed>6.630000</speed>
</trkpt>
<trkpt lat="32.740982056" lon="35.040058136">
  <ele>521.536133</ele>
  <time>2011-06-17T05:30:00Z</time>
  <speed>6.810000</speed>
</trkpt>
<trkpt lat="32.740951538" lon="35.039997101">
  <ele>521.395508</ele>
  <time>2011-06-17T05:30:01Z</time>
  <speed>7.240000</speed>
</trkpt>
<trkpt lat="32.740917206" lon="35.039924622">
  <ele>521.301758</ele>
  <time>2011-06-17T05:30:02Z</time>
  <speed>7.400000</speed>
</trkpt>
<trkpt lat="32.740871429" lon="35.039859772">
  <ele>521.364258</ele>
  <time>2011-06-17T05:30:03Z</time>
  <speed>7.940000</speed>
</trkpt>
<trkpt lat="32.740829468" lon="35.039787292">
  <ele>521.442383</ele>
  <time>2011-06-17T05:30:04Z</time>
  <speed>7.930000</speed>
</trkpt>
<trkpt lat="32.740791321" lon="35.039722443">
  <ele>520.426758</ele>
  <time>2011-06-17T05:30:05Z</time>
  <speed>7.600000</speed>
</trkpt>
<trkpt lat="32.740756989" lon="35.039653778">
  <ele>520.301758</ele>
  <time>2011-06-17T05:30:06Z</time>
  <speed>7.710000</speed>
</trkpt>
<trkpt lat="32.740722656" lon="35.039585114">
  <ele>520.239258</ele>
  <time>2011-06-17T05:30:07Z</time>
  <speed>7.710000</speed>
</trkpt>
<trkpt lat="32.740692139" lon="35.039508820">
  <ele>520.301758</ele>
  <time>2011-06-17T05:30:08Z</time>
  <speed>7.680000</speed>
</trkpt>
<trkpt lat="32.740665436" lon="35.039436340">
  <ele>519.583008</ele>
  <time>2011-06-17T05:30:09Z</time>
  <speed>7.390000</speed>
</trkpt>
<trkpt lat="32.740646362" lon="35.039363861">
  <ele>519.833008</ele>
  <time>2011-06-17T05:30:10Z</time>
  <speed>7.330000</speed>
</trkpt>
<trkpt lat="32.740638733" lon="35.039283752">
  <ele>519.911133</ele>
  <time>2011-06-17T05:30:11Z</time>
  <speed>7.160000</speed>
</trkpt>
<trkpt lat="32.740634918" lon="35.039207458">
  <ele>519.520508</ele>
  <time>2011-06-17T05:30:12Z</time>
  <speed>6.650000</speed>
</trkpt>
<trkpt lat="32.740638733" lon="35.039142609">
  <ele>518.551758</ele>
  <time>2011-06-17T05:30:13Z</time>
  <speed>6.150000</speed>
</trkpt>
<trkpt lat="32.740642548" lon="35.039081573">
  <ele>519.176758</ele>
  <time>2011-06-17T05:30:14Z</time>
  <speed>5.730000</speed>
</trkpt>
<trkpt lat="32.740646362" lon="35.039024353">
  <ele>519.317383</ele>
  <time>2011-06-17T05:30:15Z</time>
  <speed>5.220000</speed>
</trkpt>
<trkpt lat="32.740653992" lon="35.038970947">
  <ele>519.504883</ele>
  <time>2011-06-17T05:30:16Z</time>
  <speed>4.810000</speed>
</trkpt>
<trkpt lat="32.740657806" lon="35.038925171">
  <ele>519.692383</ele>
  <time>2011-06-17T05:30:17Z</time>
  <speed>4.720000</speed>
</trkpt>
<trkpt lat="32.740661621" lon="35.038875580">
  <ele>519.676758</ele>
  <time>2011-06-17T05:30:18Z</time>
  <speed>4.480000</speed>
</trkpt>
<trkpt lat="32.740669250" lon="35.038833618">
  <ele>519.973633</ele>
  <time>2011-06-17T05:30:19Z</time>
  <speed>4.310000</speed>
</trkpt>
<trkpt lat="32.740680695" lon="35.038791656">
  <ele>519.723633</ele>
  <time>2011-06-17T05:30:20Z</time>
  <speed>4.040000</speed>
</trkpt>
<trkpt lat="32.740692139" lon="35.038753510">
  <ele>519.848633</ele>
  <time>2011-06-17T05:30:21Z</time>
  <speed>4.100000</speed>
</trkpt>
<trkpt lat="32.740695953" lon="35.038711548">
  <ele>519.676758</ele>
  <time>2011-06-17T05:30:22Z</time>
  <speed>3.870000</speed>
</trkpt>
<trkpt lat="32.740703583" lon="35.038669586">
  <ele>519.364258</ele>
  <time>2011-06-17T05:30:23Z</time>
  <speed>3.640000</speed>
</trkpt>
<trkpt lat="32.740707397" lon="35.038631439">
  <ele>519.036133</ele>
  <time>2011-06-17T05:30:24Z</time>
  <speed>3.910000</speed>
</trkpt>
<trkpt lat="32.740715027" lon="35.038597107">
  <ele>519.145508</ele>
  <time>2011-06-17T05:30:25Z</time>
  <speed>3.800000</speed>
</trkpt>
<trkpt lat="32.740715027" lon="35.038555145">
  <ele>519.004883</ele>
  <time>2011-06-17T05:30:26Z</time>
  <speed>3.830000</speed>
</trkpt>
<trkpt lat="32.740715027" lon="35.038513184">
  <ele>518.723633</ele>
  <time>2011-06-17T05:30:27Z</time>
  <speed>4.100000</speed>
</trkpt>
<trkpt lat="32.740711212" lon="35.038478851">
  <ele>518.801758</ele>
  <time>2011-06-17T05:30:28Z</time>
  <speed>4.040000</speed>
</trkpt>
<trkpt lat="32.740703583" lon="35.038448334">
  <ele>517.239258</ele>
  <time>2011-06-17T05:30:29Z</time>
  <speed>3.970000</speed>
</trkpt>
<trkpt lat="32.740688324" lon="35.038417816">
  <ele>515.739258</ele>
  <time>2011-06-17T05:30:30Z</time>
  <speed>4.020000</speed>
</trkpt>
<trkpt lat="32.740665436" lon="35.038375854">
  <ele>514.364258</ele>
  <time>2011-06-17T05:30:31Z</time>
  <speed>3.870000</speed>
</trkpt>
<trkpt lat="32.740642548" lon="35.038349152">
  <ele>513.176758</ele>
  <time>2011-06-17T05:30:32Z</time>
  <speed>3.880000</speed>
</trkpt>
<trkpt lat="32.740615845" lon="35.038322449">
  <ele>512.489258</ele>
  <time>2011-06-17T05:30:33Z</time>
  <speed>3.960000</speed>
</trkpt>
<trkpt lat="32.740581512" lon="35.038295746">
  <ele>512.426758</ele>
  <time>2011-06-17T05:30:34Z</time>
  <speed>4.050000</speed>
</trkpt>
<trkpt lat="32.740547180" lon="35.038284302">
  <ele>512.333008</ele>
  <time>2011-06-17T05:30:35Z</time>
  <speed>3.790000</speed>
</trkpt>
<trkpt lat="32.740512848" lon="35.038276672">
  <ele>511.361816</ele>
  <time>2011-06-17T05:30:36Z</time>
  <speed>3.950000</speed>
</trkpt>
<trkpt lat="32.740463257" lon="35.038269043">
  <ele>513.098633</ele>
  <time>2011-06-17T05:30:37Z</time>
  <speed>4.000000</speed>
</trkpt>
<trkpt lat="32.740428925" lon="35.038246155">
  <ele>512.739258</ele>
  <time>2011-06-17T05:30:38Z</time>
  <speed>4.310000</speed>
</trkpt>
<trkpt lat="32.740398407" lon="35.038219452">
  <ele>511.916504</ele>
  <time>2011-06-17T05:30:39Z</time>
  <speed>4.650000</speed>
</trkpt>
<trkpt lat="32.740364075" lon="35.038181305">
  <ele>513.020508</ele>
  <time>2011-06-17T05:30:40Z</time>
  <speed>4.410000</speed>
</trkpt>
<trkpt lat="32.740337372" lon="35.038139343">
  <ele>512.395508</ele>
  <time>2011-06-17T05:30:41Z</time>
  <speed>4.760000</speed>
</trkpt>
<trkpt lat="32.740306854" lon="35.038101196">
  <ele>511.994629</ele>
  <time>2011-06-17T05:30:42Z</time>
  <speed>4.930000</speed>
</trkpt>
<trkpt lat="32.740272522" lon="35.038066864">
  <ele>512.051758</ele>
  <time>2011-06-17T05:30:43Z</time>
  <speed>4.840000</speed>
</trkpt>
<trkpt lat="32.740242004" lon="35.038032532">
  <ele>512.364258</ele>
  <time>2011-06-17T05:30:44Z</time>
  <speed>4.870000</speed>
</trkpt>
<trkpt lat="32.740215302" lon="35.037994385">
  <ele>512.208008</ele>
  <time>2011-06-17T05:30:45Z</time>
  <speed>4.860000</speed>
</trkpt>
<trkpt lat="32.740180969" lon="35.037952423">
  <ele>512.676758</ele>
  <time>2011-06-17T05:30:46Z</time>
  <speed>5.130000</speed>
</trkpt>
<trkpt lat="32.740146637" lon="35.037906647">
  <ele>512.739258</ele>
  <time>2011-06-17T05:30:47Z</time>
  <speed>5.690000</speed>
</trkpt>
<trkpt lat="32.740108490" lon="35.037860870">
  <ele>512.083008</ele>
  <time>2011-06-17T05:30:48Z</time>
  <speed>5.960000</speed>
</trkpt>
<trkpt lat="32.740066528" lon="35.037815094">
  <ele>511.424316</ele>
  <time>2011-06-17T05:30:49Z</time>
  <speed>6.690000</speed>
</trkpt>
<trkpt lat="32.740016937" lon="35.037765503">
  <ele>510.916504</ele>
  <time>2011-06-17T05:30:50Z</time>
  <speed>6.930000</speed>
</trkpt>
<trkpt lat="32.739967346" lon="35.037715912">
  <ele>510.275879</ele>
  <time>2011-06-17T05:30:51Z</time>
  <speed>7.510000</speed>
</trkpt>
<trkpt lat="32.739913940" lon="35.037658691">
  <ele>509.721191</ele>
  <time>2011-06-17T05:30:52Z</time>
  <speed>8.050000</speed>
</trkpt>
<trkpt lat="32.739860535" lon="35.037590027">
  <ele>509.494629</ele>
  <time>2011-06-17T05:30:53Z</time>
  <speed>8.370000</speed>
</trkpt>
<trkpt lat="32.739810944" lon="35.037521362">
  <ele>509.072754</ele>
  <time>2011-06-17T05:30:54Z</time>
  <speed>8.630000</speed>
</trkpt>
<trkpt lat="32.739761353" lon="35.037452698">
  <ele>508.104004</ele>
  <time>2011-06-17T05:30:55Z</time>
  <speed>9.040000</speed>
</trkpt>
<trkpt lat="32.739711761" lon="35.037387848">
  <ele>506.424316</ele>
  <time>2011-06-17T05:30:56Z</time>
  <speed>9.030000</speed>
</trkpt>
<trkpt lat="32.739654541" lon="35.037315369">
  <ele>505.479004</ele>
  <time>2011-06-17T05:30:57Z</time>
  <speed>9.650000</speed>
</trkpt>
<trkpt lat="32.739601135" lon="35.037239075">
  <ele>504.158691</ele>
  <time>2011-06-17T05:30:58Z</time>
  <speed>8.970000</speed>
</trkpt>
<trkpt lat="32.739547729" lon="35.037166595">
  <ele>502.643066</ele>
  <time>2011-06-17T05:30:59Z</time>
  <speed>9.150000</speed>
</trkpt>
<trkpt lat="32.739494324" lon="35.037101746">
  <ele>501.705566</ele>
  <time>2011-06-17T05:31:00Z</time>
  <speed>8.590000</speed>
</trkpt>
<trkpt lat="32.739448547" lon="35.037029266">
  <ele>500.705566</ele>
  <time>2011-06-17T05:31:01Z</time>
  <speed>8.200000</speed>
</trkpt>
<trkpt lat="32.739406586" lon="35.036964417">
  <ele>500.361816</ele>
  <time>2011-06-17T05:31:02Z</time>
  <speed>7.230000</speed>
</trkpt>
<trkpt lat="32.739364624" lon="35.036903381">
  <ele>499.932129</ele>
  <time>2011-06-17T05:31:03Z</time>
  <speed>6.770000</speed>
</trkpt>
<trkpt lat="32.739326477" lon="35.036857605">
  <ele>498.650879</ele>
  <time>2011-06-17T05:31:04Z</time>
  <speed>5.260000</speed>
</trkpt>
<trkpt lat="32.739288330" lon="35.036827087">
  <ele>498.088379</ele>
  <time>2011-06-17T05:31:05Z</time>
  <speed>4.130000</speed>
</trkpt>
<trkpt lat="32.739253998" lon="35.036808014">
  <ele>497.369629</ele>
  <time>2011-06-17T05:31:06Z</time>
  <speed>4.190000</speed>
</trkpt>
<trkpt lat="32.739219666" lon="35.036796570">
  <ele>497.088379</ele>
  <time>2011-06-17T05:31:07Z</time>
  <speed>4.000000</speed>
</trkpt>
<trkpt lat="32.739181519" lon="35.036788940">
  <ele>496.541504</ele>
  <time>2011-06-17T05:31:08Z</time>
  <speed>4.350000</speed>
</trkpt>
<trkpt lat="32.739135742" lon="35.036781311">
  <ele>495.838379</ele>
  <time>2011-06-17T05:31:09Z</time>
  <speed>5.250000</speed>
</trkpt>
<trkpt lat="32.739082336" lon="35.036777496">
  <ele>495.799316</ele>
  <time>2011-06-17T05:31:10Z</time>
  <speed>5.780000</speed>
</trkpt>
<trkpt lat="32.739028931" lon="35.036773682">
  <ele>494.861816</ele>
  <time>2011-06-17T05:31:11Z</time>
  <speed>6.410000</speed>
</trkpt>
<trkpt lat="32.738971710" lon="35.036762238">
  <ele>493.580566</ele>
  <time>2011-06-17T05:31:12Z</time>
  <speed>6.120000</speed>
</trkpt>
<trkpt lat="32.738910675" lon="35.036754608">
  <ele>493.479004</ele>
  <time>2011-06-17T05:31:13Z</time>
  <speed>6.450000</speed>
</trkpt>
<trkpt lat="32.738853455" lon="35.036743164">
  <ele>492.025879</ele>
  <time>2011-06-17T05:31:14Z</time>
  <speed>6.490000</speed>
</trkpt>
<trkpt lat="32.738788605" lon="35.036739349">
  <ele>492.158691</ele>
  <time>2011-06-17T05:31:15Z</time>
  <speed>6.950000</speed>
</trkpt>
<trkpt lat="32.738727570" lon="35.036724091">
  <ele>490.729004</ele>
  <time>2011-06-17T05:31:16Z</time>
  <speed>6.600000</speed>
</trkpt>
<trkpt lat="32.738674164" lon="35.036720276">
  <ele>489.963379</ele>
  <time>2011-06-17T05:31:17Z</time>
  <speed>6.000000</speed>
</trkpt>
<trkpt lat="32.738609314" lon="35.036739349">
  <ele>490.127441</ele>
  <time>2011-06-17T05:31:18Z</time>
  <speed>6.450000</speed>
</trkpt>
<trkpt lat="32.738552094" lon="35.036762238">
  <ele>489.268066</ele>
  <time>2011-06-17T05:31:19Z</time>
  <speed>7.160000</speed>
</trkpt>
<trkpt lat="32.738487244" lon="35.036777496">
  <ele>489.385254</ele>
  <time>2011-06-17T05:31:20Z</time>
  <speed>7.120000</speed>
</trkpt>
<trkpt lat="32.738410950" lon="35.036792755">
  <ele>489.971191</ele>
  <time>2011-06-17T05:31:21Z</time>
  <speed>7.320000</speed>
</trkpt>
<trkpt lat="32.738342285" lon="35.036800385">
  <ele>489.916504</ele>
  <time>2011-06-17T05:31:22Z</time>
  <speed>7.370000</speed>
</trkpt>
<trkpt lat="32.738269806" lon="35.036815643">
  <ele>489.854004</ele>
  <time>2011-06-17T05:31:23Z</time>
  <speed>7.270000</speed>
</trkpt>
<trkpt lat="32.738204956" lon="35.036811829">
  <ele>489.377441</ele>
  <time>2011-06-17T05:31:24Z</time>
  <speed>7.000000</speed>
</trkpt>
<trkpt lat="32.738143921" lon="35.036815643">
  <ele>489.080566</ele>
  <time>2011-06-17T05:31:25Z</time>
  <speed>6.560000</speed>
</trkpt>
<trkpt lat="32.738079071" lon="35.036819458">
  <ele>489.893066</ele>
  <time>2011-06-17T05:31:26Z</time>
  <speed>6.540000</speed>
</trkpt>
<trkpt lat="32.738021851" lon="35.036823273">
  <ele>489.986816</ele>
  <time>2011-06-17T05:31:27Z</time>
  <speed>5.980000</speed>
</trkpt>
<trkpt lat="32.737964630" lon="35.036827087">
  <ele>489.908691</ele>
  <time>2011-06-17T05:31:28Z</time>
  <speed>5.700000</speed>
</trkpt>
<trkpt lat="32.737915039" lon="35.036830902">
  <ele>490.041504</ele>
  <time>2011-06-17T05:31:29Z</time>
  <speed>5.350000</speed>
</trkpt>
<trkpt lat="32.737869263" lon="35.036823273">
  <ele>490.127441</ele>
  <time>2011-06-17T05:31:30Z</time>
  <speed>4.880000</speed>
</trkpt>
<trkpt lat="32.737834930" lon="35.036811829">
  <ele>489.416504</ele>
  <time>2011-06-17T05:31:31Z</time>
  <speed>4.460000</speed>
</trkpt>
<trkpt lat="32.737796783" lon="35.036796570">
  <ele>490.002441</ele>
  <time>2011-06-17T05:31:32Z</time>
  <speed>3.080000</speed>
</trkpt>
<trkpt lat="32.737777710" lon="35.036773682">
  <ele>490.111816</ele>
  <time>2011-06-17T05:31:33Z</time>
  <speed>2.170000</speed>
</trkpt>
<trkpt lat="32.737731934" lon="35.036762238">
  <ele>490.432129</ele>
  <time>2011-06-17T05:31:35Z</time>
  <speed>2.640000</speed>
</trkpt>
<trkpt lat="32.737686157" lon="35.036788940">
  <ele>489.838379</ele>
  <time>2011-06-17T05:31:37Z</time>
  <speed>2.740000</speed>
</trkpt>
<trkpt lat="32.737636566" lon="35.036811829">
  <ele>489.189941</ele>
  <time>2011-06-17T05:31:39Z</time>
  <speed>3.020000</speed>
</trkpt>
<trkpt lat="32.737609863" lon="35.036815643">
  <ele>489.072754</ele>
  <time>2011-06-17T05:31:40Z</time>
  <speed>2.920000</speed>
</trkpt>
<trkpt lat="32.737556458" lon="35.036796570">
  <ele>488.033691</ele>
  <time>2011-06-17T05:31:42Z</time>
  <speed>2.910000</speed>
</trkpt>
<trkpt lat="32.737529755" lon="35.036796570">
  <ele>487.689941</ele>
  <time>2011-06-17T05:31:43Z</time>
  <speed>2.700000</speed>
</trkpt>
<trkpt lat="32.737483978" lon="35.036804199">
  <ele>486.361816</ele>
  <time>2011-06-17T05:31:45Z</time>
  <speed>2.510000</speed>
</trkpt>
<trkpt lat="32.737434387" lon="35.036796570">
  <ele>486.588379</ele>
  <time>2011-06-17T05:31:47Z</time>
  <speed>3.000000</speed>
</trkpt>
<trkpt lat="32.737373352" lon="35.036800385">
  <ele>487.322754</ele>
  <time>2011-06-17T05:31:49Z</time>
  <speed>2.950000</speed>
</trkpt>
<trkpt lat="32.737327576" lon="35.036808014">
  <ele>486.338379</ele>
  <time>2011-06-17T05:31:51Z</time>
  <speed>2.800000</speed>
</trkpt>
<trkpt lat="32.737270355" lon="35.036808014">
  <ele>486.104004</ele>
  <time>2011-06-17T05:31:53Z</time>
  <speed>3.100000</speed>
</trkpt>
<trkpt lat="32.737239838" lon="35.036800385">
  <ele>485.908691</ele>
  <time>2011-06-17T05:31:54Z</time>
  <speed>3.250000</speed>
</trkpt>
<trkpt lat="32.737213135" lon="35.036800385">
  <ele>485.861816</ele>
  <time>2011-06-17T05:31:55Z</time>
  <speed>3.360000</speed>
</trkpt>
<trkpt lat="32.737171173" lon="35.036808014">
  <ele>486.799316</ele>
  <time>2011-06-17T05:31:56Z</time>
  <speed>3.580000</speed>
</trkpt>
<trkpt lat="32.737133026" lon="35.036804199">
  <ele>486.783691</ele>
  <time>2011-06-17T05:31:57Z</time>
  <speed>3.880000</speed>
</trkpt>
<trkpt lat="32.737094879" lon="35.036796570">
  <ele>486.994629</ele>
  <time>2011-06-17T05:31:58Z</time>
  <speed>3.840000</speed>
</trkpt>
<trkpt lat="32.737056732" lon="35.036796570">
  <ele>487.057129</ele>
  <time>2011-06-17T05:31:59Z</time>
  <speed>4.080000</speed>
</trkpt>
<trkpt lat="32.737014771" lon="35.036796570">
  <ele>487.174316</ele>
  <time>2011-06-17T05:32:00Z</time>
  <speed>4.330000</speed>
</trkpt>
<trkpt lat="32.736972809" lon="35.036792755">
  <ele>487.783691</ele>
  <time>2011-06-17T05:32:01Z</time>
  <speed>4.230000</speed>
</trkpt>
<trkpt lat="32.736934662" lon="35.036792755">
  <ele>487.799316</ele>
  <time>2011-06-17T05:32:02Z</time>
  <speed>4.180000</speed>
</trkpt>
<trkpt lat="32.736900330" lon="35.036788940">
  <ele>487.807129</ele>
  <time>2011-06-17T05:32:03Z</time>
  <speed>3.960000</speed>
</trkpt>
<trkpt lat="32.736858368" lon="35.036792755">
  <ele>488.393066</ele>
  <time>2011-06-17T05:32:04Z</time>
  <speed>3.650000</speed>
</trkpt>
<trkpt lat="32.736824036" lon="35.036781311">
  <ele>488.330566</ele>
  <time>2011-06-17T05:32:05Z</time>
  <speed>3.620000</speed>
</trkpt>
<trkpt lat="32.736789703" lon="35.036773682">
  <ele>489.111816</ele>
  <time>2011-06-17T05:32:06Z</time>
  <speed>3.650000</speed>
</trkpt>
<trkpt lat="32.736743927" lon="35.036781311">
  <ele>491.057129</ele>
  <time>2011-06-17T05:32:07Z</time>
  <speed>3.190000</speed>
</trkpt>
<trkpt lat="32.736686707" lon="35.036777496">
  <ele>491.564941</ele>
  <time>2011-06-17T05:32:09Z</time>
  <speed>3.170000</speed>
</trkpt>
<trkpt lat="32.736656189" lon="35.036773682">
  <ele>491.549316</ele>
  <time>2011-06-17T05:32:10Z</time>
  <speed>3.500000</speed>
</trkpt>
<trkpt lat="32.736621857" lon="35.036769867">
  <ele>492.002441</ele>
  <time>2011-06-17T05:32:11Z</time>
  <speed>3.620000</speed>
</trkpt>
<trkpt lat="32.736591339" lon="35.036762238">
  <ele>491.697754</ele>
  <time>2011-06-17T05:32:12Z</time>
  <speed>3.140000</speed>
</trkpt>
<trkpt lat="32.736541748" lon="35.036743164">
  <ele>492.408691</ele>
  <time>2011-06-17T05:32:14Z</time>
  <speed>2.800000</speed>
</trkpt>
<trkpt lat="32.736488342" lon="35.036731720">
  <ele>492.479004</ele>
  <time>2011-06-17T05:32:16Z</time>
  <speed>3.300000</speed>
</trkpt>
<trkpt lat="32.736457825" lon="35.036724091">
  <ele>492.861816</ele>
  <time>2011-06-17T05:32:17Z</time>
  <speed>3.410000</speed>
</trkpt>
<trkpt lat="32.736427307" lon="35.036724091">
  <ele>493.393066</ele>
  <time>2011-06-17T05:32:18Z</time>
  <speed>3.740000</speed>
</trkpt>
<trkpt lat="32.736392975" lon="35.036724091">
  <ele>493.814941</ele>
  <time>2011-06-17T05:32:19Z</time>
  <speed>3.590000</speed>
</trkpt>
<trkpt lat="32.736362457" lon="35.036727905">
  <ele>493.721191</ele>
  <time>2011-06-17T05:32:20Z</time>
  <speed>3.230000</speed>
</trkpt>
<trkpt lat="32.736331940" lon="35.036720276">
  <ele>493.471191</ele>
  <time>2011-06-17T05:32:21Z</time>
  <speed>3.710000</speed>
</trkpt>
<trkpt lat="32.736301422" lon="35.036720276">
  <ele>494.018066</ele>
  <time>2011-06-17T05:32:22Z</time>
  <speed>3.320000</speed>
</trkpt>
<trkpt lat="32.736267090" lon="35.036712646">
  <ele>494.088379</ele>
  <time>2011-06-17T05:32:23Z</time>
  <speed>3.650000</speed>
</trkpt>
<trkpt lat="32.736232758" lon="35.036720276">
  <ele>495.010254</ele>
  <time>2011-06-17T05:32:24Z</time>
  <speed>3.300000</speed>
</trkpt>
<trkpt lat="32.736190796" lon="35.036731720">
  <ele>496.127441</ele>
  <time>2011-06-17T05:32:25Z</time>
  <speed>3.310000</speed>
</trkpt>
<trkpt lat="32.736160278" lon="35.036739349">
  <ele>496.666504</ele>
  <time>2011-06-17T05:32:26Z</time>
  <speed>3.590000</speed>
</trkpt>
<trkpt lat="32.736129761" lon="35.036743164">
  <ele>496.049316</ele>
  <time>2011-06-17T05:32:27Z</time>
  <speed>3.680000</speed>
</trkpt>
<trkpt lat="32.736099243" lon="35.036739349">
  <ele>495.486816</ele>
  <time>2011-06-17T05:32:28Z</time>
  <speed>3.170000</speed>
</trkpt>
<trkpt lat="32.736068726" lon="35.036735535">
  <ele>496.064941</ele>
  <time>2011-06-17T05:32:29Z</time>
  <speed>3.300000</speed>
</trkpt>
<trkpt lat="32.736038208" lon="35.036735535">
  <ele>496.455566</ele>
  <time>2011-06-17T05:32:30Z</time>
  <speed>3.270000</speed>
</trkpt>
<trkpt lat="32.736007690" lon="35.036739349">
  <ele>496.354004</ele>
  <time>2011-06-17T05:32:31Z</time>
  <speed>3.240000</speed>
</trkpt>
<trkpt lat="32.735980988" lon="35.036739349">
  <ele>496.260254</ele>
  <time>2011-06-17T05:32:32Z</time>
  <speed>2.900000</speed>
</trkpt>
<trkpt lat="32.735946655" lon="35.036735535">
  <ele>496.854004</ele>
  <time>2011-06-17T05:32:33Z</time>
  <speed>3.360000</speed>
</trkpt>
<trkpt lat="32.735916138" lon="35.036724091">
  <ele>496.635254</ele>
  <time>2011-06-17T05:32:34Z</time>
  <speed>3.020000</speed>
</trkpt>
<trkpt lat="32.735889435" lon="35.036724091">
  <ele>496.611816</ele>
  <time>2011-06-17T05:32:35Z</time>
  <speed>3.280000</speed>
</trkpt>
<trkpt lat="32.735858917" lon="35.036731720">
  <ele>496.049316</ele>
  <time>2011-06-17T05:32:36Z</time>
  <speed>3.250000</speed>
</trkpt>
<trkpt lat="32.735805511" lon="35.036743164">
  <ele>495.494629</ele>
  <time>2011-06-17T05:32:38Z</time>
  <speed>2.810000</speed>
</trkpt>
<trkpt lat="32.735774994" lon="35.036746979">
  <ele>495.955566</ele>
  <time>2011-06-17T05:32:39Z</time>
  <speed>2.620000</speed>
</trkpt>
<trkpt lat="32.735736847" lon="35.036781311">
  <ele>493.955566</ele>
  <time>2011-06-17T05:32:41Z</time>
  <speed>2.990000</speed>
</trkpt>
<trkpt lat="32.735694885" lon="35.036811829">
  <ele>493.814941</ele>
  <time>2011-06-17T05:32:43Z</time>
  <speed>2.310000</speed>
</trkpt>
<trkpt lat="32.735660553" lon="35.036861420">
  <ele>493.619629</ele>
  <time>2011-06-17T05:32:45Z</time>
  <speed>3.080000</speed>
</trkpt>
<trkpt lat="32.735649109" lon="35.036888123">
  <ele>492.908691</ele>
  <time>2011-06-17T05:32:46Z</time>
  <speed>3.460000</speed>
</trkpt>
<trkpt lat="32.735626221" lon="35.036918640">
  <ele>492.510254</ele>
  <time>2011-06-17T05:32:47Z</time>
  <speed>3.540000</speed>
</trkpt>
<trkpt lat="32.735599518" lon="35.036956787">
  <ele>493.197754</ele>
  <time>2011-06-17T05:32:48Z</time>
  <speed>3.520000</speed>
</trkpt>
<trkpt lat="32.735576630" lon="35.036991119">
  <ele>492.932129</ele>
  <time>2011-06-17T05:32:49Z</time>
  <speed>3.710000</speed>
</trkpt>
<trkpt lat="32.735549927" lon="35.037029266">
  <ele>493.908691</ele>
  <time>2011-06-17T05:32:50Z</time>
  <speed>3.720000</speed>
</trkpt>
<trkpt lat="32.735534668" lon="35.037059784">
  <ele>493.385254</ele>
  <time>2011-06-17T05:32:51Z</time>
  <speed>3.610000</speed>
</trkpt>
<trkpt lat="32.735519409" lon="35.037090302">
  <ele>493.783691</ele>
  <time>2011-06-17T05:32:52Z</time>
  <speed>3.340000</speed>
</trkpt>
<trkpt lat="32.735504150" lon="35.037124634">
  <ele>493.643066</ele>
  <time>2011-06-17T05:32:53Z</time>
  <speed>3.100000</speed>
</trkpt>
<trkpt lat="32.735496521" lon="35.037155151">
  <ele>493.057129</ele>
  <time>2011-06-17T05:32:54Z</time>
  <speed>3.170000</speed>
</trkpt>
<trkpt lat="32.735485077" lon="35.037189484">
  <ele>492.447754</ele>
  <time>2011-06-17T05:32:55Z</time>
  <speed>3.520000</speed>
</trkpt>
<trkpt lat="32.735466003" lon="35.037250519">
  <ele>492.604004</ele>
  <time>2011-06-17T05:32:57Z</time>
  <speed>3.210000</speed>
</trkpt>
<trkpt lat="32.735458374" lon="35.037284851">
  <ele>493.135254</ele>
  <time>2011-06-17T05:32:58Z</time>
  <speed>2.800000</speed>
</trkpt>
<trkpt lat="32.735446930" lon="35.037319183">
  <ele>493.986816</ele>
  <time>2011-06-17T05:32:59Z</time>
  <speed>3.260000</speed>
</trkpt>
<trkpt lat="32.735446930" lon="35.037364960">
  <ele>494.400879</ele>
  <time>2011-06-17T05:33:00Z</time>
  <speed>3.530000</speed>
</trkpt>
<trkpt lat="32.735435486" lon="35.037403107">
  <ele>495.455566</ele>
  <time>2011-06-17T05:33:01Z</time>
  <speed>3.510000</speed>
</trkpt>
<trkpt lat="32.735427856" lon="35.037441254">
  <ele>495.189941</ele>
  <time>2011-06-17T05:33:02Z</time>
  <speed>3.520000</speed>
</trkpt>
<trkpt lat="32.735420227" lon="35.037475586">
  <ele>496.260254</ele>
  <time>2011-06-17T05:33:03Z</time>
  <speed>3.310000</speed>
</trkpt>
<trkpt lat="32.735416412" lon="35.037509918">
  <ele>495.822754</ele>
  <time>2011-06-17T05:33:04Z</time>
  <speed>3.030000</speed>
</trkpt>
<trkpt lat="32.735412598" lon="35.037544250">
  <ele>495.369629</ele>
  <time>2011-06-17T05:33:05Z</time>
  <speed>3.420000</speed>
</trkpt>
<trkpt lat="32.735385895" lon="35.037590027">
  <ele>495.705566</ele>
  <time>2011-06-17T05:33:07Z</time>
  <speed>2.330000</speed>
</trkpt>
<trkpt lat="32.735370636" lon="35.037620544">
  <ele>495.986816</ele>
  <time>2011-06-17T05:33:10Z</time>
  <speed>1.400000</speed>
</trkpt>
<trkpt lat="32.735351563" lon="35.037662506">
  <ele>496.361816</ele>
  <time>2011-06-17T05:33:12Z</time>
  <speed>2.200000</speed>
</trkpt>
<trkpt lat="32.735343933" lon="35.037693024">
  <ele>497.236816</ele>
  <time>2011-06-17T05:33:13Z</time>
  <speed>2.540000</speed>
</trkpt>
<trkpt lat="32.735343933" lon="35.037731171">
  <ele>497.846191</ele>
  <time>2011-06-17T05:33:14Z</time>
  <speed>2.780000</speed>
</trkpt>
<trkpt lat="32.735343933" lon="35.037765503">
  <ele>498.221191</ele>
  <time>2011-06-17T05:33:15Z</time>
  <speed>2.750000</speed>
</trkpt>
<trkpt lat="32.735340118" lon="35.037826538">
  <ele>498.463379</ele>
  <time>2011-06-17T05:33:17Z</time>
  <speed>2.460000</speed>
</trkpt>
<trkpt lat="32.735340118" lon="35.037864685">
  <ele>498.307129</ele>
  <time>2011-06-17T05:33:18Z</time>
  <speed>2.560000</speed>
</trkpt>
<trkpt lat="32.735336304" lon="35.037918091">
  <ele>498.627441</ele>
  <time>2011-06-17T05:33:20Z</time>
  <speed>2.330000</speed>
</trkpt>
<trkpt lat="32.735332489" lon="35.037971497">
  <ele>498.518066</ele>
  <time>2011-06-17T05:33:22Z</time>
  <speed>2.670000</speed>
</trkpt>
<trkpt lat="32.735324860" lon="35.038040161">
  <ele>498.018066</ele>
  <time>2011-06-17T05:33:24Z</time>
  <speed>3.770000</speed>
</trkpt>
<trkpt lat="32.735313416" lon="35.038078308">
  <ele>497.736816</ele>
  <time>2011-06-17T05:33:25Z</time>
  <speed>4.020000</speed>
</trkpt>
<trkpt lat="32.735305786" lon="35.038116455">
  <ele>497.291504</ele>
  <time>2011-06-17T05:33:26Z</time>
  <speed>3.670000</speed>
</trkpt>
<trkpt lat="32.735298157" lon="35.038150787">
  <ele>497.197754</ele>
  <time>2011-06-17T05:33:27Z</time>
  <speed>3.780000</speed>
</trkpt>
<trkpt lat="32.735286713" lon="35.038188934">
  <ele>496.713379</ele>
  <time>2011-06-17T05:33:28Z</time>
  <speed>3.800000</speed>
</trkpt>
<trkpt lat="32.735279083" lon="35.038234711">
  <ele>496.182129</ele>
  <time>2011-06-17T05:33:29Z</time>
  <speed>4.090000</speed>
</trkpt>
<trkpt lat="32.735260010" lon="35.038269043">
  <ele>495.861816</ele>
  <time>2011-06-17T05:33:30Z</time>
  <speed>4.110000</speed>
</trkpt>
<trkpt lat="32.735240936" lon="35.038314819">
  <ele>496.244629</ele>
  <time>2011-06-17T05:33:31Z</time>
  <speed>4.090000</speed>
</trkpt>
<trkpt lat="32.735218048" lon="35.038349152">
  <ele>496.174316</ele>
  <time>2011-06-17T05:33:32Z</time>
  <speed>4.490000</speed>
</trkpt>
<trkpt lat="32.735206604" lon="35.038387299">
  <ele>496.361816</ele>
  <time>2011-06-17T05:33:33Z</time>
  <speed>4.160000</speed>
</trkpt>
<trkpt lat="32.735187531" lon="35.038421631">
  <ele>495.916504</ele>
  <time>2011-06-17T05:33:34Z</time>
  <speed>4.190000</speed>
</trkpt>
<trkpt lat="32.735164642" lon="35.038452148">
  <ele>495.783691</ele>
  <time>2011-06-17T05:33:35Z</time>
  <speed>4.340000</speed>
</trkpt>
<trkpt lat="32.735141754" lon="35.038490295">
  <ele>495.518066</ele>
  <time>2011-06-17T05:33:36Z</time>
  <speed>4.010000</speed>
</trkpt>
<trkpt lat="32.735134125" lon="35.038528442">
  <ele>495.369629</ele>
  <time>2011-06-17T05:33:37Z</time>
  <speed>3.620000</speed>
</trkpt>
<trkpt lat="32.735134125" lon="35.038578033">
  <ele>495.830566</ele>
  <time>2011-06-17T05:33:38Z</time>
  <speed>3.980000</speed>
</trkpt>
<trkpt lat="32.735118866" lon="35.038612366">
  <ele>495.564941</ele>
  <time>2011-06-17T05:33:39Z</time>
  <speed>3.380000</speed>
</trkpt>
<trkpt lat="32.735107422" lon="35.038646698">
  <ele>495.744629</ele>
  <time>2011-06-17T05:33:40Z</time>
  <speed>3.450000</speed>
</trkpt>
<trkpt lat="32.735088348" lon="35.038673401">
  <ele>495.760254</ele>
  <time>2011-06-17T05:33:41Z</time>
  <speed>3.010000</speed>
</trkpt>
<trkpt lat="32.735065460" lon="35.038700104">
  <ele>495.885254</ele>
  <time>2011-06-17T05:33:42Z</time>
  <speed>2.580000</speed>
</trkpt>
<trkpt lat="32.735046387" lon="35.038745880">
  <ele>495.932129</ele>
  <time>2011-06-17T05:33:44Z</time>
  <speed>2.240000</speed>
</trkpt>
<trkpt lat="32.735034943" lon="35.038795471">
  <ele>495.361816</ele>
  <time>2011-06-17T05:33:46Z</time>
  <speed>2.790000</speed>
</trkpt>
<trkpt lat="32.735019684" lon="35.038818359">
  <ele>495.135254</ele>
  <time>2011-06-17T05:33:47Z</time>
  <speed>3.110000</speed>
</trkpt>
<trkpt lat="32.735000610" lon="35.038845062">
  <ele>495.002441</ele>
  <time>2011-06-17T05:33:48Z</time>
  <speed>3.080000</speed>
</trkpt>
<trkpt lat="32.734973907" lon="35.038894653">
  <ele>494.502441</ele>
  <time>2011-06-17T05:33:50Z</time>
  <speed>3.380000</speed>
</trkpt>
<trkpt lat="32.734947205" lon="35.038913727">
  <ele>494.166504</ele>
  <time>2011-06-17T05:33:51Z</time>
  <speed>2.930000</speed>
</trkpt>
<trkpt lat="32.734931946" lon="35.038940430">
  <ele>493.854004</ele>
  <time>2011-06-17T05:33:52Z</time>
  <speed>3.350000</speed>
</trkpt>
<trkpt lat="32.734916687" lon="35.038974762">
  <ele>493.752441</ele>
  <time>2011-06-17T05:33:53Z</time>
  <speed>3.210000</speed>
</trkpt>
<trkpt lat="32.734901428" lon="35.039005280">
  <ele>493.354004</ele>
  <time>2011-06-17T05:33:54Z</time>
  <speed>3.220000</speed>
</trkpt>
<trkpt lat="32.734867096" lon="35.039051056">
  <ele>492.822754</ele>
  <time>2011-06-17T05:33:56Z</time>
  <speed>2.830000</speed>
</trkpt>
<trkpt lat="32.734840393" lon="35.039100647">
  <ele>492.299316</ele>
  <time>2011-06-17T05:33:58Z</time>
  <speed>2.960000</speed>
</trkpt>
<trkpt lat="32.734825134" lon="35.039131165">
  <ele>492.166504</ele>
  <time>2011-06-17T05:33:59Z</time>
  <speed>3.030000</speed>
</trkpt>
<trkpt lat="32.734798431" lon="35.039154053">
  <ele>492.283691</ele>
  <time>2011-06-17T05:34:00Z</time>
  <speed>3.090000</speed>
</trkpt>
<trkpt lat="32.734767914" lon="35.039184570">
  <ele>492.650879</ele>
  <time>2011-06-17T05:34:01Z</time>
  <speed>3.340000</speed>
</trkpt>
<trkpt lat="32.734767914" lon="35.039234161">
  <ele>492.197754</ele>
  <time>2011-06-17T05:34:02Z</time>
  <speed>3.220000</speed>
</trkpt>
<trkpt lat="32.734760284" lon="35.039268494">
  <ele>492.033691</ele>
  <time>2011-06-17T05:34:03Z</time>
  <speed>3.070000</speed>
</trkpt>
<trkpt lat="32.734752655" lon="35.039299011">
  <ele>491.986816</ele>
  <time>2011-06-17T05:34:04Z</time>
  <speed>2.910000</speed>
</trkpt>
<trkpt lat="32.734741211" lon="35.039325714">
  <ele>492.002441</ele>
  <time>2011-06-17T05:34:05Z</time>
  <speed>3.160000</speed>
</trkpt>
<trkpt lat="32.734737396" lon="35.039375305">
  <ele>491.916504</ele>
  <time>2011-06-17T05:34:06Z</time>
  <speed>3.190000</speed>
</trkpt>
<trkpt lat="32.734714508" lon="35.039405823">
  <ele>491.361816</ele>
  <time>2011-06-17T05:34:07Z</time>
  <speed>2.780000</speed>
</trkpt>
<trkpt lat="32.734687805" lon="35.039443970">
  <ele>492.158691</ele>
  <time>2011-06-17T05:34:09Z</time>
  <speed>2.770000</speed>
</trkpt>
<trkpt lat="32.734653473" lon="35.039497375">
  <ele>493.658691</ele>
  <time>2011-06-17T05:34:11Z</time>
  <speed>2.890000</speed>
</trkpt>
<trkpt lat="32.734622955" lon="35.039543152">
  <ele>493.354004</ele>
  <time>2011-06-17T05:34:13Z</time>
  <speed>2.850000</speed>
</trkpt>
<trkpt lat="32.734611511" lon="35.039573669">
  <ele>493.807129</ele>
  <time>2011-06-17T05:34:14Z</time>
  <speed>3.320000</speed>
</trkpt>
<trkpt lat="32.734607697" lon="35.039608002">
  <ele>493.525879</ele>
  <time>2011-06-17T05:34:15Z</time>
  <speed>2.650000</speed>
</trkpt>
<trkpt lat="32.734588623" lon="35.039665222">
  <ele>494.986816</ele>
  <time>2011-06-17T05:34:17Z</time>
  <speed>1.980000</speed>
</trkpt>
<trkpt lat="32.734580994" lon="35.039707184">
  <ele>494.900879</ele>
  <time>2011-06-17T05:34:19Z</time>
  <speed>1.110000</speed>
</trkpt>
<trkpt lat="32.734588623" lon="35.039737701">
  <ele>495.463379</ele>
  <time>2011-06-17T05:34:23Z</time>
  <speed>0.210000</speed>
</trkpt>
<trkpt lat="32.734611511" lon="35.039752960">
  <ele>496.236816</ele>
  <time>2011-06-17T05:34:27Z</time>
  <speed>0.860000</speed>
</trkpt>
<trkpt lat="32.734611511" lon="35.039722443">
  <ele>497.463379</ele>
  <time>2011-06-17T05:34:38Z</time>
  <speed>0.110000</speed>
</trkpt>
<trkpt lat="32.734600067" lon="35.039688110">
  <ele>497.346191</ele>
  <time>2011-06-17T05:34:43Z</time>
  <speed>0.060000</speed>
</trkpt>
<trkpt lat="32.734584808" lon="35.039653778">
  <ele>496.768066</ele>
  <time>2011-06-17T05:34:47Z</time>
  <speed>0.070000</speed>
</trkpt>
<trkpt lat="32.734573364" lon="35.039623260">
  <ele>495.869629</ele>
  <time>2011-06-17T05:34:52Z</time>
  <speed>0.070000</speed>
</trkpt>
<trkpt lat="32.734558105" lon="35.039592743">
  <ele>494.846191</ele>
  <time>2011-06-17T05:36:27Z</time>
  <speed>0.700000</speed>
</trkpt>
<trkpt lat="32.734603882" lon="35.039588928">
  <ele>496.119629</ele>
  <time>2011-06-17T05:37:09Z</time>
  <speed>2.570000</speed>
</trkpt>
<trkpt lat="32.734657288" lon="35.039592743">
  <ele>496.947754</ele>
  <time>2011-06-17T05:37:11Z</time>
  <speed>3.390000</speed>
</trkpt>
<trkpt lat="32.734695435" lon="35.039596558">
  <ele>496.947754</ele>
  <time>2011-06-17T05:37:12Z</time>
  <speed>4.010000</speed>
</trkpt>
<trkpt lat="32.734741211" lon="35.039604187">
  <ele>496.705566</ele>
  <time>2011-06-17T05:37:13Z</time>
  <speed>4.980000</speed>
</trkpt>
<trkpt lat="32.734794617" lon="35.039611816">
  <ele>496.666504</ele>
  <time>2011-06-17T05:37:14Z</time>
  <speed>5.430000</speed>
</trkpt>
<trkpt lat="32.734844208" lon="35.039623260">
  <ele>496.502441</ele>
  <time>2011-06-17T05:37:15Z</time>
  <speed>5.110000</speed>
</trkpt>
<trkpt lat="32.734893799" lon="35.039630890">
  <ele>496.104004</ele>
  <time>2011-06-17T05:37:16Z</time>
  <speed>4.630000</speed>
</trkpt>
<trkpt lat="32.734939575" lon="35.039638519">
  <ele>496.229004</ele>
  <time>2011-06-17T05:37:17Z</time>
  <speed>4.460000</speed>
</trkpt>
<trkpt lat="32.734985352" lon="35.039638519">
  <ele>495.814941</ele>
  <time>2011-06-17T05:37:18Z</time>
  <speed>5.350000</speed>
</trkpt>
<trkpt lat="32.735038757" lon="35.039638519">
  <ele>495.494629</ele>
  <time>2011-06-17T05:37:19Z</time>
  <speed>5.800000</speed>
</trkpt>
<trkpt lat="32.735092163" lon="35.039638519">
  <ele>495.268066</ele>
  <time>2011-06-17T05:37:20Z</time>
  <speed>5.590000</speed>
</trkpt>
<trkpt lat="32.735149384" lon="35.039638519">
  <ele>494.830566</ele>
  <time>2011-06-17T05:37:21Z</time>
  <speed>5.870000</speed>
</trkpt>
<trkpt lat="32.735202789" lon="35.039649963">
  <ele>494.971191</ele>
  <time>2011-06-17T05:37:22Z</time>
  <speed>5.790000</speed>
</trkpt>
<trkpt lat="32.735252380" lon="35.039657593">
  <ele>494.400879</ele>
  <time>2011-06-17T05:37:23Z</time>
  <speed>5.330000</speed>
</trkpt>
<trkpt lat="32.735305786" lon="35.039657593">
  <ele>494.869629</ele>
  <time>2011-06-17T05:37:24Z</time>
  <speed>5.030000</speed>
</trkpt>
<trkpt lat="32.735347748" lon="35.039646149">
  <ele>494.682129</ele>
  <time>2011-06-17T05:37:25Z</time>
  <speed>5.000000</speed>
</trkpt>
<trkpt lat="32.735385895" lon="35.039623260">
  <ele>493.525879</ele>
  <time>2011-06-17T05:37:26Z</time>
  <speed>4.900000</speed>
</trkpt>
<trkpt lat="32.735420227" lon="35.039592743">
  <ele>493.510254</ele>
  <time>2011-06-17T05:37:27Z</time>
  <speed>4.200000</speed>
</trkpt>
<trkpt lat="32.735454559" lon="35.039596558">
  <ele>494.572754</ele>
  <time>2011-06-17T05:37:28Z</time>
  <speed>3.090000</speed>
</trkpt>
<trkpt lat="32.735485077" lon="35.039596558">
  <ele>494.057129</ele>
  <time>2011-06-17T05:37:29Z</time>
  <speed>3.530000</speed>
</trkpt>
<trkpt lat="32.735519409" lon="35.039608002">
  <ele>493.932129</ele>
  <time>2011-06-17T05:37:30Z</time>
  <speed>3.470000</speed>
</trkpt>
<trkpt lat="32.735549927" lon="35.039611816">
  <ele>493.705566</ele>
  <time>2011-06-17T05:37:31Z</time>
  <speed>3.470000</speed>
</trkpt>
<trkpt lat="32.735580444" lon="35.039619446">
  <ele>493.768066</ele>
  <time>2011-06-17T05:37:32Z</time>
  <speed>3.210000</speed>
</trkpt>
<trkpt lat="32.735607147" lon="35.039634705">
  <ele>494.158691</ele>
  <time>2011-06-17T05:37:33Z</time>
  <speed>3.100000</speed>
</trkpt>
<trkpt lat="32.735649109" lon="35.039646149">
  <ele>494.549316</ele>
  <time>2011-06-17T05:37:35Z</time>
  <speed>1.660000</speed>
</trkpt>
<trkpt lat="32.735675812" lon="35.039642334">
  <ele>494.939941</ele>
  <time>2011-06-17T05:37:38Z</time>
  <speed>1.380000</speed>
</trkpt>
<trkpt lat="32.735706329" lon="35.039649963">
  <ele>496.932129</ele>
  <time>2011-06-17T05:37:41Z</time>
  <speed>1.750000</speed>
</trkpt>
<trkpt lat="32.735736847" lon="35.039657593">
  <ele>498.260254</ele>
  <time>2011-06-17T05:37:43Z</time>
  <speed>1.900000</speed>
</trkpt>
<trkpt lat="32.735778809" lon="35.039642334">
  <ele>500.775879</ele>
  <time>2011-06-17T05:37:45Z</time>
  <speed>1.830000</speed>
</trkpt>
<trkpt lat="32.735813141" lon="35.039638519">
  <ele>501.689941</ele>
  <time>2011-06-17T05:37:47Z</time>
  <speed>1.890000</speed>
</trkpt>
<trkpt lat="32.735839844" lon="35.039657593">
  <ele>501.236816</ele>
  <time>2011-06-17T05:37:49Z</time>
  <speed>1.490000</speed>
</trkpt>
<trkpt lat="32.735862732" lon="35.039657593">
  <ele>502.932129</ele>
  <time>2011-06-17T05:37:51Z</time>
  <speed>1.580000</speed>
</trkpt>
<trkpt lat="32.735893250" lon="35.039646149">
  <ele>504.111816</ele>
  <time>2011-06-17T05:37:53Z</time>
  <speed>1.490000</speed>
</trkpt>
<trkpt lat="32.735935211" lon="35.039653778">
  <ele>503.213379</ele>
  <time>2011-06-17T05:37:56Z</time>
  <speed>1.210000</speed>
</trkpt>
<trkpt lat="32.735969543" lon="35.039661407">
  <ele>503.088379</ele>
  <time>2011-06-17T05:37:58Z</time>
  <speed>1.610000</speed>
</trkpt>
<trkpt lat="32.736000061" lon="35.039665222">
  <ele>502.346191</ele>
  <time>2011-06-17T05:38:00Z</time>
  <speed>1.280000</speed>
</trkpt>
<trkpt lat="32.736026764" lon="35.039676666">
  <ele>501.033691</ele>
  <time>2011-06-17T05:38:02Z</time>
  <speed>1.900000</speed>
</trkpt>
<trkpt lat="32.736068726" lon="35.039688110">
  <ele>500.580566</ele>
  <time>2011-06-17T05:38:04Z</time>
  <speed>2.230000</speed>
</trkpt>
<trkpt lat="32.736114502" lon="35.039684296">
  <ele>500.010254</ele>
  <time>2011-06-17T05:38:06Z</time>
  <speed>2.570000</speed>
</trkpt>
<trkpt lat="32.736141205" lon="35.039676666">
  <ele>499.979004</ele>
  <time>2011-06-17T05:38:07Z</time>
  <speed>3.710000</speed>
</trkpt>
<trkpt lat="32.736175537" lon="35.039665222">
  <ele>499.119629</ele>
  <time>2011-06-17T05:38:08Z</time>
  <speed>3.470000</speed>
</trkpt>
<trkpt lat="32.736209869" lon="35.039661407">
  <ele>498.627441</ele>
  <time>2011-06-17T05:38:09Z</time>
  <speed>3.650000</speed>
</trkpt>
<trkpt lat="32.736244202" lon="35.039657593">
  <ele>498.307129</ele>
  <time>2011-06-17T05:38:10Z</time>
  <speed>3.990000</speed>
</trkpt>
<trkpt lat="32.736282349" lon="35.039657593">
  <ele>497.447754</ele>
  <time>2011-06-17T05:38:11Z</time>
  <speed>3.570000</speed>
</trkpt>
<trkpt lat="32.736312866" lon="35.039653778">
  <ele>497.275879</ele>
  <time>2011-06-17T05:38:12Z</time>
  <speed>3.330000</speed>
</trkpt>
<trkpt lat="32.736347198" lon="35.039657593">
  <ele>496.291504</ele>
  <time>2011-06-17T05:38:13Z</time>
  <speed>3.380000</speed>
</trkpt>
<trkpt lat="32.736381531" lon="35.039653778">
  <ele>496.033691</ele>
  <time>2011-06-17T05:38:14Z</time>
  <speed>3.300000</speed>
</trkpt>
<trkpt lat="32.736412048" lon="35.039661407">
  <ele>495.377441</ele>
  <time>2011-06-17T05:38:15Z</time>
  <speed>3.050000</speed>
</trkpt>
<trkpt lat="32.736446381" lon="35.039669037">
  <ele>495.424316</ele>
  <time>2011-06-17T05:38:16Z</time>
  <speed>3.540000</speed>
</trkpt>
<trkpt lat="32.736473083" lon="35.039672852">
  <ele>494.439941</ele>
  <time>2011-06-17T05:38:17Z</time>
  <speed>3.310000</speed>
</trkpt>
<trkpt lat="32.736503601" lon="35.039672852">
  <ele>494.846191</ele>
  <time>2011-06-17T05:38:18Z</time>
  <speed>3.210000</speed>
</trkpt>
<trkpt lat="32.736549377" lon="35.039680481">
  <ele>493.807129</ele>
  <time>2011-06-17T05:38:20Z</time>
  <speed>2.240000</speed>
</trkpt>
<trkpt lat="32.736576080" lon="35.039695740">
  <ele>492.643066</ele>
  <time>2011-06-17T05:38:21Z</time>
  <speed>3.040000</speed>
</trkpt>
<trkpt lat="32.736610413" lon="35.039707184">
  <ele>491.166504</ele>
  <time>2011-06-17T05:38:22Z</time>
  <speed>3.130000</speed>
</trkpt>
<trkpt lat="32.736637115" lon="35.039707184">
  <ele>490.111816</ele>
  <time>2011-06-17T05:38:23Z</time>
  <speed>3.090000</speed>
</trkpt>
<trkpt lat="32.736671448" lon="35.039714813">
  <ele>489.143066</ele>
  <time>2011-06-17T05:38:24Z</time>
  <speed>3.690000</speed>
</trkpt>
<trkpt lat="32.736701965" lon="35.039726257">
  <ele>488.377441</ele>
  <time>2011-06-17T05:38:25Z</time>
  <speed>3.730000</speed>
</trkpt>
<trkpt lat="32.736751556" lon="35.039722443">
  <ele>490.205566</ele>
  <time>2011-06-17T05:38:26Z</time>
  <speed>4.230000</speed>
</trkpt>
<trkpt lat="32.736789703" lon="35.039741516">
  <ele>489.955566</ele>
  <time>2011-06-17T05:38:27Z</time>
  <speed>4.600000</speed>
</trkpt>
<trkpt lat="32.736835480" lon="35.039756775">
  <ele>488.955566</ele>
  <time>2011-06-17T05:38:28Z</time>
  <speed>4.410000</speed>
</trkpt>
<trkpt lat="32.736888885" lon="35.039764404">
  <ele>487.939941</ele>
  <time>2011-06-17T05:38:29Z</time>
  <speed>4.380000</speed>
</trkpt>
<trkpt lat="32.736930847" lon="35.039768219">
  <ele>487.119629</ele>
  <time>2011-06-17T05:38:30Z</time>
  <speed>4.210000</speed>
</trkpt>
<trkpt lat="32.736965179" lon="35.039764404">
  <ele>486.338379</ele>
  <time>2011-06-17T05:38:31Z</time>
  <speed>3.930000</speed>
</trkpt>
<trkpt lat="32.736995697" lon="35.039775848">
  <ele>484.135254</ele>
  <time>2011-06-17T05:38:32Z</time>
  <speed>2.700000</speed>
</trkpt>
<trkpt lat="32.737052917" lon="35.039783478">
  <ele>482.994629</ele>
  <time>2011-06-17T05:38:34Z</time>
  <speed>3.510000</speed>
</trkpt>
<trkpt lat="32.737083435" lon="35.039783478">
  <ele>482.314941</ele>
  <time>2011-06-17T05:38:35Z</time>
  <speed>3.540000</speed>
</trkpt>
<trkpt lat="32.737110138" lon="35.039772034">
  <ele>481.135254</ele>
  <time>2011-06-17T05:38:36Z</time>
  <speed>3.960000</speed>
</trkpt>
<trkpt lat="32.737140656" lon="35.039756775">
  <ele>480.010254</ele>
  <time>2011-06-17T05:38:37Z</time>
  <speed>3.810000</speed>
</trkpt>
<trkpt lat="32.737182617" lon="35.039756775">
  <ele>478.588379</ele>
  <time>2011-06-17T05:38:38Z</time>
  <speed>4.370000</speed>
</trkpt>
<trkpt lat="32.737224579" lon="35.039752960">
  <ele>477.783691</ele>
  <time>2011-06-17T05:38:39Z</time>
  <speed>4.210000</speed>
</trkpt>
<trkpt lat="32.737266541" lon="35.039749146">
  <ele>477.119629</ele>
  <time>2011-06-17T05:38:40Z</time>
  <speed>4.830000</speed>
</trkpt>
<trkpt lat="32.737319946" lon="35.039745331">
  <ele>476.697754</ele>
  <time>2011-06-17T05:38:41Z</time>
  <speed>5.720000</speed>
</trkpt>
<trkpt lat="32.737365723" lon="35.039737701">
  <ele>476.111816</ele>
  <time>2011-06-17T05:38:42Z</time>
  <speed>5.670000</speed>
</trkpt>
<trkpt lat="32.737419128" lon="35.039737701">
  <ele>474.861816</ele>
  <time>2011-06-17T05:38:43Z</time>
  <speed>5.350000</speed>
</trkpt>
<trkpt lat="32.737461090" lon="35.039733887">
  <ele>475.252441</ele>
  <time>2011-06-17T05:38:44Z</time>
  <speed>4.390000</speed>
</trkpt>
<trkpt lat="32.737503052" lon="35.039726257">
  <ele>475.486816</ele>
  <time>2011-06-17T05:38:45Z</time>
  <speed>3.620000</speed>
</trkpt>
<trkpt lat="32.737533569" lon="35.039718628">
  <ele>474.924316</ele>
  <time>2011-06-17T05:38:46Z</time>
  <speed>2.990000</speed>
</trkpt>
<trkpt lat="32.737571716" lon="35.039741516">
  <ele>473.744629</ele>
  <time>2011-06-17T05:38:48Z</time>
  <speed>2.360000</speed>
</trkpt>
<trkpt lat="32.737625122" lon="35.039749146">
  <ele>472.268066</ele>
  <time>2011-06-17T05:38:50Z</time>
  <speed>3.180000</speed>
</trkpt>
<trkpt lat="32.737655640" lon="35.039760590">
  <ele>471.830566</ele>
  <time>2011-06-17T05:38:51Z</time>
  <speed>3.560000</speed>
</trkpt>
<trkpt lat="32.737689972" lon="35.039787292">
  <ele>472.010254</ele>
  <time>2011-06-17T05:38:52Z</time>
  <speed>4.030000</speed>
</trkpt>
<trkpt lat="32.737724304" lon="35.039787292">
  <ele>471.393066</ele>
  <time>2011-06-17T05:38:53Z</time>
  <speed>3.390000</speed>
</trkpt>
<trkpt lat="32.737754822" lon="35.039791107">
  <ele>471.150879</ele>
  <time>2011-06-17T05:38:54Z</time>
  <speed>3.630000</speed>
</trkpt>
<trkpt lat="32.737781525" lon="35.039802551">
  <ele>471.025879</ele>
  <time>2011-06-17T05:38:55Z</time>
  <speed>3.290000</speed>
</trkpt>
<trkpt lat="32.737789154" lon="35.039852142">
  <ele>471.049316</ele>
  <time>2011-06-17T05:38:56Z</time>
  <speed>4.230000</speed>
</trkpt>
<trkpt lat="32.737804413" lon="35.039894104">
  <ele>471.064941</ele>
  <time>2011-06-17T05:38:57Z</time>
  <speed>4.050000</speed>
</trkpt>
<trkpt lat="32.737834930" lon="35.039920807">
  <ele>469.932129</ele>
  <time>2011-06-17T05:38:58Z</time>
  <speed>4.280000</speed>
</trkpt>
<trkpt lat="32.737846375" lon="35.039951324">
  <ele>469.846191</ele>
  <time>2011-06-17T05:38:59Z</time>
  <speed>2.300000</speed>
</trkpt>
<trkpt lat="32.737861633" lon="35.040004730">
  <ele>467.971191</ele>
  <time>2011-06-17T05:39:01Z</time>
  <speed>2.390000</speed>
</trkpt>
<trkpt lat="32.737846375" lon="35.040050507">
  <ele>466.010254</ele>
  <time>2011-06-17T05:39:03Z</time>
  <speed>2.350000</speed>
</trkpt>
<trkpt lat="32.737838745" lon="35.040107727">
  <ele>463.674316</ele>
  <time>2011-06-17T05:39:05Z</time>
  <speed>3.400000</speed>
</trkpt>
<trkpt lat="32.737831116" lon="35.040164948">
  <ele>464.838379</ele>
  <time>2011-06-17T05:39:06Z</time>
  <speed>3.760000</speed>
</trkpt>
<trkpt lat="32.737827301" lon="35.040222168">
  <ele>464.330566</ele>
  <time>2011-06-17T05:39:07Z</time>
  <speed>4.260000</speed>
</trkpt>
<trkpt lat="32.737827301" lon="35.040271759">
  <ele>463.072754</ele>
  <time>2011-06-17T05:39:08Z</time>
  <speed>4.280000</speed>
</trkpt>
<trkpt lat="32.737831116" lon="35.040332794">
  <ele>462.822754</ele>
  <time>2011-06-17T05:39:09Z</time>
  <speed>4.810000</speed>
</trkpt>
<trkpt lat="32.737827301" lon="35.040382385">
  <ele>461.939941</ele>
  <time>2011-06-17T05:39:10Z</time>
  <speed>4.970000</speed>
</trkpt>
<trkpt lat="32.737846375" lon="35.040435791">
  <ele>461.135254</ele>
  <time>2011-06-17T05:39:11Z</time>
  <speed>4.180000</speed>
</trkpt>
<trkpt lat="32.737865448" lon="35.040473938">
  <ele>460.197754</ele>
  <time>2011-06-17T05:39:12Z</time>
  <speed>3.870000</speed>
</trkpt>
<trkpt lat="32.737876892" lon="35.040519714">
  <ele>459.486816</ele>
  <time>2011-06-17T05:39:13Z</time>
  <speed>3.990000</speed>
</trkpt>
<trkpt lat="32.737884521" lon="35.040557861">
  <ele>459.275879</ele>
  <time>2011-06-17T05:39:14Z</time>
  <speed>4.210000</speed>
</trkpt>
<trkpt lat="32.737884521" lon="35.040607452">
  <ele>459.510254</ele>
  <time>2011-06-17T05:39:15Z</time>
  <speed>4.670000</speed>
</trkpt>
<trkpt lat="32.737880707" lon="35.040653229">
  <ele>459.596191</ele>
  <time>2011-06-17T05:39:16Z</time>
  <speed>3.970000</speed>
</trkpt>
<trkpt lat="32.737888336" lon="35.040695190">
  <ele>459.166504</ele>
  <time>2011-06-17T05:39:17Z</time>
  <speed>4.360000</speed>
</trkpt>
<trkpt lat="32.737899780" lon="35.040737152">
  <ele>459.072754</ele>
  <time>2011-06-17T05:39:18Z</time>
  <speed>4.020000</speed>
</trkpt>
<trkpt lat="32.737934113" lon="35.040779114">
  <ele>458.814941</ele>
  <time>2011-06-17T05:39:19Z</time>
  <speed>4.070000</speed>
</trkpt>
<trkpt lat="32.737949371" lon="35.040813446">
  <ele>458.049316</ele>
  <time>2011-06-17T05:39:20Z</time>
  <speed>4.480000</speed>
</trkpt>
<trkpt lat="32.737968445" lon="35.040855408">
  <ele>457.244629</ele>
  <time>2011-06-17T05:39:21Z</time>
  <speed>5.190000</speed>
</trkpt>
<trkpt lat="32.737991333" lon="35.040901184">
  <ele>456.768066</ele>
  <time>2011-06-17T05:39:22Z</time>
  <speed>4.820000</speed>
</trkpt>
<trkpt lat="32.738021851" lon="35.040946960">
  <ele>456.252441</ele>
  <time>2011-06-17T05:39:23Z</time>
  <speed>5.340000</speed>
</trkpt>
<trkpt lat="32.738044739" lon="35.040992737">
  <ele>455.822754</ele>
  <time>2011-06-17T05:39:24Z</time>
  <speed>5.430000</speed>
</trkpt>
<trkpt lat="32.738075256" lon="35.041049957">
  <ele>455.479004</ele>
  <time>2011-06-17T05:39:25Z</time>
  <speed>5.520000</speed>
</trkpt>
<trkpt lat="32.738101959" lon="35.041103363">
  <ele>454.986816</ele>
  <time>2011-06-17T05:39:26Z</time>
  <speed>5.460000</speed>
</trkpt>
<trkpt lat="32.738128662" lon="35.041164398">
  <ele>454.885254</ele>
  <time>2011-06-17T05:39:27Z</time>
  <speed>6.260000</speed>
</trkpt>
<trkpt lat="32.738159180" lon="35.041229248">
  <ele>454.471191</ele>
  <time>2011-06-17T05:39:28Z</time>
  <speed>7.120000</speed>
</trkpt>
<trkpt lat="32.738197327" lon="35.041294098">
  <ele>454.588379</ele>
  <time>2011-06-17T05:39:29Z</time>
  <speed>7.360000</speed>
</trkpt>
<trkpt lat="32.738227844" lon="35.041370392">
  <ele>454.525879</ele>
  <time>2011-06-17T05:39:30Z</time>
  <speed>7.330000</speed>
</trkpt>
<trkpt lat="32.738246918" lon="35.041442871">
  <ele>454.182129</ele>
  <time>2011-06-17T05:39:31Z</time>
  <speed>6.560000</speed>
</trkpt>
<trkpt lat="32.738273621" lon="35.041522980">
  <ele>453.955566</ele>
  <time>2011-06-17T05:39:32Z</time>
  <speed>7.550000</speed>
</trkpt>
<trkpt lat="32.738315582" lon="35.041591644">
  <ele>453.619629</ele>
  <time>2011-06-17T05:39:33Z</time>
  <speed>7.040000</speed>
</trkpt>
<trkpt lat="32.738334656" lon="35.041667938">
  <ele>452.346191</ele>
  <time>2011-06-17T05:39:34Z</time>
  <speed>5.930000</speed>
</trkpt>
<trkpt lat="32.738346100" lon="35.041736603">
  <ele>451.463379</ele>
  <time>2011-06-17T05:39:35Z</time>
  <speed>5.590000</speed>
</trkpt>
<trkpt lat="32.738342285" lon="35.041782379">
  <ele>451.986816</ele>
  <time>2011-06-17T05:39:36Z</time>
  <speed>4.610000</speed>
</trkpt>
<trkpt lat="32.738349915" lon="35.041831970">
  <ele>451.213379</ele>
  <time>2011-06-17T05:39:37Z</time>
  <speed>4.290000</speed>
</trkpt>
<trkpt lat="32.738353729" lon="35.041873932">
  <ele>451.143066</ele>
  <time>2011-06-17T05:39:38Z</time>
  <speed>3.870000</speed>
</trkpt>
<trkpt lat="32.738353729" lon="35.041915894">
  <ele>450.838379</ele>
  <time>2011-06-17T05:39:39Z</time>
  <speed>3.620000</speed>
</trkpt>
<trkpt lat="32.738357544" lon="35.041954041">
  <ele>450.299316</ele>
  <time>2011-06-17T05:39:40Z</time>
  <speed>3.670000</speed>
</trkpt>
<trkpt lat="32.738368988" lon="35.041996002">
  <ele>450.307129</ele>
  <time>2011-06-17T05:39:41Z</time>
  <speed>3.870000</speed>
</trkpt>
<trkpt lat="32.738388062" lon="35.042041779">
  <ele>450.049316</ele>
  <time>2011-06-17T05:39:42Z</time>
  <speed>4.280000</speed>
</trkpt>
<trkpt lat="32.738403320" lon="35.042083740">
  <ele>450.330566</ele>
  <time>2011-06-17T05:39:43Z</time>
  <speed>4.690000</speed>
</trkpt>
<trkpt lat="32.738430023" lon="35.042133331">
  <ele>450.127441</ele>
  <time>2011-06-17T05:39:44Z</time>
  <speed>4.870000</speed>
</trkpt>
<trkpt lat="32.738464355" lon="35.042182922">
  <ele>449.838379</ele>
  <time>2011-06-17T05:39:45Z</time>
  <speed>5.090000</speed>
</trkpt>
<trkpt lat="32.738475800" lon="35.042217255">
  <ele>449.916504</ele>
  <time>2011-06-17T05:39:46Z</time>
  <speed>3.420000</speed>
</trkpt>
<trkpt lat="32.738487244" lon="35.042274475">
  <ele>449.275879</ele>
  <time>2011-06-17T05:39:48Z</time>
  <speed>3.180000</speed>
</trkpt>
<trkpt lat="32.738498688" lon="35.042308807">
  <ele>448.822754</ele>
  <time>2011-06-17T05:39:49Z</time>
  <speed>3.480000</speed>
</trkpt>
<trkpt lat="32.738506317" lon="35.042343140">
  <ele>448.572754</ele>
  <time>2011-06-17T05:39:50Z</time>
  <speed>3.620000</speed>
</trkpt>
<trkpt lat="32.738491058" lon="35.042369843">
  <ele>447.611816</ele>
  <time>2011-06-17T05:39:51Z</time>
  <speed>3.110000</speed>
</trkpt>
<trkpt lat="32.738460541" lon="35.042400360">
  <ele>447.354004</ele>
  <time>2011-06-17T05:39:53Z</time>
  <speed>2.340000</speed>
</trkpt>
<trkpt lat="32.738433838" lon="35.042438507">
  <ele>446.760254</ele>
  <time>2011-06-17T05:39:55Z</time>
  <speed>2.340000</speed>
</trkpt>
<trkpt lat="32.738430023" lon="35.042476654">
  <ele>446.377441</ele>
  <time>2011-06-17T05:39:57Z</time>
  <speed>1.770000</speed>
</trkpt>
<trkpt lat="32.738422394" lon="35.042518616">
  <ele>445.924316</ele>
  <time>2011-06-17T05:39:59Z</time>
  <speed>2.190000</speed>
</trkpt>
<trkpt lat="32.738426208" lon="35.042568207">
  <ele>445.729004</ele>
  <time>2011-06-17T05:40:01Z</time>
  <speed>2.910000</speed>
</trkpt>
<trkpt lat="32.738422394" lon="35.042610168">
  <ele>445.674316</ele>
  <time>2011-06-17T05:40:03Z</time>
  <speed>2.040000</speed>
</trkpt>
<trkpt lat="32.738433838" lon="35.042659760">
  <ele>445.002441</ele>
  <time>2011-06-17T05:40:05Z</time>
  <speed>2.430000</speed>
</trkpt>
<trkpt lat="32.738445282" lon="35.042694092">
  <ele>444.471191</ele>
  <time>2011-06-17T05:40:06Z</time>
  <speed>3.090000</speed>
</trkpt>
<trkpt lat="32.738430023" lon="35.042720795">
  <ele>444.080566</ele>
  <time>2011-06-17T05:40:07Z</time>
  <speed>2.920000</speed>
</trkpt>
<trkpt lat="32.738430023" lon="35.042755127">
  <ele>443.635254</ele>
  <time>2011-06-17T05:40:08Z</time>
  <speed>2.920000</speed>
</trkpt>
<trkpt lat="32.738449097" lon="35.042793274">
  <ele>443.104004</ele>
  <time>2011-06-17T05:40:09Z</time>
  <speed>3.530000</speed>
</trkpt>
<trkpt lat="32.738449097" lon="35.042850494">
  <ele>442.549316</ele>
  <time>2011-06-17T05:40:11Z</time>
  <speed>3.200000</speed>
</trkpt>
<trkpt lat="32.738403320" lon="35.042881012">
  <ele>441.541504</ele>
  <time>2011-06-17T05:40:13Z</time>
  <speed>2.750000</speed>
</trkpt>
<trkpt lat="32.738361359" lon="35.042900085">
  <ele>440.814941</ele>
  <time>2011-06-17T05:40:15Z</time>
  <speed>2.200000</speed>
</trkpt>
<trkpt lat="32.738349915" lon="35.042949677">
  <ele>440.611816</ele>
  <time>2011-06-17T05:40:17Z</time>
  <speed>1.720000</speed>
</trkpt>
<trkpt lat="32.738380432" lon="35.043022156">
  <ele>440.979004</ele>
  <time>2011-06-17T05:40:19Z</time>
  <speed>2.310000</speed>
</trkpt>
<trkpt lat="32.738403320" lon="35.043056488">
  <ele>439.689941</ele>
  <time>2011-06-17T05:40:21Z</time>
  <speed>2.070000</speed>
</trkpt>
<trkpt lat="32.738372803" lon="35.043087006">
  <ele>438.049316</ele>
  <time>2011-06-17T05:40:23Z</time>
  <speed>1.420000</speed>
</trkpt>
<trkpt lat="32.738368988" lon="35.043117523">
  <ele>436.807129</ele>
  <time>2011-06-17T05:40:25Z</time>
  <speed>2.040000</speed>
</trkpt>
<trkpt lat="32.738349915" lon="35.043163300">
  <ele>436.025879</ele>
  <time>2011-06-17T05:40:27Z</time>
  <speed>3.570000</speed>
</trkpt>
<trkpt lat="32.738334656" lon="35.043201447">
  <ele>435.525879</ele>
  <time>2011-06-17T05:40:28Z</time>
  <speed>3.710000</speed>
</trkpt>
<trkpt lat="32.738319397" lon="35.043235779">
  <ele>435.338379</ele>
  <time>2011-06-17T05:40:29Z</time>
  <speed>3.660000</speed>
</trkpt>
<trkpt lat="32.738311768" lon="35.043277740">
  <ele>434.619629</ele>
  <time>2011-06-17T05:40:30Z</time>
  <speed>3.900000</speed>
</trkpt>
<trkpt lat="32.738296509" lon="35.043315887">
  <ele>434.064941</ele>
  <time>2011-06-17T05:40:31Z</time>
  <speed>4.050000</speed>
</trkpt>
<trkpt lat="32.738304138" lon="35.043399811">
  <ele>435.299316</ele>
  <time>2011-06-17T05:40:32Z</time>
  <speed>4.640000</speed>
</trkpt>
<trkpt lat="32.738304138" lon="35.043453217">
  <ele>435.611816</ele>
  <time>2011-06-17T05:40:33Z</time>
  <speed>4.540000</speed>
</trkpt>
<trkpt lat="32.738300323" lon="35.043506622">
  <ele>434.861816</ele>
  <time>2011-06-17T05:40:34Z</time>
  <speed>4.930000</speed>
</trkpt>
<trkpt lat="32.738304138" lon="35.043560028">
  <ele>434.346191</ele>
  <time>2011-06-17T05:40:35Z</time>
  <speed>4.760000</speed>
</trkpt>
<trkpt lat="32.738300323" lon="35.043624878">
  <ele>435.252441</ele>
  <time>2011-06-17T05:40:36Z</time>
  <speed>5.260000</speed>
</trkpt>
<trkpt lat="32.738307953" lon="35.043689728">
  <ele>435.104004</ele>
  <time>2011-06-17T05:40:37Z</time>
  <speed>5.770000</speed>
</trkpt>
<trkpt lat="32.738319397" lon="35.043750763">
  <ele>435.010254</ele>
  <time>2011-06-17T05:40:38Z</time>
  <speed>5.720000</speed>
</trkpt>
<trkpt lat="32.738342285" lon="35.043800354">
  <ele>435.197754</ele>
  <time>2011-06-17T05:40:39Z</time>
  <speed>5.530000</speed>
</trkpt>
<trkpt lat="32.738380432" lon="35.043861389">
  <ele>435.307129</ele>
  <time>2011-06-17T05:40:40Z</time>
  <speed>5.580000</speed>
</trkpt>
<trkpt lat="32.738430023" lon="35.043907166">
  <ele>435.658691</ele>
  <time>2011-06-17T05:40:41Z</time>
  <speed>4.760000</speed>
</trkpt>
<trkpt lat="32.738449097" lon="35.043945313">
  <ele>435.486816</ele>
  <time>2011-06-17T05:40:42Z</time>
  <speed>3.540000</speed>
</trkpt>
<trkpt lat="32.738464355" lon="35.043979645">
  <ele>434.947754</ele>
  <time>2011-06-17T05:40:43Z</time>
  <speed>3.680000</speed>
</trkpt>
<trkpt lat="32.738468170" lon="35.044033051">
  <ele>434.713379</ele>
  <time>2011-06-17T05:40:45Z</time>
  <speed>2.330000</speed>
</trkpt>
<trkpt lat="32.738483429" lon="35.044101715">
  <ele>434.783691</ele>
  <time>2011-06-17T05:40:47Z</time>
  <speed>3.350000</speed>
</trkpt>
<trkpt lat="32.738502502" lon="35.044151306">
  <ele>434.736816</ele>
  <time>2011-06-17T05:40:48Z</time>
  <speed>3.980000</speed>
</trkpt>
<trkpt lat="32.738525391" lon="35.044200897">
  <ele>434.705566</ele>
  <time>2011-06-17T05:40:49Z</time>
  <speed>4.110000</speed>
</trkpt>
<trkpt lat="32.738536835" lon="35.044239044">
  <ele>434.666504</ele>
  <time>2011-06-17T05:40:50Z</time>
  <speed>3.780000</speed>
</trkpt>
<trkpt lat="32.738563538" lon="35.044292450">
  <ele>434.963379</ele>
  <time>2011-06-17T05:40:51Z</time>
  <speed>4.010000</speed>
</trkpt>
<trkpt lat="32.738586426" lon="35.044338226">
  <ele>434.018066</ele>
  <time>2011-06-17T05:40:52Z</time>
  <speed>4.950000</speed>
</trkpt>
<trkpt lat="32.738616943" lon="35.044376373">
  <ele>434.346191</ele>
  <time>2011-06-17T05:40:53Z</time>
  <speed>5.010000</speed>
</trkpt>
<trkpt lat="32.738651276" lon="35.044410706">
  <ele>434.979004</ele>
  <time>2011-06-17T05:40:54Z</time>
  <speed>4.750000</speed>
</trkpt>
<trkpt lat="32.738677979" lon="35.044448853">
  <ele>435.197754</ele>
  <time>2011-06-17T05:40:55Z</time>
  <speed>5.000000</speed>
</trkpt>
<trkpt lat="32.738712311" lon="35.044494629">
  <ele>435.135254</ele>
  <time>2011-06-17T05:40:56Z</time>
  <speed>5.100000</speed>
</trkpt>
<trkpt lat="32.738731384" lon="35.044536591">
  <ele>434.854004</ele>
  <time>2011-06-17T05:40:57Z</time>
  <speed>4.480000</speed>
</trkpt>
<trkpt lat="32.738758087" lon="35.044589996">
  <ele>433.221191</ele>
  <time>2011-06-17T05:40:59Z</time>
  <speed>2.570000</speed>
</trkpt>
<trkpt lat="32.738769531" lon="35.044658661">
  <ele>433.775879</ele>
  <time>2011-06-17T05:41:01Z</time>
  <speed>3.750000</speed>
</trkpt>
<trkpt lat="32.738780975" lon="35.044700623">
  <ele>434.252441</ele>
  <time>2011-06-17T05:41:02Z</time>
  <speed>4.100000</speed>
</trkpt>
<trkpt lat="32.738803864" lon="35.044738770">
  <ele>434.260254</ele>
  <time>2011-06-17T05:41:03Z</time>
  <speed>4.660000</speed>
</trkpt>
<trkpt lat="32.738830566" lon="35.044780731">
  <ele>434.252441</ele>
  <time>2011-06-17T05:41:04Z</time>
  <speed>5.230000</speed>
</trkpt>
<trkpt lat="32.738864899" lon="35.044830322">
  <ele>434.807129</ele>
  <time>2011-06-17T05:41:05Z</time>
  <speed>5.650000</speed>
</trkpt>
<trkpt lat="32.738899231" lon="35.044868469">
  <ele>434.752441</ele>
  <time>2011-06-17T05:41:06Z</time>
  <speed>4.820000</speed>
</trkpt>
<trkpt lat="32.738937378" lon="35.044910431">
  <ele>434.674316</ele>
  <time>2011-06-17T05:41:07Z</time>
  <speed>6.280000</speed>
</trkpt>
<trkpt lat="32.738983154" lon="35.044960022">
  <ele>434.791504</ele>
  <time>2011-06-17T05:41:08Z</time>
  <speed>6.710000</speed>
</trkpt>
<trkpt lat="32.739025116" lon="35.045005798">
  <ele>434.924316</ele>
  <time>2011-06-17T05:41:09Z</time>
  <speed>6.470000</speed>
</trkpt>
<trkpt lat="32.739055634" lon="35.045059204">
  <ele>435.158691</ele>
  <time>2011-06-17T05:41:10Z</time>
  <speed>5.970000</speed>
</trkpt>
<trkpt lat="32.739097595" lon="35.045116425">
  <ele>435.291504</ele>
  <time>2011-06-17T05:41:11Z</time>
  <speed>5.960000</speed>
</trkpt>
<trkpt lat="32.739151001" lon="35.045200348">
  <ele>435.752441</ele>
  <time>2011-06-17T05:41:12Z</time>
  <speed>5.700000</speed>
</trkpt>
<trkpt lat="32.739185333" lon="35.045253754">
  <ele>435.549316</ele>
  <time>2011-06-17T05:41:13Z</time>
  <speed>5.620000</speed>
</trkpt>
<trkpt lat="32.739208221" lon="35.045307159">
  <ele>435.650879</ele>
  <time>2011-06-17T05:41:14Z</time>
  <speed>5.460000</speed>
</trkpt>
<trkpt lat="32.739223480" lon="35.045356750">
  <ele>435.666504</ele>
  <time>2011-06-17T05:41:15Z</time>
  <speed>4.930000</speed>
</trkpt>
<trkpt lat="32.739238739" lon="35.045413971">
  <ele>435.658691</ele>
  <time>2011-06-17T05:41:16Z</time>
  <speed>5.270000</speed>
</trkpt>
<trkpt lat="32.739261627" lon="35.045486450">
  <ele>436.275879</ele>
  <time>2011-06-17T05:41:17Z</time>
  <speed>5.220000</speed>
</trkpt>
<trkpt lat="32.739276886" lon="35.045555115">
  <ele>436.854004</ele>
  <time>2011-06-17T05:41:18Z</time>
  <speed>5.120000</speed>
</trkpt>
<trkpt lat="32.739292145" lon="35.045616150">
  <ele>437.182129</ele>
  <time>2011-06-17T05:41:19Z</time>
  <speed>4.740000</speed>
</trkpt>
<trkpt lat="32.739303589" lon="35.045665741">
  <ele>437.322754</ele>
  <time>2011-06-17T05:41:20Z</time>
  <speed>4.310000</speed>
</trkpt>
<trkpt lat="32.739315033" lon="35.045711517">
  <ele>436.799316</ele>
  <time>2011-06-17T05:41:21Z</time>
  <speed>3.780000</speed>
</trkpt>
<trkpt lat="32.739326477" lon="35.045757294">
  <ele>436.236816</ele>
  <time>2011-06-17T05:41:22Z</time>
  <speed>3.620000</speed>
</trkpt>
<trkpt lat="32.739337921" lon="35.045795441">
  <ele>436.260254</ele>
  <time>2011-06-17T05:41:23Z</time>
  <speed>3.830000</speed>
</trkpt>
<trkpt lat="32.739334106" lon="35.045837402">
  <ele>436.471191</ele>
  <time>2011-06-17T05:41:24Z</time>
  <speed>3.830000</speed>
</trkpt>
<trkpt lat="32.739341736" lon="35.045875549">
  <ele>436.072754</ele>
  <time>2011-06-17T05:41:25Z</time>
  <speed>3.640000</speed>
</trkpt>
<trkpt lat="32.739345551" lon="35.045917511">
  <ele>434.877441</ele>
  <time>2011-06-17T05:41:26Z</time>
  <speed>3.690000</speed>
</trkpt>
<trkpt lat="32.739349365" lon="35.045955658">
  <ele>434.908691</ele>
  <time>2011-06-17T05:41:27Z</time>
  <speed>3.260000</speed>
</trkpt>
<trkpt lat="32.739360809" lon="35.045997620">
  <ele>434.729004</ele>
  <time>2011-06-17T05:41:28Z</time>
  <speed>3.700000</speed>
</trkpt>
<trkpt lat="32.739376068" lon="35.046035767">
  <ele>434.549316</ele>
  <time>2011-06-17T05:41:29Z</time>
  <speed>3.410000</speed>
</trkpt>
<trkpt lat="32.739383698" lon="35.046070099">
  <ele>434.369629</ele>
  <time>2011-06-17T05:41:30Z</time>
  <speed>3.280000</speed>
</trkpt>
<trkpt lat="32.739391327" lon="35.046104431">
  <ele>434.166504</ele>
  <time>2011-06-17T05:41:31Z</time>
  <speed>2.810000</speed>
</trkpt>
<trkpt lat="32.739406586" lon="35.046161652">
  <ele>433.877441</ele>
  <time>2011-06-17T05:41:33Z</time>
  <speed>3.060000</speed>
</trkpt>
<trkpt lat="32.739414215" lon="35.046195984">
  <ele>433.369629</ele>
  <time>2011-06-17T05:41:34Z</time>
  <speed>2.710000</speed>
</trkpt>
<trkpt lat="32.739425659" lon="35.046230316">
  <ele>433.307129</ele>
  <time>2011-06-17T05:41:35Z</time>
  <speed>2.880000</speed>
</trkpt>
<trkpt lat="32.739448547" lon="35.046268463">
  <ele>433.932129</ele>
  <time>2011-06-17T05:41:36Z</time>
  <speed>2.830000</speed>
</trkpt>
<trkpt lat="32.739444733" lon="35.046298981">
  <ele>433.752441</ele>
  <time>2011-06-17T05:41:37Z</time>
  <speed>3.190000</speed>
</trkpt>
<trkpt lat="32.739452362" lon="35.046356201">
  <ele>434.127441</ele>
  <time>2011-06-17T05:41:39Z</time>
  <speed>2.910000</speed>
</trkpt>
<trkpt lat="32.739444733" lon="35.046413422">
  <ele>434.549316</ele>
  <time>2011-06-17T05:41:41Z</time>
  <speed>2.790000</speed>
</trkpt>
<trkpt lat="32.739448547" lon="35.046447754">
  <ele>434.947754</ele>
  <time>2011-06-17T05:41:42Z</time>
  <speed>2.910000</speed>
</trkpt>
<trkpt lat="32.739452362" lon="35.046482086">
  <ele>435.174316</ele>
  <time>2011-06-17T05:41:43Z</time>
  <speed>3.000000</speed>
</trkpt>
<trkpt lat="32.739456177" lon="35.046520233">
  <ele>436.064941</ele>
  <time>2011-06-17T05:41:44Z</time>
  <speed>2.980000</speed>
</trkpt>
<trkpt lat="32.739456177" lon="35.046554565">
  <ele>436.564941</ele>
  <time>2011-06-17T05:41:45Z</time>
  <speed>3.040000</speed>
</trkpt>
<trkpt lat="32.739467621" lon="35.046596527">
  <ele>437.221191</ele>
  <time>2011-06-17T05:41:46Z</time>
  <speed>3.010000</speed>
</trkpt>
<trkpt lat="32.739459991" lon="35.046630859">
  <ele>437.041504</ele>
  <time>2011-06-17T05:41:47Z</time>
  <speed>3.100000</speed>
</trkpt>
<trkpt lat="32.739452362" lon="35.046661377">
  <ele>437.197754</ele>
  <time>2011-06-17T05:41:48Z</time>
  <speed>2.840000</speed>
</trkpt>
<trkpt lat="32.739437103" lon="35.046722412">
  <ele>438.361816</ele>
  <time>2011-06-17T05:41:50Z</time>
  <speed>3.040000</speed>
</trkpt>
<trkpt lat="32.739425659" lon="35.046752930">
  <ele>438.924316</ele>
  <time>2011-06-17T05:41:51Z</time>
  <speed>2.900000</speed>
</trkpt>
<trkpt lat="32.739406586" lon="35.046802521">
  <ele>438.924316</ele>
  <time>2011-06-17T05:41:53Z</time>
  <speed>2.810000</speed>
</trkpt>
<trkpt lat="32.739383698" lon="35.046848297">
  <ele>439.557129</ele>
  <time>2011-06-17T05:41:55Z</time>
  <speed>2.720000</speed>
</trkpt>
<trkpt lat="32.739364624" lon="35.046905518">
  <ele>439.408691</ele>
  <time>2011-06-17T05:41:57Z</time>
  <speed>2.990000</speed>
</trkpt>
<trkpt lat="32.739345551" lon="35.046958923">
  <ele>439.455566</ele>
  <time>2011-06-17T05:41:59Z</time>
  <speed>2.740000</speed>
</trkpt>
<trkpt lat="32.739322662" lon="35.047004700">
  <ele>440.158691</ele>
  <time>2011-06-17T05:42:01Z</time>
  <speed>2.680000</speed>
</trkpt>
<trkpt lat="32.739299774" lon="35.047046661">
  <ele>440.705566</ele>
  <time>2011-06-17T05:42:03Z</time>
  <speed>2.370000</speed>
</trkpt>
<trkpt lat="32.739273071" lon="35.047096252">
  <ele>441.088379</ele>
  <time>2011-06-17T05:42:05Z</time>
  <speed>2.580000</speed>
</trkpt>
<trkpt lat="32.739257813" lon="35.047138214">
  <ele>440.611816</ele>
  <time>2011-06-17T05:42:07Z</time>
  <speed>2.340000</speed>
</trkpt>
<trkpt lat="32.739246368" lon="35.047183990">
  <ele>441.057129</ele>
  <time>2011-06-17T05:42:09Z</time>
  <speed>2.620000</speed>
</trkpt>
<trkpt lat="32.739238739" lon="35.047214508">
  <ele>441.689941</ele>
  <time>2011-06-17T05:42:10Z</time>
  <speed>2.760000</speed>
</trkpt>
<trkpt lat="32.739204407" lon="35.047260284">
  <ele>441.736816</ele>
  <time>2011-06-17T05:42:12Z</time>
  <speed>2.590000</speed>
</trkpt>
<trkpt lat="32.739181519" lon="35.047298431">
  <ele>441.533691</ele>
  <time>2011-06-17T05:42:14Z</time>
  <speed>2.220000</speed>
</trkpt>
<trkpt lat="32.739185333" lon="35.047344208">
  <ele>441.893066</ele>
  <time>2011-06-17T05:42:16Z</time>
  <speed>2.240000</speed>
</trkpt>
<trkpt lat="32.739189148" lon="35.047374725">
  <ele>442.471191</ele>
  <time>2011-06-17T05:42:17Z</time>
  <speed>2.850000</speed>
</trkpt>
<trkpt lat="32.739212036" lon="35.047435760">
  <ele>442.588379</ele>
  <time>2011-06-17T05:42:19Z</time>
  <speed>2.950000</speed>
</trkpt>
<trkpt lat="32.739238739" lon="35.047462463">
  <ele>443.221191</ele>
  <time>2011-06-17T05:42:20Z</time>
  <speed>2.440000</speed>
</trkpt>
<trkpt lat="32.739269257" lon="35.047477722">
  <ele>443.572754</ele>
  <time>2011-06-17T05:42:21Z</time>
  <speed>2.550000</speed>
</trkpt>
<trkpt lat="32.739311218" lon="35.047489166">
  <ele>443.572754</ele>
  <time>2011-06-17T05:42:23Z</time>
  <speed>2.060000</speed>
</trkpt>
<trkpt lat="32.739364624" lon="35.047489166">
  <ele>443.510254</ele>
  <time>2011-06-17T05:42:25Z</time>
  <speed>2.990000</speed>
</trkpt>
<trkpt lat="32.739402771" lon="35.047489166">
  <ele>443.721191</ele>
  <time>2011-06-17T05:42:26Z</time>
  <speed>2.970000</speed>
</trkpt>
<trkpt lat="32.739433289" lon="35.047492981">
  <ele>443.885254</ele>
  <time>2011-06-17T05:42:27Z</time>
  <speed>3.160000</speed>
</trkpt>
<trkpt lat="32.739475250" lon="35.047496796">
  <ele>444.330566</ele>
  <time>2011-06-17T05:42:29Z</time>
  <speed>2.640000</speed>
</trkpt>
<trkpt lat="32.739524841" lon="35.047500610">
  <ele>444.447754</ele>
  <time>2011-06-17T05:42:31Z</time>
  <speed>3.000000</speed>
</trkpt>
<trkpt lat="32.739566803" lon="35.047515869">
  <ele>444.791504</ele>
  <time>2011-06-17T05:42:33Z</time>
  <speed>2.700000</speed>
</trkpt>
<trkpt lat="32.739597321" lon="35.047492981">
  <ele>445.775879</ele>
  <time>2011-06-17T05:42:37Z</time>
  <speed>1.820000</speed>
</trkpt>
<trkpt lat="32.739635468" lon="35.047492981">
  <ele>446.150879</ele>
  <time>2011-06-17T05:42:39Z</time>
  <speed>2.120000</speed>
</trkpt>
<trkpt lat="32.739669800" lon="35.047508240">
  <ele>446.799316</ele>
  <time>2011-06-17T05:42:41Z</time>
  <speed>1.800000</speed>
</trkpt>
<trkpt lat="32.739715576" lon="35.047519684">
  <ele>447.158691</ele>
  <time>2011-06-17T05:42:44Z</time>
  <speed>1.850000</speed>
</trkpt>
<trkpt lat="32.739757538" lon="35.047523499">
  <ele>448.002441</ele>
  <time>2011-06-17T05:42:47Z</time>
  <speed>1.710000</speed>
</trkpt>
<trkpt lat="32.739795685" lon="35.047538757">
  <ele>447.689941</ele>
  <time>2011-06-17T05:42:49Z</time>
  <speed>1.810000</speed>
</trkpt>
<trkpt lat="32.739830017" lon="35.047542572">
  <ele>447.689941</ele>
  <time>2011-06-17T05:42:51Z</time>
  <speed>1.710000</speed>
</trkpt>
<trkpt lat="32.739856720" lon="35.047531128">
  <ele>448.955566</ele>
  <time>2011-06-17T05:42:54Z</time>
  <speed>1.770000</speed>
</trkpt>
<trkpt lat="32.739887238" lon="35.047508240">
  <ele>449.588379</ele>
  <time>2011-06-17T05:42:57Z</time>
  <speed>1.820000</speed>
</trkpt>
<trkpt lat="32.739913940" lon="35.047500610">
  <ele>451.658691</ele>
  <time>2011-06-17T05:42:59Z</time>
  <speed>1.620000</speed>
</trkpt>
<trkpt lat="32.739948273" lon="35.047473907">
  <ele>452.729004</ele>
  <time>2011-06-17T05:43:01Z</time>
  <speed>1.900000</speed>
</trkpt>
<trkpt lat="32.739978790" lon="35.047451019">
  <ele>454.463379</ele>
  <time>2011-06-17T05:43:03Z</time>
  <speed>1.850000</speed>
</trkpt>
<trkpt lat="32.740009308" lon="35.047435760">
  <ele>454.463379</ele>
  <time>2011-06-17T05:43:05Z</time>
  <speed>1.630000</speed>
</trkpt>
<trkpt lat="32.740043640" lon="35.047420502">
  <ele>454.502441</ele>
  <time>2011-06-17T05:43:07Z</time>
  <speed>1.730000</speed>
</trkpt>
<trkpt lat="32.740062714" lon="35.047405243">
  <ele>455.174316</ele>
  <time>2011-06-17T05:43:09Z</time>
  <speed>1.580000</speed>
</trkpt>
<trkpt lat="32.740100861" lon="35.047397614">
  <ele>455.408691</ele>
  <time>2011-06-17T05:43:12Z</time>
  <speed>1.360000</speed>
</trkpt>
<trkpt lat="32.740135193" lon="35.047389984">
  <ele>456.369629</ele>
  <time>2011-06-17T05:43:15Z</time>
  <speed>1.330000</speed>
</trkpt>
<trkpt lat="32.740139008" lon="35.047420502">
  <ele>456.260254</ele>
  <time>2011-06-17T05:43:18Z</time>
  <speed>0.870000</speed>
</trkpt>
<trkpt lat="32.740123749" lon="35.047451019">
  <ele>457.838379</ele>
  <time>2011-06-17T05:43:21Z</time>
  <speed>1.820000</speed>
</trkpt>
<trkpt lat="32.740108490" lon="35.047489166">
  <ele>458.057129</ele>
  <time>2011-06-17T05:43:23Z</time>
  <speed>1.660000</speed>
</trkpt>
<trkpt lat="32.740093231" lon="35.047523499">
  <ele>457.861816</ele>
  <time>2011-06-17T05:43:25Z</time>
  <speed>1.570000</speed>
</trkpt>
<trkpt lat="32.740081787" lon="35.047557831">
  <ele>458.697754</ele>
  <time>2011-06-17T05:43:27Z</time>
  <speed>1.610000</speed>
</trkpt>
<trkpt lat="32.740077972" lon="35.047599792">
  <ele>458.932129</ele>
  <time>2011-06-17T05:43:29Z</time>
  <speed>1.600000</speed>
</trkpt>
<trkpt lat="32.740077972" lon="35.047634125">
  <ele>459.479004</ele>
  <time>2011-06-17T05:43:31Z</time>
  <speed>1.560000</speed>
</trkpt>
<trkpt lat="32.740051270" lon="35.047645569">
  <ele>459.736816</ele>
  <time>2011-06-17T05:43:33Z</time>
  <speed>1.660000</speed>
</trkpt>
<trkpt lat="32.740013123" lon="35.047657013">
  <ele>459.900879</ele>
  <time>2011-06-17T05:43:36Z</time>
  <speed>1.480000</speed>
</trkpt>
<trkpt lat="32.739986420" lon="35.047668457">
  <ele>460.447754</ele>
  <time>2011-06-17T05:43:38Z</time>
  <speed>1.730000</speed>
</trkpt>
<trkpt lat="32.739955902" lon="35.047672272">
  <ele>461.455566</ele>
  <time>2011-06-17T05:43:40Z</time>
  <speed>1.240000</speed>
</trkpt>
<trkpt lat="32.739921570" lon="35.047691345">
  <ele>462.729004</ele>
  <time>2011-06-17T05:43:42Z</time>
  <speed>1.520000</speed>
</trkpt>
<trkpt lat="32.739898682" lon="35.047698975">
  <ele>462.752441</ele>
  <time>2011-06-17T05:43:44Z</time>
  <speed>1.540000</speed>
</trkpt>
<trkpt lat="32.739871979" lon="35.047710419">
  <ele>463.307129</ele>
  <time>2011-06-17T05:43:46Z</time>
  <speed>1.670000</speed>
</trkpt>
<trkpt lat="32.739833832" lon="35.047725677">
  <ele>463.557129</ele>
  <time>2011-06-17T05:43:49Z</time>
  <speed>1.540000</speed>
</trkpt>
<trkpt lat="32.739795685" lon="35.047744751">
  <ele>464.455566</ele>
  <time>2011-06-17T05:43:52Z</time>
  <speed>1.510000</speed>
</trkpt>
<trkpt lat="32.739776611" lon="35.047763824">
  <ele>465.463379</ele>
  <time>2011-06-17T05:43:54Z</time>
  <speed>1.660000</speed>
</trkpt>
<trkpt lat="32.739749908" lon="35.047775269">
  <ele>466.471191</ele>
  <time>2011-06-17T05:43:56Z</time>
  <speed>1.320000</speed>
</trkpt>
<trkpt lat="32.739723206" lon="35.047794342">
  <ele>467.189941</ele>
  <time>2011-06-17T05:43:58Z</time>
  <speed>1.380000</speed>
</trkpt>
<trkpt lat="32.739692688" lon="35.047805786">
  <ele>467.408691</ele>
  <time>2011-06-17T05:44:01Z</time>
  <speed>1.350000</speed>
</trkpt>
<trkpt lat="32.739662170" lon="35.047832489">
  <ele>467.916504</ele>
  <time>2011-06-17T05:44:04Z</time>
  <speed>1.460000</speed>
</trkpt>
<trkpt lat="32.739627838" lon="35.047851563">
  <ele>467.869629</ele>
  <time>2011-06-17T05:44:07Z</time>
  <speed>1.220000</speed>
</trkpt>
<trkpt lat="32.739597321" lon="35.047870636">
  <ele>468.518066</ele>
  <time>2011-06-17T05:44:10Z</time>
  <speed>1.230000</speed>
</trkpt>
<trkpt lat="32.739570618" lon="35.047893524">
  <ele>469.119629</ele>
  <time>2011-06-17T05:44:13Z</time>
  <speed>1.240000</speed>
</trkpt>
<trkpt lat="32.739547729" lon="35.047912598">
  <ele>469.604004</ele>
  <time>2011-06-17T05:44:15Z</time>
  <speed>1.140000</speed>
</trkpt>
<trkpt lat="32.739521027" lon="35.047931671">
  <ele>470.588379</ele>
  <time>2011-06-17T05:44:18Z</time>
  <speed>1.440000</speed>
</trkpt>
<trkpt lat="32.739498138" lon="35.047950745">
  <ele>470.744629</ele>
  <time>2011-06-17T05:44:20Z</time>
  <speed>1.130000</speed>
</trkpt>
<trkpt lat="32.739463806" lon="35.047954559">
  <ele>471.854004</ele>
  <time>2011-06-17T05:44:23Z</time>
  <speed>1.240000</speed>
</trkpt>
<trkpt lat="32.739437103" lon="35.047977448">
  <ele>472.682129</ele>
  <time>2011-06-17T05:44:26Z</time>
  <speed>1.190000</speed>
</trkpt>
<trkpt lat="32.739410400" lon="35.047992706">
  <ele>473.182129</ele>
  <time>2011-06-17T05:44:29Z</time>
  <speed>1.500000</speed>
</trkpt>
<trkpt lat="32.739379883" lon="35.048011780">
  <ele>473.627441</ele>
  <time>2011-06-17T05:44:32Z</time>
  <speed>1.190000</speed>
</trkpt>
<trkpt lat="32.739349365" lon="35.048030853">
  <ele>474.400879</ele>
  <time>2011-06-17T05:44:35Z</time>
  <speed>1.250000</speed>
</trkpt>
<trkpt lat="32.739318848" lon="35.048053741">
  <ele>475.174316</ele>
  <time>2011-06-17T05:44:38Z</time>
  <speed>1.220000</speed>
</trkpt>
<trkpt lat="32.739295959" lon="35.048080444">
  <ele>475.682129</ele>
  <time>2011-06-17T05:44:41Z</time>
  <speed>1.160000</speed>
</trkpt>
<trkpt lat="32.739269257" lon="35.048084259">
  <ele>476.166504</ele>
  <time>2011-06-17T05:44:43Z</time>
  <speed>0.990000</speed>
</trkpt>
<trkpt lat="32.739261627" lon="35.048118591">
  <ele>476.213379</ele>
  <time>2011-06-17T05:44:45Z</time>
  <speed>0.880000</speed>
</trkpt>
<trkpt lat="32.739238739" lon="35.048137665">
  <ele>476.932129</ele>
  <time>2011-06-17T05:44:48Z</time>
  <speed>1.400000</speed>
</trkpt>
<trkpt lat="32.739208221" lon="35.048160553">
  <ele>477.494629</ele>
  <time>2011-06-17T05:44:51Z</time>
  <speed>1.120000</speed>
</trkpt>
<trkpt lat="32.739185333" lon="35.048179626">
  <ele>477.197754</ele>
  <time>2011-06-17T05:44:53Z</time>
  <speed>0.880000</speed>
</trkpt>
<trkpt lat="32.739154816" lon="35.048213959">
  <ele>478.939941</ele>
  <time>2011-06-17T05:44:56Z</time>
  <speed>1.260000</speed>
</trkpt>
<trkpt lat="32.739135742" lon="35.048240662">
  <ele>479.674316</ele>
  <time>2011-06-17T05:44:58Z</time>
  <speed>1.230000</speed>
</trkpt>
<trkpt lat="32.739105225" lon="35.048252106">
  <ele>480.658691</ele>
  <time>2011-06-17T05:45:01Z</time>
  <speed>0.990000</speed>
</trkpt>
<trkpt lat="32.739074707" lon="35.048255920">
  <ele>481.158691</ele>
  <time>2011-06-17T05:45:04Z</time>
  <speed>1.370000</speed>
</trkpt>
<trkpt lat="32.739055634" lon="35.048286438">
  <ele>482.947754</ele>
  <time>2011-06-17T05:45:07Z</time>
  <speed>1.120000</speed>
</trkpt>
<trkpt lat="32.739036560" lon="35.048313141">
  <ele>483.525879</ele>
  <time>2011-06-17T05:45:10Z</time>
  <speed>1.180000</speed>
</trkpt>
<trkpt lat="32.739025116" lon="35.048343658">
  <ele>484.104004</ele>
  <time>2011-06-17T05:45:12Z</time>
  <speed>1.150000</speed>
</trkpt>
<trkpt lat="32.738994598" lon="35.048370361">
  <ele>483.908691</ele>
  <time>2011-06-17T05:45:15Z</time>
  <speed>1.360000</speed>
</trkpt>
<trkpt lat="32.738967896" lon="35.048374176">
  <ele>484.150879</ele>
  <time>2011-06-17T05:45:17Z</time>
  <speed>0.920000</speed>
</trkpt>
<trkpt lat="32.738948822" lon="35.048419952">
  <ele>484.252441</ele>
  <time>2011-06-17T05:45:21Z</time>
  <speed>0.970000</speed>
</trkpt>
<trkpt lat="32.738925934" lon="35.048458099">
  <ele>483.893066</ele>
  <time>2011-06-17T05:45:24Z</time>
  <speed>1.120000</speed>
</trkpt>
<trkpt lat="32.738895416" lon="35.048473358">
  <ele>484.783691</ele>
  <time>2011-06-17T05:45:27Z</time>
  <speed>1.080000</speed>
</trkpt>
<trkpt lat="32.738880157" lon="35.048503876">
  <ele>484.268066</ele>
  <time>2011-06-17T05:45:30Z</time>
  <speed>0.990000</speed>
</trkpt>
<trkpt lat="32.738849640" lon="35.048519135">
  <ele>485.455566</ele>
  <time>2011-06-17T05:45:33Z</time>
  <speed>1.010000</speed>
</trkpt>
<trkpt lat="32.738838196" lon="35.048561096">
  <ele>484.932129</ele>
  <time>2011-06-17T05:45:36Z</time>
  <speed>0.870000</speed>
</trkpt>
<trkpt lat="32.738826752" lon="35.048599243">
  <ele>484.869629</ele>
  <time>2011-06-17T05:45:40Z</time>
  <speed>1.260000</speed>
</trkpt>
<trkpt lat="32.738803864" lon="35.048618317">
  <ele>486.557129</ele>
  <time>2011-06-17T05:45:43Z</time>
  <speed>1.040000</speed>
</trkpt>
<trkpt lat="32.738788605" lon="35.048664093">
  <ele>487.400879</ele>
  <time>2011-06-17T05:45:46Z</time>
  <speed>1.100000</speed>
</trkpt>
<trkpt lat="32.738758087" lon="35.048679352">
  <ele>488.041504</ele>
  <time>2011-06-17T05:45:49Z</time>
  <speed>1.170000</speed>
</trkpt>
<trkpt lat="32.738739014" lon="35.048706055">
  <ele>489.666504</ele>
  <time>2011-06-17T05:45:52Z</time>
  <speed>1.090000</speed>
</trkpt>
<trkpt lat="32.738704681" lon="35.048709869">
  <ele>490.346191</ele>
  <time>2011-06-17T05:45:55Z</time>
  <speed>1.190000</speed>
</trkpt>
<trkpt lat="32.738685608" lon="35.048740387">
  <ele>490.643066</ele>
  <time>2011-06-17T05:45:58Z</time>
  <speed>1.150000</speed>
</trkpt>
<trkpt lat="32.738670349" lon="35.048767090">
  <ele>491.064941</ele>
  <time>2011-06-17T05:46:01Z</time>
  <speed>1.190000</speed>
</trkpt>
<trkpt lat="32.738643646" lon="35.048789978">
  <ele>491.846191</ele>
  <time>2011-06-17T05:46:04Z</time>
  <speed>1.270000</speed>
</trkpt>
<trkpt lat="32.738624573" lon="35.048831940">
  <ele>491.807129</ele>
  <time>2011-06-17T05:46:07Z</time>
  <speed>1.410000</speed>
</trkpt>
<trkpt lat="32.738594055" lon="35.048851013">
  <ele>491.127441</ele>
  <time>2011-06-17T05:46:11Z</time>
  <speed>1.110000</speed>
</trkpt>
<trkpt lat="32.738567352" lon="35.048870087">
  <ele>491.775879</ele>
  <time>2011-06-17T05:46:14Z</time>
  <speed>0.970000</speed>
</trkpt>
<trkpt lat="32.738536835" lon="35.048885345">
  <ele>492.986816</ele>
  <time>2011-06-17T05:46:17Z</time>
  <speed>1.350000</speed>
</trkpt>
<trkpt lat="32.738513947" lon="35.048908234">
  <ele>493.736816</ele>
  <time>2011-06-17T05:46:19Z</time>
  <speed>1.030000</speed>
</trkpt>
<trkpt lat="32.738483429" lon="35.048934937">
  <ele>494.182129</ele>
  <time>2011-06-17T05:46:23Z</time>
  <speed>1.280000</speed>
</trkpt>
<trkpt lat="32.738464355" lon="35.048957825">
  <ele>494.252441</ele>
  <time>2011-06-17T05:46:25Z</time>
  <speed>1.400000</speed>
</trkpt>
<trkpt lat="32.738433838" lon="35.048973083">
  <ele>495.166504</ele>
  <time>2011-06-17T05:46:28Z</time>
  <speed>1.250000</speed>
</trkpt>
<trkpt lat="32.738410950" lon="35.049007416">
  <ele>495.447754</ele>
  <time>2011-06-17T05:46:32Z</time>
  <speed>1.260000</speed>
</trkpt>
<trkpt lat="32.738384247" lon="35.049030304">
  <ele>496.830566</ele>
  <time>2011-06-17T05:46:35Z</time>
  <speed>1.150000</speed>
</trkpt>
<trkpt lat="32.738353729" lon="35.049034119">
  <ele>497.486816</ele>
  <time>2011-06-17T05:46:37Z</time>
  <speed>1.190000</speed>
</trkpt>
<trkpt lat="32.738319397" lon="35.049049377">
  <ele>497.924316</ele>
  <time>2011-06-17T05:46:40Z</time>
  <speed>1.370000</speed>
</trkpt>
<trkpt lat="32.738288879" lon="35.049076080">
  <ele>498.635254</ele>
  <time>2011-06-17T05:46:43Z</time>
  <speed>1.260000</speed>
</trkpt>
<trkpt lat="32.738265991" lon="35.049102783">
  <ele>498.393066</ele>
  <time>2011-06-17T05:46:46Z</time>
  <speed>1.100000</speed>
</trkpt>
<trkpt lat="32.738243103" lon="35.049129486">
  <ele>497.979004</ele>
  <time>2011-06-17T05:46:49Z</time>
  <speed>1.530000</speed>
</trkpt>
<trkpt lat="32.738224030" lon="35.049163818">
  <ele>497.807129</ele>
  <time>2011-06-17T05:46:52Z</time>
  <speed>0.910000</speed>
</trkpt>
<trkpt lat="32.738204956" lon="35.049198151">
  <ele>496.986816</ele>
  <time>2011-06-17T05:46:55Z</time>
  <speed>0.990000</speed>
</trkpt>
<trkpt lat="32.738182068" lon="35.049224854">
  <ele>496.244629</ele>
  <time>2011-06-17T05:46:58Z</time>
  <speed>1.230000</speed>
</trkpt>
<trkpt lat="32.738155365" lon="35.049247742">
  <ele>496.564941</ele>
  <time>2011-06-17T05:47:01Z</time>
  <speed>0.960000</speed>
</trkpt>
<trkpt lat="32.738132477" lon="35.049274445">
  <ele>496.611816</ele>
  <time>2011-06-17T05:47:04Z</time>
  <speed>0.870000</speed>
</trkpt>
<trkpt lat="32.738113403" lon="35.049308777">
  <ele>496.869629</ele>
  <time>2011-06-17T05:47:07Z</time>
  <speed>1.150000</speed>
</trkpt>
<trkpt lat="32.738090515" lon="35.049339294">
  <ele>497.119629</ele>
  <time>2011-06-17T05:47:10Z</time>
  <speed>1.300000</speed>
</trkpt>
<trkpt lat="32.738067627" lon="35.049369812">
  <ele>496.908691</ele>
  <time>2011-06-17T05:47:13Z</time>
  <speed>1.150000</speed>
</trkpt>
<trkpt lat="32.738048553" lon="35.049400330">
  <ele>497.096191</ele>
  <time>2011-06-17T05:47:15Z</time>
  <speed>1.250000</speed>
</trkpt>
<trkpt lat="32.738014221" lon="35.049415588">
  <ele>497.744629</ele>
  <time>2011-06-17T05:47:19Z</time>
  <speed>1.070000</speed>
</trkpt>
<trkpt lat="32.737998962" lon="35.049453735">
  <ele>497.635254</ele>
  <time>2011-06-17T05:47:22Z</time>
  <speed>0.820000</speed>
</trkpt>
<trkpt lat="32.737987518" lon="35.049484253">
  <ele>497.432129</ele>
  <time>2011-06-17T05:47:24Z</time>
  <speed>1.280000</speed>
</trkpt>
<trkpt lat="32.737964630" lon="35.049522400">
  <ele>497.479004</ele>
  <time>2011-06-17T05:47:27Z</time>
  <speed>1.260000</speed>
</trkpt>
<trkpt lat="32.737941742" lon="35.049545288">
  <ele>498.354004</ele>
  <time>2011-06-17T05:47:29Z</time>
  <speed>1.070000</speed>
</trkpt>
<trkpt lat="32.737915039" lon="35.049568176">
  <ele>499.064941</ele>
  <time>2011-06-17T05:47:32Z</time>
  <speed>1.250000</speed>
</trkpt>
<trkpt lat="32.737888336" lon="35.049591064">
  <ele>499.455566</ele>
  <time>2011-06-17T05:47:35Z</time>
  <speed>0.930000</speed>
</trkpt>
<trkpt lat="32.737857819" lon="35.049613953">
  <ele>499.682129</ele>
  <time>2011-06-17T05:47:37Z</time>
  <speed>1.470000</speed>
</trkpt>
<trkpt lat="32.737831116" lon="35.049617767">
  <ele>500.760254</ele>
  <time>2011-06-17T05:47:39Z</time>
  <speed>1.250000</speed>
</trkpt>
<trkpt lat="32.737804413" lon="35.049636841">
  <ele>500.518066</ele>
  <time>2011-06-17T05:47:41Z</time>
  <speed>1.390000</speed>
</trkpt>
<trkpt lat="32.737766266" lon="35.049659729">
  <ele>500.502441</ele>
  <time>2011-06-17T05:47:44Z</time>
  <speed>1.290000</speed>
</trkpt>
<trkpt lat="32.737747192" lon="35.049694061">
  <ele>500.314941</ele>
  <time>2011-06-17T05:47:47Z</time>
  <speed>1.570000</speed>
</trkpt>
<trkpt lat="32.737724304" lon="35.049716949">
  <ele>500.174316</ele>
  <time>2011-06-17T05:47:49Z</time>
  <speed>1.220000</speed>
</trkpt>
<trkpt lat="32.737712860" lon="35.049743652">
  <ele>500.424316</ele>
  <time>2011-06-17T05:47:51Z</time>
  <speed>1.440000</speed>
</trkpt>
<trkpt lat="32.737712860" lon="35.049781799">
  <ele>499.635254</ele>
  <time>2011-06-17T05:47:53Z</time>
  <speed>1.260000</speed>
</trkpt>
<trkpt lat="32.737716675" lon="35.049816132">
  <ele>498.963379</ele>
  <time>2011-06-17T05:47:55Z</time>
  <speed>0.980000</speed>
</trkpt>
<trkpt lat="32.737705231" lon="35.049842834">
  <ele>499.752441</ele>
  <time>2011-06-17T05:48:01Z</time>
  <speed>0.690000</speed>
</trkpt>
<trkpt lat="32.737705231" lon="35.049884796">
  <ele>499.791504</ele>
  <time>2011-06-17T05:48:05Z</time>
  <speed>0.890000</speed>
</trkpt>
<trkpt lat="32.737693787" lon="35.049911499">
  <ele>500.104004</ele>
  <time>2011-06-17T05:48:09Z</time>
  <speed>0.500000</speed>
</trkpt>
<trkpt lat="32.737682343" lon="35.049949646">
  <ele>499.525879</ele>
  <time>2011-06-17T05:48:13Z</time>
  <speed>0.840000</speed>
</trkpt>
<trkpt lat="32.737682343" lon="35.049983978">
  <ele>499.400879</ele>
  <time>2011-06-17T05:48:17Z</time>
  <speed>0.960000</speed>
</trkpt>
<trkpt lat="32.737670898" lon="35.050018311">
  <ele>499.721191</ele>
  <time>2011-06-17T05:48:21Z</time>
  <speed>0.620000</speed>
</trkpt>
<trkpt lat="32.737670898" lon="35.050052643">
  <ele>500.299316</ele>
  <time>2011-06-17T05:48:26Z</time>
  <speed>0.600000</speed>
</trkpt>
<trkpt lat="32.737667084" lon="35.050086975">
  <ele>500.580566</ele>
  <time>2011-06-17T05:48:34Z</time>
  <speed>0.610000</speed>
</trkpt>
<trkpt lat="32.737659454" lon="35.050117493">
  <ele>500.502441</ele>
  <time>2011-06-17T05:48:37Z</time>
  <speed>0.370000</speed>
</trkpt>
<trkpt lat="32.737648010" lon="35.050148010">
  <ele>501.346191</ele>
  <time>2011-06-17T05:48:41Z</time>
  <speed>0.700000</speed>
</trkpt>
<trkpt lat="32.737621307" lon="35.050163269">
  <ele>501.979004</ele>
  <time>2011-06-17T05:48:45Z</time>
  <speed>0.540000</speed>
</trkpt>
<trkpt lat="32.737602234" lon="35.050189972">
  <ele>502.377441</ele>
  <time>2011-06-17T05:48:49Z</time>
  <speed>0.720000</speed>
</trkpt>
<trkpt lat="32.737594604" lon="35.050220490">
  <ele>502.861816</ele>
  <time>2011-06-17T05:48:54Z</time>
  <speed>0.630000</speed>
</trkpt>
<trkpt lat="32.737571716" lon="35.050251007">
  <ele>503.596191</ele>
  <time>2011-06-17T05:48:58Z</time>
  <speed>1.000000</speed>
</trkpt>
<trkpt lat="32.737556458" lon="35.050281525">
  <ele>504.510254</ele>
  <time>2011-06-17T05:49:01Z</time>
  <speed>0.610000</speed>
</trkpt>
<trkpt lat="32.737552643" lon="35.050319672">
  <ele>505.104004</ele>
  <time>2011-06-17T05:49:05Z</time>
  <speed>0.700000</speed>
</trkpt>
<trkpt lat="32.737552643" lon="35.050354004">
  <ele>505.572754</ele>
  <time>2011-06-17T05:49:09Z</time>
  <speed>0.550000</speed>
</trkpt>
<trkpt lat="32.737552643" lon="35.050388336">
  <ele>506.439941</ele>
  <time>2011-06-17T05:49:13Z</time>
  <speed>0.710000</speed>
</trkpt>
<trkpt lat="32.737564087" lon="35.050437927">
  <ele>507.338379</ele>
  <time>2011-06-17T05:49:18Z</time>
  <speed>0.900000</speed>
</trkpt>
<trkpt lat="32.737560272" lon="35.050468445">
  <ele>506.885254</ele>
  <time>2011-06-17T05:49:24Z</time>
  <speed>0.280000</speed>
</trkpt>
<trkpt lat="32.737579346" lon="35.050506592">
  <ele>507.619629</ele>
  <time>2011-06-17T05:49:30Z</time>
  <speed>0.690000</speed>
</trkpt>
<trkpt lat="32.737586975" lon="35.050540924">
  <ele>508.119629</ele>
  <time>2011-06-17T05:49:34Z</time>
  <speed>0.690000</speed>
</trkpt>
<trkpt lat="32.737602234" lon="35.050567627">
  <ele>509.369629</ele>
  <time>2011-06-17T05:49:38Z</time>
  <speed>0.680000</speed>
</trkpt>
<trkpt lat="32.737606049" lon="35.050601959">
  <ele>510.291504</ele>
  <time>2011-06-17T05:49:43Z</time>
  <speed>0.690000</speed>
</trkpt>
<trkpt lat="32.737606049" lon="35.050643921">
  <ele>510.799316</ele>
  <time>2011-06-17T05:49:49Z</time>
  <speed>0.690000</speed>
</trkpt>
<trkpt lat="32.737606049" lon="35.050678253">
  <ele>511.518066</ele>
  <time>2011-06-17T05:49:54Z</time>
  <speed>0.680000</speed>
</trkpt>
<trkpt lat="32.737613678" lon="35.050712585">
  <ele>511.705566</ele>
  <time>2011-06-17T05:49:58Z</time>
  <speed>0.650000</speed>
</trkpt>
<trkpt lat="32.737617493" lon="35.050746918">
  <ele>511.713379</ele>
  <time>2011-06-17T05:50:03Z</time>
  <speed>0.640000</speed>
</trkpt>
<trkpt lat="32.737621307" lon="35.050781250">
  <ele>511.807129</ele>
  <time>2011-06-17T05:50:06Z</time>
  <speed>0.720000</speed>
</trkpt>
<trkpt lat="32.737632751" lon="35.050811768">
  <ele>511.580566</ele>
  <time>2011-06-17T05:50:08Z</time>
  <speed>0.540000</speed>
</trkpt>
<trkpt lat="32.737628937" lon="35.050849915">
  <ele>511.846191</ele>
  <time>2011-06-17T05:50:12Z</time>
  <speed>0.880000</speed>
</trkpt>
<trkpt lat="32.737625122" lon="35.050884247">
  <ele>512.286133</ele>
  <time>2011-06-17T05:50:17Z</time>
  <speed>0.660000</speed>
</trkpt>
<trkpt lat="32.737628937" lon="35.050926208">
  <ele>513.239258</ele>
  <time>2011-06-17T05:50:22Z</time>
  <speed>0.990000</speed>
</trkpt>
<trkpt lat="32.737632751" lon="35.050960541">
  <ele>513.567383</ele>
  <time>2011-06-17T05:50:27Z</time>
  <speed>0.490000</speed>
</trkpt>
<trkpt lat="32.737655640" lon="35.050991058">
  <ele>513.911133</ele>
  <time>2011-06-17T05:50:32Z</time>
  <speed>0.630000</speed>
</trkpt>
<trkpt lat="32.737678528" lon="35.051029205">
  <ele>514.551758</ele>
  <time>2011-06-17T05:50:36Z</time>
  <speed>0.870000</speed>
</trkpt>
<trkpt lat="32.737697601" lon="35.051059723">
  <ele>514.645508</ele>
  <time>2011-06-17T05:50:40Z</time>
  <speed>0.580000</speed>
</trkpt>
<trkpt lat="32.737728119" lon="35.051063538">
  <ele>515.161133</ele>
  <time>2011-06-17T05:50:42Z</time>
  <speed>0.610000</speed>
</trkpt>
<trkpt lat="32.737743378" lon="35.051097870">
  <ele>515.411133</ele>
  <time>2011-06-17T05:50:47Z</time>
  <speed>0.980000</speed>
</trkpt>
<trkpt lat="32.737770081" lon="35.051116943">
  <ele>515.645508</ele>
  <time>2011-06-17T05:50:51Z</time>
  <speed>1.550000</speed>
</trkpt>
<trkpt lat="32.737808228" lon="35.051132202">
  <ele>515.723633</ele>
  <time>2011-06-17T05:50:54Z</time>
  <speed>1.760000</speed>
</trkpt>
<trkpt lat="32.737842560" lon="35.051136017">
  <ele>516.004883</ele>
  <time>2011-06-17T05:50:56Z</time>
  <speed>1.680000</speed>
</trkpt>
<trkpt lat="32.737876892" lon="35.051136017">
  <ele>515.348633</ele>
  <time>2011-06-17T05:50:58Z</time>
  <speed>1.550000</speed>
</trkpt>
<trkpt lat="32.737907410" lon="35.051132202">
  <ele>515.301758</ele>
  <time>2011-06-17T05:51:00Z</time>
  <speed>1.350000</speed>
</trkpt>
<trkpt lat="32.737945557" lon="35.051151276">
  <ele>515.536133</ele>
  <time>2011-06-17T05:51:03Z</time>
  <speed>1.620000</speed>
</trkpt>
<trkpt lat="32.737983704" lon="35.051162720">
  <ele>515.958008</ele>
  <time>2011-06-17T05:51:06Z</time>
  <speed>1.580000</speed>
</trkpt>
<trkpt lat="32.738014221" lon="35.051185608">
  <ele>516.801758</ele>
  <time>2011-06-17T05:51:08Z</time>
  <speed>1.680000</speed>
</trkpt>
<trkpt lat="32.738044739" lon="35.051204681">
  <ele>517.020508</ele>
  <time>2011-06-17T05:51:10Z</time>
  <speed>1.750000</speed>
</trkpt>
<trkpt lat="32.738075256" lon="35.051212311">
  <ele>517.301758</ele>
  <time>2011-06-17T05:51:12Z</time>
  <speed>1.880000</speed>
</trkpt>
<trkpt lat="32.738101959" lon="35.051223755">
  <ele>518.286133</ele>
  <time>2011-06-17T05:51:14Z</time>
  <speed>1.670000</speed>
</trkpt>
<trkpt lat="32.738140106" lon="35.051227570">
  <ele>518.223633</ele>
  <time>2011-06-17T05:51:16Z</time>
  <speed>1.540000</speed>
</trkpt>
<trkpt lat="32.738166809" lon="35.051227570">
  <ele>518.254883</ele>
  <time>2011-06-17T05:51:18Z</time>
  <speed>1.200000</speed>
</trkpt>
<trkpt lat="32.738201141" lon="35.051212311">
  <ele>517.833008</ele>
  <time>2011-06-17T05:51:20Z</time>
  <speed>1.030000</speed>
</trkpt>
<trkpt lat="32.738235474" lon="35.051223755">
  <ele>516.864258</ele>
  <time>2011-06-17T05:51:22Z</time>
  <speed>1.260000</speed>
</trkpt>
<trkpt lat="32.738273621" lon="35.051235199">
  <ele>515.723633</ele>
  <time>2011-06-17T05:51:24Z</time>
  <speed>1.060000</speed>
</trkpt>
<trkpt lat="32.738319397" lon="35.051242828">
  <ele>516.145508</ele>
  <time>2011-06-17T05:51:26Z</time>
  <speed>1.310000</speed>
</trkpt>
<trkpt lat="32.738349915" lon="35.051277161">
  <ele>513.426758</ele>
  <time>2011-06-17T05:51:27Z</time>
  <speed>1.360000</speed>
</trkpt>
<trkpt lat="32.738380432" lon="35.051280975">
  <ele>513.879883</ele>
  <time>2011-06-17T05:51:29Z</time>
  <speed>1.460000</speed>
</trkpt>
<trkpt lat="32.738433838" lon="35.051280975">
  <ele>514.692383</ele>
  <time>2011-06-17T05:51:31Z</time>
  <speed>2.080000</speed>
</trkpt>
<trkpt lat="32.738475800" lon="35.051277161">
  <ele>516.379883</ele>
  <time>2011-06-17T05:51:33Z</time>
  <speed>1.690000</speed>
</trkpt>
<trkpt lat="32.738517761" lon="35.051300049">
  <ele>516.208008</ele>
  <time>2011-06-17T05:51:35Z</time>
  <speed>1.800000</speed>
</trkpt>
<trkpt lat="32.738555908" lon="35.051311493">
  <ele>516.583008</ele>
  <time>2011-06-17T05:51:37Z</time>
  <speed>1.700000</speed>
</trkpt>
<trkpt lat="32.738597870" lon="35.051311493">
  <ele>515.770508</ele>
  <time>2011-06-17T05:51:38Z</time>
  <speed>1.990000</speed>
</trkpt>
<trkpt lat="32.738639832" lon="35.051334381">
  <ele>515.583008</ele>
  <time>2011-06-17T05:51:40Z</time>
  <speed>2.140000</speed>
</trkpt>
<trkpt lat="32.738677979" lon="35.051357269">
  <ele>515.395508</ele>
  <time>2011-06-17T05:51:42Z</time>
  <speed>1.180000</speed>
</trkpt>
<trkpt lat="32.738708496" lon="35.051364899">
  <ele>515.083008</ele>
  <time>2011-06-17T05:51:44Z</time>
  <speed>1.660000</speed>
</trkpt>
<trkpt lat="32.738746643" lon="35.051368713">
  <ele>515.004883</ele>
  <time>2011-06-17T05:51:46Z</time>
  <speed>1.750000</speed>
</trkpt>
<trkpt lat="32.738792419" lon="35.051395416">
  <ele>514.708008</ele>
  <time>2011-06-17T05:51:48Z</time>
  <speed>2.230000</speed>
</trkpt>
<trkpt lat="32.738838196" lon="35.051422119">
  <ele>514.567383</ele>
  <time>2011-06-17T05:51:50Z</time>
  <speed>2.340000</speed>
</trkpt>
<trkpt lat="32.738872528" lon="35.051429749">
  <ele>514.098633</ele>
  <time>2011-06-17T05:51:51Z</time>
  <speed>2.420000</speed>
</trkpt>
<trkpt lat="32.738922119" lon="35.051456451">
  <ele>514.676758</ele>
  <time>2011-06-17T05:51:53Z</time>
  <speed>2.570000</speed>
</trkpt>
<trkpt lat="32.738948822" lon="35.051467896">
  <ele>514.051758</ele>
  <time>2011-06-17T05:51:54Z</time>
  <speed>2.950000</speed>
</trkpt>
<trkpt lat="32.738983154" lon="35.051483154">
  <ele>514.129883</ele>
  <time>2011-06-17T05:51:55Z</time>
  <speed>2.490000</speed>
</trkpt>
<trkpt lat="32.739025116" lon="35.051506042">
  <ele>514.083008</ele>
  <time>2011-06-17T05:51:57Z</time>
  <speed>2.790000</speed>
</trkpt>
<trkpt lat="32.739070892" lon="35.051528931">
  <ele>513.004883</ele>
  <time>2011-06-17T05:51:59Z</time>
  <speed>3.110000</speed>
</trkpt>
<trkpt lat="32.739101410" lon="35.051551819">
  <ele>511.877441</ele>
  <time>2011-06-17T05:52:00Z</time>
  <speed>3.310000</speed>
</trkpt>
<trkpt lat="32.739128113" lon="35.051570892">
  <ele>511.596191</ele>
  <time>2011-06-17T05:52:01Z</time>
  <speed>3.100000</speed>
</trkpt>
<trkpt lat="32.739173889" lon="35.051601410">
  <ele>510.830566</ele>
  <time>2011-06-17T05:52:03Z</time>
  <speed>2.780000</speed>
</trkpt>
<trkpt lat="32.739215851" lon="35.051631927">
  <ele>510.611816</ele>
  <time>2011-06-17T05:52:05Z</time>
  <speed>2.510000</speed>
</trkpt>
<trkpt lat="32.739246368" lon="35.051647186">
  <ele>510.010254</ele>
  <time>2011-06-17T05:52:06Z</time>
  <speed>2.580000</speed>
</trkpt>
<trkpt lat="32.739292145" lon="35.051658630">
  <ele>510.518066</ele>
  <time>2011-06-17T05:52:08Z</time>
  <speed>2.520000</speed>
</trkpt>
<trkpt lat="32.739318848" lon="35.051666260">
  <ele>510.213379</ele>
  <time>2011-06-17T05:52:09Z</time>
  <speed>2.660000</speed>
</trkpt>
<trkpt lat="32.739345551" lon="35.051689148">
  <ele>509.424316</ele>
  <time>2011-06-17T05:52:10Z</time>
  <speed>2.580000</speed>
</trkpt>
<trkpt lat="32.739376068" lon="35.051715851">
  <ele>509.041504</ele>
  <time>2011-06-17T05:52:11Z</time>
  <speed>2.950000</speed>
</trkpt>
<trkpt lat="32.739406586" lon="35.051723480">
  <ele>509.252441</ele>
  <time>2011-06-17T05:52:12Z</time>
  <speed>2.890000</speed>
</trkpt>
<trkpt lat="32.739429474" lon="35.051742554">
  <ele>508.963379</ele>
  <time>2011-06-17T05:52:13Z</time>
  <speed>2.860000</speed>
</trkpt>
<trkpt lat="32.739459991" lon="35.051761627">
  <ele>508.807129</ele>
  <time>2011-06-17T05:52:14Z</time>
  <speed>3.120000</speed>
</trkpt>
<trkpt lat="32.739509583" lon="35.051788330">
  <ele>509.611816</ele>
  <time>2011-06-17T05:52:16Z</time>
  <speed>2.600000</speed>
</trkpt>
<trkpt lat="32.739547729" lon="35.051799774">
  <ele>509.354004</ele>
  <time>2011-06-17T05:52:17Z</time>
  <speed>2.840000</speed>
</trkpt>
<trkpt lat="32.739574432" lon="35.051811218">
  <ele>509.377441</ele>
  <time>2011-06-17T05:52:18Z</time>
  <speed>3.000000</speed>
</trkpt>
<trkpt lat="32.739604950" lon="35.051815033">
  <ele>509.424316</ele>
  <time>2011-06-17T05:52:19Z</time>
  <speed>3.240000</speed>
</trkpt>
<trkpt lat="32.739650726" lon="35.051845551">
  <ele>510.658691</ele>
  <time>2011-06-17T05:52:21Z</time>
  <speed>2.780000</speed>
</trkpt>
<trkpt lat="32.739677429" lon="35.051856995">
  <ele>510.236816</ele>
  <time>2011-06-17T05:52:22Z</time>
  <speed>2.670000</speed>
</trkpt>
<trkpt lat="32.739707947" lon="35.051853180">
  <ele>509.979004</ele>
  <time>2011-06-17T05:52:23Z</time>
  <speed>2.390000</speed>
</trkpt>
<trkpt lat="32.739742279" lon="35.051872253">
  <ele>511.736816</ele>
  <time>2011-06-17T05:52:25Z</time>
  <speed>2.130000</speed>
</trkpt>
<trkpt lat="32.739776611" lon="35.051898956">
  <ele>512.458008</ele>
  <time>2011-06-17T05:52:27Z</time>
  <speed>1.870000</speed>
</trkpt>
<trkpt lat="32.739810944" lon="35.051925659">
  <ele>512.754883</ele>
  <time>2011-06-17T05:52:29Z</time>
  <speed>2.380000</speed>
</trkpt>
<trkpt lat="32.739845276" lon="35.051948547">
  <ele>514.083008</ele>
  <time>2011-06-17T05:52:31Z</time>
  <speed>2.290000</speed>
</trkpt>
<trkpt lat="32.739887238" lon="35.051979065">
  <ele>516.520508</ele>
  <time>2011-06-17T05:52:33Z</time>
  <speed>2.390000</speed>
</trkpt>
<trkpt lat="32.739921570" lon="35.051975250">
  <ele>517.239258</ele>
  <time>2011-06-17T05:52:34Z</time>
  <speed>2.680000</speed>
</trkpt>
<trkpt lat="32.739959717" lon="35.052005768">
  <ele>517.801758</ele>
  <time>2011-06-17T05:52:36Z</time>
  <speed>1.520000</speed>
</trkpt>
<trkpt lat="32.740016937" lon="35.052024841">
  <ele>518.458008</ele>
  <time>2011-06-17T05:52:38Z</time>
  <speed>2.520000</speed>
</trkpt>
<trkpt lat="32.740058899" lon="35.052040100">
  <ele>518.333008</ele>
  <time>2011-06-17T05:52:40Z</time>
  <speed>2.250000</speed>
</trkpt>
<trkpt lat="32.740100861" lon="35.052066803">
  <ele>518.192383</ele>
  <time>2011-06-17T05:52:42Z</time>
  <speed>2.330000</speed>
</trkpt>
<trkpt lat="32.740146637" lon="35.052082062">
  <ele>518.504883</ele>
  <time>2011-06-17T05:52:44Z</time>
  <speed>2.130000</speed>
</trkpt>
<trkpt lat="32.740192413" lon="35.052085876">
  <ele>519.223633</ele>
  <time>2011-06-17T05:52:46Z</time>
  <speed>1.730000</speed>
</trkpt>
<trkpt lat="32.740226746" lon="35.052101135">
  <ele>518.895508</ele>
  <time>2011-06-17T05:52:48Z</time>
  <speed>1.710000</speed>
</trkpt>
<trkpt lat="32.740268707" lon="35.052101135">
  <ele>518.364258</ele>
  <time>2011-06-17T05:52:50Z</time>
  <speed>1.410000</speed>
</trkpt>
<trkpt lat="32.740299225" lon="35.052097321">
  <ele>518.583008</ele>
  <time>2011-06-17T05:52:52Z</time>
  <speed>1.680000</speed>
</trkpt>
<trkpt lat="32.740329742" lon="35.052097321">
  <ele>519.223633</ele>
  <time>2011-06-17T05:52:54Z</time>
  <speed>0.740000</speed>
</trkpt>
<trkpt lat="32.740367889" lon="35.052089691">
  <ele>519.770508</ele>
  <time>2011-06-17T05:52:56Z</time>
  <speed>1.180000</speed>
</trkpt>
<trkpt lat="32.740413666" lon="35.052093506">
  <ele>520.051758</ele>
  <time>2011-06-17T05:52:58Z</time>
  <speed>0.980000</speed>
</trkpt>
<trkpt lat="32.740440369" lon="35.052101135">
  <ele>521.317383</ele>
  <time>2011-06-17T05:53:00Z</time>
  <speed>0.820000</speed>
</trkpt>
<trkpt lat="32.740474701" lon="35.052104950">
  <ele>521.004883</ele>
  <time>2011-06-17T05:53:02Z</time>
  <speed>1.290000</speed>
</trkpt>
<trkpt lat="32.740512848" lon="35.052120209">
  <ele>521.083008</ele>
  <time>2011-06-17T05:53:04Z</time>
  <speed>1.510000</speed>
</trkpt>
<trkpt lat="32.740550995" lon="35.052139282">
  <ele>521.379883</ele>
  <time>2011-06-17T05:53:06Z</time>
  <speed>1.590000</speed>
</trkpt>
<trkpt lat="32.740581512" lon="35.052169800">
  <ele>521.801758</ele>
  <time>2011-06-17T05:53:08Z</time>
  <speed>1.180000</speed>
</trkpt>
<trkpt lat="32.740600586" lon="35.052204132">
  <ele>522.520508</ele>
  <time>2011-06-17T05:53:10Z</time>
  <speed>1.360000</speed>
</trkpt>
<trkpt lat="32.740627289" lon="35.052207947">
  <ele>524.114258</ele>
  <time>2011-06-17T05:53:12Z</time>
  <speed>0.670000</speed>
</trkpt>
<trkpt lat="32.740653992" lon="35.052211761">
  <ele>525.254883</ele>
  <time>2011-06-17T05:53:14Z</time>
  <speed>0.280000</speed>
</trkpt>
<trkpt lat="32.740680695" lon="35.052223206">
  <ele>525.442383</ele>
  <time>2011-06-17T05:53:38Z</time>
  <speed>0.060000</speed>
</trkpt>
<trkpt lat="32.740703583" lon="35.052238464">
  <ele>525.254883</ele>
  <time>2011-06-17T05:57:36Z</time>
</trkpt>
<trkpt lat="32.740676880" lon="35.052227020">
  <ele>525.208008</ele>
  <time>2011-06-17T06:02:21Z</time>
  <speed>0.170000</speed>
</trkpt>
<trkpt lat="32.740661621" lon="35.052219391">
  <ele>522.239258</ele>
  <time>2011-06-17T06:02:33Z</time>
  <speed>0.100000</speed>
</trkpt>
<trkpt lat="32.740631104" lon="35.052196503">
  <ele>522.739258</ele>
  <time>2011-06-17T06:02:39Z</time>
  <speed>0.170000</speed>
</trkpt>
<trkpt lat="32.740604401" lon="35.052207947">
  <ele>523.973633</ele>
  <time>2011-06-17T06:02:45Z</time>
  <speed>0.150000</speed>
</trkpt>
<trkpt lat="32.740623474" lon="35.052200317">
  <ele>521.645508</ele>
  <time>2011-06-17T06:02:58Z</time>
  <speed>0.070000</speed>
</trkpt>
<trkpt lat="32.740619659" lon="35.052177429">
  <ele>523.692383</ele>
  <time>2011-06-17T06:03:02Z</time>
</trkpt>
<trkpt lat="32.740612030" lon="35.052143097">
  <ele>525.692383</ele>
  <time>2011-06-17T06:03:07Z</time>
</trkpt>
<trkpt lat="32.740619659" lon="35.052108765">
  <ele>525.958008</ele>
  <time>2011-06-17T06:03:28Z</time>
  <speed>0.060000</speed>
</trkpt>
<trkpt lat="32.740646362" lon="35.052116394">
  <ele>527.426758</ele>
  <time>2011-06-17T06:03:45Z</time>
  <speed>0.360000</speed>
</trkpt>
<trkpt lat="32.740665436" lon="35.052116394">
  <ele>529.489258</ele>
  <time>2011-06-17T06:03:47Z</time>
  <speed>0.450000</speed>
</trkpt>
<trkpt lat="32.740692139" lon="35.052108765">
  <ele>531.817383</ele>
  <time>2011-06-17T06:03:50Z</time>
  <speed>0.580000</speed>
</trkpt>
<trkpt lat="32.740718842" lon="35.052085876">
  <ele>532.754883</ele>
  <time>2011-06-17T06:03:52Z</time>
  <speed>1.420000</speed>
</trkpt>
<trkpt lat="32.740768433" lon="35.052055359">
  <ele>532.942383</ele>
  <time>2011-06-17T06:03:54Z</time>
  <speed>3.120000</speed>
</trkpt>
<trkpt lat="32.740791321" lon="35.052032471">
  <ele>532.911133</ele>
  <time>2011-06-17T06:03:55Z</time>
  <speed>3.170000</speed>
</trkpt>
<trkpt lat="32.740821838" lon="35.052013397">
  <ele>531.973633</ele>
  <time>2011-06-17T06:03:56Z</time>
  <speed>2.580000</speed>
</trkpt>
<trkpt lat="32.740852356" lon="35.052021027">
  <ele>531.676758</ele>
  <time>2011-06-17T06:03:57Z</time>
  <speed>3.270000</speed>
</trkpt>
<trkpt lat="32.740882874" lon="35.052059174">
  <ele>531.583008</ele>
  <time>2011-06-17T06:03:59Z</time>
  <speed>2.480000</speed>
</trkpt>
<trkpt lat="32.740917206" lon="35.052055359">
  <ele>530.645508</ele>
  <time>2011-06-17T06:04:01Z</time>
  <speed>2.010000</speed>
</trkpt>
<trkpt lat="32.740913391" lon="35.052017212">
  <ele>529.254883</ele>
  <time>2011-06-17T06:04:03Z</time>
  <speed>2.010000</speed>
</trkpt>
<trkpt lat="32.740898132" lon="35.051979065">
  <ele>527.770508</ele>
  <time>2011-06-17T06:04:04Z</time>
  <speed>3.450000</speed>
</trkpt>
<trkpt lat="32.740871429" lon="35.051959991">
  <ele>527.254883</ele>
  <time>2011-06-17T06:04:05Z</time>
  <speed>2.120000</speed>
</trkpt>
<trkpt lat="32.740825653" lon="35.051959991">
  <ele>526.958008</ele>
  <time>2011-06-17T06:04:07Z</time>
  <speed>2.060000</speed>
</trkpt>
<trkpt lat="32.740795135" lon="35.051967621">
  <ele>525.989258</ele>
  <time>2011-06-17T06:04:09Z</time>
  <speed>1.710000</speed>
</trkpt>
<trkpt lat="32.740772247" lon="35.052005768">
  <ele>524.739258</ele>
  <time>2011-06-17T06:04:12Z</time>
  <speed>0.920000</speed>
</trkpt>
<trkpt lat="32.740787506" lon="35.052040100">
  <ele>524.411133</ele>
  <time>2011-06-17T06:04:14Z</time>
  <speed>1.290000</speed>
</trkpt>
<trkpt lat="32.740818024" lon="35.052036285">
  <ele>524.223633</ele>
  <time>2011-06-17T06:04:16Z</time>
  <speed>2.770000</speed>
</trkpt>
<trkpt lat="32.740844727" lon="35.052017212">
  <ele>523.723633</ele>
  <time>2011-06-17T06:04:17Z</time>
  <speed>2.840000</speed>
</trkpt>
<trkpt lat="32.740867615" lon="35.051998138">
  <ele>524.614258</ele>
  <time>2011-06-17T06:04:18Z</time>
  <speed>3.090000</speed>
</trkpt>
<trkpt lat="32.740894318" lon="35.051979065">
  <ele>524.958008</ele>
  <time>2011-06-17T06:04:19Z</time>
  <speed>3.810000</speed>
</trkpt>
<trkpt lat="32.740932465" lon="35.051963806">
  <ele>524.692383</ele>
  <time>2011-06-17T06:04:20Z</time>
  <speed>3.760000</speed>
</trkpt>
<trkpt lat="32.740962982" lon="35.051952362">
  <ele>525.270508</ele>
  <time>2011-06-17T06:04:21Z</time>
  <speed>3.700000</speed>
</trkpt>
<trkpt lat="32.740993500" lon="35.051933289">
  <ele>525.458008</ele>
  <time>2011-06-17T06:04:22Z</time>
  <speed>3.090000</speed>
</trkpt>
<trkpt lat="32.741020203" lon="35.051921844">
  <ele>525.645508</ele>
  <time>2011-06-17T06:04:23Z</time>
  <speed>2.540000</speed>
</trkpt>
<trkpt lat="32.741062164" lon="35.051902771">
  <ele>525.489258</ele>
  <time>2011-06-17T06:04:25Z</time>
  <speed>2.980000</speed>
</trkpt>
<trkpt lat="32.741088867" lon="35.051898956">
  <ele>525.723633</ele>
  <time>2011-06-17T06:04:26Z</time>
  <speed>2.560000</speed>
</trkpt>
<trkpt lat="32.741115570" lon="35.051891327">
  <ele>525.598633</ele>
  <time>2011-06-17T06:04:27Z</time>
  <speed>2.940000</speed>
</trkpt>
<trkpt lat="32.741146088" lon="35.051887512">
  <ele>525.411133</ele>
  <time>2011-06-17T06:04:28Z</time>
  <speed>3.110000</speed>
</trkpt>
<trkpt lat="32.741188049" lon="35.051910400">
  <ele>525.083008</ele>
  <time>2011-06-17T06:04:30Z</time>
  <speed>2.730000</speed>
</trkpt>
<trkpt lat="32.741210938" lon="35.051940918">
  <ele>524.848633</ele>
  <time>2011-06-17T06:04:31Z</time>
  <speed>3.520000</speed>
</trkpt>
<trkpt lat="32.741256714" lon="35.051963806">
  <ele>523.661133</ele>
  <time>2011-06-17T06:04:32Z</time>
  <speed>5.100000</speed>
</trkpt>
<trkpt lat="32.741306305" lon="35.051986694">
  <ele>523.192383</ele>
  <time>2011-06-17T06:04:33Z</time>
  <speed>5.750000</speed>
</trkpt>
<trkpt lat="32.741348267" lon="35.052013397">
  <ele>522.942383</ele>
  <time>2011-06-17T06:04:34Z</time>
  <speed>5.260000</speed>
</trkpt>
<trkpt lat="32.741382599" lon="35.052055359">
  <ele>522.426758</ele>
  <time>2011-06-17T06:04:35Z</time>
  <speed>5.110000</speed>
</trkpt>
<trkpt lat="32.741409302" lon="35.052104950">
  <ele>521.958008</ele>
  <time>2011-06-17T06:04:36Z</time>
  <speed>5.410000</speed>
</trkpt>
<trkpt lat="32.741439819" lon="35.052162170">
  <ele>521.520508</ele>
  <time>2011-06-17T06:04:37Z</time>
  <speed>6.230000</speed>
</trkpt>
<trkpt lat="32.741477966" lon="35.052230835">
  <ele>521.067383</ele>
  <time>2011-06-17T06:04:38Z</time>
  <speed>7.410000</speed>
</trkpt>
<trkpt lat="32.741512299" lon="35.052307129">
  <ele>520.629883</ele>
  <time>2011-06-17T06:04:39Z</time>
  <speed>8.030000</speed>
</trkpt>
<trkpt lat="32.741561890" lon="35.052436829">
  <ele>519.270508</ele>
  <time>2011-06-17T06:04:40Z</time>
  <speed>8.640000</speed>
</trkpt>
<trkpt lat="32.741615295" lon="35.052520752">
  <ele>518.708008</ele>
  <time>2011-06-17T06:04:41Z</time>
  <speed>7.900000</speed>
</trkpt>
<trkpt lat="32.741657257" lon="35.052581787">
  <ele>518.301758</ele>
  <time>2011-06-17T06:04:42Z</time>
  <speed>5.760000</speed>
</trkpt>
<trkpt lat="32.741695404" lon="35.052619934">
  <ele>517.817383</ele>
  <time>2011-06-17T06:04:43Z</time>
  <speed>5.530000</speed>
</trkpt>
<trkpt lat="32.741744995" lon="35.052665710">
  <ele>517.536133</ele>
  <time>2011-06-17T06:04:44Z</time>
  <speed>5.270000</speed>
</trkpt>
<trkpt lat="32.741783142" lon="35.052707672">
  <ele>516.192383</ele>
  <time>2011-06-17T06:04:45Z</time>
  <speed>4.850000</speed>
</trkpt>
<trkpt lat="32.741817474" lon="35.052738190">
  <ele>515.661133</ele>
  <time>2011-06-17T06:04:46Z</time>
  <speed>4.380000</speed>
</trkpt>
<trkpt lat="32.741870880" lon="35.052768707">
  <ele>515.223633</ele>
  <time>2011-06-17T06:04:47Z</time>
  <speed>4.130000</speed>
</trkpt>
<trkpt lat="32.741912842" lon="35.052738190">
  <ele>514.239258</ele>
  <time>2011-06-17T06:04:49Z</time>
  <speed>1.970000</speed>
</trkpt>
<trkpt lat="32.741935730" lon="35.052722931">
  <ele>513.239258</ele>
  <time>2011-06-17T06:04:50Z</time>
  <speed>2.120000</speed>
</trkpt>
<trkpt lat="32.741973877" lon="35.052715302">
  <ele>512.692383</ele>
  <time>2011-06-17T06:04:51Z</time>
  <speed>2.100000</speed>
</trkpt>
<trkpt lat="32.742004395" lon="35.052738190">
  <ele>512.286133</ele>
  <time>2011-06-17T06:04:52Z</time>
  <speed>3.760000</speed>
</trkpt>
<trkpt lat="32.742046356" lon="35.052757263">
  <ele>512.020508</ele>
  <time>2011-06-17T06:04:53Z</time>
  <speed>3.950000</speed>
</trkpt>
<trkpt lat="32.742084503" lon="35.052776337">
  <ele>511.674316</ele>
  <time>2011-06-17T06:04:54Z</time>
  <speed>3.710000</speed>
</trkpt>
<trkpt lat="32.742126465" lon="35.052799225">
  <ele>511.572754</ele>
  <time>2011-06-17T06:04:55Z</time>
  <speed>4.520000</speed>
</trkpt>
<trkpt lat="32.742168427" lon="35.052814484">
  <ele>511.447754</ele>
  <time>2011-06-17T06:04:56Z</time>
  <speed>3.700000</speed>
</trkpt>
<trkpt lat="32.742218018" lon="35.052825928">
  <ele>511.010254</ele>
  <time>2011-06-17T06:04:57Z</time>
  <speed>3.020000</speed>
</trkpt>
<trkpt lat="32.742248535" lon="35.052822113">
  <ele>510.619629</ele>
  <time>2011-06-17T06:04:58Z</time>
  <speed>2.560000</speed>
</trkpt>
<trkpt lat="32.742298126" lon="35.052825928">
  <ele>510.221191</ele>
  <time>2011-06-17T06:04:59Z</time>
  <speed>3.300000</speed>
</trkpt>
<trkpt lat="32.742343903" lon="35.052833557">
  <ele>509.525879</ele>
  <time>2011-06-17T06:05:00Z</time>
  <speed>4.230000</speed>
</trkpt>
<trkpt lat="32.742385864" lon="35.052848816">
  <ele>509.994629</ele>
  <time>2011-06-17T06:05:01Z</time>
  <speed>4.520000</speed>
</trkpt>
<trkpt lat="32.742500305" lon="35.052856445">
  <ele>506.111816</ele>
  <time>2011-06-17T06:05:02Z</time>
  <speed>5.110000</speed>
</trkpt>
<trkpt lat="32.742549896" lon="35.052875519">
  <ele>506.424316</ele>
  <time>2011-06-17T06:05:03Z</time>
  <speed>4.840000</speed>
</trkpt>
<trkpt lat="32.742572784" lon="35.052909851">
  <ele>506.143066</ele>
  <time>2011-06-17T06:05:04Z</time>
  <speed>4.230000</speed>
</trkpt>
<trkpt lat="32.742618561" lon="35.052947998">
  <ele>505.369629</ele>
  <time>2011-06-17T06:05:05Z</time>
  <speed>5.420000</speed>
</trkpt>
<trkpt lat="32.742679596" lon="35.052959442">
  <ele>504.455566</ele>
  <time>2011-06-17T06:05:06Z</time>
  <speed>6.420000</speed>
</trkpt>
<trkpt lat="32.742733002" lon="35.052959442">
  <ele>503.658691</ele>
  <time>2011-06-17T06:05:07Z</time>
  <speed>6.820000</speed>
</trkpt>
<trkpt lat="32.742797852" lon="35.052959442">
  <ele>503.697754</ele>
  <time>2011-06-17T06:05:08Z</time>
  <speed>7.110000</speed>
</trkpt>
<trkpt lat="32.742858887" lon="35.052982330">
  <ele>504.393066</ele>
  <time>2011-06-17T06:05:09Z</time>
  <speed>5.600000</speed>
</trkpt>
<trkpt lat="32.742900848" lon="35.053028107">
  <ele>503.549316</ele>
  <time>2011-06-17T06:05:10Z</time>
  <speed>5.200000</speed>
</trkpt>
<trkpt lat="32.742927551" lon="35.053070068">
  <ele>503.197754</ele>
  <time>2011-06-17T06:05:11Z</time>
  <speed>4.400000</speed>
</trkpt>
<trkpt lat="32.742950439" lon="35.053108215">
  <ele>502.221191</ele>
  <time>2011-06-17T06:05:12Z</time>
  <speed>4.750000</speed>
</trkpt>
<trkpt lat="32.742965698" lon="35.053142548">
  <ele>502.010254</ele>
  <time>2011-06-17T06:05:13Z</time>
  <speed>4.200000</speed>
</trkpt>
<trkpt lat="32.742988586" lon="35.053176880">
  <ele>501.549316</ele>
  <time>2011-06-17T06:05:14Z</time>
  <speed>3.650000</speed>
</trkpt>
<trkpt lat="32.743007660" lon="35.053199768">
  <ele>500.861816</ele>
  <time>2011-06-17T06:05:15Z</time>
  <speed>3.150000</speed>
</trkpt>
<trkpt lat="32.743049622" lon="35.053245544">
  <ele>500.689941</ele>
  <time>2011-06-17T06:05:17Z</time>
  <speed>3.380000</speed>
</trkpt>
<trkpt lat="32.743076324" lon="35.053264618">
  <ele>501.041504</ele>
  <time>2011-06-17T06:05:19Z</time>
  <speed>1.390000</speed>
</trkpt>
<trkpt lat="32.743122101" lon="35.053260803">
  <ele>501.080566</ele>
  <time>2011-06-17T06:05:21Z</time>
  <speed>3.730000</speed>
</trkpt>
<trkpt lat="32.743152618" lon="35.053237915">
  <ele>500.791504</ele>
  <time>2011-06-17T06:05:22Z</time>
  <speed>4.150000</speed>
</trkpt>
<trkpt lat="32.743171692" lon="35.053203583">
  <ele>501.338379</ele>
  <time>2011-06-17T06:05:23Z</time>
  <speed>3.220000</speed>
</trkpt>
<trkpt lat="32.743186951" lon="35.053157806">
  <ele>500.893066</ele>
  <time>2011-06-17T06:05:24Z</time>
  <speed>4.300000</speed>
</trkpt>
<trkpt lat="32.743209839" lon="35.053119659">
  <ele>500.713379</ele>
  <time>2011-06-17T06:05:25Z</time>
  <speed>4.380000</speed>
</trkpt>
<trkpt lat="32.743240356" lon="35.053085327">
  <ele>500.580566</ele>
  <time>2011-06-17T06:05:26Z</time>
  <speed>4.340000</speed>
</trkpt>
<trkpt lat="32.743259430" lon="35.053028107">
  <ele>499.814941</ele>
  <time>2011-06-17T06:05:27Z</time>
  <speed>4.460000</speed>
</trkpt>
<trkpt lat="32.743282318" lon="35.052986145">
  <ele>499.666504</ele>
  <time>2011-06-17T06:05:28Z</time>
  <speed>4.240000</speed>
</trkpt>
<trkpt lat="32.743312836" lon="35.052944183">
  <ele>499.447754</ele>
  <time>2011-06-17T06:05:29Z</time>
  <speed>4.360000</speed>
</trkpt>
<trkpt lat="32.743335724" lon="35.052913666">
  <ele>499.291504</ele>
  <time>2011-06-17T06:05:30Z</time>
  <speed>3.170000</speed>
</trkpt>
<trkpt lat="32.743362427" lon="35.052886963">
  <ele>498.682129</ele>
  <time>2011-06-17T06:05:31Z</time>
  <speed>2.850000</speed>
</trkpt>
<trkpt lat="32.743389130" lon="35.052864075">
  <ele>497.916504</ele>
  <time>2011-06-17T06:05:32Z</time>
  <speed>3.070000</speed>
</trkpt>
<trkpt lat="32.743419647" lon="35.052833557">
  <ele>497.572754</ele>
  <time>2011-06-17T06:05:33Z</time>
  <speed>3.580000</speed>
</trkpt>
<trkpt lat="32.743442535" lon="35.052806854">
  <ele>497.057129</ele>
  <time>2011-06-17T06:05:34Z</time>
  <speed>4.030000</speed>
</trkpt>
<trkpt lat="32.743469238" lon="35.052780151">
  <ele>496.447754</ele>
  <time>2011-06-17T06:05:35Z</time>
  <speed>3.320000</speed>
</trkpt>
<trkpt lat="32.743515015" lon="35.052768707">
  <ele>495.713379</ele>
  <time>2011-06-17T06:05:37Z</time>
  <speed>2.770000</speed>
</trkpt>
<trkpt lat="32.743541718" lon="35.052764893">
  <ele>495.385254</ele>
  <time>2011-06-17T06:05:38Z</time>
  <speed>2.510000</speed>
</trkpt>
<trkpt lat="32.743595123" lon="35.052772522">
  <ele>494.736816</ele>
  <time>2011-06-17T06:05:40Z</time>
  <speed>3.260000</speed>
</trkpt>
<trkpt lat="32.743625641" lon="35.052783966">
  <ele>493.814941</ele>
  <time>2011-06-17T06:05:41Z</time>
  <speed>3.290000</speed>
</trkpt>
<trkpt lat="32.743659973" lon="35.052791595">
  <ele>493.424316</ele>
  <time>2011-06-17T06:05:42Z</time>
  <speed>4.040000</speed>
</trkpt>
<trkpt lat="32.743713379" lon="35.052799225">
  <ele>493.416504</ele>
  <time>2011-06-17T06:05:43Z</time>
  <speed>5.140000</speed>
</trkpt>
<trkpt lat="32.743755341" lon="35.052818298">
  <ele>492.697754</ele>
  <time>2011-06-17T06:05:44Z</time>
  <speed>4.360000</speed>
</trkpt>
<trkpt lat="32.743785858" lon="35.052833557">
  <ele>492.416504</ele>
  <time>2011-06-17T06:05:45Z</time>
  <speed>3.050000</speed>
</trkpt>
<trkpt lat="32.743824005" lon="35.052848816">
  <ele>491.939941</ele>
  <time>2011-06-17T06:05:46Z</time>
  <speed>2.780000</speed>
</trkpt>
<trkpt lat="32.743881226" lon="35.052837372">
  <ele>490.229004</ele>
  <time>2011-06-17T06:05:48Z</time>
  <speed>2.980000</speed>
</trkpt>
<trkpt lat="32.743957520" lon="35.052829742">
  <ele>490.932129</ele>
  <time>2011-06-17T06:05:49Z</time>
  <speed>4.810000</speed>
</trkpt>
<trkpt lat="32.744037628" lon="35.052814484">
  <ele>489.439941</ele>
  <time>2011-06-17T06:05:50Z</time>
  <speed>4.480000</speed>
</trkpt>
<trkpt lat="32.744079590" lon="35.052845001">
  <ele>487.111816</ele>
  <time>2011-06-17T06:05:51Z</time>
  <speed>4.830000</speed>
</trkpt>
<trkpt lat="32.744102478" lon="35.052864075">
  <ele>485.822754</ele>
  <time>2011-06-17T06:05:52Z</time>
  <speed>2.660000</speed>
</trkpt>
<trkpt lat="32.744140625" lon="35.052875519">
  <ele>484.729004</ele>
  <time>2011-06-17T06:05:54Z</time>
  <speed>2.420000</speed>
</trkpt>
<trkpt lat="32.744190216" lon="35.052856445">
  <ele>483.354004</ele>
  <time>2011-06-17T06:05:56Z</time>
  <speed>3.470000</speed>
</trkpt>
<trkpt lat="32.744239807" lon="35.052845001">
  <ele>481.549316</ele>
  <time>2011-06-17T06:05:57Z</time>
  <speed>4.270000</speed>
</trkpt>
<trkpt lat="32.744289398" lon="35.052845001">
  <ele>480.018066</ele>
  <time>2011-06-17T06:05:58Z</time>
  <speed>4.720000</speed>
</trkpt>
<trkpt lat="32.744327545" lon="35.052841187">
  <ele>479.080566</ele>
  <time>2011-06-17T06:05:59Z</time>
  <speed>4.270000</speed>
</trkpt>
<trkpt lat="32.744377136" lon="35.052845001">
  <ele>477.463379</ele>
  <time>2011-06-17T06:06:00Z</time>
  <speed>4.520000</speed>
</trkpt>
<trkpt lat="32.744415283" lon="35.052841187">
  <ele>476.299316</ele>
  <time>2011-06-17T06:06:01Z</time>
  <speed>3.680000</speed>
</trkpt>
<trkpt lat="32.744445801" lon="35.052837372">
  <ele>475.432129</ele>
  <time>2011-06-17T06:06:02Z</time>
  <speed>3.190000</speed>
</trkpt>
<trkpt lat="32.744487762" lon="35.052837372">
  <ele>473.986816</ele>
  <time>2011-06-17T06:06:03Z</time>
  <speed>4.760000</speed>
</trkpt>
<trkpt lat="32.744529724" lon="35.052825928">
  <ele>473.135254</ele>
  <time>2011-06-17T06:06:04Z</time>
  <speed>4.360000</speed>
</trkpt>
<trkpt lat="32.744625092" lon="35.052825928">
  <ele>472.135254</ele>
  <time>2011-06-17T06:06:05Z</time>
  <speed>4.840000</speed>
</trkpt>
<trkpt lat="32.744670868" lon="35.052810669">
  <ele>472.080566</ele>
  <time>2011-06-17T06:06:06Z</time>
  <speed>4.570000</speed>
</trkpt>
<trkpt lat="32.744709015" lon="35.052791595">
  <ele>472.010254</ele>
  <time>2011-06-17T06:06:07Z</time>
  <speed>3.640000</speed>
</trkpt>
<trkpt lat="32.744754791" lon="35.052780151">
  <ele>471.166504</ele>
  <time>2011-06-17T06:06:08Z</time>
  <speed>4.130000</speed>
</trkpt>
<trkpt lat="32.744800568" lon="35.052783966">
  <ele>471.814941</ele>
  <time>2011-06-17T06:06:09Z</time>
  <speed>2.950000</speed>
</trkpt>
<trkpt lat="32.744785309" lon="35.052810669">
  <ele>470.377441</ele>
  <time>2011-06-17T06:06:12Z</time>
  <speed>2.770000</speed>
</trkpt>
<trkpt lat="32.744750977" lon="35.052825928">
  <ele>469.158691</ele>
  <time>2011-06-17T06:06:13Z</time>
  <speed>4.420000</speed>
</trkpt>
<trkpt lat="32.744712830" lon="35.052837372">
  <ele>468.752441</ele>
  <time>2011-06-17T06:06:14Z</time>
  <speed>4.320000</speed>
</trkpt>
<trkpt lat="32.744674683" lon="35.052852631">
  <ele>468.541504</ele>
  <time>2011-06-17T06:06:15Z</time>
  <speed>4.860000</speed>
</trkpt>
<trkpt lat="32.744613647" lon="35.052871704">
  <ele>466.635254</ele>
  <time>2011-06-17T06:06:16Z</time>
  <speed>5.160000</speed>
</trkpt>
<trkpt lat="32.744579315" lon="35.052898407">
  <ele>466.002441</ele>
  <time>2011-06-17T06:06:17Z</time>
  <speed>4.420000</speed>
</trkpt>
<trkpt lat="32.744564056" lon="35.052940369">
  <ele>462.861816</ele>
  <time>2011-06-17T06:06:18Z</time>
  <speed>3.990000</speed>
</trkpt>
<trkpt lat="32.744541168" lon="35.052986145">
  <ele>461.674316</ele>
  <time>2011-06-17T06:06:19Z</time>
  <speed>2.920000</speed>
</trkpt>
<trkpt lat="32.744544983" lon="35.053039551">
  <ele>461.588379</ele>
  <time>2011-06-17T06:06:20Z</time>
  <speed>2.180000</speed>
</trkpt>
<trkpt lat="32.744583130" lon="35.053089142">
  <ele>461.893066</ele>
  <time>2011-06-17T06:06:22Z</time>
  <speed>3.050000</speed>
</trkpt>
<trkpt lat="32.744621277" lon="35.053100586">
  <ele>461.924316</ele>
  <time>2011-06-17T06:06:23Z</time>
  <speed>3.720000</speed>
</trkpt>
<trkpt lat="32.744659424" lon="35.053112030">
  <ele>461.096191</ele>
  <time>2011-06-17T06:06:24Z</time>
  <speed>4.720000</speed>
</trkpt>
<trkpt lat="32.744701385" lon="35.053112030">
  <ele>460.447754</ele>
  <time>2011-06-17T06:06:25Z</time>
  <speed>4.210000</speed>
</trkpt>
<trkpt lat="32.744754791" lon="35.053119659">
  <ele>460.432129</ele>
  <time>2011-06-17T06:06:26Z</time>
  <speed>4.650000</speed>
</trkpt>
<trkpt lat="32.744800568" lon="35.053123474">
  <ele>459.666504</ele>
  <time>2011-06-17T06:06:27Z</time>
  <speed>4.790000</speed>
</trkpt>
<trkpt lat="32.744853973" lon="35.053134918">
  <ele>459.510254</ele>
  <time>2011-06-17T06:06:28Z</time>
  <speed>5.040000</speed>
</trkpt>
<trkpt lat="32.744911194" lon="35.053142548">
  <ele>459.166504</ele>
  <time>2011-06-17T06:06:29Z</time>
  <speed>4.550000</speed>
</trkpt>
<trkpt lat="32.744964600" lon="35.053146362">
  <ele>458.283691</ele>
  <time>2011-06-17T06:06:30Z</time>
  <speed>4.740000</speed>
</trkpt>
<trkpt lat="32.745021820" lon="35.053150177">
  <ele>457.611816</ele>
  <time>2011-06-17T06:06:31Z</time>
  <speed>4.640000</speed>
</trkpt>
<trkpt lat="32.745071411" lon="35.053153992">
  <ele>457.275879</ele>
  <time>2011-06-17T06:06:32Z</time>
  <speed>4.610000</speed>
</trkpt>
<trkpt lat="32.745121002" lon="35.053165436">
  <ele>456.971191</ele>
  <time>2011-06-17T06:06:33Z</time>
  <speed>4.730000</speed>
</trkpt>
<trkpt lat="32.745170593" lon="35.053176880">
  <ele>456.330566</ele>
  <time>2011-06-17T06:06:34Z</time>
  <speed>4.170000</speed>
</trkpt>
<trkpt lat="32.745216370" lon="35.053192139">
  <ele>455.650879</ele>
  <time>2011-06-17T06:06:35Z</time>
  <speed>3.960000</speed>
</trkpt>
<trkpt lat="32.745285034" lon="35.053218842">
  <ele>456.908691</ele>
  <time>2011-06-17T06:06:36Z</time>
  <speed>5.260000</speed>
</trkpt>
<trkpt lat="32.745334625" lon="35.053249359">
  <ele>456.814941</ele>
  <time>2011-06-17T06:06:37Z</time>
  <speed>5.170000</speed>
</trkpt>
<trkpt lat="32.745426178" lon="35.053279877">
  <ele>456.096191</ele>
  <time>2011-06-17T06:06:38Z</time>
  <speed>4.620000</speed>
</trkpt>
<trkpt lat="32.745471954" lon="35.053318024">
  <ele>455.049316</ele>
  <time>2011-06-17T06:06:39Z</time>
  <speed>3.300000</speed>
</trkpt>
<trkpt lat="32.745468140" lon="35.053371429">
  <ele>453.729004</ele>
  <time>2011-06-17T06:06:41Z</time>
  <speed>2.510000</speed>
</trkpt>
<trkpt lat="32.745449066" lon="35.053401947">
  <ele>452.924316</ele>
  <time>2011-06-17T06:06:42Z</time>
  <speed>3.190000</speed>
</trkpt>
<trkpt lat="32.745433807" lon="35.053440094">
  <ele>451.369629</ele>
  <time>2011-06-17T06:06:43Z</time>
  <speed>3.770000</speed>
</trkpt>
<trkpt lat="32.745403290" lon="35.053466797">
  <ele>450.705566</ele>
  <time>2011-06-17T06:06:44Z</time>
  <speed>3.760000</speed>
</trkpt>
<trkpt lat="32.745365143" lon="35.053478241">
  <ele>449.932129</ele>
  <time>2011-06-17T06:06:45Z</time>
  <speed>3.880000</speed>
</trkpt>
<trkpt lat="32.745319366" lon="35.053478241">
  <ele>449.166504</ele>
  <time>2011-06-17T06:06:46Z</time>
  <speed>3.610000</speed>
</trkpt>
<trkpt lat="32.745285034" lon="35.053478241">
  <ele>448.580566</ele>
  <time>2011-06-17T06:06:47Z</time>
  <speed>3.350000</speed>
</trkpt>
<trkpt lat="32.745239258" lon="35.053497314">
  <ele>447.666504</ele>
  <time>2011-06-17T06:06:49Z</time>
  <speed>2.540000</speed>
</trkpt>
<trkpt lat="32.745223999" lon="35.053539276">
  <ele>447.166504</ele>
  <time>2011-06-17T06:06:50Z</time>
  <speed>3.370000</speed>
</trkpt>
<trkpt lat="32.745208740" lon="35.053565979">
  <ele>446.510254</ele>
  <time>2011-06-17T06:06:51Z</time>
  <speed>3.440000</speed>
</trkpt>
<trkpt lat="32.745170593" lon="35.053588867">
  <ele>445.791504</ele>
  <time>2011-06-17T06:06:52Z</time>
  <speed>3.960000</speed>
</trkpt>
<trkpt lat="32.745136261" lon="35.053600311">
  <ele>445.135254</ele>
  <time>2011-06-17T06:06:53Z</time>
  <speed>3.710000</speed>
</trkpt>
<trkpt lat="32.745101929" lon="35.053627014">
  <ele>444.588379</ele>
  <time>2011-06-17T06:06:54Z</time>
  <speed>3.490000</speed>
</trkpt>
<trkpt lat="32.745082855" lon="35.053668976">
  <ele>443.275879</ele>
  <time>2011-06-17T06:06:55Z</time>
  <speed>4.210000</speed>
</trkpt>
<trkpt lat="32.745082855" lon="35.053714752">
  <ele>442.322754</ele>
  <time>2011-06-17T06:06:56Z</time>
  <speed>4.000000</speed>
</trkpt>
<trkpt lat="32.745052338" lon="35.053771973">
  <ele>440.385254</ele>
  <time>2011-06-17T06:06:57Z</time>
  <speed>3.610000</speed>
</trkpt>
<trkpt lat="32.745071411" lon="35.053802490">
  <ele>437.939941</ele>
  <time>2011-06-17T06:06:58Z</time>
  <speed>2.250000</speed>
</trkpt>
<trkpt lat="32.745109558" lon="35.053848267">
  <ele>435.525879</ele>
  <time>2011-06-17T06:07:00Z</time>
  <speed>2.670000</speed>
</trkpt>
<trkpt lat="32.745117188" lon="35.053882599">
  <ele>434.182129</ele>
  <time>2011-06-17T06:07:03Z</time>
  <speed>0.110000</speed>
</trkpt>
<trkpt lat="32.745109558" lon="35.053913116">
  <ele>434.619629</ele>
  <time>2011-06-17T06:07:08Z</time>
  <speed>0.280000</speed>
</trkpt>
<trkpt lat="32.745079041" lon="35.053897858">
  <ele>433.955566</ele>
  <time>2011-06-17T06:07:14Z</time>
  <speed>0.820000</speed>
</trkpt>
<trkpt lat="32.745052338" lon="35.053894043">
  <ele>433.924316</ele>
  <time>2011-06-17T06:07:17Z</time>
  <speed>0.810000</speed>
</trkpt>
<trkpt lat="32.745018005" lon="35.053886414">
  <ele>433.533691</ele>
  <time>2011-06-17T06:07:22Z</time>
  <speed>0.720000</speed>
</trkpt>
<trkpt lat="32.744976044" lon="35.053890228">
  <ele>433.572754</ele>
  <time>2011-06-17T06:07:26Z</time>
  <speed>1.000000</speed>
</trkpt>
<trkpt lat="32.744945526" lon="35.053890228">
  <ele>433.955566</ele>
  <time>2011-06-17T06:07:30Z</time>
  <speed>0.830000</speed>
</trkpt>
<trkpt lat="32.744918823" lon="35.053886414">
  <ele>433.627441</ele>
  <time>2011-06-17T06:07:35Z</time>
  <speed>0.090000</speed>
</trkpt>
<trkpt lat="32.744888306" lon="35.053901672">
  <ele>434.268066</ele>
  <time>2011-06-17T06:07:42Z</time>
  <speed>0.750000</speed>
</trkpt>
<trkpt lat="32.744857788" lon="35.053920746">
  <ele>435.400879</ele>
  <time>2011-06-17T06:07:45Z</time>
  <speed>0.920000</speed>
</trkpt>
<trkpt lat="32.744834900" lon="35.053958893">
  <ele>435.705566</ele>
  <time>2011-06-17T06:07:48Z</time>
  <speed>0.880000</speed>
</trkpt>
<trkpt lat="32.744842529" lon="35.054000854">
  <ele>435.799316</ele>
  <time>2011-06-17T06:07:51Z</time>
  <speed>0.530000</speed>
</trkpt>
<trkpt lat="32.744838715" lon="35.054039001">
  <ele>436.166504</ele>
  <time>2011-06-17T06:07:53Z</time>
  <speed>1.110000</speed>
</trkpt>
<trkpt lat="32.744842529" lon="35.054077148">
  <ele>435.854004</ele>
  <time>2011-06-17T06:07:55Z</time>
  <speed>1.690000</speed>
</trkpt>
<trkpt lat="32.744819641" lon="35.054119110">
  <ele>435.752441</ele>
  <time>2011-06-17T06:07:57Z</time>
  <speed>2.320000</speed>
</trkpt>
<trkpt lat="32.744800568" lon="35.054164886">
  <ele>437.643066</ele>
  <time>2011-06-17T06:07:58Z</time>
  <speed>2.240000</speed>
</trkpt>
<trkpt lat="32.744770050" lon="35.054210663">
  <ele>439.682129</ele>
  <time>2011-06-17T06:08:00Z</time>
  <speed>1.970000</speed>
</trkpt>
<trkpt lat="32.744747162" lon="35.054248810">
  <ele>441.307129</ele>
  <time>2011-06-17T06:08:02Z</time>
  <speed>2.610000</speed>
</trkpt>
<trkpt lat="32.744712830" lon="35.054290771">
  <ele>441.611816</ele>
  <time>2011-06-17T06:08:04Z</time>
  <speed>3.130000</speed>
</trkpt>
<trkpt lat="32.744693756" lon="35.054313660">
  <ele>441.252441</ele>
  <time>2011-06-17T06:08:05Z</time>
  <speed>3.380000</speed>
</trkpt>
<trkpt lat="32.744667053" lon="35.054340363">
  <ele>441.049316</ele>
  <time>2011-06-17T06:08:06Z</time>
  <speed>3.920000</speed>
</trkpt>
<trkpt lat="32.744640350" lon="35.054367065">
  <ele>441.088379</ele>
  <time>2011-06-17T06:08:07Z</time>
  <speed>3.940000</speed>
</trkpt>
<trkpt lat="32.744609833" lon="35.054397583">
  <ele>440.635254</ele>
  <time>2011-06-17T06:08:08Z</time>
  <speed>4.060000</speed>
</trkpt>
<trkpt lat="32.744579315" lon="35.054416656">
  <ele>440.424316</ele>
  <time>2011-06-17T06:08:09Z</time>
  <speed>4.190000</speed>
</trkpt>
<trkpt lat="32.744548798" lon="35.054443359">
  <ele>440.088379</ele>
  <time>2011-06-17T06:08:10Z</time>
  <speed>3.970000</speed>
</trkpt>
<trkpt lat="32.744522095" lon="35.054462433">
  <ele>439.807129</ele>
  <time>2011-06-17T06:08:11Z</time>
  <speed>3.140000</speed>
</trkpt>
<trkpt lat="32.744495392" lon="35.054477692">
  <ele>439.471191</ele>
  <time>2011-06-17T06:08:12Z</time>
  <speed>2.980000</speed>
</trkpt>
<trkpt lat="32.744461060" lon="35.054504395">
  <ele>438.994629</ele>
  <time>2011-06-17T06:08:13Z</time>
  <speed>2.920000</speed>
</trkpt>
<trkpt lat="32.744438171" lon="35.054523468">
  <ele>438.697754</ele>
  <time>2011-06-17T06:08:14Z</time>
  <speed>3.340000</speed>
</trkpt>
<trkpt lat="32.744411469" lon="35.054538727">
  <ele>438.416504</ele>
  <time>2011-06-17T06:08:15Z</time>
  <speed>2.980000</speed>
</trkpt>
<trkpt lat="32.744369507" lon="35.054580688">
  <ele>438.596191</ele>
  <time>2011-06-17T06:08:17Z</time>
  <speed>2.330000</speed>
</trkpt>
<trkpt lat="32.744331360" lon="35.054592133">
  <ele>438.158691</ele>
  <time>2011-06-17T06:08:18Z</time>
  <speed>2.840000</speed>
</trkpt>
<trkpt lat="32.744308472" lon="35.054634094">
  <ele>437.846191</ele>
  <time>2011-06-17T06:08:20Z</time>
  <speed>1.600000</speed>
</trkpt>
<trkpt lat="32.744258881" lon="35.054656982">
  <ele>437.135254</ele>
  <time>2011-06-17T06:08:23Z</time>
  <speed>2.370000</speed>
</trkpt>
<trkpt lat="32.744213104" lon="35.054683685">
  <ele>436.963379</ele>
  <time>2011-06-17T06:08:25Z</time>
  <speed>2.210000</speed>
</trkpt>
<trkpt lat="32.744174957" lon="35.054702759">
  <ele>436.252441</ele>
  <time>2011-06-17T06:08:27Z</time>
  <speed>1.920000</speed>
</trkpt>
<trkpt lat="32.744152069" lon="35.054710388">
  <ele>437.643066</ele>
  <time>2011-06-17T06:08:28Z</time>
  <speed>1.900000</speed>
</trkpt>
<trkpt lat="32.744125366" lon="35.054748535">
  <ele>437.963379</ele>
  <time>2011-06-17T06:08:30Z</time>
  <speed>1.590000</speed>
</trkpt>
<trkpt lat="32.744083405" lon="35.054775238">
  <ele>437.244629</ele>
  <time>2011-06-17T06:08:32Z</time>
  <speed>2.050000</speed>
</trkpt>
<trkpt lat="32.744052887" lon="35.054790497">
  <ele>436.697754</ele>
  <time>2011-06-17T06:08:33Z</time>
  <speed>2.760000</speed>
</trkpt>
<trkpt lat="32.744014740" lon="35.054817200">
  <ele>436.096191</ele>
  <time>2011-06-17T06:08:35Z</time>
  <speed>1.820000</speed>
</trkpt>
<trkpt lat="32.743984222" lon="35.054840088">
  <ele>436.400879</ele>
  <time>2011-06-17T06:08:37Z</time>
  <speed>1.620000</speed>
</trkpt>
<trkpt lat="32.743946075" lon="35.054859161">
  <ele>436.588379</ele>
  <time>2011-06-17T06:08:39Z</time>
  <speed>2.400000</speed>
</trkpt>
<trkpt lat="32.743919373" lon="35.054874420">
  <ele>436.627441</ele>
  <time>2011-06-17T06:08:40Z</time>
  <speed>2.200000</speed>
</trkpt>
<trkpt lat="32.743877411" lon="35.054904938">
  <ele>436.049316</ele>
  <time>2011-06-17T06:08:42Z</time>
  <speed>1.610000</speed>
</trkpt>
<trkpt lat="32.743854523" lon="35.054935455">
  <ele>435.354004</ele>
  <time>2011-06-17T06:08:44Z</time>
  <speed>2.460000</speed>
</trkpt>
<trkpt lat="32.743827820" lon="35.054958344">
  <ele>434.791504</ele>
  <time>2011-06-17T06:08:45Z</time>
  <speed>2.940000</speed>
</trkpt>
<trkpt lat="32.743804932" lon="35.054981232">
  <ele>434.885254</ele>
  <time>2011-06-17T06:08:46Z</time>
  <speed>2.610000</speed>
</trkpt>
<trkpt lat="32.743782043" lon="35.055034637">
  <ele>434.760254</ele>
  <time>2011-06-17T06:08:48Z</time>
  <speed>1.830000</speed>
</trkpt>
<trkpt lat="32.743743896" lon="35.055068970">
  <ele>434.314941</ele>
  <time>2011-06-17T06:08:50Z</time>
  <speed>1.630000</speed>
</trkpt>
<trkpt lat="32.743713379" lon="35.055095673">
  <ele>434.580566</ele>
  <time>2011-06-17T06:08:52Z</time>
  <speed>2.350000</speed>
</trkpt>
<trkpt lat="32.743675232" lon="35.055122375">
  <ele>434.604004</ele>
  <time>2011-06-17T06:08:54Z</time>
  <speed>1.910000</speed>
</trkpt>
<trkpt lat="32.743633270" lon="35.055141449">
  <ele>433.861816</ele>
  <time>2011-06-17T06:08:56Z</time>
  <speed>2.170000</speed>
</trkpt>
<trkpt lat="32.743595123" lon="35.055156708">
  <ele>433.807129</ele>
  <time>2011-06-17T06:08:58Z</time>
  <speed>1.650000</speed>
</trkpt>
<trkpt lat="32.743541718" lon="35.055183411">
  <ele>435.916504</ele>
  <time>2011-06-17T06:09:00Z</time>
  <speed>1.750000</speed>
</trkpt>
<trkpt lat="32.743492126" lon="35.055198669">
  <ele>435.775879</ele>
  <time>2011-06-17T06:09:02Z</time>
  <speed>2.620000</speed>
</trkpt>
<trkpt lat="32.743446350" lon="35.055225372">
  <ele>435.580566</ele>
  <time>2011-06-17T06:09:04Z</time>
  <speed>2.960000</speed>
</trkpt>
<trkpt lat="32.743423462" lon="35.055248260">
  <ele>435.541504</ele>
  <time>2011-06-17T06:09:05Z</time>
  <speed>2.480000</speed>
</trkpt>
<trkpt lat="32.743370056" lon="35.055290222">
  <ele>437.666504</ele>
  <time>2011-06-17T06:09:07Z</time>
  <speed>3.330000</speed>
</trkpt>
<trkpt lat="32.743347168" lon="35.055320740">
  <ele>437.572754</ele>
  <time>2011-06-17T06:09:08Z</time>
  <speed>3.440000</speed>
</trkpt>
<trkpt lat="32.743328094" lon="35.055362701">
  <ele>438.189941</ele>
  <time>2011-06-17T06:09:09Z</time>
  <speed>4.100000</speed>
</trkpt>
<trkpt lat="32.743301392" lon="35.055404663">
  <ele>438.900879</ele>
  <time>2011-06-17T06:09:10Z</time>
  <speed>4.750000</speed>
</trkpt>
<trkpt lat="32.743263245" lon="35.055435181">
  <ele>439.846191</ele>
  <time>2011-06-17T06:09:11Z</time>
  <speed>4.510000</speed>
</trkpt>
<trkpt lat="32.743225098" lon="35.055446625">
  <ele>440.268066</ele>
  <time>2011-06-17T06:09:12Z</time>
  <speed>3.650000</speed>
</trkpt>
<trkpt lat="32.743190765" lon="35.055446625">
  <ele>442.072754</ele>
  <time>2011-06-17T06:09:13Z</time>
  <speed>3.150000</speed>
</trkpt>
<trkpt lat="32.743160248" lon="35.055454254">
  <ele>442.643066</ele>
  <time>2011-06-17T06:09:14Z</time>
  <speed>2.380000</speed>
</trkpt>
<trkpt lat="32.743144989" lon="35.055473328">
  <ele>444.518066</ele>
  <time>2011-06-17T06:09:15Z</time>
  <speed>1.750000</speed>
</trkpt>
<trkpt lat="32.743118286" lon="35.055492401">
  <ele>446.885254</ele>
  <time>2011-06-17T06:09:16Z</time>
  <speed>1.170000</speed>
</trkpt>
<trkpt lat="32.743083954" lon="35.055519104">
  <ele>449.713379</ele>
  <time>2011-06-17T06:09:18Z</time>
  <speed>1.430000</speed>
</trkpt>
<trkpt lat="32.743110657" lon="35.055500031">
  <ele>451.650879</ele>
  <time>2011-06-17T06:09:22Z</time>
  <speed>1.510000</speed>
</trkpt>
<trkpt lat="32.743137360" lon="35.055496216">
  <ele>452.893066</ele>
  <time>2011-06-17T06:09:24Z</time>
  <speed>1.980000</speed>
</trkpt>
<trkpt lat="32.743175507" lon="35.055488586">
  <ele>454.322754</ele>
  <time>2011-06-17T06:09:26Z</time>
  <speed>1.530000</speed>
</trkpt>
<trkpt lat="32.743198395" lon="35.055469513">
  <ele>455.502441</ele>
  <time>2011-06-17T06:09:28Z</time>
  <speed>1.730000</speed>
</trkpt>
<trkpt lat="32.743221283" lon="35.055435181">
  <ele>455.744629</ele>
  <time>2011-06-17T06:09:30Z</time>
  <speed>1.700000</speed>
</trkpt>
<trkpt lat="32.743244171" lon="35.055404663">
  <ele>456.541504</ele>
  <time>2011-06-17T06:09:32Z</time>
  <speed>1.870000</speed>
</trkpt>
<trkpt lat="32.743274689" lon="35.055381775">
  <ele>456.775879</ele>
  <time>2011-06-17T06:09:34Z</time>
  <speed>1.460000</speed>
</trkpt>
<trkpt lat="32.743305206" lon="35.055370331">
  <ele>457.135254</ele>
  <time>2011-06-17T06:09:35Z</time>
  <speed>1.700000</speed>
</trkpt>
<trkpt lat="32.743324280" lon="35.055339813">
  <ele>457.471191</ele>
  <time>2011-06-17T06:09:37Z</time>
  <speed>1.400000</speed>
</trkpt>
<trkpt lat="32.743347168" lon="35.055316925">
  <ele>458.338379</ele>
  <time>2011-06-17T06:09:39Z</time>
  <speed>1.240000</speed>
</trkpt>
<trkpt lat="32.743373871" lon="35.055290222">
  <ele>459.486816</ele>
  <time>2011-06-17T06:09:42Z</time>
  <speed>1.190000</speed>
</trkpt>
<trkpt lat="32.743396759" lon="35.055252075">
  <ele>460.846191</ele>
  <time>2011-06-17T06:09:45Z</time>
  <speed>1.330000</speed>
</trkpt>
<trkpt lat="32.743415833" lon="35.055229187">
  <ele>461.557129</ele>
  <time>2011-06-17T06:09:47Z</time>
  <speed>1.320000</speed>
</trkpt>
<trkpt lat="32.743434906" lon="35.055206299">
  <ele>462.682129</ele>
  <time>2011-06-17T06:09:49Z</time>
  <speed>1.350000</speed>
</trkpt>
<trkpt lat="32.743461609" lon="35.055187225">
  <ele>463.275879</ele>
  <time>2011-06-17T06:09:51Z</time>
  <speed>1.350000</speed>
</trkpt>
<trkpt lat="32.743476868" lon="35.055160522">
  <ele>464.338379</ele>
  <time>2011-06-17T06:09:53Z</time>
  <speed>1.530000</speed>
</trkpt>
<trkpt lat="32.743495941" lon="35.055126190">
  <ele>464.541504</ele>
  <time>2011-06-17T06:09:55Z</time>
  <speed>1.560000</speed>
</trkpt>
<trkpt lat="32.743518829" lon="35.055099487">
  <ele>465.447754</ele>
  <time>2011-06-17T06:09:57Z</time>
  <speed>1.510000</speed>
</trkpt>
<trkpt lat="32.743553162" lon="35.055057526">
  <ele>467.033691</ele>
  <time>2011-06-17T06:09:59Z</time>
  <speed>1.690000</speed>
</trkpt>
<trkpt lat="32.743572235" lon="35.055030823">
  <ele>467.564941</ele>
  <time>2011-06-17T06:10:01Z</time>
  <speed>1.660000</speed>
</trkpt>
<trkpt lat="32.743583679" lon="35.054992676">
  <ele>467.994629</ele>
  <time>2011-06-17T06:10:03Z</time>
  <speed>1.720000</speed>
</trkpt>
<trkpt lat="32.743587494" lon="35.054946899">
  <ele>468.861816</ele>
  <time>2011-06-17T06:10:05Z</time>
  <speed>1.510000</speed>
</trkpt>
<trkpt lat="32.743602753" lon="35.054916382">
  <ele>469.299316</ele>
  <time>2011-06-17T06:10:07Z</time>
  <speed>1.560000</speed>
</trkpt>
<trkpt lat="32.743621826" lon="35.054885864">
  <ele>470.541504</ele>
  <time>2011-06-17T06:10:09Z</time>
  <speed>1.450000</speed>
</trkpt>
<trkpt lat="32.743644714" lon="35.054847717">
  <ele>471.197754</ele>
  <time>2011-06-17T06:10:12Z</time>
  <speed>1.530000</speed>
</trkpt>
<trkpt lat="32.743659973" lon="35.054817200">
  <ele>471.135254</ele>
  <time>2011-06-17T06:10:14Z</time>
  <speed>1.450000</speed>
</trkpt>
<trkpt lat="32.743671417" lon="35.054786682">
  <ele>471.541504</ele>
  <time>2011-06-17T06:10:16Z</time>
  <speed>1.680000</speed>
</trkpt>
<trkpt lat="32.743701935" lon="35.054779053">
  <ele>471.830566</ele>
  <time>2011-06-17T06:10:18Z</time>
  <speed>1.360000</speed>
</trkpt>
<trkpt lat="32.743717194" lon="35.054740906">
  <ele>471.229004</ele>
  <time>2011-06-17T06:10:21Z</time>
  <speed>1.490000</speed>
</trkpt>
<trkpt lat="32.743732452" lon="35.054710388">
  <ele>470.752441</ele>
  <time>2011-06-17T06:10:23Z</time>
  <speed>1.390000</speed>
</trkpt>
<trkpt lat="32.743747711" lon="35.054676056">
  <ele>470.525879</ele>
  <time>2011-06-17T06:10:26Z</time>
  <speed>1.390000</speed>
</trkpt>
<trkpt lat="32.743762970" lon="35.054630280">
  <ele>470.791504</ele>
  <time>2011-06-17T06:10:29Z</time>
  <speed>1.320000</speed>
</trkpt>
<trkpt lat="32.743782043" lon="35.054603577">
  <ele>471.166504</ele>
  <time>2011-06-17T06:10:30Z</time>
  <speed>1.720000</speed>
</trkpt>
<trkpt lat="32.743808746" lon="35.054576874">
  <ele>471.541504</ele>
  <time>2011-06-17T06:10:33Z</time>
  <speed>1.420000</speed>
</trkpt>
<trkpt lat="32.743816376" lon="35.054538727">
  <ele>471.791504</ele>
  <time>2011-06-17T06:10:35Z</time>
  <speed>1.310000</speed>
</trkpt>
<trkpt lat="32.743831635" lon="35.054512024">
  <ele>471.955566</ele>
  <time>2011-06-17T06:10:37Z</time>
  <speed>1.190000</speed>
</trkpt>
<trkpt lat="32.743835449" lon="35.054481506">
  <ele>471.885254</ele>
  <time>2011-06-17T06:10:39Z</time>
  <speed>1.110000</speed>
</trkpt>
<trkpt lat="32.743850708" lon="35.054450989">
  <ele>471.994629</ele>
  <time>2011-06-17T06:10:41Z</time>
  <speed>1.490000</speed>
</trkpt>
<trkpt lat="32.743865967" lon="35.054416656">
  <ele>472.408691</ele>
  <time>2011-06-17T06:10:43Z</time>
  <speed>1.600000</speed>
</trkpt>
<trkpt lat="32.743877411" lon="35.054378510">
  <ele>473.369629</ele>
  <time>2011-06-17T06:10:45Z</time>
  <speed>1.860000</speed>
</trkpt>
<trkpt lat="32.743892670" lon="35.054351807">
  <ele>473.760254</ele>
  <time>2011-06-17T06:10:47Z</time>
  <speed>1.510000</speed>
</trkpt>
<trkpt lat="32.743907928" lon="35.054325104">
  <ele>473.791504</ele>
  <time>2011-06-17T06:10:49Z</time>
  <speed>1.790000</speed>
</trkpt>
<trkpt lat="32.743927002" lon="35.054290771">
  <ele>473.658691</ele>
  <time>2011-06-17T06:10:51Z</time>
  <speed>1.800000</speed>
</trkpt>
<trkpt lat="32.743946075" lon="35.054260254">
  <ele>473.268066</ele>
  <time>2011-06-17T06:10:53Z</time>
  <speed>1.610000</speed>
</trkpt>
<trkpt lat="32.743949890" lon="35.054214478">
  <ele>473.252441</ele>
  <time>2011-06-17T06:10:55Z</time>
  <speed>1.540000</speed>
</trkpt>
<trkpt lat="32.743953705" lon="35.054172516">
  <ele>473.260254</ele>
  <time>2011-06-17T06:10:57Z</time>
  <speed>1.560000</speed>
</trkpt>
<trkpt lat="32.743972778" lon="35.054130554">
  <ele>474.002441</ele>
  <time>2011-06-17T06:11:00Z</time>
  <speed>1.330000</speed>
</trkpt>
<trkpt lat="32.743995667" lon="35.054100037">
  <ele>474.666504</ele>
  <time>2011-06-17T06:11:02Z</time>
  <speed>1.850000</speed>
</trkpt>
<trkpt lat="32.744007111" lon="35.054054260">
  <ele>475.580566</ele>
  <time>2011-06-17T06:11:05Z</time>
  <speed>1.650000</speed>
</trkpt>
<trkpt lat="32.744010925" lon="35.054019928">
  <ele>476.174316</ele>
  <time>2011-06-17T06:11:07Z</time>
  <speed>1.440000</speed>
</trkpt>
<trkpt lat="32.744022369" lon="35.053970337">
  <ele>475.338379</ele>
  <time>2011-06-17T06:11:10Z</time>
  <speed>1.570000</speed>
</trkpt>
<trkpt lat="32.744041443" lon="35.053928375">
  <ele>475.307129</ele>
  <time>2011-06-17T06:11:12Z</time>
  <speed>1.830000</speed>
</trkpt>
<trkpt lat="32.744060516" lon="35.053890228">
  <ele>474.869629</ele>
  <time>2011-06-17T06:11:14Z</time>
  <speed>1.980000</speed>
</trkpt>
<trkpt lat="32.744075775" lon="35.053855896">
  <ele>474.900879</ele>
  <time>2011-06-17T06:11:16Z</time>
  <speed>1.830000</speed>
</trkpt>
<trkpt lat="32.744087219" lon="35.053821564">
  <ele>475.064941</ele>
  <time>2011-06-17T06:11:18Z</time>
  <speed>1.670000</speed>
</trkpt>
<trkpt lat="32.744106293" lon="35.053779602">
  <ele>475.229004</ele>
  <time>2011-06-17T06:11:20Z</time>
  <speed>1.870000</speed>
</trkpt>
<trkpt lat="32.744117737" lon="35.053737640">
  <ele>474.963379</ele>
  <time>2011-06-17T06:11:23Z</time>
  <speed>1.170000</speed>
</trkpt>
<trkpt lat="32.744117737" lon="35.053695679">
  <ele>474.885254</ele>
  <time>2011-06-17T06:11:25Z</time>
  <speed>1.220000</speed>
</trkpt>
<trkpt lat="32.744117737" lon="35.053661346">
  <ele>474.518066</ele>
  <time>2011-06-17T06:11:27Z</time>
  <speed>1.490000</speed>
</trkpt>
<trkpt lat="32.744117737" lon="35.053623199">
  <ele>474.143066</ele>
  <time>2011-06-17T06:11:29Z</time>
  <speed>1.800000</speed>
</trkpt>
<trkpt lat="32.744113922" lon="35.053581238">
  <ele>474.393066</ele>
  <time>2011-06-17T06:11:32Z</time>
  <speed>1.110000</speed>
</trkpt>
<trkpt lat="32.744106293" lon="35.053546906">
  <ele>474.963379</ele>
  <time>2011-06-17T06:11:34Z</time>
  <speed>1.530000</speed>
</trkpt>
<trkpt lat="32.744087219" lon="35.053512573">
  <ele>475.057129</ele>
  <time>2011-06-17T06:11:36Z</time>
  <speed>0.960000</speed>
</trkpt>
<trkpt lat="32.744079590" lon="35.053485870">
  <ele>477.322754</ele>
  <time>2011-06-17T06:11:37Z</time>
  <speed>0.970000</speed>
</trkpt>
<trkpt lat="32.744083405" lon="35.053440094">
  <ele>476.721191</ele>
  <time>2011-06-17T06:11:39Z</time>
  <speed>1.700000</speed>
</trkpt>
<trkpt lat="32.744079590" lon="35.053390503">
  <ele>476.416504</ele>
  <time>2011-06-17T06:11:42Z</time>
  <speed>1.380000</speed>
</trkpt>
<trkpt lat="32.744075775" lon="35.053344727">
  <ele>476.549316</ele>
  <time>2011-06-17T06:11:45Z</time>
  <speed>1.500000</speed>
</trkpt>
<trkpt lat="32.744075775" lon="35.053291321">
  <ele>476.814941</ele>
  <time>2011-06-17T06:11:48Z</time>
  <speed>1.550000</speed>
</trkpt>
<trkpt lat="32.744068146" lon="35.053245544">
  <ele>477.588379</ele>
  <time>2011-06-17T06:11:50Z</time>
  <speed>1.560000</speed>
</trkpt>
<trkpt lat="32.744075775" lon="35.053211212">
  <ele>477.588379</ele>
  <time>2011-06-17T06:11:52Z</time>
  <speed>1.690000</speed>
</trkpt>
<trkpt lat="32.744083405" lon="35.053161621">
  <ele>478.166504</ele>
  <time>2011-06-17T06:11:54Z</time>
  <speed>1.690000</speed>
</trkpt>
<trkpt lat="32.744075775" lon="35.053127289">
  <ele>478.588379</ele>
  <time>2011-06-17T06:11:56Z</time>
  <speed>1.570000</speed>
</trkpt>
<trkpt lat="32.744083405" lon="35.053089142">
  <ele>478.330566</ele>
  <time>2011-06-17T06:11:58Z</time>
  <speed>1.630000</speed>
</trkpt>
<trkpt lat="32.744071960" lon="35.053054810">
  <ele>478.486816</ele>
  <time>2011-06-17T06:12:00Z</time>
  <speed>1.590000</speed>
</trkpt>
<trkpt lat="32.744064331" lon="35.053012848">
  <ele>479.049316</ele>
  <time>2011-06-17T06:12:02Z</time>
  <speed>1.940000</speed>
</trkpt>
<trkpt lat="32.744064331" lon="35.052978516">
  <ele>479.439941</ele>
  <time>2011-06-17T06:12:04Z</time>
  <speed>1.730000</speed>
</trkpt>
<trkpt lat="32.744060516" lon="35.052932739">
  <ele>479.275879</ele>
  <time>2011-06-17T06:12:06Z</time>
  <speed>1.700000</speed>
</trkpt>
<trkpt lat="32.744064331" lon="35.052898407">
  <ele>478.947754</ele>
  <time>2011-06-17T06:12:08Z</time>
  <speed>1.670000</speed>
</trkpt>
<trkpt lat="32.744060516" lon="35.052864075">
  <ele>479.283691</ele>
  <time>2011-06-17T06:12:10Z</time>
  <speed>1.820000</speed>
</trkpt>
<trkpt lat="32.744068146" lon="35.052818298">
  <ele>480.127441</ele>
  <time>2011-06-17T06:12:13Z</time>
  <speed>1.810000</speed>
</trkpt>
<trkpt lat="32.744068146" lon="35.052787781">
  <ele>479.088379</ele>
  <time>2011-06-17T06:12:15Z</time>
  <speed>1.420000</speed>
</trkpt>
<trkpt lat="32.744068146" lon="35.052734375">
  <ele>479.291504</ele>
  <time>2011-06-17T06:12:18Z</time>
  <speed>1.490000</speed>
</trkpt>
<trkpt lat="32.744045258" lon="35.052688599">
  <ele>480.229004</ele>
  <time>2011-06-17T06:12:20Z</time>
  <speed>1.470000</speed>
</trkpt>
<trkpt lat="32.744022369" lon="35.052661896">
  <ele>480.650879</ele>
  <time>2011-06-17T06:12:22Z</time>
  <speed>1.390000</speed>
</trkpt>
<trkpt lat="32.743988037" lon="35.052642822">
  <ele>481.033691</ele>
  <time>2011-06-17T06:12:25Z</time>
  <speed>1.570000</speed>
</trkpt>
<trkpt lat="32.743949890" lon="35.052631378">
  <ele>481.854004</ele>
  <time>2011-06-17T06:12:27Z</time>
  <speed>1.770000</speed>
</trkpt>
<trkpt lat="32.743919373" lon="35.052616119">
  <ele>482.611816</ele>
  <time>2011-06-17T06:12:29Z</time>
  <speed>1.600000</speed>
</trkpt>
<trkpt lat="32.743881226" lon="35.052597046">
  <ele>484.307129</ele>
  <time>2011-06-17T06:12:31Z</time>
  <speed>1.680000</speed>
</trkpt>
<trkpt lat="32.743858337" lon="35.052608490">
  <ele>485.666504</ele>
  <time>2011-06-17T06:12:32Z</time>
  <speed>1.740000</speed>
</trkpt>
<trkpt lat="32.743820190" lon="35.052604675">
  <ele>487.229004</ele>
  <time>2011-06-17T06:12:34Z</time>
  <speed>1.240000</speed>
</trkpt>
<trkpt lat="32.743797302" lon="35.052581787">
  <ele>487.393066</ele>
  <time>2011-06-17T06:12:36Z</time>
  <speed>1.430000</speed>
</trkpt>
<trkpt lat="32.743766785" lon="35.052562714">
  <ele>487.658691</ele>
  <time>2011-06-17T06:12:38Z</time>
  <speed>1.770000</speed>
</trkpt>
<trkpt lat="32.743740082" lon="35.052547455">
  <ele>487.893066</ele>
  <time>2011-06-17T06:12:40Z</time>
  <speed>1.800000</speed>
</trkpt>
<trkpt lat="32.743701935" lon="35.052555084">
  <ele>489.330566</ele>
  <time>2011-06-17T06:12:42Z</time>
  <speed>1.580000</speed>
</trkpt>
<trkpt lat="32.743663788" lon="35.052547455">
  <ele>490.072754</ele>
  <time>2011-06-17T06:12:44Z</time>
  <speed>1.670000</speed>
</trkpt>
<trkpt lat="32.743633270" lon="35.052547455">
  <ele>489.885254</ele>
  <time>2011-06-17T06:12:46Z</time>
  <speed>1.280000</speed>
</trkpt>
<trkpt lat="32.743595123" lon="35.052547455">
  <ele>490.736816</ele>
  <time>2011-06-17T06:12:49Z</time>
  <speed>1.840000</speed>
</trkpt>
<trkpt lat="32.743568420" lon="35.052536011">
  <ele>491.283691</ele>
  <time>2011-06-17T06:12:51Z</time>
  <speed>1.570000</speed>
</trkpt>
<trkpt lat="32.743537903" lon="35.052528381">
  <ele>491.447754</ele>
  <time>2011-06-17T06:12:53Z</time>
  <speed>1.220000</speed>
</trkpt>
<trkpt lat="32.743511200" lon="35.052528381">
  <ele>491.744629</ele>
  <time>2011-06-17T06:12:55Z</time>
  <speed>1.610000</speed>
</trkpt>
<trkpt lat="32.743469238" lon="35.052528381">
  <ele>491.580566</ele>
  <time>2011-06-17T06:12:57Z</time>
  <speed>1.860000</speed>
</trkpt>
<trkpt lat="32.743438721" lon="35.052528381">
  <ele>491.658691</ele>
  <time>2011-06-17T06:12:59Z</time>
  <speed>1.910000</speed>
</trkpt>
<trkpt lat="32.743408203" lon="35.052516937">
  <ele>491.635254</ele>
  <time>2011-06-17T06:13:01Z</time>
  <speed>1.710000</speed>
</trkpt>
<trkpt lat="32.743377686" lon="35.052509308">
  <ele>491.893066</ele>
  <time>2011-06-17T06:13:03Z</time>
  <speed>1.560000</speed>
</trkpt>
<trkpt lat="32.743343353" lon="35.052516937">
  <ele>492.354004</ele>
  <time>2011-06-17T06:13:06Z</time>
  <speed>1.070000</speed>
</trkpt>
<trkpt lat="32.743309021" lon="35.052536011">
  <ele>492.189941</ele>
  <time>2011-06-17T06:13:08Z</time>
  <speed>1.810000</speed>
</trkpt>
<trkpt lat="32.743278503" lon="35.052536011">
  <ele>492.221191</ele>
  <time>2011-06-17T06:13:10Z</time>
  <speed>1.430000</speed>
</trkpt>
<trkpt lat="32.743251801" lon="35.052536011">
  <ele>492.432129</ele>
  <time>2011-06-17T06:13:12Z</time>
  <speed>1.180000</speed>
</trkpt>
<trkpt lat="32.743221283" lon="35.052543640">
  <ele>492.689941</ele>
  <time>2011-06-17T06:13:14Z</time>
  <speed>1.200000</speed>
</trkpt>
<trkpt lat="32.743183136" lon="35.052558899">
  <ele>492.682129</ele>
  <time>2011-06-17T06:13:17Z</time>
  <speed>1.370000</speed>
</trkpt>
<trkpt lat="32.743160248" lon="35.052577972">
  <ele>492.869629</ele>
  <time>2011-06-17T06:13:18Z</time>
  <speed>0.910000</speed>
</trkpt>
<trkpt lat="32.743133545" lon="35.052570343">
  <ele>493.385254</ele>
  <time>2011-06-17T06:13:20Z</time>
  <speed>0.810000</speed>
</trkpt>
<trkpt lat="32.743099213" lon="35.052558899">
  <ele>494.814941</ele>
  <time>2011-06-17T06:13:22Z</time>
  <speed>0.880000</speed>
</trkpt>
<trkpt lat="32.743057251" lon="35.052555084">
  <ele>494.971191</ele>
  <time>2011-06-17T06:13:25Z</time>
  <speed>1.390000</speed>
</trkpt>
<trkpt lat="32.743034363" lon="35.052536011">
  <ele>495.080566</ele>
  <time>2011-06-17T06:13:27Z</time>
  <speed>1.380000</speed>
</trkpt>
<trkpt lat="32.743007660" lon="35.052524567">
  <ele>495.814941</ele>
  <time>2011-06-17T06:13:29Z</time>
  <speed>1.480000</speed>
</trkpt>
<trkpt lat="32.742980957" lon="35.052528381">
  <ele>495.830566</ele>
  <time>2011-06-17T06:13:31Z</time>
  <speed>1.510000</speed>
</trkpt>
<trkpt lat="32.742942810" lon="35.052536011">
  <ele>496.783691</ele>
  <time>2011-06-17T06:13:34Z</time>
  <speed>0.950000</speed>
</trkpt>
<trkpt lat="32.742904663" lon="35.052543640">
  <ele>496.783691</ele>
  <time>2011-06-17T06:13:37Z</time>
  <speed>1.430000</speed>
</trkpt>
<trkpt lat="32.742874146" lon="35.052539825">
  <ele>497.252441</ele>
  <time>2011-06-17T06:13:39Z</time>
  <speed>1.240000</speed>
</trkpt>
<trkpt lat="32.742839813" lon="35.052547455">
  <ele>497.674316</ele>
  <time>2011-06-17T06:13:41Z</time>
  <speed>1.480000</speed>
</trkpt>
<trkpt lat="32.742816925" lon="35.052570343">
  <ele>496.900879</ele>
  <time>2011-06-17T06:13:44Z</time>
  <speed>1.510000</speed>
</trkpt>
<trkpt lat="32.742790222" lon="35.052577972">
  <ele>496.307129</ele>
  <time>2011-06-17T06:13:46Z</time>
  <speed>1.540000</speed>
</trkpt>
<trkpt lat="32.742752075" lon="35.052581787">
  <ele>495.752441</ele>
  <time>2011-06-17T06:13:49Z</time>
  <speed>1.280000</speed>
</trkpt>
<trkpt lat="32.742725372" lon="35.052577972">
  <ele>496.166504</ele>
  <time>2011-06-17T06:13:51Z</time>
  <speed>1.390000</speed>
</trkpt>
<trkpt lat="32.742698669" lon="35.052574158">
  <ele>496.307129</ele>
  <time>2011-06-17T06:13:53Z</time>
  <speed>1.360000</speed>
</trkpt>
<trkpt lat="32.742664337" lon="35.052562714">
  <ele>496.408691</ele>
  <time>2011-06-17T06:13:55Z</time>
  <speed>1.380000</speed>
</trkpt>
<trkpt lat="32.742637634" lon="35.052589417">
  <ele>496.018066</ele>
  <time>2011-06-17T06:13:58Z</time>
  <speed>1.400000</speed>
</trkpt>
<trkpt lat="32.742607117" lon="35.052593231">
  <ele>496.408691</ele>
  <time>2011-06-17T06:14:01Z</time>
  <speed>1.080000</speed>
</trkpt>
<trkpt lat="32.742568970" lon="35.052593231">
  <ele>496.564941</ele>
  <time>2011-06-17T06:14:04Z</time>
  <speed>1.240000</speed>
</trkpt>
<trkpt lat="32.742527008" lon="35.052585602">
  <ele>498.393066</ele>
  <time>2011-06-17T06:14:06Z</time>
  <speed>1.600000</speed>
</trkpt>
<trkpt lat="32.742492676" lon="35.052570343">
  <ele>498.791504</ele>
  <time>2011-06-17T06:14:08Z</time>
  <speed>1.700000</speed>
</trkpt>
<trkpt lat="32.742454529" lon="35.052551270">
  <ele>499.018066</ele>
  <time>2011-06-17T06:14:10Z</time>
  <speed>1.870000</speed>
</trkpt>
<trkpt lat="32.742427826" lon="35.052528381">
  <ele>498.854004</ele>
  <time>2011-06-17T06:14:12Z</time>
  <speed>1.740000</speed>
</trkpt>
<trkpt lat="32.742401123" lon="35.052520752">
  <ele>499.033691</ele>
  <time>2011-06-17T06:14:14Z</time>
  <speed>1.440000</speed>
</trkpt>
<trkpt lat="32.742359161" lon="35.052509308">
  <ele>499.604004</ele>
  <time>2011-06-17T06:14:17Z</time>
  <speed>1.860000</speed>
</trkpt>
<trkpt lat="32.742340088" lon="35.052490234">
  <ele>499.541504</ele>
  <time>2011-06-17T06:14:19Z</time>
  <speed>0.960000</speed>
</trkpt>
<trkpt lat="32.742309570" lon="35.052482605">
  <ele>500.104004</ele>
  <time>2011-06-17T06:14:22Z</time>
  <speed>1.410000</speed>
</trkpt>
<trkpt lat="32.742282867" lon="35.052478790">
  <ele>500.025879</ele>
  <time>2011-06-17T06:14:24Z</time>
  <speed>1.390000</speed>
</trkpt>
<trkpt lat="32.742240906" lon="35.052459717">
  <ele>499.604004</ele>
  <time>2011-06-17T06:14:26Z</time>
  <speed>1.370000</speed>
</trkpt>
<trkpt lat="32.742210388" lon="35.052459717">
  <ele>499.564941</ele>
  <time>2011-06-17T06:14:28Z</time>
  <speed>1.330000</speed>
</trkpt>
<trkpt lat="32.742183685" lon="35.052455902">
  <ele>499.854004</ele>
  <time>2011-06-17T06:14:30Z</time>
  <speed>1.360000</speed>
</trkpt>
<trkpt lat="32.742149353" lon="35.052436829">
  <ele>500.260254</ele>
  <time>2011-06-17T06:14:33Z</time>
  <speed>1.060000</speed>
</trkpt>
<trkpt lat="32.742103577" lon="35.052429199">
  <ele>501.729004</ele>
  <time>2011-06-17T06:14:35Z</time>
  <speed>1.010000</speed>
</trkpt>
<trkpt lat="32.742073059" lon="35.052421570">
  <ele>502.650879</ele>
  <time>2011-06-17T06:14:37Z</time>
  <speed>1.100000</speed>
</trkpt>
<trkpt lat="32.742053986" lon="35.052391052">
  <ele>503.393066</ele>
  <time>2011-06-17T06:14:39Z</time>
  <speed>1.280000</speed>
</trkpt>
<trkpt lat="32.742034912" lon="35.052352905">
  <ele>504.018066</ele>
  <time>2011-06-17T06:14:41Z</time>
  <speed>1.680000</speed>
</trkpt>
<trkpt lat="32.742004395" lon="35.052330017">
  <ele>504.564941</ele>
  <time>2011-06-17T06:14:43Z</time>
  <speed>1.270000</speed>
</trkpt>
<trkpt lat="32.741996765" lon="35.052284241">
  <ele>505.189941</ele>
  <time>2011-06-17T06:14:46Z</time>
  <speed>1.630000</speed>
</trkpt>
<trkpt lat="32.742012024" lon="35.052246094">
  <ele>504.783691</ele>
  <time>2011-06-17T06:14:48Z</time>
  <speed>1.200000</speed>
</trkpt>
<trkpt lat="32.742023468" lon="35.052211761">
  <ele>504.666504</ele>
  <time>2011-06-17T06:14:49Z</time>
  <speed>1.500000</speed>
</trkpt>
<trkpt lat="32.742050171" lon="35.052173615">
  <ele>504.064941</ele>
  <time>2011-06-17T06:14:52Z</time>
  <speed>1.500000</speed>
</trkpt>
<trkpt lat="32.742080688" lon="35.052150726">
  <ele>503.971191</ele>
  <time>2011-06-17T06:14:55Z</time>
  <speed>1.340000</speed>
</trkpt>
<trkpt lat="32.742107391" lon="35.052135468">
  <ele>503.658691</ele>
  <time>2011-06-17T06:14:57Z</time>
  <speed>1.250000</speed>
</trkpt>
<trkpt lat="32.742141724" lon="35.052108765">
  <ele>503.986816</ele>
  <time>2011-06-17T06:14:59Z</time>
  <speed>1.280000</speed>
</trkpt>
<trkpt lat="32.742156982" lon="35.052082062">
  <ele>503.666504</ele>
  <time>2011-06-17T06:15:01Z</time>
  <speed>1.220000</speed>
</trkpt>
<trkpt lat="32.742187500" lon="35.052062988">
  <ele>503.338379</ele>
  <time>2011-06-17T06:15:03Z</time>
  <speed>1.510000</speed>
</trkpt>
<trkpt lat="32.742210388" lon="35.052040100">
  <ele>502.947754</ele>
  <time>2011-06-17T06:15:05Z</time>
  <speed>1.290000</speed>
</trkpt>
<trkpt lat="32.742229462" lon="35.052013397">
  <ele>502.268066</ele>
  <time>2011-06-17T06:15:07Z</time>
  <speed>1.340000</speed>
</trkpt>
<trkpt lat="32.742256165" lon="35.051998138">
  <ele>502.088379</ele>
  <time>2011-06-17T06:15:09Z</time>
  <speed>0.990000</speed>
</trkpt>
<trkpt lat="32.742271423" lon="35.051963806">
  <ele>505.424316</ele>
  <time>2011-06-17T06:15:10Z</time>
  <speed>1.330000</speed>
</trkpt>
<trkpt lat="32.742298126" lon="35.051944733">
  <ele>505.408691</ele>
  <time>2011-06-17T06:15:12Z</time>
  <speed>1.280000</speed>
</trkpt>
<trkpt lat="32.742324829" lon="35.051929474">
  <ele>505.439941</ele>
  <time>2011-06-17T06:15:14Z</time>
  <speed>1.200000</speed>
</trkpt>
<trkpt lat="32.742355347" lon="35.051895142">
  <ele>505.588379</ele>
  <time>2011-06-17T06:15:16Z</time>
  <speed>1.580000</speed>
</trkpt>
<trkpt lat="32.742385864" lon="35.051868439">
  <ele>505.143066</ele>
  <time>2011-06-17T06:15:19Z</time>
  <speed>1.390000</speed>
</trkpt>
<trkpt lat="32.742408752" lon="35.051845551">
  <ele>505.111816</ele>
  <time>2011-06-17T06:15:21Z</time>
  <speed>1.350000</speed>
</trkpt>
<trkpt lat="32.742431641" lon="35.051822662">
  <ele>505.557129</ele>
  <time>2011-06-17T06:15:23Z</time>
  <speed>1.320000</speed>
</trkpt>
<trkpt lat="32.742462158" lon="35.051803589">
  <ele>505.041504</ele>
  <time>2011-06-17T06:15:25Z</time>
  <speed>1.700000</speed>
</trkpt>
<trkpt lat="32.742485046" lon="35.051788330">
  <ele>505.049316</ele>
  <time>2011-06-17T06:15:27Z</time>
  <speed>1.230000</speed>
</trkpt>
<trkpt lat="32.742515564" lon="35.051765442">
  <ele>504.729004</ele>
  <time>2011-06-17T06:15:29Z</time>
  <speed>1.610000</speed>
</trkpt>
<trkpt lat="32.742549896" lon="35.051750183">
  <ele>504.572754</ele>
  <time>2011-06-17T06:15:31Z</time>
  <speed>1.600000</speed>
</trkpt>
<trkpt lat="32.742580414" lon="35.051734924">
  <ele>504.408691</ele>
  <time>2011-06-17T06:15:33Z</time>
  <speed>1.080000</speed>
</trkpt>
<trkpt lat="32.742607117" lon="35.051692963">
  <ele>504.104004</ele>
  <time>2011-06-17T06:15:36Z</time>
  <speed>1.300000</speed>
</trkpt>
<trkpt lat="32.742618561" lon="35.051658630">
  <ele>503.877441</ele>
  <time>2011-06-17T06:15:38Z</time>
  <speed>1.450000</speed>
</trkpt>
<trkpt lat="32.742626190" lon="35.051624298">
  <ele>503.924316</ele>
  <time>2011-06-17T06:15:40Z</time>
  <speed>1.340000</speed>
</trkpt>
<trkpt lat="32.742645264" lon="35.051574707">
  <ele>505.854004</ele>
  <time>2011-06-17T06:15:42Z</time>
  <speed>1.400000</speed>
</trkpt>
<trkpt lat="32.742652893" lon="35.051540375">
  <ele>506.283691</ele>
  <time>2011-06-17T06:15:43Z</time>
  <speed>1.580000</speed>
</trkpt>
<trkpt lat="32.742652893" lon="35.051509857">
  <ele>507.314941</ele>
  <time>2011-06-17T06:15:44Z</time>
  <speed>1.820000</speed>
</trkpt>
<trkpt lat="32.742645264" lon="35.051467896">
  <ele>507.635254</ele>
  <time>2011-06-17T06:15:46Z</time>
  <speed>1.550000</speed>
</trkpt>
<trkpt lat="32.742630005" lon="35.051433563">
  <ele>507.432129</ele>
  <time>2011-06-17T06:15:49Z</time>
  <speed>1.700000</speed>
</trkpt>
<trkpt lat="32.742614746" lon="35.051403046">
  <ele>507.682129</ele>
  <time>2011-06-17T06:15:51Z</time>
  <speed>1.400000</speed>
</trkpt>
<trkpt lat="32.742584229" lon="35.051380157">
  <ele>507.869629</ele>
  <time>2011-06-17T06:15:53Z</time>
  <speed>1.580000</speed>
</trkpt>
<trkpt lat="32.742557526" lon="35.051357269">
  <ele>508.236816</ele>
  <time>2011-06-17T06:15:55Z</time>
  <speed>1.450000</speed>
</trkpt>
<trkpt lat="32.742527008" lon="35.051349640">
  <ele>508.822754</ele>
  <time>2011-06-17T06:15:57Z</time>
  <speed>1.370000</speed>
</trkpt>
<trkpt lat="32.742496490" lon="35.051353455">
  <ele>509.400879</ele>
  <time>2011-06-17T06:15:59Z</time>
  <speed>1.310000</speed>
</trkpt>
<trkpt lat="32.742469788" lon="35.051342010">
  <ele>510.338379</ele>
  <time>2011-06-17T06:16:02Z</time>
  <speed>1.330000</speed>
</trkpt>
<trkpt lat="32.742439270" lon="35.051322937">
  <ele>510.666504</ele>
  <time>2011-06-17T06:16:04Z</time>
  <speed>1.470000</speed>
</trkpt>
<trkpt lat="32.742408752" lon="35.051311493">
  <ele>511.307129</ele>
  <time>2011-06-17T06:16:06Z</time>
  <speed>1.340000</speed>
</trkpt>
<trkpt lat="32.742374420" lon="35.051292419">
  <ele>512.458008</ele>
  <time>2011-06-17T06:16:09Z</time>
  <speed>1.730000</speed>
</trkpt>
<trkpt lat="32.742347717" lon="35.051288605">
  <ele>513.504883</ele>
  <time>2011-06-17T06:16:11Z</time>
  <speed>1.280000</speed>
</trkpt>
<trkpt lat="32.742317200" lon="35.051284790">
  <ele>514.317383</ele>
  <time>2011-06-17T06:16:13Z</time>
  <speed>1.630000</speed>
</trkpt>
<trkpt lat="32.742286682" lon="35.051273346">
  <ele>515.864258</ele>
  <time>2011-06-17T06:16:15Z</time>
  <speed>1.440000</speed>
</trkpt>
<trkpt lat="32.742256165" lon="35.051273346">
  <ele>515.754883</ele>
  <time>2011-06-17T06:16:17Z</time>
  <speed>1.640000</speed>
</trkpt>
<trkpt lat="32.742229462" lon="35.051269531">
  <ele>516.176758</ele>
  <time>2011-06-17T06:16:19Z</time>
  <speed>1.330000</speed>
</trkpt>
<trkpt lat="32.742198944" lon="35.051265717">
  <ele>516.770508</ele>
  <time>2011-06-17T06:16:21Z</time>
  <speed>1.850000</speed>
</trkpt>
<trkpt lat="32.742168427" lon="35.051265717">
  <ele>516.254883</ele>
  <time>2011-06-17T06:16:23Z</time>
  <speed>1.670000</speed>
</trkpt>
<trkpt lat="32.742126465" lon="35.051258087">
  <ele>516.958008</ele>
  <time>2011-06-17T06:16:25Z</time>
  <speed>1.460000</speed>
</trkpt>
<trkpt lat="32.742099762" lon="35.051254272">
  <ele>516.583008</ele>
  <time>2011-06-17T06:16:27Z</time>
  <speed>1.320000</speed>
</trkpt>
<trkpt lat="32.742065430" lon="35.051254272">
  <ele>516.911133</ele>
  <time>2011-06-17T06:16:30Z</time>
  <speed>1.690000</speed>
</trkpt>
<trkpt lat="32.742027283" lon="35.051250458">
  <ele>517.473633</ele>
  <time>2011-06-17T06:16:32Z</time>
  <speed>1.780000</speed>
</trkpt>
<trkpt lat="32.741992950" lon="35.051246643">
  <ele>517.051758</ele>
  <time>2011-06-17T06:16:34Z</time>
  <speed>1.800000</speed>
</trkpt>
<trkpt lat="32.741958618" lon="35.051246643">
  <ele>517.754883</ele>
  <time>2011-06-17T06:16:36Z</time>
  <speed>1.820000</speed>
</trkpt>
<trkpt lat="32.741924286" lon="35.051254272">
  <ele>518.458008</ele>
  <time>2011-06-17T06:16:38Z</time>
  <speed>1.420000</speed>
</trkpt>
<trkpt lat="32.741897583" lon="35.051250458">
  <ele>517.817383</ele>
  <time>2011-06-17T06:16:40Z</time>
  <speed>1.580000</speed>
</trkpt>
<trkpt lat="32.741867065" lon="35.051261902">
  <ele>517.629883</ele>
  <time>2011-06-17T06:16:42Z</time>
  <speed>1.800000</speed>
</trkpt>
<trkpt lat="32.741832733" lon="35.051261902">
  <ele>517.942383</ele>
  <time>2011-06-17T06:16:44Z</time>
  <speed>1.880000</speed>
</trkpt>
<trkpt lat="32.741798401" lon="35.051261902">
  <ele>518.379883</ele>
  <time>2011-06-17T06:16:46Z</time>
  <speed>1.720000</speed>
</trkpt>
<trkpt lat="32.741767883" lon="35.051269531">
  <ele>518.848633</ele>
  <time>2011-06-17T06:16:48Z</time>
  <speed>1.660000</speed>
</trkpt>
<trkpt lat="32.741725922" lon="35.051273346">
  <ele>517.598633</ele>
  <time>2011-06-17T06:16:51Z</time>
  <speed>1.360000</speed>
</trkpt>
<trkpt lat="32.741695404" lon="35.051265717">
  <ele>517.926758</ele>
  <time>2011-06-17T06:16:53Z</time>
  <speed>1.560000</speed>
</trkpt>
<trkpt lat="32.741657257" lon="35.051277161">
  <ele>518.504883</ele>
  <time>2011-06-17T06:16:55Z</time>
  <speed>1.780000</speed>
</trkpt>
<trkpt lat="32.741622925" lon="35.051277161">
  <ele>519.051758</ele>
  <time>2011-06-17T06:16:57Z</time>
  <speed>1.830000</speed>
</trkpt>
<trkpt lat="32.741588593" lon="35.051284790">
  <ele>518.395508</ele>
  <time>2011-06-17T06:16:59Z</time>
  <speed>1.710000</speed>
</trkpt>
<trkpt lat="32.741561890" lon="35.051292419">
  <ele>518.473633</ele>
  <time>2011-06-17T06:17:00Z</time>
  <speed>1.720000</speed>
</trkpt>
<trkpt lat="32.741531372" lon="35.051300049">
  <ele>518.598633</ele>
  <time>2011-06-17T06:17:02Z</time>
  <speed>1.540000</speed>
</trkpt>
<trkpt lat="32.741497040" lon="35.051307678">
  <ele>519.708008</ele>
  <time>2011-06-17T06:17:04Z</time>
  <speed>1.480000</speed>
</trkpt>
<trkpt lat="32.741466522" lon="35.051319122">
  <ele>519.973633</ele>
  <time>2011-06-17T06:17:06Z</time>
  <speed>1.310000</speed>
</trkpt>
<trkpt lat="32.741439819" lon="35.051322937">
  <ele>520.817383</ele>
  <time>2011-06-17T06:17:08Z</time>
  <speed>1.700000</speed>
</trkpt>
<trkpt lat="32.741405487" lon="35.051326752">
  <ele>519.864258</ele>
  <time>2011-06-17T06:17:11Z</time>
  <speed>1.730000</speed>
</trkpt>
<trkpt lat="32.741371155" lon="35.051338196">
  <ele>520.379883</ele>
  <time>2011-06-17T06:17:13Z</time>
  <speed>1.520000</speed>
</trkpt>
<trkpt lat="32.741333008" lon="35.051353455">
  <ele>521.036133</ele>
  <time>2011-06-17T06:17:16Z</time>
  <speed>1.790000</speed>
</trkpt>
<trkpt lat="32.741310120" lon="35.051372528">
  <ele>520.317383</ele>
  <time>2011-06-17T06:17:18Z</time>
  <speed>1.630000</speed>
</trkpt>
<trkpt lat="32.741283417" lon="35.051399231">
  <ele>520.536133</ele>
  <time>2011-06-17T06:17:20Z</time>
  <speed>1.620000</speed>
</trkpt>
<trkpt lat="32.741252899" lon="35.051418304">
  <ele>520.911133</ele>
  <time>2011-06-17T06:17:22Z</time>
  <speed>1.680000</speed>
</trkpt>
<trkpt lat="32.741230011" lon="35.051441193">
  <ele>521.114258</ele>
  <time>2011-06-17T06:17:24Z</time>
  <speed>1.700000</speed>
</trkpt>
<trkpt lat="32.741203308" lon="35.051460266">
  <ele>521.067383</ele>
  <time>2011-06-17T06:17:26Z</time>
  <speed>1.530000</speed>
</trkpt>
<trkpt lat="32.741184235" lon="35.051490784">
  <ele>521.536133</ele>
  <time>2011-06-17T06:17:28Z</time>
  <speed>1.610000</speed>
</trkpt>
<trkpt lat="32.741153717" lon="35.051509857">
  <ele>522.051758</ele>
  <time>2011-06-17T06:17:30Z</time>
  <speed>1.510000</speed>
</trkpt>
<trkpt lat="32.741134644" lon="35.051555634">
  <ele>521.833008</ele>
  <time>2011-06-17T06:17:33Z</time>
  <speed>1.590000</speed>
</trkpt>
<trkpt lat="32.741115570" lon="35.051586151">
  <ele>521.926758</ele>
  <time>2011-06-17T06:17:35Z</time>
  <speed>1.780000</speed>
</trkpt>
<trkpt lat="32.741096497" lon="35.051624298">
  <ele>522.333008</ele>
  <time>2011-06-17T06:17:37Z</time>
  <speed>1.650000</speed>
</trkpt>
<trkpt lat="32.741081238" lon="35.051654816">
  <ele>522.520508</ele>
  <time>2011-06-17T06:17:39Z</time>
  <speed>1.570000</speed>
</trkpt>
<trkpt lat="32.741062164" lon="35.051681519">
  <ele>522.848633</ele>
  <time>2011-06-17T06:17:41Z</time>
  <speed>1.290000</speed>
</trkpt>
<trkpt lat="32.741039276" lon="35.051700592">
  <ele>523.379883</ele>
  <time>2011-06-17T06:17:43Z</time>
  <speed>1.440000</speed>
</trkpt>
<trkpt lat="32.741004944" lon="35.051712036">
  <ele>523.239258</ele>
  <time>2011-06-17T06:17:46Z</time>
  <speed>0.920000</speed>
</trkpt>
<trkpt lat="32.740978241" lon="35.051734924">
  <ele>523.473633</ele>
  <time>2011-06-17T06:17:52Z</time>
  <speed>0.390000</speed>
</trkpt>
<trkpt lat="32.740993500" lon="35.051769257">
  <ele>522.973633</ele>
  <time>2011-06-17T06:18:06Z</time>
  <speed>0.100000</speed>
</trkpt>
<trkpt lat="32.740962982" lon="35.051769257">
  <ele>523.020508</ele>
  <time>2011-06-17T06:18:45Z</time>
  <speed>0.120000</speed>
</trkpt>
<trkpt lat="32.740947723" lon="35.051784515">
  <ele>526.051758</ele>
  <time>2011-06-17T06:18:50Z</time>
  <speed>0.130000</speed>
</trkpt>
<trkpt lat="32.740928650" lon="35.051784515">
  <ele>528.676758</ele>
  <time>2011-06-17T06:19:02Z</time>
  <speed>0.080000</speed>
</trkpt>
<trkpt lat="32.740917206" lon="35.051761627">
  <ele>530.239258</ele>
  <time>2011-06-17T06:19:10Z</time>
  <speed>0.230000</speed>
</trkpt>
<trkpt lat="32.740905762" lon="35.051738739">
  <ele>532.067383</ele>
  <time>2011-06-17T06:19:38Z</time>
  <speed>0.020000</speed>
</trkpt>
<trkpt lat="32.740921021" lon="35.051731110">
  <ele>534.848633</ele>
  <time>2011-06-17T06:19:57Z</time>
  <speed>0.050000</speed>
</trkpt>
<trkpt lat="32.740890503" lon="35.051731110">
  <ele>535.504883</ele>
  <time>2011-06-17T06:20:06Z</time>
  <speed>0.040000</speed>
</trkpt>
<trkpt lat="32.740856171" lon="35.051738739">
  <ele>535.723633</ele>
  <time>2011-06-17T06:20:10Z</time>
  <speed>0.170000</speed>
</trkpt>
<trkpt lat="32.740825653" lon="35.051700592">
  <ele>535.098633</ele>
  <time>2011-06-17T06:20:15Z</time>
  <speed>2.530000</speed>
</trkpt>
<trkpt lat="32.740798950" lon="35.051673889">
  <ele>535.176758</ele>
  <time>2011-06-17T06:20:16Z</time>
  <speed>4.190000</speed>
</trkpt>
<trkpt lat="32.740768433" lon="35.051635742">
  <ele>534.676758</ele>
  <time>2011-06-17T06:20:17Z</time>
  <speed>5.060000</speed>
</trkpt>
<trkpt lat="32.740749359" lon="35.051582336">
  <ele>534.536133</ele>
  <time>2011-06-17T06:20:18Z</time>
  <speed>5.030000</speed>
</trkpt>
<trkpt lat="32.740741730" lon="35.051506042">
  <ele>534.020508</ele>
  <time>2011-06-17T06:20:19Z</time>
  <speed>5.710000</speed>
</trkpt>
<trkpt lat="32.740741730" lon="35.051437378">
  <ele>532.973633</ele>
  <time>2011-06-17T06:20:20Z</time>
  <speed>5.580000</speed>
</trkpt>
<trkpt lat="32.740730286" lon="35.051372528">
  <ele>532.348633</ele>
  <time>2011-06-17T06:20:21Z</time>
  <speed>5.430000</speed>
</trkpt>
<trkpt lat="32.740711212" lon="35.051319122">
  <ele>530.520508</ele>
  <time>2011-06-17T06:20:22Z</time>
  <speed>5.410000</speed>
</trkpt>
<trkpt lat="32.740688324" lon="35.051265717">
  <ele>529.348633</ele>
  <time>2011-06-17T06:20:23Z</time>
  <speed>5.130000</speed>
</trkpt>
<trkpt lat="32.740669250" lon="35.051216125">
  <ele>528.504883</ele>
  <time>2011-06-17T06:20:24Z</time>
  <speed>5.160000</speed>
</trkpt>
<trkpt lat="32.740650177" lon="35.051166534">
  <ele>528.426758</ele>
  <time>2011-06-17T06:20:25Z</time>
  <speed>4.590000</speed>
</trkpt>
<trkpt lat="32.740638733" lon="35.051132202">
  <ele>527.786133</ele>
  <time>2011-06-17T06:20:26Z</time>
  <speed>3.680000</speed>
</trkpt>
<trkpt lat="32.740634918" lon="35.051086426">
  <ele>526.567383</ele>
  <time>2011-06-17T06:20:27Z</time>
  <speed>3.680000</speed>
</trkpt>
<trkpt lat="32.740631104" lon="35.051048279">
  <ele>525.645508</ele>
  <time>2011-06-17T06:20:28Z</time>
  <speed>3.480000</speed>
</trkpt>
<trkpt lat="32.740627289" lon="35.051010132">
  <ele>524.958008</ele>
  <time>2011-06-17T06:20:29Z</time>
  <speed>3.400000</speed>
</trkpt>
<trkpt lat="32.740612030" lon="35.050983429">
  <ele>522.786133</ele>
  <time>2011-06-17T06:20:30Z</time>
  <speed>3.010000</speed>
</trkpt>
<trkpt lat="32.740596771" lon="35.050952911">
  <ele>521.676758</ele>
  <time>2011-06-17T06:20:31Z</time>
  <speed>3.370000</speed>
</trkpt>
<trkpt lat="32.740592957" lon="35.050922394">
  <ele>519.973633</ele>
  <time>2011-06-17T06:20:32Z</time>
  <speed>3.000000</speed>
</trkpt>
<trkpt lat="32.740589142" lon="35.050888062">
  <ele>519.192383</ele>
  <time>2011-06-17T06:20:33Z</time>
  <speed>2.900000</speed>
</trkpt>
<trkpt lat="32.740585327" lon="35.050846100">
  <ele>516.973633</ele>
  <time>2011-06-17T06:20:34Z</time>
  <speed>3.010000</speed>
</trkpt>
<trkpt lat="32.740577698" lon="35.050819397">
  <ele>514.254883</ele>
  <time>2011-06-17T06:20:35Z</time>
  <speed>2.930000</speed>
</trkpt>
<trkpt lat="32.740570068" lon="35.050785065">
  <ele>512.473633</ele>
  <time>2011-06-17T06:20:36Z</time>
  <speed>2.760000</speed>
</trkpt>
<trkpt lat="32.740562439" lon="35.050758362">
  <ele>510.572754</ele>
  <time>2011-06-17T06:20:37Z</time>
  <speed>2.930000</speed>
</trkpt>
<trkpt lat="32.740554810" lon="35.050724030">
  <ele>509.689941</ele>
  <time>2011-06-17T06:20:38Z</time>
  <speed>3.350000</speed>
</trkpt>
<trkpt lat="32.740547180" lon="35.050674438">
  <ele>507.791504</ele>
  <time>2011-06-17T06:20:39Z</time>
  <speed>3.630000</speed>
</trkpt>
<trkpt lat="32.740535736" lon="35.050636292">
  <ele>506.494629</ele>
  <time>2011-06-17T06:20:40Z</time>
  <speed>3.540000</speed>
</trkpt>
<trkpt lat="32.740528107" lon="35.050598145">
  <ele>505.252441</ele>
  <time>2011-06-17T06:20:41Z</time>
  <speed>2.960000</speed>
</trkpt>
<trkpt lat="32.740539551" lon="35.050563812">
  <ele>505.088379</ele>
  <time>2011-06-17T06:20:42Z</time>
  <speed>3.320000</speed>
</trkpt>
<trkpt lat="32.740562439" lon="35.050540924">
  <ele>503.916504</ele>
  <time>2011-06-17T06:20:43Z</time>
  <speed>3.380000</speed>
</trkpt>
<trkpt lat="32.740592957" lon="35.050525665">
  <ele>502.752441</ele>
  <time>2011-06-17T06:20:44Z</time>
  <speed>3.690000</speed>
</trkpt>
<trkpt lat="32.740615845" lon="35.050472260">
  <ele>500.947754</ele>
  <time>2011-06-17T06:20:46Z</time>
  <speed>2.560000</speed>
</trkpt>
<trkpt lat="32.740615845" lon="35.050434113">
  <ele>499.627441</ele>
  <time>2011-06-17T06:20:47Z</time>
  <speed>2.740000</speed>
</trkpt>
<trkpt lat="32.740638733" lon="35.050395966">
  <ele>497.783691</ele>
  <time>2011-06-17T06:20:49Z</time>
  <speed>2.240000</speed>
</trkpt>
<trkpt lat="32.740657806" lon="35.050369263">
  <ele>496.900879</ele>
  <time>2011-06-17T06:20:50Z</time>
  <speed>3.280000</speed>
</trkpt>
<trkpt lat="32.740684509" lon="35.050350189">
  <ele>495.939941</ele>
  <time>2011-06-17T06:20:51Z</time>
  <speed>3.530000</speed>
</trkpt>
<trkpt lat="32.740711212" lon="35.050319672">
  <ele>495.057129</ele>
  <time>2011-06-17T06:20:52Z</time>
  <speed>3.430000</speed>
</trkpt>
<trkpt lat="32.740730286" lon="35.050270081">
  <ele>494.354004</ele>
  <time>2011-06-17T06:20:53Z</time>
  <speed>3.510000</speed>
</trkpt>
<trkpt lat="32.740745544" lon="35.050235748">
  <ele>493.119629</ele>
  <time>2011-06-17T06:20:54Z</time>
  <speed>2.770000</speed>
</trkpt>
<trkpt lat="32.740787506" lon="35.050254822">
  <ele>489.705566</ele>
  <time>2011-06-17T06:20:56Z</time>
  <speed>3.360000</speed>
</trkpt>
<trkpt lat="32.740821838" lon="35.050262451">
  <ele>488.494629</ele>
  <time>2011-06-17T06:20:57Z</time>
  <speed>3.670000</speed>
</trkpt>
<trkpt lat="32.740852356" lon="35.050251007">
  <ele>487.588379</ele>
  <time>2011-06-17T06:20:58Z</time>
  <speed>2.710000</speed>
</trkpt>
<trkpt lat="32.740875244" lon="35.050224304">
  <ele>486.713379</ele>
  <time>2011-06-17T06:20:59Z</time>
  <speed>3.240000</speed>
</trkpt>
<trkpt lat="32.740913391" lon="35.050205231">
  <ele>484.846191</ele>
  <time>2011-06-17T06:21:01Z</time>
  <speed>1.800000</speed>
</trkpt>
<trkpt lat="32.740959167" lon="35.050228119">
  <ele>482.908691</ele>
  <time>2011-06-17T06:21:03Z</time>
  <speed>2.950000</speed>
</trkpt>
<trkpt lat="32.740989685" lon="35.050212860">
  <ele>482.564941</ele>
  <time>2011-06-17T06:21:05Z</time>
  <speed>2.400000</speed>
</trkpt>
<trkpt lat="32.741035461" lon="35.050178528">
  <ele>482.541504</ele>
  <time>2011-06-17T06:21:07Z</time>
  <speed>3.390000</speed>
</trkpt>
<trkpt lat="32.741073608" lon="35.050167084">
  <ele>481.627441</ele>
  <time>2011-06-17T06:21:08Z</time>
  <speed>3.290000</speed>
</trkpt>
<trkpt lat="32.741100311" lon="35.050151825">
  <ele>481.604004</ele>
  <time>2011-06-17T06:21:09Z</time>
  <speed>3.830000</speed>
</trkpt>
<trkpt lat="32.741130829" lon="35.050132751">
  <ele>480.752441</ele>
  <time>2011-06-17T06:21:10Z</time>
  <speed>3.640000</speed>
</trkpt>
<trkpt lat="32.741161346" lon="35.050125122">
  <ele>480.033691</ele>
  <time>2011-06-17T06:21:11Z</time>
  <speed>3.500000</speed>
</trkpt>
<trkpt lat="32.741195679" lon="35.050109863">
  <ele>479.533691</ele>
  <time>2011-06-17T06:21:12Z</time>
  <speed>3.550000</speed>
</trkpt>
<trkpt lat="32.741222382" lon="35.050090790">
  <ele>478.924316</ele>
  <time>2011-06-17T06:21:13Z</time>
  <speed>3.050000</speed>
</trkpt>
<trkpt lat="32.741249084" lon="35.050075531">
  <ele>478.205566</ele>
  <time>2011-06-17T06:21:14Z</time>
  <speed>2.930000</speed>
</trkpt>
<trkpt lat="32.741313934" lon="35.050056458">
  <ele>477.580566</ele>
  <time>2011-06-17T06:21:16Z</time>
  <speed>4.780000</speed>
</trkpt>
<trkpt lat="32.741390228" lon="35.050041199">
  <ele>476.752441</ele>
  <time>2011-06-17T06:21:17Z</time>
  <speed>5.090000</speed>
</trkpt>
<trkpt lat="32.741436005" lon="35.050025940">
  <ele>476.064941</ele>
  <time>2011-06-17T06:21:18Z</time>
  <speed>4.590000</speed>
</trkpt>
<trkpt lat="32.741466522" lon="35.049991608">
  <ele>475.408691</ele>
  <time>2011-06-17T06:21:19Z</time>
  <speed>3.990000</speed>
</trkpt>
<trkpt lat="32.741497040" lon="35.049957275">
  <ele>474.619629</ele>
  <time>2011-06-17T06:21:20Z</time>
  <speed>4.250000</speed>
</trkpt>
<trkpt lat="32.741531372" lon="35.049930573">
  <ele>474.213379</ele>
  <time>2011-06-17T06:21:21Z</time>
  <speed>3.600000</speed>
</trkpt>
<trkpt lat="32.741558075" lon="35.049915314">
  <ele>474.135254</ele>
  <time>2011-06-17T06:21:22Z</time>
  <speed>3.300000</speed>
</trkpt>
<trkpt lat="32.741596222" lon="35.049900055">
  <ele>473.525879</ele>
  <time>2011-06-17T06:21:23Z</time>
  <speed>3.490000</speed>
</trkpt>
<trkpt lat="32.741630554" lon="35.049884796">
  <ele>473.221191</ele>
  <time>2011-06-17T06:21:24Z</time>
  <speed>3.200000</speed>
</trkpt>
<trkpt lat="32.741653442" lon="35.049854279">
  <ele>472.346191</ele>
  <time>2011-06-17T06:21:25Z</time>
  <speed>3.440000</speed>
</trkpt>
<trkpt lat="32.741683960" lon="35.049839020">
  <ele>471.814941</ele>
  <time>2011-06-17T06:21:26Z</time>
  <speed>2.820000</speed>
</trkpt>
<trkpt lat="32.741710663" lon="35.049823761">
  <ele>470.541504</ele>
  <time>2011-06-17T06:21:27Z</time>
  <speed>3.080000</speed>
</trkpt>
<trkpt lat="32.741744995" lon="35.049808502">
  <ele>469.791504</ele>
  <time>2011-06-17T06:21:28Z</time>
  <speed>4.010000</speed>
</trkpt>
<trkpt lat="32.741806030" lon="35.049793243">
  <ele>468.916504</ele>
  <time>2011-06-17T06:21:29Z</time>
  <speed>5.650000</speed>
</trkpt>
<trkpt lat="32.741859436" lon="35.049770355">
  <ele>468.525879</ele>
  <time>2011-06-17T06:21:30Z</time>
  <speed>5.650000</speed>
</trkpt>
<trkpt lat="32.741924286" lon="35.049739838">
  <ele>467.283691</ele>
  <time>2011-06-17T06:21:31Z</time>
  <speed>6.260000</speed>
</trkpt>
<trkpt lat="32.741989136" lon="35.049701691">
  <ele>466.947754</ele>
  <time>2011-06-17T06:21:32Z</time>
  <speed>6.130000</speed>
</trkpt>
<trkpt lat="32.742042542" lon="35.049686432">
  <ele>466.588379</ele>
  <time>2011-06-17T06:21:33Z</time>
  <speed>4.790000</speed>
</trkpt>
<trkpt lat="32.742088318" lon="35.049671173">
  <ele>466.111816</ele>
  <time>2011-06-17T06:21:34Z</time>
  <speed>4.790000</speed>
</trkpt>
<trkpt lat="32.742130280" lon="35.049648285">
  <ele>465.479004</ele>
  <time>2011-06-17T06:21:35Z</time>
  <speed>4.590000</speed>
</trkpt>
<trkpt lat="32.742172241" lon="35.049621582">
  <ele>464.229004</ele>
  <time>2011-06-17T06:21:36Z</time>
  <speed>4.620000</speed>
</trkpt>
<trkpt lat="32.742210388" lon="35.049591064">
  <ele>463.541504</ele>
  <time>2011-06-17T06:21:37Z</time>
  <speed>4.600000</speed>
</trkpt>
<trkpt lat="32.742233276" lon="35.049541473">
  <ele>463.447754</ele>
  <time>2011-06-17T06:21:38Z</time>
  <speed>4.430000</speed>
</trkpt>
<trkpt lat="32.742263794" lon="35.049514771">
  <ele>462.900879</ele>
  <time>2011-06-17T06:21:39Z</time>
  <speed>3.470000</speed>
</trkpt>
<trkpt lat="32.742294312" lon="35.049488068">
  <ele>462.221191</ele>
  <time>2011-06-17T06:21:40Z</time>
  <speed>2.860000</speed>
</trkpt>
<trkpt lat="32.742340088" lon="35.049465179">
  <ele>460.752441</ele>
  <time>2011-06-17T06:21:42Z</time>
  <speed>1.860000</speed>
</trkpt>
<trkpt lat="32.742366791" lon="35.049457550">
  <ele>460.189941</ele>
  <time>2011-06-17T06:21:43Z</time>
  <speed>2.280000</speed>
</trkpt>
<trkpt lat="32.742389679" lon="35.049438477">
  <ele>459.408691</ele>
  <time>2011-06-17T06:21:44Z</time>
  <speed>2.440000</speed>
</trkpt>
<trkpt lat="32.742435455" lon="35.049427032">
  <ele>459.057129</ele>
  <time>2011-06-17T06:21:45Z</time>
  <speed>2.440000</speed>
</trkpt>
<trkpt lat="32.742496490" lon="35.049430847">
  <ele>457.502441</ele>
  <time>2011-06-17T06:21:47Z</time>
  <speed>2.750000</speed>
</trkpt>
<trkpt lat="32.742530823" lon="35.049434662">
  <ele>456.299316</ele>
  <time>2011-06-17T06:21:48Z</time>
  <speed>3.020000</speed>
</trkpt>
<trkpt lat="32.742561340" lon="35.049434662">
  <ele>455.182129</ele>
  <time>2011-06-17T06:21:49Z</time>
  <speed>3.050000</speed>
</trkpt>
<trkpt lat="32.742607117" lon="35.049427032">
  <ele>454.049316</ele>
  <time>2011-06-17T06:21:50Z</time>
  <speed>4.460000</speed>
</trkpt>
<trkpt lat="32.742649078" lon="35.049415588">
  <ele>452.955566</ele>
  <time>2011-06-17T06:21:51Z</time>
  <speed>4.550000</speed>
</trkpt>
<trkpt lat="32.742717743" lon="35.049411774">
  <ele>452.104004</ele>
  <time>2011-06-17T06:21:52Z</time>
  <speed>3.800000</speed>
</trkpt>
<trkpt lat="32.742752075" lon="35.049404144">
  <ele>452.072754</ele>
  <time>2011-06-17T06:21:53Z</time>
  <speed>3.450000</speed>
</trkpt>
<trkpt lat="32.742786407" lon="35.049404144">
  <ele>451.369629</ele>
  <time>2011-06-17T06:21:54Z</time>
  <speed>3.770000</speed>
</trkpt>
<trkpt lat="32.742839813" lon="35.049419403">
  <ele>450.604004</ele>
  <time>2011-06-17T06:21:55Z</time>
  <speed>4.340000</speed>
</trkpt>
<trkpt lat="32.742881775" lon="35.049419403">
  <ele>448.744629</ele>
  <time>2011-06-17T06:21:56Z</time>
  <speed>3.830000</speed>
</trkpt>
<trkpt lat="32.742927551" lon="35.049419403">
  <ele>448.229004</ele>
  <time>2011-06-17T06:21:57Z</time>
  <speed>4.150000</speed>
</trkpt>
<trkpt lat="32.742984772" lon="35.049427032">
  <ele>447.807129</ele>
  <time>2011-06-17T06:21:58Z</time>
  <speed>4.330000</speed>
</trkpt>
<trkpt lat="32.743030548" lon="35.049438477">
  <ele>447.018066</ele>
  <time>2011-06-17T06:21:59Z</time>
  <speed>4.790000</speed>
</trkpt>
<trkpt lat="32.743083954" lon="35.049442291">
  <ele>445.557129</ele>
  <time>2011-06-17T06:22:00Z</time>
  <speed>4.650000</speed>
</trkpt>
<trkpt lat="32.743122101" lon="35.049442291">
  <ele>444.299316</ele>
  <time>2011-06-17T06:22:01Z</time>
  <speed>4.100000</speed>
</trkpt>
<trkpt lat="32.743156433" lon="35.049442291">
  <ele>446.119629</ele>
  <time>2011-06-17T06:22:02Z</time>
  <speed>2.740000</speed>
</trkpt>
<trkpt lat="32.743186951" lon="35.049449921">
  <ele>446.494629</ele>
  <time>2011-06-17T06:22:03Z</time>
  <speed>3.110000</speed>
</trkpt>
<trkpt lat="32.743221283" lon="35.049461365">
  <ele>446.338379</ele>
  <time>2011-06-17T06:22:04Z</time>
  <speed>3.540000</speed>
</trkpt>
<trkpt lat="32.743259430" lon="35.049472809">
  <ele>445.104004</ele>
  <time>2011-06-17T06:22:05Z</time>
  <speed>3.870000</speed>
</trkpt>
<trkpt lat="32.743293762" lon="35.049484253">
  <ele>444.104004</ele>
  <time>2011-06-17T06:22:06Z</time>
  <speed>3.790000</speed>
</trkpt>
<trkpt lat="32.743339539" lon="35.049480438">
  <ele>442.354004</ele>
  <time>2011-06-17T06:22:07Z</time>
  <speed>5.320000</speed>
</trkpt>
<trkpt lat="32.743381500" lon="35.049480438">
  <ele>440.846191</ele>
  <time>2011-06-17T06:22:08Z</time>
  <speed>5.590000</speed>
</trkpt>
<trkpt lat="32.743434906" lon="35.049476624">
  <ele>441.510254</ele>
  <time>2011-06-17T06:22:09Z</time>
  <speed>5.450000</speed>
</trkpt>
<trkpt lat="32.743495941" lon="35.049480438">
  <ele>440.416504</ele>
  <time>2011-06-17T06:22:10Z</time>
  <speed>4.990000</speed>
</trkpt>
<trkpt lat="32.743541718" lon="35.049468994">
  <ele>440.127441</ele>
  <time>2011-06-17T06:22:11Z</time>
  <speed>4.550000</speed>
</trkpt>
<trkpt lat="32.743587494" lon="35.049453735">
  <ele>439.314941</ele>
  <time>2011-06-17T06:22:12Z</time>
  <speed>4.860000</speed>
</trkpt>
<trkpt lat="32.743625641" lon="35.049434662">
  <ele>438.127441</ele>
  <time>2011-06-17T06:22:13Z</time>
  <speed>4.290000</speed>
</trkpt>
<trkpt lat="32.743656158" lon="35.049396515">
  <ele>437.979004</ele>
  <time>2011-06-17T06:22:14Z</time>
  <speed>4.180000</speed>
</trkpt>
<trkpt lat="32.743682861" lon="35.049365997">
  <ele>436.830566</ele>
  <time>2011-06-17T06:22:15Z</time>
  <speed>4.050000</speed>
</trkpt>
<trkpt lat="32.743717194" lon="35.049327850">
  <ele>435.697754</ele>
  <time>2011-06-17T06:22:16Z</time>
  <speed>4.720000</speed>
</trkpt>
<trkpt lat="32.743740082" lon="35.049285889">
  <ele>435.283691</ele>
  <time>2011-06-17T06:22:17Z</time>
  <speed>4.420000</speed>
</trkpt>
<trkpt lat="32.743766785" lon="35.049243927">
  <ele>434.260254</ele>
  <time>2011-06-17T06:22:18Z</time>
  <speed>4.170000</speed>
</trkpt>
<trkpt lat="32.743793488" lon="35.049205780">
  <ele>433.260254</ele>
  <time>2011-06-17T06:22:19Z</time>
  <speed>3.900000</speed>
</trkpt>
<trkpt lat="32.743816376" lon="35.049182892">
  <ele>433.400879</ele>
  <time>2011-06-17T06:22:20Z</time>
  <speed>2.350000</speed>
</trkpt>
<trkpt lat="32.743839264" lon="35.049152374">
  <ele>434.525879</ele>
  <time>2011-06-17T06:22:22Z</time>
  <speed>0.770000</speed>
</trkpt>
<trkpt lat="32.743850708" lon="35.049125671">
  <ele>435.291504</ele>
  <time>2011-06-17T06:22:35Z</time>
  <speed>0.120000</speed>
</trkpt>
<trkpt lat="32.743831635" lon="35.049152374">
  <ele>435.057129</ele>
  <time>2011-06-17T06:22:46Z</time>
  <speed>1.110000</speed>
</trkpt>
<trkpt lat="32.743808746" lon="35.049171448">
  <ele>435.314941</ele>
  <time>2011-06-17T06:22:48Z</time>
  <speed>1.080000</speed>
</trkpt>
<trkpt lat="32.743782043" lon="35.049167633">
  <ele>435.338379</ele>
  <time>2011-06-17T06:22:54Z</time>
  <speed>0.610000</speed>
</trkpt>
<trkpt lat="32.743816376" lon="35.049137115">
  <ele>435.361816</ele>
  <time>2011-06-17T06:23:08Z</time>
  <speed>1.800000</speed>
</trkpt>
<trkpt lat="32.743839264" lon="35.049098969">
  <ele>435.354004</ele>
  <time>2011-06-17T06:23:10Z</time>
  <speed>1.700000</speed>
</trkpt>
<trkpt lat="32.743854523" lon="35.049072266">
  <ele>435.697754</ele>
  <time>2011-06-17T06:23:11Z</time>
  <speed>3.250000</speed>
</trkpt>
<trkpt lat="32.743869781" lon="35.049045563">
  <ele>435.150879</ele>
  <time>2011-06-17T06:23:12Z</time>
  <speed>2.440000</speed>
</trkpt>
<trkpt lat="32.743900299" lon="35.049049377">
  <ele>435.627441</ele>
  <time>2011-06-17T06:23:16Z</time>
  <speed>0.070000</speed>
</trkpt>
<trkpt lat="32.743881226" lon="35.048980713">
  <ele>435.682129</ele>
  <time>2011-06-17T06:23:36Z</time>
  <speed>3.780000</speed>
</trkpt>
<trkpt lat="32.743877411" lon="35.048934937">
  <ele>435.393066</ele>
  <time>2011-06-17T06:23:37Z</time>
  <speed>3.620000</speed>
</trkpt>
<trkpt lat="32.743877411" lon="35.048877716">
  <ele>436.361816</ele>
  <time>2011-06-17T06:23:38Z</time>
  <speed>3.620000</speed>
</trkpt>
<trkpt lat="32.743881226" lon="35.048835754">
  <ele>436.361816</ele>
  <time>2011-06-17T06:23:39Z</time>
  <speed>3.270000</speed>
</trkpt>
<trkpt lat="32.743881226" lon="35.048793793">
  <ele>436.432129</ele>
  <time>2011-06-17T06:23:40Z</time>
  <speed>3.200000</speed>
</trkpt>
<trkpt lat="32.743885040" lon="35.048751831">
  <ele>436.205566</ele>
  <time>2011-06-17T06:23:41Z</time>
  <speed>3.120000</speed>
</trkpt>
<trkpt lat="32.743896484" lon="35.048721313">
  <ele>435.900879</ele>
  <time>2011-06-17T06:23:42Z</time>
  <speed>3.490000</speed>
</trkpt>
<trkpt lat="32.743911743" lon="35.048683167">
  <ele>435.346191</ele>
  <time>2011-06-17T06:23:43Z</time>
  <speed>4.040000</speed>
</trkpt>
<trkpt lat="32.743927002" lon="35.048645020">
  <ele>434.447754</ele>
  <time>2011-06-17T06:23:44Z</time>
  <speed>3.490000</speed>
</trkpt>
<trkpt lat="32.743934631" lon="35.048603058">
  <ele>434.025879</ele>
  <time>2011-06-17T06:23:45Z</time>
  <speed>3.370000</speed>
</trkpt>
<trkpt lat="32.743946075" lon="35.048564911">
  <ele>433.611816</ele>
  <time>2011-06-17T06:23:46Z</time>
  <speed>3.580000</speed>
</trkpt>
<trkpt lat="32.743961334" lon="35.048526764">
  <ele>432.979004</ele>
  <time>2011-06-17T06:23:47Z</time>
  <speed>3.640000</speed>
</trkpt>
<trkpt lat="32.743980408" lon="35.048484802">
  <ele>432.291504</ele>
  <time>2011-06-17T06:23:48Z</time>
  <speed>4.070000</speed>
</trkpt>
<trkpt lat="32.743995667" lon="35.048458099">
  <ele>431.307129</ele>
  <time>2011-06-17T06:23:49Z</time>
  <speed>3.680000</speed>
</trkpt>
<trkpt lat="32.744014740" lon="35.048431396">
  <ele>430.377441</ele>
  <time>2011-06-17T06:23:50Z</time>
  <speed>3.290000</speed>
</trkpt>
<trkpt lat="32.744045258" lon="35.048416138">
  <ele>428.869629</ele>
  <time>2011-06-17T06:23:51Z</time>
  <speed>3.530000</speed>
</trkpt>
<trkpt lat="32.744071960" lon="35.048385620">
  <ele>427.736816</ele>
  <time>2011-06-17T06:23:52Z</time>
  <speed>3.610000</speed>
</trkpt>
<trkpt lat="32.744110107" lon="35.048358917">
  <ele>426.307129</ele>
  <time>2011-06-17T06:23:53Z</time>
  <speed>4.240000</speed>
</trkpt>
<trkpt lat="32.744144440" lon="35.048320770">
  <ele>425.604004</ele>
  <time>2011-06-17T06:23:54Z</time>
  <speed>4.620000</speed>
</trkpt>
<trkpt lat="32.744171143" lon="35.048305511">
  <ele>425.088379</ele>
  <time>2011-06-17T06:23:55Z</time>
  <speed>3.630000</speed>
</trkpt>
<trkpt lat="32.744201660" lon="35.048301697">
  <ele>424.549316</ele>
  <time>2011-06-17T06:23:56Z</time>
  <speed>3.380000</speed>
</trkpt>
<trkpt lat="32.744235992" lon="35.048297882">
  <ele>424.182129</ele>
  <time>2011-06-17T06:23:57Z</time>
  <speed>3.360000</speed>
</trkpt>
<trkpt lat="32.744266510" lon="35.048294067">
  <ele>423.760254</ele>
  <time>2011-06-17T06:23:58Z</time>
  <speed>3.090000</speed>
</trkpt>
<trkpt lat="32.744300842" lon="35.048282623">
  <ele>423.939941</ele>
  <time>2011-06-17T06:23:59Z</time>
  <speed>3.020000</speed>
</trkpt>
<trkpt lat="32.744338989" lon="35.048267365">
  <ele>422.182129</ele>
  <time>2011-06-17T06:24:01Z</time>
  <speed>2.100000</speed>
</trkpt>
<trkpt lat="32.744361877" lon="35.048206329">
  <ele>420.916504</ele>
  <time>2011-06-17T06:24:03Z</time>
  <speed>2.800000</speed>
</trkpt>
<trkpt lat="32.744392395" lon="35.048183441">
  <ele>418.479004</ele>
  <time>2011-06-17T06:24:05Z</time>
  <speed>2.570000</speed>
</trkpt>
<trkpt lat="32.744441986" lon="35.048175812">
  <ele>417.025879</ele>
  <time>2011-06-17T06:24:07Z</time>
  <speed>3.410000</speed>
</trkpt>
<trkpt lat="32.744476318" lon="35.048164368">
  <ele>417.783691</ele>
  <time>2011-06-17T06:24:08Z</time>
  <speed>3.480000</speed>
</trkpt>
<trkpt lat="32.744510651" lon="35.048168182">
  <ele>417.439941</ele>
  <time>2011-06-17T06:24:09Z</time>
  <speed>3.840000</speed>
</trkpt>
<trkpt lat="32.744548798" lon="35.048183441">
  <ele>416.752441</ele>
  <time>2011-06-17T06:24:10Z</time>
  <speed>4.790000</speed>
</trkpt>
<trkpt lat="32.744586945" lon="35.048206329">
  <ele>416.330566</ele>
  <time>2011-06-17T06:24:11Z</time>
  <speed>5.170000</speed>
</trkpt>
<trkpt lat="32.744632721" lon="35.048233032">
  <ele>415.549316</ele>
  <time>2011-06-17T06:24:12Z</time>
  <speed>5.510000</speed>
</trkpt>
<trkpt lat="32.744674683" lon="35.048255920">
  <ele>414.986816</ele>
  <time>2011-06-17T06:24:13Z</time>
  <speed>4.560000</speed>
</trkpt>
<trkpt lat="32.744720459" lon="35.048271179">
  <ele>414.986816</ele>
  <time>2011-06-17T06:24:14Z</time>
  <speed>4.370000</speed>
</trkpt>
<trkpt lat="32.744762421" lon="35.048278809">
  <ele>414.596191</ele>
  <time>2011-06-17T06:24:15Z</time>
  <speed>4.050000</speed>
</trkpt>
<trkpt lat="32.744796753" lon="35.048286438">
  <ele>413.799316</ele>
  <time>2011-06-17T06:24:16Z</time>
  <speed>3.680000</speed>
</trkpt>
<trkpt lat="32.744827271" lon="35.048282623">
  <ele>413.213379</ele>
  <time>2011-06-17T06:24:17Z</time>
  <speed>3.580000</speed>
</trkpt>
<trkpt lat="32.744857788" lon="35.048271179">
  <ele>412.580566</ele>
  <time>2011-06-17T06:24:18Z</time>
  <speed>3.130000</speed>
</trkpt>
<trkpt lat="32.744892120" lon="35.048263550">
  <ele>412.721191</ele>
  <time>2011-06-17T06:24:19Z</time>
  <speed>2.980000</speed>
</trkpt>
<trkpt lat="32.744926453" lon="35.048252106">
  <ele>412.455566</ele>
  <time>2011-06-17T06:24:20Z</time>
  <speed>3.090000</speed>
</trkpt>
<trkpt lat="32.744953156" lon="35.048248291">
  <ele>412.182129</ele>
  <time>2011-06-17T06:24:21Z</time>
  <speed>3.460000</speed>
</trkpt>
<trkpt lat="32.744983673" lon="35.048244476">
  <ele>412.846191</ele>
  <time>2011-06-17T06:24:22Z</time>
  <speed>3.520000</speed>
</trkpt>
<trkpt lat="32.745014191" lon="35.048244476">
  <ele>412.822754</ele>
  <time>2011-06-17T06:24:23Z</time>
  <speed>3.070000</speed>
</trkpt>
<trkpt lat="32.745048523" lon="35.048244476">
  <ele>413.908691</ele>
  <time>2011-06-17T06:24:24Z</time>
  <speed>3.870000</speed>
</trkpt>
<trkpt lat="32.745082855" lon="35.048252106">
  <ele>414.268066</ele>
  <time>2011-06-17T06:24:25Z</time>
  <speed>3.380000</speed>
</trkpt>
<trkpt lat="32.745117188" lon="35.048248291">
  <ele>415.189941</ele>
  <time>2011-06-17T06:24:26Z</time>
  <speed>3.590000</speed>
</trkpt>
<trkpt lat="32.745143890" lon="35.048236847">
  <ele>415.143066</ele>
  <time>2011-06-17T06:24:27Z</time>
  <speed>3.150000</speed>
</trkpt>
<trkpt lat="32.745174408" lon="35.048229218">
  <ele>415.033691</ele>
  <time>2011-06-17T06:24:28Z</time>
  <speed>2.880000</speed>
</trkpt>
<trkpt lat="32.745201111" lon="35.048221588">
  <ele>415.604004</ele>
  <time>2011-06-17T06:24:29Z</time>
  <speed>2.870000</speed>
</trkpt>
<trkpt lat="32.745227814" lon="35.048213959">
  <ele>415.439941</ele>
  <time>2011-06-17T06:24:30Z</time>
  <speed>2.900000</speed>
</trkpt>
<trkpt lat="32.745273590" lon="35.048198700">
  <ele>415.088379</ele>
  <time>2011-06-17T06:24:32Z</time>
  <speed>2.200000</speed>
</trkpt>
<trkpt lat="32.745311737" lon="35.048175812">
  <ele>415.275879</ele>
  <time>2011-06-17T06:24:33Z</time>
  <speed>3.310000</speed>
</trkpt>
<trkpt lat="32.745342255" lon="35.048160553">
  <ele>415.252441</ele>
  <time>2011-06-17T06:24:34Z</time>
  <speed>3.320000</speed>
</trkpt>
<trkpt lat="32.745380402" lon="35.048130035">
  <ele>415.400879</ele>
  <time>2011-06-17T06:24:35Z</time>
  <speed>3.730000</speed>
</trkpt>
<trkpt lat="32.745414734" lon="35.048118591">
  <ele>414.900879</ele>
  <time>2011-06-17T06:24:36Z</time>
  <speed>3.690000</speed>
</trkpt>
<trkpt lat="32.745449066" lon="35.048099518">
  <ele>414.596191</ele>
  <time>2011-06-17T06:24:37Z</time>
  <speed>3.550000</speed>
</trkpt>
<trkpt lat="32.745471954" lon="35.048084259">
  <ele>414.479004</ele>
  <time>2011-06-17T06:24:38Z</time>
  <speed>3.190000</speed>
</trkpt>
<trkpt lat="32.745532990" lon="35.048076630">
  <ele>415.619629</ele>
  <time>2011-06-17T06:24:39Z</time>
  <speed>4.620000</speed>
</trkpt>
<trkpt lat="32.745574951" lon="35.048084259">
  <ele>415.080566</ele>
  <time>2011-06-17T06:24:40Z</time>
  <speed>4.480000</speed>
</trkpt>
<trkpt lat="32.745624542" lon="35.048080444">
  <ele>415.650879</ele>
  <time>2011-06-17T06:24:41Z</time>
  <speed>4.130000</speed>
</trkpt>
<trkpt lat="32.745662689" lon="35.048069000">
  <ele>414.916504</ele>
  <time>2011-06-17T06:24:42Z</time>
  <speed>3.860000</speed>
</trkpt>
<trkpt lat="32.745700836" lon="35.048053741">
  <ele>414.283691</ele>
  <time>2011-06-17T06:24:43Z</time>
  <speed>3.900000</speed>
</trkpt>
<trkpt lat="32.745735168" lon="35.048042297">
  <ele>413.377441</ele>
  <time>2011-06-17T06:24:44Z</time>
  <speed>3.640000</speed>
</trkpt>
<trkpt lat="32.745765686" lon="35.048015594">
  <ele>412.447754</ele>
  <time>2011-06-17T06:24:45Z</time>
  <speed>2.970000</speed>
</trkpt>
<trkpt lat="32.745811462" lon="35.047988892">
  <ele>410.783691</ele>
  <time>2011-06-17T06:24:47Z</time>
  <speed>3.350000</speed>
</trkpt>
<trkpt lat="32.745845795" lon="35.047981262">
  <ele>410.307129</ele>
  <time>2011-06-17T06:24:48Z</time>
  <speed>3.900000</speed>
</trkpt>
<trkpt lat="32.745891571" lon="35.047977448">
  <ele>410.682129</ele>
  <time>2011-06-17T06:24:49Z</time>
  <speed>3.890000</speed>
</trkpt>
<trkpt lat="32.745925903" lon="35.047981262">
  <ele>409.432129</ele>
  <time>2011-06-17T06:24:50Z</time>
  <speed>3.580000</speed>
</trkpt>
<trkpt lat="32.745967865" lon="35.047992706">
  <ele>410.002441</ele>
  <time>2011-06-17T06:24:51Z</time>
  <speed>3.830000</speed>
</trkpt>
<trkpt lat="32.746002197" lon="35.048004150">
  <ele>409.877441</ele>
  <time>2011-06-17T06:24:52Z</time>
  <speed>4.140000</speed>
</trkpt>
<trkpt lat="32.746025085" lon="35.048019409">
  <ele>410.416504</ele>
  <time>2011-06-17T06:24:53Z</time>
  <speed>3.660000</speed>
</trkpt>
<trkpt lat="32.746051788" lon="35.048046112">
  <ele>409.994629</ele>
  <time>2011-06-17T06:24:54Z</time>
  <speed>2.850000</speed>
</trkpt>
<trkpt lat="32.746078491" lon="35.048057556">
  <ele>409.971191</ele>
  <time>2011-06-17T06:24:55Z</time>
  <speed>3.130000</speed>
</trkpt>
<trkpt lat="32.746109009" lon="35.048065186">
  <ele>410.588379</ele>
  <time>2011-06-17T06:24:56Z</time>
  <speed>3.490000</speed>
</trkpt>
<trkpt lat="32.746143341" lon="35.048080444">
  <ele>410.127441</ele>
  <time>2011-06-17T06:24:57Z</time>
  <speed>3.860000</speed>
</trkpt>
<trkpt lat="32.746170044" lon="35.048099518">
  <ele>410.236816</ele>
  <time>2011-06-17T06:24:58Z</time>
  <speed>3.220000</speed>
</trkpt>
<trkpt lat="32.746204376" lon="35.048122406">
  <ele>410.166504</ele>
  <time>2011-06-17T06:25:00Z</time>
  <speed>2.100000</speed>
</trkpt>
<trkpt lat="32.746253967" lon="35.048137665">
  <ele>410.096191</ele>
  <time>2011-06-17T06:25:02Z</time>
  <speed>2.640000</speed>
</trkpt>
<trkpt lat="32.746299744" lon="35.048152924">
  <ele>410.057129</ele>
  <time>2011-06-17T06:25:04Z</time>
  <speed>2.640000</speed>
</trkpt>
<trkpt lat="32.746349335" lon="35.048164368">
  <ele>411.010254</ele>
  <time>2011-06-17T06:25:06Z</time>
  <speed>3.220000</speed>
</trkpt>
<trkpt lat="32.746379852" lon="35.048175812">
  <ele>411.018066</ele>
  <time>2011-06-17T06:25:07Z</time>
  <speed>3.090000</speed>
</trkpt>
<trkpt lat="32.746406555" lon="35.048187256">
  <ele>411.002441</ele>
  <time>2011-06-17T06:25:08Z</time>
  <speed>2.860000</speed>
</trkpt>
<trkpt lat="32.746448517" lon="35.048206329">
  <ele>411.291504</ele>
  <time>2011-06-17T06:25:10Z</time>
  <speed>2.830000</speed>
</trkpt>
<trkpt lat="32.746501923" lon="35.048229218">
  <ele>411.252441</ele>
  <time>2011-06-17T06:25:12Z</time>
  <speed>3.360000</speed>
</trkpt>
<trkpt lat="32.746532440" lon="35.048236847">
  <ele>411.314941</ele>
  <time>2011-06-17T06:25:13Z</time>
  <speed>3.050000</speed>
</trkpt>
<trkpt lat="32.746585846" lon="35.048248291">
  <ele>411.049316</ele>
  <time>2011-06-17T06:25:15Z</time>
  <speed>3.320000</speed>
</trkpt>
<trkpt lat="32.746631622" lon="35.048252106">
  <ele>411.486816</ele>
  <time>2011-06-17T06:25:16Z</time>
  <speed>4.090000</speed>
</trkpt>
<trkpt lat="32.746677399" lon="35.048274994">
  <ele>410.354004</ele>
  <time>2011-06-17T06:25:17Z</time>
  <speed>4.290000</speed>
</trkpt>
<trkpt lat="32.746730804" lon="35.048290253">
  <ele>410.533691</ele>
  <time>2011-06-17T06:25:18Z</time>
  <speed>4.270000</speed>
</trkpt>
<trkpt lat="32.746768951" lon="35.048305511">
  <ele>411.471191</ele>
  <time>2011-06-17T06:25:19Z</time>
  <speed>3.760000</speed>
</trkpt>
<trkpt lat="32.746799469" lon="35.048309326">
  <ele>411.541504</ele>
  <time>2011-06-17T06:25:20Z</time>
  <speed>3.030000</speed>
</trkpt>
<trkpt lat="32.746826172" lon="35.048328400">
  <ele>410.205566</ele>
  <time>2011-06-17T06:25:21Z</time>
  <speed>2.590000</speed>
</trkpt>
<trkpt lat="32.746871948" lon="35.048339844">
  <ele>409.854004</ele>
  <time>2011-06-17T06:25:23Z</time>
  <speed>3.110000</speed>
</trkpt>
<trkpt lat="32.746929169" lon="35.048339844">
  <ele>409.885254</ele>
  <time>2011-06-17T06:25:25Z</time>
  <speed>3.410000</speed>
</trkpt>
<trkpt lat="32.746959686" lon="35.048339844">
  <ele>409.916504</ele>
  <time>2011-06-17T06:25:26Z</time>
  <speed>3.460000</speed>
</trkpt>
<trkpt lat="32.746990204" lon="35.048339844">
  <ele>410.408691</ele>
  <time>2011-06-17T06:25:27Z</time>
  <speed>3.460000</speed>
</trkpt>
<trkpt lat="32.747016907" lon="35.048347473">
  <ele>410.096191</ele>
  <time>2011-06-17T06:25:28Z</time>
  <speed>3.490000</speed>
</trkpt>
<trkpt lat="32.747051239" lon="35.048351288">
  <ele>409.893066</ele>
  <time>2011-06-17T06:25:29Z</time>
  <speed>3.670000</speed>
</trkpt>
<trkpt lat="32.747081757" lon="35.048347473">
  <ele>409.580566</ele>
  <time>2011-06-17T06:25:30Z</time>
  <speed>3.210000</speed>
</trkpt>
<trkpt lat="32.747127533" lon="35.048339844">
  <ele>409.604004</ele>
  <time>2011-06-17T06:25:32Z</time>
  <speed>1.940000</speed>
</trkpt>
<trkpt lat="32.747158051" lon="35.048320770">
  <ele>408.705566</ele>
  <time>2011-06-17T06:25:34Z</time>
  <speed>1.860000</speed>
</trkpt>
<trkpt lat="32.747188568" lon="35.048297882">
  <ele>407.689941</ele>
  <time>2011-06-17T06:25:36Z</time>
  <speed>2.110000</speed>
</trkpt>
<trkpt lat="32.747219086" lon="35.048294067">
  <ele>407.736816</ele>
  <time>2011-06-17T06:25:37Z</time>
  <speed>3.490000</speed>
</trkpt>
<trkpt lat="32.747257233" lon="35.048290253">
  <ele>407.549316</ele>
  <time>2011-06-17T06:25:38Z</time>
  <speed>3.510000</speed>
</trkpt>
<trkpt lat="32.747287750" lon="35.048282623">
  <ele>406.791504</ele>
  <time>2011-06-17T06:25:39Z</time>
  <speed>3.140000</speed>
</trkpt>
<trkpt lat="32.747314453" lon="35.048274994">
  <ele>406.447754</ele>
  <time>2011-06-17T06:25:40Z</time>
  <speed>3.330000</speed>
</trkpt>
<trkpt lat="32.747371674" lon="35.048271179">
  <ele>406.096191</ele>
  <time>2011-06-17T06:25:42Z</time>
  <speed>3.770000</speed>
</trkpt>
<trkpt lat="32.747409821" lon="35.048271179">
  <ele>406.018066</ele>
  <time>2011-06-17T06:25:43Z</time>
  <speed>3.910000</speed>
</trkpt>
<trkpt lat="32.747440338" lon="35.048267365">
  <ele>406.588379</ele>
  <time>2011-06-17T06:25:44Z</time>
  <speed>3.510000</speed>
</trkpt>
<trkpt lat="32.747470856" lon="35.048252106">
  <ele>405.713379</ele>
  <time>2011-06-17T06:25:45Z</time>
  <speed>3.210000</speed>
</trkpt>
<trkpt lat="32.747497559" lon="35.048244476">
  <ele>403.971191</ele>
  <time>2011-06-17T06:25:46Z</time>
  <speed>3.250000</speed>
</trkpt>
<trkpt lat="32.747531891" lon="35.048244476">
  <ele>403.307129</ele>
  <time>2011-06-17T06:25:47Z</time>
  <speed>3.740000</speed>
</trkpt>
<trkpt lat="32.747558594" lon="35.048240662">
  <ele>402.486816</ele>
  <time>2011-06-17T06:25:48Z</time>
  <speed>2.650000</speed>
</trkpt>
<trkpt lat="32.747612000" lon="35.048221588">
  <ele>402.432129</ele>
  <time>2011-06-17T06:25:50Z</time>
  <speed>3.100000</speed>
</trkpt>
<trkpt lat="32.747650146" lon="35.048213959">
  <ele>401.838379</ele>
  <time>2011-06-17T06:25:51Z</time>
  <speed>3.660000</speed>
</trkpt>
<trkpt lat="32.747676849" lon="35.048206329">
  <ele>400.408691</ele>
  <time>2011-06-17T06:25:52Z</time>
  <speed>3.390000</speed>
</trkpt>
<trkpt lat="32.747711182" lon="35.048191071">
  <ele>399.580566</ele>
  <time>2011-06-17T06:25:53Z</time>
  <speed>3.620000</speed>
</trkpt>
<trkpt lat="32.747741699" lon="35.048164368">
  <ele>400.744629</ele>
  <time>2011-06-17T06:25:54Z</time>
  <speed>3.830000</speed>
</trkpt>
<trkpt lat="32.747776031" lon="35.048168182">
  <ele>399.025879</ele>
  <time>2011-06-17T06:25:55Z</time>
  <speed>4.040000</speed>
</trkpt>
<trkpt lat="32.747806549" lon="35.048156738">
  <ele>399.377441</ele>
  <time>2011-06-17T06:25:56Z</time>
  <speed>3.690000</speed>
</trkpt>
<trkpt lat="32.747837067" lon="35.048152924">
  <ele>399.291504</ele>
  <time>2011-06-17T06:25:57Z</time>
  <speed>3.310000</speed>
</trkpt>
<trkpt lat="32.747867584" lon="35.048152924">
  <ele>399.486816</ele>
  <time>2011-06-17T06:25:58Z</time>
  <speed>2.990000</speed>
</trkpt>
<trkpt lat="32.747917175" lon="35.048145294">
  <ele>398.979004</ele>
  <time>2011-06-17T06:26:00Z</time>
  <speed>3.220000</speed>
</trkpt>
<trkpt lat="32.747947693" lon="35.048133850">
  <ele>398.713379</ele>
  <time>2011-06-17T06:26:01Z</time>
  <speed>3.080000</speed>
</trkpt>
<trkpt lat="32.747974396" lon="35.048118591">
  <ele>397.721191</ele>
  <time>2011-06-17T06:26:02Z</time>
  <speed>3.730000</speed>
</trkpt>
<trkpt lat="32.748001099" lon="35.048099518">
  <ele>396.916504</ele>
  <time>2011-06-17T06:26:03Z</time>
  <speed>3.630000</speed>
</trkpt>
<trkpt lat="32.748031616" lon="35.048084259">
  <ele>395.510254</ele>
  <time>2011-06-17T06:26:04Z</time>
  <speed>3.670000</speed>
</trkpt>
<trkpt lat="32.748065948" lon="35.048069000">
  <ele>394.541504</ele>
  <time>2011-06-17T06:26:05Z</time>
  <speed>3.810000</speed>
</trkpt>
<trkpt lat="32.748104095" lon="35.048061371">
  <ele>394.424316</ele>
  <time>2011-06-17T06:26:06Z</time>
  <speed>3.970000</speed>
</trkpt>
<trkpt lat="32.748146057" lon="35.048053741">
  <ele>392.986816</ele>
  <time>2011-06-17T06:26:07Z</time>
  <speed>3.740000</speed>
</trkpt>
<trkpt lat="32.748176575" lon="35.048042297">
  <ele>392.486816</ele>
  <time>2011-06-17T06:26:08Z</time>
  <speed>3.590000</speed>
</trkpt>
<trkpt lat="32.748210907" lon="35.048023224">
  <ele>392.377441</ele>
  <time>2011-06-17T06:26:09Z</time>
  <speed>3.550000</speed>
</trkpt>
<trkpt lat="32.748233795" lon="35.048007965">
  <ele>392.275879</ele>
  <time>2011-06-17T06:26:10Z</time>
  <speed>3.380000</speed>
</trkpt>
<trkpt lat="32.748260498" lon="35.047985077">
  <ele>391.494629</ele>
  <time>2011-06-17T06:26:11Z</time>
  <speed>3.530000</speed>
</trkpt>
<trkpt lat="32.748279572" lon="35.047962189">
  <ele>391.299316</ele>
  <time>2011-06-17T06:26:12Z</time>
  <speed>3.530000</speed>
</trkpt>
<trkpt lat="32.748306274" lon="35.047935486">
  <ele>390.658691</ele>
  <time>2011-06-17T06:26:13Z</time>
  <speed>3.750000</speed>
</trkpt>
<trkpt lat="32.748325348" lon="35.047901154">
  <ele>390.611816</ele>
  <time>2011-06-17T06:26:14Z</time>
  <speed>3.620000</speed>
</trkpt>
<trkpt lat="32.748348236" lon="35.047870636">
  <ele>390.424316</ele>
  <time>2011-06-17T06:26:15Z</time>
  <speed>3.430000</speed>
</trkpt>
<trkpt lat="32.748367310" lon="35.047843933">
  <ele>390.025879</ele>
  <time>2011-06-17T06:26:16Z</time>
  <speed>2.920000</speed>
</trkpt>
<trkpt lat="32.748394012" lon="35.047824860">
  <ele>388.854004</ele>
  <time>2011-06-17T06:26:17Z</time>
  <speed>3.730000</speed>
</trkpt>
<trkpt lat="32.748424530" lon="35.047813416">
  <ele>388.072754</ele>
  <time>2011-06-17T06:26:18Z</time>
  <speed>3.120000</speed>
</trkpt>
<trkpt lat="32.748455048" lon="35.047805786">
  <ele>386.768066</ele>
  <time>2011-06-17T06:26:19Z</time>
  <speed>2.970000</speed>
</trkpt>
<trkpt lat="32.748477936" lon="35.047790527">
  <ele>386.361816</ele>
  <time>2011-06-17T06:26:20Z</time>
  <speed>2.700000</speed>
</trkpt>
<trkpt lat="32.748500824" lon="35.047767639">
  <ele>385.674316</ele>
  <time>2011-06-17T06:26:21Z</time>
  <speed>3.020000</speed>
</trkpt>
<trkpt lat="32.748527527" lon="35.047752380">
  <ele>385.096191</ele>
  <time>2011-06-17T06:26:22Z</time>
  <speed>3.390000</speed>
</trkpt>
<trkpt lat="32.748558044" lon="35.047740936">
  <ele>384.174316</ele>
  <time>2011-06-17T06:26:23Z</time>
  <speed>3.630000</speed>
</trkpt>
<trkpt lat="32.748603821" lon="35.047733307">
  <ele>384.166504</ele>
  <time>2011-06-17T06:26:25Z</time>
  <speed>2.460000</speed>
</trkpt>
<trkpt lat="32.748653412" lon="35.047737122">
  <ele>384.150879</ele>
  <time>2011-06-17T06:26:27Z</time>
  <speed>2.030000</speed>
</trkpt>
<trkpt lat="32.748687744" lon="35.047767639">
  <ele>384.268066</ele>
  <time>2011-06-17T06:26:29Z</time>
  <speed>2.180000</speed>
</trkpt>
<trkpt lat="32.748729706" lon="35.047779083">
  <ele>384.963379</ele>
  <time>2011-06-17T06:26:31Z</time>
  <speed>2.730000</speed>
</trkpt>
<trkpt lat="32.748783112" lon="35.047790527">
  <ele>384.064941</ele>
  <time>2011-06-17T06:26:33Z</time>
  <speed>2.550000</speed>
</trkpt>
<trkpt lat="32.748821259" lon="35.047809601">
  <ele>384.010254</ele>
  <time>2011-06-17T06:26:35Z</time>
  <speed>2.530000</speed>
</trkpt>
<trkpt lat="32.748851776" lon="35.047843933">
  <ele>385.158691</ele>
  <time>2011-06-17T06:26:37Z</time>
  <speed>1.920000</speed>
</trkpt>
<trkpt lat="32.748886108" lon="35.047870636">
  <ele>385.057129</ele>
  <time>2011-06-17T06:26:39Z</time>
  <speed>2.000000</speed>
</trkpt>
<trkpt lat="32.748924255" lon="35.047893524">
  <ele>385.611816</ele>
  <time>2011-06-17T06:26:41Z</time>
  <speed>2.090000</speed>
</trkpt>
<trkpt lat="32.748962402" lon="35.047904968">
  <ele>386.041504</ele>
  <time>2011-06-17T06:26:43Z</time>
  <speed>1.960000</speed>
</trkpt>
<trkpt lat="32.749008179" lon="35.047904968">
  <ele>386.002441</ele>
  <time>2011-06-17T06:26:45Z</time>
  <speed>2.350000</speed>
</trkpt>
<trkpt lat="32.749065399" lon="35.047908783">
  <ele>385.213379</ele>
  <time>2011-06-17T06:26:47Z</time>
  <speed>3.040000</speed>
</trkpt>
<trkpt lat="32.749099731" lon="35.047916412">
  <ele>384.854004</ele>
  <time>2011-06-17T06:26:48Z</time>
  <speed>3.150000</speed>
</trkpt>
<trkpt lat="32.749130249" lon="35.047912598">
  <ele>384.299316</ele>
  <time>2011-06-17T06:26:49Z</time>
  <speed>3.150000</speed>
</trkpt>
<trkpt lat="32.749176025" lon="35.047904968">
  <ele>383.658691</ele>
  <time>2011-06-17T06:26:51Z</time>
  <speed>2.370000</speed>
</trkpt>
<trkpt lat="32.749217987" lon="35.047882080">
  <ele>382.822754</ele>
  <time>2011-06-17T06:26:53Z</time>
  <speed>2.380000</speed>
</trkpt>
<trkpt lat="32.749248505" lon="35.047866821">
  <ele>381.611816</ele>
  <time>2011-06-17T06:26:54Z</time>
  <speed>2.900000</speed>
</trkpt>
<trkpt lat="32.749305725" lon="35.047832489">
  <ele>380.111816</ele>
  <time>2011-06-17T06:26:56Z</time>
  <speed>2.640000</speed>
</trkpt>
<trkpt lat="32.749336243" lon="35.047824860">
  <ele>378.846191</ele>
  <time>2011-06-17T06:26:57Z</time>
  <speed>3.120000</speed>
</trkpt>
<trkpt lat="32.749374390" lon="35.047798157">
  <ele>377.135254</ele>
  <time>2011-06-17T06:26:59Z</time>
  <speed>2.320000</speed>
</trkpt>
<trkpt lat="32.749401093" lon="35.047790527">
  <ele>375.994629</ele>
  <time>2011-06-17T06:27:00Z</time>
  <speed>2.610000</speed>
</trkpt>
<trkpt lat="32.749458313" lon="35.047779083">
  <ele>375.354004</ele>
  <time>2011-06-17T06:27:02Z</time>
  <speed>3.340000</speed>
</trkpt>
<trkpt lat="32.749485016" lon="35.047782898">
  <ele>374.182129</ele>
  <time>2011-06-17T06:27:03Z</time>
  <speed>2.760000</speed>
</trkpt>
<trkpt lat="32.749511719" lon="35.047786713">
  <ele>373.588379</ele>
  <time>2011-06-17T06:27:04Z</time>
  <speed>2.030000</speed>
</trkpt>
<trkpt lat="32.749557495" lon="35.047801971">
  <ele>375.893066</ele>
  <time>2011-06-17T06:27:06Z</time>
  <speed>1.830000</speed>
</trkpt>
<trkpt lat="32.749614716" lon="35.047805786">
  <ele>377.010254</ele>
  <time>2011-06-17T06:27:08Z</time>
  <speed>3.440000</speed>
</trkpt>
<trkpt lat="32.749645233" lon="35.047809601">
  <ele>376.744629</ele>
  <time>2011-06-17T06:27:09Z</time>
  <speed>3.700000</speed>
</trkpt>
<trkpt lat="32.749683380" lon="35.047832489">
  <ele>376.041504</ele>
  <time>2011-06-17T06:27:10Z</time>
  <speed>4.540000</speed>
</trkpt>
<trkpt lat="32.749721527" lon="35.047863007">
  <ele>375.861816</ele>
  <time>2011-06-17T06:27:11Z</time>
  <speed>5.180000</speed>
</trkpt>
<trkpt lat="32.749763489" lon="35.047885895">
  <ele>375.229004</ele>
  <time>2011-06-17T06:27:12Z</time>
  <speed>4.690000</speed>
</trkpt>
<trkpt lat="32.749813080" lon="35.047889709">
  <ele>374.314941</ele>
  <time>2011-06-17T06:27:13Z</time>
  <speed>5.640000</speed>
</trkpt>
<trkpt lat="32.749862671" lon="35.047885895">
  <ele>373.986816</ele>
  <time>2011-06-17T06:27:14Z</time>
  <speed>5.970000</speed>
</trkpt>
<trkpt lat="32.749919891" lon="35.047874451">
  <ele>373.088379</ele>
  <time>2011-06-17T06:27:15Z</time>
  <speed>6.300000</speed>
</trkpt>
<trkpt lat="32.749988556" lon="35.047851563">
  <ele>372.674316</ele>
  <time>2011-06-17T06:27:16Z</time>
  <speed>7.460000</speed>
</trkpt>
<trkpt lat="32.750064850" lon="35.047828674">
  <ele>372.002441</ele>
  <time>2011-06-17T06:27:17Z</time>
  <speed>7.350000</speed>
</trkpt>
<trkpt lat="32.750129700" lon="35.047801971">
  <ele>371.322754</ele>
  <time>2011-06-17T06:27:18Z</time>
  <speed>6.990000</speed>
</trkpt>
<trkpt lat="32.750194550" lon="35.047782898">
  <ele>370.361816</ele>
  <time>2011-06-17T06:27:19Z</time>
  <speed>7.060000</speed>
</trkpt>
<trkpt lat="32.750255585" lon="35.047767639">
  <ele>370.557129</ele>
  <time>2011-06-17T06:27:20Z</time>
  <speed>7.350000</speed>
</trkpt>
<trkpt lat="32.750324249" lon="35.047771454">
  <ele>370.064941</ele>
  <time>2011-06-17T06:27:21Z</time>
  <speed>7.880000</speed>
</trkpt>
<trkpt lat="32.750396729" lon="35.047794342">
  <ele>369.588379</ele>
  <time>2011-06-17T06:27:22Z</time>
  <speed>7.990000</speed>
</trkpt>
<trkpt lat="32.750461578" lon="35.047821045">
  <ele>369.033691</ele>
  <time>2011-06-17T06:27:23Z</time>
  <speed>7.980000</speed>
</trkpt>
<trkpt lat="32.750526428" lon="35.047859192">
  <ele>368.486816</ele>
  <time>2011-06-17T06:27:24Z</time>
  <speed>8.030000</speed>
</trkpt>
<trkpt lat="32.750583649" lon="35.047912598">
  <ele>367.994629</ele>
  <time>2011-06-17T06:27:25Z</time>
  <speed>7.390000</speed>
</trkpt>
<trkpt lat="32.750629425" lon="35.047969818">
  <ele>367.955566</ele>
  <time>2011-06-17T06:27:26Z</time>
  <speed>7.310000</speed>
</trkpt>
<trkpt lat="32.750675201" lon="35.048027039">
  <ele>367.830566</ele>
  <time>2011-06-17T06:27:27Z</time>
  <speed>6.720000</speed>
</trkpt>
<trkpt lat="32.750717163" lon="35.048076630">
  <ele>367.783691</ele>
  <time>2011-06-17T06:27:28Z</time>
  <speed>6.070000</speed>
</trkpt>
<trkpt lat="32.750755310" lon="35.048118591">
  <ele>367.697754</ele>
  <time>2011-06-17T06:27:29Z</time>
  <speed>6.030000</speed>
</trkpt>
<trkpt lat="32.750797272" lon="35.048164368">
  <ele>367.275879</ele>
  <time>2011-06-17T06:27:30Z</time>
  <speed>5.530000</speed>
</trkpt>
<trkpt lat="32.750827789" lon="35.048206329">
  <ele>367.291504</ele>
  <time>2011-06-17T06:27:31Z</time>
  <speed>5.400000</speed>
</trkpt>
<trkpt lat="32.750865936" lon="35.048248291">
  <ele>366.947754</ele>
  <time>2011-06-17T06:27:32Z</time>
  <speed>5.390000</speed>
</trkpt>
<trkpt lat="32.750907898" lon="35.048278809">
  <ele>366.783691</ele>
  <time>2011-06-17T06:27:33Z</time>
  <speed>5.290000</speed>
</trkpt>
<trkpt lat="32.750949860" lon="35.048301697">
  <ele>366.736816</ele>
  <time>2011-06-17T06:27:34Z</time>
  <speed>4.970000</speed>
</trkpt>
<trkpt lat="32.750988007" lon="35.048324585">
  <ele>367.189941</ele>
  <time>2011-06-17T06:27:35Z</time>
  <speed>4.660000</speed>
</trkpt>
<trkpt lat="32.751033783" lon="35.048336029">
  <ele>367.463379</ele>
  <time>2011-06-17T06:27:36Z</time>
  <speed>5.050000</speed>
</trkpt>
<trkpt lat="32.751075745" lon="35.048351288">
  <ele>367.775879</ele>
  <time>2011-06-17T06:27:37Z</time>
  <speed>4.590000</speed>
</trkpt>
<trkpt lat="32.751121521" lon="35.048351288">
  <ele>366.658691</ele>
  <time>2011-06-17T06:27:38Z</time>
  <speed>4.670000</speed>
</trkpt>
<trkpt lat="32.751171112" lon="35.048336029">
  <ele>365.393066</ele>
  <time>2011-06-17T06:27:39Z</time>
  <speed>5.440000</speed>
</trkpt>
<trkpt lat="32.751205444" lon="35.048297882">
  <ele>364.150879</ele>
  <time>2011-06-17T06:27:40Z</time>
  <speed>4.680000</speed>
</trkpt>
<trkpt lat="32.751232147" lon="35.048252106">
  <ele>363.674316</ele>
  <time>2011-06-17T06:27:41Z</time>
  <speed>4.330000</speed>
</trkpt>
<trkpt lat="32.751251221" lon="35.048217773">
  <ele>362.385254</ele>
  <time>2011-06-17T06:27:42Z</time>
  <speed>4.060000</speed>
</trkpt>
<trkpt lat="32.751274109" lon="35.048191071">
  <ele>360.549316</ele>
  <time>2011-06-17T06:27:43Z</time>
  <speed>3.260000</speed>
</trkpt>
<trkpt lat="32.751296997" lon="35.048168182">
  <ele>360.424316</ele>
  <time>2011-06-17T06:27:44Z</time>
  <speed>3.140000</speed>
</trkpt>
<trkpt lat="32.751335144" lon="35.048149109">
  <ele>360.369629</ele>
  <time>2011-06-17T06:27:46Z</time>
  <speed>1.790000</speed>
</trkpt>
<trkpt lat="32.751369476" lon="35.048145294">
  <ele>361.166504</ele>
  <time>2011-06-17T06:27:48Z</time>
  <speed>0.790000</speed>
</trkpt>
<trkpt lat="32.751354218" lon="35.048156738">
  <ele>360.900879</ele>
  <time>2011-06-17T06:28:01Z</time>
  <speed>0.030000</speed>
</trkpt>
</trkseg>
</trk>
</gpx>
